<?xml version='1.0' encoding='UTF-8'?><gpx version="1.1" creator="JPX - https://github.com/jenetics/jpx" xmlns="http://www.topografix.com/GPX/1/1"><trk><trkseg><trkpt lat="40.4583783" lon="15.0124883"><ele>23.0</ele><time>2026-05-02T04:18:22.488Z</time></trkpt><trkpt lat="40.4583833" lon="15.012395"><ele>23.0</ele><time>2026-05-02T04:18:24.488Z</time></trkpt><trkpt lat="40.4584083" lon="15.0123083"><ele>23.0</ele><time>2026-05-02T04:18:27.488Z</time></trkpt><trkpt lat="40.4584867" lon="15.0122767"><ele>23.0</ele><time>2026-05-02T04:18:29.488Z</time></trkpt><trkpt lat="40.4586017" lon="15.01228"><ele>23.0</ele><time>2026-05-02T04:18:31.488Z</time></trkpt><trkpt lat="40.4586783" lon="15.012285"><ele>23.0</ele><time>2026-05-02T04:18:32.488Z</time></trkpt><trkpt lat="40.45876" lon="15.01229"><ele>22.599999999999998</ele><time>2026-05-02T04:18:33.488Z</time></trkpt><trkpt lat="40.45885" lon="15.0122933"><ele>22.2</ele><time>2026-05-02T04:18:34.488Z</time></trkpt><trkpt lat="40.4589483" lon="15.0123033"><ele>21.8</ele><time>2026-05-02T04:18:35.488Z</time></trkpt><trkpt lat="40.4590517" lon="15.0123217"><ele>21.4</ele><time>2026-05-02T04:18:36.488Z</time></trkpt><trkpt lat="40.459155" lon="15.012335"><ele>21.0</ele><time>2026-05-02T04:18:37.488Z</time></trkpt><trkpt lat="40.4592583" lon="15.012345"><ele>21.0</ele><time>2026-05-02T04:18:38.489Z</time></trkpt><trkpt lat="40.459375" lon="15.0123617"><ele>21.0</ele><time>2026-05-02T04:18:39.488Z</time></trkpt><trkpt lat="40.4595" lon="15.01238"><ele>21.0</ele><time>2026-05-02T04:18:40.488Z</time></trkpt><trkpt lat="40.4596333" lon="15.012395"><ele>21.0</ele><time>2026-05-02T04:18:41.488Z</time></trkpt><trkpt lat="40.459775" lon="15.0124117"><ele>20.75</ele><time>2026-05-02T04:18:42.488Z</time></trkpt><trkpt lat="40.4599167" lon="15.0124283"><ele>20.5</ele><time>2026-05-02T04:18:43.488Z</time></trkpt><trkpt lat="40.46006" lon="15.0124417"><ele>20.25</ele><time>2026-05-02T04:18:44.488Z</time></trkpt><trkpt lat="40.4602083" lon="15.0124567"><ele>20.0</ele><time>2026-05-02T04:18:45.488Z</time></trkpt><trkpt lat="40.4603583" lon="15.0124683"><ele>20.666666666666668</ele><time>2026-05-02T04:18:46.488Z</time></trkpt><trkpt lat="40.4605133" lon="15.01249"><ele>21.333333333333332</ele><time>2026-05-02T04:18:47.488Z</time></trkpt><trkpt lat="40.460675" lon="15.0125083"><ele>22.0</ele><time>2026-05-02T04:18:48.488Z</time></trkpt><trkpt lat="40.460845" lon="15.01253"><ele>22.0</ele><time>2026-05-02T04:18:49.488Z</time></trkpt><trkpt lat="40.4610117" lon="15.0125467"><ele>22.0</ele><time>2026-05-02T04:18:50.488Z</time></trkpt><trkpt lat="40.4611767" lon="15.0125583"><ele>22.0</ele><time>2026-05-02T04:18:51.489Z</time></trkpt><trkpt lat="40.4613417" lon="15.0125733"><ele>22.333333333333332</ele><time>2026-05-02T04:18:52.488Z</time></trkpt><trkpt lat="40.461505" lon="15.012595"><ele>22.666666666666668</ele><time>2026-05-02T04:18:53.488Z</time></trkpt><trkpt lat="40.4616633" lon="15.012615"><ele>23.0</ele><time>2026-05-02T04:18:54.488Z</time></trkpt><trkpt lat="40.4618183" lon="15.0126367"><ele>23.0</ele><time>2026-05-02T04:18:55.488Z</time></trkpt><trkpt lat="40.4619767" lon="15.012655"><ele>23.0</ele><time>2026-05-02T04:18:56.488Z</time></trkpt><trkpt lat="40.46214" lon="15.0126767"><ele>23.0</ele><time>2026-05-02T04:18:57.488Z</time></trkpt><trkpt lat="40.4623" lon="15.0126983"><ele>22.75</ele><time>2026-05-02T04:18:58.488Z</time></trkpt><trkpt lat="40.4624533" lon="15.01272"><ele>22.5</ele><time>2026-05-02T04:18:59.488Z</time></trkpt><trkpt lat="40.4625983" lon="15.0127183"><ele>22.25</ele><time>2026-05-02T04:19:00.488Z</time></trkpt><trkpt lat="40.46274" lon="15.0127"><ele>22.0</ele><time>2026-05-02T04:19:01.488Z</time></trkpt><trkpt lat="40.4628717" lon="15.0126533"><ele>22.0</ele><time>2026-05-02T04:19:02.488Z</time></trkpt><trkpt lat="40.462995" lon="15.01258"><ele>22.0</ele><time>2026-05-02T04:19:03.488Z</time></trkpt><trkpt lat="40.4631283" lon="15.0124867"><ele>22.0</ele><time>2026-05-02T04:19:04.488Z</time></trkpt><trkpt lat="40.4632567" lon="15.0123883"><ele>22.0</ele><time>2026-05-02T04:19:05.488Z</time></trkpt><trkpt lat="40.4633867" lon="15.0122717"><ele>22.0</ele><time>2026-05-02T04:19:06.488Z</time></trkpt><trkpt lat="40.4635183" lon="15.0121617"><ele>22.0</ele><time>2026-05-02T04:19:07.488Z</time></trkpt><trkpt lat="40.4636567" lon="15.01206"><ele>22.0</ele><time>2026-05-02T04:19:08.489Z</time></trkpt><trkpt lat="40.4638" lon="15.0119667"><ele>22.25</ele><time>2026-05-02T04:19:09.489Z</time></trkpt><trkpt lat="40.4639367" lon="15.0119067"><ele>22.5</ele><time>2026-05-02T04:19:10.488Z</time></trkpt><trkpt lat="40.4640717" lon="15.01186"><ele>22.75</ele><time>2026-05-02T04:19:11.488Z</time></trkpt><trkpt lat="40.4642183" lon="15.0118517"><ele>23.0</ele><time>2026-05-02T04:19:12.489Z</time></trkpt><trkpt lat="40.46436" lon="15.0118717"><ele>23.0</ele><time>2026-05-02T04:19:13.488Z</time></trkpt><trkpt lat="40.4644933" lon="15.0119133"><ele>23.0</ele><time>2026-05-02T04:19:14.488Z</time></trkpt><trkpt lat="40.46462" lon="15.0119833"><ele>23.0</ele><time>2026-05-02T04:19:15.489Z</time></trkpt><trkpt lat="40.4647317" lon="15.0120833"><ele>23.0</ele><time>2026-05-02T04:19:16.489Z</time></trkpt><trkpt lat="40.4648333" lon="15.0122017"><ele>23.0</ele><time>2026-05-02T04:19:17.489Z</time></trkpt><trkpt lat="40.464925" lon="15.012335"><ele>23.0</ele><time>2026-05-02T04:19:18.488Z</time></trkpt><trkpt lat="40.4650017" lon="15.0124867"><ele>23.0</ele><time>2026-05-02T04:19:19.488Z</time></trkpt><trkpt lat="40.4650617" lon="15.0126533"><ele>23.0</ele><time>2026-05-02T04:19:20.488Z</time></trkpt><trkpt lat="40.4651133" lon="15.0128333"><ele>23.5</ele><time>2026-05-02T04:19:21.488Z</time></trkpt><trkpt lat="40.4651617" lon="15.0130067"><ele>24.0</ele><time>2026-05-02T04:19:22.488Z</time></trkpt><trkpt lat="40.4652083" lon="15.013175"><ele>24.5</ele><time>2026-05-02T04:19:23.488Z</time></trkpt><trkpt lat="40.4652567" lon="15.01334"><ele>25.0</ele><time>2026-05-02T04:19:24.489Z</time></trkpt><trkpt lat="40.4653083" lon="15.013495"><ele>25.0</ele><time>2026-05-02T04:19:25.488Z</time></trkpt><trkpt lat="40.465365" lon="15.013635"><ele>25.0</ele><time>2026-05-02T04:19:26.488Z</time></trkpt><trkpt lat="40.4654283" lon="15.0137617"><ele>25.0</ele><time>2026-05-02T04:19:27.488Z</time></trkpt><trkpt lat="40.465505" lon="15.0138683"><ele>25.0</ele><time>2026-05-02T04:19:28.488Z</time></trkpt><trkpt lat="40.4655933" lon="15.01396"><ele>25.0</ele><time>2026-05-02T04:19:29.488Z</time></trkpt><trkpt lat="40.4656833" lon="15.0140333"><ele>25.0</ele><time>2026-05-02T04:19:30.488Z</time></trkpt><trkpt lat="40.465785" lon="15.014075"><ele>25.0</ele><time>2026-05-02T04:19:31.489Z</time></trkpt><trkpt lat="40.46589" lon="15.014105"><ele>25.0</ele><time>2026-05-02T04:19:32.488Z</time></trkpt><trkpt lat="40.4659933" lon="15.0141233"><ele>25.0</ele><time>2026-05-02T04:19:33.488Z</time></trkpt><trkpt lat="40.4660967" lon="15.0141117"><ele>25.0</ele><time>2026-05-02T04:19:34.488Z</time></trkpt><trkpt lat="40.466195" lon="15.0140783"><ele>25.0</ele><time>2026-05-02T04:19:35.488Z</time></trkpt><trkpt lat="40.4662983" lon="15.0140233"><ele>25.0</ele><time>2026-05-02T04:19:36.488Z</time></trkpt><trkpt lat="40.4663983" lon="15.013955"><ele>25.0</ele><time>2026-05-02T04:19:37.488Z</time></trkpt><trkpt lat="40.466495" lon="15.0138817"><ele>25.0</ele><time>2026-05-02T04:19:38.488Z</time></trkpt><trkpt lat="40.466585" lon="15.0138067"><ele>25.0</ele><time>2026-05-02T04:19:39.488Z</time></trkpt><trkpt lat="40.4666717" lon="15.0137233"><ele>25.0</ele><time>2026-05-02T04:19:40.488Z</time></trkpt><trkpt lat="40.4667683" lon="15.0136367"><ele>25.0</ele><time>2026-05-02T04:19:41.488Z</time></trkpt><trkpt lat="40.46687" lon="15.0135517"><ele>25.0</ele><time>2026-05-02T04:19:42.488Z</time></trkpt><trkpt lat="40.4669833" lon="15.0134617"><ele>25.333333333333336</ele><time>2026-05-02T04:19:43.488Z</time></trkpt><trkpt lat="40.467115" lon="15.0133867"><ele>25.666666666666664</ele><time>2026-05-02T04:19:44.488Z</time></trkpt><trkpt lat="40.46726" lon="15.013335"><ele>26.0</ele><time>2026-05-02T04:19:45.488Z</time></trkpt><trkpt lat="40.4674167" lon="15.01332"><ele>26.0</ele><time>2026-05-02T04:19:46.488Z</time></trkpt><trkpt lat="40.4675833" lon="15.0133267"><ele>26.0</ele><time>2026-05-02T04:19:47.488Z</time></trkpt><trkpt lat="40.46775" lon="15.0133367"><ele>26.0</ele><time>2026-05-02T04:19:48.488Z</time></trkpt><trkpt lat="40.4679217" lon="15.0133667"><ele>25.333333333333332</ele><time>2026-05-02T04:19:49.488Z</time></trkpt><trkpt lat="40.4681017" lon="15.013395"><ele>24.666666666666664</ele><time>2026-05-02T04:19:50.488Z</time></trkpt><trkpt lat="40.4682783" lon="15.0134233"><ele>24.0</ele><time>2026-05-02T04:19:51.488Z</time></trkpt><trkpt lat="40.4684567" lon="15.0134383"><ele>24.0</ele><time>2026-05-02T04:19:52.488Z</time></trkpt><trkpt lat="40.46864" lon="15.013455"><ele>24.0</ele><time>2026-05-02T04:19:53.488Z</time></trkpt><trkpt lat="40.4688217" lon="15.01347"><ele>24.0</ele><time>2026-05-02T04:19:54.488Z</time></trkpt><trkpt lat="40.468995" lon="15.0134917"><ele>24.0</ele><time>2026-05-02T04:19:55.488Z</time></trkpt><trkpt lat="40.4691617" lon="15.01352"><ele>24.0</ele><time>2026-05-02T04:19:56.488Z</time></trkpt><trkpt lat="40.4693183" lon="15.01354"><ele>24.0</ele><time>2026-05-02T04:19:57.488Z</time></trkpt><trkpt lat="40.4694583" lon="15.013555"><ele>24.0</ele><time>2026-05-02T04:19:58.488Z</time></trkpt><trkpt lat="40.46958" lon="15.01357"><ele>24.0</ele><time>2026-05-02T04:19:59.488Z</time></trkpt><trkpt lat="40.4696817" lon="15.0135917"><ele>24.0</ele><time>2026-05-02T04:20:00.488Z</time></trkpt><trkpt lat="40.469765" lon="15.0136183"><ele>24.0</ele><time>2026-05-02T04:20:01.488Z</time></trkpt><trkpt lat="40.4698267" lon="15.0136567"><ele>24.0</ele><time>2026-05-02T04:20:02.488Z</time></trkpt><trkpt lat="40.4698767" lon="15.0137217"><ele>24.285714285714285</ele><time>2026-05-02T04:20:03.488Z</time></trkpt><trkpt lat="40.4699133" lon="15.0138083"><ele>24.57142857142857</ele><time>2026-05-02T04:20:04.488Z</time></trkpt><trkpt lat="40.4699467" lon="15.0139033"><ele>24.857142857142854</ele><time>2026-05-02T04:20:05.488Z</time></trkpt><trkpt lat="40.4699983" lon="15.0139767"><ele>25.142857142857142</ele><time>2026-05-02T04:20:06.488Z</time></trkpt><trkpt lat="40.4700583" lon="15.0140283"><ele>25.42857142857143</ele><time>2026-05-02T04:20:07.489Z</time></trkpt><trkpt lat="40.4701267" lon="15.0140567"><ele>25.71428571428571</ele><time>2026-05-02T04:20:08.488Z</time></trkpt><trkpt lat="40.4701983" lon="15.01405"><ele>26.0</ele><time>2026-05-02T04:20:09.488Z</time></trkpt><trkpt lat="40.4702717" lon="15.01401"><ele>26.0</ele><time>2026-05-02T04:20:10.488Z</time></trkpt><trkpt lat="40.47034" lon="15.0139467"><ele>26.0</ele><time>2026-05-02T04:20:11.488Z</time></trkpt><trkpt lat="40.4704117" lon="15.013885"><ele>26.0</ele><time>2026-05-02T04:20:12.488Z</time></trkpt><trkpt lat="40.4704917" lon="15.01384"><ele>26.0</ele><time>2026-05-02T04:20:13.489Z</time></trkpt><trkpt lat="40.4705917" lon="15.0138083"><ele>26.0</ele><time>2026-05-02T04:20:14.488Z</time></trkpt><trkpt lat="40.4707017" lon="15.0137917"><ele>25.5</ele><time>2026-05-02T04:20:15.488Z</time></trkpt><trkpt lat="40.47082" lon="15.0137783"><ele>25.0</ele><time>2026-05-02T04:20:16.488Z</time></trkpt><trkpt lat="40.4709483" lon="15.0137683"><ele>24.5</ele><time>2026-05-02T04:20:17.489Z</time></trkpt><trkpt lat="40.4710917" lon="15.0137683"><ele>24.0</ele><time>2026-05-02T04:20:18.488Z</time></trkpt><trkpt lat="40.4712467" lon="15.0137733"><ele>24.333333333333336</ele><time>2026-05-02T04:20:19.488Z</time></trkpt><trkpt lat="40.471405" lon="15.0137883"><ele>24.666666666666668</ele><time>2026-05-02T04:20:20.488Z</time></trkpt><trkpt lat="40.4715583" lon="15.013805"><ele>25.0</ele><time>2026-05-02T04:20:21.488Z</time></trkpt><trkpt lat="40.47172" lon="15.0138317"><ele>25.0</ele><time>2026-05-02T04:20:22.488Z</time></trkpt><trkpt lat="40.471895" lon="15.0138567"><ele>25.0</ele><time>2026-05-02T04:20:23.489Z</time></trkpt><trkpt lat="40.47208" lon="15.0138833"><ele>25.0</ele><time>2026-05-02T04:20:24.488Z</time></trkpt><trkpt lat="40.4722717" lon="15.013905"><ele>24.666666666666668</ele><time>2026-05-02T04:20:25.488Z</time></trkpt><trkpt lat="40.47247" lon="15.0139283"><ele>24.333333333333336</ele><time>2026-05-02T04:20:26.488Z</time></trkpt><trkpt lat="40.472665" lon="15.0139533"><ele>24.0</ele><time>2026-05-02T04:20:27.488Z</time></trkpt><trkpt lat="40.4728617" lon="15.0139767"><ele>23.666666666666668</ele><time>2026-05-02T04:20:28.488Z</time></trkpt><trkpt lat="40.4730533" lon="15.0140033"><ele>23.333333333333336</ele><time>2026-05-02T04:20:29.488Z</time></trkpt><trkpt lat="40.47325" lon="15.01403"><ele>23.0</ele><time>2026-05-02T04:20:30.488Z</time></trkpt><trkpt lat="40.47345" lon="15.014055"><ele>23.0</ele><time>2026-05-02T04:20:31.488Z</time></trkpt><trkpt lat="40.47365" lon="15.0140733"><ele>23.0</ele><time>2026-05-02T04:20:32.489Z</time></trkpt><trkpt lat="40.47385" lon="15.014105"><ele>23.0</ele><time>2026-05-02T04:20:33.488Z</time></trkpt><trkpt lat="40.4740533" lon="15.0141233"><ele>23.0</ele><time>2026-05-02T04:20:34.488Z</time></trkpt><trkpt lat="40.47425" lon="15.014145"><ele>23.0</ele><time>2026-05-02T04:20:35.488Z</time></trkpt><trkpt lat="40.4744533" lon="15.0141733"><ele>23.0</ele><time>2026-05-02T04:20:36.488Z</time></trkpt><trkpt lat="40.4746633" lon="15.0141983"><ele>22.0</ele><time>2026-05-02T04:20:37.488Z</time></trkpt><trkpt lat="40.4748717" lon="15.0142217"><ele>21.0</ele><time>2026-05-02T04:20:38.488Z</time></trkpt><trkpt lat="40.475075" lon="15.01425"><ele>20.0</ele><time>2026-05-02T04:20:39.488Z</time></trkpt><trkpt lat="40.4752867" lon="15.0142767"><ele>20.666666666666668</ele><time>2026-05-02T04:20:40.488Z</time></trkpt><trkpt lat="40.4754967" lon="15.0143"><ele>21.333333333333332</ele><time>2026-05-02T04:20:41.488Z</time></trkpt><trkpt lat="40.4757067" lon="15.014325"><ele>22.0</ele><time>2026-05-02T04:20:42.488Z</time></trkpt><trkpt lat="40.47592" lon="15.0143533"><ele>22.0</ele><time>2026-05-02T04:20:43.489Z</time></trkpt><trkpt lat="40.476125" lon="15.0143767"><ele>22.0</ele><time>2026-05-02T04:20:44.488Z</time></trkpt><trkpt lat="40.4763433" lon="15.0144017"><ele>22.0</ele><time>2026-05-02T04:20:45.488Z</time></trkpt><trkpt lat="40.47656" lon="15.014425"><ele>21.333333333333332</ele><time>2026-05-02T04:20:46.488Z</time></trkpt><trkpt lat="40.476775" lon="15.0144467"><ele>20.666666666666668</ele><time>2026-05-02T04:20:47.488Z</time></trkpt><trkpt lat="40.4769933" lon="15.0144733"><ele>20.0</ele><time>2026-05-02T04:20:48.488Z</time></trkpt><trkpt lat="40.4772083" lon="15.0144967"><ele>19.666666666666668</ele><time>2026-05-02T04:20:49.488Z</time></trkpt><trkpt lat="40.4774233" lon="15.0145217"><ele>19.333333333333332</ele><time>2026-05-02T04:20:50.488Z</time></trkpt><trkpt lat="40.47764" lon="15.0145517"><ele>19.0</ele><time>2026-05-02T04:20:51.488Z</time></trkpt><trkpt lat="40.4778583" lon="15.0145817"><ele>19.0</ele><time>2026-05-02T04:20:52.488Z</time></trkpt><trkpt lat="40.4780767" lon="15.0146117"><ele>19.0</ele><time>2026-05-02T04:20:53.488Z</time></trkpt><trkpt lat="40.4782917" lon="15.0146433"><ele>19.0</ele><time>2026-05-02T04:20:54.488Z</time></trkpt><trkpt lat="40.478505" lon="15.01467"><ele>19.0</ele><time>2026-05-02T04:20:55.488Z</time></trkpt><trkpt lat="40.478715" lon="15.0146933"><ele>19.0</ele><time>2026-05-02T04:20:56.488Z</time></trkpt><trkpt lat="40.4789183" lon="15.0147183"><ele>19.0</ele><time>2026-05-02T04:20:57.488Z</time></trkpt><trkpt lat="40.47912" lon="15.01474"><ele>18.666666666666664</ele><time>2026-05-02T04:20:58.488Z</time></trkpt><trkpt lat="40.479315" lon="15.01476"><ele>18.333333333333332</ele><time>2026-05-02T04:20:59.488Z</time></trkpt><trkpt lat="40.4795033" lon="15.0147817"><ele>18.0</ele><time>2026-05-02T04:21:00.488Z</time></trkpt><trkpt lat="40.479695" lon="15.01481"><ele>17.666666666666668</ele><time>2026-05-02T04:21:01.488Z</time></trkpt><trkpt lat="40.4798833" lon="15.0148367"><ele>17.333333333333336</ele><time>2026-05-02T04:21:02.489Z</time></trkpt><trkpt lat="40.4800633" lon="15.01485"><ele>17.0</ele><time>2026-05-02T04:21:03.488Z</time></trkpt><trkpt lat="40.48025" lon="15.0148767"><ele>16.666666666666668</ele><time>2026-05-02T04:21:04.488Z</time></trkpt><trkpt lat="40.4804333" lon="15.0149017"><ele>16.333333333333332</ele><time>2026-05-02T04:21:05.488Z</time></trkpt><trkpt lat="40.4806217" lon="15.01492"><ele>16.0</ele><time>2026-05-02T04:21:06.488Z</time></trkpt><trkpt lat="40.480815" lon="15.014945"><ele>16.0</ele><time>2026-05-02T04:21:07.488Z</time></trkpt><trkpt lat="40.4810117" lon="15.0149817"><ele>16.0</ele><time>2026-05-02T04:21:08.488Z</time></trkpt><trkpt lat="40.481215" lon="15.0150133"><ele>16.0</ele><time>2026-05-02T04:21:09.488Z</time></trkpt><trkpt lat="40.48142" lon="15.0150433"><ele>15.0</ele><time>2026-05-02T04:21:10.488Z</time></trkpt><trkpt lat="40.4816267" lon="15.0150717"><ele>14.0</ele><time>2026-05-02T04:21:11.488Z</time></trkpt><trkpt lat="40.4818367" lon="15.015095"><ele>13.0</ele><time>2026-05-02T04:21:12.488Z</time></trkpt><trkpt lat="40.4820467" lon="15.0151183"><ele>12.666666666666666</ele><time>2026-05-02T04:21:13.488Z</time></trkpt><trkpt lat="40.4822617" lon="15.0151417"><ele>12.333333333333332</ele><time>2026-05-02T04:21:14.488Z</time></trkpt><trkpt lat="40.4824783" lon="15.01517"><ele>12.0</ele><time>2026-05-02T04:21:15.489Z</time></trkpt><trkpt lat="40.4826983" lon="15.0152"><ele>12.0</ele><time>2026-05-02T04:21:16.488Z</time></trkpt><trkpt lat="40.4829183" lon="15.01522"><ele>12.0</ele><time>2026-05-02T04:21:17.488Z</time></trkpt><trkpt lat="40.4831433" lon="15.015245"><ele>12.0</ele><time>2026-05-02T04:21:18.488Z</time></trkpt><trkpt lat="40.483365" lon="15.0152733"><ele>11.5</ele><time>2026-05-02T04:21:19.488Z</time></trkpt><trkpt lat="40.4835883" lon="15.0152967"><ele>11.0</ele><time>2026-05-02T04:21:20.489Z</time></trkpt><trkpt lat="40.4838167" lon="15.0153267"><ele>12.0</ele><time>2026-05-02T04:21:21.488Z</time></trkpt><trkpt lat="40.4840483" lon="15.015355"><ele>13.0</ele><time>2026-05-02T04:21:22.488Z</time></trkpt><trkpt lat="40.4842717" lon="15.015375"><ele>13.0</ele><time>2026-05-02T04:21:23.488Z</time></trkpt><trkpt lat="40.4845" lon="15.0153967"><ele>13.0</ele><time>2026-05-02T04:21:24.488Z</time></trkpt><trkpt lat="40.4847283" lon="15.0154267"><ele>12.5</ele><time>2026-05-02T04:21:25.488Z</time></trkpt><trkpt lat="40.4849583" lon="15.0154517"><ele>12.0</ele><time>2026-05-02T04:21:26.488Z</time></trkpt><trkpt lat="40.48518" lon="15.01548"><ele>12.0</ele><time>2026-05-02T04:21:27.489Z</time></trkpt><trkpt lat="40.485415" lon="15.01551"><ele>12.0</ele><time>2026-05-02T04:21:28.488Z</time></trkpt><trkpt lat="40.4856433" lon="15.0155317"><ele>11.5</ele><time>2026-05-02T04:21:29.488Z</time></trkpt><trkpt lat="40.485875" lon="15.0155533"><ele>11.0</ele><time>2026-05-02T04:21:30.488Z</time></trkpt><trkpt lat="40.4861083" lon="15.0155817"><ele>10.0</ele><time>2026-05-02T04:21:31.488Z</time></trkpt><trkpt lat="40.4863433" lon="15.01561"><ele>9.0</ele><time>2026-05-02T04:21:32.488Z</time></trkpt><trkpt lat="40.4865817" lon="15.015645"><ele>9.0</ele><time>2026-05-02T04:21:33.488Z</time></trkpt><trkpt lat="40.486815" lon="15.0156717"><ele>9.0</ele><time>2026-05-02T04:21:34.488Z</time></trkpt><trkpt lat="40.4870517" lon="15.0156983"><ele>10.0</ele><time>2026-05-02T04:21:35.488Z</time></trkpt><trkpt lat="40.4872917" lon="15.01573"><ele>11.0</ele><time>2026-05-02T04:21:36.488Z</time></trkpt><trkpt lat="40.4875283" lon="15.0157617"><ele>11.0</ele><time>2026-05-02T04:21:37.488Z</time></trkpt><trkpt lat="40.4877617" lon="15.0157933"><ele>11.0</ele><time>2026-05-02T04:21:38.488Z</time></trkpt><trkpt lat="40.4879933" lon="15.0158233"><ele>12.5</ele><time>2026-05-02T04:21:39.489Z</time></trkpt><trkpt lat="40.4882283" lon="15.0158517"><ele>14.0</ele><time>2026-05-02T04:21:40.488Z</time></trkpt><trkpt lat="40.4884533" lon="15.0158783"><ele>14.0</ele><time>2026-05-02T04:21:41.488Z</time></trkpt><trkpt lat="40.4886817" lon="15.015905"><ele>14.0</ele><time>2026-05-02T04:21:42.488Z</time></trkpt><trkpt lat="40.4889117" lon="15.0159233"><ele>15.333333333333334</ele><time>2026-05-02T04:21:43.488Z</time></trkpt><trkpt lat="40.489135" lon="15.01595"><ele>16.666666666666668</ele><time>2026-05-02T04:21:44.488Z</time></trkpt><trkpt lat="40.4893567" lon="15.0159683"><ele>18.0</ele><time>2026-05-02T04:21:45.488Z</time></trkpt><trkpt lat="40.4895767" lon="15.015995"><ele>17.333333333333332</ele><time>2026-05-02T04:21:46.489Z</time></trkpt><trkpt lat="40.4897967" lon="15.0160183"><ele>16.666666666666664</ele><time>2026-05-02T04:21:47.488Z</time></trkpt><trkpt lat="40.4900117" lon="15.01604"><ele>16.0</ele><time>2026-05-02T04:21:48.488Z</time></trkpt><trkpt lat="40.4902333" lon="15.0160633"><ele>16.333333333333332</ele><time>2026-05-02T04:21:49.488Z</time></trkpt><trkpt lat="40.490455" lon="15.016085"><ele>16.666666666666668</ele><time>2026-05-02T04:21:50.488Z</time></trkpt><trkpt lat="40.49067" lon="15.016105"><ele>17.0</ele><time>2026-05-02T04:21:51.488Z</time></trkpt><trkpt lat="40.4908833" lon="15.0161367"><ele>17.0</ele><time>2026-05-02T04:21:52.488Z</time></trkpt><trkpt lat="40.4910867" lon="15.0161517"><ele>17.0</ele><time>2026-05-02T04:21:53.488Z</time></trkpt><trkpt lat="40.49129" lon="15.01618"><ele>17.0</ele><time>2026-05-02T04:21:54.488Z</time></trkpt><trkpt lat="40.49149" lon="15.0162033"><ele>17.333333333333336</ele><time>2026-05-02T04:21:55.488Z</time></trkpt><trkpt lat="40.491685" lon="15.0162317"><ele>17.666666666666668</ele><time>2026-05-02T04:21:56.488Z</time></trkpt><trkpt lat="40.491885" lon="15.0162617"><ele>18.0</ele><time>2026-05-02T04:21:57.488Z</time></trkpt><trkpt lat="40.4920833" lon="15.0162817"><ele>17.666666666666668</ele><time>2026-05-02T04:21:58.488Z</time></trkpt><trkpt lat="40.4922733" lon="15.016305"><ele>17.333333333333336</ele><time>2026-05-02T04:21:59.488Z</time></trkpt><trkpt lat="40.4924617" lon="15.0163267"><ele>17.0</ele><time>2026-05-02T04:22:00.488Z</time></trkpt><trkpt lat="40.4926433" lon="15.016345"><ele>17.0</ele><time>2026-05-02T04:22:01.488Z</time></trkpt><trkpt lat="40.4928117" lon="15.0163483"><ele>17.0</ele><time>2026-05-02T04:22:02.488Z</time></trkpt><trkpt lat="40.4929783" lon="15.0163467"><ele>17.0</ele><time>2026-05-02T04:22:03.488Z</time></trkpt><trkpt lat="40.4931333" lon="15.0163183"><ele>16.666666666666668</ele><time>2026-05-02T04:22:04.488Z</time></trkpt><trkpt lat="40.4932883" lon="15.0162817"><ele>16.333333333333332</ele><time>2026-05-02T04:22:05.488Z</time></trkpt><trkpt lat="40.49344" lon="15.016235"><ele>16.0</ele><time>2026-05-02T04:22:06.488Z</time></trkpt><trkpt lat="40.4935867" lon="15.0161817"><ele>16.0</ele><time>2026-05-02T04:22:07.488Z</time></trkpt><trkpt lat="40.4937333" lon="15.0161233"><ele>16.0</ele><time>2026-05-02T04:22:08.488Z</time></trkpt><trkpt lat="40.49387" lon="15.0160683"><ele>16.0</ele><time>2026-05-02T04:22:09.488Z</time></trkpt><trkpt lat="40.4939967" lon="15.0160183"><ele>16.0</ele><time>2026-05-02T04:22:10.488Z</time></trkpt><trkpt lat="40.4941117" lon="15.0159717"><ele>16.2</ele><time>2026-05-02T04:22:11.488Z</time></trkpt><trkpt lat="40.4942183" lon="15.0159467"><ele>16.400000000000002</ele><time>2026-05-02T04:22:12.488Z</time></trkpt><trkpt lat="40.49432" lon="15.0159483"><ele>16.6</ele><time>2026-05-02T04:22:13.488Z</time></trkpt><trkpt lat="40.49441" lon="15.0159633"><ele>16.8</ele><time>2026-05-02T04:22:14.488Z</time></trkpt><trkpt lat="40.49449" lon="15.015975"><ele>17.0</ele><time>2026-05-02T04:22:15.488Z</time></trkpt><trkpt lat="40.4945633" lon="15.015965"><ele>16.71428571428571</ele><time>2026-05-02T04:22:16.488Z</time></trkpt><trkpt lat="40.4946283" lon="15.01593"><ele>16.428571428571427</ele><time>2026-05-02T04:22:17.488Z</time></trkpt><trkpt lat="40.4946717" lon="15.0158683"><ele>16.142857142857142</ele><time>2026-05-02T04:22:18.488Z</time></trkpt><trkpt lat="40.494695" lon="15.0157883"><ele>15.857142857142856</ele><time>2026-05-02T04:22:19.488Z</time></trkpt><trkpt lat="40.494715" lon="15.0156817"><ele>15.57142857142857</ele><time>2026-05-02T04:22:20.488Z</time></trkpt><trkpt lat="40.494745" lon="15.0155867"><ele>15.285714285714286</ele><time>2026-05-02T04:22:21.488Z</time></trkpt><trkpt lat="40.4947983" lon="15.015505"><ele>15.0</ele><time>2026-05-02T04:22:22.488Z</time></trkpt><trkpt lat="40.4948633" lon="15.0154433"><ele>15.0</ele><time>2026-05-02T04:22:23.488Z</time></trkpt><trkpt lat="40.4949517" lon="15.0153883"><ele>15.0</ele><time>2026-05-02T04:22:24.488Z</time></trkpt><trkpt lat="40.4950583" lon="15.015335"><ele>15.0</ele><time>2026-05-02T04:22:25.488Z</time></trkpt><trkpt lat="40.495165" lon="15.0152783"><ele>15.0</ele><time>2026-05-02T04:22:26.488Z</time></trkpt><trkpt lat="40.495275" lon="15.0152167"><ele>15.0</ele><time>2026-05-02T04:22:27.488Z</time></trkpt><trkpt lat="40.49539" lon="15.0151483"><ele>14.25</ele><time>2026-05-02T04:22:28.488Z</time></trkpt><trkpt lat="40.495515" lon="15.0150733"><ele>13.5</ele><time>2026-05-02T04:22:29.488Z</time></trkpt><trkpt lat="40.4956533" lon="15.0149967"><ele>12.75</ele><time>2026-05-02T04:22:30.488Z</time></trkpt><trkpt lat="40.4957967" lon="15.0149117"><ele>12.0</ele><time>2026-05-02T04:22:31.488Z</time></trkpt><trkpt lat="40.4959433" lon="15.0148267"><ele>11.333333333333334</ele><time>2026-05-02T04:22:32.488Z</time></trkpt><trkpt lat="40.4960867" lon="15.01474"><ele>10.666666666666668</ele><time>2026-05-02T04:22:33.488Z</time></trkpt><trkpt lat="40.4962383" lon="15.0146533"><ele>10.0</ele><time>2026-05-02T04:22:34.488Z</time></trkpt><trkpt lat="40.4964017" lon="15.0145617"><ele>8.666666666666668</ele><time>2026-05-02T04:22:35.488Z</time></trkpt><trkpt lat="40.496565" lon="15.0144667"><ele>7.333333333333334</ele><time>2026-05-02T04:22:36.488Z</time></trkpt><trkpt lat="40.4967317" lon="15.014365"><ele>6.0</ele><time>2026-05-02T04:22:37.488Z</time></trkpt><trkpt lat="40.4969133" lon="15.01427"><ele>6.333333333333334</ele><time>2026-05-02T04:22:38.489Z</time></trkpt><trkpt lat="40.497095" lon="15.0141667"><ele>6.666666666666667</ele><time>2026-05-02T04:22:39.488Z</time></trkpt><trkpt lat="40.4972783" lon="15.01406"><ele>7.0</ele><time>2026-05-02T04:22:40.488Z</time></trkpt><trkpt lat="40.4974583" lon="15.0139533"><ele>7.0</ele><time>2026-05-02T04:22:41.488Z</time></trkpt><trkpt lat="40.4976383" lon="15.0138533"><ele>7.0</ele><time>2026-05-02T04:22:42.488Z</time></trkpt><trkpt lat="40.49782" lon="15.0137467"><ele>7.0</ele><time>2026-05-02T04:22:43.488Z</time></trkpt><trkpt lat="40.4980067" lon="15.0136367"><ele>7.333333333333334</ele><time>2026-05-02T04:22:44.488Z</time></trkpt><trkpt lat="40.498195" lon="15.01353"><ele>7.666666666666666</ele><time>2026-05-02T04:22:45.489Z</time></trkpt><trkpt lat="40.49839" lon="15.0134267"><ele>8.0</ele><time>2026-05-02T04:22:46.488Z</time></trkpt><trkpt lat="40.498585" lon="15.0133167"><ele>6.666666666666666</ele><time>2026-05-02T04:22:47.488Z</time></trkpt><trkpt lat="40.4987817" lon="15.0132017"><ele>5.333333333333333</ele><time>2026-05-02T04:22:48.488Z</time></trkpt><trkpt lat="40.49898" lon="15.01309"><ele>4.0</ele><time>2026-05-02T04:22:49.488Z</time></trkpt><trkpt lat="40.49918" lon="15.0129767"><ele>4.0</ele><time>2026-05-02T04:22:50.488Z</time></trkpt><trkpt lat="40.49938" lon="15.0128617"><ele>4.0</ele><time>2026-05-02T04:22:51.488Z</time></trkpt><trkpt lat="40.4995783" lon="15.012745"><ele>4.0</ele><time>2026-05-02T04:22:52.488Z</time></trkpt><trkpt lat="40.499775" lon="15.0126317"><ele>4.333333333333333</ele><time>2026-05-02T04:22:53.488Z</time></trkpt><trkpt lat="40.4999717" lon="15.0125167"><ele>4.666666666666667</ele><time>2026-05-02T04:22:54.488Z</time></trkpt><trkpt lat="40.5001717" lon="15.0124067"><ele>5.0</ele><time>2026-05-02T04:22:55.488Z</time></trkpt><trkpt lat="40.500375" lon="15.01229"><ele>5.0</ele><time>2026-05-02T04:22:56.488Z</time></trkpt><trkpt lat="40.5005733" lon="15.0121717"><ele>5.0</ele><time>2026-05-02T04:22:57.488Z</time></trkpt><trkpt lat="40.5007733" lon="15.0120583"><ele>5.0</ele><time>2026-05-02T04:22:58.488Z</time></trkpt><trkpt lat="40.5009683" lon="15.0119383"><ele>5.0</ele><time>2026-05-02T04:22:59.489Z</time></trkpt><trkpt lat="40.501165" lon="15.0118217"><ele>5.0</ele><time>2026-05-02T04:23:00.488Z</time></trkpt><trkpt lat="40.5013617" lon="15.0117133"><ele>5.0</ele><time>2026-05-02T04:23:01.488Z</time></trkpt><trkpt lat="40.5015567" lon="15.0116"><ele>5.333333333333334</ele><time>2026-05-02T04:23:02.488Z</time></trkpt><trkpt lat="40.5017433" lon="15.011495"><ele>5.666666666666667</ele><time>2026-05-02T04:23:03.488Z</time></trkpt><trkpt lat="40.501935" lon="15.0114017"><ele>6.0</ele><time>2026-05-02T04:23:04.488Z</time></trkpt><trkpt lat="40.5021317" lon="15.0113233"><ele>6.0</ele><time>2026-05-02T04:23:05.488Z</time></trkpt><trkpt lat="40.5023333" lon="15.0112717"><ele>6.0</ele><time>2026-05-02T04:23:06.488Z</time></trkpt><trkpt lat="40.502535" lon="15.01124"><ele>6.0</ele><time>2026-05-02T04:23:07.488Z</time></trkpt><trkpt lat="40.502735" lon="15.011245"><ele>5.666666666666667</ele><time>2026-05-02T04:23:08.488Z</time></trkpt><trkpt lat="40.5029367" lon="15.01127"><ele>5.333333333333334</ele><time>2026-05-02T04:23:09.488Z</time></trkpt><trkpt lat="40.5031367" lon="15.01132"><ele>5.0</ele><time>2026-05-02T04:23:10.488Z</time></trkpt><trkpt lat="40.5033367" lon="15.0113883"><ele>5.0</ele><time>2026-05-02T04:23:11.488Z</time></trkpt><trkpt lat="40.5035467" lon="15.0114433"><ele>5.0</ele><time>2026-05-02T04:23:12.488Z</time></trkpt><trkpt lat="40.50376" lon="15.0115"><ele>5.0</ele><time>2026-05-02T04:23:13.488Z</time></trkpt><trkpt lat="40.503975" lon="15.01156"><ele>5.333333333333334</ele><time>2026-05-02T04:23:14.488Z</time></trkpt><trkpt lat="40.5041933" lon="15.0116183"><ele>5.666666666666667</ele><time>2026-05-02T04:23:15.489Z</time></trkpt><trkpt lat="40.5044067" lon="15.0116733"><ele>6.0</ele><time>2026-05-02T04:23:16.489Z</time></trkpt><trkpt lat="40.504625" lon="15.0117283"><ele>6.0</ele><time>2026-05-02T04:23:17.489Z</time></trkpt><trkpt lat="40.504845" lon="15.011785"><ele>6.0</ele><time>2026-05-02T04:23:18.489Z</time></trkpt><trkpt lat="40.5050583" lon="15.0118467"><ele>6.0</ele><time>2026-05-02T04:23:19.489Z</time></trkpt><trkpt lat="40.5052683" lon="15.0119083"><ele>6.333333333333334</ele><time>2026-05-02T04:23:20.489Z</time></trkpt><trkpt lat="40.505485" lon="15.0119633"><ele>6.666666666666667</ele><time>2026-05-02T04:23:21.489Z</time></trkpt><trkpt lat="40.5057033" lon="15.0120167"><ele>7.0</ele><time>2026-05-02T04:23:22.489Z</time></trkpt><trkpt lat="40.50592" lon="15.0120733"><ele>7.0</ele><time>2026-05-02T04:23:23.489Z</time></trkpt><trkpt lat="40.5061367" lon="15.01212"><ele>7.0</ele><time>2026-05-02T04:23:24.489Z</time></trkpt><trkpt lat="40.5063517" lon="15.0121617"><ele>7.0</ele><time>2026-05-02T04:23:25.489Z</time></trkpt><trkpt lat="40.5065667" lon="15.0121917"><ele>7.0</ele><time>2026-05-02T04:23:26.489Z</time></trkpt><trkpt lat="40.5067833" lon="15.012205"><ele>7.0</ele><time>2026-05-02T04:23:27.489Z</time></trkpt><trkpt lat="40.506995" lon="15.01219"><ele>7.0</ele><time>2026-05-02T04:23:28.489Z</time></trkpt><trkpt lat="40.5072" lon="15.0121617"><ele>6.666666666666667</ele><time>2026-05-02T04:23:29.489Z</time></trkpt><trkpt lat="40.5074117" lon="15.01211"><ele>6.333333333333334</ele><time>2026-05-02T04:23:30.489Z</time></trkpt><trkpt lat="40.50762" lon="15.0120433"><ele>6.0</ele><time>2026-05-02T04:23:31.489Z</time></trkpt><trkpt lat="40.5078283" lon="15.0119633"><ele>6.333333333333334</ele><time>2026-05-02T04:23:32.489Z</time></trkpt><trkpt lat="40.5080383" lon="15.0118867"><ele>6.666666666666667</ele><time>2026-05-02T04:23:33.49Z</time></trkpt><trkpt lat="40.5082483" lon="15.0118083"><ele>7.0</ele><time>2026-05-02T04:23:34.489Z</time></trkpt><trkpt lat="40.50846" lon="15.0117267"><ele>6.5</ele><time>2026-05-02T04:23:35.49Z</time></trkpt><trkpt lat="40.5086767" lon="15.01165"><ele>6.0</ele><time>2026-05-02T04:23:36.489Z</time></trkpt><trkpt lat="40.5089017" lon="15.0115767"><ele>5.5</ele><time>2026-05-02T04:23:37.489Z</time></trkpt><trkpt lat="40.50912" lon="15.0114983"><ele>5.0</ele><time>2026-05-02T04:23:38.489Z</time></trkpt><trkpt lat="40.5093383" lon="15.0114133"><ele>5.0</ele><time>2026-05-02T04:23:39.489Z</time></trkpt><trkpt lat="40.509555" lon="15.0113333"><ele>5.0</ele><time>2026-05-02T04:23:40.489Z</time></trkpt><trkpt lat="40.5097767" lon="15.0112467"><ele>5.5</ele><time>2026-05-02T04:23:41.489Z</time></trkpt><trkpt lat="40.5100017" lon="15.0111667"><ele>6.0</ele><time>2026-05-02T04:23:42.489Z</time></trkpt><trkpt lat="40.5102267" lon="15.01108"><ele>7.0</ele><time>2026-05-02T04:23:43.489Z</time></trkpt><trkpt lat="40.5104417" lon="15.0109983"><ele>8.0</ele><time>2026-05-02T04:23:44.489Z</time></trkpt><trkpt lat="40.510655" lon="15.0109183"><ele>9.0</ele><time>2026-05-02T04:23:45.489Z</time></trkpt><trkpt lat="40.51086" lon="15.01084"><ele>9.0</ele><time>2026-05-02T04:23:46.49Z</time></trkpt><trkpt lat="40.5110683" lon="15.0107633"><ele>9.0</ele><time>2026-05-02T04:23:47.489Z</time></trkpt><trkpt lat="40.5112733" lon="15.010685"><ele>9.0</ele><time>2026-05-02T04:23:48.489Z</time></trkpt><trkpt lat="40.5114867" lon="15.0106067"><ele>9.0</ele><time>2026-05-02T04:23:49.489Z</time></trkpt><trkpt lat="40.5117067" lon="15.0105317"><ele>9.0</ele><time>2026-05-02T04:23:50.489Z</time></trkpt><trkpt lat="40.51192" lon="15.01046"><ele>9.0</ele><time>2026-05-02T04:23:51.489Z</time></trkpt><trkpt lat="40.512135" lon="15.01039"><ele>9.0</ele><time>2026-05-02T04:23:52.489Z</time></trkpt><trkpt lat="40.5123533" lon="15.0103117"><ele>9.0</ele><time>2026-05-02T04:23:53.49Z</time></trkpt><trkpt lat="40.51257" lon="15.01023"><ele>9.0</ele><time>2026-05-02T04:23:54.489Z</time></trkpt><trkpt lat="40.51279" lon="15.0101483"><ele>9.0</ele><time>2026-05-02T04:23:55.489Z</time></trkpt><trkpt lat="40.5130083" lon="15.0100717"><ele>8.5</ele><time>2026-05-02T04:23:56.489Z</time></trkpt><trkpt lat="40.5132283" lon="15.0099883"><ele>8.0</ele><time>2026-05-02T04:23:57.489Z</time></trkpt><trkpt lat="40.5134433" lon="15.0099017"><ele>8.0</ele><time>2026-05-02T04:23:58.489Z</time></trkpt><trkpt lat="40.5136633" lon="15.0098183"><ele>8.0</ele><time>2026-05-02T04:23:59.489Z</time></trkpt><trkpt lat="40.513885" lon="15.009735"><ele>7.5</ele><time>2026-05-02T04:24:00.489Z</time></trkpt><trkpt lat="40.5141033" lon="15.0096533"><ele>7.0</ele><time>2026-05-02T04:24:01.49Z</time></trkpt><trkpt lat="40.5143217" lon="15.00957"><ele>7.0</ele><time>2026-05-02T04:24:02.489Z</time></trkpt><trkpt lat="40.51455" lon="15.0094917"><ele>7.0</ele><time>2026-05-02T04:24:03.489Z</time></trkpt><trkpt lat="40.5147783" lon="15.0094133"><ele>7.0</ele><time>2026-05-02T04:24:04.489Z</time></trkpt><trkpt lat="40.5150083" lon="15.0093367"><ele>7.0</ele><time>2026-05-02T04:24:05.489Z</time></trkpt><trkpt lat="40.5152383" lon="15.0092567"><ele>7.5</ele><time>2026-05-02T04:24:06.489Z</time></trkpt><trkpt lat="40.5154683" lon="15.009175"><ele>8.0</ele><time>2026-05-02T04:24:07.489Z</time></trkpt><trkpt lat="40.5157017" lon="15.00909"><ele>8.0</ele><time>2026-05-02T04:24:08.489Z</time></trkpt><trkpt lat="40.5159283" lon="15.00901"><ele>8.0</ele><time>2026-05-02T04:24:09.489Z</time></trkpt><trkpt lat="40.5161517" lon="15.00893"><ele>8.333333333333332</ele><time>2026-05-02T04:24:10.489Z</time></trkpt><trkpt lat="40.5163667" lon="15.0088483"><ele>8.666666666666666</ele><time>2026-05-02T04:24:11.489Z</time></trkpt><trkpt lat="40.516575" lon="15.00877"><ele>9.0</ele><time>2026-05-02T04:24:12.489Z</time></trkpt><trkpt lat="40.5167833" lon="15.008695"><ele>9.0</ele><time>2026-05-02T04:24:13.489Z</time></trkpt><trkpt lat="40.5169817" lon="15.008615"><ele>9.0</ele><time>2026-05-02T04:24:14.49Z</time></trkpt><trkpt lat="40.5171733" lon="15.008535"><ele>9.0</ele><time>2026-05-02T04:24:15.489Z</time></trkpt><trkpt lat="40.5173617" lon="15.008435"><ele>9.333333333333334</ele><time>2026-05-02T04:24:16.489Z</time></trkpt><trkpt lat="40.5175467" lon="15.00833"><ele>9.666666666666668</ele><time>2026-05-02T04:24:17.489Z</time></trkpt><trkpt lat="40.5177283" lon="15.0082133"><ele>10.0</ele><time>2026-05-02T04:24:18.489Z</time></trkpt><trkpt lat="40.51789" lon="15.0080983"><ele>11.333333333333334</ele><time>2026-05-02T04:24:19.489Z</time></trkpt><trkpt lat="40.518045" lon="15.00798"><ele>12.666666666666668</ele><time>2026-05-02T04:24:20.489Z</time></trkpt><trkpt lat="40.5181917" lon="15.007855"><ele>14.0</ele><time>2026-05-02T04:24:21.489Z</time></trkpt><trkpt lat="40.5183317" lon="15.0077133"><ele>14.0</ele><time>2026-05-02T04:24:22.489Z</time></trkpt><trkpt lat="40.5184667" lon="15.0075683"><ele>14.0</ele><time>2026-05-02T04:24:23.489Z</time></trkpt><trkpt lat="40.5186" lon="15.0074067"><ele>14.0</ele><time>2026-05-02T04:24:24.489Z</time></trkpt><trkpt lat="40.518735" lon="15.0072333"><ele>14.333333333333334</ele><time>2026-05-02T04:24:25.489Z</time></trkpt><trkpt lat="40.518875" lon="15.007045"><ele>14.666666666666668</ele><time>2026-05-02T04:24:26.489Z</time></trkpt><trkpt lat="40.5190117" lon="15.0068533"><ele>15.0</ele><time>2026-05-02T04:24:27.489Z</time></trkpt><trkpt lat="40.5191417" lon="15.00666"><ele>14.333333333333332</ele><time>2026-05-02T04:24:28.489Z</time></trkpt><trkpt lat="40.5192683" lon="15.00646"><ele>13.666666666666666</ele><time>2026-05-02T04:24:29.489Z</time></trkpt><trkpt lat="40.5193917" lon="15.0062583"><ele>13.0</ele><time>2026-05-02T04:24:30.489Z</time></trkpt><trkpt lat="40.5195167" lon="15.0060417"><ele>13.0</ele><time>2026-05-02T04:24:31.489Z</time></trkpt><trkpt lat="40.519645" lon="15.0058317"><ele>13.0</ele><time>2026-05-02T04:24:32.489Z</time></trkpt><trkpt lat="40.5197883" lon="15.0056333"><ele>13.0</ele><time>2026-05-02T04:24:33.489Z</time></trkpt><trkpt lat="40.5199383" lon="15.00544"><ele>13.333333333333332</ele><time>2026-05-02T04:24:34.489Z</time></trkpt><trkpt lat="40.5200983" lon="15.0052633"><ele>13.666666666666668</ele><time>2026-05-02T04:24:35.489Z</time></trkpt><trkpt lat="40.5202633" lon="15.0050983"><ele>14.0</ele><time>2026-05-02T04:24:36.489Z</time></trkpt><trkpt lat="40.5204333" lon="15.0049433"><ele>15.333333333333334</ele><time>2026-05-02T04:24:37.489Z</time></trkpt><trkpt lat="40.52061" lon="15.00479"><ele>16.666666666666668</ele><time>2026-05-02T04:24:38.489Z</time></trkpt><trkpt lat="40.5207917" lon="15.0046283"><ele>18.0</ele><time>2026-05-02T04:24:39.489Z</time></trkpt><trkpt lat="40.5209717" lon="15.0044733"><ele>18.0</ele><time>2026-05-02T04:24:40.489Z</time></trkpt><trkpt lat="40.5211517" lon="15.004315"><ele>18.0</ele><time>2026-05-02T04:24:41.489Z</time></trkpt><trkpt lat="40.52133" lon="15.0041583"><ele>18.0</ele><time>2026-05-02T04:24:42.489Z</time></trkpt><trkpt lat="40.5215117" lon="15.0039983"><ele>17.666666666666668</ele><time>2026-05-02T04:24:43.489Z</time></trkpt><trkpt lat="40.5216917" lon="15.0038417"><ele>17.333333333333336</ele><time>2026-05-02T04:24:44.49Z</time></trkpt><trkpt lat="40.5218633" lon="15.0036833"><ele>17.0</ele><time>2026-05-02T04:24:45.489Z</time></trkpt><trkpt lat="40.522035" lon="15.00353"><ele>17.0</ele><time>2026-05-02T04:24:46.489Z</time></trkpt><trkpt lat="40.5221983" lon="15.0033817"><ele>17.0</ele><time>2026-05-02T04:24:47.489Z</time></trkpt><trkpt lat="40.5223517" lon="15.003245"><ele>17.0</ele><time>2026-05-02T04:24:48.489Z</time></trkpt><trkpt lat="40.522495" lon="15.0031117"><ele>17.0</ele><time>2026-05-02T04:24:49.489Z</time></trkpt><trkpt lat="40.5226317" lon="15.0029833"><ele>17.0</ele><time>2026-05-02T04:24:50.489Z</time></trkpt><trkpt lat="40.52277" lon="15.0028667"><ele>17.0</ele><time>2026-05-02T04:24:51.489Z</time></trkpt><trkpt lat="40.5228967" lon="15.002735"><ele>17.0</ele><time>2026-05-02T04:24:52.489Z</time></trkpt><trkpt lat="40.523035" lon="15.0026183"><ele>17.0</ele><time>2026-05-02T04:24:53.489Z</time></trkpt><trkpt lat="40.5231683" lon="15.0024917"><ele>17.0</ele><time>2026-05-02T04:24:54.49Z</time></trkpt><trkpt lat="40.523295" lon="15.0023817"><ele>17.0</ele><time>2026-05-02T04:24:55.489Z</time></trkpt><trkpt lat="40.523415" lon="15.002285"><ele>17.0</ele><time>2026-05-02T04:24:56.489Z</time></trkpt><trkpt lat="40.523535" lon="15.002205"><ele>17.0</ele><time>2026-05-02T04:24:57.489Z</time></trkpt><trkpt lat="40.5236583" lon="15.0021483"><ele>17.0</ele><time>2026-05-02T04:24:58.489Z</time></trkpt><trkpt lat="40.5237717" lon="15.0020983"><ele>17.0</ele><time>2026-05-02T04:24:59.49Z</time></trkpt><trkpt lat="40.52388" lon="15.0020383"><ele>17.0</ele><time>2026-05-02T04:25:00.49Z</time></trkpt><trkpt lat="40.5239783" lon="15.0019617"><ele>17.0</ele><time>2026-05-02T04:25:01.49Z</time></trkpt><trkpt lat="40.52407" lon="15.001855"><ele>17.0</ele><time>2026-05-02T04:25:02.489Z</time></trkpt><trkpt lat="40.524165" lon="15.001735"><ele>17.333333333333336</ele><time>2026-05-02T04:25:03.489Z</time></trkpt><trkpt lat="40.5242683" lon="15.0016067"><ele>17.666666666666668</ele><time>2026-05-02T04:25:04.489Z</time></trkpt><trkpt lat="40.5243817" lon="15.0014717"><ele>18.0</ele><time>2026-05-02T04:25:05.489Z</time></trkpt><trkpt lat="40.52451" lon="15.00135"><ele>16.666666666666668</ele><time>2026-05-02T04:25:06.489Z</time></trkpt><trkpt lat="40.5246483" lon="15.0012267"><ele>15.333333333333334</ele><time>2026-05-02T04:25:07.49Z</time></trkpt><trkpt lat="40.5247917" lon="15.0010983"><ele>14.0</ele><time>2026-05-02T04:25:08.489Z</time></trkpt><trkpt lat="40.524945" lon="15.000965"><ele>13.666666666666668</ele><time>2026-05-02T04:25:09.49Z</time></trkpt><trkpt lat="40.5251033" lon="15.0008217"><ele>13.333333333333332</ele><time>2026-05-02T04:25:10.49Z</time></trkpt><trkpt lat="40.5252717" lon="15.0006833"><ele>13.0</ele><time>2026-05-02T04:25:11.49Z</time></trkpt><trkpt lat="40.525425" lon="15.000545"><ele>12.333333333333332</ele><time>2026-05-02T04:25:12.489Z</time></trkpt><trkpt lat="40.5255883" lon="15.0004033"><ele>11.666666666666666</ele><time>2026-05-02T04:25:13.489Z</time></trkpt><trkpt lat="40.5257433" lon="15.00026"><ele>11.0</ele><time>2026-05-02T04:25:14.489Z</time></trkpt><trkpt lat="40.5259167" lon="15.0001117"><ele>11.0</ele><time>2026-05-02T04:25:15.489Z</time></trkpt><trkpt lat="40.5260917" lon="14.9999617"><ele>11.0</ele><time>2026-05-02T04:25:16.489Z</time></trkpt><trkpt lat="40.526275" lon="14.9998183"><ele>11.0</ele><time>2026-05-02T04:25:17.489Z</time></trkpt><trkpt lat="40.5264583" lon="14.999665"><ele>10.0</ele><time>2026-05-02T04:25:18.489Z</time></trkpt><trkpt lat="40.52664" lon="14.9995117"><ele>9.0</ele><time>2026-05-02T04:25:19.489Z</time></trkpt><trkpt lat="40.52682" lon="14.9993583"><ele>8.0</ele><time>2026-05-02T04:25:20.489Z</time></trkpt><trkpt lat="40.5270017" lon="14.9991983"><ele>9.333333333333332</ele><time>2026-05-02T04:25:21.489Z</time></trkpt><trkpt lat="40.5271867" lon="14.9990383"><ele>10.666666666666666</ele><time>2026-05-02T04:25:22.489Z</time></trkpt><trkpt lat="40.5273733" lon="14.9988767"><ele>12.0</ele><time>2026-05-02T04:25:23.489Z</time></trkpt><trkpt lat="40.5275617" lon="14.99872"><ele>12.0</ele><time>2026-05-02T04:25:24.489Z</time></trkpt><trkpt lat="40.5277483" lon="14.9985533"><ele>12.0</ele><time>2026-05-02T04:25:25.489Z</time></trkpt><trkpt lat="40.527935" lon="14.9983917"><ele>12.0</ele><time>2026-05-02T04:25:26.489Z</time></trkpt><trkpt lat="40.52812" lon="14.99823"><ele>13.0</ele><time>2026-05-02T04:25:27.489Z</time></trkpt><trkpt lat="40.5283133" lon="14.9980567"><ele>14.0</ele><time>2026-05-02T04:25:28.49Z</time></trkpt><trkpt lat="40.5284983" lon="14.997885"><ele>14.0</ele><time>2026-05-02T04:25:29.489Z</time></trkpt><trkpt lat="40.52869" lon="14.997725"><ele>14.0</ele><time>2026-05-02T04:25:30.489Z</time></trkpt><trkpt lat="40.5288783" lon="14.9975617"><ele>14.333333333333334</ele><time>2026-05-02T04:25:31.489Z</time></trkpt><trkpt lat="40.5290633" lon="14.9973967"><ele>14.666666666666668</ele><time>2026-05-02T04:25:32.489Z</time></trkpt><trkpt lat="40.5292483" lon="14.9972283"><ele>15.0</ele><time>2026-05-02T04:25:33.489Z</time></trkpt><trkpt lat="40.5294267" lon="14.9970733"><ele>15.5</ele><time>2026-05-02T04:25:34.489Z</time></trkpt><trkpt lat="40.529615" lon="14.9969083"><ele>16.0</ele><time>2026-05-02T04:25:35.489Z</time></trkpt><trkpt lat="40.529805" lon="14.996745"><ele>17.0</ele><time>2026-05-02T04:25:36.489Z</time></trkpt><trkpt lat="40.5299933" lon="14.9965783"><ele>18.0</ele><time>2026-05-02T04:25:37.489Z</time></trkpt><trkpt lat="40.5301817" lon="14.9964167"><ele>18.0</ele><time>2026-05-02T04:25:38.489Z</time></trkpt><trkpt lat="40.53037" lon="14.9962517"><ele>18.0</ele><time>2026-05-02T04:25:39.49Z</time></trkpt><trkpt lat="40.530565" lon="14.9960883"><ele>19.0</ele><time>2026-05-02T04:25:40.489Z</time></trkpt><trkpt lat="40.53075" lon="14.9959217"><ele>20.0</ele><time>2026-05-02T04:25:41.489Z</time></trkpt><trkpt lat="40.53094" lon="14.995755"><ele>19.5</ele><time>2026-05-02T04:25:42.489Z</time></trkpt><trkpt lat="40.5311383" lon="14.9955867"><ele>19.0</ele><time>2026-05-02T04:25:43.489Z</time></trkpt><trkpt lat="40.5313333" lon="14.9954133"><ele>19.0</ele><time>2026-05-02T04:25:44.489Z</time></trkpt><trkpt lat="40.5315317" lon="14.9952483"><ele>19.0</ele><time>2026-05-02T04:25:45.489Z</time></trkpt><trkpt lat="40.5317267" lon="14.9950717"><ele>20.0</ele><time>2026-05-02T04:25:46.489Z</time></trkpt><trkpt lat="40.531925" lon="14.9949067"><ele>21.0</ele><time>2026-05-02T04:25:47.489Z</time></trkpt><trkpt lat="40.5321217" lon="14.9947317"><ele>21.0</ele><time>2026-05-02T04:25:48.49Z</time></trkpt><trkpt lat="40.53232" lon="14.9945567"><ele>21.0</ele><time>2026-05-02T04:25:49.489Z</time></trkpt><trkpt lat="40.532515" lon="14.9943867"><ele>21.0</ele><time>2026-05-02T04:25:50.489Z</time></trkpt><trkpt lat="40.5327117" lon="14.9942083"><ele>21.0</ele><time>2026-05-02T04:25:51.489Z</time></trkpt><trkpt lat="40.532905" lon="14.99403"><ele>20.5</ele><time>2026-05-02T04:25:52.489Z</time></trkpt><trkpt lat="40.53311" lon="14.9938533"><ele>20.0</ele><time>2026-05-02T04:25:53.489Z</time></trkpt><trkpt lat="40.53331" lon="14.9936733"><ele>20.0</ele><time>2026-05-02T04:25:54.49Z</time></trkpt><trkpt lat="40.5335117" lon="14.9934983"><ele>20.0</ele><time>2026-05-02T04:25:55.489Z</time></trkpt><trkpt lat="40.533715" lon="14.9933167"><ele>20.5</ele><time>2026-05-02T04:25:56.489Z</time></trkpt><trkpt lat="40.533915" lon="14.9931433"><ele>21.0</ele><time>2026-05-02T04:25:57.489Z</time></trkpt><trkpt lat="40.5341117" lon="14.9929783"><ele>21.0</ele><time>2026-05-02T04:25:58.489Z</time></trkpt><trkpt lat="40.534305" lon="14.99281"><ele>21.0</ele><time>2026-05-02T04:25:59.49Z</time></trkpt><trkpt lat="40.5345017" lon="14.992635"><ele>22.5</ele><time>2026-05-02T04:26:00.489Z</time></trkpt><trkpt lat="40.5347017" lon="14.9924617"><ele>24.0</ele><time>2026-05-02T04:26:01.489Z</time></trkpt><trkpt lat="40.5348983" lon="14.9922917"><ele>24.0</ele><time>2026-05-02T04:26:02.489Z</time></trkpt><trkpt lat="40.5350917" lon="14.9921217"><ele>24.0</ele><time>2026-05-02T04:26:03.489Z</time></trkpt><trkpt lat="40.5352867" lon="14.9919517"><ele>23.5</ele><time>2026-05-02T04:26:04.49Z</time></trkpt><trkpt lat="40.53549" lon="14.9917933"><ele>23.0</ele><time>2026-05-02T04:26:05.489Z</time></trkpt><trkpt lat="40.535695" lon="14.9916433"><ele>23.0</ele><time>2026-05-02T04:26:06.489Z</time></trkpt><trkpt lat="40.5358983" lon="14.9915017"><ele>23.0</ele><time>2026-05-02T04:26:07.489Z</time></trkpt><trkpt lat="40.5361117" lon="14.9913783"><ele>23.0</ele><time>2026-05-02T04:26:08.489Z</time></trkpt><trkpt lat="40.5363233" lon="14.9912583"><ele>23.0</ele><time>2026-05-02T04:26:09.489Z</time></trkpt><trkpt lat="40.53654" lon="14.9911483"><ele>23.0</ele><time>2026-05-02T04:26:10.489Z</time></trkpt><trkpt lat="40.5367633" lon="14.9910567"><ele>23.0</ele><time>2026-05-02T04:26:11.489Z</time></trkpt><trkpt lat="40.5369817" lon="14.9909717"><ele>23.5</ele><time>2026-05-02T04:26:12.489Z</time></trkpt><trkpt lat="40.53721" lon="14.9908933"><ele>24.0</ele><time>2026-05-02T04:26:13.489Z</time></trkpt><trkpt lat="40.5374383" lon="14.9908333"><ele>24.0</ele><time>2026-05-02T04:26:14.489Z</time></trkpt><trkpt lat="40.53767" lon="14.99078"><ele>24.0</ele><time>2026-05-02T04:26:15.489Z</time></trkpt><trkpt lat="40.5379033" lon="14.99074"><ele>24.5</ele><time>2026-05-02T04:26:16.489Z</time></trkpt><trkpt lat="40.53814" lon="14.9907067"><ele>25.0</ele><time>2026-05-02T04:26:17.489Z</time></trkpt><trkpt lat="40.53838" lon="14.9906783"><ele>25.0</ele><time>2026-05-02T04:26:18.489Z</time></trkpt><trkpt lat="40.5386183" lon="14.99065"><ele>25.0</ele><time>2026-05-02T04:26:19.489Z</time></trkpt><trkpt lat="40.5388617" lon="14.9906167"><ele>24.5</ele><time>2026-05-02T04:26:20.489Z</time></trkpt><trkpt lat="40.5391" lon="14.9905867"><ele>24.0</ele><time>2026-05-02T04:26:21.489Z</time></trkpt><trkpt lat="40.5393383" lon="14.9905517"><ele>23.0</ele><time>2026-05-02T04:26:22.489Z</time></trkpt><trkpt lat="40.5395783" lon="14.9905217"><ele>22.0</ele><time>2026-05-02T04:26:23.489Z</time></trkpt><trkpt lat="40.5398183" lon="14.99049"><ele>22.0</ele><time>2026-05-02T04:26:24.489Z</time></trkpt><trkpt lat="40.5400567" lon="14.99046"><ele>22.0</ele><time>2026-05-02T04:26:25.489Z</time></trkpt><trkpt lat="40.5402967" lon="14.9904283"><ele>23.5</ele><time>2026-05-02T04:26:26.489Z</time></trkpt><trkpt lat="40.5405383" lon="14.9903967"><ele>25.0</ele><time>2026-05-02T04:26:27.489Z</time></trkpt><trkpt lat="40.540775" lon="14.9903617"><ele>25.0</ele><time>2026-05-02T04:26:28.489Z</time></trkpt><trkpt lat="40.54101" lon="14.99033"><ele>25.0</ele><time>2026-05-02T04:26:29.489Z</time></trkpt><trkpt lat="40.541245" lon="14.9902983"><ele>25.0</ele><time>2026-05-02T04:26:30.489Z</time></trkpt><trkpt lat="40.541485" lon="14.9902667"><ele>25.0</ele><time>2026-05-02T04:26:31.489Z</time></trkpt><trkpt lat="40.5417233" lon="14.99023"><ele>25.0</ele><time>2026-05-02T04:26:32.489Z</time></trkpt><trkpt lat="40.5419567" lon="14.9901967"><ele>25.0</ele><time>2026-05-02T04:26:33.489Z</time></trkpt><trkpt lat="40.5421967" lon="14.9901583"><ele>26.0</ele><time>2026-05-02T04:26:34.49Z</time></trkpt><trkpt lat="40.5424367" lon="14.9901217"><ele>27.0</ele><time>2026-05-02T04:26:35.489Z</time></trkpt><trkpt lat="40.542675" lon="14.990085"><ele>27.5</ele><time>2026-05-02T04:26:36.489Z</time></trkpt><trkpt lat="40.542915" lon="14.99005"><ele>28.0</ele><time>2026-05-02T04:26:37.489Z</time></trkpt><trkpt lat="40.5431533" lon="14.990015"><ele>27.5</ele><time>2026-05-02T04:26:38.49Z</time></trkpt><trkpt lat="40.5433917" lon="14.9899833"><ele>27.0</ele><time>2026-05-02T04:26:39.489Z</time></trkpt><trkpt lat="40.5436317" lon="14.9899533"><ele>27.5</ele><time>2026-05-02T04:26:40.49Z</time></trkpt><trkpt lat="40.543865" lon="14.989925"><ele>28.0</ele><time>2026-05-02T04:26:41.489Z</time></trkpt><trkpt lat="40.5441017" lon="14.9898933"><ele>28.0</ele><time>2026-05-02T04:26:42.489Z</time></trkpt><trkpt lat="40.54434" lon="14.98986"><ele>28.0</ele><time>2026-05-02T04:26:43.489Z</time></trkpt><trkpt lat="40.5445667" lon="14.9898267"><ele>28.0</ele><time>2026-05-02T04:26:44.489Z</time></trkpt><trkpt lat="40.544795" lon="14.9898"><ele>28.0</ele><time>2026-05-02T04:26:45.489Z</time></trkpt><trkpt lat="40.5450167" lon="14.9897717"><ele>28.0</ele><time>2026-05-02T04:26:46.489Z</time></trkpt><trkpt lat="40.5452317" lon="14.9897417"><ele>28.0</ele><time>2026-05-02T04:26:47.489Z</time></trkpt><trkpt lat="40.5454333" lon="14.9897117"><ele>28.0</ele><time>2026-05-02T04:26:48.489Z</time></trkpt><trkpt lat="40.5456317" lon="14.9896883"><ele>28.0</ele><time>2026-05-02T04:26:49.489Z</time></trkpt><trkpt lat="40.5458167" lon="14.9896667"><ele>28.0</ele><time>2026-05-02T04:26:50.489Z</time></trkpt><trkpt lat="40.5459933" lon="14.9896417"><ele>28.0</ele><time>2026-05-02T04:26:51.489Z</time></trkpt><trkpt lat="40.5461633" lon="14.98962"><ele>28.333333333333336</ele><time>2026-05-02T04:26:52.489Z</time></trkpt><trkpt lat="40.54634" lon="14.9895933"><ele>28.666666666666664</ele><time>2026-05-02T04:26:53.489Z</time></trkpt><trkpt lat="40.54651" lon="14.9895667"><ele>29.0</ele><time>2026-05-02T04:26:54.489Z</time></trkpt><trkpt lat="40.5466733" lon="14.989545"><ele>29.0</ele><time>2026-05-02T04:26:55.489Z</time></trkpt><trkpt lat="40.5468283" lon="14.9895183"><ele>29.0</ele><time>2026-05-02T04:26:56.489Z</time></trkpt><trkpt lat="40.5469783" lon="14.989495"><ele>29.0</ele><time>2026-05-02T04:26:57.489Z</time></trkpt><trkpt lat="40.547115" lon="14.9894767"><ele>29.0</ele><time>2026-05-02T04:26:58.489Z</time></trkpt><trkpt lat="40.54725" lon="14.98946"><ele>28.75</ele><time>2026-05-02T04:26:59.489Z</time></trkpt><trkpt lat="40.5473783" lon="14.989435"><ele>28.5</ele><time>2026-05-02T04:27:00.489Z</time></trkpt><trkpt lat="40.5474967" lon="14.98942"><ele>28.25</ele><time>2026-05-02T04:27:01.489Z</time></trkpt><trkpt lat="40.5476117" lon="14.9894033"><ele>28.0</ele><time>2026-05-02T04:27:02.489Z</time></trkpt><trkpt lat="40.54772" lon="14.9893983"><ele>28.000000000000004</ele><time>2026-05-02T04:27:03.489Z</time></trkpt><trkpt lat="40.54782" lon="14.9893817"><ele>28.0</ele><time>2026-05-02T04:27:04.489Z</time></trkpt><trkpt lat="40.5479167" lon="14.9893683"><ele>28.0</ele><time>2026-05-02T04:27:05.489Z</time></trkpt><trkpt lat="40.548005" lon="14.9893617"><ele>28.0</ele><time>2026-05-02T04:27:06.489Z</time></trkpt><trkpt lat="40.5480833" lon="14.9893517"><ele>28.000000000000004</ele><time>2026-05-02T04:27:07.489Z</time></trkpt><trkpt lat="40.5481567" lon="14.98933"><ele>28.0</ele><time>2026-05-02T04:27:08.489Z</time></trkpt><trkpt lat="40.5482233" lon="14.9893"><ele>28.0</ele><time>2026-05-02T04:27:09.489Z</time></trkpt><trkpt lat="40.5483217" lon="14.989235"><ele>28.0</ele><time>2026-05-02T04:27:11.489Z</time></trkpt><trkpt lat="40.54841" lon="14.9891567"><ele>28.0</ele><time>2026-05-02T04:27:13.489Z</time></trkpt><trkpt lat="40.5485067" lon="14.9890833"><ele>28.0</ele><time>2026-05-02T04:27:15.489Z</time></trkpt><trkpt lat="40.5486333" lon="14.9890517"><ele>28.0</ele><time>2026-05-02T04:27:17.489Z</time></trkpt><trkpt lat="40.548705" lon="14.989035"><ele>28.0</ele><time>2026-05-02T04:27:18.489Z</time></trkpt><trkpt lat="40.548775" lon="14.9890283"><ele>28.0</ele><time>2026-05-02T04:27:19.489Z</time></trkpt><trkpt lat="40.5488467" lon="14.9890333"><ele>28.0</ele><time>2026-05-02T04:27:20.489Z</time></trkpt><trkpt lat="40.5489183" lon="14.9890417"><ele>28.0</ele><time>2026-05-02T04:27:21.489Z</time></trkpt><trkpt lat="40.5489917" lon="14.98907"><ele>28.0</ele><time>2026-05-02T04:27:22.489Z</time></trkpt><trkpt lat="40.5490617" lon="14.9891067"><ele>28.0</ele><time>2026-05-02T04:27:23.489Z</time></trkpt><trkpt lat="40.5491333" lon="14.989145"><ele>28.166666666666668</ele><time>2026-05-02T04:27:24.489Z</time></trkpt><trkpt lat="40.549205" lon="14.9891733"><ele>28.333333333333336</ele><time>2026-05-02T04:27:25.489Z</time></trkpt><trkpt lat="40.5492817" lon="14.98919"><ele>28.5</ele><time>2026-05-02T04:27:26.489Z</time></trkpt><trkpt lat="40.5493683" lon="14.989195"><ele>28.666666666666664</ele><time>2026-05-02T04:27:27.49Z</time></trkpt><trkpt lat="40.5494617" lon="14.9891867"><ele>28.833333333333332</ele><time>2026-05-02T04:27:28.49Z</time></trkpt><trkpt lat="40.54956" lon="14.98917"><ele>29.0</ele><time>2026-05-02T04:27:29.489Z</time></trkpt><trkpt lat="40.5496667" lon="14.9891717"><ele>29.0</ele><time>2026-05-02T04:27:30.489Z</time></trkpt><trkpt lat="40.549775" lon="14.9891333"><ele>29.0</ele><time>2026-05-02T04:27:31.489Z</time></trkpt><trkpt lat="40.5498967" lon="14.989105"><ele>29.0</ele><time>2026-05-02T04:27:32.489Z</time></trkpt><trkpt lat="40.5500283" lon="14.98908"><ele>29.0</ele><time>2026-05-02T04:27:33.489Z</time></trkpt><trkpt lat="40.550175" lon="14.9890433"><ele>29.0</ele><time>2026-05-02T04:27:34.489Z</time></trkpt><trkpt lat="40.5503233" lon="14.9890233"><ele>29.0</ele><time>2026-05-02T04:27:35.489Z</time></trkpt><trkpt lat="40.5504717" lon="14.9890033"><ele>29.0</ele><time>2026-05-02T04:27:36.489Z</time></trkpt><trkpt lat="40.5506117" lon="14.9889817"><ele>29.0</ele><time>2026-05-02T04:27:37.489Z</time></trkpt><trkpt lat="40.5507567" lon="14.98896"><ele>28.333333333333332</ele><time>2026-05-02T04:27:38.489Z</time></trkpt><trkpt lat="40.5509167" lon="14.9889433"><ele>27.666666666666664</ele><time>2026-05-02T04:27:39.489Z</time></trkpt><trkpt lat="40.5510883" lon="14.9889167"><ele>27.0</ele><time>2026-05-02T04:27:40.489Z</time></trkpt><trkpt lat="40.5512583" lon="14.988885"><ele>26.333333333333336</ele><time>2026-05-02T04:27:41.489Z</time></trkpt><trkpt lat="40.551455" lon="14.9888533"><ele>25.666666666666668</ele><time>2026-05-02T04:27:42.489Z</time></trkpt><trkpt lat="40.5516567" lon="14.9888183"><ele>25.0</ele><time>2026-05-02T04:27:43.489Z</time></trkpt><trkpt lat="40.55186" lon="14.9887883"><ele>24.0</ele><time>2026-05-02T04:27:44.49Z</time></trkpt><trkpt lat="40.5520733" lon="14.988765"><ele>23.0</ele><time>2026-05-02T04:27:45.489Z</time></trkpt><trkpt lat="40.5522917" lon="14.9887433"><ele>22.0</ele><time>2026-05-02T04:27:46.489Z</time></trkpt><trkpt lat="40.552515" lon="14.98872"><ele>22.0</ele><time>2026-05-02T04:27:47.489Z</time></trkpt><trkpt lat="40.5527383" lon="14.9886983"><ele>22.0</ele><time>2026-05-02T04:27:48.489Z</time></trkpt><trkpt lat="40.55297" lon="14.98868"><ele>22.5</ele><time>2026-05-02T04:27:49.489Z</time></trkpt><trkpt lat="40.553205" lon="14.988655"><ele>23.0</ele><time>2026-05-02T04:27:50.489Z</time></trkpt><trkpt lat="40.5534367" lon="14.9886217"><ele>23.0</ele><time>2026-05-02T04:27:51.489Z</time></trkpt><trkpt lat="40.553665" lon="14.9885883"><ele>23.0</ele><time>2026-05-02T04:27:52.489Z</time></trkpt><trkpt lat="40.5538983" lon="14.988555"><ele>23.5</ele><time>2026-05-02T04:27:53.489Z</time></trkpt><trkpt lat="40.5541317" lon="14.9885183"><ele>24.0</ele><time>2026-05-02T04:27:54.489Z</time></trkpt><trkpt lat="40.554375" lon="14.9884883"><ele>23.5</ele><time>2026-05-02T04:27:55.489Z</time></trkpt><trkpt lat="40.55462" lon="14.988455"><ele>23.0</ele><time>2026-05-02T04:27:56.489Z</time></trkpt><trkpt lat="40.5548617" lon="14.98842"><ele>23.0</ele><time>2026-05-02T04:27:57.489Z</time></trkpt><trkpt lat="40.5551" lon="14.98839"><ele>23.0</ele><time>2026-05-02T04:27:58.489Z</time></trkpt><trkpt lat="40.5553333" lon="14.9883533"><ele>21.5</ele><time>2026-05-02T04:27:59.489Z</time></trkpt><trkpt lat="40.5555683" lon="14.9883183"><ele>20.0</ele><time>2026-05-02T04:28:00.489Z</time></trkpt><trkpt lat="40.5558183" lon="14.9882867"><ele>20.0</ele><time>2026-05-02T04:28:01.489Z</time></trkpt><trkpt lat="40.5560617" lon="14.98825"><ele>20.0</ele><time>2026-05-02T04:28:02.489Z</time></trkpt><trkpt lat="40.5563083" lon="14.9882083"><ele>19.5</ele><time>2026-05-02T04:28:03.489Z</time></trkpt><trkpt lat="40.556555" lon="14.988175"><ele>19.0</ele><time>2026-05-02T04:28:04.489Z</time></trkpt><trkpt lat="40.556795" lon="14.9881417"><ele>19.0</ele><time>2026-05-02T04:28:05.489Z</time></trkpt><trkpt lat="40.5570333" lon="14.9881083"><ele>19.0</ele><time>2026-05-02T04:28:06.489Z</time></trkpt><trkpt lat="40.5572767" lon="14.9880783"><ele>19.5</ele><time>2026-05-02T04:28:07.489Z</time></trkpt><trkpt lat="40.5575117" lon="14.9880467"><ele>20.0</ele><time>2026-05-02T04:28:08.489Z</time></trkpt><trkpt lat="40.5577483" lon="14.9880133"><ele>21.0</ele><time>2026-05-02T04:28:09.489Z</time></trkpt><trkpt lat="40.5579817" lon="14.987985"><ele>22.0</ele><time>2026-05-02T04:28:10.49Z</time></trkpt><trkpt lat="40.558215" lon="14.9879583"><ele>22.0</ele><time>2026-05-02T04:28:11.489Z</time></trkpt><trkpt lat="40.5584433" lon="14.9879283"><ele>22.0</ele><time>2026-05-02T04:28:12.489Z</time></trkpt><trkpt lat="40.558675" lon="14.9878933"><ele>23.5</ele><time>2026-05-02T04:28:13.489Z</time></trkpt><trkpt lat="40.5589117" lon="14.9878567"><ele>25.0</ele><time>2026-05-02T04:28:14.489Z</time></trkpt><trkpt lat="40.5591417" lon="14.9878233"><ele>25.0</ele><time>2026-05-02T04:28:15.489Z</time></trkpt><trkpt lat="40.559375" lon="14.9877983"><ele>25.0</ele><time>2026-05-02T04:28:16.489Z</time></trkpt><trkpt lat="40.5596033" lon="14.98776"><ele>25.0</ele><time>2026-05-02T04:28:17.49Z</time></trkpt><trkpt lat="40.5598133" lon="14.9877267"><ele>25.0</ele><time>2026-05-02T04:28:18.489Z</time></trkpt><trkpt lat="40.5600217" lon="14.9877017"><ele>25.0</ele><time>2026-05-02T04:28:19.489Z</time></trkpt><trkpt lat="40.560215" lon="14.987675"><ele>25.0</ele><time>2026-05-02T04:28:20.489Z</time></trkpt><trkpt lat="40.5603983" lon="14.98765"><ele>25.0</ele><time>2026-05-02T04:28:21.489Z</time></trkpt><trkpt lat="40.5605667" lon="14.987625"><ele>25.0</ele><time>2026-05-02T04:28:22.489Z</time></trkpt><trkpt lat="40.560725" lon="14.987605"><ele>25.0</ele><time>2026-05-02T04:28:23.489Z</time></trkpt><trkpt lat="40.5608783" lon="14.987585"><ele>25.0</ele><time>2026-05-02T04:28:24.489Z</time></trkpt><trkpt lat="40.5610233" lon="14.98756"><ele>25.0</ele><time>2026-05-02T04:28:25.489Z</time></trkpt><trkpt lat="40.56116" lon="14.9875383"><ele>25.0</ele><time>2026-05-02T04:28:26.489Z</time></trkpt><trkpt lat="40.561285" lon="14.9875267"><ele>25.0</ele><time>2026-05-02T04:28:27.489Z</time></trkpt><trkpt lat="40.5613967" lon="14.9875317"><ele>25.0</ele><time>2026-05-02T04:28:28.489Z</time></trkpt><trkpt lat="40.561495" lon="14.9875533"><ele>25.0</ele><time>2026-05-02T04:28:29.489Z</time></trkpt><trkpt lat="40.5615933" lon="14.98759"><ele>25.0</ele><time>2026-05-02T04:28:30.489Z</time></trkpt><trkpt lat="40.5616917" lon="14.987615"><ele>25.0</ele><time>2026-05-02T04:28:31.489Z</time></trkpt><trkpt lat="40.5617833" lon="14.9876017"><ele>25.0</ele><time>2026-05-02T04:28:32.489Z</time></trkpt><trkpt lat="40.5618767" lon="14.987545"><ele>25.0</ele><time>2026-05-02T04:28:33.489Z</time></trkpt><trkpt lat="40.561965" lon="14.9874867"><ele>25.0</ele><time>2026-05-02T04:28:34.489Z</time></trkpt><trkpt lat="40.562065" lon="14.9874333"><ele>25.0</ele><time>2026-05-02T04:28:35.489Z</time></trkpt><trkpt lat="40.5621767" lon="14.9873917"><ele>25.0</ele><time>2026-05-02T04:28:36.489Z</time></trkpt><trkpt lat="40.5623033" lon="14.987365"><ele>25.5</ele><time>2026-05-02T04:28:37.489Z</time></trkpt><trkpt lat="40.56244" lon="14.987345"><ele>26.0</ele><time>2026-05-02T04:28:38.49Z</time></trkpt><trkpt lat="40.5625717" lon="14.9873333"><ele>26.5</ele><time>2026-05-02T04:28:39.489Z</time></trkpt><trkpt lat="40.5627017" lon="14.9873317"><ele>27.0</ele><time>2026-05-02T04:28:40.489Z</time></trkpt><trkpt lat="40.5628267" lon="14.987345"><ele>27.25</ele><time>2026-05-02T04:28:41.489Z</time></trkpt><trkpt lat="40.562935" lon="14.987365"><ele>27.5</ele><time>2026-05-02T04:28:42.489Z</time></trkpt><trkpt lat="40.563045" lon="14.9873617"><ele>27.75</ele><time>2026-05-02T04:28:43.489Z</time></trkpt><trkpt lat="40.563155" lon="14.9873267"><ele>28.0</ele><time>2026-05-02T04:28:44.489Z</time></trkpt><trkpt lat="40.563275" lon="14.987285"><ele>28.0</ele><time>2026-05-02T04:28:45.489Z</time></trkpt><trkpt lat="40.5634" lon="14.9872433"><ele>28.0</ele><time>2026-05-02T04:28:46.489Z</time></trkpt><trkpt lat="40.5635433" lon="14.9872083"><ele>28.0</ele><time>2026-05-02T04:28:47.489Z</time></trkpt><trkpt lat="40.5636983" lon="14.9871817"><ele>28.0</ele><time>2026-05-02T04:28:48.489Z</time></trkpt><trkpt lat="40.5638583" lon="14.9871683"><ele>28.0</ele><time>2026-05-02T04:28:49.489Z</time></trkpt><trkpt lat="40.5640183" lon="14.9871583"><ele>28.0</ele><time>2026-05-02T04:28:50.489Z</time></trkpt><trkpt lat="40.5641783" lon="14.9871467"><ele>28.0</ele><time>2026-05-02T04:28:51.489Z</time></trkpt><trkpt lat="40.56435" lon="14.9871283"><ele>28.333333333333336</ele><time>2026-05-02T04:28:52.489Z</time></trkpt><trkpt lat="40.5645317" lon="14.9871033"><ele>28.666666666666664</ele><time>2026-05-02T04:28:53.489Z</time></trkpt><trkpt lat="40.564725" lon="14.987075"><ele>29.0</ele><time>2026-05-02T04:28:54.489Z</time></trkpt><trkpt lat="40.56492" lon="14.987055"><ele>29.0</ele><time>2026-05-02T04:28:55.49Z</time></trkpt><trkpt lat="40.565115" lon="14.9870233"><ele>29.0</ele><time>2026-05-02T04:28:56.489Z</time></trkpt><trkpt lat="40.5653217" lon="14.9870017"><ele>29.0</ele><time>2026-05-02T04:28:57.489Z</time></trkpt><trkpt lat="40.5655183" lon="14.986975"><ele>29.333333333333332</ele><time>2026-05-02T04:28:58.489Z</time></trkpt><trkpt lat="40.5657183" lon="14.986945"><ele>29.666666666666664</ele><time>2026-05-02T04:28:59.489Z</time></trkpt><trkpt lat="40.5659233" lon="14.9869167"><ele>30.0</ele><time>2026-05-02T04:29:00.489Z</time></trkpt><trkpt lat="40.5661233" lon="14.9868867"><ele>29.666666666666664</ele><time>2026-05-02T04:29:01.489Z</time></trkpt><trkpt lat="40.5663183" lon="14.98686"><ele>29.333333333333332</ele><time>2026-05-02T04:29:02.489Z</time></trkpt><trkpt lat="40.5665" lon="14.9868433"><ele>29.0</ele><time>2026-05-02T04:29:03.489Z</time></trkpt><trkpt lat="40.56668" lon="14.9868217"><ele>29.0</ele><time>2026-05-02T04:29:04.49Z</time></trkpt><trkpt lat="40.5668533" lon="14.9867983"><ele>29.0</ele><time>2026-05-02T04:29:05.489Z</time></trkpt><trkpt lat="40.56702" lon="14.9867833"><ele>29.0</ele><time>2026-05-02T04:29:06.489Z</time></trkpt><trkpt lat="40.5671733" lon="14.9867633"><ele>29.5</ele><time>2026-05-02T04:29:07.49Z</time></trkpt><trkpt lat="40.567315" lon="14.9867433"><ele>30.0</ele><time>2026-05-02T04:29:08.49Z</time></trkpt><trkpt lat="40.5674417" lon="14.9867283"><ele>30.5</ele><time>2026-05-02T04:29:09.491Z</time></trkpt><trkpt lat="40.5675467" lon="14.9867167"><ele>31.0</ele><time>2026-05-02T04:29:10.49Z</time></trkpt><trkpt lat="40.5676367" lon="14.9867233"><ele>31.000000000000004</ele><time>2026-05-02T04:29:11.49Z</time></trkpt><trkpt lat="40.56772" lon="14.9867417"><ele>31.0</ele><time>2026-05-02T04:29:12.49Z</time></trkpt><trkpt lat="40.567785" lon="14.98678"><ele>31.0</ele><time>2026-05-02T04:29:13.49Z</time></trkpt><trkpt lat="40.56784" lon="14.9868367"><ele>31.0</ele><time>2026-05-02T04:29:14.49Z</time></trkpt><trkpt lat="40.5678967" lon="14.9868867"><ele>31.000000000000004</ele><time>2026-05-02T04:29:15.49Z</time></trkpt><trkpt lat="40.5680117" lon="14.986925"><ele>31.0</ele><time>2026-05-02T04:29:17.49Z</time></trkpt><trkpt lat="40.5681217" lon="14.986845"><ele>31.0</ele><time>2026-05-02T04:29:19.49Z</time></trkpt><trkpt lat="40.5681817" lon="14.9867783"><ele>31.0</ele><time>2026-05-02T04:29:20.49Z</time></trkpt><trkpt lat="40.568255" lon="14.9867033"><ele>31.0</ele><time>2026-05-02T04:29:21.49Z</time></trkpt><trkpt lat="40.56834" lon="14.986635"><ele>31.0</ele><time>2026-05-02T04:29:22.49Z</time></trkpt><trkpt lat="40.5684383" lon="14.986585"><ele>31.0</ele><time>2026-05-02T04:29:23.49Z</time></trkpt><trkpt lat="40.5685383" lon="14.9865483"><ele>30.75</ele><time>2026-05-02T04:29:24.49Z</time></trkpt><trkpt lat="40.5686467" lon="14.9865217"><ele>30.5</ele><time>2026-05-02T04:29:25.49Z</time></trkpt><trkpt lat="40.5687717" lon="14.9864983"><ele>30.25</ele><time>2026-05-02T04:29:26.49Z</time></trkpt><trkpt lat="40.5689067" lon="14.9864817"><ele>30.0</ele><time>2026-05-02T04:29:27.49Z</time></trkpt><trkpt lat="40.5690483" lon="14.986465"><ele>31.0</ele><time>2026-05-02T04:29:28.49Z</time></trkpt><trkpt lat="40.5692067" lon="14.9864433"><ele>32.0</ele><time>2026-05-02T04:29:29.49Z</time></trkpt><trkpt lat="40.56937" lon="14.986425"><ele>33.0</ele><time>2026-05-02T04:29:30.49Z</time></trkpt><trkpt lat="40.5695267" lon="14.9864033"><ele>33.333333333333336</ele><time>2026-05-02T04:29:31.49Z</time></trkpt><trkpt lat="40.5696883" lon="14.9863817"><ele>33.66666666666667</ele><time>2026-05-02T04:29:32.49Z</time></trkpt><trkpt lat="40.5698567" lon="14.9863483"><ele>34.0</ele><time>2026-05-02T04:29:33.49Z</time></trkpt><trkpt lat="40.57003" lon="14.98632"><ele>34.0</ele><time>2026-05-02T04:29:34.49Z</time></trkpt><trkpt lat="40.5702167" lon="14.9862983"><ele>34.0</ele><time>2026-05-02T04:29:35.49Z</time></trkpt><trkpt lat="40.57041" lon="14.9862733"><ele>34.0</ele><time>2026-05-02T04:29:36.49Z</time></trkpt><trkpt lat="40.570605" lon="14.9862533"><ele>34.0</ele><time>2026-05-02T04:29:37.491Z</time></trkpt><trkpt lat="40.5708083" lon="14.986225"><ele>34.0</ele><time>2026-05-02T04:29:38.491Z</time></trkpt><trkpt lat="40.571015" lon="14.9862"><ele>34.0</ele><time>2026-05-02T04:29:39.49Z</time></trkpt><trkpt lat="40.57121" lon="14.9861717"><ele>34.0</ele><time>2026-05-02T04:29:40.49Z</time></trkpt><trkpt lat="40.5714067" lon="14.9861467"><ele>34.0</ele><time>2026-05-02T04:29:41.49Z</time></trkpt><trkpt lat="40.5716083" lon="14.98612"><ele>34.0</ele><time>2026-05-02T04:29:42.49Z</time></trkpt><trkpt lat="40.5718133" lon="14.9860883"><ele>34.0</ele><time>2026-05-02T04:29:43.49Z</time></trkpt><trkpt lat="40.5720233" lon="14.98606"><ele>34.0</ele><time>2026-05-02T04:29:44.49Z</time></trkpt><trkpt lat="40.5722383" lon="14.986025"><ele>34.0</ele><time>2026-05-02T04:29:45.49Z</time></trkpt><trkpt lat="40.572445" lon="14.9860017"><ele>34.333333333333336</ele><time>2026-05-02T04:29:46.49Z</time></trkpt><trkpt lat="40.5726633" lon="14.9859783"><ele>34.666666666666664</ele><time>2026-05-02T04:29:47.49Z</time></trkpt><trkpt lat="40.5728833" lon="14.9859533"><ele>35.0</ele><time>2026-05-02T04:29:48.49Z</time></trkpt><trkpt lat="40.5730967" lon="14.9859217"><ele>35.0</ele><time>2026-05-02T04:29:49.49Z</time></trkpt><trkpt lat="40.5733167" lon="14.985895"><ele>35.0</ele><time>2026-05-02T04:29:50.49Z</time></trkpt><trkpt lat="40.573535" lon="14.9858617"><ele>35.0</ele><time>2026-05-02T04:29:51.49Z</time></trkpt><trkpt lat="40.5737583" lon="14.9858283"><ele>35.0</ele><time>2026-05-02T04:29:52.49Z</time></trkpt><trkpt lat="40.57398" lon="14.9858"><ele>35.0</ele><time>2026-05-02T04:29:53.49Z</time></trkpt><trkpt lat="40.5741983" lon="14.98577"><ele>35.0</ele><time>2026-05-02T04:29:54.49Z</time></trkpt><trkpt lat="40.5744133" lon="14.98574"><ele>35.33333333333333</ele><time>2026-05-02T04:29:55.491Z</time></trkpt><trkpt lat="40.57463" lon="14.9857083"><ele>35.666666666666664</ele><time>2026-05-02T04:29:56.49Z</time></trkpt><trkpt lat="40.57484" lon="14.98568"><ele>36.0</ele><time>2026-05-02T04:29:57.49Z</time></trkpt><trkpt lat="40.5750533" lon="14.98565"><ele>36.0</ele><time>2026-05-02T04:29:58.49Z</time></trkpt><trkpt lat="40.575265" lon="14.98562"><ele>36.0</ele><time>2026-05-02T04:29:59.49Z</time></trkpt><trkpt lat="40.575475" lon="14.9855917"><ele>36.0</ele><time>2026-05-02T04:30:00.491Z</time></trkpt><trkpt lat="40.5756817" lon="14.98556"><ele>36.666666666666664</ele><time>2026-05-02T04:30:01.49Z</time></trkpt><trkpt lat="40.57589" lon="14.9855317"><ele>37.33333333333333</ele><time>2026-05-02T04:30:02.49Z</time></trkpt><trkpt lat="40.5760917" lon="14.9855"><ele>38.0</ele><time>2026-05-02T04:30:03.49Z</time></trkpt><trkpt lat="40.5762933" lon="14.985475"><ele>38.33333333333333</ele><time>2026-05-02T04:30:04.49Z</time></trkpt><trkpt lat="40.5764967" lon="14.9854433"><ele>38.666666666666664</ele><time>2026-05-02T04:30:05.49Z</time></trkpt><trkpt lat="40.576705" lon="14.9854167"><ele>39.0</ele><time>2026-05-02T04:30:06.49Z</time></trkpt><trkpt lat="40.5769183" lon="14.985395"><ele>39.333333333333336</ele><time>2026-05-02T04:30:07.49Z</time></trkpt><trkpt lat="40.5771333" lon="14.985365"><ele>39.66666666666667</ele><time>2026-05-02T04:30:08.49Z</time></trkpt><trkpt lat="40.5773517" lon="14.9853433"><ele>40.0</ele><time>2026-05-02T04:30:09.49Z</time></trkpt><trkpt lat="40.5775683" lon="14.985305"><ele>40.0</ele><time>2026-05-02T04:30:10.49Z</time></trkpt><trkpt lat="40.5777883" lon="14.985275"><ele>40.0</ele><time>2026-05-02T04:30:11.49Z</time></trkpt><trkpt lat="40.578005" lon="14.9852433"><ele>40.0</ele><time>2026-05-02T04:30:12.491Z</time></trkpt><trkpt lat="40.57822" lon="14.9852217"><ele>40.0</ele><time>2026-05-02T04:30:13.49Z</time></trkpt><trkpt lat="40.5784383" lon="14.9851917"><ele>40.0</ele><time>2026-05-02T04:30:14.49Z</time></trkpt><trkpt lat="40.5786683" lon="14.9851567"><ele>40.5</ele><time>2026-05-02T04:30:15.49Z</time></trkpt><trkpt lat="40.57889" lon="14.985125"><ele>41.0</ele><time>2026-05-02T04:30:16.491Z</time></trkpt><trkpt lat="40.5791267" lon="14.9850867"><ele>41.0</ele><time>2026-05-02T04:30:17.49Z</time></trkpt><trkpt lat="40.579355" lon="14.98505"><ele>41.0</ele><time>2026-05-02T04:30:18.49Z</time></trkpt><trkpt lat="40.5795817" lon="14.9850233"><ele>41.5</ele><time>2026-05-02T04:30:19.49Z</time></trkpt><trkpt lat="40.5798117" lon="14.9849917"><ele>42.0</ele><time>2026-05-02T04:30:20.49Z</time></trkpt><trkpt lat="40.5800433" lon="14.98496"><ele>42.0</ele><time>2026-05-02T04:30:21.488Z</time></trkpt><trkpt lat="40.5802733" lon="14.984925"><ele>42.0</ele><time>2026-05-02T04:30:22.49Z</time></trkpt><trkpt lat="40.5805" lon="14.9849"><ele>42.0</ele><time>2026-05-02T04:30:23.49Z</time></trkpt><trkpt lat="40.5807183" lon="14.9848733"><ele>42.0</ele><time>2026-05-02T04:30:24.49Z</time></trkpt><trkpt lat="40.5809317" lon="14.9848483"><ele>42.0</ele><time>2026-05-02T04:30:25.49Z</time></trkpt><trkpt lat="40.581145" lon="14.9848217"><ele>42.333333333333336</ele><time>2026-05-02T04:30:26.49Z</time></trkpt><trkpt lat="40.58136" lon="14.9847917"><ele>42.66666666666667</ele><time>2026-05-02T04:30:27.49Z</time></trkpt><trkpt lat="40.5815767" lon="14.984755"><ele>43.0</ele><time>2026-05-02T04:30:28.49Z</time></trkpt><trkpt lat="40.5818" lon="14.9847233"><ele>43.0</ele><time>2026-05-02T04:30:29.491Z</time></trkpt><trkpt lat="40.5820217" lon="14.98469"><ele>43.0</ele><time>2026-05-02T04:30:30.491Z</time></trkpt><trkpt lat="40.5822483" lon="14.9846583"><ele>43.0</ele><time>2026-05-02T04:30:31.49Z</time></trkpt><trkpt lat="40.5824767" lon="14.9846267"><ele>43.0</ele><time>2026-05-02T04:30:32.49Z</time></trkpt><trkpt lat="40.5827067" lon="14.9845933"><ele>43.0</ele><time>2026-05-02T04:30:33.49Z</time></trkpt><trkpt lat="40.5829367" lon="14.9845583"><ele>43.0</ele><time>2026-05-02T04:30:34.49Z</time></trkpt><trkpt lat="40.5831667" lon="14.9845317"><ele>43.0</ele><time>2026-05-02T04:30:35.49Z</time></trkpt><trkpt lat="40.5834" lon="14.9845033"><ele>43.0</ele><time>2026-05-02T04:30:36.49Z</time></trkpt><trkpt lat="40.5836317" lon="14.9844717"><ele>43.66666666666667</ele><time>2026-05-02T04:30:37.49Z</time></trkpt><trkpt lat="40.5838533" lon="14.9844383"><ele>44.333333333333336</ele><time>2026-05-02T04:30:38.49Z</time></trkpt><trkpt lat="40.5840667" lon="14.9844067"><ele>45.0</ele><time>2026-05-02T04:30:39.49Z</time></trkpt><trkpt lat="40.5842583" lon="14.98438"><ele>45.0</ele><time>2026-05-02T04:30:40.49Z</time></trkpt><trkpt lat="40.584435" lon="14.9843617"><ele>45.0</ele><time>2026-05-02T04:30:41.49Z</time></trkpt><trkpt lat="40.5845983" lon="14.9843383"><ele>45.0</ele><time>2026-05-02T04:30:42.49Z</time></trkpt><trkpt lat="40.584755" lon="14.9843183"><ele>45.0</ele><time>2026-05-02T04:30:43.49Z</time></trkpt><trkpt lat="40.584895" lon="14.98431"><ele>45.0</ele><time>2026-05-02T04:30:44.49Z</time></trkpt><trkpt lat="40.5850267" lon="14.9843167"><ele>45.0</ele><time>2026-05-02T04:30:45.49Z</time></trkpt><trkpt lat="40.5851467" lon="14.984335"><ele>45.0</ele><time>2026-05-02T04:30:46.49Z</time></trkpt><trkpt lat="40.5852517" lon="14.9843667"><ele>45.0</ele><time>2026-05-02T04:30:47.49Z</time></trkpt><trkpt lat="40.5853433" lon="14.98441"><ele>45.0</ele><time>2026-05-02T04:30:48.49Z</time></trkpt><trkpt lat="40.5854317" lon="14.9844483"><ele>45.0</ele><time>2026-05-02T04:30:49.49Z</time></trkpt><trkpt lat="40.5855133" lon="14.9844583"><ele>45.0</ele><time>2026-05-02T04:30:50.49Z</time></trkpt><trkpt lat="40.5855833" lon="14.98444"><ele>45.0</ele><time>2026-05-02T04:30:51.49Z</time></trkpt><trkpt lat="40.5856517" lon="14.98439"><ele>45.0</ele><time>2026-05-02T04:30:52.49Z</time></trkpt><trkpt lat="40.5857217" lon="14.9843167"><ele>45.25</ele><time>2026-05-02T04:30:53.49Z</time></trkpt><trkpt lat="40.5858033" lon="14.9842483"><ele>45.5</ele><time>2026-05-02T04:30:54.49Z</time></trkpt><trkpt lat="40.5858983" lon="14.9841917"><ele>45.75</ele><time>2026-05-02T04:30:55.49Z</time></trkpt><trkpt lat="40.586015" lon="14.9841517"><ele>46.0</ele><time>2026-05-02T04:30:56.49Z</time></trkpt><trkpt lat="40.5861417" lon="14.9841283"><ele>45.66666666666667</ele><time>2026-05-02T04:30:57.49Z</time></trkpt><trkpt lat="40.5862833" lon="14.9841033"><ele>45.333333333333336</ele><time>2026-05-02T04:30:58.49Z</time></trkpt><trkpt lat="40.5864333" lon="14.98409"><ele>45.0</ele><time>2026-05-02T04:30:59.491Z</time></trkpt><trkpt lat="40.5865917" lon="14.9840783"><ele>45.0</ele><time>2026-05-02T04:31:00.49Z</time></trkpt><trkpt lat="40.5867467" lon="14.9840583"><ele>45.0</ele><time>2026-05-02T04:31:01.49Z</time></trkpt><trkpt lat="40.5869017" lon="14.9840417"><ele>45.0</ele><time>2026-05-02T04:31:02.49Z</time></trkpt><trkpt lat="40.58706" lon="14.9840167"><ele>46.0</ele><time>2026-05-02T04:31:03.49Z</time></trkpt><trkpt lat="40.58723" lon="14.983995"><ele>47.0</ele><time>2026-05-02T04:31:04.49Z</time></trkpt><trkpt lat="40.587405" lon="14.9839683"><ele>48.0</ele><time>2026-05-02T04:31:05.49Z</time></trkpt><trkpt lat="40.5875867" lon="14.9839483"><ele>48.0</ele><time>2026-05-02T04:31:06.49Z</time></trkpt><trkpt lat="40.5877783" lon="14.9839317"><ele>48.0</ele><time>2026-05-02T04:31:07.49Z</time></trkpt><trkpt lat="40.5879667" lon="14.9838867"><ele>48.0</ele><time>2026-05-02T04:31:08.49Z</time></trkpt><trkpt lat="40.588155" lon="14.9838617"><ele>48.66666666666667</ele><time>2026-05-02T04:31:09.49Z</time></trkpt><trkpt lat="40.5883467" lon="14.9838367"><ele>49.333333333333336</ele><time>2026-05-02T04:31:10.49Z</time></trkpt><trkpt lat="40.5885233" lon="14.9838067"><ele>50.0</ele><time>2026-05-02T04:31:11.49Z</time></trkpt><trkpt lat="40.5886983" lon="14.9837817"><ele>50.66666666666667</ele><time>2026-05-02T04:31:12.49Z</time></trkpt><trkpt lat="40.5888817" lon="14.9837533"><ele>51.33333333333333</ele><time>2026-05-02T04:31:13.49Z</time></trkpt><trkpt lat="40.589065" lon="14.983735"><ele>52.0</ele><time>2026-05-02T04:31:14.49Z</time></trkpt><trkpt lat="40.5892467" lon="14.9837133"><ele>52.0</ele><time>2026-05-02T04:31:15.49Z</time></trkpt><trkpt lat="40.589425" lon="14.983695"><ele>52.0</ele><time>2026-05-02T04:31:16.49Z</time></trkpt><trkpt lat="40.5895933" lon="14.9836733"><ele>52.0</ele><time>2026-05-02T04:31:17.49Z</time></trkpt><trkpt lat="40.589745" lon="14.9836583"><ele>52.75</ele><time>2026-05-02T04:31:18.49Z</time></trkpt><trkpt lat="40.5898883" lon="14.9836317"><ele>53.5</ele><time>2026-05-02T04:31:19.49Z</time></trkpt><trkpt lat="40.5900217" lon="14.9836083"><ele>54.25</ele><time>2026-05-02T04:31:20.49Z</time></trkpt><trkpt lat="40.59016" lon="14.9835867"><ele>55.0</ele><time>2026-05-02T04:31:21.49Z</time></trkpt><trkpt lat="40.5903033" lon="14.9835667"><ele>55.25</ele><time>2026-05-02T04:31:22.49Z</time></trkpt><trkpt lat="40.590445" lon="14.9835333"><ele>55.5</ele><time>2026-05-02T04:31:23.49Z</time></trkpt><trkpt lat="40.5905917" lon="14.983515"><ele>55.75</ele><time>2026-05-02T04:31:24.49Z</time></trkpt><trkpt lat="40.5907417" lon="14.9834883"><ele>56.0</ele><time>2026-05-02T04:31:25.49Z</time></trkpt><trkpt lat="40.5908933" lon="14.983475"><ele>56.0</ele><time>2026-05-02T04:31:26.49Z</time></trkpt><trkpt lat="40.5910517" lon="14.9834567"><ele>56.0</ele><time>2026-05-02T04:31:27.49Z</time></trkpt><trkpt lat="40.5912083" lon="14.9834383"><ele>56.0</ele><time>2026-05-02T04:31:28.49Z</time></trkpt><trkpt lat="40.5913717" lon="14.9834167"><ele>55.66666666666667</ele><time>2026-05-02T04:31:29.49Z</time></trkpt><trkpt lat="40.5915317" lon="14.9833933"><ele>55.33333333333333</ele><time>2026-05-02T04:31:30.49Z</time></trkpt><trkpt lat="40.5916983" lon="14.98337"><ele>55.0</ele><time>2026-05-02T04:31:31.49Z</time></trkpt><trkpt lat="40.5918567" lon="14.9833367"><ele>55.0</ele><time>2026-05-02T04:31:32.49Z</time></trkpt><trkpt lat="40.5920283" lon="14.9833133"><ele>55.0</ele><time>2026-05-02T04:31:33.49Z</time></trkpt><trkpt lat="40.59219" lon="14.9832883"><ele>55.0</ele><time>2026-05-02T04:31:34.49Z</time></trkpt><trkpt lat="40.592355" lon="14.9832767"><ele>55.0</ele><time>2026-05-02T04:31:35.49Z</time></trkpt><trkpt lat="40.59252" lon="14.9832633"><ele>55.0</ele><time>2026-05-02T04:31:36.49Z</time></trkpt><trkpt lat="40.59269" lon="14.98323"><ele>55.0</ele><time>2026-05-02T04:31:37.49Z</time></trkpt><trkpt lat="40.59285" lon="14.9832017"><ele>55.0</ele><time>2026-05-02T04:31:38.491Z</time></trkpt><trkpt lat="40.5930067" lon="14.9831783"><ele>55.0</ele><time>2026-05-02T04:31:39.49Z</time></trkpt><trkpt lat="40.5931617" lon="14.983155"><ele>55.0</ele><time>2026-05-02T04:31:40.49Z</time></trkpt><trkpt lat="40.5933" lon="14.9831183"><ele>55.0</ele><time>2026-05-02T04:31:41.49Z</time></trkpt><trkpt lat="40.59344" lon="14.9830883"><ele>55.0</ele><time>2026-05-02T04:31:42.49Z</time></trkpt><trkpt lat="40.5935783" lon="14.9830467"><ele>55.0</ele><time>2026-05-02T04:31:43.49Z</time></trkpt><trkpt lat="40.5937133" lon="14.982995"><ele>55.0</ele><time>2026-05-02T04:31:44.49Z</time></trkpt><trkpt lat="40.5938433" lon="14.9829283"><ele>55.5</ele><time>2026-05-02T04:31:45.49Z</time></trkpt><trkpt lat="40.5939667" lon="14.9828483"><ele>56.0</ele><time>2026-05-02T04:31:46.49Z</time></trkpt><trkpt lat="40.59408" lon="14.9827583"><ele>56.5</ele><time>2026-05-02T04:31:47.49Z</time></trkpt><trkpt lat="40.5941917" lon="14.98266"><ele>57.0</ele><time>2026-05-02T04:31:48.49Z</time></trkpt><trkpt lat="40.5942983" lon="14.98256"><ele>57.25</ele><time>2026-05-02T04:31:49.49Z</time></trkpt><trkpt lat="40.59441" lon="14.9824583"><ele>57.5</ele><time>2026-05-02T04:31:50.491Z</time></trkpt><trkpt lat="40.594525" lon="14.98234"><ele>57.75</ele><time>2026-05-02T04:31:51.491Z</time></trkpt><trkpt lat="40.59464" lon="14.9822283"><ele>58.0</ele><time>2026-05-02T04:31:52.491Z</time></trkpt><trkpt lat="40.5947517" lon="14.9821267"><ele>58.25</ele><time>2026-05-02T04:31:53.49Z</time></trkpt><trkpt lat="40.5948517" lon="14.982035"><ele>58.5</ele><time>2026-05-02T04:31:54.491Z</time></trkpt><trkpt lat="40.5949517" lon="14.9819417"><ele>58.75</ele><time>2026-05-02T04:31:55.49Z</time></trkpt><trkpt lat="40.595045" lon="14.9818483"><ele>59.0</ele><time>2026-05-02T04:31:56.49Z</time></trkpt><trkpt lat="40.595135" lon="14.9817667"><ele>58.75</ele><time>2026-05-02T04:31:57.49Z</time></trkpt><trkpt lat="40.59522" lon="14.98168"><ele>58.5</ele><time>2026-05-02T04:31:58.49Z</time></trkpt><trkpt lat="40.5953117" lon="14.9815867"><ele>58.25</ele><time>2026-05-02T04:31:59.49Z</time></trkpt><trkpt lat="40.59541" lon="14.9814783"><ele>58.0</ele><time>2026-05-02T04:32:00.49Z</time></trkpt><trkpt lat="40.5955217" lon="14.981355"><ele>58.666666666666664</ele><time>2026-05-02T04:32:01.49Z</time></trkpt><trkpt lat="40.59564" lon="14.9812367"><ele>59.33333333333333</ele><time>2026-05-02T04:32:02.491Z</time></trkpt><trkpt lat="40.5957683" lon="14.9811"><ele>60.0</ele><time>2026-05-02T04:32:03.49Z</time></trkpt><trkpt lat="40.5959033" lon="14.9809683"><ele>59.0</ele><time>2026-05-02T04:32:04.49Z</time></trkpt><trkpt lat="40.5960483" lon="14.980835"><ele>58.0</ele><time>2026-05-02T04:32:05.49Z</time></trkpt><trkpt lat="40.5961967" lon="14.9807"><ele>57.0</ele><time>2026-05-02T04:32:06.49Z</time></trkpt><trkpt lat="40.5963517" lon="14.9805633"><ele>56.66666666666667</ele><time>2026-05-02T04:32:07.49Z</time></trkpt><trkpt lat="40.5965" lon="14.9804217"><ele>56.333333333333336</ele><time>2026-05-02T04:32:08.49Z</time></trkpt><trkpt lat="40.5966483" lon="14.98028"><ele>56.0</ele><time>2026-05-02T04:32:09.49Z</time></trkpt><trkpt lat="40.5967983" lon="14.9801317"><ele>56.333333333333336</ele><time>2026-05-02T04:32:10.49Z</time></trkpt><trkpt lat="40.5969567" lon="14.9799783"><ele>56.66666666666667</ele><time>2026-05-02T04:32:11.49Z</time></trkpt><trkpt lat="40.597115" lon="14.9798283"><ele>57.0</ele><time>2026-05-02T04:32:12.49Z</time></trkpt><trkpt lat="40.5972767" lon="14.97967"><ele>57.0</ele><time>2026-05-02T04:32:13.49Z</time></trkpt><trkpt lat="40.59744" lon="14.9795117"><ele>57.0</ele><time>2026-05-02T04:32:14.49Z</time></trkpt><trkpt lat="40.5976083" lon="14.9793517"><ele>57.0</ele><time>2026-05-02T04:32:15.49Z</time></trkpt><trkpt lat="40.59778" lon="14.9791833"><ele>57.0</ele><time>2026-05-02T04:32:16.49Z</time></trkpt><trkpt lat="40.59795" lon="14.97902"><ele>57.0</ele><time>2026-05-02T04:32:17.49Z</time></trkpt><trkpt lat="40.59812" lon="14.9788533"><ele>57.0</ele><time>2026-05-02T04:32:18.49Z</time></trkpt><trkpt lat="40.5982883" lon="14.978695"><ele>57.0</ele><time>2026-05-02T04:32:19.49Z</time></trkpt><trkpt lat="40.5984517" lon="14.978525"><ele>57.0</ele><time>2026-05-02T04:32:20.491Z</time></trkpt><trkpt lat="40.5986133" lon="14.9783667"><ele>57.0</ele><time>2026-05-02T04:32:21.49Z</time></trkpt><trkpt lat="40.5987733" lon="14.978215"><ele>57.66666666666667</ele><time>2026-05-02T04:32:22.49Z</time></trkpt><trkpt lat="40.5989283" lon="14.9780533"><ele>58.333333333333336</ele><time>2026-05-02T04:32:23.49Z</time></trkpt><trkpt lat="40.5990967" lon="14.977915"><ele>59.0</ele><time>2026-05-02T04:32:24.49Z</time></trkpt><trkpt lat="40.599255" lon="14.9777633"><ele>59.0</ele><time>2026-05-02T04:32:25.49Z</time></trkpt><trkpt lat="40.5994067" lon="14.97761"><ele>59.0</ele><time>2026-05-02T04:32:26.49Z</time></trkpt><trkpt lat="40.59955" lon="14.9774717"><ele>59.0</ele><time>2026-05-02T04:32:27.49Z</time></trkpt><trkpt lat="40.599685" lon="14.9773367"><ele>59.333333333333336</ele><time>2026-05-02T04:32:28.49Z</time></trkpt><trkpt lat="40.5998267" lon="14.97721"><ele>59.66666666666667</ele><time>2026-05-02T04:32:29.49Z</time></trkpt><trkpt lat="40.599955" lon="14.9770817"><ele>60.0</ele><time>2026-05-02T04:32:30.49Z</time></trkpt><trkpt lat="40.6000717" lon="14.9769633"><ele>60.0</ele><time>2026-05-02T04:32:31.49Z</time></trkpt><trkpt lat="40.6001833" lon="14.9768533"><ele>60.0</ele><time>2026-05-02T04:32:32.49Z</time></trkpt><trkpt lat="40.600295" lon="14.976745"><ele>60.0</ele><time>2026-05-02T04:32:33.49Z</time></trkpt><trkpt lat="40.6004017" lon="14.9766467"><ele>60.0</ele><time>2026-05-02T04:32:34.49Z</time></trkpt><trkpt lat="40.6005083" lon="14.9765533"><ele>60.2</ele><time>2026-05-02T04:32:35.49Z</time></trkpt><trkpt lat="40.600615" lon="14.97648"><ele>60.4</ele><time>2026-05-02T04:32:36.49Z</time></trkpt><trkpt lat="40.6007133" lon="14.9764183"><ele>60.599999999999994</ele><time>2026-05-02T04:32:37.49Z</time></trkpt><trkpt lat="40.6008117" lon="14.976375"><ele>60.8</ele><time>2026-05-02T04:32:38.49Z</time></trkpt><trkpt lat="40.6009083" lon="14.97636"><ele>61.0</ele><time>2026-05-02T04:32:39.49Z</time></trkpt><trkpt lat="40.60099" lon="14.9763767"><ele>60.99999999999999</ele><time>2026-05-02T04:32:40.491Z</time></trkpt><trkpt lat="40.6010633" lon="14.9764133"><ele>61.0</ele><time>2026-05-02T04:32:41.49Z</time></trkpt><trkpt lat="40.6011417" lon="14.976445"><ele>60.99999999999999</ele><time>2026-05-02T04:32:42.49Z</time></trkpt><trkpt lat="40.6012183" lon="14.9764483"><ele>60.99999999999999</ele><time>2026-05-02T04:32:43.49Z</time></trkpt><trkpt lat="40.6012833" lon="14.9764233"><ele>61.0</ele><time>2026-05-02T04:32:44.49Z</time></trkpt><trkpt lat="40.60133" lon="14.9763617"><ele>60.99999999999999</ele><time>2026-05-02T04:32:45.49Z</time></trkpt><trkpt lat="40.6013617" lon="14.9762783"><ele>60.99999999999999</ele><time>2026-05-02T04:32:46.491Z</time></trkpt><trkpt lat="40.60137" lon="14.9761783"><ele>61.599999999999994</ele><time>2026-05-02T04:32:47.49Z</time></trkpt><trkpt lat="40.6013783" lon="14.9760617"><ele>62.199999999999996</ele><time>2026-05-02T04:32:48.49Z</time></trkpt><trkpt lat="40.6014017" lon="14.9759367"><ele>62.800000000000004</ele><time>2026-05-02T04:32:49.49Z</time></trkpt><trkpt lat="40.601445" lon="14.9758167"><ele>63.400000000000006</ele><time>2026-05-02T04:32:50.49Z</time></trkpt><trkpt lat="40.601505" lon="14.9757"><ele>64.0</ele><time>2026-05-02T04:32:51.49Z</time></trkpt><trkpt lat="40.601575" lon="14.9755767"><ele>64.0</ele><time>2026-05-02T04:32:52.49Z</time></trkpt><trkpt lat="40.601655" lon="14.9754583"><ele>64.0</ele><time>2026-05-02T04:32:53.49Z</time></trkpt><trkpt lat="40.6017467" lon="14.9753317"><ele>64.0</ele><time>2026-05-02T04:32:54.49Z</time></trkpt><trkpt lat="40.60186" lon="14.9752167"><ele>64.0</ele><time>2026-05-02T04:32:55.49Z</time></trkpt><trkpt lat="40.601965" lon="14.9750933"><ele>64.25</ele><time>2026-05-02T04:32:56.49Z</time></trkpt><trkpt lat="40.6020767" lon="14.97498"><ele>64.5</ele><time>2026-05-02T04:32:57.49Z</time></trkpt><trkpt lat="40.60219" lon="14.974875"><ele>64.75</ele><time>2026-05-02T04:32:58.49Z</time></trkpt><trkpt lat="40.6023067" lon="14.974775"><ele>65.0</ele><time>2026-05-02T04:32:59.49Z</time></trkpt><trkpt lat="40.6024033" lon="14.9746717"><ele>65.0</ele><time>2026-05-02T04:33:00.49Z</time></trkpt><trkpt lat="40.6024983" lon="14.9745817"><ele>65.0</ele><time>2026-05-02T04:33:01.49Z</time></trkpt><trkpt lat="40.6025933" lon="14.9745"><ele>65.0</ele><time>2026-05-02T04:33:02.49Z</time></trkpt><trkpt lat="40.6026883" lon="14.9744183"><ele>65.0</ele><time>2026-05-02T04:33:03.49Z</time></trkpt><trkpt lat="40.6027867" lon="14.9743283"><ele>64.5</ele><time>2026-05-02T04:33:04.49Z</time></trkpt><trkpt lat="40.6028883" lon="14.9742367"><ele>64.0</ele><time>2026-05-02T04:33:05.49Z</time></trkpt><trkpt lat="40.60299" lon="14.9741317"><ele>63.5</ele><time>2026-05-02T04:33:06.49Z</time></trkpt><trkpt lat="40.6031033" lon="14.9740283"><ele>63.0</ele><time>2026-05-02T04:33:07.49Z</time></trkpt><trkpt lat="40.60323" lon="14.9739317"><ele>63.0</ele><time>2026-05-02T04:33:08.49Z</time></trkpt><trkpt lat="40.6033517" lon="14.97384"><ele>63.0</ele><time>2026-05-02T04:33:09.49Z</time></trkpt><trkpt lat="40.6034783" lon="14.9737617"><ele>63.0</ele><time>2026-05-02T04:33:10.49Z</time></trkpt><trkpt lat="40.6036117" lon="14.97369"><ele>63.0</ele><time>2026-05-02T04:33:11.49Z</time></trkpt><trkpt lat="40.6037433" lon="14.9736267"><ele>62.75</ele><time>2026-05-02T04:33:12.49Z</time></trkpt><trkpt lat="40.6038883" lon="14.9735717"><ele>62.5</ele><time>2026-05-02T04:33:13.49Z</time></trkpt><trkpt lat="40.6040283" lon="14.9735267"><ele>62.25</ele><time>2026-05-02T04:33:14.49Z</time></trkpt><trkpt lat="40.604175" lon="14.9734983"><ele>62.0</ele><time>2026-05-02T04:33:15.49Z</time></trkpt><trkpt lat="40.6043217" lon="14.9734767"><ele>62.0</ele><time>2026-05-02T04:33:16.49Z</time></trkpt><trkpt lat="40.6044767" lon="14.9734667"><ele>62.0</ele><time>2026-05-02T04:33:17.491Z</time></trkpt><trkpt lat="40.604635" lon="14.9734433"><ele>62.0</ele><time>2026-05-02T04:33:18.491Z</time></trkpt><trkpt lat="40.6047933" lon="14.97343"><ele>63.5</ele><time>2026-05-02T04:33:19.49Z</time></trkpt><trkpt lat="40.6049483" lon="14.9734217"><ele>65.0</ele><time>2026-05-02T04:33:20.49Z</time></trkpt><trkpt lat="40.6050967" lon="14.9734167"><ele>66.5</ele><time>2026-05-02T04:33:21.491Z</time></trkpt><trkpt lat="40.6052417" lon="14.9734133"><ele>68.0</ele><time>2026-05-02T04:33:22.49Z</time></trkpt><trkpt lat="40.6053783" lon="14.9734083"><ele>68.0</ele><time>2026-05-02T04:33:23.49Z</time></trkpt><trkpt lat="40.605505" lon="14.973405"><ele>68.0</ele><time>2026-05-02T04:33:24.49Z</time></trkpt><trkpt lat="40.60562" lon="14.9733933"><ele>68.0</ele><time>2026-05-02T04:33:25.49Z</time></trkpt><trkpt lat="40.6057183" lon="14.97338"><ele>68.0</ele><time>2026-05-02T04:33:26.49Z</time></trkpt><trkpt lat="40.6058117" lon="14.9733767"><ele>68.0</ele><time>2026-05-02T04:33:27.49Z</time></trkpt><trkpt lat="40.605895" lon="14.9733767"><ele>68.0</ele><time>2026-05-02T04:33:28.49Z</time></trkpt><trkpt lat="40.6059733" lon="14.9734"><ele>68.0</ele><time>2026-05-02T04:33:29.49Z</time></trkpt><trkpt lat="40.6060433" lon="14.973445"><ele>68.0</ele><time>2026-05-02T04:33:30.49Z</time></trkpt><trkpt lat="40.6061067" lon="14.973485"><ele>68.0</ele><time>2026-05-02T04:33:31.49Z</time></trkpt><trkpt lat="40.6061717" lon="14.9735017"><ele>68.0</ele><time>2026-05-02T04:33:32.49Z</time></trkpt><trkpt lat="40.6062817" lon="14.9734583"><ele>68.0</ele><time>2026-05-02T04:33:34.49Z</time></trkpt><trkpt lat="40.606345" lon="14.9734017"><ele>67.8</ele><time>2026-05-02T04:33:35.49Z</time></trkpt><trkpt lat="40.6064283" lon="14.9733533"><ele>67.6</ele><time>2026-05-02T04:33:36.49Z</time></trkpt><trkpt lat="40.6065217" lon="14.9733133"><ele>67.4</ele><time>2026-05-02T04:33:37.49Z</time></trkpt><trkpt lat="40.606625" lon="14.973285"><ele>67.2</ele><time>2026-05-02T04:33:38.49Z</time></trkpt><trkpt lat="40.6067383" lon="14.9732717"><ele>67.0</ele><time>2026-05-02T04:33:39.49Z</time></trkpt><trkpt lat="40.6068467" lon="14.9732567"><ele>67.0</ele><time>2026-05-02T04:33:40.49Z</time></trkpt><trkpt lat="40.6069617" lon="14.9732417"><ele>67.0</ele><time>2026-05-02T04:33:41.49Z</time></trkpt><trkpt lat="40.60709" lon="14.9732267"><ele>67.0</ele><time>2026-05-02T04:33:42.491Z</time></trkpt><trkpt lat="40.60722" lon="14.9732067"><ele>67.0</ele><time>2026-05-02T04:33:43.49Z</time></trkpt><trkpt lat="40.607365" lon="14.973185"><ele>67.66666666666666</ele><time>2026-05-02T04:33:44.49Z</time></trkpt><trkpt lat="40.607515" lon="14.973165"><ele>68.33333333333333</ele><time>2026-05-02T04:33:45.491Z</time></trkpt><trkpt lat="40.6076667" lon="14.9731433"><ele>69.0</ele><time>2026-05-02T04:33:46.49Z</time></trkpt><trkpt lat="40.60782" lon="14.9731317"><ele>67.66666666666667</ele><time>2026-05-02T04:33:47.491Z</time></trkpt><trkpt lat="40.6079733" lon="14.973115"><ele>66.33333333333334</ele><time>2026-05-02T04:33:48.49Z</time></trkpt><trkpt lat="40.6081333" lon="14.9730967"><ele>65.0</ele><time>2026-05-02T04:33:49.49Z</time></trkpt><trkpt lat="40.6082983" lon="14.97308"><ele>65.0</ele><time>2026-05-02T04:33:50.49Z</time></trkpt><trkpt lat="40.6084783" lon="14.9730683"><ele>65.0</ele><time>2026-05-02T04:33:51.49Z</time></trkpt><trkpt lat="40.6086567" lon="14.9730467"><ele>65.0</ele><time>2026-05-02T04:33:52.49Z</time></trkpt><trkpt lat="40.608835" lon="14.9730333"><ele>65.0</ele><time>2026-05-02T04:33:53.49Z</time></trkpt><trkpt lat="40.6090167" lon="14.9730133"><ele>65.0</ele><time>2026-05-02T04:33:54.49Z</time></trkpt><trkpt lat="40.6091983" lon="14.97299"><ele>65.0</ele><time>2026-05-02T04:33:55.49Z</time></trkpt><trkpt lat="40.609385" lon="14.972975"><ele>64.66666666666667</ele><time>2026-05-02T04:33:56.49Z</time></trkpt><trkpt lat="40.6095717" lon="14.9729567"><ele>64.33333333333333</ele><time>2026-05-02T04:33:57.49Z</time></trkpt><trkpt lat="40.6097617" lon="14.9729383"><ele>64.0</ele><time>2026-05-02T04:33:58.49Z</time></trkpt><trkpt lat="40.6099567" lon="14.9729183"><ele>64.0</ele><time>2026-05-02T04:33:59.49Z</time></trkpt><trkpt lat="40.6101533" lon="14.9728983"><ele>64.0</ele><time>2026-05-02T04:34:00.49Z</time></trkpt><trkpt lat="40.610345" lon="14.9728783"><ele>64.0</ele><time>2026-05-02T04:34:01.49Z</time></trkpt><trkpt lat="40.61053" lon="14.9728617"><ele>63.0</ele><time>2026-05-02T04:34:02.49Z</time></trkpt><trkpt lat="40.6107283" lon="14.9728383"><ele>62.0</ele><time>2026-05-02T04:34:03.491Z</time></trkpt><trkpt lat="40.610935" lon="14.9728233"><ele>61.0</ele><time>2026-05-02T04:34:04.49Z</time></trkpt><trkpt lat="40.61114" lon="14.9728033"><ele>61.666666666666664</ele><time>2026-05-02T04:34:05.49Z</time></trkpt><trkpt lat="40.6113517" lon="14.9727867"><ele>62.33333333333333</ele><time>2026-05-02T04:34:06.49Z</time></trkpt><trkpt lat="40.611565" lon="14.9727633"><ele>63.0</ele><time>2026-05-02T04:34:07.49Z</time></trkpt><trkpt lat="40.6117717" lon="14.9727417"><ele>63.0</ele><time>2026-05-02T04:34:08.49Z</time></trkpt><trkpt lat="40.6119683" lon="14.9727183"><ele>63.0</ele><time>2026-05-02T04:34:09.49Z</time></trkpt><trkpt lat="40.612155" lon="14.9726933"><ele>63.0</ele><time>2026-05-02T04:34:10.49Z</time></trkpt><trkpt lat="40.6123367" lon="14.9726533"><ele>63.0</ele><time>2026-05-02T04:34:11.49Z</time></trkpt><trkpt lat="40.6125167" lon="14.9726033"><ele>63.0</ele><time>2026-05-02T04:34:12.49Z</time></trkpt><trkpt lat="40.6126867" lon="14.9725383"><ele>63.0</ele><time>2026-05-02T04:34:13.49Z</time></trkpt><trkpt lat="40.6128517" lon="14.9724533"><ele>63.0</ele><time>2026-05-02T04:34:14.49Z</time></trkpt><trkpt lat="40.6130117" lon="14.972355"><ele>63.0</ele><time>2026-05-02T04:34:15.491Z</time></trkpt><trkpt lat="40.613175" lon="14.9722417"><ele>63.0</ele><time>2026-05-02T04:34:16.491Z</time></trkpt><trkpt lat="40.6133317" lon="14.9721083"><ele>63.0</ele><time>2026-05-02T04:34:17.491Z</time></trkpt><trkpt lat="40.6134933" lon="14.97196"><ele>63.0</ele><time>2026-05-02T04:34:18.491Z</time></trkpt><trkpt lat="40.6136533" lon="14.9718033"><ele>63.0</ele><time>2026-05-02T04:34:19.491Z</time></trkpt><trkpt lat="40.61381" lon="14.9716583"><ele>63.0</ele><time>2026-05-02T04:34:20.491Z</time></trkpt><trkpt lat="40.61397" lon="14.9715083"><ele>63.0</ele><time>2026-05-02T04:34:21.491Z</time></trkpt><trkpt lat="40.6141383" lon="14.97137"><ele>63.0</ele><time>2026-05-02T04:34:22.491Z</time></trkpt><trkpt lat="40.6143033" lon="14.9712483"><ele>63.0</ele><time>2026-05-02T04:34:23.491Z</time></trkpt><trkpt lat="40.61448" lon="14.9711417"><ele>63.0</ele><time>2026-05-02T04:34:24.491Z</time></trkpt><trkpt lat="40.6146583" lon="14.9710533"><ele>63.0</ele><time>2026-05-02T04:34:25.491Z</time></trkpt><trkpt lat="40.6148367" lon="14.970985"><ele>63.33333333333333</ele><time>2026-05-02T04:34:26.491Z</time></trkpt><trkpt lat="40.61502" lon="14.9709367"><ele>63.666666666666664</ele><time>2026-05-02T04:34:27.491Z</time></trkpt><trkpt lat="40.61521" lon="14.9709183"><ele>64.0</ele><time>2026-05-02T04:34:28.491Z</time></trkpt><trkpt lat="40.6153967" lon="14.9709167"><ele>64.0</ele><time>2026-05-02T04:34:29.491Z</time></trkpt><trkpt lat="40.61558" lon="14.9709383"><ele>64.0</ele><time>2026-05-02T04:34:30.491Z</time></trkpt><trkpt lat="40.6157633" lon="14.9709833"><ele>64.0</ele><time>2026-05-02T04:34:31.491Z</time></trkpt><trkpt lat="40.6159483" lon="14.9710417"><ele>64.0</ele><time>2026-05-02T04:34:32.491Z</time></trkpt><trkpt lat="40.61613" lon="14.97112"><ele>64.0</ele><time>2026-05-02T04:34:33.491Z</time></trkpt><trkpt lat="40.61631" lon="14.9712133"><ele>64.0</ele><time>2026-05-02T04:34:34.491Z</time></trkpt><trkpt lat="40.6164917" lon="14.971315"><ele>63.33333333333333</ele><time>2026-05-02T04:34:35.491Z</time></trkpt><trkpt lat="40.6166717" lon="14.97142"><ele>62.66666666666667</ele><time>2026-05-02T04:34:36.491Z</time></trkpt><trkpt lat="40.6168567" lon="14.9715267"><ele>62.0</ele><time>2026-05-02T04:34:37.491Z</time></trkpt><trkpt lat="40.6170467" lon="14.9716367"><ele>62.333333333333336</ele><time>2026-05-02T04:34:38.491Z</time></trkpt><trkpt lat="40.61724" lon="14.9717433"><ele>62.66666666666667</ele><time>2026-05-02T04:34:39.491Z</time></trkpt><trkpt lat="40.6174383" lon="14.97186"><ele>63.0</ele><time>2026-05-02T04:34:40.491Z</time></trkpt><trkpt lat="40.61764" lon="14.97197"><ele>63.66666666666667</ele><time>2026-05-02T04:34:41.491Z</time></trkpt><trkpt lat="40.617845" lon="14.9720817"><ele>64.33333333333334</ele><time>2026-05-02T04:34:42.491Z</time></trkpt><trkpt lat="40.618045" lon="14.9722"><ele>65.0</ele><time>2026-05-02T04:34:43.491Z</time></trkpt><trkpt lat="40.6182533" lon="14.9723133"><ele>65.0</ele><time>2026-05-02T04:34:44.491Z</time></trkpt><trkpt lat="40.6184633" lon="14.9724283"><ele>65.0</ele><time>2026-05-02T04:34:45.491Z</time></trkpt><trkpt lat="40.6186683" lon="14.9725533"><ele>66.0</ele><time>2026-05-02T04:34:46.491Z</time></trkpt><trkpt lat="40.6188683" lon="14.97267"><ele>67.0</ele><time>2026-05-02T04:34:47.491Z</time></trkpt><trkpt lat="40.6190567" lon="14.97278"><ele>68.0</ele><time>2026-05-02T04:34:48.491Z</time></trkpt><trkpt lat="40.61924" lon="14.9728817"><ele>68.0</ele><time>2026-05-02T04:34:49.491Z</time></trkpt><trkpt lat="40.6194017" lon="14.9729767"><ele>68.0</ele><time>2026-05-02T04:34:50.491Z</time></trkpt><trkpt lat="40.6195617" lon="14.9730583"><ele>68.0</ele><time>2026-05-02T04:34:51.491Z</time></trkpt><trkpt lat="40.6197083" lon="14.9731317"><ele>68.66666666666667</ele><time>2026-05-02T04:34:52.491Z</time></trkpt><trkpt lat="40.6198617" lon="14.9731867"><ele>69.33333333333333</ele><time>2026-05-02T04:34:53.491Z</time></trkpt><trkpt lat="40.6200183" lon="14.97323"><ele>70.0</ele><time>2026-05-02T04:34:54.491Z</time></trkpt><trkpt lat="40.6201683" lon="14.97326"><ele>69.66666666666666</ele><time>2026-05-02T04:34:55.491Z</time></trkpt><trkpt lat="40.6203217" lon="14.9732867"><ele>69.33333333333333</ele><time>2026-05-02T04:34:56.491Z</time></trkpt><trkpt lat="40.6204883" lon="14.9733117"><ele>69.0</ele><time>2026-05-02T04:34:57.491Z</time></trkpt><trkpt lat="40.6206433" lon="14.9733333"><ele>69.0</ele><time>2026-05-02T04:34:58.491Z</time></trkpt><trkpt lat="40.6208" lon="14.9733533"><ele>69.0</ele><time>2026-05-02T04:34:59.491Z</time></trkpt><trkpt lat="40.6209467" lon="14.973385"><ele>69.0</ele><time>2026-05-02T04:35:00.491Z</time></trkpt><trkpt lat="40.6210817" lon="14.9733983"><ele>69.0</ele><time>2026-05-02T04:35:01.491Z</time></trkpt><trkpt lat="40.6212083" lon="14.973405"><ele>69.25</ele><time>2026-05-02T04:35:02.491Z</time></trkpt><trkpt lat="40.6213283" lon="14.97339"><ele>69.5</ele><time>2026-05-02T04:35:03.491Z</time></trkpt><trkpt lat="40.621445" lon="14.9733533"><ele>69.75</ele><time>2026-05-02T04:35:04.491Z</time></trkpt><trkpt lat="40.62155" lon="14.973285"><ele>70.0</ele><time>2026-05-02T04:35:05.491Z</time></trkpt><trkpt lat="40.6216417" lon="14.9731883"><ele>70.0</ele><time>2026-05-02T04:35:06.491Z</time></trkpt><trkpt lat="40.6217183" lon="14.9730733"><ele>70.0</ele><time>2026-05-02T04:35:07.492Z</time></trkpt><trkpt lat="40.6217767" lon="14.972935"><ele>70.0</ele><time>2026-05-02T04:35:08.492Z</time></trkpt><trkpt lat="40.6218067" lon="14.9727867"><ele>70.0</ele><time>2026-05-02T04:35:09.491Z</time></trkpt><trkpt lat="40.6218133" lon="14.9726267"><ele>69.75</ele><time>2026-05-02T04:35:10.491Z</time></trkpt><trkpt lat="40.6217933" lon="14.97247"><ele>69.5</ele><time>2026-05-02T04:35:11.491Z</time></trkpt><trkpt lat="40.6217517" lon="14.9723217"><ele>69.25</ele><time>2026-05-02T04:35:12.491Z</time></trkpt><trkpt lat="40.6216883" lon="14.9721867"><ele>69.0</ele><time>2026-05-02T04:35:13.491Z</time></trkpt><trkpt lat="40.6216033" lon="14.9720667"><ele>69.0</ele><time>2026-05-02T04:35:14.491Z</time></trkpt><trkpt lat="40.621505" lon="14.971965"><ele>69.0</ele><time>2026-05-02T04:35:15.491Z</time></trkpt><trkpt lat="40.621395" lon="14.9718833"><ele>69.0</ele><time>2026-05-02T04:35:16.491Z</time></trkpt><trkpt lat="40.6212717" lon="14.971805"><ele>69.0</ele><time>2026-05-02T04:35:17.491Z</time></trkpt><trkpt lat="40.6211533" lon="14.9717133"><ele>67.75</ele><time>2026-05-02T04:35:18.491Z</time></trkpt><trkpt lat="40.621045" lon="14.9716033"><ele>66.5</ele><time>2026-05-02T04:35:19.491Z</time></trkpt><trkpt lat="40.6209517" lon="14.9714833"><ele>65.25</ele><time>2026-05-02T04:35:20.491Z</time></trkpt><trkpt lat="40.6208783" lon="14.9713383"><ele>64.0</ele><time>2026-05-02T04:35:21.491Z</time></trkpt><trkpt lat="40.62082" lon="14.9711817"><ele>64.0</ele><time>2026-05-02T04:35:22.491Z</time></trkpt><trkpt lat="40.6207683" lon="14.9710117"><ele>64.0</ele><time>2026-05-02T04:35:23.491Z</time></trkpt><trkpt lat="40.6207417" lon="14.9708267"><ele>64.0</ele><time>2026-05-02T04:35:24.491Z</time></trkpt><trkpt lat="40.62073" lon="14.970625"><ele>64.0</ele><time>2026-05-02T04:35:25.491Z</time></trkpt><trkpt lat="40.620725" lon="14.970415"><ele>65.0</ele><time>2026-05-02T04:35:26.491Z</time></trkpt><trkpt lat="40.6207317" lon="14.970195"><ele>66.0</ele><time>2026-05-02T04:35:27.491Z</time></trkpt><trkpt lat="40.6207317" lon="14.9699767"><ele>67.0</ele><time>2026-05-02T04:35:28.491Z</time></trkpt><trkpt lat="40.6207317" lon="14.9697617"><ele>67.0</ele><time>2026-05-02T04:35:29.491Z</time></trkpt><trkpt lat="40.6207383" lon="14.9695317"><ele>67.0</ele><time>2026-05-02T04:35:30.491Z</time></trkpt><trkpt lat="40.620745" lon="14.969295"><ele>67.0</ele><time>2026-05-02T04:35:31.491Z</time></trkpt><trkpt lat="40.6207467" lon="14.9690567"><ele>66.66666666666666</ele><time>2026-05-02T04:35:32.491Z</time></trkpt><trkpt lat="40.6207417" lon="14.9688033"><ele>66.33333333333333</ele><time>2026-05-02T04:35:33.491Z</time></trkpt><trkpt lat="40.6207483" lon="14.9685333"><ele>66.0</ele><time>2026-05-02T04:35:34.491Z</time></trkpt><trkpt lat="40.6207533" lon="14.968255"><ele>66.0</ele><time>2026-05-02T04:35:35.491Z</time></trkpt><trkpt lat="40.6207667" lon="14.96798"><ele>66.0</ele><time>2026-05-02T04:35:36.492Z</time></trkpt><trkpt lat="40.6207817" lon="14.9677083"><ele>66.0</ele><time>2026-05-02T04:35:37.491Z</time></trkpt><trkpt lat="40.6208" lon="14.9674267"><ele>65.33333333333333</ele><time>2026-05-02T04:35:38.492Z</time></trkpt><trkpt lat="40.6208183" lon="14.9671367"><ele>64.66666666666666</ele><time>2026-05-02T04:35:39.491Z</time></trkpt><trkpt lat="40.6208433" lon="14.9668383"><ele>64.0</ele><time>2026-05-02T04:35:40.491Z</time></trkpt><trkpt lat="40.62087" lon="14.966535"><ele>63.5</ele><time>2026-05-02T04:35:41.492Z</time></trkpt><trkpt lat="40.620905" lon="14.9662267"><ele>63.0</ele><time>2026-05-02T04:35:42.491Z</time></trkpt><trkpt lat="40.6209467" lon="14.9659083"><ele>62.0</ele><time>2026-05-02T04:35:43.491Z</time></trkpt><trkpt lat="40.6209933" lon="14.96559"><ele>61.0</ele><time>2026-05-02T04:35:44.491Z</time></trkpt><trkpt lat="40.6210383" lon="14.965275"><ele>60.0</ele><time>2026-05-02T04:35:45.491Z</time></trkpt><trkpt lat="40.6210883" lon="14.9649667"><ele>59.0</ele><time>2026-05-02T04:35:46.491Z</time></trkpt><trkpt lat="40.6211433" lon="14.9646567"><ele>59.0</ele><time>2026-05-02T04:35:47.491Z</time></trkpt><trkpt lat="40.6212033" lon="14.96434"><ele>59.0</ele><time>2026-05-02T04:35:48.492Z</time></trkpt><trkpt lat="40.62127" lon="14.9640233"><ele>60.0</ele><time>2026-05-02T04:35:49.491Z</time></trkpt><trkpt lat="40.6213367" lon="14.9637033"><ele>61.0</ele><time>2026-05-02T04:35:50.491Z</time></trkpt><trkpt lat="40.6214067" lon="14.963385"><ele>60.0</ele><time>2026-05-02T04:35:51.491Z</time></trkpt><trkpt lat="40.62148" lon="14.9630583"><ele>59.0</ele><time>2026-05-02T04:35:52.491Z</time></trkpt><trkpt lat="40.62156" lon="14.962735"><ele>58.0</ele><time>2026-05-02T04:35:53.491Z</time></trkpt><trkpt lat="40.6216383" lon="14.9624083"><ele>57.0</ele><time>2026-05-02T04:35:54.491Z</time></trkpt><trkpt lat="40.6217233" lon="14.9620817"><ele>57.0</ele><time>2026-05-02T04:35:55.491Z</time></trkpt><trkpt lat="40.6218117" lon="14.9617517"><ele>57.0</ele><time>2026-05-02T04:35:56.491Z</time></trkpt><trkpt lat="40.621895" lon="14.96142"><ele>58.0</ele><time>2026-05-02T04:35:57.491Z</time></trkpt><trkpt lat="40.6219833" lon="14.961085"><ele>59.0</ele><time>2026-05-02T04:35:58.492Z</time></trkpt><trkpt lat="40.622075" lon="14.9607483"><ele>59.5</ele><time>2026-05-02T04:35:59.491Z</time></trkpt><trkpt lat="40.622165" lon="14.960415"><ele>60.0</ele><time>2026-05-02T04:36:00.491Z</time></trkpt><trkpt lat="40.6222517" lon="14.9600833"><ele>60.5</ele><time>2026-05-02T04:36:01.491Z</time></trkpt><trkpt lat="40.6223417" lon="14.9597533"><ele>61.0</ele><time>2026-05-02T04:36:02.491Z</time></trkpt><trkpt lat="40.622425" lon="14.9594267"><ele>61.0</ele><time>2026-05-02T04:36:03.491Z</time></trkpt><trkpt lat="40.6225133" lon="14.959095"><ele>61.0</ele><time>2026-05-02T04:36:04.491Z</time></trkpt><trkpt lat="40.6226067" lon="14.9587667"><ele>61.0</ele><time>2026-05-02T04:36:05.491Z</time></trkpt><trkpt lat="40.622705" lon="14.9584367"><ele>61.0</ele><time>2026-05-02T04:36:06.491Z</time></trkpt><trkpt lat="40.622795" lon="14.95811"><ele>62.0</ele><time>2026-05-02T04:36:07.491Z</time></trkpt><trkpt lat="40.62289" lon="14.9577833"><ele>63.0</ele><time>2026-05-02T04:36:08.491Z</time></trkpt><trkpt lat="40.6229883" lon="14.957455"><ele>64.0</ele><time>2026-05-02T04:36:09.491Z</time></trkpt><trkpt lat="40.62309" lon="14.9571267"><ele>65.0</ele><time>2026-05-02T04:36:10.491Z</time></trkpt><trkpt lat="40.6231983" lon="14.9568017"><ele>65.5</ele><time>2026-05-02T04:36:11.491Z</time></trkpt><trkpt lat="40.623305" lon="14.9564767"><ele>66.0</ele><time>2026-05-02T04:36:12.491Z</time></trkpt><trkpt lat="40.6234117" lon="14.9561417"><ele>65.5</ele><time>2026-05-02T04:36:13.491Z</time></trkpt><trkpt lat="40.62352" lon="14.9558033"><ele>65.0</ele><time>2026-05-02T04:36:14.491Z</time></trkpt><trkpt lat="40.623635" lon="14.9554717"><ele>66.5</ele><time>2026-05-02T04:36:15.491Z</time></trkpt><trkpt lat="40.6237533" lon="14.9551367"><ele>68.0</ele><time>2026-05-02T04:36:16.491Z</time></trkpt><trkpt lat="40.6238733" lon="14.9548117"><ele>68.5</ele><time>2026-05-02T04:36:17.491Z</time></trkpt><trkpt lat="40.6239933" lon="14.9544767"><ele>69.0</ele><time>2026-05-02T04:36:18.491Z</time></trkpt><trkpt lat="40.6241133" lon="14.9541433"><ele>67.5</ele><time>2026-05-02T04:36:19.491Z</time></trkpt><trkpt lat="40.62424" lon="14.9538083"><ele>66.0</ele><time>2026-05-02T04:36:20.491Z</time></trkpt><trkpt lat="40.6243733" lon="14.9534767"><ele>67.0</ele><time>2026-05-02T04:36:21.491Z</time></trkpt><trkpt lat="40.624495" lon="14.9531517"><ele>68.0</ele><time>2026-05-02T04:36:22.491Z</time></trkpt><trkpt lat="40.6246183" lon="14.9528117"><ele>67.0</ele><time>2026-05-02T04:36:23.491Z</time></trkpt><trkpt lat="40.6247567" lon="14.9524783"><ele>66.0</ele><time>2026-05-02T04:36:24.491Z</time></trkpt><trkpt lat="40.6248917" lon="14.952145"><ele>66.0</ele><time>2026-05-02T04:36:25.491Z</time></trkpt><trkpt lat="40.6250233" lon="14.951815"><ele>66.0</ele><time>2026-05-02T04:36:26.491Z</time></trkpt><trkpt lat="40.6251533" lon="14.9514867"><ele>64.0</ele><time>2026-05-02T04:36:27.491Z</time></trkpt><trkpt lat="40.6252883" lon="14.9511483"><ele>62.0</ele><time>2026-05-02T04:36:28.491Z</time></trkpt><trkpt lat="40.625415" lon="14.9508183"><ele>61.0</ele><time>2026-05-02T04:36:29.491Z</time></trkpt><trkpt lat="40.6255433" lon="14.95049"><ele>60.0</ele><time>2026-05-02T04:36:30.491Z</time></trkpt><trkpt lat="40.6256783" lon="14.9501617"><ele>60.0</ele><time>2026-05-02T04:36:31.491Z</time></trkpt><trkpt lat="40.6258067" lon="14.94984"><ele>60.0</ele><time>2026-05-02T04:36:32.491Z</time></trkpt><trkpt lat="40.6259383" lon="14.94951"><ele>60.0</ele><time>2026-05-02T04:36:33.491Z</time></trkpt><trkpt lat="40.6260667" lon="14.949185"><ele>60.0</ele><time>2026-05-02T04:36:34.491Z</time></trkpt><trkpt lat="40.6262" lon="14.94886"><ele>60.5</ele><time>2026-05-02T04:36:35.491Z</time></trkpt><trkpt lat="40.626325" lon="14.9485383"><ele>61.0</ele><time>2026-05-02T04:36:36.492Z</time></trkpt><trkpt lat="40.6264533" lon="14.9482133"><ele>61.0</ele><time>2026-05-02T04:36:37.491Z</time></trkpt><trkpt lat="40.62658" lon="14.9478917"><ele>61.0</ele><time>2026-05-02T04:36:38.492Z</time></trkpt><trkpt lat="40.6267067" lon="14.9475667"><ele>61.0</ele><time>2026-05-02T04:36:39.492Z</time></trkpt><trkpt lat="40.6268267" lon="14.9472433"><ele>61.0</ele><time>2026-05-02T04:36:40.491Z</time></trkpt><trkpt lat="40.6269517" lon="14.9469183"><ele>62.0</ele><time>2026-05-02T04:36:41.491Z</time></trkpt><trkpt lat="40.62707" lon="14.9465917"><ele>63.0</ele><time>2026-05-02T04:36:42.491Z</time></trkpt><trkpt lat="40.6271817" lon="14.9462683"><ele>63.0</ele><time>2026-05-02T04:36:43.491Z</time></trkpt><trkpt lat="40.6272917" lon="14.945935"><ele>63.0</ele><time>2026-05-02T04:36:44.491Z</time></trkpt><trkpt lat="40.627395" lon="14.9456017"><ele>63.0</ele><time>2026-05-02T04:36:45.491Z</time></trkpt><trkpt lat="40.6274883" lon="14.9452733"><ele>63.0</ele><time>2026-05-02T04:36:46.491Z</time></trkpt><trkpt lat="40.6275717" lon="14.9449317"><ele>63.0</ele><time>2026-05-02T04:36:47.491Z</time></trkpt><trkpt lat="40.6276617" lon="14.9445867"><ele>63.0</ele><time>2026-05-02T04:36:48.491Z</time></trkpt><trkpt lat="40.6277433" lon="14.944245"><ele>65.0</ele><time>2026-05-02T04:36:49.491Z</time></trkpt><trkpt lat="40.6278217" lon="14.9438967"><ele>67.0</ele><time>2026-05-02T04:36:50.491Z</time></trkpt><trkpt lat="40.627895" lon="14.943545"><ele>66.0</ele><time>2026-05-02T04:36:51.491Z</time></trkpt><trkpt lat="40.6279567" lon="14.9431917"><ele>65.0</ele><time>2026-05-02T04:36:52.491Z</time></trkpt><trkpt lat="40.62802" lon="14.9428317"><ele>65.0</ele><time>2026-05-02T04:36:53.491Z</time></trkpt><trkpt lat="40.6280733" lon="14.9424733"><ele>65.0</ele><time>2026-05-02T04:36:54.492Z</time></trkpt><trkpt lat="40.6281233" lon="14.9421133"><ele>65.0</ele><time>2026-05-02T04:36:55.491Z</time></trkpt><trkpt lat="40.6281667" lon="14.94175"><ele>65.0</ele><time>2026-05-02T04:36:56.491Z</time></trkpt><trkpt lat="40.628205" lon="14.941375"><ele>65.0</ele><time>2026-05-02T04:36:57.492Z</time></trkpt><trkpt lat="40.6282367" lon="14.9410067"><ele>65.0</ele><time>2026-05-02T04:36:58.491Z</time></trkpt><trkpt lat="40.6282617" lon="14.940635"><ele>64.5</ele><time>2026-05-02T04:36:59.491Z</time></trkpt><trkpt lat="40.628285" lon="14.9402683"><ele>64.0</ele><time>2026-05-02T04:37:00.491Z</time></trkpt><trkpt lat="40.6283067" lon="14.93989"><ele>64.0</ele><time>2026-05-02T04:37:01.491Z</time></trkpt><trkpt lat="40.62832" lon="14.9395117"><ele>64.0</ele><time>2026-05-02T04:37:02.492Z</time></trkpt><trkpt lat="40.628335" lon="14.939135"><ele>64.0</ele><time>2026-05-02T04:37:03.491Z</time></trkpt><trkpt lat="40.6283467" lon="14.9387617"><ele>64.0</ele><time>2026-05-02T04:37:04.491Z</time></trkpt><trkpt lat="40.6283567" lon="14.93839"><ele>63.5</ele><time>2026-05-02T04:37:05.491Z</time></trkpt><trkpt lat="40.62837" lon="14.9380217"><ele>63.0</ele><time>2026-05-02T04:37:06.491Z</time></trkpt><trkpt lat="40.6283883" lon="14.9376533"><ele>61.5</ele><time>2026-05-02T04:37:07.491Z</time></trkpt><trkpt lat="40.6284033" lon="14.937285"><ele>60.0</ele><time>2026-05-02T04:37:08.491Z</time></trkpt><trkpt lat="40.6284283" lon="14.9369217"><ele>60.0</ele><time>2026-05-02T04:37:09.491Z</time></trkpt><trkpt lat="40.6284517" lon="14.9365617"><ele>60.0</ele><time>2026-05-02T04:37:10.491Z</time></trkpt><trkpt lat="40.6284817" lon="14.9362067"><ele>59.0</ele><time>2026-05-02T04:37:11.491Z</time></trkpt><trkpt lat="40.6285183" lon="14.9358517"><ele>58.0</ele><time>2026-05-02T04:37:12.491Z</time></trkpt><trkpt lat="40.6285617" lon="14.9355017"><ele>58.0</ele><time>2026-05-02T04:37:13.491Z</time></trkpt><trkpt lat="40.628615" lon="14.9351533"><ele>58.0</ele><time>2026-05-02T04:37:14.491Z</time></trkpt><trkpt lat="40.6286767" lon="14.9348067"><ele>58.0</ele><time>2026-05-02T04:37:15.491Z</time></trkpt><trkpt lat="40.6287367" lon="14.9344617"><ele>58.0</ele><time>2026-05-02T04:37:16.491Z</time></trkpt><trkpt lat="40.6288017" lon="14.9341167"><ele>58.0</ele><time>2026-05-02T04:37:17.491Z</time></trkpt><trkpt lat="40.6288633" lon="14.933775"><ele>58.0</ele><time>2026-05-02T04:37:18.491Z</time></trkpt><trkpt lat="40.628935" lon="14.9334333"><ele>58.0</ele><time>2026-05-02T04:37:19.491Z</time></trkpt><trkpt lat="40.629015" lon="14.9330917"><ele>58.0</ele><time>2026-05-02T04:37:20.491Z</time></trkpt><trkpt lat="40.6291" lon="14.9327517"><ele>58.5</ele><time>2026-05-02T04:37:21.491Z</time></trkpt><trkpt lat="40.62918" lon="14.93242"><ele>59.0</ele><time>2026-05-02T04:37:22.491Z</time></trkpt><trkpt lat="40.62927" lon="14.9320883"><ele>59.0</ele><time>2026-05-02T04:37:23.492Z</time></trkpt><trkpt lat="40.6293583" lon="14.9317617"><ele>59.0</ele><time>2026-05-02T04:37:24.491Z</time></trkpt><trkpt lat="40.6294567" lon="14.931425"><ele>59.0</ele><time>2026-05-02T04:37:25.491Z</time></trkpt><trkpt lat="40.6295533" lon="14.9310967"><ele>59.0</ele><time>2026-05-02T04:37:26.491Z</time></trkpt><trkpt lat="40.62966" lon="14.9307667"><ele>59.0</ele><time>2026-05-02T04:37:27.491Z</time></trkpt><trkpt lat="40.62977" lon="14.930435"><ele>59.0</ele><time>2026-05-02T04:37:28.491Z</time></trkpt><trkpt lat="40.6298833" lon="14.9301033"><ele>59.0</ele><time>2026-05-02T04:37:29.491Z</time></trkpt><trkpt lat="40.6299983" lon="14.9297717"><ele>59.0</ele><time>2026-05-02T04:37:30.491Z</time></trkpt><trkpt lat="40.630105" lon="14.9294383"><ele>59.5</ele><time>2026-05-02T04:37:31.491Z</time></trkpt><trkpt lat="40.6302117" lon="14.929105"><ele>60.0</ele><time>2026-05-02T04:37:32.491Z</time></trkpt><trkpt lat="40.630325" lon="14.9287667"><ele>60.0</ele><time>2026-05-02T04:37:33.491Z</time></trkpt><trkpt lat="40.63044" lon="14.9284333"><ele>60.0</ele><time>2026-05-02T04:37:34.491Z</time></trkpt><trkpt lat="40.6305517" lon="14.9280983"><ele>58.0</ele><time>2026-05-02T04:37:35.491Z</time></trkpt><trkpt lat="40.6306683" lon="14.9277583"><ele>56.0</ele><time>2026-05-02T04:37:36.491Z</time></trkpt><trkpt lat="40.6307833" lon="14.9274217"><ele>55.5</ele><time>2026-05-02T04:37:37.491Z</time></trkpt><trkpt lat="40.6309" lon="14.9270817"><ele>55.0</ele><time>2026-05-02T04:37:38.491Z</time></trkpt><trkpt lat="40.6310133" lon="14.9267417"><ele>55.0</ele><time>2026-05-02T04:37:39.491Z</time></trkpt><trkpt lat="40.631125" lon="14.9263967"><ele>55.0</ele><time>2026-05-02T04:37:40.491Z</time></trkpt><trkpt lat="40.63124" lon="14.9260483"><ele>54.0</ele><time>2026-05-02T04:37:41.491Z</time></trkpt><trkpt lat="40.631355" lon="14.9256983"><ele>53.0</ele><time>2026-05-02T04:37:42.491Z</time></trkpt><trkpt lat="40.6314733" lon="14.9253517"><ele>52.0</ele><time>2026-05-02T04:37:43.491Z</time></trkpt><trkpt lat="40.6315883" lon="14.9249983"><ele>51.0</ele><time>2026-05-02T04:37:44.492Z</time></trkpt><trkpt lat="40.6317067" lon="14.92465"><ele>51.0</ele><time>2026-05-02T04:37:45.491Z</time></trkpt><trkpt lat="40.6318183" lon="14.9242983"><ele>51.0</ele><time>2026-05-02T04:37:46.491Z</time></trkpt><trkpt lat="40.6319333" lon="14.92395"><ele>51.5</ele><time>2026-05-02T04:37:47.491Z</time></trkpt><trkpt lat="40.6320517" lon="14.9235983"><ele>52.0</ele><time>2026-05-02T04:37:48.491Z</time></trkpt><trkpt lat="40.6321633" lon="14.92325"><ele>52.0</ele><time>2026-05-02T04:37:49.491Z</time></trkpt><trkpt lat="40.6322817" lon="14.9229033"><ele>52.0</ele><time>2026-05-02T04:37:50.491Z</time></trkpt><trkpt lat="40.6323967" lon="14.9225567"><ele>51.0</ele><time>2026-05-02T04:37:51.491Z</time></trkpt><trkpt lat="40.6325083" lon="14.92221"><ele>50.0</ele><time>2026-05-02T04:37:52.491Z</time></trkpt><trkpt lat="40.632625" lon="14.9218583"><ele>50.5</ele><time>2026-05-02T04:37:53.491Z</time></trkpt><trkpt lat="40.6327383" lon="14.9215117"><ele>51.0</ele><time>2026-05-02T04:37:54.491Z</time></trkpt><trkpt lat="40.632855" lon="14.92116"><ele>50.0</ele><time>2026-05-02T04:37:55.491Z</time></trkpt><trkpt lat="40.6329717" lon="14.9208067"><ele>49.0</ele><time>2026-05-02T04:37:56.491Z</time></trkpt><trkpt lat="40.6330833" lon="14.9204517"><ele>49.0</ele><time>2026-05-02T04:37:57.491Z</time></trkpt><trkpt lat="40.6331967" lon="14.920105"><ele>49.0</ele><time>2026-05-02T04:37:58.491Z</time></trkpt><trkpt lat="40.6333133" lon="14.9197517"><ele>48.5</ele><time>2026-05-02T04:37:59.491Z</time></trkpt><trkpt lat="40.6334283" lon="14.919405"><ele>48.0</ele><time>2026-05-02T04:38:00.491Z</time></trkpt><trkpt lat="40.6335417" lon="14.9190583"><ele>47.5</ele><time>2026-05-02T04:38:01.491Z</time></trkpt><trkpt lat="40.6336567" lon="14.9187083"><ele>47.0</ele><time>2026-05-02T04:38:02.491Z</time></trkpt><trkpt lat="40.63377" lon="14.9183583"><ele>46.0</ele><time>2026-05-02T04:38:03.491Z</time></trkpt><trkpt lat="40.6338867" lon="14.9180117"><ele>45.0</ele><time>2026-05-02T04:38:04.491Z</time></trkpt><trkpt lat="40.6340017" lon="14.9176617"><ele>44.5</ele><time>2026-05-02T04:38:05.491Z</time></trkpt><trkpt lat="40.63412" lon="14.9173183"><ele>44.0</ele><time>2026-05-02T04:38:06.491Z</time></trkpt><trkpt lat="40.6342333" lon="14.9169733"><ele>43.0</ele><time>2026-05-02T04:38:07.491Z</time></trkpt><trkpt lat="40.6343517" lon="14.9166267"><ele>42.0</ele><time>2026-05-02T04:38:08.491Z</time></trkpt><trkpt lat="40.634475" lon="14.9162783"><ele>42.0</ele><time>2026-05-02T04:38:09.491Z</time></trkpt><trkpt lat="40.634585" lon="14.9159333"><ele>42.0</ele><time>2026-05-02T04:38:10.492Z</time></trkpt><trkpt lat="40.6346983" lon="14.915585"><ele>42.0</ele><time>2026-05-02T04:38:11.491Z</time></trkpt><trkpt lat="40.634815" lon="14.9152417"><ele>42.0</ele><time>2026-05-02T04:38:12.491Z</time></trkpt><trkpt lat="40.6349217" lon="14.9148983"><ele>42.0</ele><time>2026-05-02T04:38:13.491Z</time></trkpt><trkpt lat="40.63503" lon="14.9145533"><ele>42.0</ele><time>2026-05-02T04:38:14.491Z</time></trkpt><trkpt lat="40.6351483" lon="14.91421"><ele>41.0</ele><time>2026-05-02T04:38:15.491Z</time></trkpt><trkpt lat="40.635265" lon="14.9138683"><ele>40.0</ele><time>2026-05-02T04:38:16.491Z</time></trkpt><trkpt lat="40.635375" lon="14.913515"><ele>39.0</ele><time>2026-05-02T04:38:17.491Z</time></trkpt><trkpt lat="40.63549" lon="14.9131717"><ele>38.0</ele><time>2026-05-02T04:38:18.491Z</time></trkpt><trkpt lat="40.6356083" lon="14.9128283"><ele>38.5</ele><time>2026-05-02T04:38:19.491Z</time></trkpt><trkpt lat="40.6357233" lon="14.9124883"><ele>39.0</ele><time>2026-05-02T04:38:20.491Z</time></trkpt><trkpt lat="40.6358383" lon="14.912145"><ele>39.0</ele><time>2026-05-02T04:38:21.491Z</time></trkpt><trkpt lat="40.6359567" lon="14.9118"><ele>39.0</ele><time>2026-05-02T04:38:22.491Z</time></trkpt><trkpt lat="40.636075" lon="14.91146"><ele>39.0</ele><time>2026-05-02T04:38:23.491Z</time></trkpt><trkpt lat="40.6361917" lon="14.9111133"><ele>39.0</ele><time>2026-05-02T04:38:24.491Z</time></trkpt><trkpt lat="40.636305" lon="14.9107683"><ele>38.0</ele><time>2026-05-02T04:38:25.491Z</time></trkpt><trkpt lat="40.6364183" lon="14.9104233"><ele>37.0</ele><time>2026-05-02T04:38:26.491Z</time></trkpt><trkpt lat="40.63654" lon="14.91008"><ele>36.5</ele><time>2026-05-02T04:38:27.491Z</time></trkpt><trkpt lat="40.63666" lon="14.9097333"><ele>36.0</ele><time>2026-05-02T04:38:28.492Z</time></trkpt><trkpt lat="40.6367833" lon="14.9093917"><ele>37.0</ele><time>2026-05-02T04:38:29.491Z</time></trkpt><trkpt lat="40.63691" lon="14.9090517"><ele>38.0</ele><time>2026-05-02T04:38:30.491Z</time></trkpt><trkpt lat="40.63703" lon="14.90871"><ele>39.0</ele><time>2026-05-02T04:38:31.491Z</time></trkpt><trkpt lat="40.637155" lon="14.9083683"><ele>40.0</ele><time>2026-05-02T04:38:32.491Z</time></trkpt><trkpt lat="40.6372817" lon="14.9080333"><ele>40.0</ele><time>2026-05-02T04:38:33.492Z</time></trkpt><trkpt lat="40.63741" lon="14.9076933"><ele>40.0</ele><time>2026-05-02T04:38:34.491Z</time></trkpt><trkpt lat="40.6375367" lon="14.90736"><ele>40.0</ele><time>2026-05-02T04:38:35.491Z</time></trkpt><trkpt lat="40.6376767" lon="14.9070333"><ele>40.0</ele><time>2026-05-02T04:38:36.491Z</time></trkpt><trkpt lat="40.637825" lon="14.906705"><ele>40.0</ele><time>2026-05-02T04:38:37.491Z</time></trkpt><trkpt lat="40.6379683" lon="14.9063767"><ele>40.0</ele><time>2026-05-02T04:38:38.491Z</time></trkpt><trkpt lat="40.6381117" lon="14.9060533"><ele>39.5</ele><time>2026-05-02T04:38:39.492Z</time></trkpt><trkpt lat="40.638255" lon="14.9057333"><ele>39.0</ele><time>2026-05-02T04:38:40.491Z</time></trkpt><trkpt lat="40.6384" lon="14.90541"><ele>39.0</ele><time>2026-05-02T04:38:41.491Z</time></trkpt><trkpt lat="40.638545" lon="14.9050833"><ele>39.0</ele><time>2026-05-02T04:38:42.491Z</time></trkpt><trkpt lat="40.6386883" lon="14.9047567"><ele>39.0</ele><time>2026-05-02T04:38:43.491Z</time></trkpt><trkpt lat="40.6388283" lon="14.9044317"><ele>39.0</ele><time>2026-05-02T04:38:44.491Z</time></trkpt><trkpt lat="40.638975" lon="14.9041067"><ele>39.0</ele><time>2026-05-02T04:38:45.491Z</time></trkpt><trkpt lat="40.6391217" lon="14.9037833"><ele>39.0</ele><time>2026-05-02T04:38:46.491Z</time></trkpt><trkpt lat="40.6392633" lon="14.9034567"><ele>39.5</ele><time>2026-05-02T04:38:47.491Z</time></trkpt><trkpt lat="40.63941" lon="14.9031317"><ele>40.0</ele><time>2026-05-02T04:38:48.491Z</time></trkpt><trkpt lat="40.63956" lon="14.9028117"><ele>40.0</ele><time>2026-05-02T04:38:49.491Z</time></trkpt><trkpt lat="40.6397117" lon="14.9024933"><ele>40.0</ele><time>2026-05-02T04:38:50.491Z</time></trkpt><trkpt lat="40.639855" lon="14.9021783"><ele>40.0</ele><time>2026-05-02T04:38:51.492Z</time></trkpt><trkpt lat="40.6399933" lon="14.9018583"><ele>40.0</ele><time>2026-05-02T04:38:52.491Z</time></trkpt><trkpt lat="40.6401383" lon="14.9015417"><ele>40.0</ele><time>2026-05-02T04:38:53.491Z</time></trkpt><trkpt lat="40.6402833" lon="14.90122"><ele>40.0</ele><time>2026-05-02T04:38:54.492Z</time></trkpt><trkpt lat="40.6404317" lon="14.9009"><ele>40.0</ele><time>2026-05-02T04:38:55.491Z</time></trkpt><trkpt lat="40.6405767" lon="14.9005767"><ele>40.0</ele><time>2026-05-02T04:38:56.491Z</time></trkpt><trkpt lat="40.6407233" lon="14.90025"><ele>39.5</ele><time>2026-05-02T04:38:57.491Z</time></trkpt><trkpt lat="40.6408717" lon="14.8999233"><ele>39.0</ele><time>2026-05-02T04:38:58.491Z</time></trkpt><trkpt lat="40.641025" lon="14.8995967"><ele>39.0</ele><time>2026-05-02T04:38:59.491Z</time></trkpt><trkpt lat="40.6411717" lon="14.8992733"><ele>39.0</ele><time>2026-05-02T04:39:00.491Z</time></trkpt><trkpt lat="40.6413233" lon="14.8989467"><ele>38.5</ele><time>2026-05-02T04:39:01.492Z</time></trkpt><trkpt lat="40.6414767" lon="14.8986183"><ele>38.0</ele><time>2026-05-02T04:39:02.491Z</time></trkpt><trkpt lat="40.64163" lon="14.89829"><ele>37.5</ele><time>2026-05-02T04:39:03.491Z</time></trkpt><trkpt lat="40.64178" lon="14.8979633"><ele>37.0</ele><time>2026-05-02T04:39:04.491Z</time></trkpt><trkpt lat="40.6419317" lon="14.8976333"><ele>38.0</ele><time>2026-05-02T04:39:05.492Z</time></trkpt><trkpt lat="40.64208" lon="14.8973033"><ele>39.0</ele><time>2026-05-02T04:39:06.492Z</time></trkpt><trkpt lat="40.64223" lon="14.89697"><ele>39.0</ele><time>2026-05-02T04:39:07.493Z</time></trkpt><trkpt lat="40.64238" lon="14.89664"><ele>39.0</ele><time>2026-05-02T04:39:08.492Z</time></trkpt><trkpt lat="40.6425267" lon="14.8963167"><ele>39.0</ele><time>2026-05-02T04:39:09.492Z</time></trkpt><trkpt lat="40.6426733" lon="14.8959867"><ele>39.0</ele><time>2026-05-02T04:39:10.492Z</time></trkpt><trkpt lat="40.6428283" lon="14.8956517"><ele>40.0</ele><time>2026-05-02T04:39:11.492Z</time></trkpt><trkpt lat="40.6429833" lon="14.8953217"><ele>41.0</ele><time>2026-05-02T04:39:12.493Z</time></trkpt><trkpt lat="40.6431367" lon="14.8949917"><ele>41.0</ele><time>2026-05-02T04:39:13.492Z</time></trkpt><trkpt lat="40.6432817" lon="14.894665"><ele>41.0</ele><time>2026-05-02T04:39:14.492Z</time></trkpt><trkpt lat="40.643425" lon="14.894335"><ele>41.0</ele><time>2026-05-02T04:39:15.492Z</time></trkpt><trkpt lat="40.6435717" lon="14.8940017"><ele>41.0</ele><time>2026-05-02T04:39:16.492Z</time></trkpt><trkpt lat="40.6437233" lon="14.8936767"><ele>42.0</ele><time>2026-05-02T04:39:17.492Z</time></trkpt><trkpt lat="40.6438733" lon="14.8933417"><ele>43.0</ele><time>2026-05-02T04:39:18.492Z</time></trkpt><trkpt lat="40.644025" lon="14.8930067"><ele>43.0</ele><time>2026-05-02T04:39:19.492Z</time></trkpt><trkpt lat="40.6441683" lon="14.8926783"><ele>43.0</ele><time>2026-05-02T04:39:20.492Z</time></trkpt><trkpt lat="40.644315" lon="14.8923517"><ele>44.5</ele><time>2026-05-02T04:39:21.492Z</time></trkpt><trkpt lat="40.6444667" lon="14.8920167"><ele>46.0</ele><time>2026-05-02T04:39:22.493Z</time></trkpt><trkpt lat="40.6446083" lon="14.891685"><ele>46.0</ele><time>2026-05-02T04:39:23.492Z</time></trkpt><trkpt lat="40.6447517" lon="14.891355"><ele>46.0</ele><time>2026-05-02T04:39:24.492Z</time></trkpt><trkpt lat="40.6449" lon="14.8910233"><ele>45.0</ele><time>2026-05-02T04:39:25.492Z</time></trkpt><trkpt lat="40.64505" lon="14.89069"><ele>44.0</ele><time>2026-05-02T04:39:26.492Z</time></trkpt><trkpt lat="40.6451967" lon="14.8903583"><ele>45.5</ele><time>2026-05-02T04:39:27.493Z</time></trkpt><trkpt lat="40.6453467" lon="14.8900233"><ele>47.0</ele><time>2026-05-02T04:39:28.492Z</time></trkpt><trkpt lat="40.6454967" lon="14.8896933"><ele>47.0</ele><time>2026-05-02T04:39:29.492Z</time></trkpt><trkpt lat="40.6456433" lon="14.889365"><ele>47.0</ele><time>2026-05-02T04:39:30.492Z</time></trkpt><trkpt lat="40.6457917" lon="14.8890317"><ele>46.5</ele><time>2026-05-02T04:39:31.492Z</time></trkpt><trkpt lat="40.6459383" lon="14.888695"><ele>46.0</ele><time>2026-05-02T04:39:32.492Z</time></trkpt><trkpt lat="40.6460833" lon="14.88836"><ele>45.5</ele><time>2026-05-02T04:39:33.492Z</time></trkpt><trkpt lat="40.6462367" lon="14.8880317"><ele>45.0</ele><time>2026-05-02T04:39:34.493Z</time></trkpt><trkpt lat="40.6463883" lon="14.8876967"><ele>44.0</ele><time>2026-05-02T04:39:35.492Z</time></trkpt><trkpt lat="40.646535" lon="14.8873617"><ele>43.0</ele><time>2026-05-02T04:39:36.492Z</time></trkpt><trkpt lat="40.6466783" lon="14.88703"><ele>43.0</ele><time>2026-05-02T04:39:37.493Z</time></trkpt><trkpt lat="40.6468217" lon="14.8866983"><ele>43.0</ele><time>2026-05-02T04:39:38.492Z</time></trkpt><trkpt lat="40.64697" lon="14.8863667"><ele>43.5</ele><time>2026-05-02T04:39:39.492Z</time></trkpt><trkpt lat="40.6471167" lon="14.8860383"><ele>44.0</ele><time>2026-05-02T04:39:40.492Z</time></trkpt><trkpt lat="40.6472667" lon="14.8857083"><ele>44.0</ele><time>2026-05-02T04:39:41.492Z</time></trkpt><trkpt lat="40.647415" lon="14.8853783"><ele>44.0</ele><time>2026-05-02T04:39:42.492Z</time></trkpt><trkpt lat="40.6475633" lon="14.8850517"><ele>43.5</ele><time>2026-05-02T04:39:43.492Z</time></trkpt><trkpt lat="40.64771" lon="14.8847167"><ele>43.0</ele><time>2026-05-02T04:39:44.492Z</time></trkpt><trkpt lat="40.6478533" lon="14.884385"><ele>42.5</ele><time>2026-05-02T04:39:45.492Z</time></trkpt><trkpt lat="40.6480033" lon="14.884055"><ele>42.0</ele><time>2026-05-02T04:39:46.492Z</time></trkpt><trkpt lat="40.6481533" lon="14.88372"><ele>41.5</ele><time>2026-05-02T04:39:47.492Z</time></trkpt><trkpt lat="40.6482933" lon="14.883395"><ele>41.0</ele><time>2026-05-02T04:39:48.492Z</time></trkpt><trkpt lat="40.64844" lon="14.88306"><ele>41.0</ele><time>2026-05-02T04:39:49.492Z</time></trkpt><trkpt lat="40.6485867" lon="14.882725"><ele>41.0</ele><time>2026-05-02T04:39:50.493Z</time></trkpt><trkpt lat="40.6487317" lon="14.8823917"><ele>41.0</ele><time>2026-05-02T04:39:51.492Z</time></trkpt><trkpt lat="40.6488783" lon="14.882055"><ele>41.0</ele><time>2026-05-02T04:39:52.492Z</time></trkpt><trkpt lat="40.649025" lon="14.8817183"><ele>40.5</ele><time>2026-05-02T04:39:53.492Z</time></trkpt><trkpt lat="40.6491733" lon="14.8813867"><ele>40.0</ele><time>2026-05-02T04:39:54.492Z</time></trkpt><trkpt lat="40.6493183" lon="14.8810533"><ele>40.0</ele><time>2026-05-02T04:39:55.492Z</time></trkpt><trkpt lat="40.6494617" lon="14.8807167"><ele>40.0</ele><time>2026-05-02T04:39:56.492Z</time></trkpt><trkpt lat="40.6496067" lon="14.8803783"><ele>39.0</ele><time>2026-05-02T04:39:57.492Z</time></trkpt><trkpt lat="40.649755" lon="14.880045"><ele>38.0</ele><time>2026-05-02T04:39:58.492Z</time></trkpt><trkpt lat="40.64991" lon="14.8797083"><ele>38.0</ele><time>2026-05-02T04:39:59.492Z</time></trkpt><trkpt lat="40.6500517" lon="14.8793717"><ele>38.0</ele><time>2026-05-02T04:40:00.492Z</time></trkpt><trkpt lat="40.650205" lon="14.87903"><ele>38.5</ele><time>2026-05-02T04:40:01.492Z</time></trkpt><trkpt lat="40.6503567" lon="14.8786967"><ele>39.0</ele><time>2026-05-02T04:40:02.492Z</time></trkpt><trkpt lat="40.650515" lon="14.87836"><ele>37.5</ele><time>2026-05-02T04:40:03.492Z</time></trkpt><trkpt lat="40.6506633" lon="14.878015"><ele>36.0</ele><time>2026-05-02T04:40:04.493Z</time></trkpt><trkpt lat="40.6508183" lon="14.8776733"><ele>35.5</ele><time>2026-05-02T04:40:05.492Z</time></trkpt><trkpt lat="40.6509717" lon="14.877335"><ele>35.0</ele><time>2026-05-02T04:40:06.493Z</time></trkpt><trkpt lat="40.6511217" lon="14.8769967"><ele>35.5</ele><time>2026-05-02T04:40:07.492Z</time></trkpt><trkpt lat="40.651275" lon="14.8766567"><ele>36.0</ele><time>2026-05-02T04:40:08.492Z</time></trkpt><trkpt lat="40.6514233" lon="14.87632"><ele>36.0</ele><time>2026-05-02T04:40:09.492Z</time></trkpt><trkpt lat="40.651575" lon="14.8759867"><ele>36.0</ele><time>2026-05-02T04:40:10.492Z</time></trkpt><trkpt lat="40.6517233" lon="14.875655"><ele>36.0</ele><time>2026-05-02T04:40:11.492Z</time></trkpt><trkpt lat="40.651875" lon="14.8753167"><ele>36.0</ele><time>2026-05-02T04:40:12.492Z</time></trkpt><trkpt lat="40.6520233" lon="14.874985"><ele>35.0</ele><time>2026-05-02T04:40:13.492Z</time></trkpt><trkpt lat="40.6521717" lon="14.87465"><ele>34.0</ele><time>2026-05-02T04:40:14.492Z</time></trkpt><trkpt lat="40.6523117" lon="14.87432"><ele>32.5</ele><time>2026-05-02T04:40:15.492Z</time></trkpt><trkpt lat="40.65245" lon="14.87399"><ele>31.0</ele><time>2026-05-02T04:40:16.492Z</time></trkpt><trkpt lat="40.6525967" lon="14.8736617"><ele>31.0</ele><time>2026-05-02T04:40:17.492Z</time></trkpt><trkpt lat="40.6527433" lon="14.8733333"><ele>31.0</ele><time>2026-05-02T04:40:18.492Z</time></trkpt><trkpt lat="40.6528883" lon="14.8730067"><ele>31.0</ele><time>2026-05-02T04:40:19.492Z</time></trkpt><trkpt lat="40.65303" lon="14.8726767"><ele>31.0</ele><time>2026-05-02T04:40:20.492Z</time></trkpt><trkpt lat="40.6531667" lon="14.8723483"><ele>31.0</ele><time>2026-05-02T04:40:21.492Z</time></trkpt><trkpt lat="40.6533" lon="14.8720167"><ele>31.0</ele><time>2026-05-02T04:40:22.492Z</time></trkpt><trkpt lat="40.65343" lon="14.8716917"><ele>31.5</ele><time>2026-05-02T04:40:23.492Z</time></trkpt><trkpt lat="40.6535633" lon="14.8713633"><ele>32.0</ele><time>2026-05-02T04:40:24.492Z</time></trkpt><trkpt lat="40.6537017" lon="14.8710267"><ele>34.5</ele><time>2026-05-02T04:40:25.492Z</time></trkpt><trkpt lat="40.65383" lon="14.8707033"><ele>37.0</ele><time>2026-05-02T04:40:26.492Z</time></trkpt><trkpt lat="40.6539617" lon="14.8703783"><ele>38.5</ele><time>2026-05-02T04:40:27.492Z</time></trkpt><trkpt lat="40.6541017" lon="14.87005"><ele>40.0</ele><time>2026-05-02T04:40:28.492Z</time></trkpt><trkpt lat="40.6542317" lon="14.86972"><ele>40.0</ele><time>2026-05-02T04:40:29.492Z</time></trkpt><trkpt lat="40.6543633" lon="14.8693933"><ele>40.0</ele><time>2026-05-02T04:40:30.492Z</time></trkpt><trkpt lat="40.6544983" lon="14.869065"><ele>41.5</ele><time>2026-05-02T04:40:31.492Z</time></trkpt><trkpt lat="40.6546283" lon="14.868745"><ele>43.0</ele><time>2026-05-02T04:40:32.492Z</time></trkpt><trkpt lat="40.6547617" lon="14.8684083"><ele>43.0</ele><time>2026-05-02T04:40:33.492Z</time></trkpt><trkpt lat="40.6548967" lon="14.8680767"><ele>43.0</ele><time>2026-05-02T04:40:34.492Z</time></trkpt><trkpt lat="40.6550333" lon="14.8677483"><ele>43.0</ele><time>2026-05-02T04:40:35.492Z</time></trkpt><trkpt lat="40.6551667" lon="14.86742"><ele>43.0</ele><time>2026-05-02T04:40:36.492Z</time></trkpt><trkpt lat="40.6553017" lon="14.8670933"><ele>45.5</ele><time>2026-05-02T04:40:37.492Z</time></trkpt><trkpt lat="40.655435" lon="14.8667683"><ele>48.0</ele><time>2026-05-02T04:40:38.492Z</time></trkpt><trkpt lat="40.6555667" lon="14.8664417"><ele>48.0</ele><time>2026-05-02T04:40:39.492Z</time></trkpt><trkpt lat="40.6557033" lon="14.8661217"><ele>48.0</ele><time>2026-05-02T04:40:40.493Z</time></trkpt><trkpt lat="40.6558417" lon="14.8658067"><ele>47.0</ele><time>2026-05-02T04:40:41.492Z</time></trkpt><trkpt lat="40.6559867" lon="14.8655"><ele>46.0</ele><time>2026-05-02T04:40:42.492Z</time></trkpt><trkpt lat="40.6561417" lon="14.8652017"><ele>46.5</ele><time>2026-05-02T04:40:43.492Z</time></trkpt><trkpt lat="40.6563033" lon="14.86491"><ele>47.0</ele><time>2026-05-02T04:40:44.492Z</time></trkpt><trkpt lat="40.6564717" lon="14.8646267"><ele>47.0</ele><time>2026-05-02T04:40:45.492Z</time></trkpt><trkpt lat="40.6566533" lon="14.8643483"><ele>47.0</ele><time>2026-05-02T04:40:46.492Z</time></trkpt><trkpt lat="40.6568417" lon="14.8640833"><ele>46.5</ele><time>2026-05-02T04:40:47.492Z</time></trkpt><trkpt lat="40.6570333" lon="14.8638267"><ele>46.0</ele><time>2026-05-02T04:40:48.492Z</time></trkpt><trkpt lat="40.6572267" lon="14.8635767"><ele>47.5</ele><time>2026-05-02T04:40:49.492Z</time></trkpt><trkpt lat="40.6574233" lon="14.8633317"><ele>49.0</ele><time>2026-05-02T04:40:50.492Z</time></trkpt><trkpt lat="40.6576267" lon="14.8630967"><ele>48.5</ele><time>2026-05-02T04:40:51.492Z</time></trkpt><trkpt lat="40.6578367" lon="14.86287"><ele>48.0</ele><time>2026-05-02T04:40:52.492Z</time></trkpt><trkpt lat="40.6580483" lon="14.86265"><ele>50.0</ele><time>2026-05-02T04:40:53.492Z</time></trkpt><trkpt lat="40.658265" lon="14.8624333"><ele>52.0</ele><time>2026-05-02T04:40:54.492Z</time></trkpt><trkpt lat="40.6584883" lon="14.86223"><ele>54.5</ele><time>2026-05-02T04:40:55.492Z</time></trkpt><trkpt lat="40.658715" lon="14.8620267"><ele>57.0</ele><time>2026-05-02T04:40:56.493Z</time></trkpt><trkpt lat="40.6589433" lon="14.8618317"><ele>57.0</ele><time>2026-05-02T04:40:57.492Z</time></trkpt><trkpt lat="40.6591717" lon="14.8616367"><ele>57.0</ele><time>2026-05-02T04:40:58.492Z</time></trkpt><trkpt lat="40.659405" lon="14.8614417"><ele>62.5</ele><time>2026-05-02T04:40:59.492Z</time></trkpt><trkpt lat="40.6596383" lon="14.8612533"><ele>68.0</ele><time>2026-05-02T04:41:00.492Z</time></trkpt><trkpt lat="40.6598683" lon="14.8610667"><ele>69.0</ele><time>2026-05-02T04:41:01.492Z</time></trkpt><trkpt lat="40.6600983" lon="14.86088"><ele>70.0</ele><time>2026-05-02T04:41:02.492Z</time></trkpt><trkpt lat="40.66033" lon="14.8606983"><ele>70.0</ele><time>2026-05-02T04:41:03.492Z</time></trkpt><trkpt lat="40.660565" lon="14.8605233"><ele>70.0</ele><time>2026-05-02T04:41:04.492Z</time></trkpt><trkpt lat="40.6608017" lon="14.860355"><ele>70.0</ele><time>2026-05-02T04:41:05.492Z</time></trkpt><trkpt lat="40.6610483" lon="14.8601933"><ele>70.0</ele><time>2026-05-02T04:41:06.492Z</time></trkpt><trkpt lat="40.6612933" lon="14.8600333"><ele>70.0</ele><time>2026-05-02T04:41:07.492Z</time></trkpt><trkpt lat="40.6615483" lon="14.8598817"><ele>70.0</ele><time>2026-05-02T04:41:08.492Z</time></trkpt><trkpt lat="40.6618" lon="14.8597467"><ele>74.5</ele><time>2026-05-02T04:41:09.492Z</time></trkpt><trkpt lat="40.6620517" lon="14.85961"><ele>79.0</ele><time>2026-05-02T04:41:10.492Z</time></trkpt><trkpt lat="40.6623117" lon="14.85949"><ele>79.0</ele><time>2026-05-02T04:41:11.492Z</time></trkpt><trkpt lat="40.6625733" lon="14.8593783"><ele>79.0</ele><time>2026-05-02T04:41:12.492Z</time></trkpt><trkpt lat="40.6628383" lon="14.8592833"><ele>86.0</ele><time>2026-05-02T04:41:13.492Z</time></trkpt><trkpt lat="40.6631067" lon="14.8591917"><ele>93.0</ele><time>2026-05-02T04:41:14.492Z</time></trkpt><trkpt lat="40.6633733" lon="14.8591033"><ele>112.0</ele><time>2026-05-02T04:41:15.492Z</time></trkpt><trkpt lat="40.66364" lon="14.8590133"><ele>131.0</ele><time>2026-05-02T04:41:16.492Z</time></trkpt><trkpt lat="40.6639067" lon="14.85893"><ele>112.0</ele><time>2026-05-02T04:41:17.492Z</time></trkpt><trkpt lat="40.6701217" lon="14.8583483"><ele>126.0</ele><time>2026-05-02T04:41:39.49Z</time></trkpt><trkpt lat="40.6704067" lon="14.8583217"><ele>140.0</ele><time>2026-05-02T04:41:40.49Z</time></trkpt><trkpt lat="40.6706983" lon="14.858305"><ele>140.0</ele><time>2026-05-02T04:41:41.49Z</time></trkpt><trkpt lat="40.67099" lon="14.858285"><ele>140.0</ele><time>2026-05-02T04:41:42.49Z</time></trkpt><trkpt lat="40.6781683" lon="14.8576217"><ele>128.5</ele><time>2026-05-02T04:42:06.489Z</time></trkpt><trkpt lat="40.6784617" lon="14.857585"><ele>117.0</ele><time>2026-05-02T04:42:07.489Z</time></trkpt><trkpt lat="40.6787617" lon="14.857545"><ele>115.5</ele><time>2026-05-02T04:42:08.489Z</time></trkpt><trkpt lat="40.6790583" lon="14.8574967"><ele>114.0</ele><time>2026-05-02T04:42:09.49Z</time></trkpt><trkpt lat="40.679345" lon="14.8574483"><ele>114.0</ele><time>2026-05-02T04:42:10.489Z</time></trkpt><trkpt lat="40.6796317" lon="14.85739"><ele>114.0</ele><time>2026-05-02T04:42:11.489Z</time></trkpt><trkpt lat="40.679915" lon="14.8573217"><ele>114.0</ele><time>2026-05-02T04:42:12.49Z</time></trkpt><trkpt lat="40.680195" lon="14.8572483"><ele>114.0</ele><time>2026-05-02T04:42:13.489Z</time></trkpt><trkpt lat="40.6804767" lon="14.8571567"><ele>114.0</ele><time>2026-05-02T04:42:14.489Z</time></trkpt><trkpt lat="40.68075" lon="14.857055"><ele>114.0</ele><time>2026-05-02T04:42:15.489Z</time></trkpt><trkpt lat="40.68102" lon="14.8569483"><ele>114.5</ele><time>2026-05-02T04:42:16.489Z</time></trkpt><trkpt lat="40.6812867" lon="14.85683"><ele>115.0</ele><time>2026-05-02T04:42:17.489Z</time></trkpt><trkpt lat="40.6815483" lon="14.8566983"><ele>115.0</ele><time>2026-05-02T04:42:18.489Z</time></trkpt><trkpt lat="40.6818017" lon="14.8565567"><ele>115.0</ele><time>2026-05-02T04:42:19.489Z</time></trkpt><trkpt lat="40.6820533" lon="14.8564033"><ele>115.5</ele><time>2026-05-02T04:42:20.489Z</time></trkpt><trkpt lat="40.682295" lon="14.85624"><ele>116.0</ele><time>2026-05-02T04:42:21.489Z</time></trkpt><trkpt lat="40.68253" lon="14.85606"><ele>114.5</ele><time>2026-05-02T04:42:22.489Z</time></trkpt><trkpt lat="40.682765" lon="14.8558733"><ele>113.0</ele><time>2026-05-02T04:42:23.489Z</time></trkpt><trkpt lat="40.6829833" lon="14.85568"><ele>113.0</ele><time>2026-05-02T04:42:24.489Z</time></trkpt><trkpt lat="40.6832067" lon="14.8554767"><ele>113.0</ele><time>2026-05-02T04:42:25.489Z</time></trkpt><trkpt lat="40.6834283" lon="14.8552567"><ele>113.0</ele><time>2026-05-02T04:42:26.49Z</time></trkpt><trkpt lat="40.68364" lon="14.8550267"><ele>113.0</ele><time>2026-05-02T04:42:27.489Z</time></trkpt><trkpt lat="40.6838467" lon="14.8547933"><ele>113.0</ele><time>2026-05-02T04:42:28.489Z</time></trkpt><trkpt lat="40.68404" lon="14.8545433"><ele>113.0</ele><time>2026-05-02T04:42:29.489Z</time></trkpt><trkpt lat="40.6842283" lon="14.8542883"><ele>113.0</ele><time>2026-05-02T04:42:30.489Z</time></trkpt><trkpt lat="40.6844067" lon="14.8540217"><ele>113.0</ele><time>2026-05-02T04:42:31.489Z</time></trkpt><trkpt lat="40.684585" lon="14.8537517"><ele>114.0</ele><time>2026-05-02T04:42:32.489Z</time></trkpt><trkpt lat="40.684755" lon="14.8534683"><ele>115.0</ele><time>2026-05-02T04:42:33.489Z</time></trkpt><trkpt lat="40.684915" lon="14.85318"><ele>115.0</ele><time>2026-05-02T04:42:34.489Z</time></trkpt><trkpt lat="40.6850683" lon="14.85288"><ele>115.0</ele><time>2026-05-02T04:42:35.489Z</time></trkpt><trkpt lat="40.6852167" lon="14.8525767"><ele>115.5</ele><time>2026-05-02T04:42:36.49Z</time></trkpt><trkpt lat="40.68535" lon="14.8522683"><ele>116.0</ele><time>2026-05-02T04:42:37.489Z</time></trkpt><trkpt lat="40.685475" lon="14.8519567"><ele>114.0</ele><time>2026-05-02T04:42:38.489Z</time></trkpt><trkpt lat="40.6855967" lon="14.8516433"><ele>112.0</ele><time>2026-05-02T04:42:39.489Z</time></trkpt><trkpt lat="40.6857167" lon="14.851325"><ele>112.0</ele><time>2026-05-02T04:42:40.489Z</time></trkpt><trkpt lat="40.6858283" lon="14.851"><ele>112.0</ele><time>2026-05-02T04:42:41.489Z</time></trkpt><trkpt lat="40.6859367" lon="14.8506717"><ele>112.0</ele><time>2026-05-02T04:42:42.489Z</time></trkpt><trkpt lat="40.6860367" lon="14.85034"><ele>112.0</ele><time>2026-05-02T04:42:43.489Z</time></trkpt><trkpt lat="40.68614" lon="14.85"><ele>112.0</ele><time>2026-05-02T04:42:44.49Z</time></trkpt><trkpt lat="40.6862317" lon="14.8496667"><ele>112.0</ele><time>2026-05-02T04:42:45.489Z</time></trkpt><trkpt lat="40.6863217" lon="14.849325"><ele>111.5</ele><time>2026-05-02T04:42:46.489Z</time></trkpt><trkpt lat="40.6864083" lon="14.8489883"><ele>111.0</ele><time>2026-05-02T04:42:47.489Z</time></trkpt><trkpt lat="40.6864933" lon="14.8486533"><ele>111.5</ele><time>2026-05-02T04:42:48.489Z</time></trkpt><trkpt lat="40.6865767" lon="14.8483117"><ele>112.0</ele><time>2026-05-02T04:42:49.489Z</time></trkpt><trkpt lat="40.686665" lon="14.84797"><ele>112.0</ele><time>2026-05-02T04:42:50.489Z</time></trkpt><trkpt lat="40.6867433" lon="14.8476367"><ele>112.0</ele><time>2026-05-02T04:42:51.49Z</time></trkpt><trkpt lat="40.6868333" lon="14.8472933"><ele>115.5</ele><time>2026-05-02T04:42:52.489Z</time></trkpt><trkpt lat="40.686915" lon="14.8469483"><ele>119.0</ele><time>2026-05-02T04:42:53.49Z</time></trkpt><trkpt lat="40.6870033" lon="14.8466067"><ele>120.5</ele><time>2026-05-02T04:42:54.489Z</time></trkpt><trkpt lat="40.68709" lon="14.846265"><ele>122.0</ele><time>2026-05-02T04:42:55.489Z</time></trkpt><trkpt lat="40.6871767" lon="14.8459167"><ele>123.0</ele><time>2026-05-02T04:42:56.49Z</time></trkpt><trkpt lat="40.6872683" lon="14.8455733"><ele>124.0</ele><time>2026-05-02T04:42:57.489Z</time></trkpt><trkpt lat="40.6873583" lon="14.8452267"><ele>125.0</ele><time>2026-05-02T04:42:58.489Z</time></trkpt><trkpt lat="40.6874583" lon="14.8448783"><ele>126.0</ele><time>2026-05-02T04:42:59.489Z</time></trkpt><trkpt lat="40.6875567" lon="14.844535"><ele>126.5</ele><time>2026-05-02T04:43:00.489Z</time></trkpt><trkpt lat="40.6876533" lon="14.844185"><ele>127.0</ele><time>2026-05-02T04:43:01.489Z</time></trkpt><trkpt lat="40.6877533" lon="14.843835"><ele>127.5</ele><time>2026-05-02T04:43:02.489Z</time></trkpt><trkpt lat="40.68786" lon="14.8434883"><ele>128.0</ele><time>2026-05-02T04:43:03.489Z</time></trkpt><trkpt lat="40.68796" lon="14.8431417"><ele>128.5</ele><time>2026-05-02T04:43:04.489Z</time></trkpt><trkpt lat="40.6880717" lon="14.8428"><ele>129.0</ele><time>2026-05-02T04:43:05.489Z</time></trkpt><trkpt lat="40.6881867" lon="14.8424617"><ele>129.5</ele><time>2026-05-02T04:43:06.489Z</time></trkpt><trkpt lat="40.6883017" lon="14.8421333"><ele>130.0</ele><time>2026-05-02T04:43:07.489Z</time></trkpt><trkpt lat="40.6884267" lon="14.8418017"><ele>130.5</ele><time>2026-05-02T04:43:08.489Z</time></trkpt><trkpt lat="40.6885583" lon="14.8414767"><ele>131.0</ele><time>2026-05-02T04:43:09.489Z</time></trkpt><trkpt lat="40.6886867" lon="14.8411517"><ele>134.0</ele><time>2026-05-02T04:43:10.489Z</time></trkpt><trkpt lat="40.68882" lon="14.8408333"><ele>137.0</ele><time>2026-05-02T04:43:11.489Z</time></trkpt><trkpt lat="40.688955" lon="14.8405217"><ele>137.0</ele><time>2026-05-02T04:43:12.489Z</time></trkpt><trkpt lat="40.6891017" lon="14.84021"><ele>137.0</ele><time>2026-05-02T04:43:13.489Z</time></trkpt><trkpt lat="40.6892533" lon="14.839895"><ele>137.5</ele><time>2026-05-02T04:43:14.489Z</time></trkpt><trkpt lat="40.6894017" lon="14.8395883"><ele>138.0</ele><time>2026-05-02T04:43:15.489Z</time></trkpt><trkpt lat="40.6895567" lon="14.8392933"><ele>140.0</ele><time>2026-05-02T04:43:16.489Z</time></trkpt><trkpt lat="40.6897167" lon="14.839"><ele>142.0</ele><time>2026-05-02T04:43:17.489Z</time></trkpt><trkpt lat="40.6898783" lon="14.8387117"><ele>142.5</ele><time>2026-05-02T04:43:18.489Z</time></trkpt><trkpt lat="40.6900467" lon="14.83843"><ele>143.0</ele><time>2026-05-02T04:43:19.489Z</time></trkpt><trkpt lat="40.6902183" lon="14.8381517"><ele>145.0</ele><time>2026-05-02T04:43:20.489Z</time></trkpt><trkpt lat="40.6903933" lon="14.83788"><ele>147.0</ele><time>2026-05-02T04:43:21.489Z</time></trkpt><trkpt lat="40.69057" lon="14.83761"><ele>148.5</ele><time>2026-05-02T04:43:22.489Z</time></trkpt><trkpt lat="40.690745" lon="14.8373467"><ele>150.0</ele><time>2026-05-02T04:43:23.489Z</time></trkpt><trkpt lat="40.6909217" lon="14.8370917"><ele>150.0</ele><time>2026-05-02T04:43:24.489Z</time></trkpt><trkpt lat="40.6910933" lon="14.8368383"><ele>150.0</ele><time>2026-05-02T04:43:25.489Z</time></trkpt><trkpt lat="40.6912733" lon="14.83659"><ele>150.5</ele><time>2026-05-02T04:43:26.489Z</time></trkpt><trkpt lat="40.6914517" lon="14.836345"><ele>151.0</ele><time>2026-05-02T04:43:27.489Z</time></trkpt><trkpt lat="40.691635" lon="14.8361017"><ele>151.5</ele><time>2026-05-02T04:43:28.489Z</time></trkpt><trkpt lat="40.6918083" lon="14.8358633"><ele>152.0</ele><time>2026-05-02T04:43:29.489Z</time></trkpt><trkpt lat="40.6919833" lon="14.83563"><ele>153.5</ele><time>2026-05-02T04:43:30.489Z</time></trkpt><trkpt lat="40.6921633" lon="14.8353933"><ele>155.0</ele><time>2026-05-02T04:43:31.489Z</time></trkpt><trkpt lat="40.6923433" lon="14.8351633"><ele>155.5</ele><time>2026-05-02T04:43:32.489Z</time></trkpt><trkpt lat="40.6925183" lon="14.8349333"><ele>156.0</ele><time>2026-05-02T04:43:33.489Z</time></trkpt><trkpt lat="40.692695" lon="14.834705"><ele>157.0</ele><time>2026-05-02T04:43:34.489Z</time></trkpt><trkpt lat="40.69287" lon="14.8344767"><ele>158.0</ele><time>2026-05-02T04:43:35.489Z</time></trkpt><trkpt lat="40.6930517" lon="14.8342483"><ele>158.0</ele><time>2026-05-02T04:43:36.489Z</time></trkpt><trkpt lat="40.693225" lon="14.8340233"><ele>158.0</ele><time>2026-05-02T04:43:37.489Z</time></trkpt><trkpt lat="40.693395" lon="14.8337967"><ele>158.0</ele><time>2026-05-02T04:43:38.489Z</time></trkpt><trkpt lat="40.6935667" lon="14.83357"><ele>158.0</ele><time>2026-05-02T04:43:39.489Z</time></trkpt><trkpt lat="40.6937383" lon="14.8333333"><ele>161.0</ele><time>2026-05-02T04:43:40.489Z</time></trkpt><trkpt lat="40.6939117" lon="14.8331117"><ele>164.0</ele><time>2026-05-02T04:43:41.489Z</time></trkpt><trkpt lat="40.6940783" lon="14.8328883"><ele>164.0</ele><time>2026-05-02T04:43:42.489Z</time></trkpt><trkpt lat="40.69425" lon="14.8326533"><ele>164.0</ele><time>2026-05-02T04:43:43.49Z</time></trkpt><trkpt lat="40.69442" lon="14.8324233"><ele>165.0</ele><time>2026-05-02T04:43:44.49Z</time></trkpt><trkpt lat="40.694585" lon="14.8321883"><ele>166.0</ele><time>2026-05-02T04:43:45.49Z</time></trkpt><trkpt lat="40.69475" lon="14.8319483"><ele>166.0</ele><time>2026-05-02T04:43:46.49Z</time></trkpt><trkpt lat="40.6949183" lon="14.8317067"><ele>166.0</ele><time>2026-05-02T04:43:47.49Z</time></trkpt><trkpt lat="40.6950867" lon="14.8314667"><ele>166.0</ele><time>2026-05-02T04:43:48.49Z</time></trkpt><trkpt lat="40.69525" lon="14.8312233"><ele>166.0</ele><time>2026-05-02T04:43:49.49Z</time></trkpt><trkpt lat="40.6954083" lon="14.8309717"><ele>170.0</ele><time>2026-05-02T04:43:50.49Z</time></trkpt><trkpt lat="40.695565" lon="14.8307183"><ele>174.0</ele><time>2026-05-02T04:43:51.49Z</time></trkpt><trkpt lat="40.695715" lon="14.8304617"><ele>174.0</ele><time>2026-05-02T04:43:52.49Z</time></trkpt><trkpt lat="40.6958733" lon="14.8302"><ele>174.0</ele><time>2026-05-02T04:43:53.49Z</time></trkpt><trkpt lat="40.6960233" lon="14.82993"><ele>175.5</ele><time>2026-05-02T04:43:54.49Z</time></trkpt><trkpt lat="40.6961667" lon="14.8296567"><ele>177.0</ele><time>2026-05-02T04:43:55.49Z</time></trkpt><trkpt lat="40.6963083" lon="14.829375"><ele>178.0</ele><time>2026-05-02T04:43:56.49Z</time></trkpt><trkpt lat="40.6964517" lon="14.8290967"><ele>179.0</ele><time>2026-05-02T04:43:57.49Z</time></trkpt><trkpt lat="40.696595" lon="14.8288"><ele>179.0</ele><time>2026-05-02T04:43:58.49Z</time></trkpt><trkpt lat="40.69673" lon="14.8285033"><ele>179.0</ele><time>2026-05-02T04:43:59.49Z</time></trkpt><trkpt lat="40.6968617" lon="14.8282067"><ele>179.0</ele><time>2026-05-02T04:44:00.49Z</time></trkpt><trkpt lat="40.6969883" lon="14.8279083"><ele>179.0</ele><time>2026-05-02T04:44:01.49Z</time></trkpt><trkpt lat="40.6971133" lon="14.8276067"><ele>179.0</ele><time>2026-05-02T04:44:02.491Z</time></trkpt><trkpt lat="40.697235" lon="14.827295"><ele>179.0</ele><time>2026-05-02T04:44:03.49Z</time></trkpt><trkpt lat="40.69735" lon="14.8269867"><ele>177.5</ele><time>2026-05-02T04:44:04.49Z</time></trkpt><trkpt lat="40.6974617" lon="14.8266717"><ele>176.0</ele><time>2026-05-02T04:44:05.49Z</time></trkpt><trkpt lat="40.6975717" lon="14.8263483"><ele>176.0</ele><time>2026-05-02T04:44:06.49Z</time></trkpt><trkpt lat="40.697675" lon="14.8260217"><ele>176.0</ele><time>2026-05-02T04:44:07.49Z</time></trkpt><trkpt lat="40.6977767" lon="14.825695"><ele>175.5</ele><time>2026-05-02T04:44:08.491Z</time></trkpt><trkpt lat="40.697875" lon="14.82536"><ele>175.0</ele><time>2026-05-02T04:44:09.49Z</time></trkpt><trkpt lat="40.6979667" lon="14.8250267"><ele>175.0</ele><time>2026-05-02T04:44:10.49Z</time></trkpt><trkpt lat="40.69805" lon="14.8246933"><ele>175.0</ele><time>2026-05-02T04:44:11.491Z</time></trkpt><trkpt lat="40.6981267" lon="14.8243533"><ele>175.0</ele><time>2026-05-02T04:44:12.491Z</time></trkpt><trkpt lat="40.6982017" lon="14.8240067"><ele>175.0</ele><time>2026-05-02T04:44:13.49Z</time></trkpt><trkpt lat="40.69827" lon="14.823655"><ele>175.5</ele><time>2026-05-02T04:44:14.49Z</time></trkpt><trkpt lat="40.6983317" lon="14.8233033"><ele>176.0</ele><time>2026-05-02T04:44:15.49Z</time></trkpt><trkpt lat="40.698395" lon="14.8229467"><ele>176.5</ele><time>2026-05-02T04:44:16.49Z</time></trkpt><trkpt lat="40.69845" lon="14.8225917"><ele>177.0</ele><time>2026-05-02T04:44:17.49Z</time></trkpt><trkpt lat="40.6985017" lon="14.8222267"><ele>177.0</ele><time>2026-05-02T04:44:18.49Z</time></trkpt><trkpt lat="40.698555" lon="14.8218617"><ele>177.0</ele><time>2026-05-02T04:44:19.49Z</time></trkpt><trkpt lat="40.6986033" lon="14.8214983"><ele>177.5</ele><time>2026-05-02T04:44:20.491Z</time></trkpt><trkpt lat="40.698645" lon="14.821135"><ele>178.0</ele><time>2026-05-02T04:44:21.49Z</time></trkpt><trkpt lat="40.698685" lon="14.8207633"><ele>179.0</ele><time>2026-05-02T04:44:22.49Z</time></trkpt><trkpt lat="40.6987267" lon="14.8203917"><ele>180.0</ele><time>2026-05-02T04:44:23.49Z</time></trkpt><trkpt lat="40.6987633" lon="14.820015"><ele>180.5</ele><time>2026-05-02T04:44:24.49Z</time></trkpt><trkpt lat="40.698795" lon="14.819645"><ele>181.0</ele><time>2026-05-02T04:44:25.49Z</time></trkpt><trkpt lat="40.69883" lon="14.81927"><ele>182.0</ele><time>2026-05-02T04:44:26.49Z</time></trkpt><trkpt lat="40.6988683" lon="14.818895"><ele>183.0</ele><time>2026-05-02T04:44:27.49Z</time></trkpt><trkpt lat="40.6989117" lon="14.818515"><ele>184.5</ele><time>2026-05-02T04:44:28.49Z</time></trkpt><trkpt lat="40.6989467" lon="14.81814"><ele>186.0</ele><time>2026-05-02T04:44:29.49Z</time></trkpt><trkpt lat="40.6989833" lon="14.8177633"><ele>187.0</ele><time>2026-05-02T04:44:30.49Z</time></trkpt><trkpt lat="40.6990233" lon="14.8173817"><ele>188.0</ele><time>2026-05-02T04:44:31.49Z</time></trkpt><trkpt lat="40.69951" lon="14.8113617"><ele>182.0</ele><time>2026-05-02T04:44:47.489Z</time></trkpt><trkpt lat="40.6995167" lon="14.8109883"><ele>176.0</ele><time>2026-05-02T04:44:48.489Z</time></trkpt><trkpt lat="40.6994983" lon="14.8106167"><ele>176.0</ele><time>2026-05-02T04:44:49.489Z</time></trkpt><trkpt lat="40.6994867" lon="14.810255"><ele>176.0</ele><time>2026-05-02T04:44:50.489Z</time></trkpt><trkpt lat="40.6994733" lon="14.8098883"><ele>176.0</ele><time>2026-05-02T04:44:51.489Z</time></trkpt><trkpt lat="40.6994533" lon="14.80953"><ele>176.0</ele><time>2026-05-02T04:44:52.489Z</time></trkpt><trkpt lat="40.6994283" lon="14.8091667"><ele>172.0</ele><time>2026-05-02T04:44:53.489Z</time></trkpt><trkpt lat="40.6994017" lon="14.8088083"><ele>168.0</ele><time>2026-05-02T04:44:54.489Z</time></trkpt><trkpt lat="40.6993633" lon="14.8084567"><ele>164.0</ele><time>2026-05-02T04:44:55.489Z</time></trkpt><trkpt lat="40.6993167" lon="14.80811"><ele>160.0</ele><time>2026-05-02T04:44:56.489Z</time></trkpt><trkpt lat="40.6992633" lon="14.8077633"><ele>156.5</ele><time>2026-05-02T04:44:57.489Z</time></trkpt><trkpt lat="40.6992017" lon="14.8074183"><ele>153.0</ele><time>2026-05-02T04:44:58.489Z</time></trkpt><trkpt lat="40.6991417" lon="14.8070733"><ele>154.0</ele><time>2026-05-02T04:44:59.489Z</time></trkpt><trkpt lat="40.69908" lon="14.8067283"><ele>155.0</ele><time>2026-05-02T04:45:00.489Z</time></trkpt><trkpt lat="40.6990117" lon="14.806385"><ele>155.0</ele><time>2026-05-02T04:45:01.489Z</time></trkpt><trkpt lat="40.6989467" lon="14.8060417"><ele>155.0</ele><time>2026-05-02T04:45:02.489Z</time></trkpt><trkpt lat="40.6988717" lon="14.8057017"><ele>156.0</ele><time>2026-05-02T04:45:03.489Z</time></trkpt><trkpt lat="40.6987933" lon="14.80536"><ele>157.0</ele><time>2026-05-02T04:45:04.489Z</time></trkpt><trkpt lat="40.6987083" lon="14.80502"><ele>153.5</ele><time>2026-05-02T04:45:05.489Z</time></trkpt><trkpt lat="40.6986267" lon="14.8046733"><ele>150.0</ele><time>2026-05-02T04:45:06.489Z</time></trkpt><trkpt lat="40.6985417" lon="14.804335"><ele>144.0</ele><time>2026-05-02T04:45:07.489Z</time></trkpt><trkpt lat="40.6984633" lon="14.803995"><ele>138.0</ele><time>2026-05-02T04:45:08.489Z</time></trkpt><trkpt lat="40.698385" lon="14.8036583"><ele>139.5</ele><time>2026-05-02T04:45:09.489Z</time></trkpt><trkpt lat="40.698305" lon="14.8033233"><ele>141.0</ele><time>2026-05-02T04:45:10.489Z</time></trkpt><trkpt lat="40.69823" lon="14.80298"><ele>142.5</ele><time>2026-05-02T04:45:11.489Z</time></trkpt><trkpt lat="40.6981517" lon="14.802645"><ele>144.0</ele><time>2026-05-02T04:45:12.489Z</time></trkpt><trkpt lat="40.6980783" lon="14.8023033"><ele>144.0</ele><time>2026-05-02T04:45:13.489Z</time></trkpt><trkpt lat="40.6980017" lon="14.8019617"><ele>144.0</ele><time>2026-05-02T04:45:14.489Z</time></trkpt><trkpt lat="40.6979233" lon="14.8016267"><ele>143.5</ele><time>2026-05-02T04:45:15.489Z</time></trkpt><trkpt lat="40.697845" lon="14.8012917"><ele>143.0</ele><time>2026-05-02T04:45:16.489Z</time></trkpt><trkpt lat="40.69777" lon="14.800955"><ele>134.0</ele><time>2026-05-02T04:45:17.489Z</time></trkpt><trkpt lat="40.6976933" lon="14.80062"><ele>125.0</ele><time>2026-05-02T04:45:18.489Z</time></trkpt><trkpt lat="40.6976267" lon="14.8002833"><ele>125.0</ele><time>2026-05-02T04:45:19.489Z</time></trkpt><trkpt lat="40.6975583" lon="14.7999483"><ele>125.0</ele><time>2026-05-02T04:45:20.489Z</time></trkpt><trkpt lat="40.6974983" lon="14.7996083"><ele>125.0</ele><time>2026-05-02T04:45:21.489Z</time></trkpt><trkpt lat="40.69744" lon="14.7992667"><ele>125.0</ele><time>2026-05-02T04:45:22.489Z</time></trkpt><trkpt lat="40.6973833" lon="14.7989183"><ele>125.0</ele><time>2026-05-02T04:45:23.489Z</time></trkpt><trkpt lat="40.6973383" lon="14.7985717"><ele>125.0</ele><time>2026-05-02T04:45:24.489Z</time></trkpt><trkpt lat="40.6972983" lon="14.7982217"><ele>122.5</ele><time>2026-05-02T04:45:25.489Z</time></trkpt><trkpt lat="40.697265" lon="14.7978733"><ele>120.0</ele><time>2026-05-02T04:45:26.489Z</time></trkpt><trkpt lat="40.697235" lon="14.797525"><ele>118.0</ele><time>2026-05-02T04:45:27.489Z</time></trkpt><trkpt lat="40.6972083" lon="14.797175"><ele>116.0</ele><time>2026-05-02T04:45:28.489Z</time></trkpt><trkpt lat="40.6971867" lon="14.7968267"><ele>114.0</ele><time>2026-05-02T04:45:29.489Z</time></trkpt><trkpt lat="40.6971683" lon="14.7964817"><ele>112.0</ele><time>2026-05-02T04:45:30.489Z</time></trkpt><trkpt lat="40.697155" lon="14.7961317"><ele>111.0</ele><time>2026-05-02T04:45:31.489Z</time></trkpt><trkpt lat="40.6971467" lon="14.7957883"><ele>110.0</ele><time>2026-05-02T04:45:32.489Z</time></trkpt><trkpt lat="40.697145" lon="14.795445"><ele>111.5</ele><time>2026-05-02T04:45:33.49Z</time></trkpt><trkpt lat="40.6971517" lon="14.7951017"><ele>113.0</ele><time>2026-05-02T04:45:34.489Z</time></trkpt><trkpt lat="40.6971617" lon="14.79476"><ele>113.0</ele><time>2026-05-02T04:45:35.489Z</time></trkpt><trkpt lat="40.6971767" lon="14.7944217"><ele>113.0</ele><time>2026-05-02T04:45:36.489Z</time></trkpt><trkpt lat="40.6971933" lon="14.794085"><ele>114.0</ele><time>2026-05-02T04:45:37.489Z</time></trkpt><trkpt lat="40.6972183" lon="14.7937433"><ele>115.0</ele><time>2026-05-02T04:45:38.489Z</time></trkpt><trkpt lat="40.697245" lon="14.7934067"><ele>115.0</ele><time>2026-05-02T04:45:39.489Z</time></trkpt><trkpt lat="40.6972733" lon="14.7930733"><ele>115.0</ele><time>2026-05-02T04:45:40.489Z</time></trkpt><trkpt lat="40.6973017" lon="14.79274"><ele>112.5</ele><time>2026-05-02T04:45:41.489Z</time></trkpt><trkpt lat="40.6973317" lon="14.7924017"><ele>110.0</ele><time>2026-05-02T04:45:42.49Z</time></trkpt><trkpt lat="40.6973583" lon="14.7920683"><ele>107.5</ele><time>2026-05-02T04:45:43.489Z</time></trkpt><trkpt lat="40.69739" lon="14.791735"><ele>105.0</ele><time>2026-05-02T04:45:44.489Z</time></trkpt><trkpt lat="40.697415" lon="14.7914"><ele>105.0</ele><time>2026-05-02T04:45:45.489Z</time></trkpt><trkpt lat="40.6974317" lon="14.79106"><ele>105.0</ele><time>2026-05-02T04:45:46.489Z</time></trkpt><trkpt lat="40.6974517" lon="14.79073"><ele>103.0</ele><time>2026-05-02T04:45:47.49Z</time></trkpt><trkpt lat="40.6974633" lon="14.7903967"><ele>101.0</ele><time>2026-05-02T04:45:48.489Z</time></trkpt><trkpt lat="40.6974733" lon="14.7900667"><ele>99.0</ele><time>2026-05-02T04:45:49.489Z</time></trkpt><trkpt lat="40.6974733" lon="14.7897367"><ele>97.0</ele><time>2026-05-02T04:45:50.489Z</time></trkpt><trkpt lat="40.6974667" lon="14.7894117"><ele>96.5</ele><time>2026-05-02T04:45:51.489Z</time></trkpt><trkpt lat="40.6974467" lon="14.7890783"><ele>96.0</ele><time>2026-05-02T04:45:52.489Z</time></trkpt><trkpt lat="40.6974267" lon="14.7887517"><ele>93.0</ele><time>2026-05-02T04:45:53.489Z</time></trkpt><trkpt lat="40.697395" lon="14.7884283"><ele>90.0</ele><time>2026-05-02T04:45:54.489Z</time></trkpt><trkpt lat="40.6973517" lon="14.7881167"><ele>90.0</ele><time>2026-05-02T04:45:55.489Z</time></trkpt><trkpt lat="40.6973083" lon="14.7878"><ele>90.0</ele><time>2026-05-02T04:45:56.489Z</time></trkpt><trkpt lat="40.697265" lon="14.7874883"><ele>87.5</ele><time>2026-05-02T04:45:57.489Z</time></trkpt><trkpt lat="40.6972133" lon="14.7871767"><ele>85.0</ele><time>2026-05-02T04:45:58.489Z</time></trkpt><trkpt lat="40.69716" lon="14.7868717"><ele>85.0</ele><time>2026-05-02T04:45:59.489Z</time></trkpt><trkpt lat="40.6971067" lon="14.7865683"><ele>85.0</ele><time>2026-05-02T04:46:00.489Z</time></trkpt><trkpt lat="40.69705" lon="14.7862683"><ele>84.0</ele><time>2026-05-02T04:46:01.489Z</time></trkpt><trkpt lat="40.6969933" lon="14.7859717"><ele>83.0</ele><time>2026-05-02T04:46:02.489Z</time></trkpt><trkpt lat="40.6969383" lon="14.7856767"><ele>78.0</ele><time>2026-05-02T04:46:03.489Z</time></trkpt><trkpt lat="40.69688" lon="14.7853867"><ele>73.0</ele><time>2026-05-02T04:46:04.489Z</time></trkpt><trkpt lat="40.6968267" lon="14.7850983"><ele>72.33333333333333</ele><time>2026-05-02T04:46:05.489Z</time></trkpt><trkpt lat="40.696775" lon="14.78481"><ele>71.66666666666667</ele><time>2026-05-02T04:46:06.489Z</time></trkpt><trkpt lat="40.6967283" lon="14.7845367"><ele>71.0</ele><time>2026-05-02T04:46:07.489Z</time></trkpt><trkpt lat="40.6966833" lon="14.78427"><ele>71.0</ele><time>2026-05-02T04:46:08.49Z</time></trkpt><trkpt lat="40.6966367" lon="14.784015"><ele>71.0</ele><time>2026-05-02T04:46:09.489Z</time></trkpt><trkpt lat="40.6965867" lon="14.7837583"><ele>71.0</ele><time>2026-05-02T04:46:10.489Z</time></trkpt><trkpt lat="40.6965483" lon="14.783505"><ele>71.66666666666667</ele><time>2026-05-02T04:46:11.489Z</time></trkpt><trkpt lat="40.69651" lon="14.7832567"><ele>72.33333333333333</ele><time>2026-05-02T04:46:12.489Z</time></trkpt><trkpt lat="40.6964817" lon="14.7830033"><ele>73.0</ele><time>2026-05-02T04:46:13.489Z</time></trkpt><trkpt lat="40.6964683" lon="14.782755"><ele>72.33333333333333</ele><time>2026-05-02T04:46:14.489Z</time></trkpt><trkpt lat="40.6964783" lon="14.7825"><ele>71.66666666666667</ele><time>2026-05-02T04:46:15.489Z</time></trkpt><trkpt lat="40.6965" lon="14.7822583"><ele>71.0</ele><time>2026-05-02T04:46:16.489Z</time></trkpt><trkpt lat="40.6965417" lon="14.7820233"><ele>70.33333333333334</ele><time>2026-05-02T04:46:17.489Z</time></trkpt><trkpt lat="40.6965967" lon="14.7817967"><ele>69.66666666666667</ele><time>2026-05-02T04:46:18.489Z</time></trkpt><trkpt lat="40.696665" lon="14.7815633"><ele>69.0</ele><time>2026-05-02T04:46:19.489Z</time></trkpt><trkpt lat="40.696735" lon="14.7813517"><ele>69.0</ele><time>2026-05-02T04:46:20.489Z</time></trkpt><trkpt lat="40.6968183" lon="14.7811433"><ele>69.0</ele><time>2026-05-02T04:46:21.489Z</time></trkpt><trkpt lat="40.6969183" lon="14.7809433"><ele>69.0</ele><time>2026-05-02T04:46:22.489Z</time></trkpt><trkpt lat="40.6970333" lon="14.7807533"><ele>74.0</ele><time>2026-05-02T04:46:23.489Z</time></trkpt><trkpt lat="40.69716" lon="14.7805717"><ele>79.0</ele><time>2026-05-02T04:46:24.489Z</time></trkpt><trkpt lat="40.6972983" lon="14.7804067"><ele>84.0</ele><time>2026-05-02T04:46:25.489Z</time></trkpt><trkpt lat="40.6974383" lon="14.7802517"><ele>83.66666666666667</ele><time>2026-05-02T04:46:26.489Z</time></trkpt><trkpt lat="40.6975917" lon="14.780105"><ele>83.33333333333334</ele><time>2026-05-02T04:46:27.489Z</time></trkpt><trkpt lat="40.697755" lon="14.7799583"><ele>83.0</ele><time>2026-05-02T04:46:28.489Z</time></trkpt><trkpt lat="40.6979233" lon="14.7798183"><ele>83.0</ele><time>2026-05-02T04:46:29.489Z</time></trkpt><trkpt lat="40.6980983" lon="14.7796817"><ele>83.0</ele><time>2026-05-02T04:46:30.489Z</time></trkpt><trkpt lat="40.6982783" lon="14.7795533"><ele>83.0</ele><time>2026-05-02T04:46:31.489Z</time></trkpt><trkpt lat="40.6984667" lon="14.779435"><ele>78.33333333333334</ele><time>2026-05-02T04:46:32.489Z</time></trkpt><trkpt lat="40.6986583" lon="14.7793283"><ele>73.66666666666667</ele><time>2026-05-02T04:46:33.489Z</time></trkpt><trkpt lat="40.6988533" lon="14.7792467"><ele>69.0</ele><time>2026-05-02T04:46:34.489Z</time></trkpt><trkpt lat="40.69904" lon="14.7791617"><ele>69.0</ele><time>2026-05-02T04:46:35.489Z</time></trkpt><trkpt lat="40.6992467" lon="14.7791133"><ele>69.0</ele><time>2026-05-02T04:46:36.489Z</time></trkpt><trkpt lat="40.699455" lon="14.7790733"><ele>69.0</ele><time>2026-05-02T04:46:37.489Z</time></trkpt><trkpt lat="40.6996617" lon="14.7790367"><ele>68.66666666666667</ele><time>2026-05-02T04:46:38.489Z</time></trkpt><trkpt lat="40.6998667" lon="14.7789883"><ele>68.33333333333334</ele><time>2026-05-02T04:46:39.489Z</time></trkpt><trkpt lat="40.7000733" lon="14.7789617"><ele>68.0</ele><time>2026-05-02T04:46:40.489Z</time></trkpt><trkpt lat="40.7002833" lon="14.7789333"><ele>69.66666666666667</ele><time>2026-05-02T04:46:41.489Z</time></trkpt><trkpt lat="40.7004933" lon="14.7789083"><ele>71.33333333333333</ele><time>2026-05-02T04:46:42.489Z</time></trkpt><trkpt lat="40.7007017" lon="14.7788817"><ele>73.0</ele><time>2026-05-02T04:46:43.489Z</time></trkpt><trkpt lat="40.7009133" lon="14.7788533"><ele>75.0</ele><time>2026-05-02T04:46:44.489Z</time></trkpt><trkpt lat="40.7011217" lon="14.778825"><ele>77.0</ele><time>2026-05-02T04:46:45.49Z</time></trkpt><trkpt lat="40.70133" lon="14.7787983"><ele>79.0</ele><time>2026-05-02T04:46:46.489Z</time></trkpt><trkpt lat="40.7015417" lon="14.77877"><ele>79.0</ele><time>2026-05-02T04:46:47.489Z</time></trkpt><trkpt lat="40.7017533" lon="14.77875"><ele>79.0</ele><time>2026-05-02T04:46:48.49Z</time></trkpt><trkpt lat="40.701965" lon="14.77873"><ele>79.0</ele><time>2026-05-02T04:46:49.49Z</time></trkpt><trkpt lat="40.70218" lon="14.778715"><ele>80.66666666666666</ele><time>2026-05-02T04:46:50.489Z</time></trkpt><trkpt lat="40.7023917" lon="14.7786917"><ele>82.33333333333333</ele><time>2026-05-02T04:46:51.489Z</time></trkpt><trkpt lat="40.702605" lon="14.77867"><ele>84.0</ele><time>2026-05-02T04:46:52.489Z</time></trkpt><trkpt lat="40.7028167" lon="14.7786483"><ele>85.33333333333333</ele><time>2026-05-02T04:46:53.489Z</time></trkpt><trkpt lat="40.7030267" lon="14.7786317"><ele>86.66666666666666</ele><time>2026-05-02T04:46:54.489Z</time></trkpt><trkpt lat="40.7032383" lon="14.778605"><ele>88.0</ele><time>2026-05-02T04:46:55.489Z</time></trkpt><trkpt lat="40.7034567" lon="14.77858"><ele>88.0</ele><time>2026-05-02T04:46:56.489Z</time></trkpt><trkpt lat="40.70367" lon="14.7785483"><ele>88.0</ele><time>2026-05-02T04:46:57.489Z</time></trkpt><trkpt lat="40.7038917" lon="14.7785267"><ele>88.0</ele><time>2026-05-02T04:46:58.489Z</time></trkpt><trkpt lat="40.7041083" lon="14.77851"><ele>87.0</ele><time>2026-05-02T04:46:59.489Z</time></trkpt><trkpt lat="40.70433" lon="14.7784933"><ele>86.0</ele><time>2026-05-02T04:47:00.489Z</time></trkpt><trkpt lat="40.7045433" lon="14.7784783"><ele>85.0</ele><time>2026-05-02T04:47:01.489Z</time></trkpt><trkpt lat="40.7047533" lon="14.77848"><ele>85.0</ele><time>2026-05-02T04:47:02.489Z</time></trkpt><trkpt lat="40.7049567" lon="14.7784883"><ele>85.0</ele><time>2026-05-02T04:47:03.489Z</time></trkpt><trkpt lat="40.70516" lon="14.7785183"><ele>85.0</ele><time>2026-05-02T04:47:04.489Z</time></trkpt><trkpt lat="40.705365" lon="14.7785567"><ele>86.66666666666666</ele><time>2026-05-02T04:47:05.489Z</time></trkpt><trkpt lat="40.7055667" lon="14.77862"><ele>88.33333333333333</ele><time>2026-05-02T04:47:06.489Z</time></trkpt><trkpt lat="40.7057683" lon="14.7787017"><ele>90.0</ele><time>2026-05-02T04:47:07.489Z</time></trkpt><trkpt lat="40.705965" lon="14.778795"><ele>90.66666666666667</ele><time>2026-05-02T04:47:08.489Z</time></trkpt><trkpt lat="40.706165" lon="14.7789"><ele>91.33333333333334</ele><time>2026-05-02T04:47:09.489Z</time></trkpt><trkpt lat="40.706365" lon="14.77901"><ele>92.0</ele><time>2026-05-02T04:47:10.489Z</time></trkpt><trkpt lat="40.706565" lon="14.779125"><ele>92.0</ele><time>2026-05-02T04:47:11.489Z</time></trkpt><trkpt lat="40.7067633" lon="14.7792383"><ele>92.0</ele><time>2026-05-02T04:47:12.489Z</time></trkpt><trkpt lat="40.70696" lon="14.7793517"><ele>92.0</ele><time>2026-05-02T04:47:13.49Z</time></trkpt><trkpt lat="40.7071533" lon="14.7794633"><ele>96.0</ele><time>2026-05-02T04:47:14.489Z</time></trkpt><trkpt lat="40.70735" lon="14.7795717"><ele>100.0</ele><time>2026-05-02T04:47:15.489Z</time></trkpt><trkpt lat="40.7075517" lon="14.7796767"><ele>104.0</ele><time>2026-05-02T04:47:16.489Z</time></trkpt><trkpt lat="40.707745" lon="14.7797933"><ele>104.0</ele><time>2026-05-02T04:47:17.489Z</time></trkpt><trkpt lat="40.7079383" lon="14.7799017"><ele>104.0</ele><time>2026-05-02T04:47:18.49Z</time></trkpt><trkpt lat="40.7081333" lon="14.7800083"><ele>104.0</ele><time>2026-05-02T04:47:19.489Z</time></trkpt><trkpt lat="40.70833" lon="14.780105"><ele>104.0</ele><time>2026-05-02T04:47:20.489Z</time></trkpt><trkpt lat="40.7085267" lon="14.7801767"><ele>104.0</ele><time>2026-05-02T04:47:21.489Z</time></trkpt><trkpt lat="40.7087233" lon="14.78024"><ele>104.0</ele><time>2026-05-02T04:47:22.489Z</time></trkpt><trkpt lat="40.7089217" lon="14.780285"><ele>109.66666666666666</ele><time>2026-05-02T04:47:23.489Z</time></trkpt><trkpt lat="40.70913" lon="14.7803083"><ele>115.33333333333334</ele><time>2026-05-02T04:47:24.489Z</time></trkpt><trkpt lat="40.7093267" lon="14.78033"><ele>121.0</ele><time>2026-05-02T04:47:25.489Z</time></trkpt><trkpt lat="40.7095333" lon="14.7803383"><ele>121.66666666666667</ele><time>2026-05-02T04:47:26.489Z</time></trkpt><trkpt lat="40.7097367" lon="14.7803333"><ele>122.33333333333334</ele><time>2026-05-02T04:47:27.489Z</time></trkpt><trkpt lat="40.7099483" lon="14.7803167"><ele>123.0</ele><time>2026-05-02T04:47:28.489Z</time></trkpt><trkpt lat="40.710165" lon="14.7802817"><ele>125.0</ele><time>2026-05-02T04:47:29.489Z</time></trkpt><trkpt lat="40.7103767" lon="14.78024"><ele>127.0</ele><time>2026-05-02T04:47:30.489Z</time></trkpt><trkpt lat="40.71058" lon="14.7801783"><ele>129.0</ele><time>2026-05-02T04:47:31.489Z</time></trkpt><trkpt lat="40.7107883" lon="14.7801167"><ele>124.0</ele><time>2026-05-02T04:47:32.489Z</time></trkpt><trkpt lat="40.7109917" lon="14.7800317"><ele>119.0</ele><time>2026-05-02T04:47:33.489Z</time></trkpt><trkpt lat="40.7111967" lon="14.7799417"><ele>114.0</ele><time>2026-05-02T04:47:34.489Z</time></trkpt><trkpt lat="40.7114017" lon="14.779845"><ele>114.0</ele><time>2026-05-02T04:47:35.489Z</time></trkpt><trkpt lat="40.71161" lon="14.7797483"><ele>114.0</ele><time>2026-05-02T04:47:36.489Z</time></trkpt><trkpt lat="40.71182" lon="14.7796583"><ele>114.0</ele><time>2026-05-02T04:47:37.49Z</time></trkpt><trkpt lat="40.712035" lon="14.7795633"><ele>113.33333333333334</ele><time>2026-05-02T04:47:38.489Z</time></trkpt><trkpt lat="40.71225" lon="14.7794683"><ele>112.66666666666667</ele><time>2026-05-02T04:47:39.489Z</time></trkpt><trkpt lat="40.712465" lon="14.7793917"><ele>112.0</ele><time>2026-05-02T04:47:40.489Z</time></trkpt><trkpt lat="40.7126833" lon="14.7793217"><ele>115.5</ele><time>2026-05-02T04:47:41.489Z</time></trkpt><trkpt lat="40.7129083" lon="14.77926"><ele>119.0</ele><time>2026-05-02T04:47:42.489Z</time></trkpt><trkpt lat="40.7131417" lon="14.77921"><ele>119.0</ele><time>2026-05-02T04:47:43.489Z</time></trkpt><trkpt lat="40.713375" lon="14.779165"><ele>119.0</ele><time>2026-05-02T04:47:44.489Z</time></trkpt><trkpt lat="40.713615" lon="14.77912"><ele>118.0</ele><time>2026-05-02T04:47:45.489Z</time></trkpt><trkpt lat="40.7138583" lon="14.7790733"><ele>117.0</ele><time>2026-05-02T04:47:46.489Z</time></trkpt><trkpt lat="40.7140983" lon="14.7790283"><ele>117.0</ele><time>2026-05-02T04:47:47.489Z</time></trkpt><trkpt lat="40.714345" lon="14.7789867"><ele>117.0</ele><time>2026-05-02T04:47:48.489Z</time></trkpt><trkpt lat="40.71459" lon="14.7789417"><ele>123.0</ele><time>2026-05-02T04:47:49.489Z</time></trkpt><trkpt lat="40.714835" lon="14.7788917"><ele>129.0</ele><time>2026-05-02T04:47:50.489Z</time></trkpt><trkpt lat="40.7150867" lon="14.778845"><ele>134.5</ele><time>2026-05-02T04:47:51.489Z</time></trkpt><trkpt lat="40.7153367" lon="14.778805"><ele>140.0</ele><time>2026-05-02T04:47:52.489Z</time></trkpt><trkpt lat="40.7155833" lon="14.7787633"><ele>140.0</ele><time>2026-05-02T04:47:53.489Z</time></trkpt><trkpt lat="40.7158367" lon="14.7787183"><ele>140.0</ele><time>2026-05-02T04:47:54.489Z</time></trkpt><trkpt lat="40.7160867" lon="14.7786783"><ele>148.5</ele><time>2026-05-02T04:47:55.489Z</time></trkpt><trkpt lat="40.7163367" lon="14.7786367"><ele>157.0</ele><time>2026-05-02T04:47:56.489Z</time></trkpt><trkpt lat="40.71659" lon="14.7785917"><ele>157.0</ele><time>2026-05-02T04:47:57.489Z</time></trkpt><trkpt lat="40.7168467" lon="14.7785467"><ele>157.0</ele><time>2026-05-02T04:47:58.489Z</time></trkpt><trkpt lat="40.7171" lon="14.778515"><ele>147.5</ele><time>2026-05-02T04:47:59.489Z</time></trkpt><trkpt lat="40.7173467" lon="14.7784833"><ele>138.0</ele><time>2026-05-02T04:48:00.489Z</time></trkpt><trkpt lat="40.7175967" lon="14.77845"><ele>138.5</ele><time>2026-05-02T04:48:01.489Z</time></trkpt><trkpt lat="40.7178433" lon="14.7784083"><ele>139.0</ele><time>2026-05-02T04:48:02.489Z</time></trkpt><trkpt lat="40.71808" lon="14.7783683"><ele>139.0</ele><time>2026-05-02T04:48:03.489Z</time></trkpt><trkpt lat="40.7183117" lon="14.7783233"><ele>139.0</ele><time>2026-05-02T04:48:04.489Z</time></trkpt><trkpt lat="40.7185433" lon="14.7782767"><ele>138.0</ele><time>2026-05-02T04:48:05.489Z</time></trkpt><trkpt lat="40.718775" lon="14.778235"><ele>137.0</ele><time>2026-05-02T04:48:06.489Z</time></trkpt><trkpt lat="40.7190117" lon="14.7781883"><ele>137.0</ele><time>2026-05-02T04:48:07.489Z</time></trkpt><trkpt lat="40.7192467" lon="14.7781433"><ele>137.0</ele><time>2026-05-02T04:48:08.489Z</time></trkpt><trkpt lat="40.7194733" lon="14.7781"><ele>139.0</ele><time>2026-05-02T04:48:09.489Z</time></trkpt><trkpt lat="40.719705" lon="14.77806"><ele>141.0</ele><time>2026-05-02T04:48:10.489Z</time></trkpt><trkpt lat="40.7199383" lon="14.77802"><ele>141.0</ele><time>2026-05-02T04:48:11.489Z</time></trkpt><trkpt lat="40.7201717" lon="14.7779717"><ele>141.0</ele><time>2026-05-02T04:48:12.489Z</time></trkpt><trkpt lat="40.7204017" lon="14.7779117"><ele>142.0</ele><time>2026-05-02T04:48:13.489Z</time></trkpt><trkpt lat="40.72063" lon="14.7778433"><ele>143.0</ele><time>2026-05-02T04:48:14.489Z</time></trkpt><trkpt lat="40.72086" lon="14.777755"><ele>145.0</ele><time>2026-05-02T04:48:15.489Z</time></trkpt><trkpt lat="40.7210883" lon="14.7776567"><ele>147.0</ele><time>2026-05-02T04:48:16.489Z</time></trkpt><trkpt lat="40.7213183" lon="14.7775467"><ele>147.0</ele><time>2026-05-02T04:48:17.489Z</time></trkpt><trkpt lat="40.72155" lon="14.7774217"><ele>147.0</ele><time>2026-05-02T04:48:18.489Z</time></trkpt><trkpt lat="40.7217767" lon="14.7772967"><ele>161.0</ele><time>2026-05-02T04:48:19.489Z</time></trkpt><trkpt lat="40.7220017" lon="14.7771833"><ele>175.0</ele><time>2026-05-02T04:48:20.489Z</time></trkpt><trkpt lat="40.72221" lon="14.77712"><ele>175.0</ele><time>2026-05-02T04:48:21.49Z</time></trkpt><trkpt lat="40.7224433" lon="14.777045"><ele>175.0</ele><time>2026-05-02T04:48:22.489Z</time></trkpt><trkpt lat="40.7226767" lon="14.7769683"><ele>162.0</ele><time>2026-05-02T04:48:23.489Z</time></trkpt><trkpt lat="40.723335" lon="14.77654"><ele>162.0</ele><time>2026-05-02T04:48:26.49Z</time></trkpt><trkpt lat="40.7235283" lon="14.7762767"><ele>162.0</ele><time>2026-05-02T04:48:27.49Z</time></trkpt><trkpt lat="40.723775" lon="14.7761083"><ele>153.0</ele><time>2026-05-02T04:48:28.49Z</time></trkpt><trkpt lat="40.7240183" lon="14.7760033"><ele>144.0</ele><time>2026-05-02T04:48:29.49Z</time></trkpt><trkpt lat="40.7242633" lon="14.7759233"><ele>146.5</ele><time>2026-05-02T04:48:30.49Z</time></trkpt><trkpt lat="40.7245117" lon="14.7758583"><ele>149.0</ele><time>2026-05-02T04:48:31.49Z</time></trkpt><trkpt lat="40.7247617" lon="14.7758183"><ele>149.0</ele><time>2026-05-02T04:48:32.49Z</time></trkpt><trkpt lat="40.7250183" lon="14.7757933"><ele>149.0</ele><time>2026-05-02T04:48:33.49Z</time></trkpt><trkpt lat="40.72527" lon="14.7757733"><ele>152.0</ele><time>2026-05-02T04:48:34.49Z</time></trkpt><trkpt lat="40.7255233" lon="14.7757533"><ele>155.0</ele><time>2026-05-02T04:48:35.49Z</time></trkpt><trkpt lat="40.7257817" lon="14.7757367"><ele>155.0</ele><time>2026-05-02T04:48:36.49Z</time></trkpt><trkpt lat="40.7260467" lon="14.77572"><ele>155.0</ele><time>2026-05-02T04:48:37.49Z</time></trkpt><trkpt lat="40.7263083" lon="14.7757067"><ele>156.0</ele><time>2026-05-02T04:48:38.49Z</time></trkpt><trkpt lat="40.7265683" lon="14.7756933"><ele>157.0</ele><time>2026-05-02T04:48:39.49Z</time></trkpt><trkpt lat="40.72683" lon="14.7756767"><ele>159.0</ele><time>2026-05-02T04:48:40.49Z</time></trkpt><trkpt lat="40.72709" lon="14.7756533"><ele>161.0</ele><time>2026-05-02T04:48:41.49Z</time></trkpt><trkpt lat="40.7273533" lon="14.775635"><ele>161.0</ele><time>2026-05-02T04:48:42.49Z</time></trkpt><trkpt lat="40.727615" lon="14.775605"><ele>161.0</ele><time>2026-05-02T04:48:43.49Z</time></trkpt><trkpt lat="40.727865" lon="14.77559"><ele>162.0</ele><time>2026-05-02T04:48:44.49Z</time></trkpt><trkpt lat="40.7281217" lon="14.7755783"><ele>163.0</ele><time>2026-05-02T04:48:45.49Z</time></trkpt><trkpt lat="40.728385" lon="14.77556"><ele>165.0</ele><time>2026-05-02T04:48:46.49Z</time></trkpt><trkpt lat="40.7286417" lon="14.77554"><ele>167.0</ele><time>2026-05-02T04:48:47.49Z</time></trkpt><trkpt lat="40.7289" lon="14.775525"><ele>167.0</ele><time>2026-05-02T04:48:48.49Z</time></trkpt><trkpt lat="40.7291617" lon="14.77551"><ele>167.0</ele><time>2026-05-02T04:48:49.49Z</time></trkpt><trkpt lat="40.7294267" lon="14.7754917"><ele>169.5</ele><time>2026-05-02T04:48:50.49Z</time></trkpt><trkpt lat="40.7296967" lon="14.7754733"><ele>172.0</ele><time>2026-05-02T04:48:51.49Z</time></trkpt><trkpt lat="40.7299617" lon="14.775455"><ele>172.5</ele><time>2026-05-02T04:48:52.49Z</time></trkpt><trkpt lat="40.730235" lon="14.77544"><ele>173.0</ele><time>2026-05-02T04:48:53.49Z</time></trkpt><trkpt lat="40.7305133" lon="14.77543"><ele>173.0</ele><time>2026-05-02T04:48:54.49Z</time></trkpt><trkpt lat="40.7307883" lon="14.775415"><ele>173.0</ele><time>2026-05-02T04:48:55.49Z</time></trkpt><trkpt lat="40.7310667" lon="14.7754083"><ele>171.0</ele><time>2026-05-02T04:48:56.49Z</time></trkpt><trkpt lat="40.7313367" lon="14.7754117"><ele>169.0</ele><time>2026-05-02T04:48:57.49Z</time></trkpt><trkpt lat="40.731605" lon="14.77542"><ele>169.0</ele><time>2026-05-02T04:48:58.49Z</time></trkpt><trkpt lat="40.7318733" lon="14.7754383"><ele>169.0</ele><time>2026-05-02T04:48:59.49Z</time></trkpt><trkpt lat="40.7321383" lon="14.77546"><ele>168.5</ele><time>2026-05-02T04:49:00.49Z</time></trkpt><trkpt lat="40.7324033" lon="14.775485"><ele>168.0</ele><time>2026-05-02T04:49:01.49Z</time></trkpt><trkpt lat="40.7326667" lon="14.775515"><ele>170.0</ele><time>2026-05-02T04:49:02.491Z</time></trkpt><trkpt lat="40.732925" lon="14.77556"><ele>172.0</ele><time>2026-05-02T04:49:03.49Z</time></trkpt><trkpt lat="40.7331833" lon="14.77562"><ele>172.0</ele><time>2026-05-02T04:49:04.49Z</time></trkpt><trkpt lat="40.73343" lon="14.775695"><ele>172.0</ele><time>2026-05-02T04:49:05.49Z</time></trkpt><trkpt lat="40.7336917" lon="14.775775"><ele>171.5</ele><time>2026-05-02T04:49:06.49Z</time></trkpt><trkpt lat="40.73394" lon="14.77587"><ele>171.0</ele><time>2026-05-02T04:49:07.49Z</time></trkpt><trkpt lat="40.73419" lon="14.775965"><ele>173.5</ele><time>2026-05-02T04:49:08.49Z</time></trkpt><trkpt lat="40.7344333" lon="14.776075"><ele>176.0</ele><time>2026-05-02T04:49:09.49Z</time></trkpt><trkpt lat="40.73468" lon="14.7761867"><ele>176.0</ele><time>2026-05-02T04:49:10.49Z</time></trkpt><trkpt lat="40.73492" lon="14.7763083"><ele>176.0</ele><time>2026-05-02T04:49:11.49Z</time></trkpt><trkpt lat="40.7351617" lon="14.77644"><ele>175.5</ele><time>2026-05-02T04:49:12.49Z</time></trkpt><trkpt lat="40.7353967" lon="14.7765783"><ele>175.0</ele><time>2026-05-02T04:49:13.49Z</time></trkpt><trkpt lat="40.7356233" lon="14.7767383"><ele>177.5</ele><time>2026-05-02T04:49:14.49Z</time></trkpt><trkpt lat="40.73585" lon="14.776895"><ele>180.0</ele><time>2026-05-02T04:49:15.49Z</time></trkpt><trkpt lat="40.7360717" lon="14.7770567"><ele>180.5</ele><time>2026-05-02T04:49:16.49Z</time></trkpt><trkpt lat="40.7362933" lon="14.7772367"><ele>181.0</ele><time>2026-05-02T04:49:17.49Z</time></trkpt><trkpt lat="40.73649" lon="14.7774233"><ele>181.0</ele><time>2026-05-02T04:49:18.49Z</time></trkpt><trkpt lat="40.736705" lon="14.7776167"><ele>181.0</ele><time>2026-05-02T04:49:19.49Z</time></trkpt><trkpt lat="40.7369167" lon="14.77781"><ele>184.0</ele><time>2026-05-02T04:49:20.49Z</time></trkpt><trkpt lat="40.737125" lon="14.778005"><ele>187.0</ele><time>2026-05-02T04:49:21.49Z</time></trkpt><trkpt lat="40.7373267" lon="14.7782083"><ele>187.0</ele><time>2026-05-02T04:49:22.49Z</time></trkpt><trkpt lat="40.7375267" lon="14.778415"><ele>187.0</ele><time>2026-05-02T04:49:23.49Z</time></trkpt><trkpt lat="40.737735" lon="14.77862"><ele>189.5</ele><time>2026-05-02T04:49:24.491Z</time></trkpt><trkpt lat="40.7379283" lon="14.7788383"><ele>192.0</ele><time>2026-05-02T04:49:25.49Z</time></trkpt><trkpt lat="40.73812" lon="14.779055"><ele>192.0</ele><time>2026-05-02T04:49:26.49Z</time></trkpt><trkpt lat="40.7383083" lon="14.77928"><ele>192.0</ele><time>2026-05-02T04:49:27.49Z</time></trkpt><trkpt lat="40.7385" lon="14.7795033"><ele>195.0</ele><time>2026-05-02T04:49:28.49Z</time></trkpt><trkpt lat="40.738695" lon="14.7797217"><ele>198.0</ele><time>2026-05-02T04:49:29.49Z</time></trkpt><trkpt lat="40.7388867" lon="14.779945"><ele>198.0</ele><time>2026-05-02T04:49:30.49Z</time></trkpt><trkpt lat="40.73908" lon="14.7801733"><ele>198.0</ele><time>2026-05-02T04:49:31.49Z</time></trkpt><trkpt lat="40.739275" lon="14.7804033"><ele>203.0</ele><time>2026-05-02T04:49:32.491Z</time></trkpt><trkpt lat="40.73947" lon="14.780635"><ele>208.0</ele><time>2026-05-02T04:49:33.49Z</time></trkpt><trkpt lat="40.7396667" lon="14.7808683"><ele>210.0</ele><time>2026-05-02T04:49:34.49Z</time></trkpt><trkpt lat="40.73986" lon="14.7811033"><ele>212.0</ele><time>2026-05-02T04:49:35.49Z</time></trkpt><trkpt lat="40.740065" lon="14.7813317"><ele>211.0</ele><time>2026-05-02T04:49:36.49Z</time></trkpt><trkpt lat="40.7402617" lon="14.7815633"><ele>210.0</ele><time>2026-05-02T04:49:37.49Z</time></trkpt><trkpt lat="40.7404683" lon="14.7817933"><ele>213.0</ele><time>2026-05-02T04:49:38.49Z</time></trkpt><trkpt lat="40.7406767" lon="14.7820167"><ele>216.0</ele><time>2026-05-02T04:49:39.49Z</time></trkpt><trkpt lat="40.74089" lon="14.7822283"><ele>214.0</ele><time>2026-05-02T04:49:40.491Z</time></trkpt><trkpt lat="40.741115" lon="14.7824433"><ele>212.0</ele><time>2026-05-02T04:49:41.49Z</time></trkpt><trkpt lat="40.74134" lon="14.78265"><ele>216.5</ele><time>2026-05-02T04:49:42.49Z</time></trkpt><trkpt lat="40.7415633" lon="14.782855"><ele>221.0</ele><time>2026-05-02T04:49:43.49Z</time></trkpt><trkpt lat="40.7417867" lon="14.783055"><ele>221.5</ele><time>2026-05-02T04:49:44.49Z</time></trkpt><trkpt lat="40.7420133" lon="14.7832467"><ele>222.0</ele><time>2026-05-02T04:49:45.49Z</time></trkpt><trkpt lat="40.7422483" lon="14.7834267"><ele>224.0</ele><time>2026-05-02T04:49:46.49Z</time></trkpt><trkpt lat="40.74248" lon="14.78361"><ele>226.0</ele><time>2026-05-02T04:49:47.491Z</time></trkpt><trkpt lat="40.7427133" lon="14.7837833"><ele>222.5</ele><time>2026-05-02T04:49:48.49Z</time></trkpt><trkpt lat="40.742955" lon="14.7839467"><ele>219.0</ele><time>2026-05-02T04:49:49.49Z</time></trkpt><trkpt lat="40.74319" lon="14.7841"><ele>219.0</ele><time>2026-05-02T04:49:50.49Z</time></trkpt><trkpt lat="40.7434267" lon="14.78425"><ele>219.0</ele><time>2026-05-02T04:49:51.49Z</time></trkpt><trkpt lat="40.7436567" lon="14.7843933"><ele>221.0</ele><time>2026-05-02T04:49:52.491Z</time></trkpt><trkpt lat="40.743895" lon="14.7845267"><ele>223.0</ele><time>2026-05-02T04:49:53.49Z</time></trkpt><trkpt lat="40.7441367" lon="14.7846583"><ele>223.0</ele><time>2026-05-02T04:49:54.49Z</time></trkpt><trkpt lat="40.7443767" lon="14.7847783"><ele>223.0</ele><time>2026-05-02T04:49:55.49Z</time></trkpt><trkpt lat="40.7446217" lon="14.78489"><ele>221.5</ele><time>2026-05-02T04:49:56.49Z</time></trkpt><trkpt lat="40.74487" lon="14.785"><ele>220.0</ele><time>2026-05-02T04:49:57.49Z</time></trkpt><trkpt lat="40.745125" lon="14.7851017"><ele>223.5</ele><time>2026-05-02T04:49:58.49Z</time></trkpt><trkpt lat="40.7453783" lon="14.785195"><ele>227.0</ele><time>2026-05-02T04:49:59.49Z</time></trkpt><trkpt lat="40.745635" lon="14.785285"><ele>227.0</ele><time>2026-05-02T04:50:00.49Z</time></trkpt><trkpt lat="40.74589" lon="14.7853783"><ele>227.0</ele><time>2026-05-02T04:50:01.49Z</time></trkpt><trkpt lat="40.746145" lon="14.7854633"><ele>230.0</ele><time>2026-05-02T04:50:02.49Z</time></trkpt><trkpt lat="40.7464017" lon="14.78554"><ele>233.0</ele><time>2026-05-02T04:50:03.49Z</time></trkpt><trkpt lat="40.7466683" lon="14.78561"><ele>229.5</ele><time>2026-05-02T04:50:04.49Z</time></trkpt><trkpt lat="40.746925" lon="14.78568"><ele>226.0</ele><time>2026-05-02T04:50:05.49Z</time></trkpt><trkpt lat="40.747185" lon="14.7857567"><ele>226.0</ele><time>2026-05-02T04:50:06.49Z</time></trkpt><trkpt lat="40.7474483" lon="14.7858367"><ele>226.0</ele><time>2026-05-02T04:50:07.49Z</time></trkpt><trkpt lat="40.7477167" lon="14.7859033"><ele>224.5</ele><time>2026-05-02T04:50:08.49Z</time></trkpt><trkpt lat="40.7479817" lon="14.78595"><ele>223.0</ele><time>2026-05-02T04:50:09.491Z</time></trkpt><trkpt lat="40.74825" lon="14.785995"><ele>223.5</ele><time>2026-05-02T04:50:10.49Z</time></trkpt><trkpt lat="40.7485267" lon="14.7860417"><ele>224.0</ele><time>2026-05-02T04:50:11.491Z</time></trkpt><trkpt lat="40.7487983" lon="14.7860917"><ele>224.0</ele><time>2026-05-02T04:50:12.49Z</time></trkpt><trkpt lat="40.7490783" lon="14.7861483"><ele>224.0</ele><time>2026-05-02T04:50:13.49Z</time></trkpt><trkpt lat="40.7493567" lon="14.7862067"><ele>223.5</ele><time>2026-05-02T04:50:14.49Z</time></trkpt><trkpt lat="40.7496317" lon="14.7862617"><ele>223.0</ele><time>2026-05-02T04:50:15.49Z</time></trkpt><trkpt lat="40.7499067" lon="14.7863117"><ele>223.0</ele><time>2026-05-02T04:50:16.49Z</time></trkpt><trkpt lat="40.7501817" lon="14.7863667"><ele>223.0</ele><time>2026-05-02T04:50:17.49Z</time></trkpt><trkpt lat="40.7504533" lon="14.78642"><ele>223.5</ele><time>2026-05-02T04:50:18.49Z</time></trkpt><trkpt lat="40.7507267" lon="14.78648"><ele>224.0</ele><time>2026-05-02T04:50:19.49Z</time></trkpt><trkpt lat="40.7509983" lon="14.7865383"><ele>223.5</ele><time>2026-05-02T04:50:20.49Z</time></trkpt><trkpt lat="40.7512783" lon="14.7865967"><ele>223.0</ele><time>2026-05-02T04:50:21.49Z</time></trkpt><trkpt lat="40.7515517" lon="14.7866567"><ele>223.0</ele><time>2026-05-02T04:50:22.491Z</time></trkpt><trkpt lat="40.75184" lon="14.78671"><ele>223.0</ele><time>2026-05-02T04:50:23.49Z</time></trkpt><trkpt lat="40.7521167" lon="14.78676"><ele>222.5</ele><time>2026-05-02T04:50:24.49Z</time></trkpt><trkpt lat="40.7523983" lon="14.7868117"><ele>222.0</ele><time>2026-05-02T04:50:25.49Z</time></trkpt><trkpt lat="40.7526717" lon="14.7868667"><ele>223.5</ele><time>2026-05-02T04:50:26.49Z</time></trkpt><trkpt lat="40.7529467" lon="14.7869183"><ele>225.0</ele><time>2026-05-02T04:50:27.49Z</time></trkpt><trkpt lat="40.75322" lon="14.7869817"><ele>225.0</ele><time>2026-05-02T04:50:28.49Z</time></trkpt><trkpt lat="40.7534933" lon="14.7870333"><ele>225.0</ele><time>2026-05-02T04:50:29.49Z</time></trkpt><trkpt lat="40.7537633" lon="14.7870883"><ele>226.0</ele><time>2026-05-02T04:50:30.49Z</time></trkpt><trkpt lat="40.7540317" lon="14.7871433"><ele>227.0</ele><time>2026-05-02T04:50:31.49Z</time></trkpt><trkpt lat="40.754305" lon="14.7871983"><ele>229.0</ele><time>2026-05-02T04:50:32.49Z</time></trkpt><trkpt lat="40.754575" lon="14.78725"><ele>231.0</ele><time>2026-05-02T04:50:33.49Z</time></trkpt><trkpt lat="40.75484" lon="14.7873017"><ele>231.0</ele><time>2026-05-02T04:50:34.49Z</time></trkpt><trkpt lat="40.75511" lon="14.7873583"><ele>231.0</ele><time>2026-05-02T04:50:35.49Z</time></trkpt><trkpt lat="40.7553767" lon="14.787415"><ele>233.0</ele><time>2026-05-02T04:50:36.49Z</time></trkpt><trkpt lat="40.75564" lon="14.7874633"><ele>235.0</ele><time>2026-05-02T04:50:37.49Z</time></trkpt><trkpt lat="40.7559067" lon="14.787515"><ele>235.5</ele><time>2026-05-02T04:50:38.49Z</time></trkpt><trkpt lat="40.7561733" lon="14.787565"><ele>236.0</ele><time>2026-05-02T04:50:39.49Z</time></trkpt><trkpt lat="40.7564433" lon="14.7876183"><ele>236.0</ele><time>2026-05-02T04:50:40.49Z</time></trkpt><trkpt lat="40.7567117" lon="14.787675"><ele>236.0</ele><time>2026-05-02T04:50:41.49Z</time></trkpt><trkpt lat="40.7569783" lon="14.78773"><ele>238.0</ele><time>2026-05-02T04:50:42.49Z</time></trkpt><trkpt lat="40.757245" lon="14.7877883"><ele>240.0</ele><time>2026-05-02T04:50:43.49Z</time></trkpt><trkpt lat="40.7575117" lon="14.787845"><ele>241.5</ele><time>2026-05-02T04:50:44.491Z</time></trkpt><trkpt lat="40.7577783" lon="14.7879"><ele>243.0</ele><time>2026-05-02T04:50:45.49Z</time></trkpt><trkpt lat="40.75805" lon="14.78796"><ele>243.0</ele><time>2026-05-02T04:50:46.49Z</time></trkpt><trkpt lat="40.7583167" lon="14.7880117"><ele>243.0</ele><time>2026-05-02T04:50:47.49Z</time></trkpt><trkpt lat="40.7585867" lon="14.78806"><ele>242.5</ele><time>2026-05-02T04:50:48.49Z</time></trkpt><trkpt lat="40.7588567" lon="14.7881133"><ele>242.0</ele><time>2026-05-02T04:50:49.49Z</time></trkpt><trkpt lat="40.7591317" lon="14.7881667"><ele>240.5</ele><time>2026-05-02T04:50:50.49Z</time></trkpt><trkpt lat="40.7594033" lon="14.7882133"><ele>239.0</ele><time>2026-05-02T04:50:51.49Z</time></trkpt><trkpt lat="40.7596717" lon="14.78827"><ele>239.0</ele><time>2026-05-02T04:50:52.49Z</time></trkpt><trkpt lat="40.7599383" lon="14.7883233"><ele>239.0</ele><time>2026-05-02T04:50:53.49Z</time></trkpt><trkpt lat="40.7602083" lon="14.78838"><ele>238.5</ele><time>2026-05-02T04:50:54.49Z</time></trkpt><trkpt lat="40.7604767" lon="14.78844"><ele>238.0</ele><time>2026-05-02T04:50:55.49Z</time></trkpt><trkpt lat="40.760745" lon="14.7884917"><ele>239.0</ele><time>2026-05-02T04:50:56.49Z</time></trkpt><trkpt lat="40.761015" lon="14.788555"><ele>240.0</ele><time>2026-05-02T04:50:57.49Z</time></trkpt><trkpt lat="40.7612767" lon="14.7886067"><ele>240.0</ele><time>2026-05-02T04:50:58.491Z</time></trkpt><trkpt lat="40.76154" lon="14.78866"><ele>240.0</ele><time>2026-05-02T04:50:59.49Z</time></trkpt><trkpt lat="40.7617983" lon="14.7887"><ele>239.0</ele><time>2026-05-02T04:51:00.49Z</time></trkpt><trkpt lat="40.7620617" lon="14.7887433"><ele>238.0</ele><time>2026-05-02T04:51:01.49Z</time></trkpt><trkpt lat="40.76233" lon="14.7887817"><ele>238.0</ele><time>2026-05-02T04:51:02.49Z</time></trkpt><trkpt lat="40.7625917" lon="14.7888167"><ele>238.0</ele><time>2026-05-02T04:51:03.49Z</time></trkpt><trkpt lat="40.7628567" lon="14.7888483"><ele>237.5</ele><time>2026-05-02T04:51:04.49Z</time></trkpt><trkpt lat="40.7631167" lon="14.7888783"><ele>237.0</ele><time>2026-05-02T04:51:05.49Z</time></trkpt><trkpt lat="40.7633683" lon="14.7889017"><ele>235.0</ele><time>2026-05-02T04:51:06.491Z</time></trkpt><trkpt lat="40.7636267" lon="14.7889183"><ele>233.0</ele><time>2026-05-02T04:51:07.49Z</time></trkpt><trkpt lat="40.7638833" lon="14.78892"><ele>233.0</ele><time>2026-05-02T04:51:08.49Z</time></trkpt><trkpt lat="40.764135" lon="14.78892"><ele>233.0</ele><time>2026-05-02T04:51:09.49Z</time></trkpt><trkpt lat="40.7643883" lon="14.788905"><ele>232.5</ele><time>2026-05-02T04:51:10.49Z</time></trkpt><trkpt lat="40.7646417" lon="14.78889"><ele>232.0</ele><time>2026-05-02T04:51:11.49Z</time></trkpt><trkpt lat="40.7649" lon="14.78887"><ele>232.0</ele><time>2026-05-02T04:51:12.49Z</time></trkpt><trkpt lat="40.7651567" lon="14.788845"><ele>232.0</ele><time>2026-05-02T04:51:13.49Z</time></trkpt><trkpt lat="40.7654133" lon="14.7888133"><ele>233.5</ele><time>2026-05-02T04:51:14.49Z</time></trkpt><trkpt lat="40.7656667" lon="14.7887783"><ele>235.0</ele><time>2026-05-02T04:51:15.49Z</time></trkpt><trkpt lat="40.76592" lon="14.7887367"><ele>235.0</ele><time>2026-05-02T04:51:16.49Z</time></trkpt><trkpt lat="40.766165" lon="14.7886933"><ele>235.0</ele><time>2026-05-02T04:51:17.49Z</time></trkpt><trkpt lat="40.7664117" lon="14.7886267"><ele>235.0</ele><time>2026-05-02T04:51:18.49Z</time></trkpt><trkpt lat="40.7666583" lon="14.7885633"><ele>235.0</ele><time>2026-05-02T04:51:19.49Z</time></trkpt><trkpt lat="40.7669" lon="14.7884933"><ele>235.0</ele><time>2026-05-02T04:51:20.49Z</time></trkpt><trkpt lat="40.7671367" lon="14.7884283"><ele>235.0</ele><time>2026-05-02T04:51:21.49Z</time></trkpt><trkpt lat="40.767365" lon="14.78835"><ele>235.0</ele><time>2026-05-02T04:51:22.49Z</time></trkpt><trkpt lat="40.7675983" lon="14.788275"><ele>235.0</ele><time>2026-05-02T04:51:23.49Z</time></trkpt><trkpt lat="40.7678283" lon="14.7881867"><ele>235.5</ele><time>2026-05-02T04:51:24.49Z</time></trkpt><trkpt lat="40.7680483" lon="14.7880967"><ele>236.0</ele><time>2026-05-02T04:51:25.49Z</time></trkpt><trkpt lat="40.7682633" lon="14.7880017"><ele>236.0</ele><time>2026-05-02T04:51:26.49Z</time></trkpt><trkpt lat="40.7684783" lon="14.7878917"><ele>236.0</ele><time>2026-05-02T04:51:27.491Z</time></trkpt><trkpt lat="40.76868" lon="14.78777"><ele>236.0</ele><time>2026-05-02T04:51:28.49Z</time></trkpt><trkpt lat="40.76889" lon="14.7876383"><ele>236.0</ele><time>2026-05-02T04:51:29.49Z</time></trkpt><trkpt lat="40.76909" lon="14.7874933"><ele>236.0</ele><time>2026-05-02T04:51:30.49Z</time></trkpt><trkpt lat="40.7692867" lon="14.7873333"><ele>236.0</ele><time>2026-05-02T04:51:31.49Z</time></trkpt><trkpt lat="40.769475" lon="14.7871667"><ele>236.0</ele><time>2026-05-02T04:51:32.49Z</time></trkpt><trkpt lat="40.7696583" lon="14.7869883"><ele>236.0</ele><time>2026-05-02T04:51:33.49Z</time></trkpt><trkpt lat="40.769845" lon="14.7867917"><ele>236.0</ele><time>2026-05-02T04:51:34.49Z</time></trkpt><trkpt lat="40.7700183" lon="14.7865867"><ele>236.0</ele><time>2026-05-02T04:51:35.49Z</time></trkpt><trkpt lat="40.7701967" lon="14.7863767"><ele>235.5</ele><time>2026-05-02T04:51:36.491Z</time></trkpt><trkpt lat="40.770365" lon="14.78615"><ele>235.0</ele><time>2026-05-02T04:51:37.49Z</time></trkpt><trkpt lat="40.77052" lon="14.78592"><ele>235.0</ele><time>2026-05-02T04:51:38.49Z</time></trkpt><trkpt lat="40.7706683" lon="14.7856767"><ele>235.0</ele><time>2026-05-02T04:51:39.49Z</time></trkpt><trkpt lat="40.770805" lon="14.7854317"><ele>233.5</ele><time>2026-05-02T04:51:40.49Z</time></trkpt><trkpt lat="40.7709367" lon="14.78517"><ele>232.0</ele><time>2026-05-02T04:51:41.49Z</time></trkpt><trkpt lat="40.7710617" lon="14.784905"><ele>231.5</ele><time>2026-05-02T04:51:42.49Z</time></trkpt><trkpt lat="40.7711783" lon="14.7846283"><ele>231.0</ele><time>2026-05-02T04:51:43.49Z</time></trkpt><trkpt lat="40.7712833" lon="14.7843417"><ele>229.5</ele><time>2026-05-02T04:51:44.491Z</time></trkpt><trkpt lat="40.77138" lon="14.784045"><ele>228.0</ele><time>2026-05-02T04:51:45.49Z</time></trkpt><trkpt lat="40.7714683" lon="14.7837367"><ele>228.5</ele><time>2026-05-02T04:51:46.49Z</time></trkpt><trkpt lat="40.7715517" lon="14.783415"><ele>229.0</ele><time>2026-05-02T04:51:47.49Z</time></trkpt><trkpt lat="40.7716233" lon="14.78309"><ele>229.0</ele><time>2026-05-02T04:51:48.49Z</time></trkpt><trkpt lat="40.7716883" lon="14.7827683"><ele>229.0</ele><time>2026-05-02T04:51:49.491Z</time></trkpt><trkpt lat="40.7717367" lon="14.7824417"><ele>227.5</ele><time>2026-05-02T04:51:50.49Z</time></trkpt><trkpt lat="40.7717833" lon="14.7821133"><ele>226.0</ele><time>2026-05-02T04:51:51.49Z</time></trkpt><trkpt lat="40.77182" lon="14.78178"><ele>225.0</ele><time>2026-05-02T04:51:52.49Z</time></trkpt><trkpt lat="40.771855" lon="14.7814467"><ele>224.0</ele><time>2026-05-02T04:51:53.49Z</time></trkpt><trkpt lat="40.7718917" lon="14.7811167"><ele>222.0</ele><time>2026-05-02T04:51:54.49Z</time></trkpt><trkpt lat="40.7719267" lon="14.78079"><ele>220.0</ele><time>2026-05-02T04:51:55.49Z</time></trkpt><trkpt lat="40.7719567" lon="14.780465"><ele>218.5</ele><time>2026-05-02T04:51:56.49Z</time></trkpt><trkpt lat="40.7719983" lon="14.7801333"><ele>217.0</ele><time>2026-05-02T04:51:57.49Z</time></trkpt><trkpt lat="40.7720317" lon="14.77981"><ele>217.0</ele><time>2026-05-02T04:51:58.49Z</time></trkpt><trkpt lat="40.7720683" lon="14.7794783"><ele>217.0</ele><time>2026-05-02T04:51:59.49Z</time></trkpt><trkpt lat="40.7721067" lon="14.779145"><ele>214.5</ele><time>2026-05-02T04:52:00.49Z</time></trkpt><trkpt lat="40.7721417" lon="14.7788133"><ele>212.0</ele><time>2026-05-02T04:52:01.49Z</time></trkpt><trkpt lat="40.7721833" lon="14.7784833"><ele>210.0</ele><time>2026-05-02T04:52:02.49Z</time></trkpt><trkpt lat="40.7722217" lon="14.7781467"><ele>208.0</ele><time>2026-05-02T04:52:03.49Z</time></trkpt><trkpt lat="40.7722633" lon="14.7778133"><ele>207.0</ele><time>2026-05-02T04:52:04.49Z</time></trkpt><trkpt lat="40.7723017" lon="14.7774867"><ele>206.0</ele><time>2026-05-02T04:52:05.49Z</time></trkpt><trkpt lat="40.772345" lon="14.7771567"><ele>204.5</ele><time>2026-05-02T04:52:06.49Z</time></trkpt><trkpt lat="40.7723883" lon="14.7768267"><ele>203.0</ele><time>2026-05-02T04:52:07.49Z</time></trkpt><trkpt lat="40.7724283" lon="14.7765017"><ele>203.0</ele><time>2026-05-02T04:52:08.49Z</time></trkpt><trkpt lat="40.772465" lon="14.776175"><ele>203.0</ele><time>2026-05-02T04:52:09.49Z</time></trkpt><trkpt lat="40.7725017" lon="14.775855"><ele>200.5</ele><time>2026-05-02T04:52:10.49Z</time></trkpt><trkpt lat="40.7725383" lon="14.77554"><ele>198.0</ele><time>2026-05-02T04:52:11.49Z</time></trkpt><trkpt lat="40.7725767" lon="14.775215"><ele>196.5</ele><time>2026-05-02T04:52:12.49Z</time></trkpt><trkpt lat="40.7726167" lon="14.774885"><ele>195.0</ele><time>2026-05-02T04:52:13.49Z</time></trkpt><trkpt lat="40.77265" lon="14.7745617"><ele>193.5</ele><time>2026-05-02T04:52:14.49Z</time></trkpt><trkpt lat="40.7726883" lon="14.7742367"><ele>192.0</ele><time>2026-05-02T04:52:15.49Z</time></trkpt><trkpt lat="40.7727233" lon="14.7738967"><ele>192.0</ele><time>2026-05-02T04:52:16.49Z</time></trkpt><trkpt lat="40.77276" lon="14.7735583"><ele>192.0</ele><time>2026-05-02T04:52:17.49Z</time></trkpt><trkpt lat="40.7728033" lon="14.77322"><ele>191.5</ele><time>2026-05-02T04:52:18.49Z</time></trkpt><trkpt lat="40.77284" lon="14.7728783"><ele>191.0</ele><time>2026-05-02T04:52:19.49Z</time></trkpt><trkpt lat="40.7728767" lon="14.7725283"><ele>189.5</ele><time>2026-05-02T04:52:20.49Z</time></trkpt><trkpt lat="40.772915" lon="14.7721767"><ele>188.0</ele><time>2026-05-02T04:52:21.49Z</time></trkpt><trkpt lat="40.7729567" lon="14.7718217"><ele>186.5</ele><time>2026-05-02T04:52:22.49Z</time></trkpt><trkpt lat="40.7729983" lon="14.7714633"><ele>185.0</ele><time>2026-05-02T04:52:23.49Z</time></trkpt><trkpt lat="40.773035" lon="14.771105"><ele>184.0</ele><time>2026-05-02T04:52:24.49Z</time></trkpt><trkpt lat="40.773075" lon="14.7707533"><ele>183.0</ele><time>2026-05-02T04:52:25.49Z</time></trkpt><trkpt lat="40.7731183" lon="14.7704"><ele>182.0</ele><time>2026-05-02T04:52:26.49Z</time></trkpt><trkpt lat="40.7731583" lon="14.7700467"><ele>181.0</ele><time>2026-05-02T04:52:27.49Z</time></trkpt><trkpt lat="40.7732" lon="14.7696967"><ele>178.0</ele><time>2026-05-02T04:52:28.491Z</time></trkpt><trkpt lat="40.7732383" lon="14.76935"><ele>175.0</ele><time>2026-05-02T04:52:29.49Z</time></trkpt><trkpt lat="40.77328" lon="14.7690083"><ele>175.0</ele><time>2026-05-02T04:52:30.49Z</time></trkpt><trkpt lat="40.77332" lon="14.7686667"><ele>175.0</ele><time>2026-05-02T04:52:31.49Z</time></trkpt><trkpt lat="40.773355" lon="14.768325"><ele>173.0</ele><time>2026-05-02T04:52:32.49Z</time></trkpt><trkpt lat="40.7734" lon="14.767975"><ele>171.0</ele><time>2026-05-02T04:52:33.49Z</time></trkpt><trkpt lat="40.7734467" lon="14.7676333"><ele>170.0</ele><time>2026-05-02T04:52:34.49Z</time></trkpt><trkpt lat="40.7735" lon="14.7672967"><ele>169.0</ele><time>2026-05-02T04:52:35.49Z</time></trkpt><trkpt lat="40.7735533" lon="14.766955"><ele>168.0</ele><time>2026-05-02T04:52:36.49Z</time></trkpt><trkpt lat="40.7736167" lon="14.7666067"><ele>167.0</ele><time>2026-05-02T04:52:37.49Z</time></trkpt><trkpt lat="40.77368" lon="14.7662567"><ele>165.5</ele><time>2026-05-02T04:52:38.49Z</time></trkpt><trkpt lat="40.773745" lon="14.7659067"><ele>164.0</ele><time>2026-05-02T04:52:39.49Z</time></trkpt><trkpt lat="40.7738017" lon="14.7655633"><ele>164.0</ele><time>2026-05-02T04:52:40.49Z</time></trkpt><trkpt lat="40.77386" lon="14.7652167"><ele>164.0</ele><time>2026-05-02T04:52:41.49Z</time></trkpt><trkpt lat="40.77392" lon="14.7648683"><ele>162.0</ele><time>2026-05-02T04:52:42.49Z</time></trkpt><trkpt lat="40.7739817" lon="14.76452"><ele>160.0</ele><time>2026-05-02T04:52:43.49Z</time></trkpt><trkpt lat="40.774045" lon="14.7641733"><ele>158.0</ele><time>2026-05-02T04:52:44.49Z</time></trkpt><trkpt lat="40.774105" lon="14.7638283"><ele>156.0</ele><time>2026-05-02T04:52:45.49Z</time></trkpt><trkpt lat="40.7741667" lon="14.763485"><ele>156.0</ele><time>2026-05-02T04:52:46.49Z</time></trkpt><trkpt lat="40.7742283" lon="14.7631417"><ele>156.0</ele><time>2026-05-02T04:52:47.49Z</time></trkpt><trkpt lat="40.7742783" lon="14.7628033"><ele>155.5</ele><time>2026-05-02T04:52:48.49Z</time></trkpt><trkpt lat="40.774325" lon="14.7624633"><ele>155.0</ele><time>2026-05-02T04:52:49.49Z</time></trkpt><trkpt lat="40.774355" lon="14.7621183"><ele>153.0</ele><time>2026-05-02T04:52:50.49Z</time></trkpt><trkpt lat="40.7743783" lon="14.7617667"><ele>151.0</ele><time>2026-05-02T04:52:51.49Z</time></trkpt><trkpt lat="40.77439" lon="14.7614217"><ele>151.0</ele><time>2026-05-02T04:52:52.49Z</time></trkpt><trkpt lat="40.7743917" lon="14.7610767"><ele>151.0</ele><time>2026-05-02T04:52:53.491Z</time></trkpt><trkpt lat="40.7743833" lon="14.7607317"><ele>150.5</ele><time>2026-05-02T04:52:54.49Z</time></trkpt><trkpt lat="40.7743717" lon="14.76039"><ele>150.0</ele><time>2026-05-02T04:52:55.49Z</time></trkpt><trkpt lat="40.7743433" lon="14.760045"><ele>150.0</ele><time>2026-05-02T04:52:56.491Z</time></trkpt><trkpt lat="40.7743083" lon="14.759705"><ele>150.0</ele><time>2026-05-02T04:52:57.49Z</time></trkpt><trkpt lat="40.7742683" lon="14.7593667"><ele>150.5</ele><time>2026-05-02T04:52:58.49Z</time></trkpt><trkpt lat="40.77422" lon="14.7590333"><ele>151.0</ele><time>2026-05-02T04:52:59.49Z</time></trkpt><trkpt lat="40.7741633" lon="14.7587017"><ele>150.0</ele><time>2026-05-02T04:53:00.49Z</time></trkpt><trkpt lat="40.7741" lon="14.7583717"><ele>149.0</ele><time>2026-05-02T04:53:01.491Z</time></trkpt><trkpt lat="40.7740267" lon="14.758045"><ele>149.0</ele><time>2026-05-02T04:53:02.49Z</time></trkpt><trkpt lat="40.7739417" lon="14.7577167"><ele>149.0</ele><time>2026-05-02T04:53:03.491Z</time></trkpt><trkpt lat="40.7738467" lon="14.7573983"><ele>147.5</ele><time>2026-05-02T04:53:04.49Z</time></trkpt><trkpt lat="40.773745" lon="14.75709"><ele>146.0</ele><time>2026-05-02T04:53:05.49Z</time></trkpt><trkpt lat="40.7736333" lon="14.7567883"><ele>146.5</ele><time>2026-05-02T04:53:06.49Z</time></trkpt><trkpt lat="40.773515" lon="14.7564867"><ele>147.0</ele><time>2026-05-02T04:53:07.49Z</time></trkpt><trkpt lat="40.7733983" lon="14.7561767"><ele>147.0</ele><time>2026-05-02T04:53:08.491Z</time></trkpt><trkpt lat="40.7732783" lon="14.755865"><ele>147.0</ele><time>2026-05-02T04:53:09.49Z</time></trkpt><trkpt lat="40.7731517" lon="14.7555533"><ele>147.0</ele><time>2026-05-02T04:53:10.49Z</time></trkpt><trkpt lat="40.7730283" lon="14.7552383"><ele>147.0</ele><time>2026-05-02T04:53:11.49Z</time></trkpt><trkpt lat="40.7729067" lon="14.7549217"><ele>148.0</ele><time>2026-05-02T04:53:12.491Z</time></trkpt><trkpt lat="40.7727833" lon="14.75461"><ele>149.0</ele><time>2026-05-02T04:53:13.491Z</time></trkpt><trkpt lat="40.7726633" lon="14.7542817"><ele>151.5</ele><time>2026-05-02T04:53:14.491Z</time></trkpt><trkpt lat="40.7725383" lon="14.7539617"><ele>154.0</ele><time>2026-05-02T04:53:15.491Z</time></trkpt><trkpt lat="40.7724117" lon="14.7536433"><ele>154.5</ele><time>2026-05-02T04:53:16.491Z</time></trkpt><trkpt lat="40.7722883" lon="14.7533233"><ele>155.0</ele><time>2026-05-02T04:53:17.491Z</time></trkpt><trkpt lat="40.77216" lon="14.752995"><ele>155.0</ele><time>2026-05-02T04:53:18.491Z</time></trkpt><trkpt lat="40.7720333" lon="14.75268"><ele>155.0</ele><time>2026-05-02T04:53:19.491Z</time></trkpt><trkpt lat="40.7719017" lon="14.7523583"><ele>157.0</ele><time>2026-05-02T04:53:20.491Z</time></trkpt><trkpt lat="40.7717767" lon="14.7520317"><ele>159.0</ele><time>2026-05-02T04:53:21.491Z</time></trkpt><trkpt lat="40.7716517" lon="14.7517083"><ele>159.0</ele><time>2026-05-02T04:53:22.491Z</time></trkpt><trkpt lat="40.7715283" lon="14.751385"><ele>159.0</ele><time>2026-05-02T04:53:23.491Z</time></trkpt><trkpt lat="40.7714167" lon="14.7510533"><ele>159.0</ele><time>2026-05-02T04:53:24.491Z</time></trkpt><trkpt lat="40.7713067" lon="14.75072"><ele>159.0</ele><time>2026-05-02T04:53:25.491Z</time></trkpt><trkpt lat="40.7712017" lon="14.7503817"><ele>159.5</ele><time>2026-05-02T04:53:26.491Z</time></trkpt><trkpt lat="40.7710983" lon="14.7500433"><ele>160.0</ele><time>2026-05-02T04:53:27.491Z</time></trkpt><trkpt lat="40.771005" lon="14.7496983"><ele>162.0</ele><time>2026-05-02T04:53:28.491Z</time></trkpt><trkpt lat="40.77092" lon="14.7493567"><ele>164.0</ele><time>2026-05-02T04:53:29.491Z</time></trkpt><trkpt lat="40.770835" lon="14.7490117"><ele>164.0</ele><time>2026-05-02T04:53:30.491Z</time></trkpt><trkpt lat="40.7707583" lon="14.748665"><ele>164.0</ele><time>2026-05-02T04:53:31.491Z</time></trkpt><trkpt lat="40.7706917" lon="14.7483233"><ele>164.5</ele><time>2026-05-02T04:53:32.491Z</time></trkpt><trkpt lat="40.770635" lon="14.74797"><ele>165.0</ele><time>2026-05-02T04:53:33.491Z</time></trkpt><trkpt lat="40.7705883" lon="14.7476283"><ele>165.5</ele><time>2026-05-02T04:53:34.491Z</time></trkpt><trkpt lat="40.77054" lon="14.7472867"><ele>166.0</ele><time>2026-05-02T04:53:35.492Z</time></trkpt><trkpt lat="40.7705067" lon="14.7469433"><ele>170.5</ele><time>2026-05-02T04:53:36.491Z</time></trkpt><trkpt lat="40.7704833" lon="14.7465933"><ele>175.0</ele><time>2026-05-02T04:53:37.491Z</time></trkpt><trkpt lat="40.7704633" lon="14.746245"><ele>171.5</ele><time>2026-05-02T04:53:38.491Z</time></trkpt><trkpt lat="40.77045" lon="14.7459067"><ele>168.0</ele><time>2026-05-02T04:53:39.491Z</time></trkpt><trkpt lat="40.7704467" lon="14.7455567"><ele>164.0</ele><time>2026-05-02T04:53:40.491Z</time></trkpt><trkpt lat="40.7704517" lon="14.7452117"><ele>160.0</ele><time>2026-05-02T04:53:41.491Z</time></trkpt><trkpt lat="40.7704583" lon="14.744865"><ele>160.0</ele><time>2026-05-02T04:53:42.491Z</time></trkpt><trkpt lat="40.7704733" lon="14.74452"><ele>160.0</ele><time>2026-05-02T04:53:43.491Z</time></trkpt><trkpt lat="40.7704917" lon="14.744185"><ele>162.0</ele><time>2026-05-02T04:53:44.491Z</time></trkpt><trkpt lat="40.7705183" lon="14.743835"><ele>164.0</ele><time>2026-05-02T04:53:45.491Z</time></trkpt><trkpt lat="40.7705517" lon="14.7434883"><ele>166.5</ele><time>2026-05-02T04:53:46.491Z</time></trkpt><trkpt lat="40.7705917" lon="14.7431367"><ele>169.0</ele><time>2026-05-02T04:53:47.491Z</time></trkpt><trkpt lat="40.7706317" lon="14.7427867"><ele>174.5</ele><time>2026-05-02T04:53:48.491Z</time></trkpt><trkpt lat="40.7706517" lon="14.74244"><ele>180.0</ele><time>2026-05-02T04:53:49.491Z</time></trkpt><trkpt lat="40.7706683" lon="14.7420983"><ele>188.5</ele><time>2026-05-02T04:53:50.491Z</time></trkpt><trkpt lat="40.7706867" lon="14.741755"><ele>197.0</ele><time>2026-05-02T04:53:51.491Z</time></trkpt><trkpt lat="40.770705" lon="14.7414133"><ele>175.0</ele><time>2026-05-02T04:53:52.491Z</time></trkpt><trkpt lat="40.77082" lon="14.7400417"><ele>175.0</ele><time>2026-05-02T04:53:56.49Z</time></trkpt><trkpt lat="40.7708883" lon="14.7397067"><ele>175.0</ele><time>2026-05-02T04:53:57.49Z</time></trkpt><trkpt lat="40.7710067" lon="14.7394083"><ele>158.5</ele><time>2026-05-02T04:53:58.49Z</time></trkpt><trkpt lat="40.77105" lon="14.7390667"><ele>142.0</ele><time>2026-05-02T04:53:59.49Z</time></trkpt><trkpt lat="40.771095" lon="14.738725"><ele>142.5</ele><time>2026-05-02T04:54:00.49Z</time></trkpt><trkpt lat="40.771145" lon="14.7383767"><ele>143.0</ele><time>2026-05-02T04:54:01.491Z</time></trkpt><trkpt lat="40.7711717" lon="14.7380517"><ele>144.5</ele><time>2026-05-02T04:54:02.49Z</time></trkpt><trkpt lat="40.7712367" lon="14.73771"><ele>146.0</ele><time>2026-05-02T04:54:03.49Z</time></trkpt><trkpt lat="40.771305" lon="14.7373617"><ele>146.0</ele><time>2026-05-02T04:54:04.49Z</time></trkpt><trkpt lat="40.771385" lon="14.73702"><ele>146.0</ele><time>2026-05-02T04:54:05.491Z</time></trkpt><trkpt lat="40.771465" lon="14.7366767"><ele>146.0</ele><time>2026-05-02T04:54:06.491Z</time></trkpt><trkpt lat="40.7715583" lon="14.736335"><ele>146.0</ele><time>2026-05-02T04:54:07.49Z</time></trkpt><trkpt lat="40.7716583" lon="14.736"><ele>147.0</ele><time>2026-05-02T04:54:08.49Z</time></trkpt><trkpt lat="40.7717567" lon="14.73567"><ele>148.0</ele><time>2026-05-02T04:54:09.49Z</time></trkpt><trkpt lat="40.77186" lon="14.735345"><ele>143.5</ele><time>2026-05-02T04:54:10.491Z</time></trkpt><trkpt lat="40.7719533" lon="14.73502"><ele>139.0</ele><time>2026-05-02T04:54:11.49Z</time></trkpt><trkpt lat="40.772045" lon="14.734695"><ele>137.5</ele><time>2026-05-02T04:54:12.49Z</time></trkpt><trkpt lat="40.77214" lon="14.7343667"><ele>136.0</ele><time>2026-05-02T04:54:13.49Z</time></trkpt><trkpt lat="40.7722383" lon="14.7340367"><ele>136.0</ele><time>2026-05-02T04:54:14.49Z</time></trkpt><trkpt lat="40.7723233" lon="14.733705"><ele>136.0</ele><time>2026-05-02T04:54:15.49Z</time></trkpt><trkpt lat="40.7723967" lon="14.733375"><ele>134.5</ele><time>2026-05-02T04:54:16.49Z</time></trkpt><trkpt lat="40.7724567" lon="14.7330417"><ele>133.0</ele><time>2026-05-02T04:54:17.49Z</time></trkpt><trkpt lat="40.772505" lon="14.7327033"><ele>132.5</ele><time>2026-05-02T04:54:18.49Z</time></trkpt><trkpt lat="40.7725483" lon="14.7323567"><ele>132.0</ele><time>2026-05-02T04:54:19.49Z</time></trkpt><trkpt lat="40.7725783" lon="14.7320183"><ele>130.5</ele><time>2026-05-02T04:54:20.49Z</time></trkpt><trkpt lat="40.7726033" lon="14.73169"><ele>129.0</ele><time>2026-05-02T04:54:21.491Z</time></trkpt><trkpt lat="40.77262" lon="14.73136"><ele>129.0</ele><time>2026-05-02T04:54:22.491Z</time></trkpt><trkpt lat="40.77263" lon="14.7310233"><ele>129.0</ele><time>2026-05-02T04:54:23.49Z</time></trkpt><trkpt lat="40.7726383" lon="14.7307017"><ele>129.0</ele><time>2026-05-02T04:54:24.49Z</time></trkpt><trkpt lat="40.7726417" lon="14.7303817"><ele>129.0</ele><time>2026-05-02T04:54:25.49Z</time></trkpt><trkpt lat="40.772645" lon="14.73007"><ele>130.0</ele><time>2026-05-02T04:54:26.49Z</time></trkpt><trkpt lat="40.772645" lon="14.72976"><ele>131.0</ele><time>2026-05-02T04:54:27.49Z</time></trkpt><trkpt lat="40.7726567" lon="14.7294617"><ele>131.0</ele><time>2026-05-02T04:54:28.49Z</time></trkpt><trkpt lat="40.7726717" lon="14.729175"><ele>131.0</ele><time>2026-05-02T04:54:29.49Z</time></trkpt><trkpt lat="40.7726917" lon="14.7289117"><ele>131.0</ele><time>2026-05-02T04:54:30.49Z</time></trkpt><trkpt lat="40.7726983" lon="14.728665"><ele>129.33333333333331</ele><time>2026-05-02T04:54:31.49Z</time></trkpt><trkpt lat="40.7727133" lon="14.7284333"><ele>127.66666666666666</ele><time>2026-05-02T04:54:32.49Z</time></trkpt><trkpt lat="40.772745" lon="14.7282217"><ele>126.0</ele><time>2026-05-02T04:54:33.49Z</time></trkpt><trkpt lat="40.77277" lon="14.728025"><ele>126.0</ele><time>2026-05-02T04:54:34.49Z</time></trkpt><trkpt lat="40.77279" lon="14.7278433"><ele>126.0</ele><time>2026-05-02T04:54:35.491Z</time></trkpt><trkpt lat="40.7728117" lon="14.7276783"><ele>126.0</ele><time>2026-05-02T04:54:36.49Z</time></trkpt><trkpt lat="40.7728133" lon="14.7275383"><ele>126.0</ele><time>2026-05-02T04:54:37.49Z</time></trkpt><trkpt lat="40.7728183" lon="14.7274"><ele>125.8</ele><time>2026-05-02T04:54:38.49Z</time></trkpt><trkpt lat="40.7728117" lon="14.7272767"><ele>125.6</ele><time>2026-05-02T04:54:39.49Z</time></trkpt><trkpt lat="40.7728067" lon="14.7271667"><ele>125.4</ele><time>2026-05-02T04:54:40.49Z</time></trkpt><trkpt lat="40.7727967" lon="14.727055"><ele>125.2</ele><time>2026-05-02T04:54:41.49Z</time></trkpt><trkpt lat="40.77279" lon="14.726925"><ele>125.0</ele><time>2026-05-02T04:54:42.49Z</time></trkpt><trkpt lat="40.7727917" lon="14.7267817"><ele>125.5</ele><time>2026-05-02T04:54:43.49Z</time></trkpt><trkpt lat="40.7727917" lon="14.726625"><ele>126.0</ele><time>2026-05-02T04:54:44.49Z</time></trkpt><trkpt lat="40.77278" lon="14.72645"><ele>126.5</ele><time>2026-05-02T04:54:45.49Z</time></trkpt><trkpt lat="40.7727567" lon="14.7262633"><ele>127.0</ele><time>2026-05-02T04:54:46.49Z</time></trkpt><trkpt lat="40.7727317" lon="14.72607"><ele>126.33333333333334</ele><time>2026-05-02T04:54:47.49Z</time></trkpt><trkpt lat="40.772715" lon="14.7258717"><ele>125.66666666666666</ele><time>2026-05-02T04:54:48.49Z</time></trkpt><trkpt lat="40.7726983" lon="14.725675"><ele>125.0</ele><time>2026-05-02T04:54:49.49Z</time></trkpt><trkpt lat="40.77269" lon="14.7254683"><ele>127.33333333333333</ele><time>2026-05-02T04:54:50.49Z</time></trkpt><trkpt lat="40.7726867" lon="14.725245"><ele>129.66666666666666</ele><time>2026-05-02T04:54:51.49Z</time></trkpt><trkpt lat="40.7726817" lon="14.7250233"><ele>132.0</ele><time>2026-05-02T04:54:52.491Z</time></trkpt><trkpt lat="40.7726783" lon="14.7247867"><ele>132.33333333333334</ele><time>2026-05-02T04:54:53.49Z</time></trkpt><trkpt lat="40.7726733" lon="14.724535"><ele>132.66666666666669</ele><time>2026-05-02T04:54:54.49Z</time></trkpt><trkpt lat="40.7726633" lon="14.7242783"><ele>133.0</ele><time>2026-05-02T04:54:55.49Z</time></trkpt><trkpt lat="40.7726583" lon="14.724015"><ele>133.66666666666669</ele><time>2026-05-02T04:54:56.49Z</time></trkpt><trkpt lat="40.772655" lon="14.7237483"><ele>134.33333333333334</ele><time>2026-05-02T04:54:57.49Z</time></trkpt><trkpt lat="40.7726517" lon="14.7234783"><ele>135.0</ele><time>2026-05-02T04:54:58.491Z</time></trkpt><trkpt lat="40.7726533" lon="14.7232017"><ele>135.33333333333334</ele><time>2026-05-02T04:54:59.49Z</time></trkpt><trkpt lat="40.7726517" lon="14.7229183"><ele>135.66666666666669</ele><time>2026-05-02T04:55:00.49Z</time></trkpt><trkpt lat="40.7726533" lon="14.7226267"><ele>136.0</ele><time>2026-05-02T04:55:01.49Z</time></trkpt><trkpt lat="40.7726617" lon="14.7223233"><ele>134.5</ele><time>2026-05-02T04:55:02.49Z</time></trkpt><trkpt lat="40.7726667" lon="14.722015"><ele>133.0</ele><time>2026-05-02T04:55:03.49Z</time></trkpt><trkpt lat="40.7726667" lon="14.7217017"><ele>132.0</ele><time>2026-05-02T04:55:04.49Z</time></trkpt><trkpt lat="40.77267" lon="14.7213817"><ele>131.0</ele><time>2026-05-02T04:55:05.49Z</time></trkpt><trkpt lat="40.7726733" lon="14.7210583"><ele>129.0</ele><time>2026-05-02T04:55:06.49Z</time></trkpt><trkpt lat="40.7726767" lon="14.7207383"><ele>127.0</ele><time>2026-05-02T04:55:07.49Z</time></trkpt><trkpt lat="40.772675" lon="14.7204233"><ele>127.0</ele><time>2026-05-02T04:55:08.49Z</time></trkpt><trkpt lat="40.77268" lon="14.7201"><ele>127.0</ele><time>2026-05-02T04:55:09.491Z</time></trkpt><trkpt lat="40.772685" lon="14.719775"><ele>127.0</ele><time>2026-05-02T04:55:10.49Z</time></trkpt><trkpt lat="40.7726833" lon="14.7194517"><ele>127.0</ele><time>2026-05-02T04:55:11.49Z</time></trkpt><trkpt lat="40.7726867" lon="14.7191283"><ele>132.5</ele><time>2026-05-02T04:55:12.49Z</time></trkpt><trkpt lat="40.7726817" lon="14.7188017"><ele>138.0</ele><time>2026-05-02T04:55:13.49Z</time></trkpt><trkpt lat="40.77268" lon="14.7184733"><ele>145.0</ele><time>2026-05-02T04:55:14.49Z</time></trkpt><trkpt lat="40.77268" lon="14.7181383"><ele>152.0</ele><time>2026-05-02T04:55:15.49Z</time></trkpt><trkpt lat="40.7726817" lon="14.717795"><ele>155.5</ele><time>2026-05-02T04:55:16.49Z</time></trkpt><trkpt lat="40.772675" lon="14.717465"><ele>159.0</ele><time>2026-05-02T04:55:17.49Z</time></trkpt><trkpt lat="40.7726733" lon="14.71713"><ele>157.0</ele><time>2026-05-02T04:55:18.49Z</time></trkpt><trkpt lat="40.7726717" lon="14.716795"><ele>155.0</ele><time>2026-05-02T04:55:19.49Z</time></trkpt><trkpt lat="40.7710967" lon="14.712805"><ele>138.0</ele><time>2026-05-02T04:55:32.49Z</time></trkpt><trkpt lat="40.7709433" lon="14.7125233"><ele>121.0</ele><time>2026-05-02T04:55:33.49Z</time></trkpt><trkpt lat="40.7707933" lon="14.7122417"><ele>121.0</ele><time>2026-05-02T04:55:34.49Z</time></trkpt><trkpt lat="40.7706417" lon="14.7119617"><ele>121.0</ele><time>2026-05-02T04:55:35.491Z</time></trkpt><trkpt lat="40.7704883" lon="14.7116867"><ele>122.5</ele><time>2026-05-02T04:55:36.49Z</time></trkpt><trkpt lat="40.77033" lon="14.7114083"><ele>124.0</ele><time>2026-05-02T04:55:37.49Z</time></trkpt><trkpt lat="40.7701783" lon="14.7111383"><ele>121.0</ele><time>2026-05-02T04:55:38.49Z</time></trkpt><trkpt lat="40.77002" lon="14.7108733"><ele>118.0</ele><time>2026-05-02T04:55:39.49Z</time></trkpt><trkpt lat="40.7698617" lon="14.7106"><ele>118.0</ele><time>2026-05-02T04:55:40.49Z</time></trkpt><trkpt lat="40.7697017" lon="14.710335"><ele>118.0</ele><time>2026-05-02T04:55:41.49Z</time></trkpt><trkpt lat="40.7695433" lon="14.71007"><ele>121.0</ele><time>2026-05-02T04:55:42.49Z</time></trkpt><trkpt lat="40.7693867" lon="14.7098083"><ele>124.0</ele><time>2026-05-02T04:55:43.49Z</time></trkpt><trkpt lat="40.769235" lon="14.7095467"><ele>129.5</ele><time>2026-05-02T04:55:44.49Z</time></trkpt><trkpt lat="40.769085" lon="14.7092667"><ele>135.0</ele><time>2026-05-02T04:55:45.49Z</time></trkpt><trkpt lat="40.7689267" lon="14.7089933"><ele>135.0</ele><time>2026-05-02T04:55:46.49Z</time></trkpt><trkpt lat="40.7687667" lon="14.708715"><ele>135.0</ele><time>2026-05-02T04:55:47.49Z</time></trkpt><trkpt lat="40.7686083" lon="14.70844"><ele>110.0</ele><time>2026-05-02T04:55:48.49Z</time></trkpt><trkpt lat="40.7671983" lon="14.7042833"><ele>110.0</ele><time>2026-05-02T04:56:03.49Z</time></trkpt><trkpt lat="40.7671567" lon="14.703965"><ele>110.0</ele><time>2026-05-02T04:56:04.49Z</time></trkpt><trkpt lat="40.767145" lon="14.7036533"><ele>107.5</ele><time>2026-05-02T04:56:05.49Z</time></trkpt><trkpt lat="40.7671517" lon="14.7033433"><ele>105.0</ele><time>2026-05-02T04:56:06.49Z</time></trkpt><trkpt lat="40.7671767" lon="14.7030233"><ele>104.0</ele><time>2026-05-02T04:56:07.49Z</time></trkpt><trkpt lat="40.76721" lon="14.7026967"><ele>103.0</ele><time>2026-05-02T04:56:08.49Z</time></trkpt><trkpt lat="40.7672567" lon="14.702375"><ele>103.0</ele><time>2026-05-02T04:56:09.49Z</time></trkpt><trkpt lat="40.7673133" lon="14.7020483"><ele>103.0</ele><time>2026-05-02T04:56:10.49Z</time></trkpt><trkpt lat="40.7673733" lon="14.7017133"><ele>102.5</ele><time>2026-05-02T04:56:11.49Z</time></trkpt><trkpt lat="40.767435" lon="14.7013783"><ele>102.0</ele><time>2026-05-02T04:56:12.49Z</time></trkpt><trkpt lat="40.7674917" lon="14.7010433"><ele>100.5</ele><time>2026-05-02T04:56:13.49Z</time></trkpt><trkpt lat="40.7675517" lon="14.70071"><ele>99.0</ele><time>2026-05-02T04:56:14.49Z</time></trkpt><trkpt lat="40.767605" lon="14.7003717"><ele>97.5</ele><time>2026-05-02T04:56:15.49Z</time></trkpt><trkpt lat="40.7676517" lon="14.70003"><ele>96.0</ele><time>2026-05-02T04:56:16.49Z</time></trkpt><trkpt lat="40.7676967" lon="14.6996883"><ele>92.0</ele><time>2026-05-02T04:56:17.49Z</time></trkpt><trkpt lat="40.767735" lon="14.6993483"><ele>88.0</ele><time>2026-05-02T04:56:18.49Z</time></trkpt><trkpt lat="40.7677583" lon="14.69901"><ele>88.0</ele><time>2026-05-02T04:56:19.49Z</time></trkpt><trkpt lat="40.76778" lon="14.69867"><ele>88.0</ele><time>2026-05-02T04:56:20.49Z</time></trkpt><trkpt lat="40.76779" lon="14.6983217"><ele>87.5</ele><time>2026-05-02T04:56:21.49Z</time></trkpt><trkpt lat="40.7677917" lon="14.6979767"><ele>87.0</ele><time>2026-05-02T04:56:22.49Z</time></trkpt><trkpt lat="40.7677883" lon="14.6976217"><ele>86.5</ele><time>2026-05-02T04:56:23.49Z</time></trkpt><trkpt lat="40.767775" lon="14.6972717"><ele>86.0</ele><time>2026-05-02T04:56:24.49Z</time></trkpt><trkpt lat="40.7677567" lon="14.6969217"><ele>85.5</ele><time>2026-05-02T04:56:25.49Z</time></trkpt><trkpt lat="40.7677383" lon="14.6965633"><ele>85.0</ele><time>2026-05-02T04:56:26.491Z</time></trkpt><trkpt lat="40.7677183" lon="14.6962033"><ele>85.0</ele><time>2026-05-02T04:56:27.49Z</time></trkpt><trkpt lat="40.7676983" lon="14.695845"><ele>85.0</ele><time>2026-05-02T04:56:28.49Z</time></trkpt><trkpt lat="40.7676817" lon="14.6954883"><ele>84.5</ele><time>2026-05-02T04:56:29.49Z</time></trkpt><trkpt lat="40.7676617" lon="14.695135"><ele>84.0</ele><time>2026-05-02T04:56:30.49Z</time></trkpt><trkpt lat="40.76763" lon="14.69478"><ele>83.5</ele><time>2026-05-02T04:56:31.49Z</time></trkpt><trkpt lat="40.7676067" lon="14.69442"><ele>83.0</ele><time>2026-05-02T04:56:32.49Z</time></trkpt><trkpt lat="40.7675733" lon="14.694075"><ele>83.0</ele><time>2026-05-02T04:56:33.49Z</time></trkpt><trkpt lat="40.7675517" lon="14.6937167"><ele>83.0</ele><time>2026-05-02T04:56:34.49Z</time></trkpt><trkpt lat="40.767525" lon="14.693365"><ele>83.0</ele><time>2026-05-02T04:56:35.49Z</time></trkpt><trkpt lat="40.7675033" lon="14.6930117"><ele>83.0</ele><time>2026-05-02T04:56:36.49Z</time></trkpt><trkpt lat="40.7674767" lon="14.69266"><ele>82.0</ele><time>2026-05-02T04:56:37.49Z</time></trkpt><trkpt lat="40.7674483" lon="14.6923083"><ele>81.0</ele><time>2026-05-02T04:56:38.49Z</time></trkpt><trkpt lat="40.76742" lon="14.6919533"><ele>80.5</ele><time>2026-05-02T04:56:39.49Z</time></trkpt><trkpt lat="40.7673933" lon="14.691595"><ele>80.0</ele><time>2026-05-02T04:56:40.49Z</time></trkpt><trkpt lat="40.7673733" lon="14.691235"><ele>80.0</ele><time>2026-05-02T04:56:41.49Z</time></trkpt><trkpt lat="40.7673467" lon="14.6908717"><ele>80.0</ele><time>2026-05-02T04:56:42.49Z</time></trkpt><trkpt lat="40.7673183" lon="14.69051"><ele>79.5</ele><time>2026-05-02T04:56:43.491Z</time></trkpt><trkpt lat="40.7672917" lon="14.6901467"><ele>79.0</ele><time>2026-05-02T04:56:44.49Z</time></trkpt><trkpt lat="40.76727" lon="14.6897933"><ele>79.0</ele><time>2026-05-02T04:56:45.49Z</time></trkpt><trkpt lat="40.7672433" lon="14.6894233"><ele>79.0</ele><time>2026-05-02T04:56:46.49Z</time></trkpt><trkpt lat="40.7672167" lon="14.6890583"><ele>79.0</ele><time>2026-05-02T04:56:47.49Z</time></trkpt><trkpt lat="40.7671917" lon="14.6886983"><ele>79.0</ele><time>2026-05-02T04:56:48.49Z</time></trkpt><trkpt lat="40.767165" lon="14.6883433"><ele>78.5</ele><time>2026-05-02T04:56:49.49Z</time></trkpt><trkpt lat="40.767135" lon="14.687985"><ele>78.0</ele><time>2026-05-02T04:56:50.49Z</time></trkpt><trkpt lat="40.7671117" lon="14.68763"><ele>77.5</ele><time>2026-05-02T04:56:51.49Z</time></trkpt><trkpt lat="40.76709" lon="14.68728"><ele>77.0</ele><time>2026-05-02T04:56:52.491Z</time></trkpt><trkpt lat="40.76706" lon="14.6869367"><ele>76.0</ele><time>2026-05-02T04:56:53.49Z</time></trkpt><trkpt lat="40.7670383" lon="14.6865867"><ele>75.0</ele><time>2026-05-02T04:56:54.49Z</time></trkpt><trkpt lat="40.7670133" lon="14.6862433"><ele>74.5</ele><time>2026-05-02T04:56:55.491Z</time></trkpt><trkpt lat="40.7669967" lon="14.6859033"><ele>74.0</ele><time>2026-05-02T04:56:56.49Z</time></trkpt><trkpt lat="40.7669817" lon="14.68556"><ele>74.5</ele><time>2026-05-02T04:56:57.49Z</time></trkpt><trkpt lat="40.76697" lon="14.6852217"><ele>75.0</ele><time>2026-05-02T04:56:58.49Z</time></trkpt><trkpt lat="40.7669617" lon="14.68488"><ele>75.0</ele><time>2026-05-02T04:56:59.49Z</time></trkpt><trkpt lat="40.7669567" lon="14.6845417"><ele>75.0</ele><time>2026-05-02T04:57:00.49Z</time></trkpt><trkpt lat="40.7669617" lon="14.6842033"><ele>74.5</ele><time>2026-05-02T04:57:01.49Z</time></trkpt><trkpt lat="40.7669717" lon="14.6838667"><ele>74.0</ele><time>2026-05-02T04:57:02.49Z</time></trkpt><trkpt lat="40.7669867" lon="14.6835317"><ele>72.5</ele><time>2026-05-02T04:57:03.49Z</time></trkpt><trkpt lat="40.7670083" lon="14.6831917"><ele>71.0</ele><time>2026-05-02T04:57:04.49Z</time></trkpt><trkpt lat="40.7670383" lon="14.6828533"><ele>71.5</ele><time>2026-05-02T04:57:05.491Z</time></trkpt><trkpt lat="40.7670667" lon="14.6825217"><ele>72.0</ele><time>2026-05-02T04:57:06.49Z</time></trkpt><trkpt lat="40.7671033" lon="14.6821967"><ele>71.0</ele><time>2026-05-02T04:57:07.491Z</time></trkpt><trkpt lat="40.7671367" lon="14.6818667"><ele>70.0</ele><time>2026-05-02T04:57:08.491Z</time></trkpt><trkpt lat="40.7671783" lon="14.6815383"><ele>70.0</ele><time>2026-05-02T04:57:09.49Z</time></trkpt><trkpt lat="40.767215" lon="14.6812067"><ele>70.0</ele><time>2026-05-02T04:57:10.491Z</time></trkpt><trkpt lat="40.7672617" lon="14.680875"><ele>70.0</ele><time>2026-05-02T04:57:11.49Z</time></trkpt><trkpt lat="40.7673067" lon="14.6805383"><ele>70.0</ele><time>2026-05-02T04:57:12.49Z</time></trkpt><trkpt lat="40.7673467" lon="14.6802033"><ele>70.0</ele><time>2026-05-02T04:57:13.491Z</time></trkpt><trkpt lat="40.7673933" lon="14.6798617"><ele>70.0</ele><time>2026-05-02T04:57:14.49Z</time></trkpt><trkpt lat="40.7674367" lon="14.6795233"><ele>70.0</ele><time>2026-05-02T04:57:15.49Z</time></trkpt><trkpt lat="40.7674733" lon="14.679195"><ele>70.0</ele><time>2026-05-02T04:57:16.49Z</time></trkpt><trkpt lat="40.7675133" lon="14.6788633"><ele>70.5</ele><time>2026-05-02T04:57:17.49Z</time></trkpt><trkpt lat="40.7675567" lon="14.678535"><ele>71.0</ele><time>2026-05-02T04:57:18.49Z</time></trkpt><trkpt lat="40.767605" lon="14.6782017"><ele>71.0</ele><time>2026-05-02T04:57:19.49Z</time></trkpt><trkpt lat="40.767655" lon="14.677875"><ele>71.0</ele><time>2026-05-02T04:57:20.491Z</time></trkpt><trkpt lat="40.7677133" lon="14.67755"><ele>71.0</ele><time>2026-05-02T04:57:21.49Z</time></trkpt><trkpt lat="40.7677733" lon="14.6772283"><ele>71.0</ele><time>2026-05-02T04:57:22.49Z</time></trkpt><trkpt lat="40.7678383" lon="14.6769133"><ele>70.0</ele><time>2026-05-02T04:57:23.49Z</time></trkpt><trkpt lat="40.76791" lon="14.6766033"><ele>69.0</ele><time>2026-05-02T04:57:24.49Z</time></trkpt><trkpt lat="40.7679867" lon="14.6762883"><ele>69.5</ele><time>2026-05-02T04:57:25.49Z</time></trkpt><trkpt lat="40.7680683" lon="14.67598"><ele>70.0</ele><time>2026-05-02T04:57:26.49Z</time></trkpt><trkpt lat="40.7681567" lon="14.6756733"><ele>70.0</ele><time>2026-05-02T04:57:27.49Z</time></trkpt><trkpt lat="40.7682533" lon="14.6753717"><ele>70.0</ele><time>2026-05-02T04:57:28.49Z</time></trkpt><trkpt lat="40.7683533" lon="14.6750717"><ele>71.0</ele><time>2026-05-02T04:57:29.49Z</time></trkpt><trkpt lat="40.7684567" lon="14.67477"><ele>72.0</ele><time>2026-05-02T04:57:30.491Z</time></trkpt><trkpt lat="40.7685667" lon="14.6744667"><ele>71.0</ele><time>2026-05-02T04:57:31.49Z</time></trkpt><trkpt lat="40.7686767" lon="14.6741733"><ele>70.0</ele><time>2026-05-02T04:57:32.49Z</time></trkpt><trkpt lat="40.7687867" lon="14.6738867"><ele>70.5</ele><time>2026-05-02T04:57:33.49Z</time></trkpt><trkpt lat="40.768905" lon="14.6735983"><ele>71.0</ele><time>2026-05-02T04:57:34.49Z</time></trkpt><trkpt lat="40.76903" lon="14.6733183"><ele>71.0</ele><time>2026-05-02T04:57:35.49Z</time></trkpt><trkpt lat="40.7691617" lon="14.6730417"><ele>71.0</ele><time>2026-05-02T04:57:36.49Z</time></trkpt><trkpt lat="40.7692983" lon="14.6727633"><ele>68.5</ele><time>2026-05-02T04:57:37.49Z</time></trkpt><trkpt lat="40.7694333" lon="14.67248"><ele>66.0</ele><time>2026-05-02T04:57:38.49Z</time></trkpt><trkpt lat="40.76957" lon="14.672195"><ele>66.5</ele><time>2026-05-02T04:57:39.49Z</time></trkpt><trkpt lat="40.7697083" lon="14.6719"><ele>67.0</ele><time>2026-05-02T04:57:40.49Z</time></trkpt><trkpt lat="40.7698433" lon="14.6716033"><ele>67.0</ele><time>2026-05-02T04:57:41.49Z</time></trkpt><trkpt lat="40.7699767" lon="14.6713033"><ele>67.0</ele><time>2026-05-02T04:57:42.49Z</time></trkpt><trkpt lat="40.7701067" lon="14.670995"><ele>67.5</ele><time>2026-05-02T04:57:43.491Z</time></trkpt><trkpt lat="40.7702317" lon="14.6706883"><ele>68.0</ele><time>2026-05-02T04:57:44.49Z</time></trkpt><trkpt lat="40.77035" lon="14.6703717"><ele>68.5</ele><time>2026-05-02T04:57:45.49Z</time></trkpt><trkpt lat="40.7704667" lon="14.6700517"><ele>69.0</ele><time>2026-05-02T04:57:46.49Z</time></trkpt><trkpt lat="40.7705783" lon="14.6697267"><ele>68.5</ele><time>2026-05-02T04:57:47.49Z</time></trkpt><trkpt lat="40.7706867" lon="14.6693967"><ele>68.0</ele><time>2026-05-02T04:57:48.49Z</time></trkpt><trkpt lat="40.7707933" lon="14.6690633"><ele>68.0</ele><time>2026-05-02T04:57:49.49Z</time></trkpt><trkpt lat="40.770895" lon="14.66873"><ele>68.0</ele><time>2026-05-02T04:57:50.49Z</time></trkpt><trkpt lat="40.7709867" lon="14.66839"><ele>68.0</ele><time>2026-05-02T04:57:51.49Z</time></trkpt><trkpt lat="40.7710733" lon="14.66805"><ele>68.0</ele><time>2026-05-02T04:57:52.49Z</time></trkpt><trkpt lat="40.771155" lon="14.6677067"><ele>67.5</ele><time>2026-05-02T04:57:53.49Z</time></trkpt><trkpt lat="40.771235" lon="14.667365"><ele>67.0</ele><time>2026-05-02T04:57:54.49Z</time></trkpt><trkpt lat="40.7713117" lon="14.66702"><ele>67.0</ele><time>2026-05-02T04:57:55.49Z</time></trkpt><trkpt lat="40.77138" lon="14.6666733"><ele>67.0</ele><time>2026-05-02T04:57:56.49Z</time></trkpt><trkpt lat="40.7714483" lon="14.6663267"><ele>67.0</ele><time>2026-05-02T04:57:57.49Z</time></trkpt><trkpt lat="40.7715117" lon="14.6659783"><ele>67.0</ele><time>2026-05-02T04:57:58.491Z</time></trkpt><trkpt lat="40.77158" lon="14.665625"><ele>67.5</ele><time>2026-05-02T04:57:59.491Z</time></trkpt><trkpt lat="40.771655" lon="14.6652783"><ele>68.0</ele><time>2026-05-02T04:58:00.491Z</time></trkpt><trkpt lat="40.7717283" lon="14.664925"><ele>68.0</ele><time>2026-05-02T04:58:01.491Z</time></trkpt><trkpt lat="40.7717967" lon="14.6645683"><ele>68.0</ele><time>2026-05-02T04:58:02.491Z</time></trkpt><trkpt lat="40.771875" lon="14.664215"><ele>68.0</ele><time>2026-05-02T04:58:03.491Z</time></trkpt><trkpt lat="40.7719483" lon="14.6638567"><ele>68.0</ele><time>2026-05-02T04:58:04.491Z</time></trkpt><trkpt lat="40.7720267" lon="14.6634983"><ele>68.0</ele><time>2026-05-02T04:58:05.491Z</time></trkpt><trkpt lat="40.7720983" lon="14.6631383"><ele>68.0</ele><time>2026-05-02T04:58:06.491Z</time></trkpt><trkpt lat="40.77217" lon="14.6627733"><ele>69.5</ele><time>2026-05-02T04:58:07.491Z</time></trkpt><trkpt lat="40.772245" lon="14.662405"><ele>71.0</ele><time>2026-05-02T04:58:08.491Z</time></trkpt><trkpt lat="40.77232" lon="14.6620317"><ele>71.5</ele><time>2026-05-02T04:58:09.491Z</time></trkpt><trkpt lat="40.7723933" lon="14.6616567"><ele>72.0</ele><time>2026-05-02T04:58:10.491Z</time></trkpt><trkpt lat="40.7724733" lon="14.661285"><ele>72.0</ele><time>2026-05-02T04:58:11.492Z</time></trkpt><trkpt lat="40.7725467" lon="14.6609083"><ele>72.0</ele><time>2026-05-02T04:58:12.491Z</time></trkpt><trkpt lat="40.77263" lon="14.6605333"><ele>69.5</ele><time>2026-05-02T04:58:13.491Z</time></trkpt><trkpt lat="40.7727017" lon="14.6601417"><ele>67.0</ele><time>2026-05-02T04:58:14.491Z</time></trkpt><trkpt lat="40.77277" lon="14.6597583"><ele>78.0</ele><time>2026-05-02T04:58:15.491Z</time></trkpt><trkpt lat="40.7728383" lon="14.6593767"><ele>89.0</ele><time>2026-05-02T04:58:16.491Z</time></trkpt><trkpt lat="40.77291" lon="14.6590017"><ele>89.0</ele><time>2026-05-02T04:58:17.491Z</time></trkpt><trkpt lat="40.77298" lon="14.658625"><ele>89.0</ele><time>2026-05-02T04:58:18.491Z</time></trkpt><trkpt lat="40.7747333" lon="14.6495117"><ele>63.5</ele><time>2026-05-02T04:58:41.489Z</time></trkpt><trkpt lat="40.774795" lon="14.6491117"><ele>38.0</ele><time>2026-05-02T04:58:42.489Z</time></trkpt><trkpt lat="40.7748683" lon="14.6487283"><ele>37.0</ele><time>2026-05-02T04:58:43.489Z</time></trkpt><trkpt lat="40.7749367" lon="14.6483633"><ele>36.0</ele><time>2026-05-02T04:58:44.489Z</time></trkpt><trkpt lat="40.775005" lon="14.6480017"><ele>35.0</ele><time>2026-05-02T04:58:45.489Z</time></trkpt><trkpt lat="40.775065" lon="14.6476467"><ele>34.0</ele><time>2026-05-02T04:58:46.49Z</time></trkpt><trkpt lat="40.775125" lon="14.6472817"><ele>32.0</ele><time>2026-05-02T04:58:47.489Z</time></trkpt><trkpt lat="40.7751833" lon="14.6469183"><ele>30.0</ele><time>2026-05-02T04:58:48.489Z</time></trkpt><trkpt lat="40.77524" lon="14.6465533"><ele>30.0</ele><time>2026-05-02T04:58:49.489Z</time></trkpt><trkpt lat="40.775295" lon="14.64619"><ele>30.0</ele><time>2026-05-02T04:58:50.489Z</time></trkpt><trkpt lat="40.7753483" lon="14.6458267"><ele>29.0</ele><time>2026-05-02T04:58:51.489Z</time></trkpt><trkpt lat="40.7753967" lon="14.64546"><ele>28.0</ele><time>2026-05-02T04:58:52.489Z</time></trkpt><trkpt lat="40.7754433" lon="14.6450867"><ele>27.0</ele><time>2026-05-02T04:58:53.489Z</time></trkpt><trkpt lat="40.7754883" lon="14.6447233"><ele>26.0</ele><time>2026-05-02T04:58:54.489Z</time></trkpt><trkpt lat="40.7755267" lon="14.6443583"><ele>25.0</ele><time>2026-05-02T04:58:55.489Z</time></trkpt><trkpt lat="40.7755633" lon="14.64398"><ele>24.0</ele><time>2026-05-02T04:58:56.489Z</time></trkpt><trkpt lat="40.7755933" lon="14.6436083"><ele>23.5</ele><time>2026-05-02T04:58:57.489Z</time></trkpt><trkpt lat="40.7756117" lon="14.6432417"><ele>23.0</ele><time>2026-05-02T04:58:58.489Z</time></trkpt><trkpt lat="40.775625" lon="14.6428717"><ele>23.5</ele><time>2026-05-02T04:58:59.489Z</time></trkpt><trkpt lat="40.7756367" lon="14.642495"><ele>24.0</ele><time>2026-05-02T04:59:00.489Z</time></trkpt><trkpt lat="40.7756383" lon="14.6421267"><ele>23.0</ele><time>2026-05-02T04:59:01.489Z</time></trkpt><trkpt lat="40.7756333" lon="14.6417583"><ele>22.0</ele><time>2026-05-02T04:59:02.489Z</time></trkpt><trkpt lat="40.775625" lon="14.64139"><ele>22.5</ele><time>2026-05-02T04:59:03.489Z</time></trkpt><trkpt lat="40.775615" lon="14.641025"><ele>23.0</ele><time>2026-05-02T04:59:04.489Z</time></trkpt><trkpt lat="40.7756" lon="14.64066"><ele>23.0</ele><time>2026-05-02T04:59:05.489Z</time></trkpt><trkpt lat="40.7755883" lon="14.640295"><ele>23.0</ele><time>2026-05-02T04:59:06.489Z</time></trkpt><trkpt lat="40.7755733" lon="14.6399283"><ele>23.0</ele><time>2026-05-02T04:59:07.489Z</time></trkpt><trkpt lat="40.7755533" lon="14.6395617"><ele>23.0</ele><time>2026-05-02T04:59:08.489Z</time></trkpt><trkpt lat="40.7755417" lon="14.6391983"><ele>23.5</ele><time>2026-05-02T04:59:09.489Z</time></trkpt><trkpt lat="40.775535" lon="14.6388317"><ele>24.0</ele><time>2026-05-02T04:59:10.489Z</time></trkpt><trkpt lat="40.7755283" lon="14.63847"><ele>24.5</ele><time>2026-05-02T04:59:11.489Z</time></trkpt><trkpt lat="40.775525" lon="14.6381067"><ele>25.0</ele><time>2026-05-02T04:59:12.489Z</time></trkpt><trkpt lat="40.7755317" lon="14.63775"><ele>23.5</ele><time>2026-05-02T04:59:13.489Z</time></trkpt><trkpt lat="40.7755533" lon="14.637385"><ele>22.0</ele><time>2026-05-02T04:59:14.489Z</time></trkpt><trkpt lat="40.7755767" lon="14.6370283"><ele>22.5</ele><time>2026-05-02T04:59:15.489Z</time></trkpt><trkpt lat="40.7756033" lon="14.6366717"><ele>23.0</ele><time>2026-05-02T04:59:16.489Z</time></trkpt><trkpt lat="40.7756383" lon="14.6363267"><ele>22.5</ele><time>2026-05-02T04:59:17.489Z</time></trkpt><trkpt lat="40.7756833" lon="14.6359767"><ele>22.0</ele><time>2026-05-02T04:59:18.489Z</time></trkpt><trkpt lat="40.7757283" lon="14.6356333"><ele>22.5</ele><time>2026-05-02T04:59:19.489Z</time></trkpt><trkpt lat="40.775785" lon="14.6352867"><ele>23.0</ele><time>2026-05-02T04:59:20.489Z</time></trkpt><trkpt lat="40.7758517" lon="14.6349483"><ele>23.0</ele><time>2026-05-02T04:59:21.489Z</time></trkpt><trkpt lat="40.7759283" lon="14.63461"><ele>23.0</ele><time>2026-05-02T04:59:22.49Z</time></trkpt><trkpt lat="40.77601" lon="14.6342833"><ele>23.0</ele><time>2026-05-02T04:59:23.489Z</time></trkpt><trkpt lat="40.7760967" lon="14.6339567"><ele>23.0</ele><time>2026-05-02T04:59:24.489Z</time></trkpt><trkpt lat="40.7761917" lon="14.633635"><ele>22.0</ele><time>2026-05-02T04:59:25.489Z</time></trkpt><trkpt lat="40.7762967" lon="14.6333117"><ele>21.0</ele><time>2026-05-02T04:59:26.489Z</time></trkpt><trkpt lat="40.7764083" lon="14.632995"><ele>22.0</ele><time>2026-05-02T04:59:27.49Z</time></trkpt><trkpt lat="40.7765317" lon="14.6326817"><ele>23.0</ele><time>2026-05-02T04:59:28.489Z</time></trkpt><trkpt lat="40.7766633" lon="14.6323733"><ele>23.0</ele><time>2026-05-02T04:59:29.489Z</time></trkpt><trkpt lat="40.7767983" lon="14.632065"><ele>23.0</ele><time>2026-05-02T04:59:30.489Z</time></trkpt><trkpt lat="40.7769417" lon="14.631765"><ele>22.5</ele><time>2026-05-02T04:59:31.489Z</time></trkpt><trkpt lat="40.7770867" lon="14.6314683"><ele>22.0</ele><time>2026-05-02T04:59:32.489Z</time></trkpt><trkpt lat="40.7772417" lon="14.6311733"><ele>21.5</ele><time>2026-05-02T04:59:33.49Z</time></trkpt><trkpt lat="40.777405" lon="14.6308783"><ele>21.0</ele><time>2026-05-02T04:59:34.489Z</time></trkpt><trkpt lat="40.7775683" lon="14.6305933"><ele>22.5</ele><time>2026-05-02T04:59:35.489Z</time></trkpt><trkpt lat="40.7777317" lon="14.6302917"><ele>24.0</ele><time>2026-05-02T04:59:36.49Z</time></trkpt><trkpt lat="40.777905" lon="14.6300067"><ele>24.0</ele><time>2026-05-02T04:59:37.489Z</time></trkpt><trkpt lat="40.7780733" lon="14.62972"><ele>24.0</ele><time>2026-05-02T04:59:38.489Z</time></trkpt><trkpt lat="40.778245" lon="14.6294267"><ele>23.5</ele><time>2026-05-02T04:59:39.489Z</time></trkpt><trkpt lat="40.7784133" lon="14.629135"><ele>23.0</ele><time>2026-05-02T04:59:40.489Z</time></trkpt><trkpt lat="40.7785867" lon="14.6288367"><ele>22.5</ele><time>2026-05-02T04:59:41.489Z</time></trkpt><trkpt lat="40.778755" lon="14.6285467"><ele>22.0</ele><time>2026-05-02T04:59:42.489Z</time></trkpt><trkpt lat="40.7789233" lon="14.62826"><ele>22.0</ele><time>2026-05-02T04:59:43.489Z</time></trkpt><trkpt lat="40.7790983" lon="14.6279717"><ele>22.0</ele><time>2026-05-02T04:59:44.489Z</time></trkpt><trkpt lat="40.7792667" lon="14.6276733"><ele>22.5</ele><time>2026-05-02T04:59:45.489Z</time></trkpt><trkpt lat="40.7794333" lon="14.6273867"><ele>23.0</ele><time>2026-05-02T04:59:46.489Z</time></trkpt><trkpt lat="40.779595" lon="14.627105"><ele>24.5</ele><time>2026-05-02T04:59:47.489Z</time></trkpt><trkpt lat="40.77976" lon="14.6268167"><ele>26.0</ele><time>2026-05-02T04:59:48.489Z</time></trkpt><trkpt lat="40.7799217" lon="14.6265367"><ele>26.0</ele><time>2026-05-02T04:59:49.489Z</time></trkpt><trkpt lat="40.780085" lon="14.6262583"><ele>26.0</ele><time>2026-05-02T04:59:50.489Z</time></trkpt><trkpt lat="40.7802567" lon="14.625975"><ele>25.0</ele><time>2026-05-02T04:59:51.489Z</time></trkpt><trkpt lat="40.7804217" lon="14.62569"><ele>24.0</ele><time>2026-05-02T04:59:52.489Z</time></trkpt><trkpt lat="40.780585" lon="14.6254117"><ele>24.5</ele><time>2026-05-02T04:59:53.489Z</time></trkpt><trkpt lat="40.7807467" lon="14.6251283"><ele>25.0</ele><time>2026-05-02T04:59:54.489Z</time></trkpt><trkpt lat="40.7809117" lon="14.62484"><ele>24.0</ele><time>2026-05-02T04:59:55.489Z</time></trkpt><trkpt lat="40.781075" lon="14.624555"><ele>23.0</ele><time>2026-05-02T04:59:56.489Z</time></trkpt><trkpt lat="40.7812333" lon="14.6242783"><ele>22.5</ele><time>2026-05-02T04:59:57.489Z</time></trkpt><trkpt lat="40.7813983" lon="14.6239967"><ele>22.0</ele><time>2026-05-02T04:59:58.489Z</time></trkpt><trkpt lat="40.7815617" lon="14.6237133"><ele>22.0</ele><time>2026-05-02T04:59:59.489Z</time></trkpt><trkpt lat="40.781725" lon="14.62343"><ele>22.0</ele><time>2026-05-02T05:00:00.489Z</time></trkpt><trkpt lat="40.7818883" lon="14.6231383"><ele>22.0</ele><time>2026-05-02T05:00:01.489Z</time></trkpt><trkpt lat="40.7820617" lon="14.6228533"><ele>22.0</ele><time>2026-05-02T05:00:02.489Z</time></trkpt><trkpt lat="40.7822317" lon="14.6225617"><ele>22.5</ele><time>2026-05-02T05:00:03.489Z</time></trkpt><trkpt lat="40.782395" lon="14.62227"><ele>23.0</ele><time>2026-05-02T05:00:04.489Z</time></trkpt><trkpt lat="40.7825667" lon="14.621975"><ele>22.0</ele><time>2026-05-02T05:00:05.489Z</time></trkpt><trkpt lat="40.782735" lon="14.6216833"><ele>21.0</ele><time>2026-05-02T05:00:06.489Z</time></trkpt><trkpt lat="40.7829083" lon="14.6213917"><ele>21.5</ele><time>2026-05-02T05:00:07.489Z</time></trkpt><trkpt lat="40.7830767" lon="14.6211017"><ele>22.0</ele><time>2026-05-02T05:00:08.489Z</time></trkpt><trkpt lat="40.7832467" lon="14.620815"><ele>22.0</ele><time>2026-05-02T05:00:09.489Z</time></trkpt><trkpt lat="40.7834217" lon="14.6205333"><ele>22.0</ele><time>2026-05-02T05:00:10.489Z</time></trkpt><trkpt lat="40.7836033" lon="14.6202617"><ele>22.0</ele><time>2026-05-02T05:00:11.489Z</time></trkpt><trkpt lat="40.7837867" lon="14.62"><ele>22.0</ele><time>2026-05-02T05:00:12.489Z</time></trkpt><trkpt lat="40.78397" lon="14.6197467"><ele>22.0</ele><time>2026-05-02T05:00:13.489Z</time></trkpt><trkpt lat="40.7841683" lon="14.6194967"><ele>22.0</ele><time>2026-05-02T05:00:14.489Z</time></trkpt><trkpt lat="40.7843683" lon="14.6192517"><ele>22.0</ele><time>2026-05-02T05:00:15.489Z</time></trkpt><trkpt lat="40.7845733" lon="14.6190183"><ele>22.0</ele><time>2026-05-02T05:00:16.489Z</time></trkpt><trkpt lat="40.78478" lon="14.6187933"><ele>22.5</ele><time>2026-05-02T05:00:17.489Z</time></trkpt><trkpt lat="40.7849883" lon="14.6185667"><ele>23.0</ele><time>2026-05-02T05:00:18.489Z</time></trkpt><trkpt lat="40.7852033" lon="14.618345"><ele>23.0</ele><time>2026-05-02T05:00:19.489Z</time></trkpt><trkpt lat="40.785425" lon="14.618135"><ele>23.0</ele><time>2026-05-02T05:00:20.49Z</time></trkpt><trkpt lat="40.785645" lon="14.6179267"><ele>23.0</ele><time>2026-05-02T05:00:21.489Z</time></trkpt><trkpt lat="40.785865" lon="14.6177217"><ele>23.0</ele><time>2026-05-02T05:00:22.489Z</time></trkpt><trkpt lat="40.7860933" lon="14.6175117"><ele>23.5</ele><time>2026-05-02T05:00:23.49Z</time></trkpt><trkpt lat="40.7863167" lon="14.617305"><ele>24.0</ele><time>2026-05-02T05:00:24.489Z</time></trkpt><trkpt lat="40.7865433" lon="14.617095"><ele>24.0</ele><time>2026-05-02T05:00:25.489Z</time></trkpt><trkpt lat="40.786765" lon="14.6168883"><ele>24.0</ele><time>2026-05-02T05:00:26.489Z</time></trkpt><trkpt lat="40.786995" lon="14.6166817"><ele>23.5</ele><time>2026-05-02T05:00:27.489Z</time></trkpt><trkpt lat="40.7872233" lon="14.616475"><ele>23.0</ele><time>2026-05-02T05:00:28.489Z</time></trkpt><trkpt lat="40.7874533" lon="14.61627"><ele>21.5</ele><time>2026-05-02T05:00:29.489Z</time></trkpt><trkpt lat="40.7876817" lon="14.6160567"><ele>20.0</ele><time>2026-05-02T05:00:30.489Z</time></trkpt><trkpt lat="40.7879033" lon="14.61584"><ele>20.0</ele><time>2026-05-02T05:00:31.489Z</time></trkpt><trkpt lat="40.788115" lon="14.6156133"><ele>20.0</ele><time>2026-05-02T05:00:32.489Z</time></trkpt><trkpt lat="40.7883233" lon="14.615375"><ele>20.5</ele><time>2026-05-02T05:00:33.489Z</time></trkpt><trkpt lat="40.7885317" lon="14.6151267"><ele>21.0</ele><time>2026-05-02T05:00:34.489Z</time></trkpt><trkpt lat="40.7887367" lon="14.6148683"><ele>21.0</ele><time>2026-05-02T05:00:35.489Z</time></trkpt><trkpt lat="40.7889333" lon="14.6146017"><ele>21.0</ele><time>2026-05-02T05:00:36.489Z</time></trkpt><trkpt lat="40.789125" lon="14.6143283"><ele>21.0</ele><time>2026-05-02T05:00:37.489Z</time></trkpt><trkpt lat="40.7893117" lon="14.6140433"><ele>21.0</ele><time>2026-05-02T05:00:38.489Z</time></trkpt><trkpt lat="40.7894933" lon="14.613755"><ele>21.0</ele><time>2026-05-02T05:00:39.489Z</time></trkpt><trkpt lat="40.7896717" lon="14.6134517"><ele>21.0</ele><time>2026-05-02T05:00:40.489Z</time></trkpt><trkpt lat="40.7898433" lon="14.6131483"><ele>21.0</ele><time>2026-05-02T05:00:41.489Z</time></trkpt><trkpt lat="40.7900183" lon="14.6128483"><ele>21.0</ele><time>2026-05-02T05:00:42.489Z</time></trkpt><trkpt lat="40.7901967" lon="14.61255"><ele>19.0</ele><time>2026-05-02T05:00:43.489Z</time></trkpt><trkpt lat="40.790375" lon="14.6122567"><ele>17.0</ele><time>2026-05-02T05:00:44.489Z</time></trkpt><trkpt lat="40.7905617" lon="14.61197"><ele>17.0</ele><time>2026-05-02T05:00:45.489Z</time></trkpt><trkpt lat="40.79075" lon="14.6116967"><ele>17.0</ele><time>2026-05-02T05:00:46.489Z</time></trkpt><trkpt lat="40.79094" lon="14.6114317"><ele>17.5</ele><time>2026-05-02T05:00:47.489Z</time></trkpt><trkpt lat="40.7911367" lon="14.6111683"><ele>18.0</ele><time>2026-05-02T05:00:48.489Z</time></trkpt><trkpt lat="40.7913367" lon="14.6109217"><ele>18.0</ele><time>2026-05-02T05:00:49.49Z</time></trkpt><trkpt lat="40.79154" lon="14.6106817"><ele>18.0</ele><time>2026-05-02T05:00:50.489Z</time></trkpt><trkpt lat="40.79175" lon="14.6104567"><ele>17.5</ele><time>2026-05-02T05:00:51.489Z</time></trkpt><trkpt lat="40.791965" lon="14.6102383"><ele>17.0</ele><time>2026-05-02T05:00:52.489Z</time></trkpt><trkpt lat="40.79219" lon="14.6100333"><ele>17.0</ele><time>2026-05-02T05:00:53.489Z</time></trkpt><trkpt lat="40.7924217" lon="14.60984"><ele>17.0</ele><time>2026-05-02T05:00:54.489Z</time></trkpt><trkpt lat="40.7926533" lon="14.6096583"><ele>16.5</ele><time>2026-05-02T05:00:55.489Z</time></trkpt><trkpt lat="40.7928883" lon="14.609485"><ele>16.0</ele><time>2026-05-02T05:00:56.489Z</time></trkpt><trkpt lat="40.7931317" lon="14.60932"><ele>16.0</ele><time>2026-05-02T05:00:57.489Z</time></trkpt><trkpt lat="40.7933767" lon="14.6091683"><ele>16.0</ele><time>2026-05-02T05:00:58.489Z</time></trkpt><trkpt lat="40.793625" lon="14.609025"><ele>16.0</ele><time>2026-05-02T05:00:59.489Z</time></trkpt><trkpt lat="40.7938767" lon="14.6088933"><ele>16.0</ele><time>2026-05-02T05:01:00.489Z</time></trkpt><trkpt lat="40.7941367" lon="14.60877"><ele>17.0</ele><time>2026-05-02T05:01:01.489Z</time></trkpt><trkpt lat="40.7943983" lon="14.60865"><ele>18.0</ele><time>2026-05-02T05:01:02.489Z</time></trkpt><trkpt lat="40.7946633" lon="14.6085383"><ele>18.0</ele><time>2026-05-02T05:01:03.489Z</time></trkpt><trkpt lat="40.7949267" lon="14.6084217"><ele>18.0</ele><time>2026-05-02T05:01:04.489Z</time></trkpt><trkpt lat="40.7952" lon="14.6083117"><ele>20.5</ele><time>2026-05-02T05:01:05.489Z</time></trkpt><trkpt lat="40.7954717" lon="14.608195"><ele>23.0</ele><time>2026-05-02T05:01:06.49Z</time></trkpt><trkpt lat="40.7957467" lon="14.6080833"><ele>22.0</ele><time>2026-05-02T05:01:07.489Z</time></trkpt><trkpt lat="40.7960217" lon="14.607975"><ele>21.0</ele><time>2026-05-02T05:01:08.489Z</time></trkpt><trkpt lat="40.7962983" lon="14.6078667"><ele>20.0</ele><time>2026-05-02T05:01:09.49Z</time></trkpt><trkpt lat="40.7965783" lon="14.60776"><ele>19.0</ele><time>2026-05-02T05:01:10.489Z</time></trkpt><trkpt lat="40.7968533" lon="14.6076467"><ele>18.5</ele><time>2026-05-02T05:01:11.489Z</time></trkpt><trkpt lat="40.797125" lon="14.6075233"><ele>18.0</ele><time>2026-05-02T05:01:12.489Z</time></trkpt><trkpt lat="40.7973983" lon="14.607405"><ele>18.0</ele><time>2026-05-02T05:01:13.489Z</time></trkpt><trkpt lat="40.7976683" lon="14.6072783"><ele>18.0</ele><time>2026-05-02T05:01:14.489Z</time></trkpt><trkpt lat="40.79793" lon="14.6071433"><ele>17.5</ele><time>2026-05-02T05:01:15.489Z</time></trkpt><trkpt lat="40.7981983" lon="14.6070017"><ele>17.0</ele><time>2026-05-02T05:01:16.489Z</time></trkpt><trkpt lat="40.7984583" lon="14.60686"><ele>17.5</ele><time>2026-05-02T05:01:17.489Z</time></trkpt><trkpt lat="40.7987117" lon="14.60671"><ele>18.0</ele><time>2026-05-02T05:01:18.489Z</time></trkpt><trkpt lat="40.7989717" lon="14.6065467"><ele>18.0</ele><time>2026-05-02T05:01:19.489Z</time></trkpt><trkpt lat="40.7992283" lon="14.6063867"><ele>18.0</ele><time>2026-05-02T05:01:20.489Z</time></trkpt><trkpt lat="40.799475" lon="14.6062167"><ele>17.5</ele><time>2026-05-02T05:01:21.489Z</time></trkpt><trkpt lat="40.79972" lon="14.6060383"><ele>17.0</ele><time>2026-05-02T05:01:22.489Z</time></trkpt><trkpt lat="40.7999683" lon="14.6058517"><ele>17.0</ele><time>2026-05-02T05:01:23.489Z</time></trkpt><trkpt lat="40.8002083" lon="14.6056583"><ele>17.0</ele><time>2026-05-02T05:01:24.49Z</time></trkpt><trkpt lat="40.8004417" lon="14.6054617"><ele>18.5</ele><time>2026-05-02T05:01:25.489Z</time></trkpt><trkpt lat="40.80067" lon="14.6052617"><ele>20.0</ele><time>2026-05-02T05:01:26.489Z</time></trkpt><trkpt lat="40.8009033" lon="14.6050533"><ele>18.5</ele><time>2026-05-02T05:01:27.489Z</time></trkpt><trkpt lat="40.8011283" lon="14.60484"><ele>17.0</ele><time>2026-05-02T05:01:28.489Z</time></trkpt><trkpt lat="40.8013567" lon="14.604615"><ele>18.5</ele><time>2026-05-02T05:01:29.489Z</time></trkpt><trkpt lat="40.8015733" lon="14.60439"><ele>20.0</ele><time>2026-05-02T05:01:30.489Z</time></trkpt><trkpt lat="40.8017967" lon="14.6041517"><ele>19.0</ele><time>2026-05-02T05:01:31.49Z</time></trkpt><trkpt lat="40.8020133" lon="14.603915"><ele>18.0</ele><time>2026-05-02T05:01:32.489Z</time></trkpt><trkpt lat="40.8022267" lon="14.60367"><ele>19.0</ele><time>2026-05-02T05:01:33.489Z</time></trkpt><trkpt lat="40.80244" lon="14.6034267"><ele>20.0</ele><time>2026-05-02T05:01:34.489Z</time></trkpt><trkpt lat="40.8026583" lon="14.6031867"><ele>19.0</ele><time>2026-05-02T05:01:35.489Z</time></trkpt><trkpt lat="40.802885" lon="14.602945"><ele>18.0</ele><time>2026-05-02T05:01:36.489Z</time></trkpt><trkpt lat="40.8030967" lon="14.602705"><ele>18.0</ele><time>2026-05-02T05:01:37.489Z</time></trkpt><trkpt lat="40.8033217" lon="14.6024667"><ele>18.0</ele><time>2026-05-02T05:01:38.489Z</time></trkpt><trkpt lat="40.8035417" lon="14.6022267"><ele>17.0</ele><time>2026-05-02T05:01:39.489Z</time></trkpt><trkpt lat="40.80376" lon="14.6019867"><ele>16.0</ele><time>2026-05-02T05:01:40.489Z</time></trkpt><trkpt lat="40.8039767" lon="14.601745"><ele>16.0</ele><time>2026-05-02T05:01:41.489Z</time></trkpt><trkpt lat="40.8041933" lon="14.6015033"><ele>16.0</ele><time>2026-05-02T05:01:42.489Z</time></trkpt><trkpt lat="40.8044167" lon="14.6012633"><ele>16.0</ele><time>2026-05-02T05:01:43.489Z</time></trkpt><trkpt lat="40.804635" lon="14.60102"><ele>16.0</ele><time>2026-05-02T05:01:44.489Z</time></trkpt><trkpt lat="40.80486" lon="14.6007783"><ele>16.0</ele><time>2026-05-02T05:01:45.489Z</time></trkpt><trkpt lat="40.805075" lon="14.6005383"><ele>16.0</ele><time>2026-05-02T05:01:46.489Z</time></trkpt><trkpt lat="40.8052983" lon="14.6002983"><ele>16.5</ele><time>2026-05-02T05:01:47.489Z</time></trkpt><trkpt lat="40.805515" lon="14.6000633"><ele>17.0</ele><time>2026-05-02T05:01:48.489Z</time></trkpt><trkpt lat="40.8057333" lon="14.5998283"><ele>17.0</ele><time>2026-05-02T05:01:49.489Z</time></trkpt><trkpt lat="40.8059517" lon="14.5995917"><ele>17.0</ele><time>2026-05-02T05:01:50.489Z</time></trkpt><trkpt lat="40.8061717" lon="14.59935"><ele>17.5</ele><time>2026-05-02T05:01:51.489Z</time></trkpt><trkpt lat="40.8063883" lon="14.5991117"><ele>18.0</ele><time>2026-05-02T05:01:52.489Z</time></trkpt><trkpt lat="40.8066033" lon="14.5988717"><ele>18.5</ele><time>2026-05-02T05:01:53.489Z</time></trkpt><trkpt lat="40.8068167" lon="14.5986333"><ele>19.0</ele><time>2026-05-02T05:01:54.489Z</time></trkpt><trkpt lat="40.8070267" lon="14.598395"><ele>17.5</ele><time>2026-05-02T05:01:55.489Z</time></trkpt><trkpt lat="40.8072383" lon="14.5981617"><ele>16.0</ele><time>2026-05-02T05:01:56.489Z</time></trkpt><trkpt lat="40.8074467" lon="14.59793"><ele>16.0</ele><time>2026-05-02T05:01:57.489Z</time></trkpt><trkpt lat="40.8076583" lon="14.5977"><ele>16.0</ele><time>2026-05-02T05:01:58.489Z</time></trkpt><trkpt lat="40.80787" lon="14.5974683"><ele>16.0</ele><time>2026-05-02T05:01:59.489Z</time></trkpt><trkpt lat="40.808085" lon="14.5972333"><ele>16.0</ele><time>2026-05-02T05:02:00.489Z</time></trkpt><trkpt lat="40.8082933" lon="14.5970083"><ele>16.5</ele><time>2026-05-02T05:02:01.489Z</time></trkpt><trkpt lat="40.8085017" lon="14.5967783"><ele>17.0</ele><time>2026-05-02T05:02:02.489Z</time></trkpt><trkpt lat="40.8087067" lon="14.5965467"><ele>17.0</ele><time>2026-05-02T05:02:03.489Z</time></trkpt><trkpt lat="40.808915" lon="14.5963183"><ele>17.0</ele><time>2026-05-02T05:02:04.489Z</time></trkpt><trkpt lat="40.8091267" lon="14.59608"><ele>16.5</ele><time>2026-05-02T05:02:05.489Z</time></trkpt><trkpt lat="40.8093417" lon="14.59584"><ele>16.0</ele><time>2026-05-02T05:02:06.489Z</time></trkpt><trkpt lat="40.8095567" lon="14.5956017"><ele>16.0</ele><time>2026-05-02T05:02:07.489Z</time></trkpt><trkpt lat="40.8097767" lon="14.5953617"><ele>16.0</ele><time>2026-05-02T05:02:08.489Z</time></trkpt><trkpt lat="40.809995" lon="14.595125"><ele>16.5</ele><time>2026-05-02T05:02:09.489Z</time></trkpt><trkpt lat="40.8102117" lon="14.594885"><ele>17.0</ele><time>2026-05-02T05:02:10.489Z</time></trkpt><trkpt lat="40.8104283" lon="14.5946483"><ele>17.5</ele><time>2026-05-02T05:02:11.489Z</time></trkpt><trkpt lat="40.8106467" lon="14.5944067"><ele>18.0</ele><time>2026-05-02T05:02:12.489Z</time></trkpt><trkpt lat="40.8108633" lon="14.5941667"><ele>17.0</ele><time>2026-05-02T05:02:13.489Z</time></trkpt><trkpt lat="40.8110833" lon="14.593925"><ele>16.0</ele><time>2026-05-02T05:02:14.489Z</time></trkpt><trkpt lat="40.8112983" lon="14.5936867"><ele>18.5</ele><time>2026-05-02T05:02:15.489Z</time></trkpt><trkpt lat="40.811515" lon="14.5934483"><ele>21.0</ele><time>2026-05-02T05:02:16.489Z</time></trkpt><trkpt lat="40.81173" lon="14.593205"><ele>20.5</ele><time>2026-05-02T05:02:17.489Z</time></trkpt><trkpt lat="40.8119483" lon="14.5929667"><ele>20.0</ele><time>2026-05-02T05:02:18.489Z</time></trkpt><trkpt lat="40.8121583" lon="14.592725"><ele>20.0</ele><time>2026-05-02T05:02:19.489Z</time></trkpt><trkpt lat="40.81238" lon="14.5924767"><ele>20.0</ele><time>2026-05-02T05:02:20.489Z</time></trkpt><trkpt lat="40.812595" lon="14.5922317"><ele>19.5</ele><time>2026-05-02T05:02:21.489Z</time></trkpt><trkpt lat="40.8128083" lon="14.591975"><ele>19.0</ele><time>2026-05-02T05:02:22.489Z</time></trkpt><trkpt lat="40.81302" lon="14.59171"><ele>19.0</ele><time>2026-05-02T05:02:23.489Z</time></trkpt><trkpt lat="40.8132333" lon="14.5914467"><ele>19.0</ele><time>2026-05-02T05:02:24.489Z</time></trkpt><trkpt lat="40.8134417" lon="14.5911833"><ele>18.5</ele><time>2026-05-02T05:02:25.489Z</time></trkpt><trkpt lat="40.8136467" lon="14.5909133"><ele>18.0</ele><time>2026-05-02T05:02:26.489Z</time></trkpt><trkpt lat="40.8138467" lon="14.5906467"><ele>18.0</ele><time>2026-05-02T05:02:27.489Z</time></trkpt><trkpt lat="40.8140533" lon="14.5903683"><ele>18.0</ele><time>2026-05-02T05:02:28.489Z</time></trkpt><trkpt lat="40.8142517" lon="14.5900883"><ele>18.5</ele><time>2026-05-02T05:02:29.489Z</time></trkpt><trkpt lat="40.8144467" lon="14.589805"><ele>19.0</ele><time>2026-05-02T05:02:30.49Z</time></trkpt><trkpt lat="40.8146467" lon="14.5895217"><ele>18.0</ele><time>2026-05-02T05:02:31.489Z</time></trkpt><trkpt lat="40.8148367" lon="14.5892367"><ele>17.0</ele><time>2026-05-02T05:02:32.49Z</time></trkpt><trkpt lat="40.81503" lon="14.588945"><ele>16.5</ele><time>2026-05-02T05:02:33.49Z</time></trkpt><trkpt lat="40.8152167" lon="14.5886517"><ele>16.0</ele><time>2026-05-02T05:02:34.489Z</time></trkpt><trkpt lat="40.815405" lon="14.5883533"><ele>16.0</ele><time>2026-05-02T05:02:35.489Z</time></trkpt><trkpt lat="40.8155933" lon="14.5880533"><ele>16.0</ele><time>2026-05-02T05:02:36.489Z</time></trkpt><trkpt lat="40.8157817" lon="14.5877533"><ele>17.0</ele><time>2026-05-02T05:02:37.489Z</time></trkpt><trkpt lat="40.8159717" lon="14.587455"><ele>18.0</ele><time>2026-05-02T05:02:38.489Z</time></trkpt><trkpt lat="40.8161617" lon="14.5871517"><ele>18.0</ele><time>2026-05-02T05:02:39.489Z</time></trkpt><trkpt lat="40.8163517" lon="14.5868533"><ele>18.0</ele><time>2026-05-02T05:02:40.489Z</time></trkpt><trkpt lat="40.81654" lon="14.5865533"><ele>18.0</ele><time>2026-05-02T05:02:41.489Z</time></trkpt><trkpt lat="40.816725" lon="14.5862517"><ele>18.0</ele><time>2026-05-02T05:02:42.489Z</time></trkpt><trkpt lat="40.8169133" lon="14.5859517"><ele>18.0</ele><time>2026-05-02T05:02:43.49Z</time></trkpt><trkpt lat="40.8170933" lon="14.58565"><ele>18.0</ele><time>2026-05-02T05:02:44.489Z</time></trkpt><trkpt lat="40.8172817" lon="14.5853433"><ele>18.0</ele><time>2026-05-02T05:02:45.489Z</time></trkpt><trkpt lat="40.81747" lon="14.5850367"><ele>18.0</ele><time>2026-05-02T05:02:46.489Z</time></trkpt><trkpt lat="40.817655" lon="14.5847333"><ele>18.0</ele><time>2026-05-02T05:02:47.489Z</time></trkpt><trkpt lat="40.8178467" lon="14.5844283"><ele>18.0</ele><time>2026-05-02T05:02:48.489Z</time></trkpt><trkpt lat="40.8180383" lon="14.58412"><ele>18.0</ele><time>2026-05-02T05:02:49.489Z</time></trkpt><trkpt lat="40.8182317" lon="14.58381"><ele>18.0</ele><time>2026-05-02T05:02:50.49Z</time></trkpt><trkpt lat="40.8184267" lon="14.5835067"><ele>18.0</ele><time>2026-05-02T05:02:51.489Z</time></trkpt><trkpt lat="40.8186167" lon="14.5832067"><ele>18.0</ele><time>2026-05-02T05:02:52.49Z</time></trkpt><trkpt lat="40.8188083" lon="14.5829067"><ele>18.5</ele><time>2026-05-02T05:02:53.49Z</time></trkpt><trkpt lat="40.8189967" lon="14.5826017"><ele>19.0</ele><time>2026-05-02T05:02:54.49Z</time></trkpt><trkpt lat="40.8191833" lon="14.5823033"><ele>19.0</ele><time>2026-05-02T05:02:55.49Z</time></trkpt><trkpt lat="40.8193683" lon="14.582"><ele>19.0</ele><time>2026-05-02T05:02:56.49Z</time></trkpt><trkpt lat="40.819555" lon="14.5816967"><ele>19.0</ele><time>2026-05-02T05:02:57.49Z</time></trkpt><trkpt lat="40.8197417" lon="14.5813983"><ele>19.0</ele><time>2026-05-02T05:02:58.491Z</time></trkpt><trkpt lat="40.81993" lon="14.5810983"><ele>19.5</ele><time>2026-05-02T05:02:59.49Z</time></trkpt><trkpt lat="40.8201183" lon="14.580795"><ele>20.0</ele><time>2026-05-02T05:03:00.49Z</time></trkpt><trkpt lat="40.8203033" lon="14.5805017"><ele>20.5</ele><time>2026-05-02T05:03:01.49Z</time></trkpt><trkpt lat="40.820485" lon="14.5802067"><ele>21.0</ele><time>2026-05-02T05:03:02.491Z</time></trkpt><trkpt lat="40.820665" lon="14.5799117"><ele>21.0</ele><time>2026-05-02T05:03:03.49Z</time></trkpt><trkpt lat="40.82085" lon="14.579615"><ele>21.0</ele><time>2026-05-02T05:03:04.49Z</time></trkpt><trkpt lat="40.821035" lon="14.57932"><ele>21.0</ele><time>2026-05-02T05:03:05.49Z</time></trkpt><trkpt lat="40.8212183" lon="14.5790283"><ele>21.0</ele><time>2026-05-02T05:03:06.49Z</time></trkpt><trkpt lat="40.8214017" lon="14.5787233"><ele>21.0</ele><time>2026-05-02T05:03:07.49Z</time></trkpt><trkpt lat="40.8215867" lon="14.5784267"><ele>21.0</ele><time>2026-05-02T05:03:08.49Z</time></trkpt><trkpt lat="40.8217733" lon="14.5781333"><ele>20.5</ele><time>2026-05-02T05:03:09.49Z</time></trkpt><trkpt lat="40.8219583" lon="14.577835"><ele>20.0</ele><time>2026-05-02T05:03:10.49Z</time></trkpt><trkpt lat="40.82214" lon="14.57754"><ele>20.0</ele><time>2026-05-02T05:03:11.491Z</time></trkpt><trkpt lat="40.82232" lon="14.577245"><ele>20.0</ele><time>2026-05-02T05:03:12.49Z</time></trkpt><trkpt lat="40.822505" lon="14.5769483"><ele>20.0</ele><time>2026-05-02T05:03:13.49Z</time></trkpt><trkpt lat="40.82269" lon="14.5766483"><ele>20.0</ele><time>2026-05-02T05:03:14.49Z</time></trkpt><trkpt lat="40.82287" lon="14.5763567"><ele>20.5</ele><time>2026-05-02T05:03:15.49Z</time></trkpt><trkpt lat="40.8230517" lon="14.5760583"><ele>21.0</ele><time>2026-05-02T05:03:16.49Z</time></trkpt><trkpt lat="40.823235" lon="14.5757617"><ele>21.0</ele><time>2026-05-02T05:03:17.49Z</time></trkpt><trkpt lat="40.8234217" lon="14.575465"><ele>21.0</ele><time>2026-05-02T05:03:18.49Z</time></trkpt><trkpt lat="40.8236067" lon="14.575165"><ele>21.0</ele><time>2026-05-02T05:03:19.49Z</time></trkpt><trkpt lat="40.8237933" lon="14.5748717"><ele>21.0</ele><time>2026-05-02T05:03:20.49Z</time></trkpt><trkpt lat="40.8239767" lon="14.5745733"><ele>21.0</ele><time>2026-05-02T05:03:21.49Z</time></trkpt><trkpt lat="40.8241633" lon="14.5742767"><ele>21.0</ele><time>2026-05-02T05:03:22.491Z</time></trkpt><trkpt lat="40.82435" lon="14.5739783"><ele>20.0</ele><time>2026-05-02T05:03:23.49Z</time></trkpt><trkpt lat="40.82454" lon="14.5736783"><ele>19.0</ele><time>2026-05-02T05:03:24.49Z</time></trkpt><trkpt lat="40.8247283" lon="14.5733783"><ele>19.0</ele><time>2026-05-02T05:03:25.49Z</time></trkpt><trkpt lat="40.8249133" lon="14.5730733"><ele>19.0</ele><time>2026-05-02T05:03:26.49Z</time></trkpt><trkpt lat="40.8251017" lon="14.57277"><ele>19.0</ele><time>2026-05-02T05:03:27.49Z</time></trkpt><trkpt lat="40.825285" lon="14.572465"><ele>19.0</ele><time>2026-05-02T05:03:28.49Z</time></trkpt><trkpt lat="40.8254717" lon="14.5721617"><ele>19.5</ele><time>2026-05-02T05:03:29.49Z</time></trkpt><trkpt lat="40.82566" lon="14.57186"><ele>20.0</ele><time>2026-05-02T05:03:30.491Z</time></trkpt><trkpt lat="40.8258483" lon="14.571555"><ele>19.5</ele><time>2026-05-02T05:03:31.49Z</time></trkpt><trkpt lat="40.8260383" lon="14.57125"><ele>19.0</ele><time>2026-05-02T05:03:32.491Z</time></trkpt><trkpt lat="40.8262283" lon="14.5709467"><ele>19.0</ele><time>2026-05-02T05:03:33.49Z</time></trkpt><trkpt lat="40.8264183" lon="14.5706417"><ele>19.0</ele><time>2026-05-02T05:03:34.49Z</time></trkpt><trkpt lat="40.8266117" lon="14.5703367"><ele>19.5</ele><time>2026-05-02T05:03:35.49Z</time></trkpt><trkpt lat="40.8268033" lon="14.5700317"><ele>20.0</ele><time>2026-05-02T05:03:36.49Z</time></trkpt><trkpt lat="40.82699" lon="14.56973"><ele>20.5</ele><time>2026-05-02T05:03:37.49Z</time></trkpt><trkpt lat="40.8271817" lon="14.5694267"><ele>21.0</ele><time>2026-05-02T05:03:38.491Z</time></trkpt><trkpt lat="40.8273667" lon="14.5691233"><ele>21.0</ele><time>2026-05-02T05:03:39.49Z</time></trkpt><trkpt lat="40.8275567" lon="14.5688183"><ele>21.0</ele><time>2026-05-02T05:03:40.49Z</time></trkpt><trkpt lat="40.82775" lon="14.5685167"><ele>21.5</ele><time>2026-05-02T05:03:41.49Z</time></trkpt><trkpt lat="40.8279417" lon="14.5682083"><ele>22.0</ele><time>2026-05-02T05:03:42.49Z</time></trkpt><trkpt lat="40.8281317" lon="14.5679033"><ele>21.5</ele><time>2026-05-02T05:03:43.49Z</time></trkpt><trkpt lat="40.8283217" lon="14.5676017"><ele>21.0</ele><time>2026-05-02T05:03:44.49Z</time></trkpt><trkpt lat="40.8285117" lon="14.5672983"><ele>21.0</ele><time>2026-05-02T05:03:45.49Z</time></trkpt><trkpt lat="40.8286983" lon="14.5669983"><ele>21.0</ele><time>2026-05-02T05:03:46.49Z</time></trkpt><trkpt lat="40.8288867" lon="14.5666933"><ele>21.0</ele><time>2026-05-02T05:03:47.49Z</time></trkpt><trkpt lat="40.82908" lon="14.5663933"><ele>21.0</ele><time>2026-05-02T05:03:48.49Z</time></trkpt><trkpt lat="40.829265" lon="14.5660883"><ele>21.0</ele><time>2026-05-02T05:03:49.49Z</time></trkpt><trkpt lat="40.8294583" lon="14.5657817"><ele>21.0</ele><time>2026-05-02T05:03:50.49Z</time></trkpt><trkpt lat="40.829645" lon="14.5654817"><ele>21.0</ele><time>2026-05-02T05:03:51.49Z</time></trkpt><trkpt lat="40.8298333" lon="14.5651783"><ele>21.0</ele><time>2026-05-02T05:03:52.49Z</time></trkpt><trkpt lat="40.8300167" lon="14.564875"><ele>21.0</ele><time>2026-05-02T05:03:53.49Z</time></trkpt><trkpt lat="40.8302033" lon="14.5645717"><ele>21.0</ele><time>2026-05-02T05:03:54.49Z</time></trkpt><trkpt lat="40.8303883" lon="14.5642683"><ele>21.0</ele><time>2026-05-02T05:03:55.49Z</time></trkpt><trkpt lat="40.8305733" lon="14.5639717"><ele>21.0</ele><time>2026-05-02T05:03:56.49Z</time></trkpt><trkpt lat="40.8307617" lon="14.5636767"><ele>22.0</ele><time>2026-05-02T05:03:57.49Z</time></trkpt><trkpt lat="40.8309483" lon="14.5633867"><ele>23.0</ele><time>2026-05-02T05:03:58.491Z</time></trkpt><trkpt lat="40.831135" lon="14.5630933"><ele>23.5</ele><time>2026-05-02T05:03:59.49Z</time></trkpt><trkpt lat="40.8313217" lon="14.562805"><ele>24.0</ele><time>2026-05-02T05:04:00.49Z</time></trkpt><trkpt lat="40.8315167" lon="14.5625233"><ele>24.0</ele><time>2026-05-02T05:04:01.49Z</time></trkpt><trkpt lat="40.8317183" lon="14.5622433"><ele>24.0</ele><time>2026-05-02T05:04:02.49Z</time></trkpt><trkpt lat="40.8319167" lon="14.56196"><ele>24.5</ele><time>2026-05-02T05:04:03.49Z</time></trkpt><trkpt lat="40.83212" lon="14.5616817"><ele>25.0</ele><time>2026-05-02T05:04:04.491Z</time></trkpt><trkpt lat="40.832325" lon="14.5614017"><ele>25.5</ele><time>2026-05-02T05:04:05.49Z</time></trkpt><trkpt lat="40.83253" lon="14.5611217"><ele>26.0</ele><time>2026-05-02T05:04:06.49Z</time></trkpt><trkpt lat="40.8327483" lon="14.5608417"><ele>26.0</ele><time>2026-05-02T05:04:07.49Z</time></trkpt><trkpt lat="40.832955" lon="14.5605733"><ele>26.0</ele><time>2026-05-02T05:04:08.49Z</time></trkpt><trkpt lat="40.8331633" lon="14.5603"><ele>26.0</ele><time>2026-05-02T05:04:09.491Z</time></trkpt><trkpt lat="40.8333767" lon="14.560035"><ele>26.0</ele><time>2026-05-02T05:04:10.49Z</time></trkpt><trkpt lat="40.8335983" lon="14.5597767"><ele>25.5</ele><time>2026-05-02T05:04:11.491Z</time></trkpt><trkpt lat="40.8338217" lon="14.5595233"><ele>25.0</ele><time>2026-05-02T05:04:12.491Z</time></trkpt><trkpt lat="40.8340433" lon="14.5592683"><ele>25.0</ele><time>2026-05-02T05:04:13.49Z</time></trkpt><trkpt lat="40.8342683" lon="14.5590067"><ele>25.0</ele><time>2026-05-02T05:04:14.49Z</time></trkpt><trkpt lat="40.83449" lon="14.5587517"><ele>25.0</ele><time>2026-05-02T05:04:15.49Z</time></trkpt><trkpt lat="40.8347167" lon="14.5584983"><ele>25.0</ele><time>2026-05-02T05:04:16.49Z</time></trkpt><trkpt lat="40.834935" lon="14.5582483"><ele>24.0</ele><time>2026-05-02T05:04:17.49Z</time></trkpt><trkpt lat="40.8351583" lon="14.5579967"><ele>23.0</ele><time>2026-05-02T05:04:18.49Z</time></trkpt><trkpt lat="40.8353817" lon="14.5577433"><ele>25.0</ele><time>2026-05-02T05:04:19.49Z</time></trkpt><trkpt lat="40.835605" lon="14.557495"><ele>27.0</ele><time>2026-05-02T05:04:20.49Z</time></trkpt><trkpt lat="40.8358317" lon="14.5572433"><ele>27.0</ele><time>2026-05-02T05:04:21.49Z</time></trkpt><trkpt lat="40.83606" lon="14.5569933"><ele>27.0</ele><time>2026-05-02T05:04:22.49Z</time></trkpt><trkpt lat="40.8362917" lon="14.5567417"><ele>27.0</ele><time>2026-05-02T05:04:23.49Z</time></trkpt><trkpt lat="40.8365167" lon="14.5564883"><ele>27.0</ele><time>2026-05-02T05:04:24.49Z</time></trkpt><trkpt lat="40.836735" lon="14.55624"><ele>27.0</ele><time>2026-05-02T05:04:25.49Z</time></trkpt><trkpt lat="40.83696" lon="14.5559833"><ele>27.0</ele><time>2026-05-02T05:04:26.49Z</time></trkpt><trkpt lat="40.837185" lon="14.55573"><ele>27.0</ele><time>2026-05-02T05:04:27.49Z</time></trkpt><trkpt lat="40.83741" lon="14.55547"><ele>27.0</ele><time>2026-05-02T05:04:28.49Z</time></trkpt><trkpt lat="40.837635" lon="14.55521"><ele>27.0</ele><time>2026-05-02T05:04:29.49Z</time></trkpt><trkpt lat="40.83786" lon="14.554955"><ele>27.0</ele><time>2026-05-02T05:04:30.49Z</time></trkpt><trkpt lat="40.8380833" lon="14.5547033"><ele>28.0</ele><time>2026-05-02T05:04:31.49Z</time></trkpt><trkpt lat="40.8383083" lon="14.5544483"><ele>29.0</ele><time>2026-05-02T05:04:32.49Z</time></trkpt><trkpt lat="40.8385317" lon="14.5541967"><ele>30.0</ele><time>2026-05-02T05:04:33.491Z</time></trkpt><trkpt lat="40.8387533" lon="14.5539433"><ele>31.0</ele><time>2026-05-02T05:04:34.491Z</time></trkpt><trkpt lat="40.83898" lon="14.55369"><ele>31.5</ele><time>2026-05-02T05:04:35.49Z</time></trkpt><trkpt lat="40.8392" lon="14.5534383"><ele>32.0</ele><time>2026-05-02T05:04:36.491Z</time></trkpt><trkpt lat="40.8394233" lon="14.55318"><ele>33.5</ele><time>2026-05-02T05:04:37.49Z</time></trkpt><trkpt lat="40.8396467" lon="14.5529217"><ele>35.0</ele><time>2026-05-02T05:04:38.49Z</time></trkpt><trkpt lat="40.8398733" lon="14.5526633"><ele>35.0</ele><time>2026-05-02T05:04:39.49Z</time></trkpt><trkpt lat="40.8400967" lon="14.55241"><ele>35.0</ele><time>2026-05-02T05:04:40.49Z</time></trkpt><trkpt lat="40.8403217" lon="14.552155"><ele>37.0</ele><time>2026-05-02T05:04:41.49Z</time></trkpt><trkpt lat="40.840545" lon="14.5519"><ele>39.0</ele><time>2026-05-02T05:04:42.49Z</time></trkpt><trkpt lat="40.84077" lon="14.5516467"><ele>39.0</ele><time>2026-05-02T05:04:43.49Z</time></trkpt><trkpt lat="40.8409917" lon="14.5513933"><ele>39.0</ele><time>2026-05-02T05:04:44.49Z</time></trkpt><trkpt lat="40.841215" lon="14.5511333"><ele>39.0</ele><time>2026-05-02T05:04:45.49Z</time></trkpt><trkpt lat="40.8414467" lon="14.5508767"><ele>39.0</ele><time>2026-05-02T05:04:46.491Z</time></trkpt><trkpt lat="40.8416667" lon="14.5506183"><ele>39.5</ele><time>2026-05-02T05:04:47.49Z</time></trkpt><trkpt lat="40.8418933" lon="14.55036"><ele>40.0</ele><time>2026-05-02T05:04:48.49Z</time></trkpt><trkpt lat="40.8421183" lon="14.550105"><ele>40.0</ele><time>2026-05-02T05:04:49.49Z</time></trkpt><trkpt lat="40.8423483" lon="14.54984"><ele>40.0</ele><time>2026-05-02T05:04:50.491Z</time></trkpt><trkpt lat="40.8425717" lon="14.5495817"><ele>40.5</ele><time>2026-05-02T05:04:51.49Z</time></trkpt><trkpt lat="40.8428" lon="14.54932"><ele>41.0</ele><time>2026-05-02T05:04:52.49Z</time></trkpt><trkpt lat="40.8430267" lon="14.549055"><ele>41.0</ele><time>2026-05-02T05:04:53.49Z</time></trkpt><trkpt lat="40.8432533" lon="14.548795"><ele>41.0</ele><time>2026-05-02T05:04:54.49Z</time></trkpt><trkpt lat="40.84348" lon="14.5485417"><ele>40.5</ele><time>2026-05-02T05:04:55.49Z</time></trkpt><trkpt lat="40.8437083" lon="14.5482833"><ele>40.0</ele><time>2026-05-02T05:04:56.49Z</time></trkpt><trkpt lat="40.84394" lon="14.548025"><ele>40.5</ele><time>2026-05-02T05:04:57.49Z</time></trkpt><trkpt lat="40.8441717" lon="14.5477717"><ele>41.0</ele><time>2026-05-02T05:04:58.49Z</time></trkpt><trkpt lat="40.8444033" lon="14.5475233"><ele>41.0</ele><time>2026-05-02T05:04:59.49Z</time></trkpt><trkpt lat="40.8446417" lon="14.5472767"><ele>41.0</ele><time>2026-05-02T05:05:00.49Z</time></trkpt><trkpt lat="40.84488" lon="14.54703"><ele>41.5</ele><time>2026-05-02T05:05:01.49Z</time></trkpt><trkpt lat="40.8451217" lon="14.5467867"><ele>42.0</ele><time>2026-05-02T05:05:02.49Z</time></trkpt><trkpt lat="40.8453667" lon="14.54655"><ele>42.0</ele><time>2026-05-02T05:05:03.49Z</time></trkpt><trkpt lat="40.8456117" lon="14.546315"><ele>42.0</ele><time>2026-05-02T05:05:04.49Z</time></trkpt><trkpt lat="40.845855" lon="14.546085"><ele>45.5</ele><time>2026-05-02T05:05:05.49Z</time></trkpt><trkpt lat="40.8460983" lon="14.5458583"><ele>49.0</ele><time>2026-05-02T05:05:06.49Z</time></trkpt><trkpt lat="40.8463433" lon="14.5456367"><ele>49.0</ele><time>2026-05-02T05:05:07.49Z</time></trkpt><trkpt lat="40.8465933" lon="14.5454233"><ele>49.0</ele><time>2026-05-02T05:05:08.49Z</time></trkpt><trkpt lat="40.84685" lon="14.5452083"><ele>51.0</ele><time>2026-05-02T05:05:09.49Z</time></trkpt><trkpt lat="40.8471067" lon="14.5449967"><ele>53.0</ele><time>2026-05-02T05:05:10.49Z</time></trkpt><trkpt lat="40.8473583" lon="14.5447917"><ele>53.0</ele><time>2026-05-02T05:05:11.49Z</time></trkpt><trkpt lat="40.8476133" lon="14.5445917"><ele>53.0</ele><time>2026-05-02T05:05:12.49Z</time></trkpt><trkpt lat="40.847875" lon="14.5443917"><ele>53.0</ele><time>2026-05-02T05:05:13.49Z</time></trkpt><trkpt lat="40.8481317" lon="14.5441983"><ele>53.0</ele><time>2026-05-02T05:05:14.49Z</time></trkpt><trkpt lat="40.8483867" lon="14.5440017"><ele>52.0</ele><time>2026-05-02T05:05:15.491Z</time></trkpt><trkpt lat="40.84865" lon="14.543815"><ele>51.0</ele><time>2026-05-02T05:05:16.49Z</time></trkpt><trkpt lat="40.84891" lon="14.5436333"><ele>51.0</ele><time>2026-05-02T05:05:17.49Z</time></trkpt><trkpt lat="40.8491633" lon="14.54346"><ele>51.0</ele><time>2026-05-02T05:05:18.49Z</time></trkpt><trkpt lat="40.8494317" lon="14.5432833"><ele>51.0</ele><time>2026-05-02T05:05:19.49Z</time></trkpt><trkpt lat="40.8496967" lon="14.543115"><ele>51.0</ele><time>2026-05-02T05:05:20.49Z</time></trkpt><trkpt lat="40.8499533" lon="14.5429533"><ele>51.5</ele><time>2026-05-02T05:05:21.49Z</time></trkpt><trkpt lat="40.8502167" lon="14.5427867"><ele>52.0</ele><time>2026-05-02T05:05:22.49Z</time></trkpt><trkpt lat="40.8504717" lon="14.542635"><ele>52.0</ele><time>2026-05-02T05:05:23.49Z</time></trkpt><trkpt lat="40.8507317" lon="14.5424833"><ele>52.0</ele><time>2026-05-02T05:05:24.49Z</time></trkpt><trkpt lat="40.850985" lon="14.5423333"><ele>54.5</ele><time>2026-05-02T05:05:25.49Z</time></trkpt><trkpt lat="40.851245" lon="14.5421867"><ele>57.0</ele><time>2026-05-02T05:05:26.49Z</time></trkpt><trkpt lat="40.85151" lon="14.5420467"><ele>58.0</ele><time>2026-05-02T05:05:27.49Z</time></trkpt><trkpt lat="40.851775" lon="14.54191"><ele>59.0</ele><time>2026-05-02T05:05:28.49Z</time></trkpt><trkpt lat="40.8520383" lon="14.5417817"><ele>59.0</ele><time>2026-05-02T05:05:29.49Z</time></trkpt><trkpt lat="40.8523" lon="14.5416533"><ele>59.0</ele><time>2026-05-02T05:05:30.49Z</time></trkpt><trkpt lat="40.85256" lon="14.5415267"><ele>57.5</ele><time>2026-05-02T05:05:31.49Z</time></trkpt><trkpt lat="40.8528233" lon="14.541405"><ele>56.0</ele><time>2026-05-02T05:05:32.49Z</time></trkpt><trkpt lat="40.853085" lon="14.5412933"><ele>56.0</ele><time>2026-05-02T05:05:33.49Z</time></trkpt><trkpt lat="40.8533517" lon="14.54118"><ele>56.0</ele><time>2026-05-02T05:05:34.49Z</time></trkpt><trkpt lat="40.85362" lon="14.5410717"><ele>55.0</ele><time>2026-05-02T05:05:35.49Z</time></trkpt><trkpt lat="40.8538817" lon="14.540965"><ele>54.0</ele><time>2026-05-02T05:05:36.49Z</time></trkpt><trkpt lat="40.8541417" lon="14.540865"><ele>53.0</ele><time>2026-05-02T05:05:37.49Z</time></trkpt><trkpt lat="40.8544167" lon="14.54077"><ele>52.0</ele><time>2026-05-02T05:05:38.49Z</time></trkpt><trkpt lat="40.8546967" lon="14.5406683"><ele>52.0</ele><time>2026-05-02T05:05:39.49Z</time></trkpt><trkpt lat="40.854975" lon="14.5405667"><ele>52.0</ele><time>2026-05-02T05:05:40.49Z</time></trkpt><trkpt lat="40.855255" lon="14.5404667"><ele>53.5</ele><time>2026-05-02T05:05:41.49Z</time></trkpt><trkpt lat="40.8555333" lon="14.5403667"><ele>55.0</ele><time>2026-05-02T05:05:42.49Z</time></trkpt><trkpt lat="40.8558267" lon="14.5402717"><ele>55.0</ele><time>2026-05-02T05:05:43.49Z</time></trkpt><trkpt lat="40.856115" lon="14.5401733"><ele>55.0</ele><time>2026-05-02T05:05:44.49Z</time></trkpt><trkpt lat="40.8564033" lon="14.5400683"><ele>55.0</ele><time>2026-05-02T05:05:45.49Z</time></trkpt><trkpt lat="40.8566917" lon="14.53997"><ele>55.0</ele><time>2026-05-02T05:05:46.49Z</time></trkpt><trkpt lat="40.85698" lon="14.5398717"><ele>54.5</ele><time>2026-05-02T05:05:47.49Z</time></trkpt><trkpt lat="40.8572717" lon="14.5397783"><ele>54.0</ele><time>2026-05-02T05:05:48.49Z</time></trkpt><trkpt lat="40.8575617" lon="14.539685"><ele>54.0</ele><time>2026-05-02T05:05:49.49Z</time></trkpt><trkpt lat="40.8578533" lon="14.5395817"><ele>54.0</ele><time>2026-05-02T05:05:50.49Z</time></trkpt><trkpt lat="40.8581267" lon="14.5394867"><ele>54.0</ele><time>2026-05-02T05:05:51.49Z</time></trkpt><trkpt lat="40.8584" lon="14.5393817"><ele>54.0</ele><time>2026-05-02T05:05:52.49Z</time></trkpt><trkpt lat="40.85869" lon="14.5392717"><ele>53.0</ele><time>2026-05-02T05:05:53.49Z</time></trkpt><trkpt lat="40.85896" lon="14.5391667"><ele>52.0</ele><time>2026-05-02T05:05:54.49Z</time></trkpt><trkpt lat="40.859235" lon="14.539065"><ele>51.5</ele><time>2026-05-02T05:05:55.49Z</time></trkpt><trkpt lat="40.8595233" lon="14.53896"><ele>51.0</ele><time>2026-05-02T05:05:56.49Z</time></trkpt><trkpt lat="40.8598017" lon="14.53886"><ele>51.0</ele><time>2026-05-02T05:05:57.49Z</time></trkpt><trkpt lat="40.86009" lon="14.5387633"><ele>51.0</ele><time>2026-05-02T05:05:58.49Z</time></trkpt><trkpt lat="40.8603783" lon="14.5386617"><ele>50.0</ele><time>2026-05-02T05:05:59.49Z</time></trkpt><trkpt lat="40.8606617" lon="14.53856"><ele>49.0</ele><time>2026-05-02T05:06:00.49Z</time></trkpt><trkpt lat="40.8609467" lon="14.5384567"><ele>50.0</ele><time>2026-05-02T05:06:01.49Z</time></trkpt><trkpt lat="40.8612317" lon="14.538355"><ele>51.0</ele><time>2026-05-02T05:06:02.49Z</time></trkpt><trkpt lat="40.8615183" lon="14.5382617"><ele>51.5</ele><time>2026-05-02T05:06:03.49Z</time></trkpt><trkpt lat="40.8618067" lon="14.5381633"><ele>52.0</ele><time>2026-05-02T05:06:04.491Z</time></trkpt><trkpt lat="40.862095" lon="14.538055"><ele>52.0</ele><time>2026-05-02T05:06:05.49Z</time></trkpt><trkpt lat="40.8623717" lon="14.5379533"><ele>52.0</ele><time>2026-05-02T05:06:06.49Z</time></trkpt><trkpt lat="40.8626483" lon="14.5378533"><ele>51.0</ele><time>2026-05-02T05:06:07.49Z</time></trkpt><trkpt lat="40.8629317" lon="14.53775"><ele>50.0</ele><time>2026-05-02T05:06:08.49Z</time></trkpt><trkpt lat="40.86321" lon="14.537645"><ele>50.0</ele><time>2026-05-02T05:06:09.49Z</time></trkpt><trkpt lat="40.8634867" lon="14.537545"><ele>50.0</ele><time>2026-05-02T05:06:10.49Z</time></trkpt><trkpt lat="40.86376" lon="14.5374483"><ele>50.0</ele><time>2026-05-02T05:06:11.49Z</time></trkpt><trkpt lat="40.8640383" lon="14.5373467"><ele>50.0</ele><time>2026-05-02T05:06:12.49Z</time></trkpt><trkpt lat="40.864305" lon="14.5372533"><ele>49.5</ele><time>2026-05-02T05:06:13.491Z</time></trkpt><trkpt lat="40.864575" lon="14.5371583"><ele>49.0</ele><time>2026-05-02T05:06:14.49Z</time></trkpt><trkpt lat="40.8648483" lon="14.5370583"><ele>51.0</ele><time>2026-05-02T05:06:15.491Z</time></trkpt><trkpt lat="40.865125" lon="14.5369617"><ele>53.0</ele><time>2026-05-02T05:06:16.49Z</time></trkpt><trkpt lat="40.8653967" lon="14.536865"><ele>53.0</ele><time>2026-05-02T05:06:17.49Z</time></trkpt><trkpt lat="40.8656633" lon="14.5367683"><ele>53.0</ele><time>2026-05-02T05:06:18.49Z</time></trkpt><trkpt lat="40.86593" lon="14.5366683"><ele>52.0</ele><time>2026-05-02T05:06:19.49Z</time></trkpt><trkpt lat="40.8662" lon="14.53657"><ele>51.0</ele><time>2026-05-02T05:06:20.49Z</time></trkpt><trkpt lat="40.86647" lon="14.5364733"><ele>51.0</ele><time>2026-05-02T05:06:21.49Z</time></trkpt><trkpt lat="40.8667383" lon="14.5363783"><ele>51.0</ele><time>2026-05-02T05:06:22.49Z</time></trkpt><trkpt lat="40.8670033" lon="14.5362817"><ele>50.0</ele><time>2026-05-02T05:06:23.49Z</time></trkpt><trkpt lat="40.867265" lon="14.5361817"><ele>49.0</ele><time>2026-05-02T05:06:24.49Z</time></trkpt><trkpt lat="40.8675283" lon="14.53609"><ele>48.0</ele><time>2026-05-02T05:06:25.49Z</time></trkpt><trkpt lat="40.8678" lon="14.5359867"><ele>47.0</ele><time>2026-05-02T05:06:26.49Z</time></trkpt><trkpt lat="40.8680667" lon="14.5358917"><ele>47.0</ele><time>2026-05-02T05:06:27.49Z</time></trkpt><trkpt lat="40.86834" lon="14.53579"><ele>47.0</ele><time>2026-05-02T05:06:28.491Z</time></trkpt><trkpt lat="40.8686083" lon="14.5356933"><ele>47.0</ele><time>2026-05-02T05:06:29.49Z</time></trkpt><trkpt lat="40.86888" lon="14.5356017"><ele>47.0</ele><time>2026-05-02T05:06:30.49Z</time></trkpt><trkpt lat="40.8691567" lon="14.5355067"><ele>47.0</ele><time>2026-05-02T05:06:31.49Z</time></trkpt><trkpt lat="40.8694333" lon="14.5354183"><ele>47.0</ele><time>2026-05-02T05:06:32.49Z</time></trkpt><trkpt lat="40.8697083" lon="14.5353317"><ele>47.0</ele><time>2026-05-02T05:06:33.49Z</time></trkpt><trkpt lat="40.86999" lon="14.53525"><ele>47.0</ele><time>2026-05-02T05:06:34.49Z</time></trkpt><trkpt lat="40.8702717" lon="14.53517"><ele>47.0</ele><time>2026-05-02T05:06:35.49Z</time></trkpt><trkpt lat="40.8705567" lon="14.5350967"><ele>47.0</ele><time>2026-05-02T05:06:36.49Z</time></trkpt><trkpt lat="40.870845" lon="14.5350283"><ele>47.0</ele><time>2026-05-02T05:06:37.49Z</time></trkpt><trkpt lat="40.8711333" lon="14.53496"><ele>47.0</ele><time>2026-05-02T05:06:38.49Z</time></trkpt><trkpt lat="40.8714267" lon="14.5348967"><ele>47.0</ele><time>2026-05-02T05:06:39.491Z</time></trkpt><trkpt lat="40.87172" lon="14.534835"><ele>47.0</ele><time>2026-05-02T05:06:40.49Z</time></trkpt><trkpt lat="40.8720083" lon="14.5347783"><ele>47.5</ele><time>2026-05-02T05:06:41.49Z</time></trkpt><trkpt lat="40.8723017" lon="14.5347267"><ele>48.0</ele><time>2026-05-02T05:06:42.49Z</time></trkpt><trkpt lat="40.872595" lon="14.5346783"><ele>47.5</ele><time>2026-05-02T05:06:43.49Z</time></trkpt><trkpt lat="40.8728933" lon="14.53463"><ele>47.0</ele><time>2026-05-02T05:06:44.49Z</time></trkpt><trkpt lat="40.87318" lon="14.534595"><ele>47.0</ele><time>2026-05-02T05:06:45.49Z</time></trkpt><trkpt lat="40.8734683" lon="14.53456"><ele>47.0</ele><time>2026-05-02T05:06:46.49Z</time></trkpt><trkpt lat="40.87376" lon="14.5345283"><ele>47.0</ele><time>2026-05-02T05:06:47.49Z</time></trkpt><trkpt lat="40.8740533" lon="14.5345"><ele>47.0</ele><time>2026-05-02T05:06:48.49Z</time></trkpt><trkpt lat="40.8743367" lon="14.53448"><ele>47.0</ele><time>2026-05-02T05:06:49.49Z</time></trkpt><trkpt lat="40.874625" lon="14.5344533"><ele>47.0</ele><time>2026-05-02T05:06:50.49Z</time></trkpt><trkpt lat="40.8749133" lon="14.534435"><ele>46.5</ele><time>2026-05-02T05:06:51.49Z</time></trkpt><trkpt lat="40.8751933" lon="14.5344283"><ele>46.0</ele><time>2026-05-02T05:06:52.49Z</time></trkpt><trkpt lat="40.8754783" lon="14.53441"><ele>46.0</ele><time>2026-05-02T05:06:53.491Z</time></trkpt><trkpt lat="40.875765" lon="14.534395"><ele>46.0</ele><time>2026-05-02T05:06:54.49Z</time></trkpt><trkpt lat="40.8760517" lon="14.53438"><ele>45.5</ele><time>2026-05-02T05:06:55.49Z</time></trkpt><trkpt lat="40.8763367" lon="14.5343617"><ele>45.0</ele><time>2026-05-02T05:06:56.49Z</time></trkpt><trkpt lat="40.8766217" lon="14.5343467"><ele>46.5</ele><time>2026-05-02T05:06:57.49Z</time></trkpt><trkpt lat="40.8769" lon="14.5343317"><ele>48.0</ele><time>2026-05-02T05:06:58.49Z</time></trkpt><trkpt lat="40.8771817" lon="14.5343183"><ele>48.0</ele><time>2026-05-02T05:06:59.49Z</time></trkpt><trkpt lat="40.8774633" lon="14.5343033"><ele>48.0</ele><time>2026-05-02T05:07:00.49Z</time></trkpt><trkpt lat="40.8777483" lon="14.5342833"><ele>47.5</ele><time>2026-05-02T05:07:01.49Z</time></trkpt><trkpt lat="40.878035" lon="14.5342683"><ele>47.0</ele><time>2026-05-02T05:07:02.491Z</time></trkpt><trkpt lat="40.87832" lon="14.5342483"><ele>48.5</ele><time>2026-05-02T05:07:03.49Z</time></trkpt><trkpt lat="40.8786" lon="14.5342283"><ele>50.0</ele><time>2026-05-02T05:07:04.49Z</time></trkpt><trkpt lat="40.87888" lon="14.534215"><ele>50.0</ele><time>2026-05-02T05:07:05.49Z</time></trkpt><trkpt lat="40.8791583" lon="14.5341983"><ele>50.0</ele><time>2026-05-02T05:07:06.49Z</time></trkpt><trkpt lat="40.879445" lon="14.5341783"><ele>48.5</ele><time>2026-05-02T05:07:07.49Z</time></trkpt><trkpt lat="40.8797283" lon="14.53416"><ele>47.0</ele><time>2026-05-02T05:07:08.49Z</time></trkpt><trkpt lat="40.8800017" lon="14.5341483"><ele>46.5</ele><time>2026-05-02T05:07:09.49Z</time></trkpt><trkpt lat="40.88028" lon="14.53413"><ele>46.0</ele><time>2026-05-02T05:07:10.49Z</time></trkpt><trkpt lat="40.8805583" lon="14.5341167"><ele>46.0</ele><time>2026-05-02T05:07:11.49Z</time></trkpt><trkpt lat="40.8808333" lon="14.5340967"><ele>46.0</ele><time>2026-05-02T05:07:12.49Z</time></trkpt><trkpt lat="40.8811117" lon="14.53408"><ele>46.0</ele><time>2026-05-02T05:07:13.49Z</time></trkpt><trkpt lat="40.8813917" lon="14.5340583"><ele>46.0</ele><time>2026-05-02T05:07:14.49Z</time></trkpt><trkpt lat="40.88168" lon="14.5340367"><ele>46.0</ele><time>2026-05-02T05:07:15.49Z</time></trkpt><trkpt lat="40.8819617" lon="14.5340183"><ele>46.0</ele><time>2026-05-02T05:07:16.49Z</time></trkpt><trkpt lat="40.882245" lon="14.534005"><ele>46.0</ele><time>2026-05-02T05:07:17.49Z</time></trkpt><trkpt lat="40.8825283" lon="14.5339883"><ele>46.0</ele><time>2026-05-02T05:07:18.49Z</time></trkpt><trkpt lat="40.88282" lon="14.5339717"><ele>46.0</ele><time>2026-05-02T05:07:19.49Z</time></trkpt><trkpt lat="40.8831017" lon="14.53396"><ele>46.0</ele><time>2026-05-02T05:07:20.49Z</time></trkpt><trkpt lat="40.8833867" lon="14.533945"><ele>45.0</ele><time>2026-05-02T05:07:21.49Z</time></trkpt><trkpt lat="40.8836733" lon="14.533925"><ele>44.0</ele><time>2026-05-02T05:07:22.49Z</time></trkpt><trkpt lat="40.8839617" lon="14.5339067"><ele>44.0</ele><time>2026-05-02T05:07:23.49Z</time></trkpt><trkpt lat="40.8842417" lon="14.5338917"><ele>44.0</ele><time>2026-05-02T05:07:24.491Z</time></trkpt><trkpt lat="40.8845267" lon="14.5338733"><ele>44.0</ele><time>2026-05-02T05:07:25.49Z</time></trkpt><trkpt lat="40.88481" lon="14.533855"><ele>44.0</ele><time>2026-05-02T05:07:26.49Z</time></trkpt><trkpt lat="40.8850933" lon="14.5338383"><ele>43.5</ele><time>2026-05-02T05:07:27.49Z</time></trkpt><trkpt lat="40.8853783" lon="14.5338267"><ele>43.0</ele><time>2026-05-02T05:07:28.49Z</time></trkpt><trkpt lat="40.8856633" lon="14.533805"><ele>43.0</ele><time>2026-05-02T05:07:29.49Z</time></trkpt><trkpt lat="40.8859467" lon="14.53379"><ele>43.0</ele><time>2026-05-02T05:07:30.49Z</time></trkpt><trkpt lat="40.8862367" lon="14.53377"><ele>43.0</ele><time>2026-05-02T05:07:31.49Z</time></trkpt><trkpt lat="40.8865183" lon="14.533755"><ele>43.0</ele><time>2026-05-02T05:07:32.49Z</time></trkpt><trkpt lat="40.8867933" lon="14.5337433"><ele>43.5</ele><time>2026-05-02T05:07:33.49Z</time></trkpt><trkpt lat="40.88707" lon="14.5337233"><ele>44.0</ele><time>2026-05-02T05:07:34.49Z</time></trkpt><trkpt lat="40.8873483" lon="14.5337083"><ele>44.5</ele><time>2026-05-02T05:07:35.49Z</time></trkpt><trkpt lat="40.8876133" lon="14.533695"><ele>45.0</ele><time>2026-05-02T05:07:36.49Z</time></trkpt><trkpt lat="40.8878833" lon="14.5336767"><ele>45.0</ele><time>2026-05-02T05:07:37.49Z</time></trkpt><trkpt lat="40.88816" lon="14.53366"><ele>45.0</ele><time>2026-05-02T05:07:38.49Z</time></trkpt><trkpt lat="40.8884283" lon="14.5336533"><ele>45.0</ele><time>2026-05-02T05:07:39.49Z</time></trkpt><trkpt lat="40.8887017" lon="14.5336333"><ele>45.0</ele><time>2026-05-02T05:07:40.49Z</time></trkpt><trkpt lat="40.8889767" lon="14.5336167"><ele>45.0</ele><time>2026-05-02T05:07:41.49Z</time></trkpt><trkpt lat="40.8892517" lon="14.5336"><ele>45.0</ele><time>2026-05-02T05:07:42.49Z</time></trkpt><trkpt lat="40.8895283" lon="14.533585"><ele>45.0</ele><time>2026-05-02T05:07:43.49Z</time></trkpt><trkpt lat="40.8898033" lon="14.53357"><ele>45.0</ele><time>2026-05-02T05:07:44.491Z</time></trkpt><trkpt lat="40.8900733" lon="14.5335533"><ele>44.5</ele><time>2026-05-02T05:07:45.49Z</time></trkpt><trkpt lat="40.890355" lon="14.5335367"><ele>44.0</ele><time>2026-05-02T05:07:46.49Z</time></trkpt><trkpt lat="40.8906367" lon="14.5335117"><ele>44.0</ele><time>2026-05-02T05:07:47.491Z</time></trkpt><trkpt lat="40.8909133" lon="14.5334967"><ele>44.0</ele><time>2026-05-02T05:07:48.491Z</time></trkpt><trkpt lat="40.8911967" lon="14.5334817"><ele>44.0</ele><time>2026-05-02T05:07:49.49Z</time></trkpt><trkpt lat="40.8914817" lon="14.533465"><ele>44.0</ele><time>2026-05-02T05:07:50.49Z</time></trkpt><trkpt lat="40.891765" lon="14.5334467"><ele>44.0</ele><time>2026-05-02T05:07:51.49Z</time></trkpt><trkpt lat="40.8920433" lon="14.53343"><ele>44.0</ele><time>2026-05-02T05:07:52.491Z</time></trkpt><trkpt lat="40.89233" lon="14.53341"><ele>42.5</ele><time>2026-05-02T05:07:53.491Z</time></trkpt><trkpt lat="40.8926183" lon="14.5333917"><ele>41.0</ele><time>2026-05-02T05:07:54.49Z</time></trkpt><trkpt lat="40.89291" lon="14.5333767"><ele>41.0</ele><time>2026-05-02T05:07:55.491Z</time></trkpt><trkpt lat="40.8931983" lon="14.5333583"><ele>41.0</ele><time>2026-05-02T05:07:56.491Z</time></trkpt><trkpt lat="40.8934867" lon="14.5333417"><ele>41.0</ele><time>2026-05-02T05:07:57.491Z</time></trkpt><trkpt lat="40.8937733" lon="14.5333233"><ele>41.0</ele><time>2026-05-02T05:07:58.492Z</time></trkpt><trkpt lat="40.8940617" lon="14.533315"><ele>42.0</ele><time>2026-05-02T05:07:59.491Z</time></trkpt><trkpt lat="40.8943483" lon="14.5332983"><ele>43.0</ele><time>2026-05-02T05:08:00.491Z</time></trkpt><trkpt lat="40.894635" lon="14.5332767"><ele>43.0</ele><time>2026-05-02T05:08:01.491Z</time></trkpt><trkpt lat="40.8949167" lon="14.533265"><ele>43.0</ele><time>2026-05-02T05:08:02.492Z</time></trkpt><trkpt lat="40.8951933" lon="14.5332467"><ele>42.0</ele><time>2026-05-02T05:08:03.491Z</time></trkpt><trkpt lat="40.895475" lon="14.533225"><ele>41.0</ele><time>2026-05-02T05:08:04.491Z</time></trkpt><trkpt lat="40.8957567" lon="14.533205"><ele>42.0</ele><time>2026-05-02T05:08:05.491Z</time></trkpt><trkpt lat="40.8960383" lon="14.5331783"><ele>43.0</ele><time>2026-05-02T05:08:06.491Z</time></trkpt><trkpt lat="40.896315" lon="14.5331533"><ele>43.0</ele><time>2026-05-02T05:08:07.491Z</time></trkpt><trkpt lat="40.8965917" lon="14.5331217"><ele>43.0</ele><time>2026-05-02T05:08:08.491Z</time></trkpt><trkpt lat="40.8968733" lon="14.5330833"><ele>43.0</ele><time>2026-05-02T05:08:09.491Z</time></trkpt><trkpt lat="40.8971567" lon="14.5330433"><ele>43.0</ele><time>2026-05-02T05:08:10.491Z</time></trkpt><trkpt lat="40.8974433" lon="14.533"><ele>42.0</ele><time>2026-05-02T05:08:11.491Z</time></trkpt><trkpt lat="40.897725" lon="14.5329517"><ele>41.0</ele><time>2026-05-02T05:08:12.491Z</time></trkpt><trkpt lat="40.89801" lon="14.5329"><ele>41.5</ele><time>2026-05-02T05:08:13.491Z</time></trkpt><trkpt lat="40.8982917" lon="14.5328467"><ele>42.0</ele><time>2026-05-02T05:08:14.491Z</time></trkpt><trkpt lat="40.8985783" lon="14.532785"><ele>42.5</ele><time>2026-05-02T05:08:15.491Z</time></trkpt><trkpt lat="40.8988633" lon="14.5327233"><ele>43.0</ele><time>2026-05-02T05:08:16.492Z</time></trkpt><trkpt lat="40.89915" lon="14.532655"><ele>41.5</ele><time>2026-05-02T05:08:17.491Z</time></trkpt><trkpt lat="40.899435" lon="14.5325883"><ele>40.0</ele><time>2026-05-02T05:08:18.491Z</time></trkpt><trkpt lat="40.8997217" lon="14.5325117"><ele>40.0</ele><time>2026-05-02T05:08:19.491Z</time></trkpt><trkpt lat="40.9000083" lon="14.5324283"><ele>40.0</ele><time>2026-05-02T05:08:20.491Z</time></trkpt><trkpt lat="40.9002967" lon="14.532345"><ele>40.0</ele><time>2026-05-02T05:08:21.491Z</time></trkpt><trkpt lat="40.9005883" lon="14.53225"><ele>40.0</ele><time>2026-05-02T05:08:22.491Z</time></trkpt><trkpt lat="40.90088" lon="14.5321533"><ele>39.5</ele><time>2026-05-02T05:08:23.491Z</time></trkpt><trkpt lat="40.9011683" lon="14.5320533"><ele>39.0</ele><time>2026-05-02T05:08:24.491Z</time></trkpt><trkpt lat="40.9014567" lon="14.5319517"><ele>39.0</ele><time>2026-05-02T05:08:25.491Z</time></trkpt><trkpt lat="40.9017483" lon="14.5318483"><ele>39.0</ele><time>2026-05-02T05:08:26.491Z</time></trkpt><trkpt lat="40.9020317" lon="14.5317467"><ele>39.0</ele><time>2026-05-02T05:08:27.491Z</time></trkpt><trkpt lat="40.9023183" lon="14.5316517"><ele>39.0</ele><time>2026-05-02T05:08:28.491Z</time></trkpt><trkpt lat="40.9026083" lon="14.531555"><ele>39.0</ele><time>2026-05-02T05:08:29.491Z</time></trkpt><trkpt lat="40.902895" lon="14.53146"><ele>39.0</ele><time>2026-05-02T05:08:30.491Z</time></trkpt><trkpt lat="40.9031833" lon="14.5313583"><ele>39.0</ele><time>2026-05-02T05:08:31.491Z</time></trkpt><trkpt lat="40.9034667" lon="14.5312633"><ele>39.0</ele><time>2026-05-02T05:08:32.491Z</time></trkpt><trkpt lat="40.9037517" lon="14.5311667"><ele>39.0</ele><time>2026-05-02T05:08:33.491Z</time></trkpt><trkpt lat="40.9040317" lon="14.5310783"><ele>39.0</ele><time>2026-05-02T05:08:34.491Z</time></trkpt><trkpt lat="40.9043083" lon="14.5309817"><ele>39.5</ele><time>2026-05-02T05:08:35.491Z</time></trkpt><trkpt lat="40.90458" lon="14.5308883"><ele>40.0</ele><time>2026-05-02T05:08:36.491Z</time></trkpt><trkpt lat="40.90485" lon="14.5307983"><ele>39.0</ele><time>2026-05-02T05:08:37.491Z</time></trkpt><trkpt lat="40.90511" lon="14.530715"><ele>38.0</ele><time>2026-05-02T05:08:38.491Z</time></trkpt><trkpt lat="40.9053733" lon="14.5306367"><ele>38.0</ele><time>2026-05-02T05:08:39.491Z</time></trkpt><trkpt lat="40.90564" lon="14.53055"><ele>38.0</ele><time>2026-05-02T05:08:40.491Z</time></trkpt><trkpt lat="40.9059" lon="14.530465"><ele>39.5</ele><time>2026-05-02T05:08:41.491Z</time></trkpt><trkpt lat="40.9061567" lon="14.5303817"><ele>41.0</ele><time>2026-05-02T05:08:42.491Z</time></trkpt><trkpt lat="40.9064033" lon="14.5302933"><ele>41.0</ele><time>2026-05-02T05:08:43.491Z</time></trkpt><trkpt lat="40.9066567" lon="14.530205"><ele>41.0</ele><time>2026-05-02T05:08:44.491Z</time></trkpt><trkpt lat="40.9069017" lon="14.5301233"><ele>39.5</ele><time>2026-05-02T05:08:45.491Z</time></trkpt><trkpt lat="40.9071467" lon="14.5300383"><ele>38.0</ele><time>2026-05-02T05:08:46.491Z</time></trkpt><trkpt lat="40.907395" lon="14.5299467"><ele>38.0</ele><time>2026-05-02T05:08:47.491Z</time></trkpt><trkpt lat="40.9076483" lon="14.5298583"><ele>38.0</ele><time>2026-05-02T05:08:48.491Z</time></trkpt><trkpt lat="40.90791" lon="14.52977"><ele>38.0</ele><time>2026-05-02T05:08:49.491Z</time></trkpt><trkpt lat="40.9081617" lon="14.5296683"><ele>38.0</ele><time>2026-05-02T05:08:50.491Z</time></trkpt><trkpt lat="40.9084167" lon="14.5295617"><ele>39.0</ele><time>2026-05-02T05:08:51.491Z</time></trkpt><trkpt lat="40.9086683" lon="14.5294433"><ele>40.0</ele><time>2026-05-02T05:08:52.491Z</time></trkpt><trkpt lat="40.9089183" lon="14.5293183"><ele>40.0</ele><time>2026-05-02T05:08:53.491Z</time></trkpt><trkpt lat="40.9091683" lon="14.5291883"><ele>40.0</ele><time>2026-05-02T05:08:54.491Z</time></trkpt><trkpt lat="40.90942" lon="14.5290567"><ele>39.0</ele><time>2026-05-02T05:08:55.491Z</time></trkpt><trkpt lat="40.9096633" lon="14.5289067"><ele>38.0</ele><time>2026-05-02T05:08:56.491Z</time></trkpt><trkpt lat="40.9099067" lon="14.5287583"><ele>37.5</ele><time>2026-05-02T05:08:57.491Z</time></trkpt><trkpt lat="40.9101483" lon="14.528605"><ele>37.0</ele><time>2026-05-02T05:08:58.491Z</time></trkpt><trkpt lat="40.9103883" lon="14.52844"><ele>37.0</ele><time>2026-05-02T05:08:59.491Z</time></trkpt><trkpt lat="40.9106217" lon="14.528275"><ele>37.0</ele><time>2026-05-02T05:09:00.491Z</time></trkpt><trkpt lat="40.910855" lon="14.5280983"><ele>37.0</ele><time>2026-05-02T05:09:01.491Z</time></trkpt><trkpt lat="40.91109" lon="14.5279217"><ele>37.0</ele><time>2026-05-02T05:09:02.491Z</time></trkpt><trkpt lat="40.91132" lon="14.5277367"><ele>37.5</ele><time>2026-05-02T05:09:03.491Z</time></trkpt><trkpt lat="40.9115483" lon="14.5275417"><ele>38.0</ele><time>2026-05-02T05:09:04.491Z</time></trkpt><trkpt lat="40.9117717" lon="14.5273467"><ele>38.0</ele><time>2026-05-02T05:09:05.491Z</time></trkpt><trkpt lat="40.9119967" lon="14.5271383"><ele>38.0</ele><time>2026-05-02T05:09:06.491Z</time></trkpt><trkpt lat="40.912215" lon="14.52692"><ele>38.0</ele><time>2026-05-02T05:09:07.491Z</time></trkpt><trkpt lat="40.91243" lon="14.5266967"><ele>38.0</ele><time>2026-05-02T05:09:08.491Z</time></trkpt><trkpt lat="40.9126383" lon="14.5264767"><ele>37.5</ele><time>2026-05-02T05:09:09.491Z</time></trkpt><trkpt lat="40.9128367" lon="14.5262583"><ele>37.0</ele><time>2026-05-02T05:09:10.491Z</time></trkpt><trkpt lat="40.9130283" lon="14.5260417"><ele>38.0</ele><time>2026-05-02T05:09:11.491Z</time></trkpt><trkpt lat="40.91322" lon="14.5258133"><ele>39.0</ele><time>2026-05-02T05:09:12.491Z</time></trkpt><trkpt lat="40.913405" lon="14.5255833"><ele>37.5</ele><time>2026-05-02T05:09:13.491Z</time></trkpt><trkpt lat="40.91359" lon="14.52535"><ele>36.0</ele><time>2026-05-02T05:09:14.491Z</time></trkpt><trkpt lat="40.913775" lon="14.52511"><ele>36.0</ele><time>2026-05-02T05:09:15.492Z</time></trkpt><trkpt lat="40.9139567" lon="14.5248667"><ele>36.0</ele><time>2026-05-02T05:09:16.491Z</time></trkpt><trkpt lat="40.9141283" lon="14.5246217"><ele>35.0</ele><time>2026-05-02T05:09:17.491Z</time></trkpt><trkpt lat="40.9142983" lon="14.5243733"><ele>34.0</ele><time>2026-05-02T05:09:18.491Z</time></trkpt><trkpt lat="40.914465" lon="14.52413"><ele>34.0</ele><time>2026-05-02T05:09:19.491Z</time></trkpt><trkpt lat="40.914625" lon="14.523875"><ele>34.0</ele><time>2026-05-02T05:09:20.491Z</time></trkpt><trkpt lat="40.9147833" lon="14.5236167"><ele>35.0</ele><time>2026-05-02T05:09:21.491Z</time></trkpt><trkpt lat="40.9149383" lon="14.523355"><ele>36.0</ele><time>2026-05-02T05:09:22.491Z</time></trkpt><trkpt lat="40.91509" lon="14.5230867"><ele>35.0</ele><time>2026-05-02T05:09:23.491Z</time></trkpt><trkpt lat="40.9152367" lon="14.52281"><ele>34.0</ele><time>2026-05-02T05:09:24.491Z</time></trkpt><trkpt lat="40.915385" lon="14.5225233"><ele>34.0</ele><time>2026-05-02T05:09:25.491Z</time></trkpt><trkpt lat="40.915525" lon="14.5222333"><ele>34.0</ele><time>2026-05-02T05:09:26.491Z</time></trkpt><trkpt lat="40.9156633" lon="14.52194"><ele>34.5</ele><time>2026-05-02T05:09:27.492Z</time></trkpt><trkpt lat="40.9158017" lon="14.521635"><ele>35.0</ele><time>2026-05-02T05:09:28.491Z</time></trkpt><trkpt lat="40.9159283" lon="14.5213367"><ele>35.5</ele><time>2026-05-02T05:09:29.491Z</time></trkpt><trkpt lat="40.916055" lon="14.5210367"><ele>36.0</ele><time>2026-05-02T05:09:30.491Z</time></trkpt><trkpt lat="40.9161767" lon="14.5207283"><ele>36.0</ele><time>2026-05-02T05:09:31.491Z</time></trkpt><trkpt lat="40.9162917" lon="14.5204167"><ele>36.0</ele><time>2026-05-02T05:09:32.491Z</time></trkpt><trkpt lat="40.9164017" lon="14.5201033"><ele>36.5</ele><time>2026-05-02T05:09:33.491Z</time></trkpt><trkpt lat="40.9165117" lon="14.51979"><ele>37.0</ele><time>2026-05-02T05:09:34.491Z</time></trkpt><trkpt lat="40.9166167" lon="14.51947"><ele>37.0</ele><time>2026-05-02T05:09:35.491Z</time></trkpt><trkpt lat="40.9167217" lon="14.51914"><ele>37.0</ele><time>2026-05-02T05:09:36.491Z</time></trkpt><trkpt lat="40.9168217" lon="14.51881"><ele>37.0</ele><time>2026-05-02T05:09:37.491Z</time></trkpt><trkpt lat="40.9169217" lon="14.51848"><ele>37.0</ele><time>2026-05-02T05:09:38.491Z</time></trkpt><trkpt lat="40.917025" lon="14.5181467"><ele>37.0</ele><time>2026-05-02T05:09:39.491Z</time></trkpt><trkpt lat="40.9171233" lon="14.51781"><ele>37.0</ele><time>2026-05-02T05:09:40.491Z</time></trkpt><trkpt lat="40.9172233" lon="14.517475"><ele>37.0</ele><time>2026-05-02T05:09:41.491Z</time></trkpt><trkpt lat="40.9173217" lon="14.517135"><ele>37.0</ele><time>2026-05-02T05:09:42.491Z</time></trkpt><trkpt lat="40.91742" lon="14.5167983"><ele>36.5</ele><time>2026-05-02T05:09:43.491Z</time></trkpt><trkpt lat="40.917525" lon="14.516455"><ele>36.0</ele><time>2026-05-02T05:09:44.491Z</time></trkpt><trkpt lat="40.9176283" lon="14.516115"><ele>36.0</ele><time>2026-05-02T05:09:45.491Z</time></trkpt><trkpt lat="40.917735" lon="14.5157767"><ele>36.0</ele><time>2026-05-02T05:09:46.491Z</time></trkpt><trkpt lat="40.9178417" lon="14.5154333"><ele>35.0</ele><time>2026-05-02T05:09:47.491Z</time></trkpt><trkpt lat="40.9179467" lon="14.5150883"><ele>34.0</ele><time>2026-05-02T05:09:48.491Z</time></trkpt><trkpt lat="40.9180567" lon="14.514745"><ele>35.0</ele><time>2026-05-02T05:09:49.491Z</time></trkpt><trkpt lat="40.9181667" lon="14.5143983"><ele>36.0</ele><time>2026-05-02T05:09:50.491Z</time></trkpt><trkpt lat="40.918265" lon="14.51405"><ele>36.0</ele><time>2026-05-02T05:09:51.491Z</time></trkpt><trkpt lat="40.91838" lon="14.5137017"><ele>36.0</ele><time>2026-05-02T05:09:52.492Z</time></trkpt><trkpt lat="40.9184883" lon="14.513355"><ele>34.5</ele><time>2026-05-02T05:09:53.491Z</time></trkpt><trkpt lat="40.91859" lon="14.513005"><ele>33.0</ele><time>2026-05-02T05:09:54.491Z</time></trkpt><trkpt lat="40.91869" lon="14.5126617"><ele>33.0</ele><time>2026-05-02T05:09:55.491Z</time></trkpt><trkpt lat="40.9187983" lon="14.5123167"><ele>33.0</ele><time>2026-05-02T05:09:56.492Z</time></trkpt><trkpt lat="40.9189017" lon="14.5119717"><ele>33.0</ele><time>2026-05-02T05:09:57.491Z</time></trkpt><trkpt lat="40.9190083" lon="14.5116283"><ele>33.0</ele><time>2026-05-02T05:09:58.491Z</time></trkpt><trkpt lat="40.91911" lon="14.5112867"><ele>33.5</ele><time>2026-05-02T05:09:59.491Z</time></trkpt><trkpt lat="40.9192167" lon="14.5109467"><ele>34.0</ele><time>2026-05-02T05:10:00.491Z</time></trkpt><trkpt lat="40.9193367" lon="14.5106033"><ele>33.5</ele><time>2026-05-02T05:10:01.491Z</time></trkpt><trkpt lat="40.9194533" lon="14.5102717"><ele>33.0</ele><time>2026-05-02T05:10:02.491Z</time></trkpt><trkpt lat="40.9195683" lon="14.5099483"><ele>33.0</ele><time>2026-05-02T05:10:03.491Z</time></trkpt><trkpt lat="40.9196933" lon="14.5096283"><ele>33.0</ele><time>2026-05-02T05:10:04.491Z</time></trkpt><trkpt lat="40.9198183" lon="14.5093017"><ele>33.0</ele><time>2026-05-02T05:10:05.491Z</time></trkpt><trkpt lat="40.919945" lon="14.5089867"><ele>33.0</ele><time>2026-05-02T05:10:06.491Z</time></trkpt><trkpt lat="40.9200783" lon="14.5086717"><ele>33.0</ele><time>2026-05-02T05:10:07.491Z</time></trkpt><trkpt lat="40.9202167" lon="14.50836"><ele>33.0</ele><time>2026-05-02T05:10:08.491Z</time></trkpt><trkpt lat="40.9203583" lon="14.5080533"><ele>34.5</ele><time>2026-05-02T05:10:09.491Z</time></trkpt><trkpt lat="40.9205067" lon="14.5077483"><ele>36.0</ele><time>2026-05-02T05:10:10.491Z</time></trkpt><trkpt lat="40.9206533" lon="14.5074467"><ele>36.0</ele><time>2026-05-02T05:10:11.491Z</time></trkpt><trkpt lat="40.9208033" lon="14.5071533"><ele>36.0</ele><time>2026-05-02T05:10:12.491Z</time></trkpt><trkpt lat="40.920955" lon="14.5068617"><ele>33.5</ele><time>2026-05-02T05:10:13.491Z</time></trkpt><trkpt lat="40.921115" lon="14.5065733"><ele>31.0</ele><time>2026-05-02T05:10:14.491Z</time></trkpt><trkpt lat="40.9212833" lon="14.5062867"><ele>32.5</ele><time>2026-05-02T05:10:15.491Z</time></trkpt><trkpt lat="40.9214533" lon="14.50601"><ele>34.0</ele><time>2026-05-02T05:10:16.491Z</time></trkpt><trkpt lat="40.92162" lon="14.5057367"><ele>33.5</ele><time>2026-05-02T05:10:17.491Z</time></trkpt><trkpt lat="40.9217933" lon="14.5054667"><ele>33.0</ele><time>2026-05-02T05:10:18.491Z</time></trkpt><trkpt lat="40.9219667" lon="14.5051967"><ele>33.0</ele><time>2026-05-02T05:10:19.491Z</time></trkpt><trkpt lat="40.922145" lon="14.5049283"><ele>33.0</ele><time>2026-05-02T05:10:20.491Z</time></trkpt><trkpt lat="40.922325" lon="14.504675"><ele>33.5</ele><time>2026-05-02T05:10:21.492Z</time></trkpt><trkpt lat="40.92251" lon="14.5044267"><ele>34.0</ele><time>2026-05-02T05:10:22.491Z</time></trkpt><trkpt lat="40.9226933" lon="14.5041833"><ele>33.0</ele><time>2026-05-02T05:10:23.491Z</time></trkpt><trkpt lat="40.9228683" lon="14.50394"><ele>32.0</ele><time>2026-05-02T05:10:24.491Z</time></trkpt><trkpt lat="40.9230583" lon="14.50371"><ele>32.0</ele><time>2026-05-02T05:10:25.491Z</time></trkpt><trkpt lat="40.92325" lon="14.5034817"><ele>32.0</ele><time>2026-05-02T05:10:26.491Z</time></trkpt><trkpt lat="40.923445" lon="14.5032567"><ele>32.0</ele><time>2026-05-02T05:10:27.491Z</time></trkpt><trkpt lat="40.923635" lon="14.5030417"><ele>32.0</ele><time>2026-05-02T05:10:28.491Z</time></trkpt><trkpt lat="40.923825" lon="14.5028333"><ele>33.5</ele><time>2026-05-02T05:10:29.491Z</time></trkpt><trkpt lat="40.9240183" lon="14.5026217"><ele>35.0</ele><time>2026-05-02T05:10:30.491Z</time></trkpt><trkpt lat="40.9242083" lon="14.5024233"><ele>34.0</ele><time>2026-05-02T05:10:31.491Z</time></trkpt><trkpt lat="40.924405" lon="14.5022283"><ele>33.0</ele><time>2026-05-02T05:10:32.491Z</time></trkpt><trkpt lat="40.9246083" lon="14.5020367"><ele>33.0</ele><time>2026-05-02T05:10:33.491Z</time></trkpt><trkpt lat="40.9248083" lon="14.5018517"><ele>33.0</ele><time>2026-05-02T05:10:34.491Z</time></trkpt><trkpt lat="40.9250133" lon="14.50166"><ele>33.5</ele><time>2026-05-02T05:10:35.491Z</time></trkpt><trkpt lat="40.9252183" lon="14.50148"><ele>34.0</ele><time>2026-05-02T05:10:36.491Z</time></trkpt><trkpt lat="40.9254283" lon="14.5012983"><ele>34.5</ele><time>2026-05-02T05:10:37.491Z</time></trkpt><trkpt lat="40.9256367" lon="14.5011283"><ele>35.0</ele><time>2026-05-02T05:10:38.491Z</time></trkpt><trkpt lat="40.92585" lon="14.50096"><ele>35.5</ele><time>2026-05-02T05:10:39.491Z</time></trkpt><trkpt lat="40.9260667" lon="14.5007967"><ele>36.0</ele><time>2026-05-02T05:10:40.491Z</time></trkpt><trkpt lat="40.9262817" lon="14.500635"><ele>36.0</ele><time>2026-05-02T05:10:41.491Z</time></trkpt><trkpt lat="40.9264933" lon="14.5004767"><ele>36.0</ele><time>2026-05-02T05:10:42.491Z</time></trkpt><trkpt lat="40.9267133" lon="14.50032"><ele>37.0</ele><time>2026-05-02T05:10:43.491Z</time></trkpt><trkpt lat="40.92693" lon="14.50017"><ele>38.0</ele><time>2026-05-02T05:10:44.491Z</time></trkpt><trkpt lat="40.92715" lon="14.5000167"><ele>38.0</ele><time>2026-05-02T05:10:45.491Z</time></trkpt><trkpt lat="40.9273733" lon="14.49986"><ele>38.0</ele><time>2026-05-02T05:10:46.491Z</time></trkpt><trkpt lat="40.9276033" lon="14.4997"><ele>37.5</ele><time>2026-05-02T05:10:47.491Z</time></trkpt><trkpt lat="40.927835" lon="14.4995333"><ele>37.0</ele><time>2026-05-02T05:10:48.491Z</time></trkpt><trkpt lat="40.9280683" lon="14.4993717"><ele>37.0</ele><time>2026-05-02T05:10:49.491Z</time></trkpt><trkpt lat="40.9283033" lon="14.4991967"><ele>37.0</ele><time>2026-05-02T05:10:50.491Z</time></trkpt><trkpt lat="40.9285433" lon="14.4990317"><ele>36.5</ele><time>2026-05-02T05:10:51.491Z</time></trkpt><trkpt lat="40.9287733" lon="14.49887"><ele>36.0</ele><time>2026-05-02T05:10:52.491Z</time></trkpt><trkpt lat="40.9290033" lon="14.4987067"><ele>37.0</ele><time>2026-05-02T05:10:53.491Z</time></trkpt><trkpt lat="40.92924" lon="14.4985417"><ele>38.0</ele><time>2026-05-02T05:10:54.491Z</time></trkpt><trkpt lat="40.9294733" lon="14.4983767"><ele>38.0</ele><time>2026-05-02T05:10:55.491Z</time></trkpt><trkpt lat="40.9297" lon="14.498215"><ele>38.0</ele><time>2026-05-02T05:10:56.491Z</time></trkpt><trkpt lat="40.9299267" lon="14.4980533"><ele>37.0</ele><time>2026-05-02T05:10:57.491Z</time></trkpt><trkpt lat="40.9301583" lon="14.4978933"><ele>36.0</ele><time>2026-05-02T05:10:58.491Z</time></trkpt><trkpt lat="40.93038" lon="14.497735"><ele>36.0</ele><time>2026-05-02T05:10:59.491Z</time></trkpt><trkpt lat="40.9306067" lon="14.4975833"><ele>36.0</ele><time>2026-05-02T05:11:00.491Z</time></trkpt><trkpt lat="40.9308333" lon="14.497435"><ele>33.5</ele><time>2026-05-02T05:11:01.491Z</time></trkpt><trkpt lat="40.93106" lon="14.4972783"><ele>31.0</ele><time>2026-05-02T05:11:02.491Z</time></trkpt><trkpt lat="40.9312917" lon="14.4971183"><ele>31.0</ele><time>2026-05-02T05:11:03.491Z</time></trkpt><trkpt lat="40.9315183" lon="14.496955"><ele>31.0</ele><time>2026-05-02T05:11:04.491Z</time></trkpt><trkpt lat="40.9317467" lon="14.4967917"><ele>31.0</ele><time>2026-05-02T05:11:05.491Z</time></trkpt><trkpt lat="40.93198" lon="14.4966317"><ele>31.0</ele><time>2026-05-02T05:11:06.491Z</time></trkpt><trkpt lat="40.9322083" lon="14.4964667"><ele>31.0</ele><time>2026-05-02T05:11:07.491Z</time></trkpt><trkpt lat="40.9324367" lon="14.496305"><ele>31.0</ele><time>2026-05-02T05:11:08.491Z</time></trkpt><trkpt lat="40.932665" lon="14.4961383"><ele>31.0</ele><time>2026-05-02T05:11:09.491Z</time></trkpt><trkpt lat="40.93289" lon="14.4959767"><ele>31.0</ele><time>2026-05-02T05:11:10.491Z</time></trkpt><trkpt lat="40.9331133" lon="14.4958217"><ele>31.0</ele><time>2026-05-02T05:11:11.491Z</time></trkpt><trkpt lat="40.93334" lon="14.4956617"><ele>31.0</ele><time>2026-05-02T05:11:12.491Z</time></trkpt><trkpt lat="40.9335717" lon="14.4955033"><ele>31.5</ele><time>2026-05-02T05:11:13.491Z</time></trkpt><trkpt lat="40.933795" lon="14.4953467"><ele>32.0</ele><time>2026-05-02T05:11:14.491Z</time></trkpt><trkpt lat="40.934025" lon="14.4951917"><ele>31.0</ele><time>2026-05-02T05:11:15.491Z</time></trkpt><trkpt lat="40.9342483" lon="14.4950383"><ele>30.0</ele><time>2026-05-02T05:11:16.491Z</time></trkpt><trkpt lat="40.9344717" lon="14.49488"><ele>30.0</ele><time>2026-05-02T05:11:17.491Z</time></trkpt><trkpt lat="40.934695" lon="14.4947217"><ele>30.0</ele><time>2026-05-02T05:11:18.491Z</time></trkpt><trkpt lat="40.934925" lon="14.4945583"><ele>31.0</ele><time>2026-05-02T05:11:19.491Z</time></trkpt><trkpt lat="40.9351517" lon="14.4944017"><ele>32.0</ele><time>2026-05-02T05:11:20.491Z</time></trkpt><trkpt lat="40.935375" lon="14.49424"><ele>32.0</ele><time>2026-05-02T05:11:21.491Z</time></trkpt><trkpt lat="40.9356017" lon="14.4940783"><ele>32.0</ele><time>2026-05-02T05:11:22.491Z</time></trkpt><trkpt lat="40.93583" lon="14.49392"><ele>31.5</ele><time>2026-05-02T05:11:23.491Z</time></trkpt><trkpt lat="40.9360567" lon="14.4937617"><ele>31.0</ele><time>2026-05-02T05:11:24.492Z</time></trkpt><trkpt lat="40.9362817" lon="14.4935967"><ele>31.0</ele><time>2026-05-02T05:11:25.491Z</time></trkpt><trkpt lat="40.93651" lon="14.4934333"><ele>31.0</ele><time>2026-05-02T05:11:26.491Z</time></trkpt><trkpt lat="40.9367417" lon="14.49327"><ele>31.0</ele><time>2026-05-02T05:11:27.491Z</time></trkpt><trkpt lat="40.9369767" lon="14.4931033"><ele>31.0</ele><time>2026-05-02T05:11:28.491Z</time></trkpt><trkpt lat="40.9372067" lon="14.4929383"><ele>31.5</ele><time>2026-05-02T05:11:29.491Z</time></trkpt><trkpt lat="40.937445" lon="14.49277"><ele>32.0</ele><time>2026-05-02T05:11:30.491Z</time></trkpt><trkpt lat="40.9376817" lon="14.492605"><ele>32.5</ele><time>2026-05-02T05:11:31.491Z</time></trkpt><trkpt lat="40.9379233" lon="14.49244"><ele>33.0</ele><time>2026-05-02T05:11:32.491Z</time></trkpt><trkpt lat="40.9381617" lon="14.4922683"><ele>32.5</ele><time>2026-05-02T05:11:33.491Z</time></trkpt><trkpt lat="40.9384017" lon="14.4921017"><ele>32.0</ele><time>2026-05-02T05:11:34.492Z</time></trkpt><trkpt lat="40.9386367" lon="14.4919283"><ele>32.0</ele><time>2026-05-02T05:11:35.491Z</time></trkpt><trkpt lat="40.93888" lon="14.491755"><ele>32.0</ele><time>2026-05-02T05:11:36.492Z</time></trkpt><trkpt lat="40.939115" lon="14.4915867"><ele>31.5</ele><time>2026-05-02T05:11:37.491Z</time></trkpt><trkpt lat="40.9393483" lon="14.4914117"><ele>31.0</ele><time>2026-05-02T05:11:38.491Z</time></trkpt><trkpt lat="40.9395783" lon="14.4912367"><ele>31.0</ele><time>2026-05-02T05:11:39.491Z</time></trkpt><trkpt lat="40.93981" lon="14.49105"><ele>31.0</ele><time>2026-05-02T05:11:40.491Z</time></trkpt><trkpt lat="40.9400333" lon="14.49086"><ele>32.0</ele><time>2026-05-02T05:11:41.491Z</time></trkpt><trkpt lat="40.9402617" lon="14.490665"><ele>33.0</ele><time>2026-05-02T05:11:42.491Z</time></trkpt><trkpt lat="40.9404833" lon="14.4904717"><ele>32.5</ele><time>2026-05-02T05:11:43.491Z</time></trkpt><trkpt lat="40.9407067" lon="14.49027"><ele>32.0</ele><time>2026-05-02T05:11:44.491Z</time></trkpt><trkpt lat="40.9409267" lon="14.49006"><ele>31.0</ele><time>2026-05-02T05:11:45.491Z</time></trkpt><trkpt lat="40.94114" lon="14.4898467"><ele>30.0</ele><time>2026-05-02T05:11:46.491Z</time></trkpt><trkpt lat="40.9413567" lon="14.48963"><ele>30.0</ele><time>2026-05-02T05:11:47.491Z</time></trkpt><trkpt lat="40.9415733" lon="14.4894067"><ele>30.0</ele><time>2026-05-02T05:11:48.492Z</time></trkpt><trkpt lat="40.9417867" lon="14.48918"><ele>30.0</ele><time>2026-05-02T05:11:49.491Z</time></trkpt><trkpt lat="40.9419933" lon="14.48895"><ele>30.0</ele><time>2026-05-02T05:11:50.491Z</time></trkpt><trkpt lat="40.9422033" lon="14.4887117"><ele>30.5</ele><time>2026-05-02T05:11:51.492Z</time></trkpt><trkpt lat="40.9424133" lon="14.4884683"><ele>31.0</ele><time>2026-05-02T05:11:52.491Z</time></trkpt><trkpt lat="40.9426183" lon="14.48822"><ele>31.0</ele><time>2026-05-02T05:11:53.491Z</time></trkpt><trkpt lat="40.942815" lon="14.4879667"><ele>31.0</ele><time>2026-05-02T05:11:54.491Z</time></trkpt><trkpt lat="40.9430117" lon="14.48771"><ele>30.5</ele><time>2026-05-02T05:11:55.491Z</time></trkpt><trkpt lat="40.94321" lon="14.4874467"><ele>30.0</ele><time>2026-05-02T05:11:56.491Z</time></trkpt><trkpt lat="40.943405" lon="14.487175"><ele>29.5</ele><time>2026-05-02T05:11:57.491Z</time></trkpt><trkpt lat="40.9435983" lon="14.4869067"><ele>29.0</ele><time>2026-05-02T05:11:58.491Z</time></trkpt><trkpt lat="40.9437833" lon="14.4866283"><ele>29.0</ele><time>2026-05-02T05:11:59.491Z</time></trkpt><trkpt lat="40.9439717" lon="14.4863483"><ele>29.0</ele><time>2026-05-02T05:12:00.491Z</time></trkpt><trkpt lat="40.9441583" lon="14.4860617"><ele>28.5</ele><time>2026-05-02T05:12:01.491Z</time></trkpt><trkpt lat="40.9443417" lon="14.485775"><ele>28.0</ele><time>2026-05-02T05:12:02.491Z</time></trkpt><trkpt lat="40.944515" lon="14.48548"><ele>28.0</ele><time>2026-05-02T05:12:03.491Z</time></trkpt><trkpt lat="40.944685" lon="14.48518"><ele>28.0</ele><time>2026-05-02T05:12:04.491Z</time></trkpt><trkpt lat="40.9448633" lon="14.4848883"><ele>28.0</ele><time>2026-05-02T05:12:05.491Z</time></trkpt><trkpt lat="40.9450283" lon="14.484585"><ele>28.0</ele><time>2026-05-02T05:12:06.491Z</time></trkpt><trkpt lat="40.9451933" lon="14.4842783"><ele>28.0</ele><time>2026-05-02T05:12:07.491Z</time></trkpt><trkpt lat="40.9453567" lon="14.4839817"><ele>28.0</ele><time>2026-05-02T05:12:08.491Z</time></trkpt><trkpt lat="40.9455217" lon="14.48368"><ele>29.5</ele><time>2026-05-02T05:12:09.491Z</time></trkpt><trkpt lat="40.9456833" lon="14.4833767"><ele>31.0</ele><time>2026-05-02T05:12:10.491Z</time></trkpt><trkpt lat="40.945845" lon="14.483075"><ele>29.5</ele><time>2026-05-02T05:12:11.491Z</time></trkpt><trkpt lat="40.9460033" lon="14.4827733"><ele>28.0</ele><time>2026-05-02T05:12:12.491Z</time></trkpt><trkpt lat="40.9461633" lon="14.4824783"><ele>28.0</ele><time>2026-05-02T05:12:13.491Z</time></trkpt><trkpt lat="40.946325" lon="14.4821833"><ele>28.0</ele><time>2026-05-02T05:12:14.491Z</time></trkpt><trkpt lat="40.946485" lon="14.481885"><ele>28.0</ele><time>2026-05-02T05:12:15.491Z</time></trkpt><trkpt lat="40.9466517" lon="14.4815917"><ele>28.0</ele><time>2026-05-02T05:12:16.491Z</time></trkpt><trkpt lat="40.9468167" lon="14.4812967"><ele>28.5</ele><time>2026-05-02T05:12:17.491Z</time></trkpt><trkpt lat="40.9469767" lon="14.480995"><ele>29.0</ele><time>2026-05-02T05:12:18.491Z</time></trkpt><trkpt lat="40.947135" lon="14.4806967"><ele>29.5</ele><time>2026-05-02T05:12:19.491Z</time></trkpt><trkpt lat="40.9473" lon="14.4804017"><ele>30.0</ele><time>2026-05-02T05:12:20.491Z</time></trkpt><trkpt lat="40.94746" lon="14.4801117"><ele>29.5</ele><time>2026-05-02T05:12:21.491Z</time></trkpt><trkpt lat="40.94762" lon="14.4798183"><ele>29.0</ele><time>2026-05-02T05:12:22.491Z</time></trkpt><trkpt lat="40.9477783" lon="14.4795233"><ele>29.0</ele><time>2026-05-02T05:12:23.491Z</time></trkpt><trkpt lat="40.947935" lon="14.47923"><ele>29.0</ele><time>2026-05-02T05:12:24.491Z</time></trkpt><trkpt lat="40.9480933" lon="14.4789417"><ele>29.0</ele><time>2026-05-02T05:12:25.491Z</time></trkpt><trkpt lat="40.94825" lon="14.4786533"><ele>29.0</ele><time>2026-05-02T05:12:26.491Z</time></trkpt><trkpt lat="40.9484083" lon="14.47836"><ele>29.0</ele><time>2026-05-02T05:12:27.491Z</time></trkpt><trkpt lat="40.9485667" lon="14.4780733"><ele>29.0</ele><time>2026-05-02T05:12:28.491Z</time></trkpt><trkpt lat="40.9487233" lon="14.4777817"><ele>29.0</ele><time>2026-05-02T05:12:29.491Z</time></trkpt><trkpt lat="40.9488783" lon="14.4774867"><ele>29.0</ele><time>2026-05-02T05:12:30.491Z</time></trkpt><trkpt lat="40.9490317" lon="14.4771933"><ele>28.5</ele><time>2026-05-02T05:12:31.491Z</time></trkpt><trkpt lat="40.9491883" lon="14.4769067"><ele>28.0</ele><time>2026-05-02T05:12:32.491Z</time></trkpt><trkpt lat="40.949345" lon="14.476615"><ele>28.0</ele><time>2026-05-02T05:12:33.491Z</time></trkpt><trkpt lat="40.949505" lon="14.4763233"><ele>28.0</ele><time>2026-05-02T05:12:34.491Z</time></trkpt><trkpt lat="40.9496683" lon="14.4760333"><ele>28.5</ele><time>2026-05-02T05:12:35.492Z</time></trkpt><trkpt lat="40.94983" lon="14.4757383"><ele>29.0</ele><time>2026-05-02T05:12:36.491Z</time></trkpt><trkpt lat="40.94999" lon="14.47545"><ele>29.0</ele><time>2026-05-02T05:12:37.491Z</time></trkpt><trkpt lat="40.9501517" lon="14.47516"><ele>29.0</ele><time>2026-05-02T05:12:38.491Z</time></trkpt><trkpt lat="40.95031" lon="14.4748717"><ele>29.5</ele><time>2026-05-02T05:12:39.491Z</time></trkpt><trkpt lat="40.95047" lon="14.474585"><ele>30.0</ele><time>2026-05-02T05:12:40.492Z</time></trkpt><trkpt lat="40.9506267" lon="14.4742983"><ele>30.0</ele><time>2026-05-02T05:12:41.491Z</time></trkpt><trkpt lat="40.9507833" lon="14.4740083"><ele>30.0</ele><time>2026-05-02T05:12:42.492Z</time></trkpt><trkpt lat="40.9509383" lon="14.4737233"><ele>29.5</ele><time>2026-05-02T05:12:43.491Z</time></trkpt><trkpt lat="40.951095" lon="14.4734383"><ele>29.0</ele><time>2026-05-02T05:12:44.491Z</time></trkpt><trkpt lat="40.9512533" lon="14.4731467"><ele>29.5</ele><time>2026-05-02T05:12:45.491Z</time></trkpt><trkpt lat="40.9514033" lon="14.472865"><ele>30.0</ele><time>2026-05-02T05:12:46.491Z</time></trkpt><trkpt lat="40.951555" lon="14.4725817"><ele>30.5</ele><time>2026-05-02T05:12:47.491Z</time></trkpt><trkpt lat="40.95171" lon="14.4723"><ele>31.0</ele><time>2026-05-02T05:12:48.492Z</time></trkpt><trkpt lat="40.951865" lon="14.4720167"><ele>31.0</ele><time>2026-05-02T05:12:49.491Z</time></trkpt><trkpt lat="40.9520183" lon="14.4717317"><ele>31.0</ele><time>2026-05-02T05:12:50.492Z</time></trkpt><trkpt lat="40.9521667" lon="14.47145"><ele>31.5</ele><time>2026-05-02T05:12:51.491Z</time></trkpt><trkpt lat="40.952325" lon="14.4711683"><ele>32.0</ele><time>2026-05-02T05:12:52.491Z</time></trkpt><trkpt lat="40.9524817" lon="14.4708833"><ele>31.0</ele><time>2026-05-02T05:12:53.491Z</time></trkpt><trkpt lat="40.952635" lon="14.4705967"><ele>30.0</ele><time>2026-05-02T05:12:54.491Z</time></trkpt><trkpt lat="40.9527933" lon="14.470315"><ele>30.0</ele><time>2026-05-02T05:12:55.491Z</time></trkpt><trkpt lat="40.95295" lon="14.4700267"><ele>30.0</ele><time>2026-05-02T05:12:56.491Z</time></trkpt><trkpt lat="40.9531083" lon="14.469745"><ele>29.0</ele><time>2026-05-02T05:12:57.491Z</time></trkpt><trkpt lat="40.9532633" lon="14.46945"><ele>28.0</ele><time>2026-05-02T05:12:58.491Z</time></trkpt><trkpt lat="40.9534233" lon="14.4691567"><ele>27.5</ele><time>2026-05-02T05:12:59.491Z</time></trkpt><trkpt lat="40.9535883" lon="14.4688633"><ele>27.0</ele><time>2026-05-02T05:13:00.491Z</time></trkpt><trkpt lat="40.95375" lon="14.46858"><ele>27.0</ele><time>2026-05-02T05:13:01.491Z</time></trkpt><trkpt lat="40.9539183" lon="14.4682883"><ele>27.0</ele><time>2026-05-02T05:13:02.491Z</time></trkpt><trkpt lat="40.9540883" lon="14.46801"><ele>27.0</ele><time>2026-05-02T05:13:03.491Z</time></trkpt><trkpt lat="40.9542583" lon="14.46773"><ele>27.0</ele><time>2026-05-02T05:13:04.491Z</time></trkpt><trkpt lat="40.9544367" lon="14.4674567"><ele>27.0</ele><time>2026-05-02T05:13:05.491Z</time></trkpt><trkpt lat="40.9546133" lon="14.46719"><ele>27.0</ele><time>2026-05-02T05:13:06.491Z</time></trkpt><trkpt lat="40.954795" lon="14.4669233"><ele>27.0</ele><time>2026-05-02T05:13:07.491Z</time></trkpt><trkpt lat="40.95498" lon="14.466655"><ele>27.0</ele><time>2026-05-02T05:13:08.491Z</time></trkpt><trkpt lat="40.9551617" lon="14.4663933"><ele>28.0</ele><time>2026-05-02T05:13:09.492Z</time></trkpt><trkpt lat="40.9553433" lon="14.4661383"><ele>29.0</ele><time>2026-05-02T05:13:10.492Z</time></trkpt><trkpt lat="40.9555333" lon="14.4658883"><ele>29.0</ele><time>2026-05-02T05:13:11.493Z</time></trkpt><trkpt lat="40.9557217" lon="14.4656433"><ele>29.0</ele><time>2026-05-02T05:13:12.492Z</time></trkpt><trkpt lat="40.95592" lon="14.4654"><ele>29.0</ele><time>2026-05-02T05:13:13.492Z</time></trkpt><trkpt lat="40.95612" lon="14.4651567"><ele>29.0</ele><time>2026-05-02T05:13:14.492Z</time></trkpt><trkpt lat="40.9563167" lon="14.4649267"><ele>29.0</ele><time>2026-05-02T05:13:15.492Z</time></trkpt><trkpt lat="40.956515" lon="14.4646917"><ele>29.0</ele><time>2026-05-02T05:13:16.492Z</time></trkpt><trkpt lat="40.9567167" lon="14.464465"><ele>29.0</ele><time>2026-05-02T05:13:17.492Z</time></trkpt><trkpt lat="40.9569283" lon="14.4642417"><ele>29.0</ele><time>2026-05-02T05:13:18.492Z</time></trkpt><trkpt lat="40.9571383" lon="14.4640183"><ele>29.0</ele><time>2026-05-02T05:13:19.492Z</time></trkpt><trkpt lat="40.9573483" lon="14.4638017"><ele>29.0</ele><time>2026-05-02T05:13:20.492Z</time></trkpt><trkpt lat="40.9575633" lon="14.463585"><ele>28.5</ele><time>2026-05-02T05:13:21.492Z</time></trkpt><trkpt lat="40.957775" lon="14.4633717"><ele>28.0</ele><time>2026-05-02T05:13:22.492Z</time></trkpt><trkpt lat="40.9579883" lon="14.463165"><ele>28.0</ele><time>2026-05-02T05:13:23.492Z</time></trkpt><trkpt lat="40.9582067" lon="14.462955"><ele>28.0</ele><time>2026-05-02T05:13:24.492Z</time></trkpt><trkpt lat="40.95842" lon="14.4627433"><ele>28.5</ele><time>2026-05-02T05:13:25.492Z</time></trkpt><trkpt lat="40.9586383" lon="14.4625333"><ele>29.0</ele><time>2026-05-02T05:13:26.492Z</time></trkpt><trkpt lat="40.958855" lon="14.4623117"><ele>29.0</ele><time>2026-05-02T05:13:27.492Z</time></trkpt><trkpt lat="40.9590717" lon="14.462095"><ele>29.0</ele><time>2026-05-02T05:13:28.492Z</time></trkpt><trkpt lat="40.9592817" lon="14.4618683"><ele>29.0</ele><time>2026-05-02T05:13:29.492Z</time></trkpt><trkpt lat="40.9594867" lon="14.4616317"><ele>29.0</ele><time>2026-05-02T05:13:30.492Z</time></trkpt><trkpt lat="40.9596933" lon="14.4613883"><ele>29.0</ele><time>2026-05-02T05:13:31.492Z</time></trkpt><trkpt lat="40.9598967" lon="14.4611383"><ele>29.0</ele><time>2026-05-02T05:13:32.492Z</time></trkpt><trkpt lat="40.9601" lon="14.4608867"><ele>28.0</ele><time>2026-05-02T05:13:33.492Z</time></trkpt><trkpt lat="40.9603017" lon="14.4606283"><ele>27.0</ele><time>2026-05-02T05:13:34.492Z</time></trkpt><trkpt lat="40.9605017" lon="14.460365"><ele>27.0</ele><time>2026-05-02T05:13:35.492Z</time></trkpt><trkpt lat="40.9606933" lon="14.4600983"><ele>27.0</ele><time>2026-05-02T05:13:36.492Z</time></trkpt><trkpt lat="40.9608883" lon="14.459825"><ele>27.0</ele><time>2026-05-02T05:13:37.492Z</time></trkpt><trkpt lat="40.9610767" lon="14.4595433"><ele>27.0</ele><time>2026-05-02T05:13:38.492Z</time></trkpt><trkpt lat="40.9612567" lon="14.4592583"><ele>27.0</ele><time>2026-05-02T05:13:39.492Z</time></trkpt><trkpt lat="40.9614333" lon="14.458975"><ele>27.0</ele><time>2026-05-02T05:13:40.492Z</time></trkpt><trkpt lat="40.961605" lon="14.45868"><ele>27.5</ele><time>2026-05-02T05:13:41.492Z</time></trkpt><trkpt lat="40.9617767" lon="14.4583883"><ele>28.0</ele><time>2026-05-02T05:13:42.492Z</time></trkpt><trkpt lat="40.9619567" lon="14.4580867"><ele>28.5</ele><time>2026-05-02T05:13:43.492Z</time></trkpt><trkpt lat="40.9621233" lon="14.4577917"><ele>29.0</ele><time>2026-05-02T05:13:44.492Z</time></trkpt><trkpt lat="40.9622817" lon="14.4574983"><ele>29.0</ele><time>2026-05-02T05:13:45.492Z</time></trkpt><trkpt lat="40.9624483" lon="14.457205"><ele>29.0</ele><time>2026-05-02T05:13:46.492Z</time></trkpt><trkpt lat="40.9626167" lon="14.4569183"><ele>27.5</ele><time>2026-05-02T05:13:47.492Z</time></trkpt><trkpt lat="40.9627933" lon="14.4566217"><ele>26.0</ele><time>2026-05-02T05:13:48.492Z</time></trkpt><trkpt lat="40.9629617" lon="14.456335"><ele>26.5</ele><time>2026-05-02T05:13:49.492Z</time></trkpt><trkpt lat="40.9631317" lon="14.4560433"><ele>27.0</ele><time>2026-05-02T05:13:50.492Z</time></trkpt><trkpt lat="40.9633017" lon="14.4557517"><ele>27.0</ele><time>2026-05-02T05:13:51.492Z</time></trkpt><trkpt lat="40.9634683" lon="14.455465"><ele>27.0</ele><time>2026-05-02T05:13:52.492Z</time></trkpt><trkpt lat="40.96364" lon="14.455175"><ele>27.5</ele><time>2026-05-02T05:13:53.492Z</time></trkpt><trkpt lat="40.9638033" lon="14.4548933"><ele>28.0</ele><time>2026-05-02T05:13:54.492Z</time></trkpt><trkpt lat="40.9639683" lon="14.4546033"><ele>28.0</ele><time>2026-05-02T05:13:55.492Z</time></trkpt><trkpt lat="40.9641383" lon="14.4543183"><ele>28.0</ele><time>2026-05-02T05:13:56.492Z</time></trkpt><trkpt lat="40.9643033" lon="14.4540283"><ele>27.5</ele><time>2026-05-02T05:13:57.492Z</time></trkpt><trkpt lat="40.96447" lon="14.4537383"><ele>27.0</ele><time>2026-05-02T05:13:58.492Z</time></trkpt><trkpt lat="40.9646317" lon="14.4534533"><ele>27.0</ele><time>2026-05-02T05:13:59.492Z</time></trkpt><trkpt lat="40.9647917" lon="14.453165"><ele>27.0</ele><time>2026-05-02T05:14:00.492Z</time></trkpt><trkpt lat="40.9649483" lon="14.45287"><ele>28.0</ele><time>2026-05-02T05:14:01.492Z</time></trkpt><trkpt lat="40.9651067" lon="14.4525733"><ele>29.0</ele><time>2026-05-02T05:14:02.492Z</time></trkpt><trkpt lat="40.965255" lon="14.4522767"><ele>30.0</ele><time>2026-05-02T05:14:03.492Z</time></trkpt><trkpt lat="40.965405" lon="14.4519783"><ele>31.0</ele><time>2026-05-02T05:14:04.492Z</time></trkpt><trkpt lat="40.96555" lon="14.451675"><ele>31.0</ele><time>2026-05-02T05:14:05.492Z</time></trkpt><trkpt lat="40.9656917" lon="14.4513683"><ele>31.0</ele><time>2026-05-02T05:14:06.493Z</time></trkpt><trkpt lat="40.9658333" lon="14.45106"><ele>29.0</ele><time>2026-05-02T05:14:07.492Z</time></trkpt><trkpt lat="40.9659817" lon="14.45076"><ele>27.0</ele><time>2026-05-02T05:14:08.492Z</time></trkpt><trkpt lat="40.9660967" lon="14.4504417"><ele>27.0</ele><time>2026-05-02T05:14:09.492Z</time></trkpt><trkpt lat="40.96622" lon="14.4501267"><ele>27.0</ele><time>2026-05-02T05:14:10.492Z</time></trkpt><trkpt lat="40.9663467" lon="14.4498083"><ele>28.0</ele><time>2026-05-02T05:14:11.492Z</time></trkpt><trkpt lat="40.9664667" lon="14.4494867"><ele>29.0</ele><time>2026-05-02T05:14:12.492Z</time></trkpt><trkpt lat="40.9665883" lon="14.449175"><ele>27.0</ele><time>2026-05-02T05:14:13.492Z</time></trkpt><trkpt lat="40.96671" lon="14.4488583"><ele>25.0</ele><time>2026-05-02T05:14:14.492Z</time></trkpt><trkpt lat="40.96684" lon="14.448545"><ele>25.0</ele><time>2026-05-02T05:14:15.493Z</time></trkpt><trkpt lat="40.9669683" lon="14.4482217"><ele>25.0</ele><time>2026-05-02T05:14:16.492Z</time></trkpt><trkpt lat="40.9670917" lon="14.4479067"><ele>26.5</ele><time>2026-05-02T05:14:17.492Z</time></trkpt><trkpt lat="40.9672117" lon="14.4475867"><ele>28.0</ele><time>2026-05-02T05:14:18.492Z</time></trkpt><trkpt lat="40.9673333" lon="14.44726"><ele>28.5</ele><time>2026-05-02T05:14:19.492Z</time></trkpt><trkpt lat="40.9674583" lon="14.446935"><ele>29.0</ele><time>2026-05-02T05:14:20.492Z</time></trkpt><trkpt lat="40.9675867" lon="14.4466083"><ele>27.5</ele><time>2026-05-02T05:14:21.492Z</time></trkpt><trkpt lat="40.9677133" lon="14.4462767"><ele>26.0</ele><time>2026-05-02T05:14:22.492Z</time></trkpt><trkpt lat="40.9678433" lon="14.4459417"><ele>26.0</ele><time>2026-05-02T05:14:23.492Z</time></trkpt><trkpt lat="40.9679717" lon="14.4456017"><ele>26.0</ele><time>2026-05-02T05:14:24.492Z</time></trkpt><trkpt lat="40.9680983" lon="14.4452633"><ele>26.0</ele><time>2026-05-02T05:14:25.492Z</time></trkpt><trkpt lat="40.9682333" lon="14.4449167"><ele>26.0</ele><time>2026-05-02T05:14:26.492Z</time></trkpt><trkpt lat="40.96836" lon="14.4445733"><ele>26.0</ele><time>2026-05-02T05:14:27.492Z</time></trkpt><trkpt lat="40.96849" lon="14.4442267"><ele>26.0</ele><time>2026-05-02T05:14:28.492Z</time></trkpt><trkpt lat="40.9686217" lon="14.44389"><ele>26.0</ele><time>2026-05-02T05:14:29.492Z</time></trkpt><trkpt lat="40.9687583" lon="14.4435483"><ele>26.0</ele><time>2026-05-02T05:14:30.492Z</time></trkpt><trkpt lat="40.96889" lon="14.4432067"><ele>26.5</ele><time>2026-05-02T05:14:31.492Z</time></trkpt><trkpt lat="40.9690217" lon="14.4428667"><ele>27.0</ele><time>2026-05-02T05:14:32.492Z</time></trkpt><trkpt lat="40.9691517" lon="14.442525"><ele>27.5</ele><time>2026-05-02T05:14:33.492Z</time></trkpt><trkpt lat="40.9692833" lon="14.4421867"><ele>28.0</ele><time>2026-05-02T05:14:34.492Z</time></trkpt><trkpt lat="40.9694133" lon="14.4418533"><ele>28.0</ele><time>2026-05-02T05:14:35.492Z</time></trkpt><trkpt lat="40.9695467" lon="14.4415133"><ele>28.0</ele><time>2026-05-02T05:14:36.492Z</time></trkpt><trkpt lat="40.9696817" lon="14.441175"><ele>29.0</ele><time>2026-05-02T05:14:37.492Z</time></trkpt><trkpt lat="40.9698083" lon="14.4408333"><ele>30.0</ele><time>2026-05-02T05:14:38.492Z</time></trkpt><trkpt lat="40.9699467" lon="14.4404933"><ele>28.5</ele><time>2026-05-02T05:14:39.492Z</time></trkpt><trkpt lat="40.9700783" lon="14.440155"><ele>27.0</ele><time>2026-05-02T05:14:40.492Z</time></trkpt><trkpt lat="40.9702083" lon="14.4398133"><ele>27.5</ele><time>2026-05-02T05:14:41.492Z</time></trkpt><trkpt lat="40.9703383" lon="14.43947"><ele>28.0</ele><time>2026-05-02T05:14:42.492Z</time></trkpt><trkpt lat="40.97047" lon="14.4391233"><ele>28.5</ele><time>2026-05-02T05:14:43.493Z</time></trkpt><trkpt lat="40.9706" lon="14.4387733"><ele>29.0</ele><time>2026-05-02T05:14:44.492Z</time></trkpt><trkpt lat="40.9707317" lon="14.43842"><ele>28.5</ele><time>2026-05-02T05:14:45.492Z</time></trkpt><trkpt lat="40.9708683" lon="14.43807"><ele>28.0</ele><time>2026-05-02T05:14:46.493Z</time></trkpt><trkpt lat="40.9709967" lon="14.4377233"><ele>28.0</ele><time>2026-05-02T05:14:47.493Z</time></trkpt><trkpt lat="40.9711317" lon="14.4373717"><ele>28.0</ele><time>2026-05-02T05:14:48.492Z</time></trkpt><trkpt lat="40.971265" lon="14.437015"><ele>28.0</ele><time>2026-05-02T05:14:49.492Z</time></trkpt><trkpt lat="40.9714" lon="14.4366683"><ele>28.0</ele><time>2026-05-02T05:14:50.492Z</time></trkpt><trkpt lat="40.971535" lon="14.4363167"><ele>28.0</ele><time>2026-05-02T05:14:51.492Z</time></trkpt><trkpt lat="40.9716717" lon="14.4359617"><ele>28.0</ele><time>2026-05-02T05:14:52.492Z</time></trkpt><trkpt lat="40.9718067" lon="14.43561"><ele>28.5</ele><time>2026-05-02T05:14:53.492Z</time></trkpt><trkpt lat="40.9719417" lon="14.435255"><ele>29.0</ele><time>2026-05-02T05:14:54.492Z</time></trkpt><trkpt lat="40.9720783" lon="14.434895"><ele>28.5</ele><time>2026-05-02T05:14:55.492Z</time></trkpt><trkpt lat="40.9722183" lon="14.43454"><ele>28.0</ele><time>2026-05-02T05:14:56.492Z</time></trkpt><trkpt lat="40.9723567" lon="14.4341817"><ele>28.0</ele><time>2026-05-02T05:14:57.492Z</time></trkpt><trkpt lat="40.972495" lon="14.4338283"><ele>28.0</ele><time>2026-05-02T05:14:58.492Z</time></trkpt><trkpt lat="40.9726367" lon="14.4334683"><ele>28.0</ele><time>2026-05-02T05:14:59.492Z</time></trkpt><trkpt lat="40.972775" lon="14.4331117"><ele>28.0</ele><time>2026-05-02T05:15:00.492Z</time></trkpt><trkpt lat="40.9729117" lon="14.432755"><ele>28.0</ele><time>2026-05-02T05:15:01.492Z</time></trkpt><trkpt lat="40.97305" lon="14.4323933"><ele>28.0</ele><time>2026-05-02T05:15:02.492Z</time></trkpt><trkpt lat="40.97319" lon="14.4320383"><ele>28.0</ele><time>2026-05-02T05:15:03.492Z</time></trkpt><trkpt lat="40.9733233" lon="14.4316817"><ele>28.0</ele><time>2026-05-02T05:15:04.492Z</time></trkpt><trkpt lat="40.9734617" lon="14.431325"><ele>28.5</ele><time>2026-05-02T05:15:05.492Z</time></trkpt><trkpt lat="40.9736017" lon="14.4309717"><ele>29.0</ele><time>2026-05-02T05:15:06.492Z</time></trkpt><trkpt lat="40.9737367" lon="14.4306133"><ele>29.5</ele><time>2026-05-02T05:15:07.492Z</time></trkpt><trkpt lat="40.9738733" lon="14.4302617"><ele>30.0</ele><time>2026-05-02T05:15:08.492Z</time></trkpt><trkpt lat="40.97401" lon="14.4299067"><ele>29.5</ele><time>2026-05-02T05:15:09.492Z</time></trkpt><trkpt lat="40.9741417" lon="14.4295517"><ele>29.0</ele><time>2026-05-02T05:15:10.492Z</time></trkpt><trkpt lat="40.9742767" lon="14.4291983"><ele>28.5</ele><time>2026-05-02T05:15:11.492Z</time></trkpt><trkpt lat="40.974415" lon="14.42884"><ele>28.0</ele><time>2026-05-02T05:15:12.492Z</time></trkpt><trkpt lat="40.9745567" lon="14.4284867"><ele>28.0</ele><time>2026-05-02T05:15:13.492Z</time></trkpt><trkpt lat="40.9746883" lon="14.4281383"><ele>28.0</ele><time>2026-05-02T05:15:14.492Z</time></trkpt><trkpt lat="40.9748183" lon="14.4277917"><ele>28.5</ele><time>2026-05-02T05:15:15.492Z</time></trkpt><trkpt lat="40.9749633" lon="14.4274433"><ele>29.0</ele><time>2026-05-02T05:15:16.493Z</time></trkpt><trkpt lat="40.9751033" lon="14.4271"><ele>29.0</ele><time>2026-05-02T05:15:17.492Z</time></trkpt><trkpt lat="40.97525" lon="14.42676"><ele>29.0</ele><time>2026-05-02T05:15:18.492Z</time></trkpt><trkpt lat="40.975405" lon="14.42642"><ele>30.0</ele><time>2026-05-02T05:15:19.492Z</time></trkpt><trkpt lat="40.9755617" lon="14.4260783"><ele>31.0</ele><time>2026-05-02T05:15:20.492Z</time></trkpt><trkpt lat="40.9757217" lon="14.4257417"><ele>29.5</ele><time>2026-05-02T05:15:21.492Z</time></trkpt><trkpt lat="40.9758867" lon="14.4254117"><ele>28.0</ele><time>2026-05-02T05:15:22.492Z</time></trkpt><trkpt lat="40.9760583" lon="14.42508"><ele>28.0</ele><time>2026-05-02T05:15:23.492Z</time></trkpt><trkpt lat="40.9762283" lon="14.424755"><ele>28.0</ele><time>2026-05-02T05:15:24.492Z</time></trkpt><trkpt lat="40.9764017" lon="14.4244383"><ele>29.5</ele><time>2026-05-02T05:15:25.492Z</time></trkpt><trkpt lat="40.9765783" lon="14.4241217"><ele>31.0</ele><time>2026-05-02T05:15:26.492Z</time></trkpt><trkpt lat="40.97676" lon="14.4238117"><ele>31.5</ele><time>2026-05-02T05:15:27.492Z</time></trkpt><trkpt lat="40.9769467" lon="14.423505"><ele>32.0</ele><time>2026-05-02T05:15:28.492Z</time></trkpt><trkpt lat="40.977135" lon="14.4232083"><ele>32.0</ele><time>2026-05-02T05:15:29.492Z</time></trkpt><trkpt lat="40.9773317" lon="14.4229117"><ele>32.0</ele><time>2026-05-02T05:15:30.492Z</time></trkpt><trkpt lat="40.9775283" lon="14.4226167"><ele>32.0</ele><time>2026-05-02T05:15:31.492Z</time></trkpt><trkpt lat="40.9777283" lon="14.4223267"><ele>32.0</ele><time>2026-05-02T05:15:32.492Z</time></trkpt><trkpt lat="40.97793" lon="14.4220433"><ele>32.5</ele><time>2026-05-02T05:15:33.492Z</time></trkpt><trkpt lat="40.9781333" lon="14.421755"><ele>33.0</ele><time>2026-05-02T05:15:34.492Z</time></trkpt><trkpt lat="40.97834" lon="14.42147"><ele>32.0</ele><time>2026-05-02T05:15:35.492Z</time></trkpt><trkpt lat="40.9785483" lon="14.4211833"><ele>31.0</ele><time>2026-05-02T05:15:36.492Z</time></trkpt><trkpt lat="40.9787517" lon="14.420895"><ele>31.0</ele><time>2026-05-02T05:15:37.492Z</time></trkpt><trkpt lat="40.9789583" lon="14.4206067"><ele>31.0</ele><time>2026-05-02T05:15:38.492Z</time></trkpt><trkpt lat="40.9791667" lon="14.4203183"><ele>32.0</ele><time>2026-05-02T05:15:39.492Z</time></trkpt><trkpt lat="40.979375" lon="14.4200283"><ele>33.0</ele><time>2026-05-02T05:15:40.492Z</time></trkpt><trkpt lat="40.97958" lon="14.4197367"><ele>33.0</ele><time>2026-05-02T05:15:41.493Z</time></trkpt><trkpt lat="40.97979" lon="14.419445"><ele>33.0</ele><time>2026-05-02T05:15:42.493Z</time></trkpt><trkpt lat="40.9799967" lon="14.4191533"><ele>33.0</ele><time>2026-05-02T05:15:43.492Z</time></trkpt><trkpt lat="40.9802083" lon="14.4188617"><ele>33.0</ele><time>2026-05-02T05:15:44.492Z</time></trkpt><trkpt lat="40.9804133" lon="14.4185717"><ele>33.5</ele><time>2026-05-02T05:15:45.492Z</time></trkpt><trkpt lat="40.9806233" lon="14.418275"><ele>34.0</ele><time>2026-05-02T05:15:46.492Z</time></trkpt><trkpt lat="40.9808267" lon="14.4179917"><ele>34.0</ele><time>2026-05-02T05:15:47.492Z</time></trkpt><trkpt lat="40.9810317" lon="14.4177067"><ele>34.0</ele><time>2026-05-02T05:15:48.492Z</time></trkpt><trkpt lat="40.9812283" lon="14.41743"><ele>34.5</ele><time>2026-05-02T05:15:49.492Z</time></trkpt><trkpt lat="40.9814283" lon="14.4171517"><ele>35.0</ele><time>2026-05-02T05:15:50.492Z</time></trkpt><trkpt lat="40.9816217" lon="14.41687"><ele>35.5</ele><time>2026-05-02T05:15:51.492Z</time></trkpt><trkpt lat="40.981815" lon="14.41659"><ele>36.0</ele><time>2026-05-02T05:15:52.492Z</time></trkpt><trkpt lat="40.9820133" lon="14.4163183"><ele>36.0</ele><time>2026-05-02T05:15:53.492Z</time></trkpt><trkpt lat="40.9822117" lon="14.416045"><ele>36.0</ele><time>2026-05-02T05:15:54.492Z</time></trkpt><trkpt lat="40.982405" lon="14.4157733"><ele>36.0</ele><time>2026-05-02T05:15:55.492Z</time></trkpt><trkpt lat="40.9826083" lon="14.4155017"><ele>36.0</ele><time>2026-05-02T05:15:56.492Z</time></trkpt><trkpt lat="40.9828117" lon="14.4152333"><ele>36.0</ele><time>2026-05-02T05:15:57.492Z</time></trkpt><trkpt lat="40.98302" lon="14.4149733"><ele>36.0</ele><time>2026-05-02T05:15:58.492Z</time></trkpt><trkpt lat="40.9832317" lon="14.4147133"><ele>35.0</ele><time>2026-05-02T05:15:59.492Z</time></trkpt><trkpt lat="40.98345" lon="14.4144583"><ele>34.0</ele><time>2026-05-02T05:16:00.492Z</time></trkpt><trkpt lat="40.9836717" lon="14.4142083"><ele>34.0</ele><time>2026-05-02T05:16:01.492Z</time></trkpt><trkpt lat="40.983905" lon="14.41396"><ele>34.0</ele><time>2026-05-02T05:16:02.492Z</time></trkpt><trkpt lat="40.984135" lon="14.41372"><ele>33.5</ele><time>2026-05-02T05:16:03.493Z</time></trkpt><trkpt lat="40.984365" lon="14.41349"><ele>33.0</ele><time>2026-05-02T05:16:04.492Z</time></trkpt><trkpt lat="40.9846" lon="14.4132683"><ele>33.0</ele><time>2026-05-02T05:16:05.492Z</time></trkpt><trkpt lat="40.98484" lon="14.4130483"><ele>33.0</ele><time>2026-05-02T05:16:06.492Z</time></trkpt><trkpt lat="40.9850883" lon="14.4128367"><ele>33.5</ele><time>2026-05-02T05:16:07.492Z</time></trkpt><trkpt lat="40.9853317" lon="14.4126367"><ele>34.0</ele><time>2026-05-02T05:16:08.492Z</time></trkpt><trkpt lat="40.9855783" lon="14.412445"><ele>34.0</ele><time>2026-05-02T05:16:09.492Z</time></trkpt><trkpt lat="40.9858283" lon="14.4122617"><ele>34.0</ele><time>2026-05-02T05:16:10.492Z</time></trkpt><trkpt lat="40.986075" lon="14.4120867"><ele>36.5</ele><time>2026-05-02T05:16:11.492Z</time></trkpt><trkpt lat="40.98633" lon="14.4119167"><ele>39.0</ele><time>2026-05-02T05:16:12.492Z</time></trkpt><trkpt lat="40.98659" lon="14.4117467"><ele>38.0</ele><time>2026-05-02T05:16:13.492Z</time></trkpt><trkpt lat="40.9868533" lon="14.41159"><ele>37.0</ele><time>2026-05-02T05:16:14.493Z</time></trkpt><trkpt lat="40.9871167" lon="14.4114367"><ele>36.0</ele><time>2026-05-02T05:16:15.492Z</time></trkpt><trkpt lat="40.9873833" lon="14.4112883"><ele>35.0</ele><time>2026-05-02T05:16:16.492Z</time></trkpt><trkpt lat="40.9876533" lon="14.411155"><ele>35.0</ele><time>2026-05-02T05:16:17.493Z</time></trkpt><trkpt lat="40.9879217" lon="14.411025"><ele>35.0</ele><time>2026-05-02T05:16:18.492Z</time></trkpt><trkpt lat="40.988195" lon="14.4109033"><ele>35.0</ele><time>2026-05-02T05:16:19.492Z</time></trkpt><trkpt lat="40.9884717" lon="14.410795"><ele>35.0</ele><time>2026-05-02T05:16:20.492Z</time></trkpt><trkpt lat="40.9887567" lon="14.41069"><ele>35.0</ele><time>2026-05-02T05:16:21.493Z</time></trkpt><trkpt lat="40.9890417" lon="14.4105867"><ele>35.0</ele><time>2026-05-02T05:16:22.492Z</time></trkpt><trkpt lat="40.989325" lon="14.4104833"><ele>34.5</ele><time>2026-05-02T05:16:23.492Z</time></trkpt><trkpt lat="40.989615" lon="14.41039"><ele>34.0</ele><time>2026-05-02T05:16:24.492Z</time></trkpt><trkpt lat="40.9898917" lon="14.4102983"><ele>34.0</ele><time>2026-05-02T05:16:25.492Z</time></trkpt><trkpt lat="40.9901733" lon="14.4102033"><ele>34.0</ele><time>2026-05-02T05:16:26.492Z</time></trkpt><trkpt lat="40.9904617" lon="14.41011"><ele>34.0</ele><time>2026-05-02T05:16:27.492Z</time></trkpt><trkpt lat="40.99075" lon="14.4100217"><ele>34.0</ele><time>2026-05-02T05:16:28.492Z</time></trkpt><trkpt lat="40.991035" lon="14.4099267"><ele>33.5</ele><time>2026-05-02T05:16:29.492Z</time></trkpt><trkpt lat="40.9913183" lon="14.4098283"><ele>33.0</ele><time>2026-05-02T05:16:30.492Z</time></trkpt><trkpt lat="40.9916033" lon="14.40973"><ele>33.0</ele><time>2026-05-02T05:16:31.492Z</time></trkpt><trkpt lat="40.9918933" lon="14.40964"><ele>33.0</ele><time>2026-05-02T05:16:32.492Z</time></trkpt><trkpt lat="40.99218" lon="14.4095483"><ele>33.0</ele><time>2026-05-02T05:16:33.492Z</time></trkpt><trkpt lat="40.992465" lon="14.4094533"><ele>33.0</ele><time>2026-05-02T05:16:34.492Z</time></trkpt><trkpt lat="40.992745" lon="14.4093583"><ele>32.5</ele><time>2026-05-02T05:16:35.492Z</time></trkpt><trkpt lat="40.9930283" lon="14.4092633"><ele>32.0</ele><time>2026-05-02T05:16:36.492Z</time></trkpt><trkpt lat="40.99331" lon="14.40917"><ele>32.0</ele><time>2026-05-02T05:16:37.492Z</time></trkpt><trkpt lat="40.9935917" lon="14.4090767"><ele>32.0</ele><time>2026-05-02T05:16:38.492Z</time></trkpt><trkpt lat="40.9938733" lon="14.408985"><ele>32.0</ele><time>2026-05-02T05:16:39.492Z</time></trkpt><trkpt lat="40.9941517" lon="14.4088917"><ele>32.0</ele><time>2026-05-02T05:16:40.492Z</time></trkpt><trkpt lat="40.99443" lon="14.4087967"><ele>31.0</ele><time>2026-05-02T05:16:41.493Z</time></trkpt><trkpt lat="40.994715" lon="14.4087017"><ele>30.0</ele><time>2026-05-02T05:16:42.492Z</time></trkpt><trkpt lat="40.9949917" lon="14.4086083"><ele>30.5</ele><time>2026-05-02T05:16:43.492Z</time></trkpt><trkpt lat="40.995265" lon="14.4085183"><ele>31.0</ele><time>2026-05-02T05:16:44.492Z</time></trkpt><trkpt lat="40.9955417" lon="14.408425"><ele>31.0</ele><time>2026-05-02T05:16:45.492Z</time></trkpt><trkpt lat="40.995825" lon="14.40834"><ele>31.0</ele><time>2026-05-02T05:16:46.492Z</time></trkpt><trkpt lat="40.9961083" lon="14.4082467"><ele>31.5</ele><time>2026-05-02T05:16:47.492Z</time></trkpt><trkpt lat="40.99639" lon="14.4081517"><ele>32.0</ele><time>2026-05-02T05:16:48.492Z</time></trkpt><trkpt lat="40.9966717" lon="14.40806"><ele>33.0</ele><time>2026-05-02T05:16:49.492Z</time></trkpt><trkpt lat="40.996955" lon="14.4079717"><ele>34.0</ele><time>2026-05-02T05:16:50.492Z</time></trkpt><trkpt lat="40.997235" lon="14.4078783"><ele>32.5</ele><time>2026-05-02T05:16:51.492Z</time></trkpt><trkpt lat="40.9975167" lon="14.4077817"><ele>31.0</ele><time>2026-05-02T05:16:52.492Z</time></trkpt><trkpt lat="40.9978033" lon="14.4076867"><ele>31.0</ele><time>2026-05-02T05:16:53.492Z</time></trkpt><trkpt lat="40.9980883" lon="14.407595"><ele>31.0</ele><time>2026-05-02T05:16:54.492Z</time></trkpt><trkpt lat="40.9983717" lon="14.4075033"><ele>31.0</ele><time>2026-05-02T05:16:55.492Z</time></trkpt><trkpt lat="40.9986583" lon="14.40741"><ele>31.0</ele><time>2026-05-02T05:16:56.493Z</time></trkpt><trkpt lat="40.99894" lon="14.4073167"><ele>31.0</ele><time>2026-05-02T05:16:57.492Z</time></trkpt><trkpt lat="40.9992267" lon="14.40722"><ele>31.0</ele><time>2026-05-02T05:16:58.492Z</time></trkpt><trkpt lat="40.9995117" lon="14.407125"><ele>31.0</ele><time>2026-05-02T05:16:59.492Z</time></trkpt><trkpt lat="40.9997983" lon="14.40703"><ele>31.0</ele><time>2026-05-02T05:17:00.492Z</time></trkpt><trkpt lat="41.000085" lon="14.4069367"><ele>31.0</ele><time>2026-05-02T05:17:01.493Z</time></trkpt><trkpt lat="41.0003667" lon="14.406845"><ele>31.0</ele><time>2026-05-02T05:17:02.492Z</time></trkpt><trkpt lat="41.0006433" lon="14.4067483"><ele>30.0</ele><time>2026-05-02T05:17:03.492Z</time></trkpt><trkpt lat="41.0009233" lon="14.4066567"><ele>29.0</ele><time>2026-05-02T05:17:04.492Z</time></trkpt><trkpt lat="41.0012" lon="14.4065583"><ele>29.0</ele><time>2026-05-02T05:17:05.492Z</time></trkpt><trkpt lat="41.001475" lon="14.4064517"><ele>29.0</ele><time>2026-05-02T05:17:06.492Z</time></trkpt><trkpt lat="41.0017467" lon="14.4063317"><ele>28.5</ele><time>2026-05-02T05:17:07.492Z</time></trkpt><trkpt lat="41.002015" lon="14.406205"><ele>28.0</ele><time>2026-05-02T05:17:08.492Z</time></trkpt><trkpt lat="41.0022783" lon="14.4060767"><ele>28.5</ele><time>2026-05-02T05:17:09.492Z</time></trkpt><trkpt lat="41.0025383" lon="14.4059367"><ele>29.0</ele><time>2026-05-02T05:17:10.492Z</time></trkpt><trkpt lat="41.0027983" lon="14.4057917"><ele>29.0</ele><time>2026-05-02T05:17:11.492Z</time></trkpt><trkpt lat="41.0030567" lon="14.405635"><ele>29.0</ele><time>2026-05-02T05:17:12.492Z</time></trkpt><trkpt lat="41.0033117" lon="14.4054783"><ele>29.0</ele><time>2026-05-02T05:17:13.492Z</time></trkpt><trkpt lat="41.003565" lon="14.4053067"><ele>29.0</ele><time>2026-05-02T05:17:14.492Z</time></trkpt><trkpt lat="41.003815" lon="14.4051367"><ele>29.0</ele><time>2026-05-02T05:17:15.492Z</time></trkpt><trkpt lat="41.00406" lon="14.4049567"><ele>29.0</ele><time>2026-05-02T05:17:16.492Z</time></trkpt><trkpt lat="41.0043083" lon="14.40477"><ele>28.5</ele><time>2026-05-02T05:17:17.492Z</time></trkpt><trkpt lat="41.0045517" lon="14.4045767"><ele>28.0</ele><time>2026-05-02T05:17:18.492Z</time></trkpt><trkpt lat="41.0047983" lon="14.4043783"><ele>29.0</ele><time>2026-05-02T05:17:19.492Z</time></trkpt><trkpt lat="41.0050367" lon="14.4041717"><ele>30.0</ele><time>2026-05-02T05:17:20.492Z</time></trkpt><trkpt lat="41.00527" lon="14.4039567"><ele>30.0</ele><time>2026-05-02T05:17:21.492Z</time></trkpt><trkpt lat="41.0054933" lon="14.4037433"><ele>30.0</ele><time>2026-05-02T05:17:22.492Z</time></trkpt><trkpt lat="41.005715" lon="14.4035217"><ele>33.0</ele><time>2026-05-02T05:17:23.492Z</time></trkpt><trkpt lat="41.0059417" lon="14.4032883"><ele>36.0</ele><time>2026-05-02T05:17:24.492Z</time></trkpt><trkpt lat="41.0061567" lon="14.40305"><ele>35.5</ele><time>2026-05-02T05:17:25.492Z</time></trkpt><trkpt lat="41.0063717" lon="14.40281"><ele>35.0</ele><time>2026-05-02T05:17:26.492Z</time></trkpt><trkpt lat="41.0065783" lon="14.4025617"><ele>35.0</ele><time>2026-05-02T05:17:27.492Z</time></trkpt><trkpt lat="41.0067883" lon="14.402305"><ele>35.0</ele><time>2026-05-02T05:17:28.492Z</time></trkpt><trkpt lat="41.00699" lon="14.40204"><ele>35.0</ele><time>2026-05-02T05:17:29.492Z</time></trkpt><trkpt lat="41.007195" lon="14.4017733"><ele>35.0</ele><time>2026-05-02T05:17:30.492Z</time></trkpt><trkpt lat="41.0073917" lon="14.4014983"><ele>35.0</ele><time>2026-05-02T05:17:31.492Z</time></trkpt><trkpt lat="41.0075817" lon="14.40122"><ele>35.0</ele><time>2026-05-02T05:17:32.492Z</time></trkpt><trkpt lat="41.007765" lon="14.4009317"><ele>35.0</ele><time>2026-05-02T05:17:33.492Z</time></trkpt><trkpt lat="41.0079433" lon="14.400635"><ele>35.0</ele><time>2026-05-02T05:17:34.492Z</time></trkpt><trkpt lat="41.00812" lon="14.4003283"><ele>34.5</ele><time>2026-05-02T05:17:35.492Z</time></trkpt><trkpt lat="41.0082933" lon="14.4000183"><ele>34.0</ele><time>2026-05-02T05:17:36.493Z</time></trkpt><trkpt lat="41.00847" lon="14.3996967"><ele>34.5</ele><time>2026-05-02T05:17:37.492Z</time></trkpt><trkpt lat="41.00864" lon="14.3993767"><ele>35.0</ele><time>2026-05-02T05:17:38.492Z</time></trkpt><trkpt lat="41.0087983" lon="14.3990467"><ele>34.5</ele><time>2026-05-02T05:17:39.492Z</time></trkpt><trkpt lat="41.0089517" lon="14.3987117"><ele>34.0</ele><time>2026-05-02T05:17:40.492Z</time></trkpt><trkpt lat="41.0091017" lon="14.3983683"><ele>33.5</ele><time>2026-05-02T05:17:41.492Z</time></trkpt><trkpt lat="41.009245" lon="14.3980267"><ele>33.0</ele><time>2026-05-02T05:17:42.492Z</time></trkpt><trkpt lat="41.0093917" lon="14.3976717"><ele>33.0</ele><time>2026-05-02T05:17:43.492Z</time></trkpt><trkpt lat="41.00953" lon="14.3973167"><ele>33.0</ele><time>2026-05-02T05:17:44.492Z</time></trkpt><trkpt lat="41.0096617" lon="14.3969617"><ele>33.0</ele><time>2026-05-02T05:17:45.492Z</time></trkpt><trkpt lat="41.0097817" lon="14.3966017"><ele>33.0</ele><time>2026-05-02T05:17:46.492Z</time></trkpt><trkpt lat="41.0098983" lon="14.396235"><ele>33.0</ele><time>2026-05-02T05:17:47.492Z</time></trkpt><trkpt lat="41.0100133" lon="14.3958683"><ele>33.0</ele><time>2026-05-02T05:17:48.492Z</time></trkpt><trkpt lat="41.0101117" lon="14.3954983"><ele>32.5</ele><time>2026-05-02T05:17:49.492Z</time></trkpt><trkpt lat="41.0102083" lon="14.395125"><ele>32.0</ele><time>2026-05-02T05:17:50.492Z</time></trkpt><trkpt lat="41.0102967" lon="14.3947433"><ele>31.5</ele><time>2026-05-02T05:17:51.492Z</time></trkpt><trkpt lat="41.01038" lon="14.3943617"><ele>31.0</ele><time>2026-05-02T05:17:52.492Z</time></trkpt><trkpt lat="41.0104617" lon="14.3939767"><ele>31.0</ele><time>2026-05-02T05:17:53.492Z</time></trkpt><trkpt lat="41.0105317" lon="14.393595"><ele>31.0</ele><time>2026-05-02T05:17:54.493Z</time></trkpt><trkpt lat="41.0106033" lon="14.3932033"><ele>30.5</ele><time>2026-05-02T05:17:55.492Z</time></trkpt><trkpt lat="41.0106617" lon="14.3928133"><ele>30.0</ele><time>2026-05-02T05:17:56.492Z</time></trkpt><trkpt lat="41.0107133" lon="14.3924233"><ele>30.0</ele><time>2026-05-02T05:17:57.492Z</time></trkpt><trkpt lat="41.01077" lon="14.3920233"><ele>30.0</ele><time>2026-05-02T05:17:58.491Z</time></trkpt><trkpt lat="41.010825" lon="14.3916317"><ele>30.5</ele><time>2026-05-02T05:17:59.492Z</time></trkpt><trkpt lat="41.01088" lon="14.3912467"><ele>31.0</ele><time>2026-05-02T05:18:00.492Z</time></trkpt><trkpt lat="41.0109333" lon="14.3908617"><ele>31.5</ele><time>2026-05-02T05:18:01.492Z</time></trkpt><trkpt lat="41.0109933" lon="14.3904733"><ele>32.0</ele><time>2026-05-02T05:18:02.492Z</time></trkpt><trkpt lat="41.01105" lon="14.3900833"><ele>32.0</ele><time>2026-05-02T05:18:03.492Z</time></trkpt><trkpt lat="41.0111117" lon="14.3896867"><ele>32.0</ele><time>2026-05-02T05:18:04.492Z</time></trkpt><trkpt lat="41.0111717" lon="14.38929"><ele>31.5</ele><time>2026-05-02T05:18:05.492Z</time></trkpt><trkpt lat="41.0112333" lon="14.3888967"><ele>31.0</ele><time>2026-05-02T05:18:06.492Z</time></trkpt><trkpt lat="41.011285" lon="14.388505"><ele>31.0</ele><time>2026-05-02T05:18:07.492Z</time></trkpt><trkpt lat="41.011335" lon="14.3881183"><ele>31.0</ele><time>2026-05-02T05:18:08.492Z</time></trkpt><trkpt lat="41.011395" lon="14.3877217"><ele>31.0</ele><time>2026-05-02T05:18:09.492Z</time></trkpt><trkpt lat="41.0114517" lon="14.3873233"><ele>31.0</ele><time>2026-05-02T05:18:10.492Z</time></trkpt><trkpt lat="41.011505" lon="14.3869267"><ele>31.0</ele><time>2026-05-02T05:18:11.492Z</time></trkpt><trkpt lat="41.0115617" lon="14.3865267"><ele>31.0</ele><time>2026-05-02T05:18:12.493Z</time></trkpt><trkpt lat="41.0116183" lon="14.3861283"><ele>31.5</ele><time>2026-05-02T05:18:13.492Z</time></trkpt><trkpt lat="41.0116717" lon="14.3857317"><ele>32.0</ele><time>2026-05-02T05:18:14.492Z</time></trkpt><trkpt lat="41.01173" lon="14.3853367"><ele>32.0</ele><time>2026-05-02T05:18:15.492Z</time></trkpt><trkpt lat="41.0117917" lon="14.3849467"><ele>32.0</ele><time>2026-05-02T05:18:16.492Z</time></trkpt><trkpt lat="41.0118517" lon="14.3845617"><ele>32.5</ele><time>2026-05-02T05:18:17.492Z</time></trkpt><trkpt lat="41.0119183" lon="14.3841783"><ele>33.0</ele><time>2026-05-02T05:18:18.492Z</time></trkpt><trkpt lat="41.0119917" lon="14.383795"><ele>33.0</ele><time>2026-05-02T05:18:19.492Z</time></trkpt><trkpt lat="41.0120717" lon="14.38341"><ele>33.0</ele><time>2026-05-02T05:18:20.492Z</time></trkpt><trkpt lat="41.0121517" lon="14.38303"><ele>32.5</ele><time>2026-05-02T05:18:21.492Z</time></trkpt><trkpt lat="41.0122317" lon="14.3826517"><ele>32.0</ele><time>2026-05-02T05:18:22.492Z</time></trkpt><trkpt lat="41.012315" lon="14.3822783"><ele>32.5</ele><time>2026-05-02T05:18:23.493Z</time></trkpt><trkpt lat="41.01241" lon="14.3819033"><ele>33.0</ele><time>2026-05-02T05:18:24.492Z</time></trkpt><trkpt lat="41.0125033" lon="14.3815317"><ele>33.5</ele><time>2026-05-02T05:18:25.492Z</time></trkpt><trkpt lat="41.012605" lon="14.38116"><ele>34.0</ele><time>2026-05-02T05:18:26.492Z</time></trkpt><trkpt lat="41.012705" lon="14.3807917"><ele>34.0</ele><time>2026-05-02T05:18:27.492Z</time></trkpt><trkpt lat="41.012805" lon="14.3804217"><ele>34.0</ele><time>2026-05-02T05:18:28.492Z</time></trkpt><trkpt lat="41.0129083" lon="14.3800533"><ele>34.0</ele><time>2026-05-02T05:18:29.492Z</time></trkpt><trkpt lat="41.0130167" lon="14.3796883"><ele>34.0</ele><time>2026-05-02T05:18:30.492Z</time></trkpt><trkpt lat="41.0131333" lon="14.3793217"><ele>34.0</ele><time>2026-05-02T05:18:31.492Z</time></trkpt><trkpt lat="41.0132483" lon="14.3789583"><ele>34.0</ele><time>2026-05-02T05:18:32.492Z</time></trkpt><trkpt lat="41.0133633" lon="14.3785917"><ele>33.5</ele><time>2026-05-02T05:18:33.492Z</time></trkpt><trkpt lat="41.0134833" lon="14.3782367"><ele>33.0</ele><time>2026-05-02T05:18:34.492Z</time></trkpt><trkpt lat="41.0136067" lon="14.37788"><ele>32.0</ele><time>2026-05-02T05:18:35.492Z</time></trkpt><trkpt lat="41.0137317" lon="14.377525"><ele>31.0</ele><time>2026-05-02T05:18:36.493Z</time></trkpt><trkpt lat="41.0138583" lon="14.3771767"><ele>31.0</ele><time>2026-05-02T05:18:37.492Z</time></trkpt><trkpt lat="41.0139833" lon="14.3768283"><ele>31.0</ele><time>2026-05-02T05:18:38.492Z</time></trkpt><trkpt lat="41.0141183" lon="14.3764817"><ele>33.5</ele><time>2026-05-02T05:18:39.492Z</time></trkpt><trkpt lat="41.0142517" lon="14.376135"><ele>36.0</ele><time>2026-05-02T05:18:40.492Z</time></trkpt><trkpt lat="41.0143883" lon="14.37579"><ele>36.5</ele><time>2026-05-02T05:18:41.492Z</time></trkpt><trkpt lat="41.0145317" lon="14.3754567"><ele>37.0</ele><time>2026-05-02T05:18:42.492Z</time></trkpt><trkpt lat="41.0146717" lon="14.3751183"><ele>37.0</ele><time>2026-05-02T05:18:43.493Z</time></trkpt><trkpt lat="41.014815" lon="14.37478"><ele>37.0</ele><time>2026-05-02T05:18:44.492Z</time></trkpt><trkpt lat="41.0149633" lon="14.3744467"><ele>35.5</ele><time>2026-05-02T05:18:45.492Z</time></trkpt><trkpt lat="41.01511" lon="14.3741183"><ele>34.0</ele><time>2026-05-02T05:18:46.492Z</time></trkpt><trkpt lat="41.0152617" lon="14.3737933"><ele>34.0</ele><time>2026-05-02T05:18:47.492Z</time></trkpt><trkpt lat="41.015415" lon="14.3734683"><ele>34.0</ele><time>2026-05-02T05:18:48.492Z</time></trkpt><trkpt lat="41.0155717" lon="14.373155"><ele>34.5</ele><time>2026-05-02T05:18:49.492Z</time></trkpt><trkpt lat="41.01573" lon="14.3728333"><ele>35.0</ele><time>2026-05-02T05:18:50.492Z</time></trkpt><trkpt lat="41.0158967" lon="14.3725217"><ele>36.0</ele><time>2026-05-02T05:18:51.492Z</time></trkpt><trkpt lat="41.0160683" lon="14.37221"><ele>37.0</ele><time>2026-05-02T05:18:52.492Z</time></trkpt><trkpt lat="41.01624" lon="14.3719067"><ele>37.0</ele><time>2026-05-02T05:18:53.492Z</time></trkpt><trkpt lat="41.016415" lon="14.3716067"><ele>37.0</ele><time>2026-05-02T05:18:54.492Z</time></trkpt><trkpt lat="41.0165933" lon="14.3713067"><ele>35.0</ele><time>2026-05-02T05:18:55.492Z</time></trkpt><trkpt lat="41.01677" lon="14.37101"><ele>33.0</ele><time>2026-05-02T05:18:56.492Z</time></trkpt><trkpt lat="41.01695" lon="14.370705"><ele>33.5</ele><time>2026-05-02T05:18:57.492Z</time></trkpt><trkpt lat="41.0171317" lon="14.37041"><ele>34.0</ele><time>2026-05-02T05:18:58.493Z</time></trkpt><trkpt lat="41.0173167" lon="14.3701167"><ele>34.5</ele><time>2026-05-02T05:18:59.493Z</time></trkpt><trkpt lat="41.0175" lon="14.3698183"><ele>35.0</ele><time>2026-05-02T05:19:00.493Z</time></trkpt><trkpt lat="41.0176833" lon="14.3695233"><ele>35.5</ele><time>2026-05-02T05:19:01.493Z</time></trkpt><trkpt lat="41.0178683" lon="14.3692233"><ele>36.0</ele><time>2026-05-02T05:19:02.493Z</time></trkpt><trkpt lat="41.0180583" lon="14.3689267"><ele>35.5</ele><time>2026-05-02T05:19:03.493Z</time></trkpt><trkpt lat="41.018245" lon="14.3686317"><ele>35.0</ele><time>2026-05-02T05:19:04.493Z</time></trkpt><trkpt lat="41.01843" lon="14.3683367"><ele>35.0</ele><time>2026-05-02T05:19:05.493Z</time></trkpt><trkpt lat="41.018615" lon="14.3680433"><ele>35.0</ele><time>2026-05-02T05:19:06.493Z</time></trkpt><trkpt lat="41.0188033" lon="14.3677467"><ele>35.5</ele><time>2026-05-02T05:19:07.493Z</time></trkpt><trkpt lat="41.0189917" lon="14.36745"><ele>36.0</ele><time>2026-05-02T05:19:08.493Z</time></trkpt><trkpt lat="41.0191767" lon="14.3671517"><ele>35.0</ele><time>2026-05-02T05:19:09.493Z</time></trkpt><trkpt lat="41.0193633" lon="14.3668483"><ele>34.0</ele><time>2026-05-02T05:19:10.493Z</time></trkpt><trkpt lat="41.0195517" lon="14.36655"><ele>35.0</ele><time>2026-05-02T05:19:11.493Z</time></trkpt><trkpt lat="41.01974" lon="14.3662483"><ele>36.0</ele><time>2026-05-02T05:19:12.494Z</time></trkpt><trkpt lat="41.0199317" lon="14.3659417"><ele>35.5</ele><time>2026-05-02T05:19:13.493Z</time></trkpt><trkpt lat="41.0201233" lon="14.3656367"><ele>35.0</ele><time>2026-05-02T05:19:14.494Z</time></trkpt><trkpt lat="41.020305" lon="14.3653333"><ele>35.0</ele><time>2026-05-02T05:19:15.493Z</time></trkpt><trkpt lat="41.0205" lon="14.3650333"><ele>35.0</ele><time>2026-05-02T05:19:16.493Z</time></trkpt><trkpt lat="41.0206833" lon="14.3647383"><ele>37.5</ele><time>2026-05-02T05:19:17.493Z</time></trkpt><trkpt lat="41.0208667" lon="14.36444"><ele>40.0</ele><time>2026-05-02T05:19:18.493Z</time></trkpt><trkpt lat="41.021055" lon="14.3641417"><ele>39.0</ele><time>2026-05-02T05:19:19.493Z</time></trkpt><trkpt lat="41.02124" lon="14.3638417"><ele>38.0</ele><time>2026-05-02T05:19:20.493Z</time></trkpt><trkpt lat="41.021425" lon="14.363545"><ele>38.0</ele><time>2026-05-02T05:19:21.493Z</time></trkpt><trkpt lat="41.02161" lon="14.3632483"><ele>38.0</ele><time>2026-05-02T05:19:22.494Z</time></trkpt><trkpt lat="41.0217883" lon="14.362955"><ele>38.0</ele><time>2026-05-02T05:19:23.493Z</time></trkpt><trkpt lat="41.0219733" lon="14.3626617"><ele>38.0</ele><time>2026-05-02T05:19:24.493Z</time></trkpt><trkpt lat="41.0221583" lon="14.3623683"><ele>38.0</ele><time>2026-05-02T05:19:25.493Z</time></trkpt><trkpt lat="41.0223383" lon="14.3620733"><ele>38.0</ele><time>2026-05-02T05:19:26.493Z</time></trkpt><trkpt lat="41.0225233" lon="14.36178"><ele>38.0</ele><time>2026-05-02T05:19:27.493Z</time></trkpt><trkpt lat="41.022705" lon="14.36149"><ele>38.0</ele><time>2026-05-02T05:19:28.493Z</time></trkpt><trkpt lat="41.0228867" lon="14.3611983"><ele>38.0</ele><time>2026-05-02T05:19:29.493Z</time></trkpt><trkpt lat="41.0230683" lon="14.36091"><ele>38.0</ele><time>2026-05-02T05:19:30.493Z</time></trkpt><trkpt lat="41.0232517" lon="14.36062"><ele>39.0</ele><time>2026-05-02T05:19:31.493Z</time></trkpt><trkpt lat="41.0234317" lon="14.3603267"><ele>40.0</ele><time>2026-05-02T05:19:32.494Z</time></trkpt><trkpt lat="41.023615" lon="14.3600383"><ele>40.0</ele><time>2026-05-02T05:19:33.493Z</time></trkpt><trkpt lat="41.0237983" lon="14.3597467"><ele>40.0</ele><time>2026-05-02T05:19:34.493Z</time></trkpt><trkpt lat="41.02398" lon="14.3594533"><ele>40.0</ele><time>2026-05-02T05:19:35.494Z</time></trkpt><trkpt lat="41.0241633" lon="14.3591583"><ele>40.0</ele><time>2026-05-02T05:19:36.493Z</time></trkpt><trkpt lat="41.0243533" lon="14.358855"><ele>39.5</ele><time>2026-05-02T05:19:37.493Z</time></trkpt><trkpt lat="41.0245417" lon="14.3585567"><ele>39.0</ele><time>2026-05-02T05:19:38.494Z</time></trkpt><trkpt lat="41.02473" lon="14.3582533"><ele>38.5</ele><time>2026-05-02T05:19:39.493Z</time></trkpt><trkpt lat="41.0249217" lon="14.357945"><ele>38.0</ele><time>2026-05-02T05:19:40.493Z</time></trkpt><trkpt lat="41.0251167" lon="14.3576433"><ele>38.0</ele><time>2026-05-02T05:19:41.493Z</time></trkpt><trkpt lat="41.0253117" lon="14.357335"><ele>38.0</ele><time>2026-05-02T05:19:42.493Z</time></trkpt><trkpt lat="41.0255117" lon="14.3570233"><ele>38.0</ele><time>2026-05-02T05:19:43.493Z</time></trkpt><trkpt lat="41.025695" lon="14.356715"><ele>38.0</ele><time>2026-05-02T05:19:44.493Z</time></trkpt><trkpt lat="41.0258833" lon="14.3564033"><ele>38.5</ele><time>2026-05-02T05:19:45.493Z</time></trkpt><trkpt lat="41.0260683" lon="14.3560967"><ele>39.0</ele><time>2026-05-02T05:19:46.494Z</time></trkpt><trkpt lat="41.0262617" lon="14.3557983"><ele>38.0</ele><time>2026-05-02T05:19:47.493Z</time></trkpt><trkpt lat="41.026445" lon="14.3555"><ele>37.0</ele><time>2026-05-02T05:19:48.493Z</time></trkpt><trkpt lat="41.02663" lon="14.3551983"><ele>38.5</ele><time>2026-05-02T05:19:49.493Z</time></trkpt><trkpt lat="41.0268217" lon="14.354895"><ele>40.0</ele><time>2026-05-02T05:19:50.493Z</time></trkpt><trkpt lat="41.027005" lon="14.3545917"><ele>40.0</ele><time>2026-05-02T05:19:51.493Z</time></trkpt><trkpt lat="41.0271883" lon="14.3542767"><ele>40.0</ele><time>2026-05-02T05:19:52.493Z</time></trkpt><trkpt lat="41.0273733" lon="14.3539633"><ele>39.5</ele><time>2026-05-02T05:19:53.493Z</time></trkpt><trkpt lat="41.02755" lon="14.3536417"><ele>39.0</ele><time>2026-05-02T05:19:54.493Z</time></trkpt><trkpt lat="41.027725" lon="14.353325"><ele>38.5</ele><time>2026-05-02T05:19:55.494Z</time></trkpt><trkpt lat="41.027895" lon="14.353005"><ele>38.0</ele><time>2026-05-02T05:19:56.493Z</time></trkpt><trkpt lat="41.0280617" lon="14.3526883"><ele>38.0</ele><time>2026-05-02T05:19:57.493Z</time></trkpt><trkpt lat="41.0282233" lon="14.3523633"><ele>38.0</ele><time>2026-05-02T05:19:58.493Z</time></trkpt><trkpt lat="41.0283933" lon="14.3520433"><ele>40.0</ele><time>2026-05-02T05:19:59.493Z</time></trkpt><trkpt lat="41.02855" lon="14.3517183"><ele>42.0</ele><time>2026-05-02T05:20:00.493Z</time></trkpt><trkpt lat="41.0287067" lon="14.3513817"><ele>41.5</ele><time>2026-05-02T05:20:01.494Z</time></trkpt><trkpt lat="41.0288667" lon="14.351045"><ele>41.0</ele><time>2026-05-02T05:20:02.493Z</time></trkpt><trkpt lat="41.0290183" lon="14.3507117"><ele>41.5</ele><time>2026-05-02T05:20:03.494Z</time></trkpt><trkpt lat="41.02917" lon="14.3503783"><ele>42.0</ele><time>2026-05-02T05:20:04.493Z</time></trkpt><trkpt lat="41.0293167" lon="14.3500333"><ele>40.5</ele><time>2026-05-02T05:20:05.493Z</time></trkpt><trkpt lat="41.0294583" lon="14.3496833"><ele>39.0</ele><time>2026-05-02T05:20:06.493Z</time></trkpt><trkpt lat="41.0296033" lon="14.3493367"><ele>39.0</ele><time>2026-05-02T05:20:07.493Z</time></trkpt><trkpt lat="41.0297417" lon="14.348985"><ele>39.0</ele><time>2026-05-02T05:20:08.493Z</time></trkpt><trkpt lat="41.02988" lon="14.348625"><ele>39.5</ele><time>2026-05-02T05:20:09.493Z</time></trkpt><trkpt lat="41.0300167" lon="14.3482667"><ele>40.0</ele><time>2026-05-02T05:20:10.493Z</time></trkpt><trkpt lat="41.03015" lon="14.347905"><ele>40.0</ele><time>2026-05-02T05:20:11.493Z</time></trkpt><trkpt lat="41.0302767" lon="14.347545"><ele>40.0</ele><time>2026-05-02T05:20:12.493Z</time></trkpt><trkpt lat="41.030405" lon="14.347185"><ele>40.0</ele><time>2026-05-02T05:20:13.493Z</time></trkpt><trkpt lat="41.0305283" lon="14.3468233"><ele>40.0</ele><time>2026-05-02T05:20:14.493Z</time></trkpt><trkpt lat="41.0306417" lon="14.3464583"><ele>40.0</ele><time>2026-05-02T05:20:15.493Z</time></trkpt><trkpt lat="41.0307617" lon="14.3460867"><ele>40.0</ele><time>2026-05-02T05:20:16.493Z</time></trkpt><trkpt lat="41.0308733" lon="14.345715"><ele>41.5</ele><time>2026-05-02T05:20:17.493Z</time></trkpt><trkpt lat="41.0309833" lon="14.3453433"><ele>43.0</ele><time>2026-05-02T05:20:18.493Z</time></trkpt><trkpt lat="41.0310883" lon="14.3449717"><ele>43.0</ele><time>2026-05-02T05:20:19.493Z</time></trkpt><trkpt lat="41.0311917" lon="14.3446033"><ele>43.0</ele><time>2026-05-02T05:20:20.493Z</time></trkpt><trkpt lat="41.03129" lon="14.3442217"><ele>42.5</ele><time>2026-05-02T05:20:21.493Z</time></trkpt><trkpt lat="41.0313917" lon="14.3438433"><ele>42.0</ele><time>2026-05-02T05:20:22.493Z</time></trkpt><trkpt lat="41.0314883" lon="14.343465"><ele>42.0</ele><time>2026-05-02T05:20:23.493Z</time></trkpt><trkpt lat="41.031585" lon="14.3430833"><ele>42.0</ele><time>2026-05-02T05:20:24.493Z</time></trkpt><trkpt lat="41.0316883" lon="14.3427067"><ele>43.5</ele><time>2026-05-02T05:20:25.493Z</time></trkpt><trkpt lat="41.0317833" lon="14.3423317"><ele>45.0</ele><time>2026-05-02T05:20:26.493Z</time></trkpt><trkpt lat="41.0318833" lon="14.3419517"><ele>45.5</ele><time>2026-05-02T05:20:27.493Z</time></trkpt><trkpt lat="41.031985" lon="14.3415683"><ele>46.0</ele><time>2026-05-02T05:20:28.493Z</time></trkpt><trkpt lat="41.0320783" lon="14.34119"><ele>45.0</ele><time>2026-05-02T05:20:29.493Z</time></trkpt><trkpt lat="41.0321733" lon="14.3408133"><ele>44.0</ele><time>2026-05-02T05:20:30.493Z</time></trkpt><trkpt lat="41.032265" lon="14.3404317"><ele>42.5</ele><time>2026-05-02T05:20:31.493Z</time></trkpt><trkpt lat="41.032365" lon="14.34005"><ele>41.0</ele><time>2026-05-02T05:20:32.493Z</time></trkpt><trkpt lat="41.032465" lon="14.3396717"><ele>42.0</ele><time>2026-05-02T05:20:33.493Z</time></trkpt><trkpt lat="41.0325683" lon="14.3392883"><ele>43.0</ele><time>2026-05-02T05:20:34.493Z</time></trkpt><trkpt lat="41.03267" lon="14.338905"><ele>43.5</ele><time>2026-05-02T05:20:35.493Z</time></trkpt><trkpt lat="41.0327667" lon="14.3385267"><ele>44.0</ele><time>2026-05-02T05:20:36.493Z</time></trkpt><trkpt lat="41.0328667" lon="14.3381467"><ele>43.0</ele><time>2026-05-02T05:20:37.493Z</time></trkpt><trkpt lat="41.0329633" lon="14.3377717"><ele>42.0</ele><time>2026-05-02T05:20:38.493Z</time></trkpt><trkpt lat="41.0330567" lon="14.3374"><ele>40.5</ele><time>2026-05-02T05:20:39.493Z</time></trkpt><trkpt lat="41.0331583" lon="14.337015"><ele>39.0</ele><time>2026-05-02T05:20:40.493Z</time></trkpt><trkpt lat="41.0332567" lon="14.33664"><ele>40.5</ele><time>2026-05-02T05:20:41.493Z</time></trkpt><trkpt lat="41.03335" lon="14.3362667"><ele>42.0</ele><time>2026-05-02T05:20:42.493Z</time></trkpt><trkpt lat="41.033445" lon="14.3358883"><ele>41.5</ele><time>2026-05-02T05:20:43.494Z</time></trkpt><trkpt lat="41.033545" lon="14.335515"><ele>41.0</ele><time>2026-05-02T05:20:44.493Z</time></trkpt><trkpt lat="41.0336483" lon="14.3351317"><ele>41.0</ele><time>2026-05-02T05:20:45.493Z</time></trkpt><trkpt lat="41.0337367" lon="14.3347567"><ele>41.0</ele><time>2026-05-02T05:20:46.493Z</time></trkpt><trkpt lat="41.03384" lon="14.334375"><ele>39.5</ele><time>2026-05-02T05:20:47.493Z</time></trkpt><trkpt lat="41.0339417" lon="14.3339933"><ele>38.0</ele><time>2026-05-02T05:20:48.493Z</time></trkpt><trkpt lat="41.0340417" lon="14.3336133"><ele>38.5</ele><time>2026-05-02T05:20:49.493Z</time></trkpt><trkpt lat="41.034145" lon="14.333235"><ele>39.0</ele><time>2026-05-02T05:20:50.493Z</time></trkpt><trkpt lat="41.0342433" lon="14.3328467"><ele>39.0</ele><time>2026-05-02T05:20:51.493Z</time></trkpt><trkpt lat="41.0343433" lon="14.3324583"><ele>39.0</ele><time>2026-05-02T05:20:52.493Z</time></trkpt><trkpt lat="41.0344383" lon="14.3320767"><ele>37.5</ele><time>2026-05-02T05:20:53.493Z</time></trkpt><trkpt lat="41.03454" lon="14.3316883"><ele>36.0</ele><time>2026-05-02T05:20:54.493Z</time></trkpt><trkpt lat="41.0346317" lon="14.331315"><ele>36.0</ele><time>2026-05-02T05:20:55.493Z</time></trkpt><trkpt lat="41.0347283" lon="14.3309383"><ele>36.0</ele><time>2026-05-02T05:20:56.494Z</time></trkpt><trkpt lat="41.03483" lon="14.330565"><ele>36.0</ele><time>2026-05-02T05:20:57.493Z</time></trkpt><trkpt lat="41.03493" lon="14.3301917"><ele>36.0</ele><time>2026-05-02T05:20:58.493Z</time></trkpt><trkpt lat="41.0350283" lon="14.3298267"><ele>38.0</ele><time>2026-05-02T05:20:59.493Z</time></trkpt><trkpt lat="41.0351317" lon="14.3294683"><ele>40.0</ele><time>2026-05-02T05:21:00.493Z</time></trkpt><trkpt lat="41.0352233" lon="14.32912"><ele>38.5</ele><time>2026-05-02T05:21:01.493Z</time></trkpt><trkpt lat="41.035315" lon="14.3287833"><ele>37.0</ele><time>2026-05-02T05:21:02.493Z</time></trkpt><trkpt lat="41.035405" lon="14.3284533"><ele>37.0</ele><time>2026-05-02T05:21:03.493Z</time></trkpt><trkpt lat="41.0354917" lon="14.3281283"><ele>37.0</ele><time>2026-05-02T05:21:04.493Z</time></trkpt><trkpt lat="41.0355783" lon="14.3278133"><ele>36.5</ele><time>2026-05-02T05:21:05.493Z</time></trkpt><trkpt lat="41.035655" lon="14.3275033"><ele>36.0</ele><time>2026-05-02T05:21:06.493Z</time></trkpt><trkpt lat="41.0357333" lon="14.3272"><ele>38.0</ele><time>2026-05-02T05:21:07.493Z</time></trkpt><trkpt lat="41.0358117" lon="14.3269033"><ele>40.0</ele><time>2026-05-02T05:21:08.493Z</time></trkpt><trkpt lat="41.035895" lon="14.3266117"><ele>39.66666666666667</ele><time>2026-05-02T05:21:09.493Z</time></trkpt><trkpt lat="41.0359683" lon="14.3263267"><ele>39.333333333333336</ele><time>2026-05-02T05:21:10.493Z</time></trkpt><trkpt lat="41.0360467" lon="14.3260583"><ele>39.0</ele><time>2026-05-02T05:21:11.493Z</time></trkpt><trkpt lat="41.0361217" lon="14.3258"><ele>38.666666666666664</ele><time>2026-05-02T05:21:12.493Z</time></trkpt><trkpt lat="41.0361833" lon="14.3255417"><ele>38.33333333333333</ele><time>2026-05-02T05:21:13.493Z</time></trkpt><trkpt lat="41.0362467" lon="14.3252883"><ele>38.0</ele><time>2026-05-02T05:21:14.493Z</time></trkpt><trkpt lat="41.0363183" lon="14.32504"><ele>38.0</ele><time>2026-05-02T05:21:15.493Z</time></trkpt><trkpt lat="41.0363917" lon="14.3247983"><ele>38.0</ele><time>2026-05-02T05:21:16.493Z</time></trkpt><trkpt lat="41.0364717" lon="14.324565"><ele>38.0</ele><time>2026-05-02T05:21:17.493Z</time></trkpt><trkpt lat="41.036555" lon="14.32435"><ele>38.33333333333333</ele><time>2026-05-02T05:21:18.493Z</time></trkpt><trkpt lat="41.0366433" lon="14.32415"><ele>38.666666666666664</ele><time>2026-05-02T05:21:19.493Z</time></trkpt><trkpt lat="41.0367433" lon="14.323965"><ele>39.0</ele><time>2026-05-02T05:21:20.493Z</time></trkpt><trkpt lat="41.0368533" lon="14.3237867"><ele>39.0</ele><time>2026-05-02T05:21:21.493Z</time></trkpt><trkpt lat="41.0369767" lon="14.3236267"><ele>39.0</ele><time>2026-05-02T05:21:22.493Z</time></trkpt><trkpt lat="41.0371083" lon="14.3234767"><ele>39.0</ele><time>2026-05-02T05:21:23.493Z</time></trkpt><trkpt lat="41.0372483" lon="14.3233383"><ele>39.0</ele><time>2026-05-02T05:21:24.493Z</time></trkpt><trkpt lat="41.0373983" lon="14.323215"><ele>39.0</ele><time>2026-05-02T05:21:25.494Z</time></trkpt><trkpt lat="41.0375517" lon="14.3231083"><ele>39.0</ele><time>2026-05-02T05:21:26.493Z</time></trkpt><trkpt lat="41.0377183" lon="14.32301"><ele>38.333333333333336</ele><time>2026-05-02T05:21:27.493Z</time></trkpt><trkpt lat="41.0378867" lon="14.3229333"><ele>37.66666666666667</ele><time>2026-05-02T05:21:28.494Z</time></trkpt><trkpt lat="41.038065" lon="14.3228683"><ele>37.0</ele><time>2026-05-02T05:21:29.493Z</time></trkpt><trkpt lat="41.0382567" lon="14.32282"><ele>37.0</ele><time>2026-05-02T05:21:30.493Z</time></trkpt><trkpt lat="41.0384533" lon="14.3227783"><ele>37.0</ele><time>2026-05-02T05:21:31.493Z</time></trkpt><trkpt lat="41.038655" lon="14.3227383"><ele>37.0</ele><time>2026-05-02T05:21:32.494Z</time></trkpt><trkpt lat="41.0388617" lon="14.322705"><ele>37.0</ele><time>2026-05-02T05:21:33.493Z</time></trkpt><trkpt lat="41.0390683" lon="14.32268"><ele>37.0</ele><time>2026-05-02T05:21:34.493Z</time></trkpt><trkpt lat="41.0392733" lon="14.32267"><ele>37.0</ele><time>2026-05-02T05:21:35.493Z</time></trkpt><trkpt lat="41.0394817" lon="14.3226583"><ele>37.66666666666667</ele><time>2026-05-02T05:21:36.493Z</time></trkpt><trkpt lat="41.039695" lon="14.3226633"><ele>38.333333333333336</ele><time>2026-05-02T05:21:37.493Z</time></trkpt><trkpt lat="41.0398983" lon="14.32266"><ele>39.0</ele><time>2026-05-02T05:21:38.493Z</time></trkpt><trkpt lat="41.040105" lon="14.3226583"><ele>39.0</ele><time>2026-05-02T05:21:39.493Z</time></trkpt><trkpt lat="41.0403033" lon="14.3226567"><ele>39.0</ele><time>2026-05-02T05:21:40.493Z</time></trkpt><trkpt lat="41.0405167" lon="14.3226533"><ele>39.0</ele><time>2026-05-02T05:21:41.493Z</time></trkpt><trkpt lat="41.0407317" lon="14.32265"><ele>38.0</ele><time>2026-05-02T05:21:42.493Z</time></trkpt><trkpt lat="41.0409517" lon="14.32265"><ele>37.0</ele><time>2026-05-02T05:21:43.493Z</time></trkpt><trkpt lat="41.0411767" lon="14.3226467"><ele>36.0</ele><time>2026-05-02T05:21:44.493Z</time></trkpt><trkpt lat="41.0413983" lon="14.3226417"><ele>37.0</ele><time>2026-05-02T05:21:45.493Z</time></trkpt><trkpt lat="41.041645" lon="14.322655"><ele>38.0</ele><time>2026-05-02T05:21:46.493Z</time></trkpt><trkpt lat="41.041875" lon="14.3226567"><ele>38.0</ele><time>2026-05-02T05:21:47.493Z</time></trkpt><trkpt lat="41.0420883" lon="14.3226583"><ele>38.0</ele><time>2026-05-02T05:21:48.493Z</time></trkpt><trkpt lat="41.0422983" lon="14.3226533"><ele>38.0</ele><time>2026-05-02T05:21:49.494Z</time></trkpt><trkpt lat="41.0425183" lon="14.322655"><ele>38.666666666666664</ele><time>2026-05-02T05:21:50.494Z</time></trkpt><trkpt lat="41.042745" lon="14.322655"><ele>39.333333333333336</ele><time>2026-05-02T05:21:51.493Z</time></trkpt><trkpt lat="41.0429667" lon="14.3226583"><ele>40.0</ele><time>2026-05-02T05:21:52.493Z</time></trkpt><trkpt lat="41.0431883" lon="14.32266"><ele>39.0</ele><time>2026-05-02T05:21:53.493Z</time></trkpt><trkpt lat="41.0434167" lon="14.3226633"><ele>38.0</ele><time>2026-05-02T05:21:54.493Z</time></trkpt><trkpt lat="41.0436433" lon="14.3226583"><ele>38.0</ele><time>2026-05-02T05:21:55.493Z</time></trkpt><trkpt lat="41.0438683" lon="14.3226633"><ele>38.0</ele><time>2026-05-02T05:21:56.493Z</time></trkpt><trkpt lat="41.0440917" lon="14.3226617"><ele>38.0</ele><time>2026-05-02T05:21:57.493Z</time></trkpt><trkpt lat="41.044315" lon="14.3226667"><ele>37.666666666666664</ele><time>2026-05-02T05:21:58.493Z</time></trkpt><trkpt lat="41.04454" lon="14.3226767"><ele>37.333333333333336</ele><time>2026-05-02T05:21:59.493Z</time></trkpt><trkpt lat="41.0447633" lon="14.322685"><ele>37.0</ele><time>2026-05-02T05:22:00.494Z</time></trkpt><trkpt lat="41.0449817" lon="14.322685"><ele>37.0</ele><time>2026-05-02T05:22:01.493Z</time></trkpt><trkpt lat="41.0451967" lon="14.3226867"><ele>37.0</ele><time>2026-05-02T05:22:02.493Z</time></trkpt><trkpt lat="41.0454083" lon="14.3226933"><ele>37.0</ele><time>2026-05-02T05:22:03.493Z</time></trkpt><trkpt lat="41.0456183" lon="14.3226967"><ele>37.66666666666667</ele><time>2026-05-02T05:22:04.493Z</time></trkpt><trkpt lat="41.0458233" lon="14.3226983"><ele>38.333333333333336</ele><time>2026-05-02T05:22:05.493Z</time></trkpt><trkpt lat="41.0460183" lon="14.3227033"><ele>39.0</ele><time>2026-05-02T05:22:06.493Z</time></trkpt><trkpt lat="41.0462183" lon="14.3227133"><ele>39.0</ele><time>2026-05-02T05:22:07.494Z</time></trkpt><trkpt lat="41.0464083" lon="14.3227183"><ele>39.0</ele><time>2026-05-02T05:22:08.493Z</time></trkpt><trkpt lat="41.046605" lon="14.3227183"><ele>39.0</ele><time>2026-05-02T05:22:09.493Z</time></trkpt><trkpt lat="41.04679" lon="14.3227267"><ele>39.666666666666664</ele><time>2026-05-02T05:22:10.493Z</time></trkpt><trkpt lat="41.0469633" lon="14.32274"><ele>40.33333333333333</ele><time>2026-05-02T05:22:11.493Z</time></trkpt><trkpt lat="41.0471267" lon="14.3227583"><ele>41.0</ele><time>2026-05-02T05:22:12.493Z</time></trkpt><trkpt lat="41.0472833" lon="14.3227733"><ele>41.0</ele><time>2026-05-02T05:22:13.493Z</time></trkpt><trkpt lat="41.04742" lon="14.3227833"><ele>41.0</ele><time>2026-05-02T05:22:14.493Z</time></trkpt><trkpt lat="41.0475517" lon="14.3227817"><ele>41.0</ele><time>2026-05-02T05:22:15.493Z</time></trkpt><trkpt lat="41.0476783" lon="14.3227833"><ele>41.0</ele><time>2026-05-02T05:22:16.493Z</time></trkpt><trkpt lat="41.0477867" lon="14.3227833"><ele>41.33333333333333</ele><time>2026-05-02T05:22:17.494Z</time></trkpt><trkpt lat="41.047885" lon="14.3227917"><ele>41.666666666666664</ele><time>2026-05-02T05:22:18.493Z</time></trkpt><trkpt lat="41.0479767" lon="14.322805"><ele>42.0</ele><time>2026-05-02T05:22:19.493Z</time></trkpt><trkpt lat="41.0480567" lon="14.32281"><ele>42.333333333333336</ele><time>2026-05-02T05:22:20.493Z</time></trkpt><trkpt lat="41.0481233" lon="14.32282"><ele>42.66666666666667</ele><time>2026-05-02T05:22:21.493Z</time></trkpt><trkpt lat="41.04822" lon="14.3228783"><ele>43.0</ele><time>2026-05-02T05:22:23.493Z</time></trkpt><trkpt lat="41.0482767" lon="14.3229917"><ele>43.0</ele><time>2026-05-02T05:22:25.493Z</time></trkpt><trkpt lat="41.04832" lon="14.32306"><ele>43.0</ele><time>2026-05-02T05:22:27.493Z</time></trkpt><trkpt lat="41.0484167" lon="14.3230183"><ele>43.0</ele><time>2026-05-02T05:32:37.496Z</time></trkpt><trkpt lat="41.0485017" lon="14.3229933"><ele>43.0</ele><time>2026-05-02T05:32:39.495Z</time></trkpt><trkpt lat="41.0486017" lon="14.3229783"><ele>43.0</ele><time>2026-05-02T05:32:41.495Z</time></trkpt><trkpt lat="41.0487233" lon="14.3229617"><ele>43.00000000000001</ele><time>2026-05-02T05:32:43.495Z</time></trkpt><trkpt lat="41.0487933" lon="14.3229517"><ele>43.0</ele><time>2026-05-02T05:32:44.495Z</time></trkpt><trkpt lat="41.0488617" lon="14.3229367"><ele>43.0</ele><time>2026-05-02T05:32:45.495Z</time></trkpt><trkpt lat="41.04893" lon="14.322925"><ele>43.0</ele><time>2026-05-02T05:32:46.495Z</time></trkpt><trkpt lat="41.0489983" lon="14.3229133"><ele>43.0</ele><time>2026-05-02T05:32:47.496Z</time></trkpt><trkpt lat="41.0490733" lon="14.322895"><ele>43.00000000000001</ele><time>2026-05-02T05:32:48.495Z</time></trkpt><trkpt lat="41.0491517" lon="14.32287"><ele>43.0</ele><time>2026-05-02T05:32:49.495Z</time></trkpt><trkpt lat="41.0492283" lon="14.3228333"><ele>42.833333333333336</ele><time>2026-05-02T05:32:50.495Z</time></trkpt><trkpt lat="41.0493033" lon="14.322795"><ele>42.66666666666667</ele><time>2026-05-02T05:32:51.495Z</time></trkpt><trkpt lat="41.0493733" lon="14.3227567"><ele>42.5</ele><time>2026-05-02T05:32:52.495Z</time></trkpt><trkpt lat="41.049445" lon="14.32272"><ele>42.333333333333336</ele><time>2026-05-02T05:32:53.495Z</time></trkpt><trkpt lat="41.0495267" lon="14.32269"><ele>42.166666666666664</ele><time>2026-05-02T05:32:54.496Z</time></trkpt><trkpt lat="41.0496117" lon="14.3226667"><ele>42.0</ele><time>2026-05-02T05:32:55.495Z</time></trkpt><trkpt lat="41.0497033" lon="14.3226367"><ele>42.0</ele><time>2026-05-02T05:32:56.495Z</time></trkpt><trkpt lat="41.049795" lon="14.3226083"><ele>42.0</ele><time>2026-05-02T05:32:57.495Z</time></trkpt><trkpt lat="41.0498833" lon="14.3225667"><ele>42.0</ele><time>2026-05-02T05:32:58.495Z</time></trkpt><trkpt lat="41.0499683" lon="14.322525"><ele>42.0</ele><time>2026-05-02T05:32:59.495Z</time></trkpt><trkpt lat="41.0500483" lon="14.3224767"><ele>42.0</ele><time>2026-05-02T05:33:00.495Z</time></trkpt><trkpt lat="41.0501283" lon="14.3224267"><ele>42.400000000000006</ele><time>2026-05-02T05:33:01.495Z</time></trkpt><trkpt lat="41.05022" lon="14.32238"><ele>42.800000000000004</ele><time>2026-05-02T05:33:02.495Z</time></trkpt><trkpt lat="41.0503067" lon="14.322335"><ele>43.2</ele><time>2026-05-02T05:33:03.495Z</time></trkpt><trkpt lat="41.0503983" lon="14.3222833"><ele>43.6</ele><time>2026-05-02T05:33:04.495Z</time></trkpt><trkpt lat="41.05049" lon="14.32222"><ele>44.0</ele><time>2026-05-02T05:33:05.495Z</time></trkpt><trkpt lat="41.050585" lon="14.3221483"><ele>44.0</ele><time>2026-05-02T05:33:06.495Z</time></trkpt><trkpt lat="41.05068" lon="14.3220683"><ele>44.0</ele><time>2026-05-02T05:33:07.495Z</time></trkpt><trkpt lat="41.0507833" lon="14.3219967"><ele>44.0</ele><time>2026-05-02T05:33:08.495Z</time></trkpt><trkpt lat="41.050885" lon="14.3219183"><ele>44.0</ele><time>2026-05-02T05:33:09.495Z</time></trkpt><trkpt lat="41.0509867" lon="14.32184"><ele>44.5</ele><time>2026-05-02T05:33:10.495Z</time></trkpt><trkpt lat="41.0510883" lon="14.32176"><ele>45.0</ele><time>2026-05-02T05:33:11.495Z</time></trkpt><trkpt lat="41.0512017" lon="14.3216767"><ele>45.5</ele><time>2026-05-02T05:33:12.495Z</time></trkpt><trkpt lat="41.0513183" lon="14.321595"><ele>46.0</ele><time>2026-05-02T05:33:13.495Z</time></trkpt><trkpt lat="41.0514433" lon="14.3215117"><ele>46.0</ele><time>2026-05-02T05:33:14.495Z</time></trkpt><trkpt lat="41.0515717" lon="14.3214267"><ele>46.0</ele><time>2026-05-02T05:33:15.495Z</time></trkpt><trkpt lat="41.0517083" lon="14.321335"><ele>46.0</ele><time>2026-05-02T05:33:16.495Z</time></trkpt><trkpt lat="41.0518467" lon="14.3212317"><ele>45.66666666666667</ele><time>2026-05-02T05:33:17.495Z</time></trkpt><trkpt lat="41.05199" lon="14.321125"><ele>45.333333333333336</ele><time>2026-05-02T05:33:18.495Z</time></trkpt><trkpt lat="41.0521317" lon="14.321"><ele>45.0</ele><time>2026-05-02T05:33:19.495Z</time></trkpt><trkpt lat="41.0522817" lon="14.3208783"><ele>45.0</ele><time>2026-05-02T05:33:20.495Z</time></trkpt><trkpt lat="41.0524283" lon="14.320745"><ele>45.0</ele><time>2026-05-02T05:33:21.495Z</time></trkpt><trkpt lat="41.0525733" lon="14.3206167"><ele>45.0</ele><time>2026-05-02T05:33:22.495Z</time></trkpt><trkpt lat="41.0527133" lon="14.32048"><ele>44.666666666666664</ele><time>2026-05-02T05:33:23.495Z</time></trkpt><trkpt lat="41.0528567" lon="14.320335"><ele>44.33333333333333</ele><time>2026-05-02T05:33:24.495Z</time></trkpt><trkpt lat="41.053005" lon="14.3201817"><ele>44.0</ele><time>2026-05-02T05:33:25.495Z</time></trkpt><trkpt lat="41.0531483" lon="14.32002"><ele>44.0</ele><time>2026-05-02T05:33:26.495Z</time></trkpt><trkpt lat="41.0532967" lon="14.3198667"><ele>44.0</ele><time>2026-05-02T05:33:27.495Z</time></trkpt><trkpt lat="41.0534517" lon="14.3197117"><ele>44.0</ele><time>2026-05-02T05:33:28.495Z</time></trkpt><trkpt lat="41.0536033" lon="14.3195483"><ele>44.0</ele><time>2026-05-02T05:33:29.495Z</time></trkpt><trkpt lat="41.0537567" lon="14.31939"><ele>44.0</ele><time>2026-05-02T05:33:30.495Z</time></trkpt><trkpt lat="41.0539183" lon="14.3192283"><ele>44.0</ele><time>2026-05-02T05:33:31.496Z</time></trkpt><trkpt lat="41.0540733" lon="14.31907"><ele>44.33333333333333</ele><time>2026-05-02T05:33:32.495Z</time></trkpt><trkpt lat="41.05422" lon="14.3189117"><ele>44.666666666666664</ele><time>2026-05-02T05:33:33.495Z</time></trkpt><trkpt lat="41.0543717" lon="14.31875"><ele>45.0</ele><time>2026-05-02T05:33:34.495Z</time></trkpt><trkpt lat="41.0545133" lon="14.3185783"><ele>45.0</ele><time>2026-05-02T05:33:35.495Z</time></trkpt><trkpt lat="41.0546617" lon="14.31841"><ele>45.0</ele><time>2026-05-02T05:33:36.495Z</time></trkpt><trkpt lat="41.05481" lon="14.318245"><ele>45.0</ele><time>2026-05-02T05:33:37.495Z</time></trkpt><trkpt lat="41.0549617" lon="14.3180783"><ele>45.333333333333336</ele><time>2026-05-02T05:33:38.495Z</time></trkpt><trkpt lat="41.055115" lon="14.31792"><ele>45.66666666666667</ele><time>2026-05-02T05:33:39.495Z</time></trkpt><trkpt lat="41.055265" lon="14.31776"><ele>46.0</ele><time>2026-05-02T05:33:40.495Z</time></trkpt><trkpt lat="41.05541" lon="14.3175933"><ele>46.0</ele><time>2026-05-02T05:33:41.495Z</time></trkpt><trkpt lat="41.0555583" lon="14.3174317"><ele>46.0</ele><time>2026-05-02T05:33:42.495Z</time></trkpt><trkpt lat="41.0557017" lon="14.317265"><ele>46.0</ele><time>2026-05-02T05:33:43.496Z</time></trkpt><trkpt lat="41.0558567" lon="14.3171067"><ele>46.0</ele><time>2026-05-02T05:33:44.495Z</time></trkpt><trkpt lat="41.0560133" lon="14.3169483"><ele>46.0</ele><time>2026-05-02T05:33:45.495Z</time></trkpt><trkpt lat="41.0561667" lon="14.3167833"><ele>46.0</ele><time>2026-05-02T05:33:46.495Z</time></trkpt><trkpt lat="41.05632" lon="14.3166167"><ele>46.0</ele><time>2026-05-02T05:33:47.495Z</time></trkpt><trkpt lat="41.0564733" lon="14.3164483"><ele>46.0</ele><time>2026-05-02T05:33:48.495Z</time></trkpt><trkpt lat="41.05662" lon="14.3162817"><ele>46.0</ele><time>2026-05-02T05:33:49.495Z</time></trkpt><trkpt lat="41.0567717" lon="14.3161167"><ele>46.66666666666667</ele><time>2026-05-02T05:33:50.495Z</time></trkpt><trkpt lat="41.05693" lon="14.3159533"><ele>47.333333333333336</ele><time>2026-05-02T05:33:51.495Z</time></trkpt><trkpt lat="41.0570867" lon="14.3157883"><ele>48.0</ele><time>2026-05-02T05:33:52.495Z</time></trkpt><trkpt lat="41.0572483" lon="14.315625"><ele>48.33333333333333</ele><time>2026-05-02T05:33:53.496Z</time></trkpt><trkpt lat="41.0574083" lon="14.3154567"><ele>48.666666666666664</ele><time>2026-05-02T05:33:54.495Z</time></trkpt><trkpt lat="41.05756" lon="14.3152933"><ele>49.0</ele><time>2026-05-02T05:33:55.496Z</time></trkpt><trkpt lat="41.05771" lon="14.3151267"><ele>49.33333333333333</ele><time>2026-05-02T05:33:56.495Z</time></trkpt><trkpt lat="41.05786" lon="14.3149583"><ele>49.66666666666667</ele><time>2026-05-02T05:33:57.495Z</time></trkpt><trkpt lat="41.0580083" lon="14.3147917"><ele>50.0</ele><time>2026-05-02T05:33:58.495Z</time></trkpt><trkpt lat="41.05816" lon="14.3146283"><ele>50.333333333333336</ele><time>2026-05-02T05:33:59.495Z</time></trkpt><trkpt lat="41.05832" lon="14.3144633"><ele>50.66666666666667</ele><time>2026-05-02T05:34:00.495Z</time></trkpt><trkpt lat="41.0584783" lon="14.3142883"><ele>51.0</ele><time>2026-05-02T05:34:01.495Z</time></trkpt><trkpt lat="41.0586383" lon="14.314115"><ele>51.0</ele><time>2026-05-02T05:34:02.495Z</time></trkpt><trkpt lat="41.0587983" lon="14.31394"><ele>51.0</ele><time>2026-05-02T05:34:03.495Z</time></trkpt><trkpt lat="41.058955" lon="14.3137667"><ele>51.0</ele><time>2026-05-02T05:34:04.495Z</time></trkpt><trkpt lat="41.0591167" lon="14.3135967"><ele>51.66666666666667</ele><time>2026-05-02T05:34:05.495Z</time></trkpt><trkpt lat="41.059275" lon="14.3134217"><ele>52.333333333333336</ele><time>2026-05-02T05:34:06.495Z</time></trkpt><trkpt lat="41.0594383" lon="14.3132467"><ele>53.0</ele><time>2026-05-02T05:34:07.495Z</time></trkpt><trkpt lat="41.0595983" lon="14.3130783"><ele>52.66666666666667</ele><time>2026-05-02T05:34:08.495Z</time></trkpt><trkpt lat="41.0597583" lon="14.3129067"><ele>52.33333333333333</ele><time>2026-05-02T05:34:09.495Z</time></trkpt><trkpt lat="41.059915" lon="14.3127317"><ele>52.0</ele><time>2026-05-02T05:34:10.495Z</time></trkpt><trkpt lat="41.0600783" lon="14.312565"><ele>52.33333333333333</ele><time>2026-05-02T05:34:11.495Z</time></trkpt><trkpt lat="41.0602383" lon="14.3124017"><ele>52.66666666666667</ele><time>2026-05-02T05:34:12.495Z</time></trkpt><trkpt lat="41.060395" lon="14.3122433"><ele>53.0</ele><time>2026-05-02T05:34:13.496Z</time></trkpt><trkpt lat="41.0605533" lon="14.3120833"><ele>53.0</ele><time>2026-05-02T05:34:14.495Z</time></trkpt><trkpt lat="41.06071" lon="14.3119233"><ele>53.0</ele><time>2026-05-02T05:34:15.495Z</time></trkpt><trkpt lat="41.06087" lon="14.311765"><ele>53.0</ele><time>2026-05-02T05:34:16.495Z</time></trkpt><trkpt lat="41.0610333" lon="14.31161"><ele>53.333333333333336</ele><time>2026-05-02T05:34:17.495Z</time></trkpt><trkpt lat="41.0612" lon="14.311455"><ele>53.66666666666667</ele><time>2026-05-02T05:34:18.495Z</time></trkpt><trkpt lat="41.0613633" lon="14.3113"><ele>54.0</ele><time>2026-05-02T05:34:19.495Z</time></trkpt><trkpt lat="41.0615283" lon="14.31115"><ele>54.66666666666667</ele><time>2026-05-02T05:34:20.495Z</time></trkpt><trkpt lat="41.061695" lon="14.311005"><ele>55.333333333333336</ele><time>2026-05-02T05:34:21.495Z</time></trkpt><trkpt lat="41.06187" lon="14.310855"><ele>56.0</ele><time>2026-05-02T05:34:22.495Z</time></trkpt><trkpt lat="41.0620433" lon="14.3106983"><ele>56.333333333333336</ele><time>2026-05-02T05:34:23.495Z</time></trkpt><trkpt lat="41.0622217" lon="14.31055"><ele>56.66666666666667</ele><time>2026-05-02T05:34:24.495Z</time></trkpt><trkpt lat="41.0624" lon="14.310395"><ele>57.0</ele><time>2026-05-02T05:34:25.496Z</time></trkpt><trkpt lat="41.062585" lon="14.31024"><ele>57.0</ele><time>2026-05-02T05:34:26.495Z</time></trkpt><trkpt lat="41.0627683" lon="14.310095"><ele>57.0</ele><time>2026-05-02T05:34:27.495Z</time></trkpt><trkpt lat="41.0629533" lon="14.3099417"><ele>57.0</ele><time>2026-05-02T05:34:28.495Z</time></trkpt><trkpt lat="41.063135" lon="14.309795"><ele>57.0</ele><time>2026-05-02T05:34:29.495Z</time></trkpt><trkpt lat="41.0633233" lon="14.3096467"><ele>57.0</ele><time>2026-05-02T05:34:30.495Z</time></trkpt><trkpt lat="41.0635117" lon="14.3095083"><ele>57.0</ele><time>2026-05-02T05:34:31.495Z</time></trkpt><trkpt lat="41.0637033" lon="14.3093683"><ele>57.0</ele><time>2026-05-02T05:34:32.495Z</time></trkpt><trkpt lat="41.0638917" lon="14.3092267"><ele>57.0</ele><time>2026-05-02T05:34:33.495Z</time></trkpt><trkpt lat="41.0640783" lon="14.309085"><ele>57.0</ele><time>2026-05-02T05:34:34.495Z</time></trkpt><trkpt lat="41.0642633" lon="14.3089433"><ele>56.66666666666667</ele><time>2026-05-02T05:34:35.495Z</time></trkpt><trkpt lat="41.06445" lon="14.3087983"><ele>56.333333333333336</ele><time>2026-05-02T05:34:36.495Z</time></trkpt><trkpt lat="41.0646383" lon="14.3086583"><ele>56.0</ele><time>2026-05-02T05:34:37.495Z</time></trkpt><trkpt lat="41.06483" lon="14.3085233"><ele>56.0</ele><time>2026-05-02T05:34:38.495Z</time></trkpt><trkpt lat="41.0650167" lon="14.3083867"><ele>56.0</ele><time>2026-05-02T05:34:39.495Z</time></trkpt><trkpt lat="41.06521" lon="14.3082467"><ele>56.0</ele><time>2026-05-02T05:34:40.495Z</time></trkpt><trkpt lat="41.0653967" lon="14.3081117"><ele>55.66666666666667</ele><time>2026-05-02T05:34:41.495Z</time></trkpt><trkpt lat="41.0655783" lon="14.3079683"><ele>55.33333333333333</ele><time>2026-05-02T05:34:42.495Z</time></trkpt><trkpt lat="41.06576" lon="14.307835"><ele>55.0</ele><time>2026-05-02T05:34:43.495Z</time></trkpt><trkpt lat="41.0659417" lon="14.3077"><ele>55.0</ele><time>2026-05-02T05:34:44.495Z</time></trkpt><trkpt lat="41.0661233" lon="14.3075683"><ele>55.0</ele><time>2026-05-02T05:34:45.495Z</time></trkpt><trkpt lat="41.0663017" lon="14.30743"><ele>55.0</ele><time>2026-05-02T05:34:46.495Z</time></trkpt><trkpt lat="41.066485" lon="14.30729"><ele>55.33333333333333</ele><time>2026-05-02T05:34:47.495Z</time></trkpt><trkpt lat="41.0666617" lon="14.3071533"><ele>55.66666666666667</ele><time>2026-05-02T05:34:48.495Z</time></trkpt><trkpt lat="41.06684" lon="14.307025"><ele>56.0</ele><time>2026-05-02T05:34:49.495Z</time></trkpt><trkpt lat="41.0670233" lon="14.3068967"><ele>56.0</ele><time>2026-05-02T05:34:50.495Z</time></trkpt><trkpt lat="41.0672033" lon="14.306765"><ele>56.0</ele><time>2026-05-02T05:34:51.495Z</time></trkpt><trkpt lat="41.0673817" lon="14.3066383"><ele>56.0</ele><time>2026-05-02T05:34:52.495Z</time></trkpt><trkpt lat="41.0675633" lon="14.3065133"><ele>55.66666666666667</ele><time>2026-05-02T05:34:53.495Z</time></trkpt><trkpt lat="41.0677433" lon="14.3063833"><ele>55.33333333333333</ele><time>2026-05-02T05:34:54.495Z</time></trkpt><trkpt lat="41.0679217" lon="14.3062583"><ele>55.0</ele><time>2026-05-02T05:34:55.495Z</time></trkpt><trkpt lat="41.0680983" lon="14.3061217"><ele>55.0</ele><time>2026-05-02T05:34:56.495Z</time></trkpt><trkpt lat="41.068275" lon="14.3059933"><ele>55.0</ele><time>2026-05-02T05:34:57.495Z</time></trkpt><trkpt lat="41.0684533" lon="14.305865"><ele>55.0</ele><time>2026-05-02T05:34:58.495Z</time></trkpt><trkpt lat="41.06863" lon="14.30573"><ele>55.0</ele><time>2026-05-02T05:34:59.496Z</time></trkpt><trkpt lat="41.06881" lon="14.3055983"><ele>55.0</ele><time>2026-05-02T05:35:00.495Z</time></trkpt><trkpt lat="41.068985" lon="14.3054683"><ele>55.0</ele><time>2026-05-02T05:35:01.495Z</time></trkpt><trkpt lat="41.06916" lon="14.3053383"><ele>55.0</ele><time>2026-05-02T05:35:02.495Z</time></trkpt><trkpt lat="41.069335" lon="14.3052033"><ele>55.0</ele><time>2026-05-02T05:35:03.495Z</time></trkpt><trkpt lat="41.0695117" lon="14.3050733"><ele>55.0</ele><time>2026-05-02T05:35:04.495Z</time></trkpt><trkpt lat="41.0696883" lon="14.3049367"><ele>55.0</ele><time>2026-05-02T05:35:05.495Z</time></trkpt><trkpt lat="41.06987" lon="14.3048017"><ele>55.0</ele><time>2026-05-02T05:35:06.495Z</time></trkpt><trkpt lat="41.0700483" lon="14.3046633"><ele>55.0</ele><time>2026-05-02T05:35:07.495Z</time></trkpt><trkpt lat="41.07023" lon="14.3045283"><ele>54.666666666666664</ele><time>2026-05-02T05:35:08.495Z</time></trkpt><trkpt lat="41.070405" lon="14.3043983"><ele>54.33333333333333</ele><time>2026-05-02T05:35:09.495Z</time></trkpt><trkpt lat="41.0705783" lon="14.3042617"><ele>54.0</ele><time>2026-05-02T05:35:10.495Z</time></trkpt><trkpt lat="41.07075" lon="14.30412"><ele>54.33333333333333</ele><time>2026-05-02T05:35:11.495Z</time></trkpt><trkpt lat="41.07092" lon="14.30398"><ele>54.666666666666664</ele><time>2026-05-02T05:35:12.495Z</time></trkpt><trkpt lat="41.0710867" lon="14.3038283"><ele>55.0</ele><time>2026-05-02T05:35:13.496Z</time></trkpt><trkpt lat="41.0712533" lon="14.3036733"><ele>54.33333333333333</ele><time>2026-05-02T05:35:14.495Z</time></trkpt><trkpt lat="41.0714217" lon="14.30352"><ele>53.66666666666667</ele><time>2026-05-02T05:35:15.495Z</time></trkpt><trkpt lat="41.07159" lon="14.3033583"><ele>53.0</ele><time>2026-05-02T05:35:16.495Z</time></trkpt><trkpt lat="41.07176" lon="14.3031983"><ele>53.333333333333336</ele><time>2026-05-02T05:35:17.495Z</time></trkpt><trkpt lat="41.0719233" lon="14.303035"><ele>53.66666666666667</ele><time>2026-05-02T05:35:18.495Z</time></trkpt><trkpt lat="41.072085" lon="14.3028667"><ele>54.0</ele><time>2026-05-02T05:35:19.495Z</time></trkpt><trkpt lat="41.07225" lon="14.302695"><ele>54.0</ele><time>2026-05-02T05:35:20.495Z</time></trkpt><trkpt lat="41.0724133" lon="14.3025267"><ele>54.0</ele><time>2026-05-02T05:35:21.495Z</time></trkpt><trkpt lat="41.0725717" lon="14.3023533"><ele>54.0</ele><time>2026-05-02T05:35:22.495Z</time></trkpt><trkpt lat="41.0727317" lon="14.3021867"><ele>53.0</ele><time>2026-05-02T05:35:23.495Z</time></trkpt><trkpt lat="41.0728917" lon="14.3020267"><ele>52.0</ele><time>2026-05-02T05:35:24.495Z</time></trkpt><trkpt lat="41.073055" lon="14.3018617"><ele>51.0</ele><time>2026-05-02T05:35:25.495Z</time></trkpt><trkpt lat="41.0732117" lon="14.3016983"><ele>51.33333333333333</ele><time>2026-05-02T05:35:26.495Z</time></trkpt><trkpt lat="41.07337" lon="14.3015317"><ele>51.666666666666664</ele><time>2026-05-02T05:35:27.495Z</time></trkpt><trkpt lat="41.0735317" lon="14.3013683"><ele>52.0</ele><time>2026-05-02T05:35:28.495Z</time></trkpt><trkpt lat="41.0736867" lon="14.3011933"><ele>52.0</ele><time>2026-05-02T05:35:29.495Z</time></trkpt><trkpt lat="41.0738483" lon="14.30102"><ele>52.0</ele><time>2026-05-02T05:35:30.495Z</time></trkpt><trkpt lat="41.07401" lon="14.30085"><ele>52.0</ele><time>2026-05-02T05:35:31.496Z</time></trkpt><trkpt lat="41.0741733" lon="14.3006833"><ele>51.33333333333333</ele><time>2026-05-02T05:35:32.495Z</time></trkpt><trkpt lat="41.074335" lon="14.3005117"><ele>50.66666666666667</ele><time>2026-05-02T05:35:33.495Z</time></trkpt><trkpt lat="41.0744933" lon="14.3003417"><ele>50.0</ele><time>2026-05-02T05:35:34.495Z</time></trkpt><trkpt lat="41.0746567" lon="14.3001683"><ele>50.0</ele><time>2026-05-02T05:35:35.495Z</time></trkpt><trkpt lat="41.07482" lon="14.3"><ele>50.0</ele><time>2026-05-02T05:35:36.495Z</time></trkpt><trkpt lat="41.074985" lon="14.2998267"><ele>50.0</ele><time>2026-05-02T05:35:37.495Z</time></trkpt><trkpt lat="41.0751533" lon="14.2996517"><ele>49.333333333333336</ele><time>2026-05-02T05:35:38.495Z</time></trkpt><trkpt lat="41.0753183" lon="14.2994767"><ele>48.66666666666667</ele><time>2026-05-02T05:35:39.495Z</time></trkpt><trkpt lat="41.0754817" lon="14.299305"><ele>48.0</ele><time>2026-05-02T05:35:40.495Z</time></trkpt><trkpt lat="41.07565" lon="14.299135"><ele>48.33333333333333</ele><time>2026-05-02T05:35:41.495Z</time></trkpt><trkpt lat="41.0758117" lon="14.2989683"><ele>48.666666666666664</ele><time>2026-05-02T05:35:42.495Z</time></trkpt><trkpt lat="41.0759833" lon="14.2988017"><ele>49.0</ele><time>2026-05-02T05:35:43.495Z</time></trkpt><trkpt lat="41.076155" lon="14.2986383"><ele>49.0</ele><time>2026-05-02T05:35:44.495Z</time></trkpt><trkpt lat="41.0763217" lon="14.2984667"><ele>49.0</ele><time>2026-05-02T05:35:45.495Z</time></trkpt><trkpt lat="41.07648" lon="14.2983033"><ele>49.0</ele><time>2026-05-02T05:35:46.495Z</time></trkpt><trkpt lat="41.0766483" lon="14.298135"><ele>47.33333333333333</ele><time>2026-05-02T05:35:47.495Z</time></trkpt><trkpt lat="41.07681" lon="14.2979583"><ele>45.666666666666664</ele><time>2026-05-02T05:35:48.495Z</time></trkpt><trkpt lat="41.0769717" lon="14.29778"><ele>44.0</ele><time>2026-05-02T05:35:49.495Z</time></trkpt><trkpt lat="41.0771383" lon="14.297605"><ele>44.0</ele><time>2026-05-02T05:35:50.495Z</time></trkpt><trkpt lat="41.077305" lon="14.2974333"><ele>44.0</ele><time>2026-05-02T05:35:51.495Z</time></trkpt><trkpt lat="41.0774767" lon="14.2972617"><ele>44.0</ele><time>2026-05-02T05:35:52.495Z</time></trkpt><trkpt lat="41.0776383" lon="14.2970917"><ele>44.666666666666664</ele><time>2026-05-02T05:35:53.495Z</time></trkpt><trkpt lat="41.077795" lon="14.2969233"><ele>45.333333333333336</ele><time>2026-05-02T05:35:54.495Z</time></trkpt><trkpt lat="41.0779533" lon="14.2967583"><ele>46.0</ele><time>2026-05-02T05:35:55.495Z</time></trkpt><trkpt lat="41.07811" lon="14.296595"><ele>46.0</ele><time>2026-05-02T05:35:56.495Z</time></trkpt><trkpt lat="41.0782667" lon="14.2964317"><ele>46.0</ele><time>2026-05-02T05:35:57.496Z</time></trkpt><trkpt lat="41.078425" lon="14.2962667"><ele>46.0</ele><time>2026-05-02T05:35:58.495Z</time></trkpt><trkpt lat="41.078585" lon="14.2960983"><ele>46.0</ele><time>2026-05-02T05:35:59.495Z</time></trkpt><trkpt lat="41.0787467" lon="14.2959267"><ele>46.0</ele><time>2026-05-02T05:36:00.495Z</time></trkpt><trkpt lat="41.0789117" lon="14.2957517"><ele>46.0</ele><time>2026-05-02T05:36:01.495Z</time></trkpt><trkpt lat="41.0790767" lon="14.29558"><ele>47.333333333333336</ele><time>2026-05-02T05:36:02.495Z</time></trkpt><trkpt lat="41.0792483" lon="14.2954083"><ele>48.66666666666667</ele><time>2026-05-02T05:36:03.495Z</time></trkpt><trkpt lat="41.07942" lon="14.2952283"><ele>50.0</ele><time>2026-05-02T05:36:04.495Z</time></trkpt><trkpt lat="41.0795917" lon="14.2950417"><ele>50.0</ele><time>2026-05-02T05:36:05.496Z</time></trkpt><trkpt lat="41.0797667" lon="14.2948667"><ele>50.0</ele><time>2026-05-02T05:36:06.495Z</time></trkpt><trkpt lat="41.07994" lon="14.294685"><ele>50.0</ele><time>2026-05-02T05:36:07.496Z</time></trkpt><trkpt lat="41.080105" lon="14.2945117"><ele>49.333333333333336</ele><time>2026-05-02T05:36:08.495Z</time></trkpt><trkpt lat="41.0802767" lon="14.2943333"><ele>48.66666666666667</ele><time>2026-05-02T05:36:09.495Z</time></trkpt><trkpt lat="41.0804467" lon="14.2941567"><ele>48.0</ele><time>2026-05-02T05:36:10.495Z</time></trkpt><trkpt lat="41.080615" lon="14.293975"><ele>48.33333333333333</ele><time>2026-05-02T05:36:11.496Z</time></trkpt><trkpt lat="41.0807883" lon="14.293795"><ele>48.666666666666664</ele><time>2026-05-02T05:36:12.495Z</time></trkpt><trkpt lat="41.08096" lon="14.293615"><ele>49.0</ele><time>2026-05-02T05:36:13.495Z</time></trkpt><trkpt lat="41.0811333" lon="14.2934317"><ele>49.0</ele><time>2026-05-02T05:36:14.495Z</time></trkpt><trkpt lat="41.0813033" lon="14.2932567"><ele>49.0</ele><time>2026-05-02T05:36:15.495Z</time></trkpt><trkpt lat="41.0814717" lon="14.2930767"><ele>49.0</ele><time>2026-05-02T05:36:16.495Z</time></trkpt><trkpt lat="41.0816367" lon="14.2929"><ele>50.0</ele><time>2026-05-02T05:36:17.495Z</time></trkpt><trkpt lat="41.0818017" lon="14.2927267"><ele>51.0</ele><time>2026-05-02T05:36:18.495Z</time></trkpt><trkpt lat="41.0819683" lon="14.2925533"><ele>52.0</ele><time>2026-05-02T05:36:19.495Z</time></trkpt><trkpt lat="41.0821367" lon="14.2923817"><ele>52.0</ele><time>2026-05-02T05:36:20.495Z</time></trkpt><trkpt lat="41.0823133" lon="14.2922017"><ele>52.0</ele><time>2026-05-02T05:36:21.495Z</time></trkpt><trkpt lat="41.0824767" lon="14.292025"><ele>52.0</ele><time>2026-05-02T05:36:22.495Z</time></trkpt><trkpt lat="41.0826417" lon="14.2918483"><ele>52.0</ele><time>2026-05-02T05:36:23.495Z</time></trkpt><trkpt lat="41.08281" lon="14.2916667"><ele>52.0</ele><time>2026-05-02T05:36:24.495Z</time></trkpt><trkpt lat="41.082975" lon="14.2914917"><ele>52.0</ele><time>2026-05-02T05:36:25.495Z</time></trkpt><trkpt lat="41.0831433" lon="14.2913183"><ele>52.666666666666664</ele><time>2026-05-02T05:36:26.495Z</time></trkpt><trkpt lat="41.0833117" lon="14.29114"><ele>53.33333333333333</ele><time>2026-05-02T05:36:27.495Z</time></trkpt><trkpt lat="41.083475" lon="14.2909683"><ele>54.0</ele><time>2026-05-02T05:36:28.495Z</time></trkpt><trkpt lat="41.0836433" lon="14.2907983"><ele>54.0</ele><time>2026-05-02T05:36:29.496Z</time></trkpt><trkpt lat="41.083815" lon="14.2906233"><ele>54.0</ele><time>2026-05-02T05:36:30.495Z</time></trkpt><trkpt lat="41.083985" lon="14.2904467"><ele>54.0</ele><time>2026-05-02T05:36:31.495Z</time></trkpt><trkpt lat="41.084155" lon="14.2902733"><ele>53.66666666666667</ele><time>2026-05-02T05:36:32.495Z</time></trkpt><trkpt lat="41.084325" lon="14.290095"><ele>53.333333333333336</ele><time>2026-05-02T05:36:33.495Z</time></trkpt><trkpt lat="41.0844983" lon="14.2899183"><ele>53.0</ele><time>2026-05-02T05:36:34.495Z</time></trkpt><trkpt lat="41.0846667" lon="14.2897367"><ele>53.0</ele><time>2026-05-02T05:36:35.495Z</time></trkpt><trkpt lat="41.0848383" lon="14.2895583"><ele>53.0</ele><time>2026-05-02T05:36:36.496Z</time></trkpt><trkpt lat="41.08501" lon="14.289385"><ele>53.0</ele><time>2026-05-02T05:36:37.495Z</time></trkpt><trkpt lat="41.0851817" lon="14.28921"><ele>53.0</ele><time>2026-05-02T05:36:38.495Z</time></trkpt><trkpt lat="41.08535" lon="14.28903"><ele>53.0</ele><time>2026-05-02T05:36:39.495Z</time></trkpt><trkpt lat="41.0855233" lon="14.288845"><ele>53.0</ele><time>2026-05-02T05:36:40.496Z</time></trkpt><trkpt lat="41.0856983" lon="14.2886667"><ele>53.333333333333336</ele><time>2026-05-02T05:36:41.495Z</time></trkpt><trkpt lat="41.0858717" lon="14.2884867"><ele>53.66666666666667</ele><time>2026-05-02T05:36:42.495Z</time></trkpt><trkpt lat="41.086045" lon="14.2883"><ele>54.0</ele><time>2026-05-02T05:36:43.495Z</time></trkpt><trkpt lat="41.0862233" lon="14.2881183"><ele>54.33333333333333</ele><time>2026-05-02T05:36:44.495Z</time></trkpt><trkpt lat="41.086395" lon="14.2879383"><ele>54.666666666666664</ele><time>2026-05-02T05:36:45.495Z</time></trkpt><trkpt lat="41.08657" lon="14.2877583"><ele>55.0</ele><time>2026-05-02T05:36:46.495Z</time></trkpt><trkpt lat="41.086745" lon="14.28757"><ele>55.33333333333333</ele><time>2026-05-02T05:36:47.495Z</time></trkpt><trkpt lat="41.0869133" lon="14.287385"><ele>55.66666666666667</ele><time>2026-05-02T05:36:48.495Z</time></trkpt><trkpt lat="41.08708" lon="14.2871983"><ele>56.0</ele><time>2026-05-02T05:36:49.495Z</time></trkpt><trkpt lat="41.0872433" lon="14.2870083"><ele>56.0</ele><time>2026-05-02T05:36:50.495Z</time></trkpt><trkpt lat="41.0874133" lon="14.28681"><ele>56.0</ele><time>2026-05-02T05:36:51.495Z</time></trkpt><trkpt lat="41.0875667" lon="14.2866"><ele>56.0</ele><time>2026-05-02T05:36:52.495Z</time></trkpt><trkpt lat="41.087715" lon="14.2863867"><ele>56.0</ele><time>2026-05-02T05:36:53.495Z</time></trkpt><trkpt lat="41.087865" lon="14.28617"><ele>56.0</ele><time>2026-05-02T05:36:54.495Z</time></trkpt><trkpt lat="41.0880017" lon="14.285955"><ele>56.0</ele><time>2026-05-02T05:36:55.495Z</time></trkpt><trkpt lat="41.0881333" lon="14.2857183"><ele>56.66666666666667</ele><time>2026-05-02T05:36:56.495Z</time></trkpt><trkpt lat="41.0882717" lon="14.2854933"><ele>57.33333333333333</ele><time>2026-05-02T05:36:57.495Z</time></trkpt><trkpt lat="41.08841" lon="14.2852633"><ele>58.0</ele><time>2026-05-02T05:36:58.496Z</time></trkpt><trkpt lat="41.0885433" lon="14.2850317"><ele>58.0</ele><time>2026-05-02T05:36:59.495Z</time></trkpt><trkpt lat="41.0886767" lon="14.2848067"><ele>58.0</ele><time>2026-05-02T05:37:00.495Z</time></trkpt><trkpt lat="41.0888167" lon="14.2845717"><ele>58.0</ele><time>2026-05-02T05:37:01.495Z</time></trkpt><trkpt lat="41.08896" lon="14.28433"><ele>57.0</ele><time>2026-05-02T05:37:02.495Z</time></trkpt><trkpt lat="41.0890967" lon="14.2840933"><ele>56.0</ele><time>2026-05-02T05:37:03.496Z</time></trkpt><trkpt lat="41.0892333" lon="14.2838533"><ele>56.0</ele><time>2026-05-02T05:37:04.495Z</time></trkpt><trkpt lat="41.089375" lon="14.2836083"><ele>56.0</ele><time>2026-05-02T05:37:05.495Z</time></trkpt><trkpt lat="41.0895117" lon="14.2833667"><ele>56.0</ele><time>2026-05-02T05:37:06.495Z</time></trkpt><trkpt lat="41.08965" lon="14.2831233"><ele>56.0</ele><time>2026-05-02T05:37:07.495Z</time></trkpt><trkpt lat="41.089785" lon="14.28288"><ele>55.5</ele><time>2026-05-02T05:37:08.495Z</time></trkpt><trkpt lat="41.0899167" lon="14.282635"><ele>55.0</ele><time>2026-05-02T05:37:09.495Z</time></trkpt><trkpt lat="41.0900567" lon="14.2823867"><ele>55.0</ele><time>2026-05-02T05:37:10.495Z</time></trkpt><trkpt lat="41.0901967" lon="14.2821417"><ele>55.0</ele><time>2026-05-02T05:37:11.495Z</time></trkpt><trkpt lat="41.0903333" lon="14.2818983"><ele>55.0</ele><time>2026-05-02T05:37:12.495Z</time></trkpt><trkpt lat="41.0904683" lon="14.2816567"><ele>55.0</ele><time>2026-05-02T05:37:13.495Z</time></trkpt><trkpt lat="41.0906067" lon="14.2814133"><ele>55.0</ele><time>2026-05-02T05:37:14.495Z</time></trkpt><trkpt lat="41.09074" lon="14.2811733"><ele>55.0</ele><time>2026-05-02T05:37:15.496Z</time></trkpt><trkpt lat="41.0908817" lon="14.2809417"><ele>55.0</ele><time>2026-05-02T05:37:16.495Z</time></trkpt><trkpt lat="41.0910133" lon="14.2807033"><ele>55.0</ele><time>2026-05-02T05:37:17.495Z</time></trkpt><trkpt lat="41.0911483" lon="14.2804683"><ele>55.0</ele><time>2026-05-02T05:37:18.495Z</time></trkpt><trkpt lat="41.09128" lon="14.2802333"><ele>55.0</ele><time>2026-05-02T05:37:19.495Z</time></trkpt><trkpt lat="41.091415" lon="14.2799967"><ele>54.666666666666664</ele><time>2026-05-02T05:37:20.495Z</time></trkpt><trkpt lat="41.0915483" lon="14.2797633"><ele>54.33333333333333</ele><time>2026-05-02T05:37:21.495Z</time></trkpt><trkpt lat="41.09168" lon="14.27953"><ele>54.0</ele><time>2026-05-02T05:37:22.495Z</time></trkpt><trkpt lat="41.0918167" lon="14.2792917"><ele>54.33333333333333</ele><time>2026-05-02T05:37:23.496Z</time></trkpt><trkpt lat="41.0919517" lon="14.279055"><ele>54.666666666666664</ele><time>2026-05-02T05:37:24.495Z</time></trkpt><trkpt lat="41.0920867" lon="14.278825"><ele>55.0</ele><time>2026-05-02T05:37:25.495Z</time></trkpt><trkpt lat="41.0922233" lon="14.27859"><ele>55.0</ele><time>2026-05-02T05:37:26.495Z</time></trkpt><trkpt lat="41.09236" lon="14.2783467"><ele>55.0</ele><time>2026-05-02T05:37:27.495Z</time></trkpt><trkpt lat="41.0924917" lon="14.27811"><ele>55.33333333333333</ele><time>2026-05-02T05:37:28.495Z</time></trkpt><trkpt lat="41.0926167" lon="14.2778733"><ele>55.66666666666667</ele><time>2026-05-02T05:37:29.495Z</time></trkpt><trkpt lat="41.0927533" lon="14.2776367"><ele>56.0</ele><time>2026-05-02T05:37:30.495Z</time></trkpt><trkpt lat="41.09289" lon="14.2774"><ele>56.0</ele><time>2026-05-02T05:37:31.495Z</time></trkpt><trkpt lat="41.0930267" lon="14.277165"><ele>56.0</ele><time>2026-05-02T05:37:32.495Z</time></trkpt><trkpt lat="41.0931633" lon="14.2769283"><ele>56.0</ele><time>2026-05-02T05:37:33.495Z</time></trkpt><trkpt lat="41.0932983" lon="14.276685"><ele>56.333333333333336</ele><time>2026-05-02T05:37:34.495Z</time></trkpt><trkpt lat="41.093435" lon="14.2764517"><ele>56.66666666666667</ele><time>2026-05-02T05:37:35.495Z</time></trkpt><trkpt lat="41.0935667" lon="14.2762167"><ele>57.0</ele><time>2026-05-02T05:37:36.495Z</time></trkpt><trkpt lat="41.0937" lon="14.275985"><ele>56.33333333333333</ele><time>2026-05-02T05:37:37.495Z</time></trkpt><trkpt lat="41.093835" lon="14.275755"><ele>55.666666666666664</ele><time>2026-05-02T05:37:38.495Z</time></trkpt><trkpt lat="41.0939633" lon="14.27552"><ele>55.0</ele><time>2026-05-02T05:37:39.495Z</time></trkpt><trkpt lat="41.09409" lon="14.2752983"><ele>54.666666666666664</ele><time>2026-05-02T05:37:40.495Z</time></trkpt><trkpt lat="41.0942117" lon="14.275085"><ele>54.33333333333333</ele><time>2026-05-02T05:37:41.495Z</time></trkpt><trkpt lat="41.094335" lon="14.27487"><ele>54.0</ele><time>2026-05-02T05:37:42.495Z</time></trkpt><trkpt lat="41.0944583" lon="14.2746567"><ele>53.66666666666667</ele><time>2026-05-02T05:37:43.495Z</time></trkpt><trkpt lat="41.09458" lon="14.2744417"><ele>53.333333333333336</ele><time>2026-05-02T05:37:44.495Z</time></trkpt><trkpt lat="41.0947033" lon="14.2742317"><ele>53.0</ele><time>2026-05-02T05:37:45.495Z</time></trkpt><trkpt lat="41.0948283" lon="14.2740133"><ele>53.333333333333336</ele><time>2026-05-02T05:37:46.495Z</time></trkpt><trkpt lat="41.0949567" lon="14.273795"><ele>53.66666666666667</ele><time>2026-05-02T05:37:47.495Z</time></trkpt><trkpt lat="41.0950833" lon="14.2735683"><ele>54.0</ele><time>2026-05-02T05:37:48.495Z</time></trkpt><trkpt lat="41.0952183" lon="14.2733417"><ele>53.33333333333333</ele><time>2026-05-02T05:37:49.495Z</time></trkpt><trkpt lat="41.0953517" lon="14.273105"><ele>52.666666666666664</ele><time>2026-05-02T05:37:50.495Z</time></trkpt><trkpt lat="41.09549" lon="14.2728717"><ele>52.0</ele><time>2026-05-02T05:37:51.495Z</time></trkpt><trkpt lat="41.0956233" lon="14.2726367"><ele>52.0</ele><time>2026-05-02T05:37:52.495Z</time></trkpt><trkpt lat="41.0957517" lon="14.2724083"><ele>52.0</ele><time>2026-05-02T05:37:53.496Z</time></trkpt><trkpt lat="41.095885" lon="14.2721767"><ele>52.0</ele><time>2026-05-02T05:37:54.495Z</time></trkpt><trkpt lat="41.0960167" lon="14.2719433"><ele>52.666666666666664</ele><time>2026-05-02T05:37:55.495Z</time></trkpt><trkpt lat="41.0961433" lon="14.271715"><ele>53.33333333333333</ele><time>2026-05-02T05:37:56.495Z</time></trkpt><trkpt lat="41.0962733" lon="14.2714917"><ele>54.0</ele><time>2026-05-02T05:37:57.495Z</time></trkpt><trkpt lat="41.0964017" lon="14.271265"><ele>54.0</ele><time>2026-05-02T05:37:58.495Z</time></trkpt><trkpt lat="41.0965333" lon="14.2710333"><ele>54.0</ele><time>2026-05-02T05:37:59.495Z</time></trkpt><trkpt lat="41.0966617" lon="14.2708033"><ele>54.0</ele><time>2026-05-02T05:38:00.495Z</time></trkpt><trkpt lat="41.096795" lon="14.2705783"><ele>53.66666666666667</ele><time>2026-05-02T05:38:01.495Z</time></trkpt><trkpt lat="41.0969267" lon="14.2703533"><ele>53.333333333333336</ele><time>2026-05-02T05:38:02.495Z</time></trkpt><trkpt lat="41.097055" lon="14.2701267"><ele>53.0</ele><time>2026-05-02T05:38:03.495Z</time></trkpt><trkpt lat="41.0971867" lon="14.2699"><ele>53.0</ele><time>2026-05-02T05:38:04.495Z</time></trkpt><trkpt lat="41.0973183" lon="14.2696683"><ele>53.0</ele><time>2026-05-02T05:38:05.495Z</time></trkpt><trkpt lat="41.0974483" lon="14.2694383"><ele>53.0</ele><time>2026-05-02T05:38:06.496Z</time></trkpt><trkpt lat="41.0975783" lon="14.269205"><ele>52.66666666666667</ele><time>2026-05-02T05:38:07.495Z</time></trkpt><trkpt lat="41.0977117" lon="14.2689683"><ele>52.33333333333333</ele><time>2026-05-02T05:38:08.495Z</time></trkpt><trkpt lat="41.0978433" lon="14.2687383"><ele>52.0</ele><time>2026-05-02T05:38:09.495Z</time></trkpt><trkpt lat="41.097975" lon="14.2685033"><ele>52.0</ele><time>2026-05-02T05:38:10.495Z</time></trkpt><trkpt lat="41.09811" lon="14.2682667"><ele>52.0</ele><time>2026-05-02T05:38:11.495Z</time></trkpt><trkpt lat="41.0982433" lon="14.2680367"><ele>52.0</ele><time>2026-05-02T05:38:12.495Z</time></trkpt><trkpt lat="41.0983783" lon="14.267805"><ele>52.0</ele><time>2026-05-02T05:38:13.496Z</time></trkpt><trkpt lat="41.0985133" lon="14.26757"><ele>52.0</ele><time>2026-05-02T05:38:14.495Z</time></trkpt><trkpt lat="41.0986417" lon="14.2673383"><ele>52.0</ele><time>2026-05-02T05:38:15.495Z</time></trkpt><trkpt lat="41.098775" lon="14.2671117"><ele>51.33333333333333</ele><time>2026-05-02T05:38:16.495Z</time></trkpt><trkpt lat="41.098905" lon="14.2668817"><ele>50.66666666666667</ele><time>2026-05-02T05:38:17.495Z</time></trkpt><trkpt lat="41.0990367" lon="14.26665"><ele>50.0</ele><time>2026-05-02T05:38:18.495Z</time></trkpt><trkpt lat="41.0991767" lon="14.266415"><ele>49.66666666666667</ele><time>2026-05-02T05:38:19.495Z</time></trkpt><trkpt lat="41.099315" lon="14.26618"><ele>49.33333333333333</ele><time>2026-05-02T05:38:20.495Z</time></trkpt><trkpt lat="41.0994517" lon="14.265945"><ele>49.0</ele><time>2026-05-02T05:38:21.495Z</time></trkpt><trkpt lat="41.0995867" lon="14.2657017"><ele>48.666666666666664</ele><time>2026-05-02T05:38:22.495Z</time></trkpt><trkpt lat="41.0997183" lon="14.2654617"><ele>48.33333333333333</ele><time>2026-05-02T05:38:23.495Z</time></trkpt><trkpt lat="41.0998533" lon="14.2652317"><ele>48.0</ele><time>2026-05-02T05:38:24.495Z</time></trkpt><trkpt lat="41.099985" lon="14.265"><ele>48.0</ele><time>2026-05-02T05:38:25.496Z</time></trkpt><trkpt lat="41.1001133" lon="14.2647717"><ele>48.0</ele><time>2026-05-02T05:38:26.496Z</time></trkpt><trkpt lat="41.1002467" lon="14.2645417"><ele>48.0</ele><time>2026-05-02T05:38:27.495Z</time></trkpt><trkpt lat="41.100375" lon="14.2643067"><ele>48.0</ele><time>2026-05-02T05:38:28.495Z</time></trkpt><trkpt lat="41.1005117" lon="14.2640783"><ele>48.0</ele><time>2026-05-02T05:38:29.495Z</time></trkpt><trkpt lat="41.10064" lon="14.2638467"><ele>48.0</ele><time>2026-05-02T05:38:30.496Z</time></trkpt><trkpt lat="41.1007683" lon="14.2636183"><ele>47.666666666666664</ele><time>2026-05-02T05:38:31.495Z</time></trkpt><trkpt lat="41.1008983" lon="14.2633867"><ele>47.33333333333333</ele><time>2026-05-02T05:38:32.495Z</time></trkpt><trkpt lat="41.101025" lon="14.2631583"><ele>47.0</ele><time>2026-05-02T05:38:33.497Z</time></trkpt><trkpt lat="41.1011583" lon="14.26293"><ele>47.0</ele><time>2026-05-02T05:38:34.496Z</time></trkpt><trkpt lat="41.1012933" lon="14.2627017"><ele>47.0</ele><time>2026-05-02T05:38:35.496Z</time></trkpt><trkpt lat="41.101425" lon="14.2624717"><ele>47.0</ele><time>2026-05-02T05:38:36.496Z</time></trkpt><trkpt lat="41.101555" lon="14.2622383"><ele>47.0</ele><time>2026-05-02T05:38:37.496Z</time></trkpt><trkpt lat="41.1016833" lon="14.262005"><ele>47.0</ele><time>2026-05-02T05:38:38.496Z</time></trkpt><trkpt lat="41.1018167" lon="14.2617717"><ele>47.0</ele><time>2026-05-02T05:38:39.496Z</time></trkpt><trkpt lat="41.1019483" lon="14.2615383"><ele>46.0</ele><time>2026-05-02T05:38:40.496Z</time></trkpt><trkpt lat="41.1020783" lon="14.2613033"><ele>45.0</ele><time>2026-05-02T05:38:41.496Z</time></trkpt><trkpt lat="41.10221" lon="14.2610717"><ele>44.0</ele><time>2026-05-02T05:38:42.496Z</time></trkpt><trkpt lat="41.1023417" lon="14.2608417"><ele>44.33333333333333</ele><time>2026-05-02T05:38:43.496Z</time></trkpt><trkpt lat="41.1024817" lon="14.2606367"><ele>44.666666666666664</ele><time>2026-05-02T05:38:44.496Z</time></trkpt><trkpt lat="41.1026017" lon="14.2603967"><ele>45.0</ele><time>2026-05-02T05:38:45.497Z</time></trkpt><trkpt lat="41.1027317" lon="14.2601667"><ele>44.333333333333336</ele><time>2026-05-02T05:38:46.496Z</time></trkpt><trkpt lat="41.1028567" lon="14.259935"><ele>43.66666666666667</ele><time>2026-05-02T05:38:47.496Z</time></trkpt><trkpt lat="41.1029867" lon="14.2597033"><ele>43.0</ele><time>2026-05-02T05:38:48.497Z</time></trkpt><trkpt lat="41.1031217" lon="14.2594683"><ele>43.0</ele><time>2026-05-02T05:38:49.496Z</time></trkpt><trkpt lat="41.1032483" lon="14.259225"><ele>43.0</ele><time>2026-05-02T05:38:50.496Z</time></trkpt><trkpt lat="41.1033767" lon="14.2589817"><ele>43.0</ele><time>2026-05-02T05:38:51.496Z</time></trkpt><trkpt lat="41.1035" lon="14.2587433"><ele>43.0</ele><time>2026-05-02T05:38:52.496Z</time></trkpt><trkpt lat="41.10362" lon="14.258505"><ele>43.0</ele><time>2026-05-02T05:38:53.496Z</time></trkpt><trkpt lat="41.1037383" lon="14.2582683"><ele>43.0</ele><time>2026-05-02T05:38:54.496Z</time></trkpt><trkpt lat="41.1038567" lon="14.2580383"><ele>43.0</ele><time>2026-05-02T05:38:55.497Z</time></trkpt><trkpt lat="41.1039733" lon="14.25781"><ele>43.0</ele><time>2026-05-02T05:38:56.496Z</time></trkpt><trkpt lat="41.1040867" lon="14.2575833"><ele>43.0</ele><time>2026-05-02T05:38:57.496Z</time></trkpt><trkpt lat="41.104205" lon="14.2573517"><ele>42.333333333333336</ele><time>2026-05-02T05:38:58.497Z</time></trkpt><trkpt lat="41.104315" lon="14.2571283"><ele>41.666666666666664</ele><time>2026-05-02T05:38:59.496Z</time></trkpt><trkpt lat="41.1044233" lon="14.2568983"><ele>41.0</ele><time>2026-05-02T05:39:00.496Z</time></trkpt><trkpt lat="41.10453" lon="14.2566717"><ele>40.33333333333333</ele><time>2026-05-02T05:39:01.496Z</time></trkpt><trkpt lat="41.10464" lon="14.25644"><ele>39.666666666666664</ele><time>2026-05-02T05:39:02.496Z</time></trkpt><trkpt lat="41.1047533" lon="14.2562033"><ele>39.0</ele><time>2026-05-02T05:39:03.496Z</time></trkpt><trkpt lat="41.1048617" lon="14.2559733"><ele>39.0</ele><time>2026-05-02T05:39:04.496Z</time></trkpt><trkpt lat="41.104975" lon="14.2557317"><ele>39.0</ele><time>2026-05-02T05:39:05.496Z</time></trkpt><trkpt lat="41.1050917" lon="14.2554917"><ele>39.0</ele><time>2026-05-02T05:39:06.496Z</time></trkpt><trkpt lat="41.1052083" lon="14.2552483"><ele>39.0</ele><time>2026-05-02T05:39:07.496Z</time></trkpt><trkpt lat="41.1053217" lon="14.255"><ele>39.0</ele><time>2026-05-02T05:39:08.496Z</time></trkpt><trkpt lat="41.1054383" lon="14.2547567"><ele>39.0</ele><time>2026-05-02T05:39:09.497Z</time></trkpt><trkpt lat="41.10555" lon="14.2545117"><ele>38.333333333333336</ele><time>2026-05-02T05:39:10.496Z</time></trkpt><trkpt lat="41.1056667" lon="14.2542583"><ele>37.66666666666667</ele><time>2026-05-02T05:39:11.497Z</time></trkpt><trkpt lat="41.1057817" lon="14.25401"><ele>37.0</ele><time>2026-05-02T05:39:12.496Z</time></trkpt><trkpt lat="41.105895" lon="14.2537617"><ele>36.66666666666667</ele><time>2026-05-02T05:39:13.496Z</time></trkpt><trkpt lat="41.1060083" lon="14.2535183"><ele>36.333333333333336</ele><time>2026-05-02T05:39:14.496Z</time></trkpt><trkpt lat="41.10612" lon="14.253275"><ele>36.0</ele><time>2026-05-02T05:39:15.496Z</time></trkpt><trkpt lat="41.1062333" lon="14.253035"><ele>36.666666666666664</ele><time>2026-05-02T05:39:16.496Z</time></trkpt><trkpt lat="41.1063483" lon="14.2527917"><ele>37.33333333333333</ele><time>2026-05-02T05:39:17.496Z</time></trkpt><trkpt lat="41.1064583" lon="14.2525483"><ele>38.0</ele><time>2026-05-02T05:39:18.496Z</time></trkpt><trkpt lat="41.1065717" lon="14.2523067"><ele>37.33333333333333</ele><time>2026-05-02T05:39:19.496Z</time></trkpt><trkpt lat="41.1066933" lon="14.252055"><ele>36.666666666666664</ele><time>2026-05-02T05:39:20.496Z</time></trkpt><trkpt lat="41.1068033" lon="14.251805"><ele>36.0</ele><time>2026-05-02T05:39:21.496Z</time></trkpt><trkpt lat="41.1069233" lon="14.2515567"><ele>35.333333333333336</ele><time>2026-05-02T05:39:22.496Z</time></trkpt><trkpt lat="41.1070333" lon="14.2513217"><ele>34.66666666666667</ele><time>2026-05-02T05:39:23.496Z</time></trkpt><trkpt lat="41.107135" lon="14.251095"><ele>34.0</ele><time>2026-05-02T05:39:24.496Z</time></trkpt><trkpt lat="41.107245" lon="14.2508733"><ele>34.0</ele><time>2026-05-02T05:39:25.496Z</time></trkpt><trkpt lat="41.1073483" lon="14.250655"><ele>34.0</ele><time>2026-05-02T05:39:26.496Z</time></trkpt><trkpt lat="41.1074517" lon="14.2504333"><ele>34.0</ele><time>2026-05-02T05:39:27.496Z</time></trkpt><trkpt lat="41.10756" lon="14.2502133"><ele>34.333333333333336</ele><time>2026-05-02T05:39:28.496Z</time></trkpt><trkpt lat="41.107665" lon="14.2499917"><ele>34.666666666666664</ele><time>2026-05-02T05:39:29.496Z</time></trkpt><trkpt lat="41.1077717" lon="14.24976"><ele>35.0</ele><time>2026-05-02T05:39:30.496Z</time></trkpt><trkpt lat="41.1078717" lon="14.2495267"><ele>34.666666666666664</ele><time>2026-05-02T05:39:31.496Z</time></trkpt><trkpt lat="41.10798" lon="14.2492983"><ele>34.333333333333336</ele><time>2026-05-02T05:39:32.496Z</time></trkpt><trkpt lat="41.10809" lon="14.2490717"><ele>34.0</ele><time>2026-05-02T05:39:33.496Z</time></trkpt><trkpt lat="41.1082017" lon="14.248845"><ele>34.0</ele><time>2026-05-02T05:39:34.496Z</time></trkpt><trkpt lat="41.1083133" lon="14.24861"><ele>34.0</ele><time>2026-05-02T05:39:35.496Z</time></trkpt><trkpt lat="41.1084183" lon="14.248365"><ele>34.0</ele><time>2026-05-02T05:39:36.496Z</time></trkpt><trkpt lat="41.108535" lon="14.24811"><ele>33.0</ele><time>2026-05-02T05:39:37.496Z</time></trkpt><trkpt lat="41.1086467" lon="14.247865"><ele>32.0</ele><time>2026-05-02T05:39:38.496Z</time></trkpt><trkpt lat="41.1087517" lon="14.2476267"><ele>31.0</ele><time>2026-05-02T05:39:39.496Z</time></trkpt><trkpt lat="41.1088583" lon="14.247385"><ele>30.333333333333336</ele><time>2026-05-02T05:39:40.496Z</time></trkpt><trkpt lat="41.1089733" lon="14.2471367"><ele>29.666666666666664</ele><time>2026-05-02T05:39:41.496Z</time></trkpt><trkpt lat="41.1090867" lon="14.2468883"><ele>29.0</ele><time>2026-05-02T05:39:42.496Z</time></trkpt><trkpt lat="41.1092" lon="14.2466383"><ele>29.0</ele><time>2026-05-02T05:39:43.496Z</time></trkpt><trkpt lat="41.109315" lon="14.2463867"><ele>29.0</ele><time>2026-05-02T05:39:44.496Z</time></trkpt><trkpt lat="41.109435" lon="14.24613"><ele>29.0</ele><time>2026-05-02T05:39:45.496Z</time></trkpt><trkpt lat="41.1095533" lon="14.24587"><ele>29.0</ele><time>2026-05-02T05:39:46.496Z</time></trkpt><trkpt lat="41.10967" lon="14.2456117"><ele>29.0</ele><time>2026-05-02T05:39:47.496Z</time></trkpt><trkpt lat="41.10979" lon="14.2453567"><ele>29.0</ele><time>2026-05-02T05:39:48.496Z</time></trkpt><trkpt lat="41.1099067" lon="14.2451"><ele>29.0</ele><time>2026-05-02T05:39:49.496Z</time></trkpt><trkpt lat="41.1100217" lon="14.244845"><ele>28.666666666666664</ele><time>2026-05-02T05:39:50.496Z</time></trkpt><trkpt lat="41.11014" lon="14.2445883"><ele>28.333333333333336</ele><time>2026-05-02T05:39:51.496Z</time></trkpt><trkpt lat="41.1102567" lon="14.2443367"><ele>28.0</ele><time>2026-05-02T05:39:52.496Z</time></trkpt><trkpt lat="41.1103783" lon="14.24408"><ele>28.0</ele><time>2026-05-02T05:39:53.496Z</time></trkpt><trkpt lat="41.1104933" lon="14.2438283"><ele>28.0</ele><time>2026-05-02T05:39:54.496Z</time></trkpt><trkpt lat="41.110615" lon="14.243575"><ele>28.0</ele><time>2026-05-02T05:39:55.496Z</time></trkpt><trkpt lat="41.110735" lon="14.2433117"><ele>27.5</ele><time>2026-05-02T05:39:56.496Z</time></trkpt><trkpt lat="41.110855" lon="14.243055"><ele>27.0</ele><time>2026-05-02T05:39:57.496Z</time></trkpt><trkpt lat="41.1109683" lon="14.2428"><ele>27.0</ele><time>2026-05-02T05:39:58.496Z</time></trkpt><trkpt lat="41.111085" lon="14.2425417"><ele>27.0</ele><time>2026-05-02T05:39:59.497Z</time></trkpt><trkpt lat="41.1112017" lon="14.242285"><ele>26.333333333333336</ele><time>2026-05-02T05:40:00.496Z</time></trkpt><trkpt lat="41.1113183" lon="14.24204"><ele>25.666666666666668</ele><time>2026-05-02T05:40:01.496Z</time></trkpt><trkpt lat="41.1114333" lon="14.2417917"><ele>25.0</ele><time>2026-05-02T05:40:02.496Z</time></trkpt><trkpt lat="41.1115467" lon="14.241545"><ele>25.333333333333336</ele><time>2026-05-02T05:40:03.496Z</time></trkpt><trkpt lat="41.1116617" lon="14.241305"><ele>25.666666666666664</ele><time>2026-05-02T05:40:04.496Z</time></trkpt><trkpt lat="41.111775" lon="14.24106"><ele>26.0</ele><time>2026-05-02T05:40:05.496Z</time></trkpt><trkpt lat="41.1118967" lon="14.24081"><ele>26.0</ele><time>2026-05-02T05:40:06.496Z</time></trkpt><trkpt lat="41.1120117" lon="14.2405617"><ele>26.0</ele><time>2026-05-02T05:40:07.496Z</time></trkpt><trkpt lat="41.1121283" lon="14.24031"><ele>26.0</ele><time>2026-05-02T05:40:08.496Z</time></trkpt><trkpt lat="41.1122467" lon="14.240055"><ele>26.0</ele><time>2026-05-02T05:40:09.496Z</time></trkpt><trkpt lat="41.1123633" lon="14.239805"><ele>26.0</ele><time>2026-05-02T05:40:10.496Z</time></trkpt><trkpt lat="41.1124817" lon="14.2395583"><ele>26.0</ele><time>2026-05-02T05:40:11.497Z</time></trkpt><trkpt lat="41.1125917" lon="14.23932"><ele>26.0</ele><time>2026-05-02T05:40:12.496Z</time></trkpt><trkpt lat="41.1127017" lon="14.2390833"><ele>26.0</ele><time>2026-05-02T05:40:13.496Z</time></trkpt><trkpt lat="41.11281" lon="14.2388433"><ele>26.0</ele><time>2026-05-02T05:40:14.496Z</time></trkpt><trkpt lat="41.1129183" lon="14.23861"><ele>25.666666666666664</ele><time>2026-05-02T05:40:15.497Z</time></trkpt><trkpt lat="41.1130283" lon="14.238375"><ele>25.333333333333336</ele><time>2026-05-02T05:40:16.496Z</time></trkpt><trkpt lat="41.113145" lon="14.23814"><ele>25.0</ele><time>2026-05-02T05:40:17.496Z</time></trkpt><trkpt lat="41.1132617" lon="14.2379067"><ele>25.333333333333336</ele><time>2026-05-02T05:40:18.496Z</time></trkpt><trkpt lat="41.1133817" lon="14.237675"><ele>25.666666666666664</ele><time>2026-05-02T05:40:19.496Z</time></trkpt><trkpt lat="41.1135017" lon="14.237445"><ele>26.0</ele><time>2026-05-02T05:40:20.496Z</time></trkpt><trkpt lat="41.1136283" lon="14.23721"><ele>26.0</ele><time>2026-05-02T05:40:21.496Z</time></trkpt><trkpt lat="41.1137617" lon="14.2369767"><ele>26.0</ele><time>2026-05-02T05:40:22.496Z</time></trkpt><trkpt lat="41.1138983" lon="14.2367517"><ele>26.0</ele><time>2026-05-02T05:40:23.496Z</time></trkpt><trkpt lat="41.1140317" lon="14.2365283"><ele>26.0</ele><time>2026-05-02T05:40:24.496Z</time></trkpt><trkpt lat="41.11417" lon="14.2363133"><ele>26.0</ele><time>2026-05-02T05:40:25.496Z</time></trkpt><trkpt lat="41.1143117" lon="14.2360983"><ele>26.0</ele><time>2026-05-02T05:40:26.496Z</time></trkpt><trkpt lat="41.114455" lon="14.2358883"><ele>26.0</ele><time>2026-05-02T05:40:27.496Z</time></trkpt><trkpt lat="41.1146033" lon="14.2356783"><ele>26.0</ele><time>2026-05-02T05:40:28.496Z</time></trkpt><trkpt lat="41.1147517" lon="14.23547"><ele>26.0</ele><time>2026-05-02T05:40:29.496Z</time></trkpt><trkpt lat="41.1149" lon="14.23527"><ele>26.0</ele><time>2026-05-02T05:40:30.496Z</time></trkpt><trkpt lat="41.1150517" lon="14.235065"><ele>26.0</ele><time>2026-05-02T05:40:31.496Z</time></trkpt><trkpt lat="41.1152067" lon="14.2348633"><ele>26.0</ele><time>2026-05-02T05:40:32.496Z</time></trkpt><trkpt lat="41.1153733" lon="14.234665"><ele>26.0</ele><time>2026-05-02T05:40:33.496Z</time></trkpt><trkpt lat="41.11554" lon="14.2344633"><ele>26.0</ele><time>2026-05-02T05:40:34.496Z</time></trkpt><trkpt lat="41.11571" lon="14.2342717"><ele>26.0</ele><time>2026-05-02T05:40:35.496Z</time></trkpt><trkpt lat="41.1158783" lon="14.2340783"><ele>25.666666666666664</ele><time>2026-05-02T05:40:36.496Z</time></trkpt><trkpt lat="41.11605" lon="14.2338917"><ele>25.333333333333336</ele><time>2026-05-02T05:40:37.496Z</time></trkpt><trkpt lat="41.11622" lon="14.23371"><ele>25.0</ele><time>2026-05-02T05:40:38.496Z</time></trkpt><trkpt lat="41.1163917" lon="14.2335417"><ele>25.0</ele><time>2026-05-02T05:40:39.496Z</time></trkpt><trkpt lat="41.116555" lon="14.2333717"><ele>25.0</ele><time>2026-05-02T05:40:40.497Z</time></trkpt><trkpt lat="41.116715" lon="14.2332017"><ele>25.0</ele><time>2026-05-02T05:40:41.496Z</time></trkpt><trkpt lat="41.1168783" lon="14.2330333"><ele>24.333333333333336</ele><time>2026-05-02T05:40:42.496Z</time></trkpt><trkpt lat="41.1170433" lon="14.23286"><ele>23.666666666666668</ele><time>2026-05-02T05:40:43.496Z</time></trkpt><trkpt lat="41.11721" lon="14.2326867"><ele>23.0</ele><time>2026-05-02T05:40:44.496Z</time></trkpt><trkpt lat="41.1173817" lon="14.23251"><ele>22.333333333333336</ele><time>2026-05-02T05:40:45.496Z</time></trkpt><trkpt lat="41.117555" lon="14.2323333"><ele>21.666666666666668</ele><time>2026-05-02T05:40:46.497Z</time></trkpt><trkpt lat="41.117725" lon="14.2321517"><ele>21.0</ele><time>2026-05-02T05:40:47.496Z</time></trkpt><trkpt lat="41.117895" lon="14.23197"><ele>21.0</ele><time>2026-05-02T05:40:48.496Z</time></trkpt><trkpt lat="41.11807" lon="14.2317867"><ele>21.0</ele><time>2026-05-02T05:40:49.497Z</time></trkpt><trkpt lat="41.1182433" lon="14.23161"><ele>21.0</ele><time>2026-05-02T05:40:50.496Z</time></trkpt><trkpt lat="41.118415" lon="14.2314317"><ele>21.333333333333332</ele><time>2026-05-02T05:40:51.496Z</time></trkpt><trkpt lat="41.1185867" lon="14.2312533"><ele>21.666666666666664</ele><time>2026-05-02T05:40:52.496Z</time></trkpt><trkpt lat="41.1187567" lon="14.231075"><ele>22.0</ele><time>2026-05-02T05:40:53.497Z</time></trkpt><trkpt lat="41.1189267" lon="14.2308983"><ele>22.0</ele><time>2026-05-02T05:40:54.496Z</time></trkpt><trkpt lat="41.11909" lon="14.2307233"><ele>22.0</ele><time>2026-05-02T05:40:55.496Z</time></trkpt><trkpt lat="41.1192567" lon="14.230545"><ele>22.0</ele><time>2026-05-02T05:40:56.496Z</time></trkpt><trkpt lat="41.1194217" lon="14.2303683"><ele>22.333333333333332</ele><time>2026-05-02T05:40:57.496Z</time></trkpt><trkpt lat="41.1195867" lon="14.2301967"><ele>22.666666666666668</ele><time>2026-05-02T05:40:58.496Z</time></trkpt><trkpt lat="41.1197483" lon="14.2300233"><ele>23.0</ele><time>2026-05-02T05:40:59.496Z</time></trkpt><trkpt lat="41.1199117" lon="14.2298483"><ele>23.666666666666668</ele><time>2026-05-02T05:41:00.496Z</time></trkpt><trkpt lat="41.1200717" lon="14.229675"><ele>24.333333333333336</ele><time>2026-05-02T05:41:01.496Z</time></trkpt><trkpt lat="41.1202333" lon="14.2294967"><ele>25.0</ele><time>2026-05-02T05:41:02.496Z</time></trkpt><trkpt lat="41.120395" lon="14.2293217"><ele>25.0</ele><time>2026-05-02T05:41:03.497Z</time></trkpt><trkpt lat="41.120555" lon="14.2291383"><ele>25.0</ele><time>2026-05-02T05:41:04.496Z</time></trkpt><trkpt lat="41.1207083" lon="14.2289483"><ele>25.0</ele><time>2026-05-02T05:41:05.496Z</time></trkpt><trkpt lat="41.1208667" lon="14.2287617"><ele>25.0</ele><time>2026-05-02T05:41:06.496Z</time></trkpt><trkpt lat="41.12102" lon="14.2285667"><ele>25.0</ele><time>2026-05-02T05:41:07.496Z</time></trkpt><trkpt lat="41.1211717" lon="14.2283617"><ele>25.0</ele><time>2026-05-02T05:41:08.496Z</time></trkpt><trkpt lat="41.121325" lon="14.22816"><ele>24.666666666666668</ele><time>2026-05-02T05:41:09.496Z</time></trkpt><trkpt lat="41.1214783" lon="14.22796"><ele>24.333333333333336</ele><time>2026-05-02T05:41:10.496Z</time></trkpt><trkpt lat="41.121635" lon="14.2277567"><ele>24.0</ele><time>2026-05-02T05:41:11.496Z</time></trkpt><trkpt lat="41.1217883" lon="14.2275533"><ele>24.0</ele><time>2026-05-02T05:41:12.496Z</time></trkpt><trkpt lat="41.1219383" lon="14.2273467"><ele>24.0</ele><time>2026-05-02T05:41:13.496Z</time></trkpt><trkpt lat="41.1220867" lon="14.227135"><ele>24.0</ele><time>2026-05-02T05:41:14.496Z</time></trkpt><trkpt lat="41.1222333" lon="14.2269267"><ele>23.666666666666668</ele><time>2026-05-02T05:41:15.497Z</time></trkpt><trkpt lat="41.1223733" lon="14.226715"><ele>23.333333333333336</ele><time>2026-05-02T05:41:16.497Z</time></trkpt><trkpt lat="41.1225083" lon="14.2265067"><ele>23.0</ele><time>2026-05-02T05:41:17.496Z</time></trkpt><trkpt lat="41.1226467" lon="14.2262983"><ele>23.0</ele><time>2026-05-02T05:41:18.496Z</time></trkpt><trkpt lat="41.1227833" lon="14.226085"><ele>23.0</ele><time>2026-05-02T05:41:19.496Z</time></trkpt><trkpt lat="41.1229233" lon="14.225875"><ele>23.0</ele><time>2026-05-02T05:41:20.496Z</time></trkpt><trkpt lat="41.1230617" lon="14.22566"><ele>22.333333333333336</ele><time>2026-05-02T05:41:21.496Z</time></trkpt><trkpt lat="41.1232017" lon="14.2254467"><ele>21.666666666666668</ele><time>2026-05-02T05:41:22.496Z</time></trkpt><trkpt lat="41.123345" lon="14.2252383"><ele>21.0</ele><time>2026-05-02T05:41:23.496Z</time></trkpt><trkpt lat="41.1234917" lon="14.2250267"><ele>21.0</ele><time>2026-05-02T05:41:24.496Z</time></trkpt><trkpt lat="41.1236333" lon="14.2248183"><ele>21.0</ele><time>2026-05-02T05:41:25.496Z</time></trkpt><trkpt lat="41.12377" lon="14.2246083"><ele>21.0</ele><time>2026-05-02T05:41:26.496Z</time></trkpt><trkpt lat="41.1239117" lon="14.2243967"><ele>21.333333333333332</ele><time>2026-05-02T05:41:27.496Z</time></trkpt><trkpt lat="41.1240533" lon="14.2241817"><ele>21.666666666666664</ele><time>2026-05-02T05:41:28.496Z</time></trkpt><trkpt lat="41.1241983" lon="14.2239667"><ele>22.0</ele><time>2026-05-02T05:41:29.496Z</time></trkpt><trkpt lat="41.1243417" lon="14.22375"><ele>22.0</ele><time>2026-05-02T05:41:30.497Z</time></trkpt><trkpt lat="41.1244833" lon="14.22353"><ele>22.0</ele><time>2026-05-02T05:41:31.496Z</time></trkpt><trkpt lat="41.1246267" lon="14.223315"><ele>22.0</ele><time>2026-05-02T05:41:32.496Z</time></trkpt><trkpt lat="41.1247717" lon="14.2230983"><ele>22.666666666666664</ele><time>2026-05-02T05:41:33.496Z</time></trkpt><trkpt lat="41.1249133" lon="14.2228767"><ele>23.333333333333332</ele><time>2026-05-02T05:41:34.496Z</time></trkpt><trkpt lat="41.1250583" lon="14.222655"><ele>24.0</ele><time>2026-05-02T05:41:35.496Z</time></trkpt><trkpt lat="41.125205" lon="14.2224367"><ele>23.333333333333332</ele><time>2026-05-02T05:41:36.496Z</time></trkpt><trkpt lat="41.1253567" lon="14.222215"><ele>22.666666666666664</ele><time>2026-05-02T05:41:37.496Z</time></trkpt><trkpt lat="41.125505" lon="14.2219933"><ele>22.0</ele><time>2026-05-02T05:41:38.497Z</time></trkpt><trkpt lat="41.1256517" lon="14.2217717"><ele>22.0</ele><time>2026-05-02T05:41:39.497Z</time></trkpt><trkpt lat="41.1258017" lon="14.2215533"><ele>22.0</ele><time>2026-05-02T05:41:40.496Z</time></trkpt><trkpt lat="41.12595" lon="14.2213267"><ele>22.0</ele><time>2026-05-02T05:41:41.496Z</time></trkpt><trkpt lat="41.1260967" lon="14.22111"><ele>22.0</ele><time>2026-05-02T05:41:42.496Z</time></trkpt><trkpt lat="41.1262417" lon="14.2208917"><ele>22.0</ele><time>2026-05-02T05:41:43.496Z</time></trkpt><trkpt lat="41.12639" lon="14.2206683"><ele>22.0</ele><time>2026-05-02T05:41:44.496Z</time></trkpt><trkpt lat="41.1265383" lon="14.2204417"><ele>23.0</ele><time>2026-05-02T05:41:45.496Z</time></trkpt><trkpt lat="41.1266833" lon="14.2202167"><ele>24.0</ele><time>2026-05-02T05:41:46.496Z</time></trkpt><trkpt lat="41.1268367" lon="14.2199917"><ele>24.5</ele><time>2026-05-02T05:41:47.496Z</time></trkpt><trkpt lat="41.12699" lon="14.2197667"><ele>25.0</ele><time>2026-05-02T05:41:48.496Z</time></trkpt><trkpt lat="41.1271367" lon="14.2195417"><ele>25.0</ele><time>2026-05-02T05:41:49.496Z</time></trkpt><trkpt lat="41.127285" lon="14.2193183"><ele>25.0</ele><time>2026-05-02T05:41:50.496Z</time></trkpt><trkpt lat="41.1274317" lon="14.2190967"><ele>25.0</ele><time>2026-05-02T05:41:51.496Z</time></trkpt><trkpt lat="41.1275783" lon="14.2188733"><ele>26.333333333333336</ele><time>2026-05-02T05:41:52.496Z</time></trkpt><trkpt lat="41.12772" lon="14.2186483"><ele>27.666666666666664</ele><time>2026-05-02T05:41:53.496Z</time></trkpt><trkpt lat="41.127865" lon="14.2184317"><ele>29.0</ele><time>2026-05-02T05:41:54.496Z</time></trkpt><trkpt lat="41.1280067" lon="14.21822"><ele>29.333333333333332</ele><time>2026-05-02T05:41:55.496Z</time></trkpt><trkpt lat="41.1281483" lon="14.217995"><ele>29.666666666666664</ele><time>2026-05-02T05:41:56.496Z</time></trkpt><trkpt lat="41.128295" lon="14.2177817"><ele>30.0</ele><time>2026-05-02T05:41:57.496Z</time></trkpt><trkpt lat="41.1284383" lon="14.2175683"><ele>27.5</ele><time>2026-05-02T05:41:58.496Z</time></trkpt><trkpt lat="41.1285883" lon="14.2173433"><ele>25.0</ele><time>2026-05-02T05:41:59.496Z</time></trkpt><trkpt lat="41.1287383" lon="14.2171167"><ele>25.0</ele><time>2026-05-02T05:42:00.496Z</time></trkpt><trkpt lat="41.1288817" lon="14.2168917"><ele>25.0</ele><time>2026-05-02T05:42:01.496Z</time></trkpt><trkpt lat="41.1290283" lon="14.2166717"><ele>25.0</ele><time>2026-05-02T05:42:02.496Z</time></trkpt><trkpt lat="41.1291767" lon="14.2164483"><ele>25.0</ele><time>2026-05-02T05:42:03.496Z</time></trkpt><trkpt lat="41.1293267" lon="14.2162267"><ele>25.0</ele><time>2026-05-02T05:42:04.496Z</time></trkpt><trkpt lat="41.129475" lon="14.2160067"><ele>25.0</ele><time>2026-05-02T05:42:05.496Z</time></trkpt><trkpt lat="41.1296267" lon="14.21578"><ele>25.0</ele><time>2026-05-02T05:42:06.496Z</time></trkpt><trkpt lat="41.1297767" lon="14.2155567"><ele>25.0</ele><time>2026-05-02T05:42:07.496Z</time></trkpt><trkpt lat="41.1299217" lon="14.21533"><ele>25.0</ele><time>2026-05-02T05:42:08.497Z</time></trkpt><trkpt lat="41.1300733" lon="14.2151017"><ele>25.333333333333336</ele><time>2026-05-02T05:42:09.496Z</time></trkpt><trkpt lat="41.1302183" lon="14.2148783"><ele>25.666666666666664</ele><time>2026-05-02T05:42:10.497Z</time></trkpt><trkpt lat="41.1303683" lon="14.2146583"><ele>26.0</ele><time>2026-05-02T05:42:11.496Z</time></trkpt><trkpt lat="41.1305167" lon="14.2144367"><ele>25.0</ele><time>2026-05-02T05:42:12.496Z</time></trkpt><trkpt lat="41.1306683" lon="14.2142117"><ele>24.0</ele><time>2026-05-02T05:42:13.496Z</time></trkpt><trkpt lat="41.13082" lon="14.2139833"><ele>24.0</ele><time>2026-05-02T05:42:14.496Z</time></trkpt><trkpt lat="41.1309733" lon="14.213755"><ele>24.0</ele><time>2026-05-02T05:42:15.496Z</time></trkpt><trkpt lat="41.131125" lon="14.2135233"><ele>24.0</ele><time>2026-05-02T05:42:16.496Z</time></trkpt><trkpt lat="41.1312767" lon="14.2132917"><ele>24.0</ele><time>2026-05-02T05:42:17.496Z</time></trkpt><trkpt lat="41.13143" lon="14.2130633"><ele>25.5</ele><time>2026-05-02T05:42:18.496Z</time></trkpt><trkpt lat="41.1315817" lon="14.2128333"><ele>27.0</ele><time>2026-05-02T05:42:19.496Z</time></trkpt><trkpt lat="41.1317317" lon="14.21261"><ele>27.0</ele><time>2026-05-02T05:42:20.496Z</time></trkpt><trkpt lat="41.1318733" lon="14.212395"><ele>27.0</ele><time>2026-05-02T05:42:21.496Z</time></trkpt><trkpt lat="41.1320133" lon="14.2121833"><ele>27.0</ele><time>2026-05-02T05:42:22.496Z</time></trkpt><trkpt lat="41.1321483" lon="14.2119883"><ele>26.666666666666664</ele><time>2026-05-02T05:42:23.496Z</time></trkpt><trkpt lat="41.1322767" lon="14.21179"><ele>26.333333333333332</ele><time>2026-05-02T05:42:24.496Z</time></trkpt><trkpt lat="41.1324083" lon="14.2115933"><ele>26.0</ele><time>2026-05-02T05:42:25.496Z</time></trkpt><trkpt lat="41.1325383" lon="14.2113983"><ele>26.0</ele><time>2026-05-02T05:42:26.496Z</time></trkpt><trkpt lat="41.1326683" lon="14.2111983"><ele>26.0</ele><time>2026-05-02T05:42:27.496Z</time></trkpt><trkpt lat="41.1327983" lon="14.2110017"><ele>26.0</ele><time>2026-05-02T05:42:28.496Z</time></trkpt><trkpt lat="41.1329283" lon="14.210805"><ele>26.0</ele><time>2026-05-02T05:42:29.496Z</time></trkpt><trkpt lat="41.1330633" lon="14.2106017"><ele>26.0</ele><time>2026-05-02T05:42:30.497Z</time></trkpt><trkpt lat="41.1331983" lon="14.2104017"><ele>26.0</ele><time>2026-05-02T05:42:31.496Z</time></trkpt><trkpt lat="41.1333333" lon="14.210195"><ele>26.333333333333332</ele><time>2026-05-02T05:42:32.496Z</time></trkpt><trkpt lat="41.1334667" lon="14.20999"><ele>26.666666666666664</ele><time>2026-05-02T05:42:33.496Z</time></trkpt><trkpt lat="41.1335967" lon="14.20978"><ele>27.0</ele><time>2026-05-02T05:42:34.496Z</time></trkpt><trkpt lat="41.1337317" lon="14.2095767"><ele>27.0</ele><time>2026-05-02T05:42:35.496Z</time></trkpt><trkpt lat="41.1338717" lon="14.209375"><ele>27.0</ele><time>2026-05-02T05:42:36.497Z</time></trkpt><trkpt lat="41.13401" lon="14.2091717"><ele>27.0</ele><time>2026-05-02T05:42:37.496Z</time></trkpt><trkpt lat="41.1341467" lon="14.2089667"><ele>26.666666666666664</ele><time>2026-05-02T05:42:38.496Z</time></trkpt><trkpt lat="41.13428" lon="14.208755"><ele>26.333333333333332</ele><time>2026-05-02T05:42:39.496Z</time></trkpt><trkpt lat="41.1344233" lon="14.2085417"><ele>26.0</ele><time>2026-05-02T05:42:40.496Z</time></trkpt><trkpt lat="41.13457" lon="14.20832"><ele>25.666666666666664</ele><time>2026-05-02T05:42:41.496Z</time></trkpt><trkpt lat="41.13472" lon="14.2081083"><ele>25.333333333333336</ele><time>2026-05-02T05:42:42.497Z</time></trkpt><trkpt lat="41.1348633" lon="14.207895"><ele>25.0</ele><time>2026-05-02T05:42:43.496Z</time></trkpt><trkpt lat="41.1350133" lon="14.2076767"><ele>24.666666666666668</ele><time>2026-05-02T05:42:44.496Z</time></trkpt><trkpt lat="41.1351633" lon="14.2074483"><ele>24.333333333333336</ele><time>2026-05-02T05:42:45.496Z</time></trkpt><trkpt lat="41.1353067" lon="14.2072283"><ele>24.0</ele><time>2026-05-02T05:42:46.496Z</time></trkpt><trkpt lat="41.13545" lon="14.2070117"><ele>23.666666666666668</ele><time>2026-05-02T05:42:47.496Z</time></trkpt><trkpt lat="41.13559" lon="14.2067967"><ele>23.333333333333336</ele><time>2026-05-02T05:42:48.496Z</time></trkpt><trkpt lat="41.13573" lon="14.206585"><ele>23.0</ele><time>2026-05-02T05:42:49.496Z</time></trkpt><trkpt lat="41.1358733" lon="14.2063767"><ele>24.333333333333336</ele><time>2026-05-02T05:42:50.496Z</time></trkpt><trkpt lat="41.1360217" lon="14.2061583"><ele>25.666666666666668</ele><time>2026-05-02T05:42:51.496Z</time></trkpt><trkpt lat="41.136165" lon="14.2059367"><ele>27.0</ele><time>2026-05-02T05:42:52.496Z</time></trkpt><trkpt lat="41.1363117" lon="14.2057183"><ele>27.333333333333336</ele><time>2026-05-02T05:42:53.496Z</time></trkpt><trkpt lat="41.136455" lon="14.2054933"><ele>27.666666666666668</ele><time>2026-05-02T05:42:54.497Z</time></trkpt><trkpt lat="41.1366017" lon="14.2052667"><ele>28.0</ele><time>2026-05-02T05:42:55.497Z</time></trkpt><trkpt lat="41.1367533" lon="14.2050533"><ele>28.333333333333336</ele><time>2026-05-02T05:42:56.496Z</time></trkpt><trkpt lat="41.1369" lon="14.20483"><ele>28.666666666666664</ele><time>2026-05-02T05:42:57.497Z</time></trkpt><trkpt lat="41.137045" lon="14.2046033"><ele>29.0</ele><time>2026-05-02T05:42:58.496Z</time></trkpt><trkpt lat="41.13719" lon="14.20438"><ele>28.0</ele><time>2026-05-02T05:42:59.496Z</time></trkpt><trkpt lat="41.13734" lon="14.2041583"><ele>27.0</ele><time>2026-05-02T05:43:00.497Z</time></trkpt><trkpt lat="41.137485" lon="14.2039367"><ele>26.0</ele><time>2026-05-02T05:43:01.496Z</time></trkpt><trkpt lat="41.13763" lon="14.203715"><ele>25.333333333333332</ele><time>2026-05-02T05:43:02.496Z</time></trkpt><trkpt lat="41.137775" lon="14.2034983"><ele>24.666666666666664</ele><time>2026-05-02T05:43:03.497Z</time></trkpt><trkpt lat="41.1379233" lon="14.2032833"><ele>24.0</ele><time>2026-05-02T05:43:04.496Z</time></trkpt><trkpt lat="41.1380733" lon="14.2030683"><ele>24.0</ele><time>2026-05-02T05:43:05.496Z</time></trkpt><trkpt lat="41.1382317" lon="14.2028583"><ele>24.0</ele><time>2026-05-02T05:43:06.496Z</time></trkpt><trkpt lat="41.1383917" lon="14.2026483"><ele>24.0</ele><time>2026-05-02T05:43:07.496Z</time></trkpt><trkpt lat="41.138555" lon="14.202445"><ele>24.333333333333336</ele><time>2026-05-02T05:43:08.496Z</time></trkpt><trkpt lat="41.1387217" lon="14.202245"><ele>24.666666666666668</ele><time>2026-05-02T05:43:09.496Z</time></trkpt><trkpt lat="41.138885" lon="14.2020483"><ele>25.0</ele><time>2026-05-02T05:43:10.496Z</time></trkpt><trkpt lat="41.139045" lon="14.201855"><ele>25.0</ele><time>2026-05-02T05:43:11.496Z</time></trkpt><trkpt lat="41.1392083" lon="14.2016683"><ele>25.0</ele><time>2026-05-02T05:43:12.496Z</time></trkpt><trkpt lat="41.1393683" lon="14.20148"><ele>25.0</ele><time>2026-05-02T05:43:13.497Z</time></trkpt><trkpt lat="41.139535" lon="14.2012967"><ele>25.0</ele><time>2026-05-02T05:43:14.497Z</time></trkpt><trkpt lat="41.1397033" lon="14.2011183"><ele>25.0</ele><time>2026-05-02T05:43:15.496Z</time></trkpt><trkpt lat="41.139875" lon="14.2009383"><ele>25.0</ele><time>2026-05-02T05:43:16.496Z</time></trkpt><trkpt lat="41.140045" lon="14.2007633"><ele>25.333333333333336</ele><time>2026-05-02T05:43:17.496Z</time></trkpt><trkpt lat="41.140215" lon="14.20059"><ele>25.666666666666664</ele><time>2026-05-02T05:43:18.496Z</time></trkpt><trkpt lat="41.1403867" lon="14.2004217"><ele>26.0</ele><time>2026-05-02T05:43:19.496Z</time></trkpt><trkpt lat="41.14056" lon="14.2002533"><ele>25.666666666666664</ele><time>2026-05-02T05:43:20.496Z</time></trkpt><trkpt lat="41.140735" lon="14.200095"><ele>25.333333333333336</ele><time>2026-05-02T05:43:21.496Z</time></trkpt><trkpt lat="41.1409083" lon="14.1999383"><ele>25.0</ele><time>2026-05-02T05:43:22.497Z</time></trkpt><trkpt lat="41.14108" lon="14.1997783"><ele>26.0</ele><time>2026-05-02T05:43:23.496Z</time></trkpt><trkpt lat="41.1412533" lon="14.1996267"><ele>27.0</ele><time>2026-05-02T05:43:24.496Z</time></trkpt><trkpt lat="41.14143" lon="14.1994683"><ele>28.0</ele><time>2026-05-02T05:43:25.496Z</time></trkpt><trkpt lat="41.1416017" lon="14.1993117"><ele>28.333333333333336</ele><time>2026-05-02T05:43:26.496Z</time></trkpt><trkpt lat="41.141775" lon="14.19915"><ele>28.666666666666664</ele><time>2026-05-02T05:43:27.496Z</time></trkpt><trkpt lat="41.1419483" lon="14.1989933"><ele>29.0</ele><time>2026-05-02T05:43:28.496Z</time></trkpt><trkpt lat="41.1421167" lon="14.1988333"><ele>29.333333333333332</ele><time>2026-05-02T05:43:29.496Z</time></trkpt><trkpt lat="41.14229" lon="14.1986717"><ele>29.666666666666664</ele><time>2026-05-02T05:43:30.496Z</time></trkpt><trkpt lat="41.142465" lon="14.198505"><ele>30.0</ele><time>2026-05-02T05:43:31.496Z</time></trkpt><trkpt lat="41.1426417" lon="14.1983467"><ele>30.666666666666664</ele><time>2026-05-02T05:43:32.496Z</time></trkpt><trkpt lat="41.1428217" lon="14.198185"><ele>31.333333333333332</ele><time>2026-05-02T05:43:33.497Z</time></trkpt><trkpt lat="41.1430017" lon="14.198025"><ele>32.0</ele><time>2026-05-02T05:43:34.496Z</time></trkpt><trkpt lat="41.1431767" lon="14.1978583"><ele>31.666666666666664</ele><time>2026-05-02T05:43:35.496Z</time></trkpt><trkpt lat="41.143355" lon="14.197695"><ele>31.333333333333336</ele><time>2026-05-02T05:43:36.496Z</time></trkpt><trkpt lat="41.1435333" lon="14.197535"><ele>31.0</ele><time>2026-05-02T05:43:37.496Z</time></trkpt><trkpt lat="41.1437083" lon="14.1973683"><ele>30.666666666666668</ele><time>2026-05-02T05:43:38.496Z</time></trkpt><trkpt lat="41.14389" lon="14.19721"><ele>30.333333333333336</ele><time>2026-05-02T05:43:39.496Z</time></trkpt><trkpt lat="41.14407" lon="14.1970367"><ele>30.0</ele><time>2026-05-02T05:43:40.496Z</time></trkpt><trkpt lat="41.14425" lon="14.196875"><ele>30.0</ele><time>2026-05-02T05:43:41.497Z</time></trkpt><trkpt lat="41.1444317" lon="14.1967067"><ele>30.0</ele><time>2026-05-02T05:43:42.497Z</time></trkpt><trkpt lat="41.144615" lon="14.1965417"><ele>30.0</ele><time>2026-05-02T05:43:43.496Z</time></trkpt><trkpt lat="41.14479" lon="14.1963767"><ele>30.333333333333336</ele><time>2026-05-02T05:43:44.496Z</time></trkpt><trkpt lat="41.1449667" lon="14.196215"><ele>30.666666666666668</ele><time>2026-05-02T05:43:45.496Z</time></trkpt><trkpt lat="41.1451433" lon="14.19606"><ele>31.0</ele><time>2026-05-02T05:43:46.496Z</time></trkpt><trkpt lat="41.145315" lon="14.1958933"><ele>31.0</ele><time>2026-05-02T05:43:47.496Z</time></trkpt><trkpt lat="41.14549" lon="14.1957367"><ele>31.0</ele><time>2026-05-02T05:43:48.496Z</time></trkpt><trkpt lat="41.1456683" lon="14.19557"><ele>31.0</ele><time>2026-05-02T05:43:49.497Z</time></trkpt><trkpt lat="41.1458483" lon="14.1954083"><ele>30.0</ele><time>2026-05-02T05:43:50.496Z</time></trkpt><trkpt lat="41.1460267" lon="14.195245"><ele>29.0</ele><time>2026-05-02T05:43:51.496Z</time></trkpt><trkpt lat="41.146205" lon="14.1950783"><ele>28.0</ele><time>2026-05-02T05:43:52.496Z</time></trkpt><trkpt lat="41.1463883" lon="14.1949133"><ele>28.333333333333336</ele><time>2026-05-02T05:43:53.496Z</time></trkpt><trkpt lat="41.146565" lon="14.194745"><ele>28.666666666666664</ele><time>2026-05-02T05:43:54.496Z</time></trkpt><trkpt lat="41.1467433" lon="14.19458"><ele>29.0</ele><time>2026-05-02T05:43:55.496Z</time></trkpt><trkpt lat="41.14692" lon="14.1944067"><ele>29.0</ele><time>2026-05-02T05:43:56.496Z</time></trkpt><trkpt lat="41.147105" lon="14.1942417"><ele>29.0</ele><time>2026-05-02T05:43:57.496Z</time></trkpt><trkpt lat="41.14729" lon="14.194075"><ele>29.0</ele><time>2026-05-02T05:43:58.496Z</time></trkpt><trkpt lat="41.1474733" lon="14.1939067"><ele>29.333333333333332</ele><time>2026-05-02T05:43:59.496Z</time></trkpt><trkpt lat="41.1476583" lon="14.1937467"><ele>29.666666666666664</ele><time>2026-05-02T05:44:00.496Z</time></trkpt><trkpt lat="41.1478417" lon="14.1935783"><ele>30.0</ele><time>2026-05-02T05:44:01.496Z</time></trkpt><trkpt lat="41.148025" lon="14.1934083"><ele>30.0</ele><time>2026-05-02T05:44:02.496Z</time></trkpt><trkpt lat="41.148205" lon="14.1932383"><ele>30.0</ele><time>2026-05-02T05:44:03.496Z</time></trkpt><trkpt lat="41.1483867" lon="14.19307"><ele>30.0</ele><time>2026-05-02T05:44:04.496Z</time></trkpt><trkpt lat="41.1485683" lon="14.192905"><ele>30.333333333333336</ele><time>2026-05-02T05:44:05.496Z</time></trkpt><trkpt lat="41.14875" lon="14.192735"><ele>30.666666666666668</ele><time>2026-05-02T05:44:06.496Z</time></trkpt><trkpt lat="41.1489283" lon="14.1925667"><ele>31.0</ele><time>2026-05-02T05:44:07.496Z</time></trkpt><trkpt lat="41.1491083" lon="14.192405"><ele>30.666666666666668</ele><time>2026-05-02T05:44:08.496Z</time></trkpt><trkpt lat="41.149285" lon="14.1922383"><ele>30.333333333333336</ele><time>2026-05-02T05:44:09.496Z</time></trkpt><trkpt lat="41.1494633" lon="14.1920833"><ele>30.0</ele><time>2026-05-02T05:44:10.496Z</time></trkpt><trkpt lat="41.14964" lon="14.1919267"><ele>30.0</ele><time>2026-05-02T05:44:11.496Z</time></trkpt><trkpt lat="41.149815" lon="14.1917633"><ele>30.0</ele><time>2026-05-02T05:44:12.496Z</time></trkpt><trkpt lat="41.1499867" lon="14.1916033"><ele>30.0</ele><time>2026-05-02T05:44:13.496Z</time></trkpt><trkpt lat="41.15016" lon="14.1914433"><ele>30.333333333333336</ele><time>2026-05-02T05:44:14.496Z</time></trkpt><trkpt lat="41.1503333" lon="14.1912867"><ele>30.666666666666668</ele><time>2026-05-02T05:44:15.496Z</time></trkpt><trkpt lat="41.1505067" lon="14.191125"><ele>31.0</ele><time>2026-05-02T05:44:16.496Z</time></trkpt><trkpt lat="41.1506833" lon="14.1909633"><ele>31.333333333333336</ele><time>2026-05-02T05:44:17.496Z</time></trkpt><trkpt lat="41.1508583" lon="14.1908"><ele>31.666666666666664</ele><time>2026-05-02T05:44:18.496Z</time></trkpt><trkpt lat="41.1510367" lon="14.19064"><ele>32.0</ele><time>2026-05-02T05:44:19.496Z</time></trkpt><trkpt lat="41.1512167" lon="14.1904767"><ele>32.33333333333333</ele><time>2026-05-02T05:44:20.497Z</time></trkpt><trkpt lat="41.151395" lon="14.19031"><ele>32.666666666666664</ele><time>2026-05-02T05:44:21.496Z</time></trkpt><trkpt lat="41.151575" lon="14.1901467"><ele>33.0</ele><time>2026-05-02T05:44:22.496Z</time></trkpt><trkpt lat="41.1517567" lon="14.1899933"><ele>35.0</ele><time>2026-05-02T05:44:23.496Z</time></trkpt><trkpt lat="41.15194" lon="14.189825"><ele>37.0</ele><time>2026-05-02T05:44:24.496Z</time></trkpt><trkpt lat="41.1521183" lon="14.189655"><ele>39.0</ele><time>2026-05-02T05:44:25.497Z</time></trkpt><trkpt lat="41.1523" lon="14.18949"><ele>38.333333333333336</ele><time>2026-05-02T05:44:26.496Z</time></trkpt><trkpt lat="41.1524833" lon="14.18932"><ele>37.66666666666667</ele><time>2026-05-02T05:44:27.496Z</time></trkpt><trkpt lat="41.1526667" lon="14.1891517"><ele>37.0</ele><time>2026-05-02T05:44:28.496Z</time></trkpt><trkpt lat="41.1528517" lon="14.1889833"><ele>37.0</ele><time>2026-05-02T05:44:29.496Z</time></trkpt><trkpt lat="41.1530333" lon="14.18881"><ele>37.0</ele><time>2026-05-02T05:44:30.497Z</time></trkpt><trkpt lat="41.1532183" lon="14.18864"><ele>37.0</ele><time>2026-05-02T05:44:31.496Z</time></trkpt><trkpt lat="41.1533983" lon="14.18847"><ele>37.333333333333336</ele><time>2026-05-02T05:44:32.496Z</time></trkpt><trkpt lat="41.15358" lon="14.1883"><ele>37.666666666666664</ele><time>2026-05-02T05:44:33.496Z</time></trkpt><trkpt lat="41.15376" lon="14.18813"><ele>38.0</ele><time>2026-05-02T05:44:34.496Z</time></trkpt><trkpt lat="41.1539417" lon="14.187965"><ele>38.0</ele><time>2026-05-02T05:44:35.496Z</time></trkpt><trkpt lat="41.1541267" lon="14.1877983"><ele>38.0</ele><time>2026-05-02T05:44:36.496Z</time></trkpt><trkpt lat="41.1543083" lon="14.1876333"><ele>38.0</ele><time>2026-05-02T05:44:37.496Z</time></trkpt><trkpt lat="41.1544883" lon="14.1874683"><ele>37.666666666666664</ele><time>2026-05-02T05:44:38.496Z</time></trkpt><trkpt lat="41.1546633" lon="14.1873083"><ele>37.333333333333336</ele><time>2026-05-02T05:44:39.496Z</time></trkpt><trkpt lat="41.15484" lon="14.1871467"><ele>37.0</ele><time>2026-05-02T05:44:40.496Z</time></trkpt><trkpt lat="41.1550133" lon="14.186985"><ele>36.333333333333336</ele><time>2026-05-02T05:44:41.496Z</time></trkpt><trkpt lat="41.1551883" lon="14.186825"><ele>35.666666666666664</ele><time>2026-05-02T05:44:42.496Z</time></trkpt><trkpt lat="41.1553583" lon="14.186665"><ele>35.0</ele><time>2026-05-02T05:44:43.496Z</time></trkpt><trkpt lat="41.1555283" lon="14.1865083"><ele>35.33333333333333</ele><time>2026-05-02T05:44:44.496Z</time></trkpt><trkpt lat="41.155695" lon="14.1863483"><ele>35.666666666666664</ele><time>2026-05-02T05:44:45.496Z</time></trkpt><trkpt lat="41.1558633" lon="14.1861983"><ele>36.0</ele><time>2026-05-02T05:44:46.496Z</time></trkpt><trkpt lat="41.1560317" lon="14.1860483"><ele>36.0</ele><time>2026-05-02T05:44:47.496Z</time></trkpt><trkpt lat="41.1562033" lon="14.1858967"><ele>36.0</ele><time>2026-05-02T05:44:48.496Z</time></trkpt><trkpt lat="41.1563717" lon="14.1857383"><ele>36.0</ele><time>2026-05-02T05:44:49.496Z</time></trkpt><trkpt lat="41.1565417" lon="14.1855867"><ele>37.333333333333336</ele><time>2026-05-02T05:44:50.496Z</time></trkpt><trkpt lat="41.156705" lon="14.1854317"><ele>38.66666666666667</ele><time>2026-05-02T05:44:51.496Z</time></trkpt><trkpt lat="41.1568733" lon="14.1852783"><ele>40.0</ele><time>2026-05-02T05:44:52.496Z</time></trkpt><trkpt lat="41.1570417" lon="14.1851233"><ele>40.0</ele><time>2026-05-02T05:44:53.496Z</time></trkpt><trkpt lat="41.1572133" lon="14.1849667"><ele>40.0</ele><time>2026-05-02T05:44:54.496Z</time></trkpt><trkpt lat="41.1573867" lon="14.1848083"><ele>40.0</ele><time>2026-05-02T05:44:55.496Z</time></trkpt><trkpt lat="41.1575583" lon="14.18465"><ele>40.66666666666667</ele><time>2026-05-02T05:44:56.496Z</time></trkpt><trkpt lat="41.15773" lon="14.1844917"><ele>41.333333333333336</ele><time>2026-05-02T05:44:57.496Z</time></trkpt><trkpt lat="41.1579033" lon="14.1843333"><ele>42.0</ele><time>2026-05-02T05:44:58.496Z</time></trkpt><trkpt lat="41.15808" lon="14.1841717"><ele>42.333333333333336</ele><time>2026-05-02T05:44:59.496Z</time></trkpt><trkpt lat="41.1582533" lon="14.18401"><ele>42.66666666666667</ele><time>2026-05-02T05:45:00.496Z</time></trkpt><trkpt lat="41.1584283" lon="14.183845"><ele>43.0</ele><time>2026-05-02T05:45:01.496Z</time></trkpt><trkpt lat="41.158605" lon="14.1836817"><ele>43.0</ele><time>2026-05-02T05:45:02.496Z</time></trkpt><trkpt lat="41.1587867" lon="14.18352"><ele>43.0</ele><time>2026-05-02T05:45:03.496Z</time></trkpt><trkpt lat="41.158965" lon="14.18335"><ele>43.0</ele><time>2026-05-02T05:45:04.496Z</time></trkpt><trkpt lat="41.15914" lon="14.18319"><ele>42.66666666666667</ele><time>2026-05-02T05:45:05.496Z</time></trkpt><trkpt lat="41.1593183" lon="14.1830233"><ele>42.333333333333336</ele><time>2026-05-02T05:45:06.496Z</time></trkpt><trkpt lat="41.1594983" lon="14.1828583"><ele>42.0</ele><time>2026-05-02T05:45:07.497Z</time></trkpt><trkpt lat="41.1596783" lon="14.1826933"><ele>42.0</ele><time>2026-05-02T05:45:08.496Z</time></trkpt><trkpt lat="41.1598567" lon="14.18253"><ele>42.0</ele><time>2026-05-02T05:45:09.496Z</time></trkpt><trkpt lat="41.160035" lon="14.182365"><ele>42.0</ele><time>2026-05-02T05:45:10.496Z</time></trkpt><trkpt lat="41.1602133" lon="14.1822067"><ele>42.666666666666664</ele><time>2026-05-02T05:45:11.496Z</time></trkpt><trkpt lat="41.1603917" lon="14.1820433"><ele>43.33333333333333</ele><time>2026-05-02T05:45:12.496Z</time></trkpt><trkpt lat="41.1605717" lon="14.1818783"><ele>44.0</ele><time>2026-05-02T05:45:13.496Z</time></trkpt><trkpt lat="41.1607467" lon="14.1817117"><ele>44.0</ele><time>2026-05-02T05:45:14.496Z</time></trkpt><trkpt lat="41.1609267" lon="14.1815517"><ele>44.0</ele><time>2026-05-02T05:45:15.496Z</time></trkpt><trkpt lat="41.1611083" lon="14.1813867"><ele>44.0</ele><time>2026-05-02T05:45:16.496Z</time></trkpt><trkpt lat="41.1612917" lon="14.1812183"><ele>45.0</ele><time>2026-05-02T05:45:17.496Z</time></trkpt><trkpt lat="41.1614717" lon="14.181045"><ele>46.0</ele><time>2026-05-02T05:45:18.496Z</time></trkpt><trkpt lat="41.16165" lon="14.180875"><ele>47.0</ele><time>2026-05-02T05:45:19.496Z</time></trkpt><trkpt lat="41.161835" lon="14.1806983"><ele>46.666666666666664</ele><time>2026-05-02T05:45:20.496Z</time></trkpt><trkpt lat="41.1620167" lon="14.1805267"><ele>46.333333333333336</ele><time>2026-05-02T05:45:21.496Z</time></trkpt><trkpt lat="41.162195" lon="14.18036"><ele>46.0</ele><time>2026-05-02T05:45:22.496Z</time></trkpt><trkpt lat="41.1623767" lon="14.1801867"><ele>46.0</ele><time>2026-05-02T05:45:23.496Z</time></trkpt><trkpt lat="41.16256" lon="14.1800133"><ele>46.0</ele><time>2026-05-02T05:45:24.496Z</time></trkpt><trkpt lat="41.162745" lon="14.1798483"><ele>46.0</ele><time>2026-05-02T05:45:25.496Z</time></trkpt><trkpt lat="41.1629283" lon="14.1796817"><ele>46.0</ele><time>2026-05-02T05:45:26.496Z</time></trkpt><trkpt lat="41.16311" lon="14.179515"><ele>46.0</ele><time>2026-05-02T05:45:27.496Z</time></trkpt><trkpt lat="41.1632917" lon="14.179355"><ele>46.0</ele><time>2026-05-02T05:45:28.497Z</time></trkpt><trkpt lat="41.1634717" lon="14.179195"><ele>47.333333333333336</ele><time>2026-05-02T05:45:29.497Z</time></trkpt><trkpt lat="41.1636533" lon="14.179045"><ele>48.66666666666667</ele><time>2026-05-02T05:45:30.497Z</time></trkpt><trkpt lat="41.1638283" lon="14.1788867"><ele>50.0</ele><time>2026-05-02T05:45:31.497Z</time></trkpt><trkpt lat="41.1639967" lon="14.1787267"><ele>49.0</ele><time>2026-05-02T05:45:32.497Z</time></trkpt><trkpt lat="41.164165" lon="14.1785733"><ele>48.0</ele><time>2026-05-02T05:45:33.497Z</time></trkpt><trkpt lat="41.1643333" lon="14.17842"><ele>47.0</ele><time>2026-05-02T05:45:34.497Z</time></trkpt><trkpt lat="41.1645033" lon="14.1782617"><ele>47.33333333333333</ele><time>2026-05-02T05:45:35.497Z</time></trkpt><trkpt lat="41.1646783" lon="14.1781083"><ele>47.666666666666664</ele><time>2026-05-02T05:45:36.497Z</time></trkpt><trkpt lat="41.1648483" lon="14.1779483"><ele>48.0</ele><time>2026-05-02T05:45:37.497Z</time></trkpt><trkpt lat="41.1650233" lon="14.177785"><ele>48.0</ele><time>2026-05-02T05:45:38.497Z</time></trkpt><trkpt lat="41.1652" lon="14.1776283"><ele>48.0</ele><time>2026-05-02T05:45:39.497Z</time></trkpt><trkpt lat="41.1653783" lon="14.1774633"><ele>48.0</ele><time>2026-05-02T05:45:40.497Z</time></trkpt><trkpt lat="41.165555" lon="14.177305"><ele>47.666666666666664</ele><time>2026-05-02T05:45:41.497Z</time></trkpt><trkpt lat="41.1657283" lon="14.1771517"><ele>47.33333333333333</ele><time>2026-05-02T05:45:42.497Z</time></trkpt><trkpt lat="41.1659017" lon="14.1769883"><ele>47.0</ele><time>2026-05-02T05:45:43.497Z</time></trkpt><trkpt lat="41.1660733" lon="14.176825"><ele>47.0</ele><time>2026-05-02T05:45:44.497Z</time></trkpt><trkpt lat="41.166245" lon="14.176665"><ele>47.0</ele><time>2026-05-02T05:45:45.497Z</time></trkpt><trkpt lat="41.1664167" lon="14.176505"><ele>47.0</ele><time>2026-05-02T05:45:46.497Z</time></trkpt><trkpt lat="41.16659" lon="14.17634"><ele>47.33333333333333</ele><time>2026-05-02T05:45:47.497Z</time></trkpt><trkpt lat="41.1667633" lon="14.17618"><ele>47.666666666666664</ele><time>2026-05-02T05:45:48.497Z</time></trkpt><trkpt lat="41.166935" lon="14.1760233"><ele>48.0</ele><time>2026-05-02T05:45:49.497Z</time></trkpt><trkpt lat="41.1671117" lon="14.1758617"><ele>48.0</ele><time>2026-05-02T05:45:50.497Z</time></trkpt><trkpt lat="41.16729" lon="14.1757017"><ele>48.0</ele><time>2026-05-02T05:45:51.497Z</time></trkpt><trkpt lat="41.1674683" lon="14.1755433"><ele>48.0</ele><time>2026-05-02T05:45:52.497Z</time></trkpt><trkpt lat="41.1676433" lon="14.1753817"><ele>48.33333333333333</ele><time>2026-05-02T05:45:53.497Z</time></trkpt><trkpt lat="41.1678167" lon="14.1752167"><ele>48.666666666666664</ele><time>2026-05-02T05:45:54.497Z</time></trkpt><trkpt lat="41.1679933" lon="14.1750483"><ele>49.0</ele><time>2026-05-02T05:45:55.497Z</time></trkpt><trkpt lat="41.168175" lon="14.174885"><ele>49.0</ele><time>2026-05-02T05:45:56.497Z</time></trkpt><trkpt lat="41.168355" lon="14.17472"><ele>49.0</ele><time>2026-05-02T05:45:57.497Z</time></trkpt><trkpt lat="41.168535" lon="14.174555"><ele>49.0</ele><time>2026-05-02T05:45:58.497Z</time></trkpt><trkpt lat="41.168715" lon="14.1743917"><ele>49.0</ele><time>2026-05-02T05:45:59.498Z</time></trkpt><trkpt lat="41.1688933" lon="14.17423"><ele>49.0</ele><time>2026-05-02T05:46:00.497Z</time></trkpt><trkpt lat="41.1690683" lon="14.1740717"><ele>49.0</ele><time>2026-05-02T05:46:01.497Z</time></trkpt><trkpt lat="41.1692433" lon="14.17391"><ele>49.33333333333333</ele><time>2026-05-02T05:46:02.497Z</time></trkpt><trkpt lat="41.169415" lon="14.1737517"><ele>49.66666666666667</ele><time>2026-05-02T05:46:03.497Z</time></trkpt><trkpt lat="41.1695883" lon="14.1735983"><ele>50.0</ele><time>2026-05-02T05:46:04.497Z</time></trkpt><trkpt lat="41.1697583" lon="14.1734433"><ele>50.333333333333336</ele><time>2026-05-02T05:46:05.497Z</time></trkpt><trkpt lat="41.16993" lon="14.17328"><ele>50.66666666666667</ele><time>2026-05-02T05:46:06.497Z</time></trkpt><trkpt lat="41.1701" lon="14.1731183"><ele>51.0</ele><time>2026-05-02T05:46:07.497Z</time></trkpt><trkpt lat="41.1702733" lon="14.1729567"><ele>51.0</ele><time>2026-05-02T05:46:08.497Z</time></trkpt><trkpt lat="41.17045" lon="14.1727983"><ele>51.0</ele><time>2026-05-02T05:46:09.497Z</time></trkpt><trkpt lat="41.1706367" lon="14.172645"><ele>51.0</ele><time>2026-05-02T05:46:10.497Z</time></trkpt><trkpt lat="41.1708067" lon="14.1724867"><ele>50.66666666666667</ele><time>2026-05-02T05:46:11.497Z</time></trkpt><trkpt lat="41.1709767" lon="14.1723233"><ele>50.333333333333336</ele><time>2026-05-02T05:46:12.497Z</time></trkpt><trkpt lat="41.1711517" lon="14.172165"><ele>50.0</ele><time>2026-05-02T05:46:13.497Z</time></trkpt><trkpt lat="41.1713267" lon="14.1720067"><ele>50.0</ele><time>2026-05-02T05:46:14.497Z</time></trkpt><trkpt lat="41.1715033" lon="14.1718517"><ele>50.0</ele><time>2026-05-02T05:46:15.497Z</time></trkpt><trkpt lat="41.1716817" lon="14.1716917"><ele>50.0</ele><time>2026-05-02T05:46:16.497Z</time></trkpt><trkpt lat="41.17186" lon="14.1715233"><ele>50.66666666666667</ele><time>2026-05-02T05:46:17.497Z</time></trkpt><trkpt lat="41.1720383" lon="14.1713583"><ele>51.33333333333333</ele><time>2026-05-02T05:46:18.497Z</time></trkpt><trkpt lat="41.1722183" lon="14.1711867"><ele>52.0</ele><time>2026-05-02T05:46:19.497Z</time></trkpt><trkpt lat="41.1724" lon="14.1710183"><ele>52.0</ele><time>2026-05-02T05:46:20.498Z</time></trkpt><trkpt lat="41.172575" lon="14.1708467"><ele>52.0</ele><time>2026-05-02T05:46:21.497Z</time></trkpt><trkpt lat="41.1727567" lon="14.1706867"><ele>52.0</ele><time>2026-05-02T05:46:22.498Z</time></trkpt><trkpt lat="41.1729333" lon="14.1705217"><ele>52.666666666666664</ele><time>2026-05-02T05:46:23.497Z</time></trkpt><trkpt lat="41.1731167" lon="14.1703633"><ele>53.33333333333333</ele><time>2026-05-02T05:46:24.497Z</time></trkpt><trkpt lat="41.17329" lon="14.1701917"><ele>54.0</ele><time>2026-05-02T05:46:25.497Z</time></trkpt><trkpt lat="41.1734633" lon="14.170035"><ele>54.0</ele><time>2026-05-02T05:46:26.497Z</time></trkpt><trkpt lat="41.1736367" lon="14.1698717"><ele>54.0</ele><time>2026-05-02T05:46:27.497Z</time></trkpt><trkpt lat="41.17381" lon="14.1697067"><ele>54.0</ele><time>2026-05-02T05:46:28.497Z</time></trkpt><trkpt lat="41.17398" lon="14.169545"><ele>53.66666666666667</ele><time>2026-05-02T05:46:29.497Z</time></trkpt><trkpt lat="41.1741517" lon="14.1693833"><ele>53.333333333333336</ele><time>2026-05-02T05:46:30.497Z</time></trkpt><trkpt lat="41.17432" lon="14.1692217"><ele>53.0</ele><time>2026-05-02T05:46:31.497Z</time></trkpt><trkpt lat="41.1744933" lon="14.16907"><ele>52.66666666666667</ele><time>2026-05-02T05:46:32.497Z</time></trkpt><trkpt lat="41.174665" lon="14.16892"><ele>52.33333333333333</ele><time>2026-05-02T05:46:33.497Z</time></trkpt><trkpt lat="41.1748333" lon="14.1687667"><ele>52.0</ele><time>2026-05-02T05:46:34.497Z</time></trkpt><trkpt lat="41.1750033" lon="14.1686083"><ele>52.33333333333333</ele><time>2026-05-02T05:46:35.497Z</time></trkpt><trkpt lat="41.1751733" lon="14.1684517"><ele>52.66666666666667</ele><time>2026-05-02T05:46:36.497Z</time></trkpt><trkpt lat="41.175345" lon="14.1682967"><ele>53.0</ele><time>2026-05-02T05:46:37.497Z</time></trkpt><trkpt lat="41.17552" lon="14.1681383"><ele>53.333333333333336</ele><time>2026-05-02T05:46:38.497Z</time></trkpt><trkpt lat="41.1756883" lon="14.1679817"><ele>53.66666666666667</ele><time>2026-05-02T05:46:39.497Z</time></trkpt><trkpt lat="41.1758583" lon="14.1678233"><ele>54.0</ele><time>2026-05-02T05:46:40.497Z</time></trkpt><trkpt lat="41.17603" lon="14.1676633"><ele>54.0</ele><time>2026-05-02T05:46:41.497Z</time></trkpt><trkpt lat="41.1761983" lon="14.167505"><ele>54.0</ele><time>2026-05-02T05:46:42.497Z</time></trkpt><trkpt lat="41.176365" lon="14.167355"><ele>54.0</ele><time>2026-05-02T05:46:43.497Z</time></trkpt><trkpt lat="41.1765333" lon="14.1672033"><ele>54.0</ele><time>2026-05-02T05:46:44.497Z</time></trkpt><trkpt lat="41.1767" lon="14.1670533"><ele>54.0</ele><time>2026-05-02T05:46:45.497Z</time></trkpt><trkpt lat="41.176865" lon="14.1668967"><ele>54.0</ele><time>2026-05-02T05:46:46.498Z</time></trkpt><trkpt lat="41.1770283" lon="14.1667417"><ele>54.0</ele><time>2026-05-02T05:46:47.497Z</time></trkpt><trkpt lat="41.17719" lon="14.16659"><ele>54.0</ele><time>2026-05-02T05:46:48.497Z</time></trkpt><trkpt lat="41.1773517" lon="14.16644"><ele>54.0</ele><time>2026-05-02T05:46:49.497Z</time></trkpt><trkpt lat="41.177515" lon="14.1662867"><ele>54.33333333333333</ele><time>2026-05-02T05:46:50.497Z</time></trkpt><trkpt lat="41.1776833" lon="14.166135"><ele>54.666666666666664</ele><time>2026-05-02T05:46:51.497Z</time></trkpt><trkpt lat="41.177845" lon="14.1659917"><ele>55.0</ele><time>2026-05-02T05:46:52.497Z</time></trkpt><trkpt lat="41.1780133" lon="14.165845"><ele>54.666666666666664</ele><time>2026-05-02T05:46:53.497Z</time></trkpt><trkpt lat="41.1781767" lon="14.1656917"><ele>54.33333333333333</ele><time>2026-05-02T05:46:54.497Z</time></trkpt><trkpt lat="41.1783367" lon="14.165545"><ele>54.0</ele><time>2026-05-02T05:46:55.497Z</time></trkpt><trkpt lat="41.1784983" lon="14.1653967"><ele>54.66666666666667</ele><time>2026-05-02T05:46:56.497Z</time></trkpt><trkpt lat="41.1786667" lon="14.16524"><ele>55.333333333333336</ele><time>2026-05-02T05:46:57.497Z</time></trkpt><trkpt lat="41.1788267" lon="14.1650883"><ele>56.0</ele><time>2026-05-02T05:46:58.497Z</time></trkpt><trkpt lat="41.1789867" lon="14.164945"><ele>56.0</ele><time>2026-05-02T05:46:59.497Z</time></trkpt><trkpt lat="41.179145" lon="14.1648"><ele>56.0</ele><time>2026-05-02T05:47:00.497Z</time></trkpt><trkpt lat="41.1793017" lon="14.1646517"><ele>56.0</ele><time>2026-05-02T05:47:01.497Z</time></trkpt><trkpt lat="41.179465" lon="14.1645033"><ele>56.0</ele><time>2026-05-02T05:47:02.497Z</time></trkpt><trkpt lat="41.1796283" lon="14.1643567"><ele>56.0</ele><time>2026-05-02T05:47:03.497Z</time></trkpt><trkpt lat="41.1797933" lon="14.1642067"><ele>56.0</ele><time>2026-05-02T05:47:04.497Z</time></trkpt><trkpt lat="41.1799633" lon="14.1640533"><ele>56.66666666666667</ele><time>2026-05-02T05:47:05.497Z</time></trkpt><trkpt lat="41.18013" lon="14.1638967"><ele>57.33333333333333</ele><time>2026-05-02T05:47:06.497Z</time></trkpt><trkpt lat="41.180295" lon="14.16374"><ele>58.0</ele><time>2026-05-02T05:47:07.497Z</time></trkpt><trkpt lat="41.1804583" lon="14.1635883"><ele>58.0</ele><time>2026-05-02T05:47:08.497Z</time></trkpt><trkpt lat="41.1806267" lon="14.1634283"><ele>58.0</ele><time>2026-05-02T05:47:09.497Z</time></trkpt><trkpt lat="41.1807983" lon="14.1632717"><ele>58.0</ele><time>2026-05-02T05:47:10.497Z</time></trkpt><trkpt lat="41.1809667" lon="14.1631133"><ele>58.33333333333333</ele><time>2026-05-02T05:47:11.497Z</time></trkpt><trkpt lat="41.18114" lon="14.162955"><ele>58.66666666666667</ele><time>2026-05-02T05:47:12.497Z</time></trkpt><trkpt lat="41.1813133" lon="14.1627967"><ele>59.0</ele><time>2026-05-02T05:47:13.497Z</time></trkpt><trkpt lat="41.1814867" lon="14.1626367"><ele>59.0</ele><time>2026-05-02T05:47:14.497Z</time></trkpt><trkpt lat="41.181665" lon="14.16248"><ele>59.0</ele><time>2026-05-02T05:47:15.497Z</time></trkpt><trkpt lat="41.1818433" lon="14.1623133"><ele>59.0</ele><time>2026-05-02T05:47:16.497Z</time></trkpt><trkpt lat="41.1820217" lon="14.1621467"><ele>59.0</ele><time>2026-05-02T05:47:17.497Z</time></trkpt><trkpt lat="41.1822" lon="14.16198"><ele>59.0</ele><time>2026-05-02T05:47:18.497Z</time></trkpt><trkpt lat="41.1823833" lon="14.161815"><ele>59.0</ele><time>2026-05-02T05:47:19.498Z</time></trkpt><trkpt lat="41.1825667" lon="14.16165"><ele>59.66666666666667</ele><time>2026-05-02T05:47:20.497Z</time></trkpt><trkpt lat="41.1827433" lon="14.161485"><ele>60.33333333333333</ele><time>2026-05-02T05:47:21.497Z</time></trkpt><trkpt lat="41.1829233" lon="14.16132"><ele>61.0</ele><time>2026-05-02T05:47:22.497Z</time></trkpt><trkpt lat="41.1831033" lon="14.16115"><ele>61.666666666666664</ele><time>2026-05-02T05:47:23.497Z</time></trkpt><trkpt lat="41.1832833" lon="14.1609817"><ele>62.33333333333333</ele><time>2026-05-02T05:47:24.497Z</time></trkpt><trkpt lat="41.1834633" lon="14.16081"><ele>63.0</ele><time>2026-05-02T05:47:25.497Z</time></trkpt><trkpt lat="41.183645" lon="14.1606433"><ele>63.0</ele><time>2026-05-02T05:47:26.497Z</time></trkpt><trkpt lat="41.1838283" lon="14.1604783"><ele>63.0</ele><time>2026-05-02T05:47:27.497Z</time></trkpt><trkpt lat="41.18401" lon="14.1603217"><ele>63.0</ele><time>2026-05-02T05:47:28.498Z</time></trkpt><trkpt lat="41.1841833" lon="14.160165"><ele>63.33333333333333</ele><time>2026-05-02T05:47:29.497Z</time></trkpt><trkpt lat="41.1843583" lon="14.16001"><ele>63.666666666666664</ele><time>2026-05-02T05:47:30.497Z</time></trkpt><trkpt lat="41.18453" lon="14.1598517"><ele>64.0</ele><time>2026-05-02T05:47:31.497Z</time></trkpt><trkpt lat="41.1846983" lon="14.15969"><ele>65.0</ele><time>2026-05-02T05:47:32.497Z</time></trkpt><trkpt lat="41.18487" lon="14.15953"><ele>66.0</ele><time>2026-05-02T05:47:33.497Z</time></trkpt><trkpt lat="41.18504" lon="14.1593717"><ele>67.0</ele><time>2026-05-02T05:47:34.497Z</time></trkpt><trkpt lat="41.18521" lon="14.1592117"><ele>67.0</ele><time>2026-05-02T05:47:35.497Z</time></trkpt><trkpt lat="41.1853783" lon="14.15905"><ele>67.0</ele><time>2026-05-02T05:47:36.497Z</time></trkpt><trkpt lat="41.18555" lon="14.1588933"><ele>67.0</ele><time>2026-05-02T05:47:37.497Z</time></trkpt><trkpt lat="41.1857217" lon="14.1587317"><ele>67.66666666666666</ele><time>2026-05-02T05:47:38.497Z</time></trkpt><trkpt lat="41.1858933" lon="14.1585733"><ele>68.33333333333333</ele><time>2026-05-02T05:47:39.497Z</time></trkpt><trkpt lat="41.186065" lon="14.1584133"><ele>69.0</ele><time>2026-05-02T05:47:40.497Z</time></trkpt><trkpt lat="41.1862367" lon="14.1582583"><ele>69.33333333333333</ele><time>2026-05-02T05:47:41.497Z</time></trkpt><trkpt lat="41.1864133" lon="14.1580967"><ele>69.66666666666666</ele><time>2026-05-02T05:47:42.497Z</time></trkpt><trkpt lat="41.1865883" lon="14.157935"><ele>70.0</ele><time>2026-05-02T05:47:43.497Z</time></trkpt><trkpt lat="41.1867633" lon="14.1577767"><ele>70.66666666666666</ele><time>2026-05-02T05:47:44.498Z</time></trkpt><trkpt lat="41.186935" lon="14.1576183"><ele>71.33333333333333</ele><time>2026-05-02T05:47:45.497Z</time></trkpt><trkpt lat="41.1871083" lon="14.1574617"><ele>72.0</ele><time>2026-05-02T05:47:46.497Z</time></trkpt><trkpt lat="41.1872817" lon="14.1573033"><ele>72.0</ele><time>2026-05-02T05:47:47.497Z</time></trkpt><trkpt lat="41.1874583" lon="14.1571367"><ele>72.0</ele><time>2026-05-02T05:47:48.497Z</time></trkpt><trkpt lat="41.18764" lon="14.15697"><ele>72.0</ele><time>2026-05-02T05:47:49.497Z</time></trkpt><trkpt lat="41.18782" lon="14.1568067"><ele>72.0</ele><time>2026-05-02T05:47:50.497Z</time></trkpt><trkpt lat="41.1879967" lon="14.1566383"><ele>72.0</ele><time>2026-05-02T05:47:51.497Z</time></trkpt><trkpt lat="41.1881717" lon="14.1564733"><ele>72.0</ele><time>2026-05-02T05:47:52.497Z</time></trkpt><trkpt lat="41.1883533" lon="14.1563133"><ele>71.0</ele><time>2026-05-02T05:47:53.497Z</time></trkpt><trkpt lat="41.188535" lon="14.1561467"><ele>70.0</ele><time>2026-05-02T05:47:54.497Z</time></trkpt><trkpt lat="41.188715" lon="14.1559817"><ele>69.0</ele><time>2026-05-02T05:47:55.497Z</time></trkpt><trkpt lat="41.1888933" lon="14.155815"><ele>69.66666666666667</ele><time>2026-05-02T05:47:56.497Z</time></trkpt><trkpt lat="41.18907" lon="14.1556567"><ele>70.33333333333334</ele><time>2026-05-02T05:47:57.497Z</time></trkpt><trkpt lat="41.1892433" lon="14.1554967"><ele>71.0</ele><time>2026-05-02T05:47:58.497Z</time></trkpt><trkpt lat="41.1894183" lon="14.1553433"><ele>71.0</ele><time>2026-05-02T05:47:59.497Z</time></trkpt><trkpt lat="41.1895867" lon="14.1551867"><ele>71.0</ele><time>2026-05-02T05:48:00.497Z</time></trkpt><trkpt lat="41.1897533" lon="14.1550333"><ele>71.0</ele><time>2026-05-02T05:48:01.497Z</time></trkpt><trkpt lat="41.1899183" lon="14.1548783"><ele>71.66666666666667</ele><time>2026-05-02T05:48:02.497Z</time></trkpt><trkpt lat="41.1900817" lon="14.15473"><ele>72.33333333333333</ele><time>2026-05-02T05:48:03.498Z</time></trkpt><trkpt lat="41.19025" lon="14.1545767"><ele>73.0</ele><time>2026-05-02T05:48:04.497Z</time></trkpt><trkpt lat="41.190415" lon="14.154425"><ele>73.0</ele><time>2026-05-02T05:48:05.497Z</time></trkpt><trkpt lat="41.19058" lon="14.1542683"><ele>73.0</ele><time>2026-05-02T05:48:06.497Z</time></trkpt><trkpt lat="41.1907483" lon="14.15411"><ele>73.0</ele><time>2026-05-02T05:48:07.497Z</time></trkpt><trkpt lat="41.1909183" lon="14.1539533"><ele>74.0</ele><time>2026-05-02T05:48:08.497Z</time></trkpt><trkpt lat="41.1910867" lon="14.1537933"><ele>75.0</ele><time>2026-05-02T05:48:09.497Z</time></trkpt><trkpt lat="41.1912517" lon="14.1536317"><ele>76.0</ele><time>2026-05-02T05:48:10.497Z</time></trkpt><trkpt lat="41.191415" lon="14.1534667"><ele>76.33333333333333</ele><time>2026-05-02T05:48:11.497Z</time></trkpt><trkpt lat="41.191575" lon="14.153295"><ele>76.66666666666667</ele><time>2026-05-02T05:48:12.497Z</time></trkpt><trkpt lat="41.1917333" lon="14.1531217"><ele>77.0</ele><time>2026-05-02T05:48:13.497Z</time></trkpt><trkpt lat="41.19189" lon="14.1529483"><ele>77.33333333333334</ele><time>2026-05-02T05:48:14.497Z</time></trkpt><trkpt lat="41.1920483" lon="14.1527683"><ele>77.66666666666667</ele><time>2026-05-02T05:48:15.497Z</time></trkpt><trkpt lat="41.1922033" lon="14.1525883"><ele>78.0</ele><time>2026-05-02T05:48:16.497Z</time></trkpt><trkpt lat="41.19236" lon="14.1523967"><ele>78.33333333333333</ele><time>2026-05-02T05:48:17.497Z</time></trkpt><trkpt lat="41.192505" lon="14.1522133"><ele>78.66666666666666</ele><time>2026-05-02T05:48:18.497Z</time></trkpt><trkpt lat="41.1926583" lon="14.1520167"><ele>79.0</ele><time>2026-05-02T05:48:19.497Z</time></trkpt><trkpt lat="41.1928033" lon="14.1518167"><ele>79.0</ele><time>2026-05-02T05:48:20.497Z</time></trkpt><trkpt lat="41.1929517" lon="14.15162"><ele>79.0</ele><time>2026-05-02T05:48:21.497Z</time></trkpt><trkpt lat="41.1930917" lon="14.1514117"><ele>79.0</ele><time>2026-05-02T05:48:22.497Z</time></trkpt><trkpt lat="41.1932333" lon="14.1512083"><ele>78.33333333333333</ele><time>2026-05-02T05:48:23.497Z</time></trkpt><trkpt lat="41.19337" lon="14.151"><ele>77.66666666666667</ele><time>2026-05-02T05:48:24.497Z</time></trkpt><trkpt lat="41.19351" lon="14.1507933"><ele>77.0</ele><time>2026-05-02T05:48:25.497Z</time></trkpt><trkpt lat="41.1936417" lon="14.1505783"><ele>77.0</ele><time>2026-05-02T05:48:26.497Z</time></trkpt><trkpt lat="41.19377" lon="14.15036"><ele>77.0</ele><time>2026-05-02T05:48:27.498Z</time></trkpt><trkpt lat="41.1938983" lon="14.1501383"><ele>77.0</ele><time>2026-05-02T05:48:28.497Z</time></trkpt><trkpt lat="41.1940217" lon="14.1499133"><ele>78.0</ele><time>2026-05-02T05:48:29.497Z</time></trkpt><trkpt lat="41.1941467" lon="14.1496917"><ele>79.0</ele><time>2026-05-02T05:48:30.497Z</time></trkpt><trkpt lat="41.1942633" lon="14.1494717"><ele>80.0</ele><time>2026-05-02T05:48:31.497Z</time></trkpt><trkpt lat="41.1943783" lon="14.1492483"><ele>79.66666666666667</ele><time>2026-05-02T05:48:32.497Z</time></trkpt><trkpt lat="41.1944867" lon="14.1490233"><ele>79.33333333333333</ele><time>2026-05-02T05:48:33.497Z</time></trkpt><trkpt lat="41.1945933" lon="14.1488033"><ele>79.0</ele><time>2026-05-02T05:48:34.497Z</time></trkpt><trkpt lat="41.1946967" lon="14.14858"><ele>79.0</ele><time>2026-05-02T05:48:35.497Z</time></trkpt><trkpt lat="41.1947983" lon="14.1483583"><ele>79.0</ele><time>2026-05-02T05:48:36.497Z</time></trkpt><trkpt lat="41.1949017" lon="14.1481383"><ele>79.0</ele><time>2026-05-02T05:48:37.497Z</time></trkpt><trkpt lat="41.195005" lon="14.1479233"><ele>79.33333333333333</ele><time>2026-05-02T05:48:38.497Z</time></trkpt><trkpt lat="41.195105" lon="14.14771"><ele>79.66666666666667</ele><time>2026-05-02T05:48:39.497Z</time></trkpt><trkpt lat="41.1951983" lon="14.1475067"><ele>80.0</ele><time>2026-05-02T05:48:40.497Z</time></trkpt><trkpt lat="41.1952933" lon="14.1473083"><ele>80.33333333333334</ele><time>2026-05-02T05:48:41.497Z</time></trkpt><trkpt lat="41.195385" lon="14.1471083"><ele>80.66666666666667</ele><time>2026-05-02T05:48:42.497Z</time></trkpt><trkpt lat="41.1954767" lon="14.14691"><ele>81.0</ele><time>2026-05-02T05:48:43.497Z</time></trkpt><trkpt lat="41.195565" lon="14.1467033"><ele>81.0</ele><time>2026-05-02T05:48:44.497Z</time></trkpt><trkpt lat="41.1956633" lon="14.1464967"><ele>81.0</ele><time>2026-05-02T05:48:45.497Z</time></trkpt><trkpt lat="41.1957617" lon="14.1462867"><ele>81.0</ele><time>2026-05-02T05:48:46.497Z</time></trkpt><trkpt lat="41.1958667" lon="14.1460717"><ele>81.0</ele><time>2026-05-02T05:48:47.497Z</time></trkpt><trkpt lat="41.1959667" lon="14.14585"><ele>81.0</ele><time>2026-05-02T05:48:48.497Z</time></trkpt><trkpt lat="41.1960667" lon="14.145635"><ele>81.0</ele><time>2026-05-02T05:48:49.497Z</time></trkpt><trkpt lat="41.1961683" lon="14.145415"><ele>81.0</ele><time>2026-05-02T05:48:50.497Z</time></trkpt><trkpt lat="41.1962683" lon="14.1452033"><ele>81.0</ele><time>2026-05-02T05:48:51.497Z</time></trkpt><trkpt lat="41.1963667" lon="14.1450017"><ele>81.0</ele><time>2026-05-02T05:48:52.497Z</time></trkpt><trkpt lat="41.1964567" lon="14.1448083"><ele>81.33333333333333</ele><time>2026-05-02T05:48:53.497Z</time></trkpt><trkpt lat="41.1965433" lon="14.1446217"><ele>81.66666666666666</ele><time>2026-05-02T05:48:54.497Z</time></trkpt><trkpt lat="41.1966267" lon="14.1444267"><ele>82.0</ele><time>2026-05-02T05:48:55.497Z</time></trkpt><trkpt lat="41.1967183" lon="14.14423"><ele>82.33333333333333</ele><time>2026-05-02T05:48:56.498Z</time></trkpt><trkpt lat="41.19681" lon="14.1440267"><ele>82.66666666666667</ele><time>2026-05-02T05:48:57.497Z</time></trkpt><trkpt lat="41.1969067" lon="14.1438133"><ele>83.0</ele><time>2026-05-02T05:48:58.497Z</time></trkpt><trkpt lat="41.1970017" lon="14.1436"><ele>83.0</ele><time>2026-05-02T05:48:59.497Z</time></trkpt><trkpt lat="41.1971" lon="14.1433867"><ele>83.0</ele><time>2026-05-02T05:49:00.497Z</time></trkpt><trkpt lat="41.1972017" lon="14.1431683"><ele>83.0</ele><time>2026-05-02T05:49:01.497Z</time></trkpt><trkpt lat="41.1972983" lon="14.14295"><ele>83.33333333333334</ele><time>2026-05-02T05:49:02.497Z</time></trkpt><trkpt lat="41.197395" lon="14.1427483"><ele>83.66666666666667</ele><time>2026-05-02T05:49:03.497Z</time></trkpt><trkpt lat="41.1974917" lon="14.1425483"><ele>84.0</ele><time>2026-05-02T05:49:04.497Z</time></trkpt><trkpt lat="41.1975867" lon="14.14235"><ele>84.0</ele><time>2026-05-02T05:49:05.497Z</time></trkpt><trkpt lat="41.19768" lon="14.1421517"><ele>84.0</ele><time>2026-05-02T05:49:06.497Z</time></trkpt><trkpt lat="41.1977667" lon="14.141955"><ele>84.0</ele><time>2026-05-02T05:49:07.498Z</time></trkpt><trkpt lat="41.197855" lon="14.1417633"><ele>84.0</ele><time>2026-05-02T05:49:08.497Z</time></trkpt><trkpt lat="41.1979467" lon="14.14157"><ele>84.0</ele><time>2026-05-02T05:49:09.497Z</time></trkpt><trkpt lat="41.1980367" lon="14.1413717"><ele>84.0</ele><time>2026-05-02T05:49:10.497Z</time></trkpt><trkpt lat="41.1981233" lon="14.1411733"><ele>84.33333333333333</ele><time>2026-05-02T05:49:11.497Z</time></trkpt><trkpt lat="41.1982183" lon="14.1409733"><ele>84.66666666666666</ele><time>2026-05-02T05:49:12.498Z</time></trkpt><trkpt lat="41.1983167" lon="14.1407733"><ele>85.0</ele><time>2026-05-02T05:49:13.497Z</time></trkpt><trkpt lat="41.1984117" lon="14.14057"><ele>85.33333333333333</ele><time>2026-05-02T05:49:14.497Z</time></trkpt><trkpt lat="41.19851" lon="14.1403617"><ele>85.66666666666667</ele><time>2026-05-02T05:49:15.497Z</time></trkpt><trkpt lat="41.1986033" lon="14.140145"><ele>86.0</ele><time>2026-05-02T05:49:16.497Z</time></trkpt><trkpt lat="41.1987017" lon="14.1399317"><ele>85.66666666666667</ele><time>2026-05-02T05:49:17.497Z</time></trkpt><trkpt lat="41.1988" lon="14.1397233"><ele>85.33333333333333</ele><time>2026-05-02T05:49:18.497Z</time></trkpt><trkpt lat="41.1988967" lon="14.1395067"><ele>85.0</ele><time>2026-05-02T05:49:19.497Z</time></trkpt><trkpt lat="41.1989933" lon="14.1392883"><ele>83.66666666666666</ele><time>2026-05-02T05:49:20.497Z</time></trkpt><trkpt lat="41.1990917" lon="14.1390783"><ele>82.33333333333333</ele><time>2026-05-02T05:49:21.497Z</time></trkpt><trkpt lat="41.1991917" lon="14.1388617"><ele>81.0</ele><time>2026-05-02T05:49:22.497Z</time></trkpt><trkpt lat="41.1992967" lon="14.13864"><ele>79.66666666666667</ele><time>2026-05-02T05:49:23.498Z</time></trkpt><trkpt lat="41.1994017" lon="14.1384167"><ele>78.33333333333334</ele><time>2026-05-02T05:49:24.497Z</time></trkpt><trkpt lat="41.1995033" lon="14.1381967"><ele>77.0</ele><time>2026-05-02T05:49:25.497Z</time></trkpt><trkpt lat="41.1996033" lon="14.137975"><ele>79.0</ele><time>2026-05-02T05:49:26.497Z</time></trkpt><trkpt lat="41.199705" lon="14.1377517"><ele>81.0</ele><time>2026-05-02T05:49:27.497Z</time></trkpt><trkpt lat="41.1998083" lon="14.1375267"><ele>83.0</ele><time>2026-05-02T05:49:28.497Z</time></trkpt><trkpt lat="41.19991" lon="14.13731"><ele>83.0</ele><time>2026-05-02T05:49:29.497Z</time></trkpt><trkpt lat="41.20001" lon="14.13709"><ele>83.0</ele><time>2026-05-02T05:49:30.497Z</time></trkpt><trkpt lat="41.2001067" lon="14.13688"><ele>83.0</ele><time>2026-05-02T05:49:31.497Z</time></trkpt><trkpt lat="41.200205" lon="14.1366733"><ele>84.33333333333334</ele><time>2026-05-02T05:49:32.497Z</time></trkpt><trkpt lat="41.2003017" lon="14.13647"><ele>85.66666666666667</ele><time>2026-05-02T05:49:33.497Z</time></trkpt><trkpt lat="41.2003983" lon="14.1362683"><ele>87.0</ele><time>2026-05-02T05:49:34.497Z</time></trkpt><trkpt lat="41.2004983" lon="14.1360633"><ele>87.0</ele><time>2026-05-02T05:49:35.497Z</time></trkpt><trkpt lat="41.200595" lon="14.1358567"><ele>87.0</ele><time>2026-05-02T05:49:36.497Z</time></trkpt><trkpt lat="41.200695" lon="14.13565"><ele>87.0</ele><time>2026-05-02T05:49:37.497Z</time></trkpt><trkpt lat="41.2007933" lon="14.1354367"><ele>86.66666666666667</ele><time>2026-05-02T05:49:38.497Z</time></trkpt><trkpt lat="41.2008967" lon="14.1352233"><ele>86.33333333333334</ele><time>2026-05-02T05:49:39.497Z</time></trkpt><trkpt lat="41.200995" lon="14.13501"><ele>86.0</ele><time>2026-05-02T05:49:40.497Z</time></trkpt><trkpt lat="41.201095" lon="14.1347883"><ele>85.33333333333334</ele><time>2026-05-02T05:49:41.497Z</time></trkpt><trkpt lat="41.2011933" lon="14.1345717"><ele>84.66666666666667</ele><time>2026-05-02T05:49:42.497Z</time></trkpt><trkpt lat="41.2012933" lon="14.1343567"><ele>84.0</ele><time>2026-05-02T05:49:43.497Z</time></trkpt><trkpt lat="41.201395" lon="14.1341467"><ele>84.0</ele><time>2026-05-02T05:49:44.498Z</time></trkpt><trkpt lat="41.2014933" lon="14.13393"><ele>84.0</ele><time>2026-05-02T05:49:45.497Z</time></trkpt><trkpt lat="41.2015883" lon="14.1337167"><ele>84.0</ele><time>2026-05-02T05:49:46.497Z</time></trkpt><trkpt lat="41.201685" lon="14.1335033"><ele>83.33333333333333</ele><time>2026-05-02T05:49:47.497Z</time></trkpt><trkpt lat="41.2017883" lon="14.1332883"><ele>82.66666666666666</ele><time>2026-05-02T05:49:48.497Z</time></trkpt><trkpt lat="41.201885" lon="14.1330683"><ele>82.0</ele><time>2026-05-02T05:49:49.497Z</time></trkpt><trkpt lat="41.2019833" lon="14.1328567"><ele>80.0</ele><time>2026-05-02T05:49:50.497Z</time></trkpt><trkpt lat="41.2020817" lon="14.1326467"><ele>78.0</ele><time>2026-05-02T05:49:51.497Z</time></trkpt><trkpt lat="41.2021817" lon="14.132435"><ele>76.0</ele><time>2026-05-02T05:49:52.497Z</time></trkpt><trkpt lat="41.20228" lon="14.1322267"><ele>77.33333333333333</ele><time>2026-05-02T05:49:53.497Z</time></trkpt><trkpt lat="41.2023783" lon="14.1320167"><ele>78.66666666666667</ele><time>2026-05-02T05:49:54.497Z</time></trkpt><trkpt lat="41.2024767" lon="14.1318083"><ele>80.0</ele><time>2026-05-02T05:49:55.497Z</time></trkpt><trkpt lat="41.202575" lon="14.131605"><ele>81.33333333333334</ele><time>2026-05-02T05:49:56.498Z</time></trkpt><trkpt lat="41.2026717" lon="14.131395"><ele>82.66666666666667</ele><time>2026-05-02T05:49:57.497Z</time></trkpt><trkpt lat="41.202775" lon="14.1311883"><ele>84.0</ele><time>2026-05-02T05:49:58.497Z</time></trkpt><trkpt lat="41.2028833" lon="14.130965"><ele>84.0</ele><time>2026-05-02T05:49:59.497Z</time></trkpt><trkpt lat="41.2029883" lon="14.1307533"><ele>84.0</ele><time>2026-05-02T05:50:00.497Z</time></trkpt><trkpt lat="41.2030967" lon="14.1305383"><ele>84.0</ele><time>2026-05-02T05:50:01.497Z</time></trkpt><trkpt lat="41.2032117" lon="14.1303267"><ele>85.33333333333333</ele><time>2026-05-02T05:50:02.498Z</time></trkpt><trkpt lat="41.2033117" lon="14.13011"><ele>86.66666666666666</ele><time>2026-05-02T05:50:03.497Z</time></trkpt><trkpt lat="41.203415" lon="14.1298933"><ele>88.0</ele><time>2026-05-02T05:50:04.497Z</time></trkpt><trkpt lat="41.203525" lon="14.12967"><ele>88.66666666666666</ele><time>2026-05-02T05:50:05.497Z</time></trkpt><trkpt lat="41.2036267" lon="14.1294333"><ele>89.33333333333333</ele><time>2026-05-02T05:50:06.497Z</time></trkpt><trkpt lat="41.2037267" lon="14.1291983"><ele>90.0</ele><time>2026-05-02T05:50:07.497Z</time></trkpt><trkpt lat="41.2038283" lon="14.1289633"><ele>91.0</ele><time>2026-05-02T05:50:08.497Z</time></trkpt><trkpt lat="41.2039333" lon="14.1287267"><ele>92.0</ele><time>2026-05-02T05:50:09.497Z</time></trkpt><trkpt lat="41.20404" lon="14.1284967"><ele>93.0</ele><time>2026-05-02T05:50:10.497Z</time></trkpt><trkpt lat="41.2041483" lon="14.1282683"><ele>93.66666666666667</ele><time>2026-05-02T05:50:11.497Z</time></trkpt><trkpt lat="41.2042517" lon="14.1280317"><ele>94.33333333333334</ele><time>2026-05-02T05:50:12.497Z</time></trkpt><trkpt lat="41.2043567" lon="14.1277967"><ele>95.0</ele><time>2026-05-02T05:50:13.497Z</time></trkpt><trkpt lat="41.2044633" lon="14.127565"><ele>95.0</ele><time>2026-05-02T05:50:14.497Z</time></trkpt><trkpt lat="41.2045683" lon="14.1273317"><ele>95.0</ele><time>2026-05-02T05:50:15.497Z</time></trkpt><trkpt lat="41.2046817" lon="14.1270967"><ele>95.0</ele><time>2026-05-02T05:50:16.497Z</time></trkpt><trkpt lat="41.204795" lon="14.1268633"><ele>95.0</ele><time>2026-05-02T05:50:17.497Z</time></trkpt><trkpt lat="41.2049033" lon="14.1266283"><ele>95.0</ele><time>2026-05-02T05:50:18.497Z</time></trkpt><trkpt lat="41.2050067" lon="14.12639"><ele>95.0</ele><time>2026-05-02T05:50:19.497Z</time></trkpt><trkpt lat="41.2051167" lon="14.1261567"><ele>95.0</ele><time>2026-05-02T05:50:20.497Z</time></trkpt><trkpt lat="41.20523" lon="14.1259167"><ele>95.0</ele><time>2026-05-02T05:50:21.497Z</time></trkpt><trkpt lat="41.2053417" lon="14.1256783"><ele>95.0</ele><time>2026-05-02T05:50:22.497Z</time></trkpt><trkpt lat="41.2054583" lon="14.125435"><ele>95.33333333333334</ele><time>2026-05-02T05:50:23.497Z</time></trkpt><trkpt lat="41.2055717" lon="14.1251967"><ele>95.66666666666667</ele><time>2026-05-02T05:50:24.497Z</time></trkpt><trkpt lat="41.2056883" lon="14.124965"><ele>96.0</ele><time>2026-05-02T05:50:25.497Z</time></trkpt><trkpt lat="41.2057967" lon="14.12472"><ele>97.0</ele><time>2026-05-02T05:50:26.497Z</time></trkpt><trkpt lat="41.2059083" lon="14.12448"><ele>98.0</ele><time>2026-05-02T05:50:27.497Z</time></trkpt><trkpt lat="41.2060167" lon="14.1242517"><ele>99.0</ele><time>2026-05-02T05:50:28.497Z</time></trkpt><trkpt lat="41.20613" lon="14.1240083"><ele>99.66666666666666</ele><time>2026-05-02T05:50:29.497Z</time></trkpt><trkpt lat="41.20624" lon="14.1237667"><ele>100.33333333333333</ele><time>2026-05-02T05:50:30.497Z</time></trkpt><trkpt lat="41.20635" lon="14.1235283"><ele>101.0</ele><time>2026-05-02T05:50:31.497Z</time></trkpt><trkpt lat="41.2064633" lon="14.1232867"><ele>101.0</ele><time>2026-05-02T05:50:32.497Z</time></trkpt><trkpt lat="41.2065783" lon="14.123045"><ele>101.0</ele><time>2026-05-02T05:50:33.497Z</time></trkpt><trkpt lat="41.2066917" lon="14.1228017"><ele>101.0</ele><time>2026-05-02T05:50:34.497Z</time></trkpt><trkpt lat="41.2068033" lon="14.1225517"><ele>101.33333333333333</ele><time>2026-05-02T05:50:35.497Z</time></trkpt><trkpt lat="41.2069183" lon="14.1223"><ele>101.66666666666666</ele><time>2026-05-02T05:50:36.497Z</time></trkpt><trkpt lat="41.2070333" lon="14.122055"><ele>102.0</ele><time>2026-05-02T05:50:37.497Z</time></trkpt><trkpt lat="41.2071467" lon="14.12181"><ele>102.66666666666666</ele><time>2026-05-02T05:50:38.497Z</time></trkpt><trkpt lat="41.2072633" lon="14.121565"><ele>103.33333333333333</ele><time>2026-05-02T05:50:39.498Z</time></trkpt><trkpt lat="41.2073783" lon="14.1213133"><ele>104.0</ele><time>2026-05-02T05:50:40.497Z</time></trkpt><trkpt lat="41.2074967" lon="14.1210617"><ele>103.33333333333333</ele><time>2026-05-02T05:50:41.497Z</time></trkpt><trkpt lat="41.207615" lon="14.1208117"><ele>102.66666666666666</ele><time>2026-05-02T05:50:42.498Z</time></trkpt><trkpt lat="41.207735" lon="14.1205633"><ele>102.0</ele><time>2026-05-02T05:50:43.497Z</time></trkpt><trkpt lat="41.2078467" lon="14.1203133"><ele>102.0</ele><time>2026-05-02T05:50:44.497Z</time></trkpt><trkpt lat="41.20796" lon="14.120065"><ele>102.0</ele><time>2026-05-02T05:50:45.497Z</time></trkpt><trkpt lat="41.208075" lon="14.1198117"><ele>102.0</ele><time>2026-05-02T05:50:46.497Z</time></trkpt><trkpt lat="41.20819" lon="14.1195733"><ele>103.0</ele><time>2026-05-02T05:50:47.497Z</time></trkpt><trkpt lat="41.2083067" lon="14.1193333"><ele>104.0</ele><time>2026-05-02T05:50:48.497Z</time></trkpt><trkpt lat="41.2084133" lon="14.119095"><ele>105.0</ele><time>2026-05-02T05:50:49.497Z</time></trkpt><trkpt lat="41.20852" lon="14.1188583"><ele>105.66666666666666</ele><time>2026-05-02T05:50:50.498Z</time></trkpt><trkpt lat="41.208635" lon="14.1186183"><ele>106.33333333333333</ele><time>2026-05-02T05:50:51.497Z</time></trkpt><trkpt lat="41.2087483" lon="14.1183767"><ele>107.0</ele><time>2026-05-02T05:50:52.497Z</time></trkpt><trkpt lat="41.208865" lon="14.11814"><ele>107.33333333333333</ele><time>2026-05-02T05:50:53.497Z</time></trkpt><trkpt lat="41.2089767" lon="14.117905"><ele>107.66666666666666</ele><time>2026-05-02T05:50:54.497Z</time></trkpt><trkpt lat="41.2090917" lon="14.1176633"><ele>108.0</ele><time>2026-05-02T05:50:55.497Z</time></trkpt><trkpt lat="41.2092" lon="14.1174217"><ele>109.66666666666666</ele><time>2026-05-02T05:50:56.498Z</time></trkpt><trkpt lat="41.2093083" lon="14.11718"><ele>111.33333333333333</ele><time>2026-05-02T05:50:57.497Z</time></trkpt><trkpt lat="41.20942" lon="14.11694"><ele>113.0</ele><time>2026-05-02T05:50:58.497Z</time></trkpt><trkpt lat="41.2095333" lon="14.1167033"><ele>114.33333333333333</ele><time>2026-05-02T05:50:59.497Z</time></trkpt><trkpt lat="41.2096433" lon="14.1164667"><ele>115.66666666666666</ele><time>2026-05-02T05:51:00.497Z</time></trkpt><trkpt lat="41.2097517" lon="14.1162267"><ele>117.0</ele><time>2026-05-02T05:51:01.497Z</time></trkpt><trkpt lat="41.2098567" lon="14.11599"><ele>115.0</ele><time>2026-05-02T05:51:02.497Z</time></trkpt><trkpt lat="41.209965" lon="14.11576"><ele>113.0</ele><time>2026-05-02T05:51:03.497Z</time></trkpt><trkpt lat="41.2100767" lon="14.115525"><ele>111.0</ele><time>2026-05-02T05:51:04.497Z</time></trkpt><trkpt lat="41.2101917" lon="14.11528"><ele>111.0</ele><time>2026-05-02T05:51:05.497Z</time></trkpt><trkpt lat="41.2103083" lon="14.115035"><ele>111.0</ele><time>2026-05-02T05:51:06.497Z</time></trkpt><trkpt lat="41.210415" lon="14.1147967"><ele>111.0</ele><time>2026-05-02T05:51:07.498Z</time></trkpt><trkpt lat="41.2105267" lon="14.1145617"><ele>110.0</ele><time>2026-05-02T05:51:08.497Z</time></trkpt><trkpt lat="41.2106367" lon="14.11432"><ele>109.0</ele><time>2026-05-02T05:51:09.497Z</time></trkpt><trkpt lat="41.210745" lon="14.1140867"><ele>108.0</ele><time>2026-05-02T05:51:10.497Z</time></trkpt><trkpt lat="41.2108517" lon="14.11385"><ele>108.0</ele><time>2026-05-02T05:51:11.498Z</time></trkpt><trkpt lat="41.2109583" lon="14.113615"><ele>108.0</ele><time>2026-05-02T05:51:12.497Z</time></trkpt><trkpt lat="41.2110717" lon="14.11338"><ele>108.0</ele><time>2026-05-02T05:51:13.497Z</time></trkpt><trkpt lat="41.211185" lon="14.113135"><ele>108.33333333333334</ele><time>2026-05-02T05:51:14.497Z</time></trkpt><trkpt lat="41.2112917" lon="14.1129"><ele>108.66666666666667</ele><time>2026-05-02T05:51:15.497Z</time></trkpt><trkpt lat="41.2114033" lon="14.1126617"><ele>109.0</ele><time>2026-05-02T05:51:16.497Z</time></trkpt><trkpt lat="41.211515" lon="14.1124167"><ele>109.0</ele><time>2026-05-02T05:51:17.497Z</time></trkpt><trkpt lat="41.2116267" lon="14.1121717"><ele>109.0</ele><time>2026-05-02T05:51:18.497Z</time></trkpt><trkpt lat="41.2117417" lon="14.1119267"><ele>109.0</ele><time>2026-05-02T05:51:19.498Z</time></trkpt><trkpt lat="41.21186" lon="14.1116783"><ele>109.0</ele><time>2026-05-02T05:51:20.497Z</time></trkpt><trkpt lat="41.2119717" lon="14.11144"><ele>109.0</ele><time>2026-05-02T05:51:21.497Z</time></trkpt><trkpt lat="41.2120817" lon="14.1112133"><ele>109.0</ele><time>2026-05-02T05:51:22.497Z</time></trkpt><trkpt lat="41.21219" lon="14.1109833"><ele>109.0</ele><time>2026-05-02T05:51:23.497Z</time></trkpt><trkpt lat="41.21229" lon="14.110755"><ele>109.0</ele><time>2026-05-02T05:51:24.497Z</time></trkpt><trkpt lat="41.212395" lon="14.110535"><ele>109.0</ele><time>2026-05-02T05:51:25.498Z</time></trkpt><trkpt lat="41.2125" lon="14.1103117"><ele>108.66666666666667</ele><time>2026-05-02T05:51:26.497Z</time></trkpt><trkpt lat="41.2126" lon="14.110085"><ele>108.33333333333334</ele><time>2026-05-02T05:51:27.498Z</time></trkpt><trkpt lat="41.2127033" lon="14.109855"><ele>108.0</ele><time>2026-05-02T05:51:28.497Z</time></trkpt><trkpt lat="41.2128083" lon="14.1096217"><ele>109.33333333333334</ele><time>2026-05-02T05:51:29.497Z</time></trkpt><trkpt lat="41.2129183" lon="14.10938"><ele>110.66666666666667</ele><time>2026-05-02T05:51:30.497Z</time></trkpt><trkpt lat="41.21303" lon="14.10914"><ele>112.0</ele><time>2026-05-02T05:51:31.498Z</time></trkpt><trkpt lat="41.2131467" lon="14.1089033"><ele>112.0</ele><time>2026-05-02T05:51:32.497Z</time></trkpt><trkpt lat="41.21326" lon="14.1086617"><ele>112.0</ele><time>2026-05-02T05:51:33.498Z</time></trkpt><trkpt lat="41.2133733" lon="14.10842"><ele>112.0</ele><time>2026-05-02T05:51:34.497Z</time></trkpt><trkpt lat="41.2134867" lon="14.10818"><ele>111.66666666666667</ele><time>2026-05-02T05:51:35.497Z</time></trkpt><trkpt lat="41.2136017" lon="14.10793"><ele>111.33333333333334</ele><time>2026-05-02T05:51:36.497Z</time></trkpt><trkpt lat="41.213715" lon="14.1076833"><ele>111.0</ele><time>2026-05-02T05:51:37.497Z</time></trkpt><trkpt lat="41.21383" lon="14.1074383"><ele>110.33333333333334</ele><time>2026-05-02T05:51:38.497Z</time></trkpt><trkpt lat="41.213945" lon="14.107195"><ele>109.66666666666667</ele><time>2026-05-02T05:51:39.498Z</time></trkpt><trkpt lat="41.2140617" lon="14.1069467"><ele>109.0</ele><time>2026-05-02T05:51:40.497Z</time></trkpt><trkpt lat="41.2141767" lon="14.1066983"><ele>107.33333333333334</ele><time>2026-05-02T05:51:41.497Z</time></trkpt><trkpt lat="41.2142867" lon="14.1064467"><ele>105.66666666666666</ele><time>2026-05-02T05:51:42.497Z</time></trkpt><trkpt lat="41.214405" lon="14.106195"><ele>104.0</ele><time>2026-05-02T05:51:43.497Z</time></trkpt><trkpt lat="41.2145233" lon="14.1059417"><ele>103.33333333333333</ele><time>2026-05-02T05:51:44.497Z</time></trkpt><trkpt lat="41.2146433" lon="14.105685"><ele>102.66666666666666</ele><time>2026-05-02T05:51:45.498Z</time></trkpt><trkpt lat="41.2147617" lon="14.10544"><ele>102.0</ele><time>2026-05-02T05:51:46.498Z</time></trkpt><trkpt lat="41.2148767" lon="14.1051933"><ele>100.66666666666666</ele><time>2026-05-02T05:51:47.497Z</time></trkpt><trkpt lat="41.214995" lon="14.1049433"><ele>99.33333333333333</ele><time>2026-05-02T05:51:48.498Z</time></trkpt><trkpt lat="41.21511" lon="14.1046933"><ele>98.0</ele><time>2026-05-02T05:51:49.497Z</time></trkpt><trkpt lat="41.21523" lon="14.1044383"><ele>97.66666666666666</ele><time>2026-05-02T05:51:50.497Z</time></trkpt><trkpt lat="41.2153467" lon="14.10419"><ele>97.33333333333334</ele><time>2026-05-02T05:51:51.497Z</time></trkpt><trkpt lat="41.2154633" lon="14.10394"><ele>97.0</ele><time>2026-05-02T05:51:52.497Z</time></trkpt><trkpt lat="41.2155833" lon="14.1036917"><ele>96.0</ele><time>2026-05-02T05:51:53.497Z</time></trkpt><trkpt lat="41.2156967" lon="14.1034467"><ele>95.0</ele><time>2026-05-02T05:51:54.497Z</time></trkpt><trkpt lat="41.2158117" lon="14.1032017"><ele>94.0</ele><time>2026-05-02T05:51:55.498Z</time></trkpt><trkpt lat="41.21593" lon="14.10296"><ele>93.66666666666666</ele><time>2026-05-02T05:51:56.497Z</time></trkpt><trkpt lat="41.21605" lon="14.10273"><ele>93.33333333333333</ele><time>2026-05-02T05:51:57.497Z</time></trkpt><trkpt lat="41.21617" lon="14.1025117"><ele>93.0</ele><time>2026-05-02T05:51:58.497Z</time></trkpt><trkpt lat="41.21629" lon="14.1023067"><ele>92.66666666666667</ele><time>2026-05-02T05:51:59.497Z</time></trkpt><trkpt lat="41.2164183" lon="14.1021067"><ele>92.33333333333334</ele><time>2026-05-02T05:52:00.498Z</time></trkpt><trkpt lat="41.2165467" lon="14.101905"><ele>92.0</ele><time>2026-05-02T05:52:01.498Z</time></trkpt><trkpt lat="41.2166783" lon="14.101705"><ele>93.66666666666667</ele><time>2026-05-02T05:52:02.498Z</time></trkpt><trkpt lat="41.2168217" lon="14.1015067"><ele>95.33333333333334</ele><time>2026-05-02T05:52:03.498Z</time></trkpt><trkpt lat="41.2169683" lon="14.10131"><ele>97.0</ele><time>2026-05-02T05:52:04.498Z</time></trkpt><trkpt lat="41.2171183" lon="14.10111"><ele>97.0</ele><time>2026-05-02T05:52:05.498Z</time></trkpt><trkpt lat="41.2172783" lon="14.1009117"><ele>97.0</ele><time>2026-05-02T05:52:06.498Z</time></trkpt><trkpt lat="41.2174433" lon="14.100715"><ele>97.0</ele><time>2026-05-02T05:52:07.498Z</time></trkpt><trkpt lat="41.2176083" lon="14.1005183"><ele>94.0</ele><time>2026-05-02T05:52:08.498Z</time></trkpt><trkpt lat="41.2177883" lon="14.10032"><ele>91.0</ele><time>2026-05-02T05:52:09.498Z</time></trkpt><trkpt lat="41.2179767" lon="14.1001383"><ele>87.0</ele><time>2026-05-02T05:52:10.498Z</time></trkpt><trkpt lat="41.2181617" lon="14.0999567"><ele>83.0</ele><time>2026-05-02T05:52:11.498Z</time></trkpt><trkpt lat="41.218355" lon="14.0997867"><ele>83.0</ele><time>2026-05-02T05:52:12.498Z</time></trkpt><trkpt lat="41.2185517" lon="14.0996267"><ele>83.0</ele><time>2026-05-02T05:52:13.498Z</time></trkpt><trkpt lat="41.2187483" lon="14.0994667"><ele>83.0</ele><time>2026-05-02T05:52:14.498Z</time></trkpt><trkpt lat="41.2189467" lon="14.099315"><ele>83.0</ele><time>2026-05-02T05:52:15.498Z</time></trkpt><trkpt lat="41.219145" lon="14.0991767"><ele>83.66666666666667</ele><time>2026-05-02T05:52:16.498Z</time></trkpt><trkpt lat="41.219345" lon="14.099045"><ele>84.33333333333333</ele><time>2026-05-02T05:52:17.498Z</time></trkpt><trkpt lat="41.2195467" lon="14.09892"><ele>85.0</ele><time>2026-05-02T05:52:18.498Z</time></trkpt><trkpt lat="41.2197517" lon="14.098805"><ele>86.5</ele><time>2026-05-02T05:52:19.498Z</time></trkpt><trkpt lat="41.2199633" lon="14.0986917"><ele>88.0</ele><time>2026-05-02T05:52:20.498Z</time></trkpt><trkpt lat="41.2201767" lon="14.098585"><ele>88.0</ele><time>2026-05-02T05:52:21.498Z</time></trkpt><trkpt lat="41.2203917" lon="14.09848"><ele>88.0</ele><time>2026-05-02T05:52:22.498Z</time></trkpt><trkpt lat="41.220605" lon="14.0983783"><ele>89.0</ele><time>2026-05-02T05:52:23.498Z</time></trkpt><trkpt lat="41.22082" lon="14.09828"><ele>90.0</ele><time>2026-05-02T05:52:24.498Z</time></trkpt><trkpt lat="41.2210367" lon="14.0981833"><ele>90.0</ele><time>2026-05-02T05:52:25.498Z</time></trkpt><trkpt lat="41.221255" lon="14.0980983"><ele>90.0</ele><time>2026-05-02T05:52:26.498Z</time></trkpt><trkpt lat="41.2214733" lon="14.0980183"><ele>87.5</ele><time>2026-05-02T05:52:27.498Z</time></trkpt><trkpt lat="41.2216883" lon="14.0979317"><ele>85.0</ele><time>2026-05-02T05:52:28.498Z</time></trkpt><trkpt lat="41.2219017" lon="14.097835"><ele>85.0</ele><time>2026-05-02T05:52:29.499Z</time></trkpt><trkpt lat="41.222115" lon="14.0977417"><ele>85.0</ele><time>2026-05-02T05:52:30.498Z</time></trkpt><trkpt lat="41.22233" lon="14.0976433"><ele>81.33333333333333</ele><time>2026-05-02T05:52:31.498Z</time></trkpt><trkpt lat="41.2225433" lon="14.0975567"><ele>77.66666666666667</ele><time>2026-05-02T05:52:32.498Z</time></trkpt><trkpt lat="41.2227567" lon="14.0974667"><ele>74.0</ele><time>2026-05-02T05:52:33.499Z</time></trkpt><trkpt lat="41.2229717" lon="14.09738"><ele>71.5</ele><time>2026-05-02T05:52:34.498Z</time></trkpt><trkpt lat="41.2231867" lon="14.0972917"><ele>69.0</ele><time>2026-05-02T05:52:35.498Z</time></trkpt><trkpt lat="41.2234017" lon="14.0972"><ele>69.0</ele><time>2026-05-02T05:52:36.498Z</time></trkpt><trkpt lat="41.223615" lon="14.097105"><ele>69.0</ele><time>2026-05-02T05:52:37.498Z</time></trkpt><trkpt lat="41.2238283" lon="14.0970167"><ele>69.0</ele><time>2026-05-02T05:52:38.498Z</time></trkpt><trkpt lat="41.224045" lon="14.096925"><ele>74.5</ele><time>2026-05-02T05:52:39.498Z</time></trkpt><trkpt lat="41.2242617" lon="14.0968333"><ele>80.0</ele><time>2026-05-02T05:52:40.498Z</time></trkpt><trkpt lat="41.224475" lon="14.0967433"><ele>80.0</ele><time>2026-05-02T05:52:41.498Z</time></trkpt><trkpt lat="41.2246883" lon="14.0966567"><ele>80.0</ele><time>2026-05-02T05:52:42.498Z</time></trkpt><trkpt lat="41.2249" lon="14.0965667"><ele>80.0</ele><time>2026-05-02T05:52:43.498Z</time></trkpt><trkpt lat="41.2251067" lon="14.0964717"><ele>84.33333333333334</ele><time>2026-05-02T05:52:44.498Z</time></trkpt><trkpt lat="41.22531" lon="14.0963883"><ele>88.66666666666667</ele><time>2026-05-02T05:52:45.498Z</time></trkpt><trkpt lat="41.2255133" lon="14.0963083"><ele>93.0</ele><time>2026-05-02T05:52:46.498Z</time></trkpt><trkpt lat="41.2257167" lon="14.096225"><ele>93.33333333333333</ele><time>2026-05-02T05:52:47.498Z</time></trkpt><trkpt lat="41.2259167" lon="14.0961417"><ele>93.66666666666666</ele><time>2026-05-02T05:52:48.498Z</time></trkpt><trkpt lat="41.2261167" lon="14.0960533"><ele>94.0</ele><time>2026-05-02T05:52:49.498Z</time></trkpt><trkpt lat="41.22632" lon="14.0959733"><ele>94.66666666666666</ele><time>2026-05-02T05:52:50.498Z</time></trkpt><trkpt lat="41.22652" lon="14.0958883"><ele>95.33333333333333</ele><time>2026-05-02T05:52:51.498Z</time></trkpt><trkpt lat="41.2267217" lon="14.0958017"><ele>96.0</ele><time>2026-05-02T05:52:52.498Z</time></trkpt><trkpt lat="41.22693" lon="14.095715"><ele>96.0</ele><time>2026-05-02T05:52:53.498Z</time></trkpt><trkpt lat="41.2271333" lon="14.0956283"><ele>96.0</ele><time>2026-05-02T05:52:54.498Z</time></trkpt><trkpt lat="41.22734" lon="14.0955467"><ele>96.0</ele><time>2026-05-02T05:52:55.498Z</time></trkpt><trkpt lat="41.2275483" lon="14.0954617"><ele>96.0</ele><time>2026-05-02T05:52:56.498Z</time></trkpt><trkpt lat="41.2277567" lon="14.095375"><ele>96.0</ele><time>2026-05-02T05:52:57.498Z</time></trkpt><trkpt lat="41.2279633" lon="14.09528"><ele>96.0</ele><time>2026-05-02T05:52:58.499Z</time></trkpt><trkpt lat="41.2281733" lon="14.0951917"><ele>97.0</ele><time>2026-05-02T05:52:59.499Z</time></trkpt><trkpt lat="41.2283883" lon="14.0951033"><ele>98.0</ele><time>2026-05-02T05:53:00.499Z</time></trkpt><trkpt lat="41.2286033" lon="14.0950133"><ele>98.5</ele><time>2026-05-02T05:53:01.498Z</time></trkpt><trkpt lat="41.2288233" lon="14.09492"><ele>99.0</ele><time>2026-05-02T05:53:02.498Z</time></trkpt><trkpt lat="41.2290417" lon="14.09483"><ele>99.33333333333334</ele><time>2026-05-02T05:53:03.498Z</time></trkpt><trkpt lat="41.229255" lon="14.0947383"><ele>99.66666666666667</ele><time>2026-05-02T05:53:04.498Z</time></trkpt><trkpt lat="41.2294683" lon="14.09465"><ele>100.0</ele><time>2026-05-02T05:53:05.498Z</time></trkpt><trkpt lat="41.22968" lon="14.0945567"><ele>101.5</ele><time>2026-05-02T05:53:06.498Z</time></trkpt><trkpt lat="41.2298967" lon="14.094465"><ele>103.0</ele><time>2026-05-02T05:53:07.498Z</time></trkpt><trkpt lat="41.230115" lon="14.0943717"><ele>103.0</ele><time>2026-05-02T05:53:08.498Z</time></trkpt><trkpt lat="41.23033" lon="14.0942833"><ele>103.0</ele><time>2026-05-02T05:53:09.499Z</time></trkpt><trkpt lat="41.230545" lon="14.0941933"><ele>103.66666666666667</ele><time>2026-05-02T05:53:10.498Z</time></trkpt><trkpt lat="41.23076" lon="14.0941133"><ele>104.33333333333334</ele><time>2026-05-02T05:53:11.499Z</time></trkpt><trkpt lat="41.2309667" lon="14.094035"><ele>105.0</ele><time>2026-05-02T05:53:12.498Z</time></trkpt><trkpt lat="41.231185" lon="14.0939417"><ele>105.0</ele><time>2026-05-02T05:53:13.498Z</time></trkpt><trkpt lat="41.2313933" lon="14.093855"><ele>105.0</ele><time>2026-05-02T05:53:14.498Z</time></trkpt><trkpt lat="41.2316017" lon="14.0937733"><ele>105.0</ele><time>2026-05-02T05:53:15.498Z</time></trkpt><trkpt lat="41.2318133" lon="14.0937033"><ele>104.66666666666666</ele><time>2026-05-02T05:53:16.498Z</time></trkpt><trkpt lat="41.23203" lon="14.093625"><ele>104.33333333333333</ele><time>2026-05-02T05:53:17.498Z</time></trkpt><trkpt lat="41.2322433" lon="14.0935467"><ele>104.0</ele><time>2026-05-02T05:53:18.498Z</time></trkpt><trkpt lat="41.23246" lon="14.0934633"><ele>104.0</ele><time>2026-05-02T05:53:19.498Z</time></trkpt><trkpt lat="41.2326717" lon="14.0933867"><ele>104.0</ele><time>2026-05-02T05:53:20.498Z</time></trkpt><trkpt lat="41.2328867" lon="14.0933083"><ele>104.0</ele><time>2026-05-02T05:53:21.498Z</time></trkpt><trkpt lat="41.2331033" lon="14.09324"><ele>105.66666666666666</ele><time>2026-05-02T05:53:22.498Z</time></trkpt><trkpt lat="41.2333233" lon="14.0931817"><ele>107.33333333333334</ele><time>2026-05-02T05:53:23.498Z</time></trkpt><trkpt lat="41.2335433" lon="14.0931283"><ele>109.0</ele><time>2026-05-02T05:53:24.498Z</time></trkpt><trkpt lat="41.2337617" lon="14.0930783"><ele>110.0</ele><time>2026-05-02T05:53:25.498Z</time></trkpt><trkpt lat="41.233975" lon="14.0930283"><ele>111.0</ele><time>2026-05-02T05:53:26.498Z</time></trkpt><trkpt lat="41.2341867" lon="14.0929817"><ele>112.0</ele><time>2026-05-02T05:53:27.498Z</time></trkpt><trkpt lat="41.2343917" lon="14.0929467"><ele>112.0</ele><time>2026-05-02T05:53:28.499Z</time></trkpt><trkpt lat="41.234595" lon="14.0929067"><ele>112.0</ele><time>2026-05-02T05:53:29.498Z</time></trkpt><trkpt lat="41.2347933" lon="14.09287"><ele>112.0</ele><time>2026-05-02T05:53:30.498Z</time></trkpt><trkpt lat="41.2349983" lon="14.0928417"><ele>112.33333333333334</ele><time>2026-05-02T05:53:31.499Z</time></trkpt><trkpt lat="41.235205" lon="14.0928133"><ele>112.66666666666666</ele><time>2026-05-02T05:53:32.498Z</time></trkpt><trkpt lat="41.2354083" lon="14.09279"><ele>113.0</ele><time>2026-05-02T05:53:33.498Z</time></trkpt><trkpt lat="41.23561" lon="14.0927633"><ele>113.33333333333333</ele><time>2026-05-02T05:53:34.498Z</time></trkpt><trkpt lat="41.2358133" lon="14.0927367"><ele>113.66666666666666</ele><time>2026-05-02T05:53:35.499Z</time></trkpt><trkpt lat="41.236015" lon="14.09272"><ele>114.0</ele><time>2026-05-02T05:53:36.498Z</time></trkpt><trkpt lat="41.2362217" lon="14.0927067"><ele>114.0</ele><time>2026-05-02T05:53:37.498Z</time></trkpt><trkpt lat="41.2364267" lon="14.0926967"><ele>114.0</ele><time>2026-05-02T05:53:38.498Z</time></trkpt><trkpt lat="41.2366367" lon="14.092685"><ele>114.0</ele><time>2026-05-02T05:53:39.498Z</time></trkpt><trkpt lat="41.2368383" lon="14.0926733"><ele>115.0</ele><time>2026-05-02T05:53:40.498Z</time></trkpt><trkpt lat="41.23704" lon="14.092665"><ele>116.0</ele><time>2026-05-02T05:53:41.499Z</time></trkpt><trkpt lat="41.2372383" lon="14.09266"><ele>117.0</ele><time>2026-05-02T05:53:42.498Z</time></trkpt><trkpt lat="41.237435" lon="14.0926533"><ele>117.0</ele><time>2026-05-02T05:53:43.498Z</time></trkpt><trkpt lat="41.23763" lon="14.092645"><ele>117.0</ele><time>2026-05-02T05:53:44.498Z</time></trkpt><trkpt lat="41.23783" lon="14.0926517"><ele>117.0</ele><time>2026-05-02T05:53:45.498Z</time></trkpt><trkpt lat="41.2380317" lon="14.09265"><ele>118.66666666666666</ele><time>2026-05-02T05:53:46.498Z</time></trkpt><trkpt lat="41.2382317" lon="14.09264"><ele>120.33333333333333</ele><time>2026-05-02T05:53:47.498Z</time></trkpt><trkpt lat="41.2384333" lon="14.092635"><ele>122.0</ele><time>2026-05-02T05:53:48.498Z</time></trkpt><trkpt lat="41.2386283" lon="14.0926333"><ele>122.0</ele><time>2026-05-02T05:53:49.498Z</time></trkpt><trkpt lat="41.2388267" lon="14.0926333"><ele>122.0</ele><time>2026-05-02T05:53:50.498Z</time></trkpt><trkpt lat="41.239025" lon="14.0926283"><ele>122.0</ele><time>2026-05-02T05:53:51.499Z</time></trkpt><trkpt lat="41.2392217" lon="14.0926167"><ele>123.66666666666666</ele><time>2026-05-02T05:53:52.498Z</time></trkpt><trkpt lat="41.2394217" lon="14.0926117"><ele>125.33333333333334</ele><time>2026-05-02T05:53:53.498Z</time></trkpt><trkpt lat="41.2396217" lon="14.0926133"><ele>127.0</ele><time>2026-05-02T05:53:54.498Z</time></trkpt><trkpt lat="41.2398217" lon="14.0926133"><ele>127.66666666666667</ele><time>2026-05-02T05:53:55.498Z</time></trkpt><trkpt lat="41.24003" lon="14.092605"><ele>128.33333333333334</ele><time>2026-05-02T05:53:56.499Z</time></trkpt><trkpt lat="41.2402383" lon="14.0926033"><ele>129.0</ele><time>2026-05-02T05:53:57.498Z</time></trkpt><trkpt lat="41.240445" lon="14.0925967"><ele>130.33333333333334</ele><time>2026-05-02T05:53:58.498Z</time></trkpt><trkpt lat="41.2406517" lon="14.0925933"><ele>131.66666666666669</ele><time>2026-05-02T05:53:59.498Z</time></trkpt><trkpt lat="41.2408633" lon="14.0925883"><ele>133.0</ele><time>2026-05-02T05:54:00.498Z</time></trkpt><trkpt lat="41.2410733" lon="14.0925767"><ele>133.0</ele><time>2026-05-02T05:54:01.498Z</time></trkpt><trkpt lat="41.2412867" lon="14.0925733"><ele>133.0</ele><time>2026-05-02T05:54:02.498Z</time></trkpt><trkpt lat="41.2415033" lon="14.0925683"><ele>133.0</ele><time>2026-05-02T05:54:03.499Z</time></trkpt><trkpt lat="41.2417167" lon="14.0925617"><ele>134.0</ele><time>2026-05-02T05:54:04.498Z</time></trkpt><trkpt lat="41.2419317" lon="14.0925533"><ele>135.0</ele><time>2026-05-02T05:54:05.498Z</time></trkpt><trkpt lat="41.24214" lon="14.09255"><ele>136.0</ele><time>2026-05-02T05:54:06.499Z</time></trkpt><trkpt lat="41.2423433" lon="14.0925417"><ele>137.0</ele><time>2026-05-02T05:54:07.498Z</time></trkpt><trkpt lat="41.2425433" lon="14.092535"><ele>138.0</ele><time>2026-05-02T05:54:08.498Z</time></trkpt><trkpt lat="41.2427533" lon="14.0925317"><ele>139.0</ele><time>2026-05-02T05:54:09.498Z</time></trkpt><trkpt lat="41.2429633" lon="14.0925233"><ele>138.66666666666669</ele><time>2026-05-02T05:54:10.498Z</time></trkpt><trkpt lat="41.2431733" lon="14.09252"><ele>138.33333333333334</ele><time>2026-05-02T05:54:11.498Z</time></trkpt><trkpt lat="41.2433867" lon="14.0925117"><ele>138.0</ele><time>2026-05-02T05:54:12.498Z</time></trkpt><trkpt lat="41.2435967" lon="14.0925083"><ele>138.0</ele><time>2026-05-02T05:54:13.498Z</time></trkpt><trkpt lat="41.2438133" lon="14.0925067"><ele>138.0</ele><time>2026-05-02T05:54:14.499Z</time></trkpt><trkpt lat="41.2440283" lon="14.092505"><ele>138.0</ele><time>2026-05-02T05:54:15.498Z</time></trkpt><trkpt lat="41.2442417" lon="14.0924983"><ele>138.33333333333334</ele><time>2026-05-02T05:54:16.498Z</time></trkpt><trkpt lat="41.24446" lon="14.0924917"><ele>138.66666666666669</ele><time>2026-05-02T05:54:17.498Z</time></trkpt><trkpt lat="41.2446783" lon="14.0924867"><ele>139.0</ele><time>2026-05-02T05:54:18.498Z</time></trkpt><trkpt lat="41.244895" lon="14.0924733"><ele>139.33333333333334</ele><time>2026-05-02T05:54:19.498Z</time></trkpt><trkpt lat="41.2451133" lon="14.0924717"><ele>139.66666666666666</ele><time>2026-05-02T05:54:20.498Z</time></trkpt><trkpt lat="41.24533" lon="14.09247"><ele>140.0</ele><time>2026-05-02T05:54:21.498Z</time></trkpt><trkpt lat="41.24555" lon="14.0924667"><ele>140.0</ele><time>2026-05-02T05:54:22.498Z</time></trkpt><trkpt lat="41.2457667" lon="14.0924633"><ele>140.0</ele><time>2026-05-02T05:54:23.498Z</time></trkpt><trkpt lat="41.2459833" lon="14.0924617"><ele>140.0</ele><time>2026-05-02T05:54:24.498Z</time></trkpt><trkpt lat="41.2462" lon="14.0924517"><ele>140.0</ele><time>2026-05-02T05:54:25.498Z</time></trkpt><trkpt lat="41.2464183" lon="14.0924433"><ele>140.0</ele><time>2026-05-02T05:54:26.498Z</time></trkpt><trkpt lat="41.2466317" lon="14.0924367"><ele>140.0</ele><time>2026-05-02T05:54:27.498Z</time></trkpt><trkpt lat="41.2468433" lon="14.0924317"><ele>140.33333333333331</ele><time>2026-05-02T05:54:28.498Z</time></trkpt><trkpt lat="41.24706" lon="14.0924283"><ele>140.66666666666666</ele><time>2026-05-02T05:54:29.498Z</time></trkpt><trkpt lat="41.2472667" lon="14.0924267"><ele>141.0</ele><time>2026-05-02T05:54:30.498Z</time></trkpt><trkpt lat="41.24747" lon="14.0924267"><ele>142.33333333333334</ele><time>2026-05-02T05:54:31.498Z</time></trkpt><trkpt lat="41.2476717" lon="14.092425"><ele>143.66666666666669</ele><time>2026-05-02T05:54:32.498Z</time></trkpt><trkpt lat="41.2478767" lon="14.0924233"><ele>145.0</ele><time>2026-05-02T05:54:33.498Z</time></trkpt><trkpt lat="41.2480783" lon="14.092415"><ele>145.66666666666669</ele><time>2026-05-02T05:54:34.498Z</time></trkpt><trkpt lat="41.2482833" lon="14.0924083"><ele>146.33333333333334</ele><time>2026-05-02T05:54:35.498Z</time></trkpt><trkpt lat="41.2484867" lon="14.0923983"><ele>147.0</ele><time>2026-05-02T05:54:36.498Z</time></trkpt><trkpt lat="41.2486883" lon="14.09239"><ele>147.0</ele><time>2026-05-02T05:54:37.498Z</time></trkpt><trkpt lat="41.248885" lon="14.0923867"><ele>147.0</ele><time>2026-05-02T05:54:38.498Z</time></trkpt><trkpt lat="41.2490867" lon="14.092385"><ele>147.0</ele><time>2026-05-02T05:54:39.498Z</time></trkpt><trkpt lat="41.249285" lon="14.0923783"><ele>147.33333333333334</ele><time>2026-05-02T05:54:40.498Z</time></trkpt><trkpt lat="41.249485" lon="14.0923717"><ele>147.66666666666669</ele><time>2026-05-02T05:54:41.498Z</time></trkpt><trkpt lat="41.2496867" lon="14.0923667"><ele>148.0</ele><time>2026-05-02T05:54:42.498Z</time></trkpt><trkpt lat="41.249885" lon="14.0923633"><ele>148.33333333333334</ele><time>2026-05-02T05:54:43.498Z</time></trkpt><trkpt lat="41.2500917" lon="14.0923617"><ele>148.66666666666666</ele><time>2026-05-02T05:54:44.499Z</time></trkpt><trkpt lat="41.2503" lon="14.09236"><ele>149.0</ele><time>2026-05-02T05:54:45.498Z</time></trkpt><trkpt lat="41.2505083" lon="14.0923533"><ele>149.33333333333331</ele><time>2026-05-02T05:54:46.498Z</time></trkpt><trkpt lat="41.250715" lon="14.092345"><ele>149.66666666666666</ele><time>2026-05-02T05:54:47.498Z</time></trkpt><trkpt lat="41.2509217" lon="14.0923367"><ele>150.0</ele><time>2026-05-02T05:54:48.498Z</time></trkpt><trkpt lat="41.2511283" lon="14.0923367"><ele>150.0</ele><time>2026-05-02T05:54:49.498Z</time></trkpt><trkpt lat="41.2513383" lon="14.0923317"><ele>150.0</ele><time>2026-05-02T05:54:50.498Z</time></trkpt><trkpt lat="41.2515467" lon="14.0923333"><ele>150.0</ele><time>2026-05-02T05:54:51.498Z</time></trkpt><trkpt lat="41.2517583" lon="14.0923317"><ele>151.66666666666666</ele><time>2026-05-02T05:54:52.498Z</time></trkpt><trkpt lat="41.2519667" lon="14.09232"><ele>153.33333333333331</ele><time>2026-05-02T05:54:53.498Z</time></trkpt><trkpt lat="41.2521767" lon="14.0923183"><ele>155.0</ele><time>2026-05-02T05:54:54.498Z</time></trkpt><trkpt lat="41.2523867" lon="14.0923217"><ele>156.0</ele><time>2026-05-02T05:54:55.498Z</time></trkpt><trkpt lat="41.2525967" lon="14.0923217"><ele>157.0</ele><time>2026-05-02T05:54:56.498Z</time></trkpt><trkpt lat="41.252805" lon="14.0923117"><ele>158.0</ele><time>2026-05-02T05:54:57.498Z</time></trkpt><trkpt lat="41.253015" lon="14.0923083"><ele>158.66666666666666</ele><time>2026-05-02T05:54:58.498Z</time></trkpt><trkpt lat="41.2532267" lon="14.0923017"><ele>159.33333333333334</ele><time>2026-05-02T05:54:59.498Z</time></trkpt><trkpt lat="41.2534333" lon="14.09229"><ele>160.0</ele><time>2026-05-02T05:55:00.498Z</time></trkpt><trkpt lat="41.25364" lon="14.092285"><ele>160.0</ele><time>2026-05-02T05:55:01.498Z</time></trkpt><trkpt lat="41.25385" lon="14.0922817"><ele>160.0</ele><time>2026-05-02T05:55:02.498Z</time></trkpt><trkpt lat="41.2540667" lon="14.0922783"><ele>160.0</ele><time>2026-05-02T05:55:03.498Z</time></trkpt><trkpt lat="41.2542783" lon="14.09227"><ele>160.66666666666669</ele><time>2026-05-02T05:55:04.498Z</time></trkpt><trkpt lat="41.2544817" lon="14.0922667"><ele>161.33333333333334</ele><time>2026-05-02T05:55:05.498Z</time></trkpt><trkpt lat="41.2546917" lon="14.0922617"><ele>162.0</ele><time>2026-05-02T05:55:06.498Z</time></trkpt><trkpt lat="41.2549067" lon="14.092255"><ele>162.33333333333334</ele><time>2026-05-02T05:55:07.499Z</time></trkpt><trkpt lat="41.25512" lon="14.092245"><ele>162.66666666666669</ele><time>2026-05-02T05:55:08.498Z</time></trkpt><trkpt lat="41.2553333" lon="14.09224"><ele>163.0</ele><time>2026-05-02T05:55:09.498Z</time></trkpt><trkpt lat="41.2555483" lon="14.0922283"><ele>164.0</ele><time>2026-05-02T05:55:10.498Z</time></trkpt><trkpt lat="41.2557667" lon="14.092225"><ele>165.0</ele><time>2026-05-02T05:55:11.498Z</time></trkpt><trkpt lat="41.255985" lon="14.0922183"><ele>166.0</ele><time>2026-05-02T05:55:12.498Z</time></trkpt><trkpt lat="41.2561967" lon="14.092215"><ele>166.0</ele><time>2026-05-02T05:55:13.498Z</time></trkpt><trkpt lat="41.2564117" lon="14.0922083"><ele>166.0</ele><time>2026-05-02T05:55:14.498Z</time></trkpt><trkpt lat="41.2566217" lon="14.0922033"><ele>166.0</ele><time>2026-05-02T05:55:15.498Z</time></trkpt><trkpt lat="41.256835" lon="14.0922017"><ele>166.33333333333334</ele><time>2026-05-02T05:55:16.498Z</time></trkpt><trkpt lat="41.2570483" lon="14.0921983"><ele>166.66666666666666</ele><time>2026-05-02T05:55:17.498Z</time></trkpt><trkpt lat="41.2572617" lon="14.0921883"><ele>167.0</ele><time>2026-05-02T05:55:18.498Z</time></trkpt><trkpt lat="41.2574767" lon="14.0921867"><ele>168.0</ele><time>2026-05-02T05:55:19.498Z</time></trkpt><trkpt lat="41.2576883" lon="14.0921817"><ele>169.0</ele><time>2026-05-02T05:55:20.498Z</time></trkpt><trkpt lat="41.2579017" lon="14.0921767"><ele>170.0</ele><time>2026-05-02T05:55:21.498Z</time></trkpt><trkpt lat="41.258115" lon="14.092175"><ele>170.33333333333331</ele><time>2026-05-02T05:55:22.498Z</time></trkpt><trkpt lat="41.2583233" lon="14.09217"><ele>170.66666666666666</ele><time>2026-05-02T05:55:23.498Z</time></trkpt><trkpt lat="41.2585367" lon="14.0921667"><ele>171.0</ele><time>2026-05-02T05:55:24.498Z</time></trkpt><trkpt lat="41.2587483" lon="14.092155"><ele>169.66666666666666</ele><time>2026-05-02T05:55:25.498Z</time></trkpt><trkpt lat="41.2589583" lon="14.0921467"><ele>168.33333333333331</ele><time>2026-05-02T05:55:26.498Z</time></trkpt><trkpt lat="41.25916" lon="14.0921433"><ele>167.0</ele><time>2026-05-02T05:55:27.498Z</time></trkpt><trkpt lat="41.2593617" lon="14.09214"><ele>167.0</ele><time>2026-05-02T05:55:28.498Z</time></trkpt><trkpt lat="41.25956" lon="14.0921367"><ele>167.0</ele><time>2026-05-02T05:55:29.498Z</time></trkpt><trkpt lat="41.2597633" lon="14.0921333"><ele>167.0</ele><time>2026-05-02T05:55:30.498Z</time></trkpt><trkpt lat="41.25997" lon="14.092125"><ele>167.0</ele><time>2026-05-02T05:55:31.499Z</time></trkpt><trkpt lat="41.2601767" lon="14.0921217"><ele>167.0</ele><time>2026-05-02T05:55:32.498Z</time></trkpt><trkpt lat="41.2603917" lon="14.0921183"><ele>167.0</ele><time>2026-05-02T05:55:33.498Z</time></trkpt><trkpt lat="41.2606083" lon="14.092115"><ele>165.66666666666666</ele><time>2026-05-02T05:55:34.498Z</time></trkpt><trkpt lat="41.2608283" lon="14.0921117"><ele>164.33333333333334</ele><time>2026-05-02T05:55:35.498Z</time></trkpt><trkpt lat="41.2610467" lon="14.0921083"><ele>163.0</ele><time>2026-05-02T05:55:36.498Z</time></trkpt><trkpt lat="41.261265" lon="14.0921"><ele>161.0</ele><time>2026-05-02T05:55:37.498Z</time></trkpt><trkpt lat="41.2614833" lon="14.0920933"><ele>159.0</ele><time>2026-05-02T05:55:38.498Z</time></trkpt><trkpt lat="41.2617033" lon="14.092085"><ele>157.0</ele><time>2026-05-02T05:55:39.498Z</time></trkpt><trkpt lat="41.2619283" lon="14.09208"><ele>157.0</ele><time>2026-05-02T05:55:40.498Z</time></trkpt><trkpt lat="41.2621483" lon="14.092075"><ele>157.0</ele><time>2026-05-02T05:55:41.498Z</time></trkpt><trkpt lat="41.2623717" lon="14.092065"><ele>157.0</ele><time>2026-05-02T05:55:42.498Z</time></trkpt><trkpt lat="41.2625917" lon="14.09206"><ele>155.0</ele><time>2026-05-02T05:55:43.498Z</time></trkpt><trkpt lat="41.26281" lon="14.092055"><ele>153.0</ele><time>2026-05-02T05:55:44.498Z</time></trkpt><trkpt lat="41.2630333" lon="14.0920533"><ele>151.0</ele><time>2026-05-02T05:55:45.498Z</time></trkpt><trkpt lat="41.2632483" lon="14.0920517"><ele>150.66666666666669</ele><time>2026-05-02T05:55:46.498Z</time></trkpt><trkpt lat="41.2634633" lon="14.0920483"><ele>150.33333333333334</ele><time>2026-05-02T05:55:47.499Z</time></trkpt><trkpt lat="41.2636733" lon="14.0920433"><ele>150.0</ele><time>2026-05-02T05:55:48.498Z</time></trkpt><trkpt lat="41.2638733" lon="14.0920417"><ele>152.0</ele><time>2026-05-02T05:55:49.498Z</time></trkpt><trkpt lat="41.264075" lon="14.0920367"><ele>154.0</ele><time>2026-05-02T05:55:50.498Z</time></trkpt><trkpt lat="41.264275" lon="14.0920317"><ele>156.0</ele><time>2026-05-02T05:55:51.498Z</time></trkpt><trkpt lat="41.26448" lon="14.0920317"><ele>156.0</ele><time>2026-05-02T05:55:52.499Z</time></trkpt><trkpt lat="41.2646817" lon="14.0920233"><ele>156.0</ele><time>2026-05-02T05:55:53.499Z</time></trkpt><trkpt lat="41.2648867" lon="14.092015"><ele>156.0</ele><time>2026-05-02T05:55:54.498Z</time></trkpt><trkpt lat="41.2650917" lon="14.0920067"><ele>158.0</ele><time>2026-05-02T05:55:55.498Z</time></trkpt><trkpt lat="41.265295" lon="14.0920017"><ele>160.0</ele><time>2026-05-02T05:55:56.498Z</time></trkpt><trkpt lat="41.2655033" lon="14.0920017"><ele>162.0</ele><time>2026-05-02T05:55:57.498Z</time></trkpt><trkpt lat="41.2657167" lon="14.0919967"><ele>163.66666666666666</ele><time>2026-05-02T05:55:58.498Z</time></trkpt><trkpt lat="41.26593" lon="14.09199"><ele>165.33333333333331</ele><time>2026-05-02T05:55:59.498Z</time></trkpt><trkpt lat="41.266145" lon="14.091985"><ele>167.0</ele><time>2026-05-02T05:56:00.498Z</time></trkpt><trkpt lat="41.2663617" lon="14.0919817"><ele>168.33333333333331</ele><time>2026-05-02T05:56:01.498Z</time></trkpt><trkpt lat="41.2665833" lon="14.0919767"><ele>169.66666666666666</ele><time>2026-05-02T05:56:02.498Z</time></trkpt><trkpt lat="41.2667983" lon="14.0919733"><ele>171.0</ele><time>2026-05-02T05:56:03.498Z</time></trkpt><trkpt lat="41.267015" lon="14.0919683"><ele>171.0</ele><time>2026-05-02T05:56:04.498Z</time></trkpt><trkpt lat="41.26722" lon="14.09196"><ele>171.0</ele><time>2026-05-02T05:56:05.498Z</time></trkpt><trkpt lat="41.2674233" lon="14.0919517"><ele>171.0</ele><time>2026-05-02T05:56:06.499Z</time></trkpt><trkpt lat="41.26762" lon="14.0919467"><ele>171.66666666666666</ele><time>2026-05-02T05:56:07.499Z</time></trkpt><trkpt lat="41.26782" lon="14.0919433"><ele>172.33333333333331</ele><time>2026-05-02T05:56:08.498Z</time></trkpt><trkpt lat="41.2680233" lon="14.0919417"><ele>173.0</ele><time>2026-05-02T05:56:09.499Z</time></trkpt><trkpt lat="41.2682183" lon="14.0919333"><ele>173.0</ele><time>2026-05-02T05:56:10.498Z</time></trkpt><trkpt lat="41.2684167" lon="14.091935"><ele>173.0</ele><time>2026-05-02T05:56:11.498Z</time></trkpt><trkpt lat="41.26862" lon="14.09193"><ele>173.0</ele><time>2026-05-02T05:56:12.498Z</time></trkpt><trkpt lat="41.2688233" lon="14.091925"><ele>173.0</ele><time>2026-05-02T05:56:13.498Z</time></trkpt><trkpt lat="41.2690283" lon="14.091925"><ele>173.0</ele><time>2026-05-02T05:56:14.498Z</time></trkpt><trkpt lat="41.269235" lon="14.0919167"><ele>173.0</ele><time>2026-05-02T05:56:15.498Z</time></trkpt><trkpt lat="41.26944" lon="14.0919083"><ele>173.0</ele><time>2026-05-02T05:56:16.498Z</time></trkpt><trkpt lat="41.2696433" lon="14.0918983"><ele>173.0</ele><time>2026-05-02T05:56:17.498Z</time></trkpt><trkpt lat="41.269845" lon="14.0918983"><ele>173.0</ele><time>2026-05-02T05:56:18.498Z</time></trkpt><trkpt lat="41.2700417" lon="14.091895"><ele>175.0</ele><time>2026-05-02T05:56:19.498Z</time></trkpt><trkpt lat="41.27024" lon="14.0918917"><ele>177.0</ele><time>2026-05-02T05:56:20.498Z</time></trkpt><trkpt lat="41.27044" lon="14.091885"><ele>179.0</ele><time>2026-05-02T05:56:21.498Z</time></trkpt><trkpt lat="41.27064" lon="14.091885"><ele>180.0</ele><time>2026-05-02T05:56:22.498Z</time></trkpt><trkpt lat="41.2708367" lon="14.0918817"><ele>181.0</ele><time>2026-05-02T05:56:23.498Z</time></trkpt><trkpt lat="41.2710317" lon="14.0918783"><ele>182.0</ele><time>2026-05-02T05:56:24.498Z</time></trkpt><trkpt lat="41.2712283" lon="14.0918717"><ele>182.0</ele><time>2026-05-02T05:56:25.498Z</time></trkpt><trkpt lat="41.271425" lon="14.0918667"><ele>182.0</ele><time>2026-05-02T05:56:26.498Z</time></trkpt><trkpt lat="41.27162" lon="14.09186"><ele>182.0</ele><time>2026-05-02T05:56:27.498Z</time></trkpt><trkpt lat="41.2718167" lon="14.0918533"><ele>183.0</ele><time>2026-05-02T05:56:28.498Z</time></trkpt><trkpt lat="41.272015" lon="14.0918467"><ele>184.0</ele><time>2026-05-02T05:56:29.498Z</time></trkpt><trkpt lat="41.272215" lon="14.0918467"><ele>185.0</ele><time>2026-05-02T05:56:30.498Z</time></trkpt><trkpt lat="41.2724133" lon="14.0918367"><ele>185.66666666666666</ele><time>2026-05-02T05:56:31.498Z</time></trkpt><trkpt lat="41.272615" lon="14.0918383"><ele>186.33333333333334</ele><time>2026-05-02T05:56:32.498Z</time></trkpt><trkpt lat="41.2728167" lon="14.0918317"><ele>187.0</ele><time>2026-05-02T05:56:33.498Z</time></trkpt><trkpt lat="41.273025" lon="14.0918267"><ele>187.66666666666669</ele><time>2026-05-02T05:56:34.498Z</time></trkpt><trkpt lat="41.2732383" lon="14.0918167"><ele>188.33333333333334</ele><time>2026-05-02T05:56:35.498Z</time></trkpt><trkpt lat="41.2734483" lon="14.0918083"><ele>189.0</ele><time>2026-05-02T05:56:36.498Z</time></trkpt><trkpt lat="41.273655" lon="14.0918067"><ele>189.0</ele><time>2026-05-02T05:56:37.498Z</time></trkpt><trkpt lat="41.2738683" lon="14.09181"><ele>189.0</ele><time>2026-05-02T05:56:38.498Z</time></trkpt><trkpt lat="41.2740733" lon="14.091805"><ele>189.0</ele><time>2026-05-02T05:56:39.498Z</time></trkpt><trkpt lat="41.274275" lon="14.0918033"><ele>189.33333333333334</ele><time>2026-05-02T05:56:40.498Z</time></trkpt><trkpt lat="41.2744833" lon="14.0917967"><ele>189.66666666666669</ele><time>2026-05-02T05:56:41.498Z</time></trkpt><trkpt lat="41.274685" lon="14.09179"><ele>190.0</ele><time>2026-05-02T05:56:42.499Z</time></trkpt><trkpt lat="41.2748883" lon="14.091785"><ele>190.33333333333334</ele><time>2026-05-02T05:56:43.498Z</time></trkpt><trkpt lat="41.2750867" lon="14.091775"><ele>190.66666666666666</ele><time>2026-05-02T05:56:44.498Z</time></trkpt><trkpt lat="41.2752817" lon="14.0917683"><ele>191.0</ele><time>2026-05-02T05:56:45.498Z</time></trkpt><trkpt lat="41.2754783" lon="14.0917633"><ele>191.66666666666666</ele><time>2026-05-02T05:56:46.499Z</time></trkpt><trkpt lat="41.27568" lon="14.0917633"><ele>192.33333333333331</ele><time>2026-05-02T05:56:47.498Z</time></trkpt><trkpt lat="41.2758833" lon="14.0917583"><ele>193.0</ele><time>2026-05-02T05:56:48.498Z</time></trkpt><trkpt lat="41.2760867" lon="14.091755"><ele>193.0</ele><time>2026-05-02T05:56:49.498Z</time></trkpt><trkpt lat="41.2762967" lon="14.0917533"><ele>193.0</ele><time>2026-05-02T05:56:50.498Z</time></trkpt><trkpt lat="41.2764983" lon="14.091745"><ele>193.0</ele><time>2026-05-02T05:56:51.499Z</time></trkpt><trkpt lat="41.276705" lon="14.0917367"><ele>191.0</ele><time>2026-05-02T05:56:52.498Z</time></trkpt><trkpt lat="41.2769083" lon="14.0917267"><ele>189.0</ele><time>2026-05-02T05:56:53.499Z</time></trkpt><trkpt lat="41.2771167" lon="14.0917217"><ele>187.0</ele><time>2026-05-02T05:56:54.499Z</time></trkpt><trkpt lat="41.2773217" lon="14.0917117"><ele>187.0</ele><time>2026-05-02T05:56:55.498Z</time></trkpt><trkpt lat="41.27753" lon="14.0917117"><ele>187.0</ele><time>2026-05-02T05:56:56.498Z</time></trkpt><trkpt lat="41.2777417" lon="14.0917133"><ele>187.0</ele><time>2026-05-02T05:56:57.498Z</time></trkpt><trkpt lat="41.2779533" lon="14.0917083"><ele>186.66666666666669</ele><time>2026-05-02T05:56:58.498Z</time></trkpt><trkpt lat="41.2781717" lon="14.09171"><ele>186.33333333333334</ele><time>2026-05-02T05:56:59.498Z</time></trkpt><trkpt lat="41.27839" lon="14.091705"><ele>186.0</ele><time>2026-05-02T05:57:00.498Z</time></trkpt><trkpt lat="41.2786033" lon="14.0917033"><ele>186.0</ele><time>2026-05-02T05:57:01.498Z</time></trkpt><trkpt lat="41.2788167" lon="14.0916917"><ele>186.0</ele><time>2026-05-02T05:57:02.498Z</time></trkpt><trkpt lat="41.2790283" lon="14.0916867"><ele>186.0</ele><time>2026-05-02T05:57:03.498Z</time></trkpt><trkpt lat="41.2792367" lon="14.0916867"><ele>184.33333333333334</ele><time>2026-05-02T05:57:04.498Z</time></trkpt><trkpt lat="41.2794383" lon="14.09168"><ele>182.66666666666669</ele><time>2026-05-02T05:57:05.498Z</time></trkpt><trkpt lat="41.27964" lon="14.0916733"><ele>181.0</ele><time>2026-05-02T05:57:06.498Z</time></trkpt><trkpt lat="41.2798433" lon="14.091665"><ele>180.66666666666669</ele><time>2026-05-02T05:57:07.498Z</time></trkpt><trkpt lat="41.2800433" lon="14.0916617"><ele>180.33333333333334</ele><time>2026-05-02T05:57:08.498Z</time></trkpt><trkpt lat="41.2802467" lon="14.0916517"><ele>180.0</ele><time>2026-05-02T05:57:09.498Z</time></trkpt><trkpt lat="41.28045" lon="14.0916367"><ele>182.33333333333334</ele><time>2026-05-02T05:57:10.499Z</time></trkpt><trkpt lat="41.2806567" lon="14.0916417"><ele>184.66666666666669</ele><time>2026-05-02T05:57:11.499Z</time></trkpt><trkpt lat="41.280865" lon="14.0916417"><ele>187.0</ele><time>2026-05-02T05:57:12.498Z</time></trkpt><trkpt lat="41.281065" lon="14.09165"><ele>187.0</ele><time>2026-05-02T05:57:13.498Z</time></trkpt><trkpt lat="41.2812867" lon="14.0916483"><ele>187.0</ele><time>2026-05-02T05:57:14.498Z</time></trkpt><trkpt lat="41.2814967" lon="14.0916383"><ele>187.0</ele><time>2026-05-02T05:57:15.498Z</time></trkpt><trkpt lat="41.2817133" lon="14.09163"><ele>187.0</ele><time>2026-05-02T05:57:16.498Z</time></trkpt><trkpt lat="41.2819267" lon="14.0916167"><ele>187.0</ele><time>2026-05-02T05:57:17.498Z</time></trkpt><trkpt lat="41.2821367" lon="14.09161"><ele>187.0</ele><time>2026-05-02T05:57:18.498Z</time></trkpt><trkpt lat="41.282345" lon="14.0915983"><ele>187.0</ele><time>2026-05-02T05:57:19.498Z</time></trkpt><trkpt lat="41.28255" lon="14.0915967"><ele>187.0</ele><time>2026-05-02T05:57:20.498Z</time></trkpt><trkpt lat="41.2827533" lon="14.0915917"><ele>187.0</ele><time>2026-05-02T05:57:21.498Z</time></trkpt><trkpt lat="41.282965" lon="14.09159"><ele>184.66666666666669</ele><time>2026-05-02T05:57:22.498Z</time></trkpt><trkpt lat="41.2831717" lon="14.09159"><ele>182.33333333333334</ele><time>2026-05-02T05:57:23.498Z</time></trkpt><trkpt lat="41.2833783" lon="14.0915883"><ele>180.0</ele><time>2026-05-02T05:57:24.498Z</time></trkpt><trkpt lat="41.28359" lon="14.0915817"><ele>180.0</ele><time>2026-05-02T05:57:25.498Z</time></trkpt><trkpt lat="41.2838033" lon="14.0915733"><ele>180.0</ele><time>2026-05-02T05:57:26.498Z</time></trkpt><trkpt lat="41.28402" lon="14.0915683"><ele>180.0</ele><time>2026-05-02T05:57:27.498Z</time></trkpt><trkpt lat="41.284235" lon="14.09156"><ele>180.33333333333334</ele><time>2026-05-02T05:57:28.498Z</time></trkpt><trkpt lat="41.2844533" lon="14.0915533"><ele>180.66666666666669</ele><time>2026-05-02T05:57:29.498Z</time></trkpt><trkpt lat="41.2846667" lon="14.091545"><ele>181.0</ele><time>2026-05-02T05:57:30.498Z</time></trkpt><trkpt lat="41.2848817" lon="14.0915367"><ele>181.0</ele><time>2026-05-02T05:57:31.498Z</time></trkpt><trkpt lat="41.28509" lon="14.0915367"><ele>181.0</ele><time>2026-05-02T05:57:32.498Z</time></trkpt><trkpt lat="41.2853" lon="14.0915333"><ele>181.0</ele><time>2026-05-02T05:57:33.498Z</time></trkpt><trkpt lat="41.28551" lon="14.09153"><ele>180.66666666666669</ele><time>2026-05-02T05:57:34.498Z</time></trkpt><trkpt lat="41.2857183" lon="14.091525"><ele>180.33333333333334</ele><time>2026-05-02T05:57:35.498Z</time></trkpt><trkpt lat="41.2859283" lon="14.0915167"><ele>180.0</ele><time>2026-05-02T05:57:36.499Z</time></trkpt><trkpt lat="41.2861383" lon="14.09151"><ele>180.0</ele><time>2026-05-02T05:57:37.498Z</time></trkpt><trkpt lat="41.28635" lon="14.0915083"><ele>180.0</ele><time>2026-05-02T05:57:38.498Z</time></trkpt><trkpt lat="41.2865617" lon="14.0915033"><ele>180.0</ele><time>2026-05-02T05:57:39.498Z</time></trkpt><trkpt lat="41.28677" lon="14.0915017"><ele>181.33333333333334</ele><time>2026-05-02T05:57:40.498Z</time></trkpt><trkpt lat="41.2869883" lon="14.0914983"><ele>182.66666666666669</ele><time>2026-05-02T05:57:41.498Z</time></trkpt><trkpt lat="41.2872" lon="14.091495"><ele>184.0</ele><time>2026-05-02T05:57:42.498Z</time></trkpt><trkpt lat="41.2874117" lon="14.0914917"><ele>184.66666666666669</ele><time>2026-05-02T05:57:43.498Z</time></trkpt><trkpt lat="41.2876283" lon="14.09148"><ele>185.33333333333334</ele><time>2026-05-02T05:57:44.498Z</time></trkpt><trkpt lat="41.287835" lon="14.0914783"><ele>186.0</ele><time>2026-05-02T05:57:45.498Z</time></trkpt><trkpt lat="41.2880483" lon="14.091475"><ele>186.0</ele><time>2026-05-02T05:57:46.498Z</time></trkpt><trkpt lat="41.28826" lon="14.0914683"><ele>186.0</ele><time>2026-05-02T05:57:47.498Z</time></trkpt><trkpt lat="41.2884733" lon="14.0914617"><ele>186.0</ele><time>2026-05-02T05:57:48.498Z</time></trkpt><trkpt lat="41.2886867" lon="14.0914567"><ele>186.0</ele><time>2026-05-02T05:57:49.498Z</time></trkpt><trkpt lat="41.2889017" lon="14.0914517"><ele>186.0</ele><time>2026-05-02T05:57:50.498Z</time></trkpt><trkpt lat="41.289115" lon="14.091445"><ele>186.0</ele><time>2026-05-02T05:57:51.498Z</time></trkpt><trkpt lat="41.2893283" lon="14.09144"><ele>186.0</ele><time>2026-05-02T05:57:52.498Z</time></trkpt><trkpt lat="41.2895433" lon="14.0914317"><ele>186.0</ele><time>2026-05-02T05:57:53.498Z</time></trkpt><trkpt lat="41.2897583" lon="14.091425"><ele>186.0</ele><time>2026-05-02T05:57:54.498Z</time></trkpt><trkpt lat="41.2899717" lon="14.0914217"><ele>185.66666666666666</ele><time>2026-05-02T05:57:55.498Z</time></trkpt><trkpt lat="41.2901817" lon="14.0914233"><ele>185.33333333333331</ele><time>2026-05-02T05:57:56.498Z</time></trkpt><trkpt lat="41.2904" lon="14.09142"><ele>185.0</ele><time>2026-05-02T05:57:57.499Z</time></trkpt><trkpt lat="41.29061" lon="14.0914167"><ele>185.0</ele><time>2026-05-02T05:57:58.498Z</time></trkpt><trkpt lat="41.29082" lon="14.0914083"><ele>185.0</ele><time>2026-05-02T05:57:59.499Z</time></trkpt><trkpt lat="41.291035" lon="14.0914"><ele>185.0</ele><time>2026-05-02T05:58:00.499Z</time></trkpt><trkpt lat="41.29125" lon="14.0913933"><ele>183.33333333333331</ele><time>2026-05-02T05:58:01.498Z</time></trkpt><trkpt lat="41.2914683" lon="14.0913917"><ele>181.66666666666666</ele><time>2026-05-02T05:58:02.498Z</time></trkpt><trkpt lat="41.2916883" lon="14.0913867"><ele>180.0</ele><time>2026-05-02T05:58:03.498Z</time></trkpt><trkpt lat="41.2919117" lon="14.0913867"><ele>180.0</ele><time>2026-05-02T05:58:04.498Z</time></trkpt><trkpt lat="41.2921317" lon="14.09138"><ele>180.0</ele><time>2026-05-02T05:58:05.498Z</time></trkpt><trkpt lat="41.2923517" lon="14.0913717"><ele>180.0</ele><time>2026-05-02T05:58:06.498Z</time></trkpt><trkpt lat="41.2925717" lon="14.0913583"><ele>180.0</ele><time>2026-05-02T05:58:07.498Z</time></trkpt><trkpt lat="41.292785" lon="14.091355"><ele>180.0</ele><time>2026-05-02T05:58:08.498Z</time></trkpt><trkpt lat="41.292995" lon="14.091345"><ele>180.0</ele><time>2026-05-02T05:58:09.498Z</time></trkpt><trkpt lat="41.2931967" lon="14.0913383"><ele>180.33333333333334</ele><time>2026-05-02T05:58:10.498Z</time></trkpt><trkpt lat="41.2934017" lon="14.091335"><ele>180.66666666666669</ele><time>2026-05-02T05:58:11.498Z</time></trkpt><trkpt lat="41.2936117" lon="14.09133"><ele>181.0</ele><time>2026-05-02T05:58:12.498Z</time></trkpt><trkpt lat="41.2938117" lon="14.09133"><ele>180.33333333333334</ele><time>2026-05-02T05:58:13.498Z</time></trkpt><trkpt lat="41.2940083" lon="14.0913283"><ele>179.66666666666666</ele><time>2026-05-02T05:58:14.498Z</time></trkpt><trkpt lat="41.2942067" lon="14.091325"><ele>179.0</ele><time>2026-05-02T05:58:15.498Z</time></trkpt><trkpt lat="41.2944033" lon="14.091315"><ele>179.0</ele><time>2026-05-02T05:58:16.498Z</time></trkpt><trkpt lat="41.2946083" lon="14.0913117"><ele>179.0</ele><time>2026-05-02T05:58:17.499Z</time></trkpt><trkpt lat="41.294815" lon="14.0913117"><ele>179.0</ele><time>2026-05-02T05:58:18.498Z</time></trkpt><trkpt lat="41.29502" lon="14.091305"><ele>178.33333333333331</ele><time>2026-05-02T05:58:19.498Z</time></trkpt><trkpt lat="41.29523" lon="14.0913"><ele>177.66666666666666</ele><time>2026-05-02T05:58:20.498Z</time></trkpt><trkpt lat="41.29544" lon="14.0912933"><ele>177.0</ele><time>2026-05-02T05:58:21.498Z</time></trkpt><trkpt lat="41.2956517" lon="14.0912917"><ele>176.0</ele><time>2026-05-02T05:58:22.498Z</time></trkpt><trkpt lat="41.2958633" lon="14.0912883"><ele>175.0</ele><time>2026-05-02T05:58:23.498Z</time></trkpt><trkpt lat="41.296075" lon="14.091285"><ele>174.0</ele><time>2026-05-02T05:58:24.498Z</time></trkpt><trkpt lat="41.2962917" lon="14.0912783"><ele>174.0</ele><time>2026-05-02T05:58:25.498Z</time></trkpt><trkpt lat="41.29651" lon="14.0912733"><ele>174.0</ele><time>2026-05-02T05:58:26.499Z</time></trkpt><trkpt lat="41.2967233" lon="14.091265"><ele>174.0</ele><time>2026-05-02T05:58:27.498Z</time></trkpt><trkpt lat="41.2969383" lon="14.0912567"><ele>174.0</ele><time>2026-05-02T05:58:28.498Z</time></trkpt><trkpt lat="41.297155" lon="14.091255"><ele>174.0</ele><time>2026-05-02T05:58:29.499Z</time></trkpt><trkpt lat="41.2973717" lon="14.0912483"><ele>174.0</ele><time>2026-05-02T05:58:30.498Z</time></trkpt><trkpt lat="41.29759" lon="14.091235"><ele>174.66666666666666</ele><time>2026-05-02T05:58:31.498Z</time></trkpt><trkpt lat="41.2978" lon="14.0912217"><ele>175.33333333333331</ele><time>2026-05-02T05:58:32.498Z</time></trkpt><trkpt lat="41.2980183" lon="14.0912183"><ele>176.0</ele><time>2026-05-02T05:58:33.498Z</time></trkpt><trkpt lat="41.2982317" lon="14.0912167"><ele>177.33333333333331</ele><time>2026-05-02T05:58:34.498Z</time></trkpt><trkpt lat="41.29844" lon="14.091215"><ele>178.66666666666666</ele><time>2026-05-02T05:58:35.498Z</time></trkpt><trkpt lat="41.2986367" lon="14.0912067"><ele>180.0</ele><time>2026-05-02T05:58:36.498Z</time></trkpt><trkpt lat="41.29883" lon="14.0911933"><ele>181.0</ele><time>2026-05-02T05:58:37.498Z</time></trkpt><trkpt lat="41.2990267" lon="14.0911883"><ele>182.0</ele><time>2026-05-02T05:58:38.498Z</time></trkpt><trkpt lat="41.2992233" lon="14.0911817"><ele>183.0</ele><time>2026-05-02T05:58:39.498Z</time></trkpt><trkpt lat="41.29942" lon="14.0911783"><ele>183.0</ele><time>2026-05-02T05:58:40.498Z</time></trkpt><trkpt lat="41.299615" lon="14.0911767"><ele>183.0</ele><time>2026-05-02T05:58:41.498Z</time></trkpt><trkpt lat="41.299815" lon="14.0911717"><ele>183.0</ele><time>2026-05-02T05:58:42.498Z</time></trkpt><trkpt lat="41.3000133" lon="14.09116"><ele>184.33333333333334</ele><time>2026-05-02T05:58:43.498Z</time></trkpt><trkpt lat="41.3002117" lon="14.091135"><ele>185.66666666666669</ele><time>2026-05-02T05:58:44.498Z</time></trkpt><trkpt lat="41.3004117" lon="14.091115"><ele>187.0</ele><time>2026-05-02T05:58:45.498Z</time></trkpt><trkpt lat="41.300615" lon="14.09109"><ele>187.0</ele><time>2026-05-02T05:58:46.498Z</time></trkpt><trkpt lat="41.3008183" lon="14.0910617"><ele>187.0</ele><time>2026-05-02T05:58:47.499Z</time></trkpt><trkpt lat="41.30102" lon="14.091025"><ele>187.0</ele><time>2026-05-02T05:58:48.498Z</time></trkpt><trkpt lat="41.3012233" lon="14.0909967"><ele>186.33333333333334</ele><time>2026-05-02T05:58:49.498Z</time></trkpt><trkpt lat="41.30143" lon="14.0909583"><ele>185.66666666666666</ele><time>2026-05-02T05:58:50.499Z</time></trkpt><trkpt lat="41.3016333" lon="14.0909283"><ele>185.0</ele><time>2026-05-02T05:58:51.499Z</time></trkpt><trkpt lat="41.30184" lon="14.090895"><ele>185.0</ele><time>2026-05-02T05:58:52.499Z</time></trkpt><trkpt lat="41.30205" lon="14.0908617"><ele>185.0</ele><time>2026-05-02T05:58:53.499Z</time></trkpt><trkpt lat="41.3022567" lon="14.0908217"><ele>185.0</ele><time>2026-05-02T05:58:54.5Z</time></trkpt><trkpt lat="41.3024667" lon="14.0907833"><ele>186.66666666666666</ele><time>2026-05-02T05:58:55.499Z</time></trkpt><trkpt lat="41.302675" lon="14.0907467"><ele>188.33333333333334</ele><time>2026-05-02T05:58:56.499Z</time></trkpt><trkpt lat="41.3028767" lon="14.0907"><ele>190.0</ele><time>2026-05-02T05:58:57.499Z</time></trkpt><trkpt lat="41.303085" lon="14.0906433"><ele>190.0</ele><time>2026-05-02T05:58:58.499Z</time></trkpt><trkpt lat="41.303295" lon="14.0906"><ele>190.0</ele><time>2026-05-02T05:58:59.499Z</time></trkpt><trkpt lat="41.3035067" lon="14.090545"><ele>190.0</ele><time>2026-05-02T05:59:00.499Z</time></trkpt><trkpt lat="41.3037167" lon="14.0904917"><ele>189.0</ele><time>2026-05-02T05:59:01.499Z</time></trkpt><trkpt lat="41.30392" lon="14.0904333"><ele>188.0</ele><time>2026-05-02T05:59:02.499Z</time></trkpt><trkpt lat="41.3041267" lon="14.0903717"><ele>187.0</ele><time>2026-05-02T05:59:03.499Z</time></trkpt><trkpt lat="41.3043367" lon="14.0903117"><ele>187.0</ele><time>2026-05-02T05:59:04.499Z</time></trkpt><trkpt lat="41.3045417" lon="14.09025"><ele>187.0</ele><time>2026-05-02T05:59:05.499Z</time></trkpt><trkpt lat="41.3047467" lon="14.09018"><ele>187.0</ele><time>2026-05-02T05:59:06.499Z</time></trkpt><trkpt lat="41.3049583" lon="14.0901117"><ele>187.0</ele><time>2026-05-02T05:59:07.499Z</time></trkpt><trkpt lat="41.3051683" lon="14.090035"><ele>187.0</ele><time>2026-05-02T05:59:08.499Z</time></trkpt><trkpt lat="41.3053833" lon="14.0899583"><ele>187.0</ele><time>2026-05-02T05:59:09.499Z</time></trkpt><trkpt lat="41.305595" lon="14.0898733"><ele>187.0</ele><time>2026-05-02T05:59:10.499Z</time></trkpt><trkpt lat="41.30581" lon="14.0897883"><ele>187.0</ele><time>2026-05-02T05:59:11.499Z</time></trkpt><trkpt lat="41.3060317" lon="14.0897067"><ele>187.0</ele><time>2026-05-02T05:59:12.499Z</time></trkpt><trkpt lat="41.30625" lon="14.08963"><ele>187.0</ele><time>2026-05-02T05:59:13.499Z</time></trkpt><trkpt lat="41.306465" lon="14.0895583"><ele>187.0</ele><time>2026-05-02T05:59:14.499Z</time></trkpt><trkpt lat="41.30667" lon="14.089475"><ele>186.0</ele><time>2026-05-02T05:59:15.5Z</time></trkpt><trkpt lat="41.3068717" lon="14.0893983"><ele>185.0</ele><time>2026-05-02T05:59:16.499Z</time></trkpt><trkpt lat="41.3070717" lon="14.0893283"><ele>184.0</ele><time>2026-05-02T05:59:17.499Z</time></trkpt><trkpt lat="41.3072767" lon="14.089255"><ele>183.66666666666669</ele><time>2026-05-02T05:59:18.499Z</time></trkpt><trkpt lat="41.3074817" lon="14.089175"><ele>183.33333333333334</ele><time>2026-05-02T05:59:19.499Z</time></trkpt><trkpt lat="41.30769" lon="14.0891"><ele>183.0</ele><time>2026-05-02T05:59:20.499Z</time></trkpt><trkpt lat="41.307895" lon="14.089025"><ele>182.0</ele><time>2026-05-02T05:59:21.499Z</time></trkpt><trkpt lat="41.3080917" lon="14.0889367"><ele>181.0</ele><time>2026-05-02T05:59:22.499Z</time></trkpt><trkpt lat="41.3083067" lon="14.08886"><ele>180.0</ele><time>2026-05-02T05:59:23.499Z</time></trkpt><trkpt lat="41.308515" lon="14.0887783"><ele>180.0</ele><time>2026-05-02T05:59:24.499Z</time></trkpt><trkpt lat="41.30872" lon="14.0887083"><ele>180.0</ele><time>2026-05-02T05:59:25.499Z</time></trkpt><trkpt lat="41.30892" lon="14.0886317"><ele>180.0</ele><time>2026-05-02T05:59:26.499Z</time></trkpt><trkpt lat="41.3091217" lon="14.0885533"><ele>180.0</ele><time>2026-05-02T05:59:27.499Z</time></trkpt><trkpt lat="41.3093217" lon="14.0884767"><ele>180.0</ele><time>2026-05-02T05:59:28.499Z</time></trkpt><trkpt lat="41.3095233" lon="14.0883983"><ele>180.0</ele><time>2026-05-02T05:59:29.499Z</time></trkpt><trkpt lat="41.3097233" lon="14.0883133"><ele>178.0</ele><time>2026-05-02T05:59:30.499Z</time></trkpt><trkpt lat="41.30992" lon="14.08823"><ele>176.0</ele><time>2026-05-02T05:59:31.499Z</time></trkpt><trkpt lat="41.3101217" lon="14.0881533"><ele>174.0</ele><time>2026-05-02T05:59:32.499Z</time></trkpt><trkpt lat="41.3103283" lon="14.0880767"><ele>174.0</ele><time>2026-05-02T05:59:33.499Z</time></trkpt><trkpt lat="41.31052" lon="14.0880083"><ele>174.0</ele><time>2026-05-02T05:59:34.499Z</time></trkpt><trkpt lat="41.310705" lon="14.087935"><ele>174.0</ele><time>2026-05-02T05:59:35.499Z</time></trkpt><trkpt lat="41.31089" lon="14.087865"><ele>174.0</ele><time>2026-05-02T05:59:36.499Z</time></trkpt><trkpt lat="41.3110783" lon="14.08779"><ele>174.0</ele><time>2026-05-02T05:59:37.499Z</time></trkpt><trkpt lat="41.3112683" lon="14.0877167"><ele>174.0</ele><time>2026-05-02T05:59:38.499Z</time></trkpt><trkpt lat="41.3114617" lon="14.087635"><ele>176.0</ele><time>2026-05-02T05:59:39.499Z</time></trkpt><trkpt lat="41.3116517" lon="14.0875633"><ele>178.0</ele><time>2026-05-02T05:59:40.499Z</time></trkpt><trkpt lat="41.31185" lon="14.0874833"><ele>180.0</ele><time>2026-05-02T05:59:41.499Z</time></trkpt><trkpt lat="41.3120433" lon="14.08742"><ele>184.0</ele><time>2026-05-02T05:59:42.499Z</time></trkpt><trkpt lat="41.3122517" lon="14.08734"><ele>188.0</ele><time>2026-05-02T05:59:43.499Z</time></trkpt><trkpt lat="41.3124467" lon="14.0872617"><ele>192.0</ele><time>2026-05-02T05:59:44.499Z</time></trkpt><trkpt lat="41.312655" lon="14.0871783"><ele>192.0</ele><time>2026-05-02T05:59:45.5Z</time></trkpt><trkpt lat="41.312855" lon="14.0871033"><ele>192.0</ele><time>2026-05-02T05:59:46.499Z</time></trkpt><trkpt lat="41.3130617" lon="14.0870233"><ele>192.0</ele><time>2026-05-02T05:59:47.499Z</time></trkpt><trkpt lat="41.313275" lon="14.0869417"><ele>191.33333333333334</ele><time>2026-05-02T05:59:48.499Z</time></trkpt><trkpt lat="41.313485" lon="14.0868617"><ele>190.66666666666669</ele><time>2026-05-02T05:59:49.499Z</time></trkpt><trkpt lat="41.3137" lon="14.0867867"><ele>190.0</ele><time>2026-05-02T05:59:50.499Z</time></trkpt><trkpt lat="41.3139083" lon="14.0867017"><ele>187.33333333333334</ele><time>2026-05-02T05:59:51.499Z</time></trkpt><trkpt lat="41.3141167" lon="14.086615"><ele>184.66666666666666</ele><time>2026-05-02T05:59:52.499Z</time></trkpt><trkpt lat="41.3143267" lon="14.0865383"><ele>182.0</ele><time>2026-05-02T05:59:53.499Z</time></trkpt><trkpt lat="41.3145383" lon="14.0864583"><ele>179.33333333333331</ele><time>2026-05-02T05:59:54.499Z</time></trkpt><trkpt lat="41.3147533" lon="14.0863717"><ele>176.66666666666666</ele><time>2026-05-02T05:59:55.499Z</time></trkpt><trkpt lat="41.314955" lon="14.08629"><ele>174.0</ele><time>2026-05-02T05:59:56.499Z</time></trkpt><trkpt lat="41.3151717" lon="14.0862033"><ele>174.0</ele><time>2026-05-02T05:59:57.499Z</time></trkpt><trkpt lat="41.3153867" lon="14.0861267"><ele>174.0</ele><time>2026-05-02T05:59:58.499Z</time></trkpt><trkpt lat="41.3156067" lon="14.0860383"><ele>173.33333333333334</ele><time>2026-05-02T05:59:59.499Z</time></trkpt><trkpt lat="41.31582" lon="14.0859617"><ele>172.66666666666669</ele><time>2026-05-02T06:00:00.499Z</time></trkpt><trkpt lat="41.31603" lon="14.085875"><ele>172.0</ele><time>2026-05-02T06:00:01.499Z</time></trkpt><trkpt lat="41.316235" lon="14.0857917"><ele>171.0</ele><time>2026-05-02T06:00:02.499Z</time></trkpt><trkpt lat="41.3164483" lon="14.0857167"><ele>170.0</ele><time>2026-05-02T06:00:03.499Z</time></trkpt><trkpt lat="41.3166617" lon="14.0856383"><ele>169.0</ele><time>2026-05-02T06:00:04.499Z</time></trkpt><trkpt lat="41.3168667" lon="14.0855517"><ele>169.0</ele><time>2026-05-02T06:00:05.499Z</time></trkpt><trkpt lat="41.3170733" lon="14.085475"><ele>169.0</ele><time>2026-05-02T06:00:06.499Z</time></trkpt><trkpt lat="41.317275" lon="14.085395"><ele>169.0</ele><time>2026-05-02T06:00:07.499Z</time></trkpt><trkpt lat="41.3174883" lon="14.0853183"><ele>170.0</ele><time>2026-05-02T06:00:08.499Z</time></trkpt><trkpt lat="41.3177033" lon="14.08524"><ele>171.0</ele><time>2026-05-02T06:00:09.499Z</time></trkpt><trkpt lat="41.3179167" lon="14.0851617"><ele>172.0</ele><time>2026-05-02T06:00:10.499Z</time></trkpt><trkpt lat="41.3181267" lon="14.0850683"><ele>174.0</ele><time>2026-05-02T06:00:11.499Z</time></trkpt><trkpt lat="41.3183367" lon="14.0849783"><ele>176.0</ele><time>2026-05-02T06:00:12.499Z</time></trkpt><trkpt lat="41.3185433" lon="14.0848883"><ele>178.0</ele><time>2026-05-02T06:00:13.499Z</time></trkpt><trkpt lat="41.31875" lon="14.0848017"><ele>178.0</ele><time>2026-05-02T06:00:14.499Z</time></trkpt><trkpt lat="41.318955" lon="14.084705"><ele>178.0</ele><time>2026-05-02T06:00:15.499Z</time></trkpt><trkpt lat="41.3191583" lon="14.0846"><ele>178.0</ele><time>2026-05-02T06:00:16.499Z</time></trkpt><trkpt lat="41.319355" lon="14.0844867"><ele>178.0</ele><time>2026-05-02T06:00:17.499Z</time></trkpt><trkpt lat="41.31955" lon="14.0843617"><ele>178.0</ele><time>2026-05-02T06:00:18.499Z</time></trkpt><trkpt lat="41.3197433" lon="14.0842433"><ele>178.0</ele><time>2026-05-02T06:00:19.499Z</time></trkpt><trkpt lat="41.319935" lon="14.0841183"><ele>176.33333333333334</ele><time>2026-05-02T06:00:20.499Z</time></trkpt><trkpt lat="41.3201233" lon="14.083985"><ele>174.66666666666666</ele><time>2026-05-02T06:00:21.499Z</time></trkpt><trkpt lat="41.3203117" lon="14.0838583"><ele>173.0</ele><time>2026-05-02T06:00:22.499Z</time></trkpt><trkpt lat="41.3205067" lon="14.0837333"><ele>173.0</ele><time>2026-05-02T06:00:23.499Z</time></trkpt><trkpt lat="41.3206967" lon="14.083605"><ele>173.0</ele><time>2026-05-02T06:00:24.499Z</time></trkpt><trkpt lat="41.32088" lon="14.0834683"><ele>173.0</ele><time>2026-05-02T06:00:25.499Z</time></trkpt><trkpt lat="41.32106" lon="14.08333"><ele>172.66666666666666</ele><time>2026-05-02T06:00:26.499Z</time></trkpt><trkpt lat="41.3212367" lon="14.0831833"><ele>172.33333333333334</ele><time>2026-05-02T06:00:27.5Z</time></trkpt><trkpt lat="41.321415" lon="14.0830317"><ele>172.0</ele><time>2026-05-02T06:00:28.499Z</time></trkpt><trkpt lat="41.3215883" lon="14.0828783"><ele>173.0</ele><time>2026-05-02T06:00:29.499Z</time></trkpt><trkpt lat="41.3217683" lon="14.0827217"><ele>174.0</ele><time>2026-05-02T06:00:30.499Z</time></trkpt><trkpt lat="41.321945" lon="14.08256"><ele>175.0</ele><time>2026-05-02T06:00:31.499Z</time></trkpt><trkpt lat="41.3221217" lon="14.082395"><ele>176.33333333333334</ele><time>2026-05-02T06:00:32.499Z</time></trkpt><trkpt lat="41.3222917" lon="14.0822167"><ele>177.66666666666666</ele><time>2026-05-02T06:00:33.499Z</time></trkpt><trkpt lat="41.3224633" lon="14.0820383"><ele>179.0</ele><time>2026-05-02T06:00:34.499Z</time></trkpt><trkpt lat="41.32263" lon="14.081855"><ele>179.0</ele><time>2026-05-02T06:00:35.499Z</time></trkpt><trkpt lat="41.3227983" lon="14.08167"><ele>179.0</ele><time>2026-05-02T06:00:36.499Z</time></trkpt><trkpt lat="41.3229683" lon="14.0814883"><ele>179.0</ele><time>2026-05-02T06:00:37.499Z</time></trkpt><trkpt lat="41.32313" lon="14.081295"><ele>178.66666666666666</ele><time>2026-05-02T06:00:38.499Z</time></trkpt><trkpt lat="41.3232933" lon="14.0811067"><ele>178.33333333333334</ele><time>2026-05-02T06:00:39.499Z</time></trkpt><trkpt lat="41.3234583" lon="14.0809167"><ele>178.0</ele><time>2026-05-02T06:00:40.499Z</time></trkpt><trkpt lat="41.32361" lon="14.08072"><ele>178.0</ele><time>2026-05-02T06:00:41.499Z</time></trkpt><trkpt lat="41.3237667" lon="14.0805217"><ele>178.0</ele><time>2026-05-02T06:00:42.499Z</time></trkpt><trkpt lat="41.32392" lon="14.080315"><ele>178.0</ele><time>2026-05-02T06:00:43.499Z</time></trkpt><trkpt lat="41.3240767" lon="14.0801067"><ele>177.0</ele><time>2026-05-02T06:00:44.499Z</time></trkpt><trkpt lat="41.3242317" lon="14.0799017"><ele>176.0</ele><time>2026-05-02T06:00:45.499Z</time></trkpt><trkpt lat="41.3243917" lon="14.0796967"><ele>175.0</ele><time>2026-05-02T06:00:46.499Z</time></trkpt><trkpt lat="41.32455" lon="14.0794867"><ele>175.0</ele><time>2026-05-02T06:00:47.499Z</time></trkpt><trkpt lat="41.32471" lon="14.0792767"><ele>175.0</ele><time>2026-05-02T06:00:48.499Z</time></trkpt><trkpt lat="41.3248667" lon="14.0790717"><ele>175.0</ele><time>2026-05-02T06:00:49.499Z</time></trkpt><trkpt lat="41.32502" lon="14.0788633"><ele>175.0</ele><time>2026-05-02T06:00:50.5Z</time></trkpt><trkpt lat="41.325175" lon="14.0786517"><ele>175.0</ele><time>2026-05-02T06:00:51.5Z</time></trkpt><trkpt lat="41.3253267" lon="14.078445"><ele>175.0</ele><time>2026-05-02T06:00:52.499Z</time></trkpt><trkpt lat="41.3254767" lon="14.078245"><ele>177.33333333333334</ele><time>2026-05-02T06:00:53.499Z</time></trkpt><trkpt lat="41.325625" lon="14.0780467"><ele>179.66666666666666</ele><time>2026-05-02T06:00:54.499Z</time></trkpt><trkpt lat="41.3257717" lon="14.0778483"><ele>182.0</ele><time>2026-05-02T06:00:55.499Z</time></trkpt><trkpt lat="41.3259183" lon="14.077655"><ele>182.0</ele><time>2026-05-02T06:00:56.499Z</time></trkpt><trkpt lat="41.3260567" lon="14.07746"><ele>182.0</ele><time>2026-05-02T06:00:57.499Z</time></trkpt><trkpt lat="41.3261933" lon="14.07727"><ele>182.0</ele><time>2026-05-02T06:00:58.499Z</time></trkpt><trkpt lat="41.3263333" lon="14.0770817"><ele>183.66666666666666</ele><time>2026-05-02T06:00:59.499Z</time></trkpt><trkpt lat="41.3264717" lon="14.0768883"><ele>185.33333333333334</ele><time>2026-05-02T06:01:00.499Z</time></trkpt><trkpt lat="41.326615" lon="14.0767017"><ele>187.0</ele><time>2026-05-02T06:01:01.499Z</time></trkpt><trkpt lat="41.3267583" lon="14.0765083"><ele>188.33333333333334</ele><time>2026-05-02T06:01:02.499Z</time></trkpt><trkpt lat="41.326905" lon="14.0763133"><ele>189.66666666666666</ele><time>2026-05-02T06:01:03.499Z</time></trkpt><trkpt lat="41.327065" lon="14.07612"><ele>191.0</ele><time>2026-05-02T06:01:04.499Z</time></trkpt><trkpt lat="41.327215" lon="14.075935"><ele>191.66666666666666</ele><time>2026-05-02T06:01:05.499Z</time></trkpt><trkpt lat="41.3273517" lon="14.0757267"><ele>192.33333333333331</ele><time>2026-05-02T06:01:06.499Z</time></trkpt><trkpt lat="41.3275033" lon="14.0755317"><ele>193.0</ele><time>2026-05-02T06:01:07.499Z</time></trkpt><trkpt lat="41.32765" lon="14.0753267"><ele>193.0</ele><time>2026-05-02T06:01:08.499Z</time></trkpt><trkpt lat="41.3278017" lon="14.0751217"><ele>193.0</ele><time>2026-05-02T06:01:09.499Z</time></trkpt><trkpt lat="41.3279483" lon="14.07492"><ele>193.0</ele><time>2026-05-02T06:01:10.499Z</time></trkpt><trkpt lat="41.328095" lon="14.0747183"><ele>189.33333333333331</ele><time>2026-05-02T06:01:11.499Z</time></trkpt><trkpt lat="41.3282417" lon="14.0745167"><ele>185.66666666666666</ele><time>2026-05-02T06:01:12.499Z</time></trkpt><trkpt lat="41.328385" lon="14.0743067"><ele>182.0</ele><time>2026-05-02T06:01:13.499Z</time></trkpt><trkpt lat="41.3285417" lon="14.0741133"><ele>181.33333333333331</ele><time>2026-05-02T06:01:14.499Z</time></trkpt><trkpt lat="41.3286933" lon="14.073915"><ele>180.66666666666666</ele><time>2026-05-02T06:01:15.499Z</time></trkpt><trkpt lat="41.328845" lon="14.0737167"><ele>180.0</ele><time>2026-05-02T06:01:16.499Z</time></trkpt><trkpt lat="41.3289933" lon="14.0735217"><ele>180.0</ele><time>2026-05-02T06:01:17.5Z</time></trkpt><trkpt lat="41.3291417" lon="14.0733217"><ele>180.0</ele><time>2026-05-02T06:01:18.499Z</time></trkpt><trkpt lat="41.3292917" lon="14.0731217"><ele>180.0</ele><time>2026-05-02T06:01:19.499Z</time></trkpt><trkpt lat="41.3294467" lon="14.0729167"><ele>180.0</ele><time>2026-05-02T06:01:20.499Z</time></trkpt><trkpt lat="41.3296033" lon="14.0727133"><ele>180.0</ele><time>2026-05-02T06:01:21.499Z</time></trkpt><trkpt lat="41.3297617" lon="14.0725083"><ele>180.0</ele><time>2026-05-02T06:01:22.499Z</time></trkpt><trkpt lat="41.3299167" lon="14.0723033"><ele>178.0</ele><time>2026-05-02T06:01:23.499Z</time></trkpt><trkpt lat="41.3300717" lon="14.072095"><ele>176.0</ele><time>2026-05-02T06:01:24.499Z</time></trkpt><trkpt lat="41.3302267" lon="14.0718833"><ele>174.0</ele><time>2026-05-02T06:01:25.499Z</time></trkpt><trkpt lat="41.3303833" lon="14.071675"><ele>175.33333333333334</ele><time>2026-05-02T06:01:26.499Z</time></trkpt><trkpt lat="41.3305383" lon="14.0714667"><ele>176.66666666666669</ele><time>2026-05-02T06:01:27.499Z</time></trkpt><trkpt lat="41.3306917" lon="14.0712617"><ele>178.0</ele><time>2026-05-02T06:01:28.499Z</time></trkpt><trkpt lat="41.3308433" lon="14.07105"><ele>178.66666666666669</ele><time>2026-05-02T06:01:29.499Z</time></trkpt><trkpt lat="41.3309983" lon="14.0708383"><ele>179.33333333333334</ele><time>2026-05-02T06:01:30.499Z</time></trkpt><trkpt lat="41.3311617" lon="14.07063"><ele>180.0</ele><time>2026-05-02T06:01:31.499Z</time></trkpt><trkpt lat="41.3313183" lon="14.0704167"><ele>180.66666666666666</ele><time>2026-05-02T06:01:32.499Z</time></trkpt><trkpt lat="41.3314767" lon="14.07021"><ele>181.33333333333331</ele><time>2026-05-02T06:01:33.499Z</time></trkpt><trkpt lat="41.331635" lon="14.07"><ele>182.0</ele><time>2026-05-02T06:01:34.5Z</time></trkpt><trkpt lat="41.331795" lon="14.0697917"><ele>182.5</ele><time>2026-05-02T06:01:35.499Z</time></trkpt><trkpt lat="41.3319533" lon="14.0695733"><ele>183.0</ele><time>2026-05-02T06:01:36.499Z</time></trkpt><trkpt lat="41.3321167" lon="14.0693533"><ele>185.0</ele><time>2026-05-02T06:01:37.499Z</time></trkpt><trkpt lat="41.3322767" lon="14.0691383"><ele>187.0</ele><time>2026-05-02T06:01:38.499Z</time></trkpt><trkpt lat="41.3324333" lon="14.0689167"><ele>187.0</ele><time>2026-05-02T06:01:39.5Z</time></trkpt><trkpt lat="41.3325933" lon="14.0687033"><ele>187.0</ele><time>2026-05-02T06:01:40.499Z</time></trkpt><trkpt lat="41.3327583" lon="14.0684883"><ele>187.0</ele><time>2026-05-02T06:01:41.5Z</time></trkpt><trkpt lat="41.3329167" lon="14.0682783"><ele>187.0</ele><time>2026-05-02T06:01:42.5Z</time></trkpt><trkpt lat="41.3330783" lon="14.068065"><ele>187.0</ele><time>2026-05-02T06:01:43.499Z</time></trkpt><trkpt lat="41.33323" lon="14.0678533"><ele>187.0</ele><time>2026-05-02T06:01:44.499Z</time></trkpt><trkpt lat="41.333385" lon="14.067645"><ele>187.0</ele><time>2026-05-02T06:01:45.499Z</time></trkpt><trkpt lat="41.333545" lon="14.0674333"><ele>187.0</ele><time>2026-05-02T06:01:46.5Z</time></trkpt><trkpt lat="41.3337033" lon="14.0672283"><ele>187.0</ele><time>2026-05-02T06:01:47.499Z</time></trkpt><trkpt lat="41.3338617" lon="14.0670233"><ele>187.0</ele><time>2026-05-02T06:01:48.499Z</time></trkpt><trkpt lat="41.3340167" lon="14.0668133"><ele>185.33333333333334</ele><time>2026-05-02T06:01:49.499Z</time></trkpt><trkpt lat="41.33417" lon="14.066605"><ele>183.66666666666666</ele><time>2026-05-02T06:01:50.499Z</time></trkpt><trkpt lat="41.3343217" lon="14.0663983"><ele>182.0</ele><time>2026-05-02T06:01:51.499Z</time></trkpt><trkpt lat="41.3344733" lon="14.0661983"><ele>182.0</ele><time>2026-05-02T06:01:52.499Z</time></trkpt><trkpt lat="41.3346217" lon="14.0659967"><ele>182.0</ele><time>2026-05-02T06:01:53.499Z</time></trkpt><trkpt lat="41.3347683" lon="14.0657917"><ele>182.0</ele><time>2026-05-02T06:01:54.5Z</time></trkpt><trkpt lat="41.33492" lon="14.0655883"><ele>182.33333333333331</ele><time>2026-05-02T06:01:55.499Z</time></trkpt><trkpt lat="41.3350683" lon="14.065385"><ele>182.66666666666666</ele><time>2026-05-02T06:01:56.499Z</time></trkpt><trkpt lat="41.3352217" lon="14.065185"><ele>183.0</ele><time>2026-05-02T06:01:57.5Z</time></trkpt><trkpt lat="41.335375" lon="14.064985"><ele>184.0</ele><time>2026-05-02T06:01:58.499Z</time></trkpt><trkpt lat="41.335525" lon="14.0647883"><ele>185.0</ele><time>2026-05-02T06:01:59.499Z</time></trkpt><trkpt lat="41.33567" lon="14.0645933"><ele>186.0</ele><time>2026-05-02T06:02:00.499Z</time></trkpt><trkpt lat="41.335815" lon="14.0643967"><ele>186.0</ele><time>2026-05-02T06:02:01.499Z</time></trkpt><trkpt lat="41.3359667" lon="14.0642"><ele>186.0</ele><time>2026-05-02T06:02:02.499Z</time></trkpt><trkpt lat="41.336115" lon="14.0640083"><ele>186.0</ele><time>2026-05-02T06:02:03.499Z</time></trkpt><trkpt lat="41.3362633" lon="14.06381"><ele>186.66666666666666</ele><time>2026-05-02T06:02:04.5Z</time></trkpt><trkpt lat="41.3364033" lon="14.0636183"><ele>187.33333333333331</ele><time>2026-05-02T06:02:05.499Z</time></trkpt><trkpt lat="41.3365467" lon="14.0634167"><ele>188.0</ele><time>2026-05-02T06:02:06.499Z</time></trkpt><trkpt lat="41.3366867" lon="14.0632217"><ele>189.33333333333331</ele><time>2026-05-02T06:02:07.499Z</time></trkpt><trkpt lat="41.3368317" lon="14.0630217"><ele>190.66666666666666</ele><time>2026-05-02T06:02:08.499Z</time></trkpt><trkpt lat="41.33699" lon="14.0628217"><ele>192.0</ele><time>2026-05-02T06:02:09.499Z</time></trkpt><trkpt lat="41.3371483" lon="14.0626167"><ele>193.33333333333331</ele><time>2026-05-02T06:02:10.499Z</time></trkpt><trkpt lat="41.3373033" lon="14.062415"><ele>194.66666666666666</ele><time>2026-05-02T06:02:11.499Z</time></trkpt><trkpt lat="41.3374567" lon="14.06221"><ele>196.0</ele><time>2026-05-02T06:02:12.499Z</time></trkpt><trkpt lat="41.337615" lon="14.062005"><ele>196.0</ele><time>2026-05-02T06:02:13.499Z</time></trkpt><trkpt lat="41.3377683" lon="14.0617983"><ele>196.0</ele><time>2026-05-02T06:02:14.499Z</time></trkpt><trkpt lat="41.337925" lon="14.06159"><ele>196.0</ele><time>2026-05-02T06:02:15.499Z</time></trkpt><trkpt lat="41.3380817" lon="14.061385"><ele>194.66666666666666</ele><time>2026-05-02T06:02:16.499Z</time></trkpt><trkpt lat="41.3382383" lon="14.0611783"><ele>193.33333333333331</ele><time>2026-05-02T06:02:17.499Z</time></trkpt><trkpt lat="41.338395" lon="14.0609767"><ele>192.0</ele><time>2026-05-02T06:02:18.5Z</time></trkpt><trkpt lat="41.3385417" lon="14.0607683"><ele>192.0</ele><time>2026-05-02T06:02:19.499Z</time></trkpt><trkpt lat="41.3386917" lon="14.0605633"><ele>192.0</ele><time>2026-05-02T06:02:20.499Z</time></trkpt><trkpt lat="41.3388467" lon="14.0603617"><ele>192.0</ele><time>2026-05-02T06:02:21.499Z</time></trkpt><trkpt lat="41.3389967" lon="14.060155"><ele>192.33333333333331</ele><time>2026-05-02T06:02:22.499Z</time></trkpt><trkpt lat="41.33914" lon="14.059945"><ele>192.66666666666666</ele><time>2026-05-02T06:02:23.499Z</time></trkpt><trkpt lat="41.3392883" lon="14.0597417"><ele>193.0</ele><time>2026-05-02T06:02:24.499Z</time></trkpt><trkpt lat="41.33944" lon="14.059535"><ele>193.0</ele><time>2026-05-02T06:02:25.499Z</time></trkpt><trkpt lat="41.3395883" lon="14.059335"><ele>193.0</ele><time>2026-05-02T06:02:26.5Z</time></trkpt><trkpt lat="41.33974" lon="14.05913"><ele>193.0</ele><time>2026-05-02T06:02:27.499Z</time></trkpt><trkpt lat="41.3398967" lon="14.0589233"><ele>195.33333333333331</ele><time>2026-05-02T06:02:28.499Z</time></trkpt><trkpt lat="41.34005" lon="14.058715"><ele>197.66666666666669</ele><time>2026-05-02T06:02:29.499Z</time></trkpt><trkpt lat="41.340205" lon="14.0585067"><ele>200.0</ele><time>2026-05-02T06:02:30.499Z</time></trkpt><trkpt lat="41.3403617" lon="14.0582967"><ele>201.66666666666669</ele><time>2026-05-02T06:02:31.499Z</time></trkpt><trkpt lat="41.3405217" lon="14.05809"><ele>203.33333333333331</ele><time>2026-05-02T06:02:32.499Z</time></trkpt><trkpt lat="41.3406817" lon="14.0578767"><ele>205.0</ele><time>2026-05-02T06:02:33.499Z</time></trkpt><trkpt lat="41.34084" lon="14.0576667"><ele>205.0</ele><time>2026-05-02T06:02:34.499Z</time></trkpt><trkpt lat="41.3409967" lon="14.0574533"><ele>205.0</ele><time>2026-05-02T06:02:35.499Z</time></trkpt><trkpt lat="41.3411483" lon="14.0572367"><ele>205.0</ele><time>2026-05-02T06:02:36.499Z</time></trkpt><trkpt lat="41.3413083" lon="14.0570167"><ele>205.33333333333331</ele><time>2026-05-02T06:02:37.499Z</time></trkpt><trkpt lat="41.3414567" lon="14.0567917"><ele>205.66666666666669</ele><time>2026-05-02T06:02:38.499Z</time></trkpt><trkpt lat="41.3416117" lon="14.0565917"><ele>206.0</ele><time>2026-05-02T06:02:39.499Z</time></trkpt><trkpt lat="41.3417667" lon="14.0564"><ele>206.0</ele><time>2026-05-02T06:02:40.499Z</time></trkpt><trkpt lat="41.3419283" lon="14.0562117"><ele>206.0</ele><time>2026-05-02T06:02:41.499Z</time></trkpt><trkpt lat="41.342075" lon="14.0560133"><ele>206.0</ele><time>2026-05-02T06:02:42.499Z</time></trkpt><trkpt lat="41.34222" lon="14.0558083"><ele>203.0</ele><time>2026-05-02T06:02:43.499Z</time></trkpt><trkpt lat="41.3423717" lon="14.0556117"><ele>200.0</ele><time>2026-05-02T06:02:44.499Z</time></trkpt><trkpt lat="41.34252" lon="14.0554117"><ele>197.0</ele><time>2026-05-02T06:02:45.499Z</time></trkpt><trkpt lat="41.3426683" lon="14.0552133"><ele>197.0</ele><time>2026-05-02T06:02:46.499Z</time></trkpt><trkpt lat="41.3428217" lon="14.055015"><ele>197.0</ele><time>2026-05-02T06:02:47.499Z</time></trkpt><trkpt lat="41.3429767" lon="14.0548167"><ele>197.0</ele><time>2026-05-02T06:02:48.499Z</time></trkpt><trkpt lat="41.343125" lon="14.054615"><ele>197.66666666666669</ele><time>2026-05-02T06:02:49.499Z</time></trkpt><trkpt lat="41.343275" lon="14.0544167"><ele>198.33333333333331</ele><time>2026-05-02T06:02:50.499Z</time></trkpt><trkpt lat="41.3434233" lon="14.0542183"><ele>199.0</ele><time>2026-05-02T06:02:51.499Z</time></trkpt><trkpt lat="41.343575" lon="14.0540133"><ele>199.0</ele><time>2026-05-02T06:02:52.499Z</time></trkpt><trkpt lat="41.3437267" lon="14.0538083"><ele>199.0</ele><time>2026-05-02T06:02:53.499Z</time></trkpt><trkpt lat="41.3438783" lon="14.0536067"><ele>199.0</ele><time>2026-05-02T06:02:54.499Z</time></trkpt><trkpt lat="41.3440367" lon="14.0534017"><ele>202.66666666666666</ele><time>2026-05-02T06:02:55.499Z</time></trkpt><trkpt lat="41.344195" lon="14.0531967"><ele>206.33333333333331</ele><time>2026-05-02T06:02:56.499Z</time></trkpt><trkpt lat="41.344345" lon="14.0529867"><ele>210.0</ele><time>2026-05-02T06:02:57.499Z</time></trkpt><trkpt lat="41.3445" lon="14.0527783"><ele>210.0</ele><time>2026-05-02T06:02:58.499Z</time></trkpt><trkpt lat="41.3446517" lon="14.0525733"><ele>210.0</ele><time>2026-05-02T06:02:59.499Z</time></trkpt><trkpt lat="41.3448067" lon="14.0523667"><ele>210.0</ele><time>2026-05-02T06:03:00.5Z</time></trkpt><trkpt lat="41.34496" lon="14.052165"><ele>213.33333333333331</ele><time>2026-05-02T06:03:01.499Z</time></trkpt><trkpt lat="41.345115" lon="14.0519583"><ele>216.66666666666666</ele><time>2026-05-02T06:03:02.499Z</time></trkpt><trkpt lat="41.3452683" lon="14.05175"><ele>220.0</ele><time>2026-05-02T06:03:03.499Z</time></trkpt><trkpt lat="41.3454233" lon="14.0515467"><ele>217.33333333333331</ele><time>2026-05-02T06:03:04.499Z</time></trkpt><trkpt lat="41.3455767" lon="14.0513367"><ele>214.66666666666669</ele><time>2026-05-02T06:03:05.499Z</time></trkpt><trkpt lat="41.345725" lon="14.0511267"><ele>212.0</ele><time>2026-05-02T06:03:06.499Z</time></trkpt><trkpt lat="41.3458817" lon="14.0509167"><ele>211.0</ele><time>2026-05-02T06:03:07.499Z</time></trkpt><trkpt lat="41.34604" lon="14.0507117"><ele>210.0</ele><time>2026-05-02T06:03:08.5Z</time></trkpt><trkpt lat="41.3461983" lon="14.050505"><ele>209.0</ele><time>2026-05-02T06:03:09.5Z</time></trkpt><trkpt lat="41.3463583" lon="14.0503"><ele>208.33333333333334</ele><time>2026-05-02T06:03:10.499Z</time></trkpt><trkpt lat="41.3465117" lon="14.0500883"><ele>207.66666666666669</ele><time>2026-05-02T06:03:11.499Z</time></trkpt><trkpt lat="41.3466617" lon="14.0498783"><ele>207.0</ele><time>2026-05-02T06:03:12.499Z</time></trkpt><trkpt lat="41.3468167" lon="14.0496833"><ele>207.0</ele><time>2026-05-02T06:03:13.499Z</time></trkpt><trkpt lat="41.3469617" lon="14.0494767"><ele>207.0</ele><time>2026-05-02T06:03:14.499Z</time></trkpt><trkpt lat="41.3471133" lon="14.049275"><ele>207.0</ele><time>2026-05-02T06:03:15.499Z</time></trkpt><trkpt lat="41.347255" lon="14.0490783"><ele>204.66666666666669</ele><time>2026-05-02T06:03:16.499Z</time></trkpt><trkpt lat="41.3474" lon="14.0488867"><ele>202.33333333333334</ele><time>2026-05-02T06:03:17.499Z</time></trkpt><trkpt lat="41.3475433" lon="14.0487067"><ele>200.0</ele><time>2026-05-02T06:03:18.499Z</time></trkpt><trkpt lat="41.34768" lon="14.048515"><ele>200.0</ele><time>2026-05-02T06:03:19.499Z</time></trkpt><trkpt lat="41.3478233" lon="14.048325"><ele>200.0</ele><time>2026-05-02T06:03:20.499Z</time></trkpt><trkpt lat="41.3479683" lon="14.0481333"><ele>200.0</ele><time>2026-05-02T06:03:21.499Z</time></trkpt><trkpt lat="41.3481167" lon="14.0479333"><ele>201.0</ele><time>2026-05-02T06:03:22.499Z</time></trkpt><trkpt lat="41.3482617" lon="14.0477367"><ele>202.0</ele><time>2026-05-02T06:03:23.499Z</time></trkpt><trkpt lat="41.348415" lon="14.04754"><ele>203.0</ele><time>2026-05-02T06:03:24.499Z</time></trkpt><trkpt lat="41.34856" lon="14.0473367"><ele>205.0</ele><time>2026-05-02T06:03:25.499Z</time></trkpt><trkpt lat="41.34871" lon="14.0471333"><ele>207.0</ele><time>2026-05-02T06:03:26.499Z</time></trkpt><trkpt lat="41.3488667" lon="14.0469367"><ele>209.0</ele><time>2026-05-02T06:03:27.5Z</time></trkpt><trkpt lat="41.3490167" lon="14.0467233"><ele>209.0</ele><time>2026-05-02T06:03:28.499Z</time></trkpt><trkpt lat="41.3491683" lon="14.04652"><ele>209.0</ele><time>2026-05-02T06:03:29.499Z</time></trkpt><trkpt lat="41.349325" lon="14.0463167"><ele>209.0</ele><time>2026-05-02T06:03:30.499Z</time></trkpt><trkpt lat="41.3494867" lon="14.04611"><ele>209.0</ele><time>2026-05-02T06:03:31.499Z</time></trkpt><trkpt lat="41.34964" lon="14.0459017"><ele>209.0</ele><time>2026-05-02T06:03:32.499Z</time></trkpt><trkpt lat="41.3497933" lon="14.045695"><ele>209.0</ele><time>2026-05-02T06:03:33.499Z</time></trkpt><trkpt lat="41.3499483" lon="14.04549"><ele>208.66666666666669</ele><time>2026-05-02T06:03:34.499Z</time></trkpt><trkpt lat="41.3501" lon="14.0452817"><ele>208.33333333333331</ele><time>2026-05-02T06:03:35.499Z</time></trkpt><trkpt lat="41.3502533" lon="14.04507"><ele>208.0</ele><time>2026-05-02T06:03:36.499Z</time></trkpt><trkpt lat="41.3504133" lon="14.04486"><ele>206.66666666666666</ele><time>2026-05-02T06:03:37.499Z</time></trkpt><trkpt lat="41.3505733" lon="14.0446533"><ele>205.33333333333331</ele><time>2026-05-02T06:03:38.499Z</time></trkpt><trkpt lat="41.3507317" lon="14.044445"><ele>204.0</ele><time>2026-05-02T06:03:39.5Z</time></trkpt><trkpt lat="41.35089" lon="14.044235"><ele>205.0</ele><time>2026-05-02T06:03:40.499Z</time></trkpt><trkpt lat="41.3510483" lon="14.0440217"><ele>206.0</ele><time>2026-05-02T06:03:41.499Z</time></trkpt><trkpt lat="41.3512067" lon="14.0438067"><ele>206.0</ele><time>2026-05-02T06:03:42.499Z</time></trkpt><trkpt lat="41.351365" lon="14.0435933"><ele>206.0</ele><time>2026-05-02T06:03:43.499Z</time></trkpt><trkpt lat="41.3515233" lon="14.0433767"><ele>204.5</ele><time>2026-05-02T06:03:44.499Z</time></trkpt><trkpt lat="41.351685" lon="14.0431617"><ele>203.0</ele><time>2026-05-02T06:03:45.499Z</time></trkpt><trkpt lat="41.3518483" lon="14.042945"><ele>203.0</ele><time>2026-05-02T06:03:46.499Z</time></trkpt><trkpt lat="41.352005" lon="14.042735"><ele>203.0</ele><time>2026-05-02T06:03:47.499Z</time></trkpt><trkpt lat="41.3521617" lon="14.04252"><ele>203.0</ele><time>2026-05-02T06:03:48.499Z</time></trkpt><trkpt lat="41.3523167" lon="14.0423117"><ele>204.0</ele><time>2026-05-02T06:03:49.499Z</time></trkpt><trkpt lat="41.3524717" lon="14.0421"><ele>205.0</ele><time>2026-05-02T06:03:50.499Z</time></trkpt><trkpt lat="41.3526333" lon="14.0418967"><ele>206.0</ele><time>2026-05-02T06:03:51.499Z</time></trkpt><trkpt lat="41.3527833" lon="14.0416783"><ele>206.33333333333334</ele><time>2026-05-02T06:03:52.499Z</time></trkpt><trkpt lat="41.3529467" lon="14.041475"><ele>206.66666666666669</ele><time>2026-05-02T06:03:53.499Z</time></trkpt><trkpt lat="41.353105" lon="14.0412633"><ele>207.0</ele><time>2026-05-02T06:03:54.499Z</time></trkpt><trkpt lat="41.3532633" lon="14.0410567"><ele>205.0</ele><time>2026-05-02T06:03:55.499Z</time></trkpt><trkpt lat="41.3534133" lon="14.0408483"><ele>203.0</ele><time>2026-05-02T06:03:56.499Z</time></trkpt><trkpt lat="41.3535683" lon="14.04064"><ele>201.0</ele><time>2026-05-02T06:03:57.499Z</time></trkpt><trkpt lat="41.353725" lon="14.04043"><ele>198.66666666666669</ele><time>2026-05-02T06:03:58.499Z</time></trkpt><trkpt lat="41.353875" lon="14.0402317"><ele>196.33333333333334</ele><time>2026-05-02T06:03:59.5Z</time></trkpt><trkpt lat="41.354025" lon="14.0400333"><ele>194.0</ele><time>2026-05-02T06:04:00.499Z</time></trkpt><trkpt lat="41.3541767" lon="14.03983"><ele>194.0</ele><time>2026-05-02T06:04:01.499Z</time></trkpt><trkpt lat="41.35433" lon="14.0396267"><ele>194.0</ele><time>2026-05-02T06:04:02.499Z</time></trkpt><trkpt lat="41.3544867" lon="14.03942"><ele>194.0</ele><time>2026-05-02T06:04:03.499Z</time></trkpt><trkpt lat="41.3546433" lon="14.03921"><ele>192.66666666666669</ele><time>2026-05-02T06:04:04.499Z</time></trkpt><trkpt lat="41.3548017" lon="14.0390067"><ele>191.33333333333334</ele><time>2026-05-02T06:04:05.499Z</time></trkpt><trkpt lat="41.354955" lon="14.0387983"><ele>190.0</ele><time>2026-05-02T06:04:06.499Z</time></trkpt><trkpt lat="41.3551117" lon="14.0385833"><ele>190.0</ele><time>2026-05-02T06:04:07.499Z</time></trkpt><trkpt lat="41.355265" lon="14.03837"><ele>190.0</ele><time>2026-05-02T06:04:08.499Z</time></trkpt><trkpt lat="41.3554217" lon="14.038155"><ele>190.0</ele><time>2026-05-02T06:04:09.499Z</time></trkpt><trkpt lat="41.35558" lon="14.03795"><ele>188.66666666666669</ele><time>2026-05-02T06:04:10.499Z</time></trkpt><trkpt lat="41.3557333" lon="14.03774"><ele>187.33333333333334</ele><time>2026-05-02T06:04:11.5Z</time></trkpt><trkpt lat="41.355895" lon="14.0375333"><ele>186.0</ele><time>2026-05-02T06:04:12.499Z</time></trkpt><trkpt lat="41.35605" lon="14.037325"><ele>185.0</ele><time>2026-05-02T06:04:13.499Z</time></trkpt><trkpt lat="41.356205" lon="14.037115"><ele>184.0</ele><time>2026-05-02T06:04:14.499Z</time></trkpt><trkpt lat="41.356365" lon="14.0369033"><ele>183.0</ele><time>2026-05-02T06:04:15.499Z</time></trkpt><trkpt lat="41.3565183" lon="14.0366933"><ele>182.66666666666666</ele><time>2026-05-02T06:04:16.499Z</time></trkpt><trkpt lat="41.3566683" lon="14.0364867"><ele>182.33333333333331</ele><time>2026-05-02T06:04:17.499Z</time></trkpt><trkpt lat="41.356825" lon="14.0362783"><ele>182.0</ele><time>2026-05-02T06:04:18.499Z</time></trkpt><trkpt lat="41.3569767" lon="14.036065"><ele>182.0</ele><time>2026-05-02T06:04:19.499Z</time></trkpt><trkpt lat="41.35713" lon="14.0358567"><ele>182.0</ele><time>2026-05-02T06:04:20.5Z</time></trkpt><trkpt lat="41.3572833" lon="14.0356467"><ele>182.0</ele><time>2026-05-02T06:04:21.499Z</time></trkpt><trkpt lat="41.3574467" lon="14.0354367"><ele>181.66666666666666</ele><time>2026-05-02T06:04:22.499Z</time></trkpt><trkpt lat="41.3576017" lon="14.035235"><ele>181.33333333333334</ele><time>2026-05-02T06:04:23.499Z</time></trkpt><trkpt lat="41.3577567" lon="14.0350233"><ele>181.0</ele><time>2026-05-02T06:04:24.499Z</time></trkpt><trkpt lat="41.35791" lon="14.03481"><ele>181.5</ele><time>2026-05-02T06:04:25.499Z</time></trkpt><trkpt lat="41.35807" lon="14.0345967"><ele>182.0</ele><time>2026-05-02T06:04:26.499Z</time></trkpt><trkpt lat="41.35823" lon="14.0343817"><ele>182.0</ele><time>2026-05-02T06:04:27.499Z</time></trkpt><trkpt lat="41.3583833" lon="14.0341717"><ele>182.0</ele><time>2026-05-02T06:04:28.499Z</time></trkpt><trkpt lat="41.3585383" lon="14.0339583"><ele>182.0</ele><time>2026-05-02T06:04:29.5Z</time></trkpt><trkpt lat="41.3586983" lon="14.033745"><ele>182.0</ele><time>2026-05-02T06:04:30.499Z</time></trkpt><trkpt lat="41.3588583" lon="14.0335317"><ele>182.0</ele><time>2026-05-02T06:04:31.5Z</time></trkpt><trkpt lat="41.3590167" lon="14.033325"><ele>182.0</ele><time>2026-05-02T06:04:32.499Z</time></trkpt><trkpt lat="41.3591783" lon="14.0331183"><ele>181.33333333333331</ele><time>2026-05-02T06:04:33.499Z</time></trkpt><trkpt lat="41.3593283" lon="14.0329067"><ele>180.66666666666666</ele><time>2026-05-02T06:04:34.499Z</time></trkpt><trkpt lat="41.3594833" lon="14.0327017"><ele>180.0</ele><time>2026-05-02T06:04:35.499Z</time></trkpt><trkpt lat="41.35964" lon="14.0324967"><ele>182.0</ele><time>2026-05-02T06:04:36.499Z</time></trkpt><trkpt lat="41.3597917" lon="14.0322883"><ele>184.0</ele><time>2026-05-02T06:04:37.499Z</time></trkpt><trkpt lat="41.359945" lon="14.0320867"><ele>186.0</ele><time>2026-05-02T06:04:38.499Z</time></trkpt><trkpt lat="41.360095" lon="14.031885"><ele>186.0</ele><time>2026-05-02T06:04:39.499Z</time></trkpt><trkpt lat="41.36025" lon="14.031685"><ele>186.0</ele><time>2026-05-02T06:04:40.499Z</time></trkpt><trkpt lat="41.3604017" lon="14.0314817"><ele>186.0</ele><time>2026-05-02T06:04:41.499Z</time></trkpt><trkpt lat="41.3605567" lon="14.0312817"><ele>186.66666666666666</ele><time>2026-05-02T06:04:42.5Z</time></trkpt><trkpt lat="41.3607133" lon="14.0310833"><ele>187.33333333333331</ele><time>2026-05-02T06:04:43.499Z</time></trkpt><trkpt lat="41.3608633" lon="14.0308783"><ele>188.0</ele><time>2026-05-02T06:04:44.499Z</time></trkpt><trkpt lat="41.3610117" lon="14.03067"><ele>188.66666666666666</ele><time>2026-05-02T06:04:45.499Z</time></trkpt><trkpt lat="41.361165" lon="14.0304683"><ele>189.33333333333334</ele><time>2026-05-02T06:04:46.499Z</time></trkpt><trkpt lat="41.3613183" lon="14.0302633"><ele>190.0</ele><time>2026-05-02T06:04:47.499Z</time></trkpt><trkpt lat="41.36147" lon="14.0300567"><ele>187.66666666666669</ele><time>2026-05-02T06:04:48.499Z</time></trkpt><trkpt lat="41.3616267" lon="14.0298517"><ele>185.33333333333334</ele><time>2026-05-02T06:04:49.499Z</time></trkpt><trkpt lat="41.3617817" lon="14.0296433"><ele>183.0</ele><time>2026-05-02T06:04:50.499Z</time></trkpt><trkpt lat="41.3619383" lon="14.029435"><ele>183.0</ele><time>2026-05-02T06:04:51.499Z</time></trkpt><trkpt lat="41.3620983" lon="14.0292267"><ele>183.0</ele><time>2026-05-02T06:04:52.499Z</time></trkpt><trkpt lat="41.3622533" lon="14.029015"><ele>183.0</ele><time>2026-05-02T06:04:53.499Z</time></trkpt><trkpt lat="41.36241" lon="14.0288067"><ele>186.33333333333331</ele><time>2026-05-02T06:04:54.499Z</time></trkpt><trkpt lat="41.3625633" lon="14.028595"><ele>189.66666666666666</ele><time>2026-05-02T06:04:55.499Z</time></trkpt><trkpt lat="41.3627167" lon="14.0283883"><ele>193.0</ele><time>2026-05-02T06:04:56.499Z</time></trkpt><trkpt lat="41.3628717" lon="14.0281783"><ele>195.0</ele><time>2026-05-02T06:04:57.499Z</time></trkpt><trkpt lat="41.3630283" lon="14.0279733"><ele>197.0</ele><time>2026-05-02T06:04:58.499Z</time></trkpt><trkpt lat="41.3631883" lon="14.0277617"><ele>199.0</ele><time>2026-05-02T06:04:59.499Z</time></trkpt><trkpt lat="41.3633383" lon="14.0275533"><ele>201.66666666666666</ele><time>2026-05-02T06:05:00.499Z</time></trkpt><trkpt lat="41.363495" lon="14.0273433"><ele>204.33333333333331</ele><time>2026-05-02T06:05:01.499Z</time></trkpt><trkpt lat="41.36365" lon="14.0271333"><ele>207.0</ele><time>2026-05-02T06:05:02.499Z</time></trkpt><trkpt lat="41.3638083" lon="14.0269217"><ele>207.5</ele><time>2026-05-02T06:05:03.499Z</time></trkpt><trkpt lat="41.3639717" lon="14.0267083"><ele>208.0</ele><time>2026-05-02T06:05:04.499Z</time></trkpt><trkpt lat="41.36413" lon="14.0264933"><ele>208.0</ele><time>2026-05-02T06:05:05.5Z</time></trkpt><trkpt lat="41.3642883" lon="14.0262783"><ele>208.0</ele><time>2026-05-02T06:05:06.499Z</time></trkpt><trkpt lat="41.3644483" lon="14.026065"><ele>208.0</ele><time>2026-05-02T06:05:07.499Z</time></trkpt><trkpt lat="41.3646083" lon="14.0258517"><ele>208.0</ele><time>2026-05-02T06:05:08.499Z</time></trkpt><trkpt lat="41.3647683" lon="14.02564"><ele>208.0</ele><time>2026-05-02T06:05:09.499Z</time></trkpt><trkpt lat="41.3649233" lon="14.02543"><ele>208.0</ele><time>2026-05-02T06:05:10.499Z</time></trkpt><trkpt lat="41.3650817" lon="14.0252167"><ele>208.0</ele><time>2026-05-02T06:05:11.499Z</time></trkpt><trkpt lat="41.3652367" lon="14.0250067"><ele>208.33333333333331</ele><time>2026-05-02T06:05:12.499Z</time></trkpt><trkpt lat="41.3653917" lon="14.0247983"><ele>208.66666666666669</ele><time>2026-05-02T06:05:13.499Z</time></trkpt><trkpt lat="41.36555" lon="14.0245933"><ele>209.0</ele><time>2026-05-02T06:05:14.499Z</time></trkpt><trkpt lat="41.365705" lon="14.02439"><ele>208.33333333333334</ele><time>2026-05-02T06:05:15.499Z</time></trkpt><trkpt lat="41.3658567" lon="14.0241883"><ele>207.66666666666669</ele><time>2026-05-02T06:05:16.499Z</time></trkpt><trkpt lat="41.3660083" lon="14.0239833"><ele>207.0</ele><time>2026-05-02T06:05:17.499Z</time></trkpt><trkpt lat="41.3661567" lon="14.0237817"><ele>208.66666666666669</ele><time>2026-05-02T06:05:18.499Z</time></trkpt><trkpt lat="41.3663067" lon="14.0235817"><ele>210.33333333333334</ele><time>2026-05-02T06:05:19.5Z</time></trkpt><trkpt lat="41.3664617" lon="14.0233867"><ele>212.0</ele><time>2026-05-02T06:05:20.499Z</time></trkpt><trkpt lat="41.3666117" lon="14.0231867"><ele>215.0</ele><time>2026-05-02T06:05:21.499Z</time></trkpt><trkpt lat="41.3667617" lon="14.0229883"><ele>218.0</ele><time>2026-05-02T06:05:22.499Z</time></trkpt><trkpt lat="41.3669067" lon="14.02278"><ele>221.0</ele><time>2026-05-02T06:05:23.499Z</time></trkpt><trkpt lat="41.36706" lon="14.0225783"><ele>218.33333333333334</ele><time>2026-05-02T06:05:24.5Z</time></trkpt><trkpt lat="41.36721" lon="14.022375"><ele>215.66666666666669</ele><time>2026-05-02T06:05:25.499Z</time></trkpt><trkpt lat="41.36736" lon="14.02217"><ele>213.0</ele><time>2026-05-02T06:05:26.499Z</time></trkpt><trkpt lat="41.36751" lon="14.0219633"><ele>213.0</ele><time>2026-05-02T06:05:27.499Z</time></trkpt><trkpt lat="41.36766" lon="14.021765"><ele>213.0</ele><time>2026-05-02T06:05:28.499Z</time></trkpt><trkpt lat="41.367815" lon="14.0215633"><ele>213.0</ele><time>2026-05-02T06:05:29.499Z</time></trkpt><trkpt lat="41.3679733" lon="14.02136"><ele>213.0</ele><time>2026-05-02T06:05:30.499Z</time></trkpt><trkpt lat="41.3681233" lon="14.021155"><ele>213.0</ele><time>2026-05-02T06:05:31.499Z</time></trkpt><trkpt lat="41.368275" lon="14.02095"><ele>213.0</ele><time>2026-05-02T06:05:32.499Z</time></trkpt><trkpt lat="41.3684283" lon="14.0207467"><ele>213.0</ele><time>2026-05-02T06:05:33.499Z</time></trkpt><trkpt lat="41.3685817" lon="14.0205383"><ele>213.0</ele><time>2026-05-02T06:05:34.499Z</time></trkpt><trkpt lat="41.36873" lon="14.0203317"><ele>213.0</ele><time>2026-05-02T06:05:35.499Z</time></trkpt><trkpt lat="41.3688767" lon="14.0201333"><ele>214.0</ele><time>2026-05-02T06:05:36.499Z</time></trkpt><trkpt lat="41.3690217" lon="14.0199417"><ele>215.0</ele><time>2026-05-02T06:05:37.5Z</time></trkpt><trkpt lat="41.3691683" lon="14.019745"><ele>216.0</ele><time>2026-05-02T06:05:38.499Z</time></trkpt><trkpt lat="41.3693167" lon="14.01955"><ele>216.0</ele><time>2026-05-02T06:05:39.499Z</time></trkpt><trkpt lat="41.3694667" lon="14.019355"><ele>216.0</ele><time>2026-05-02T06:05:40.5Z</time></trkpt><trkpt lat="41.3696083" lon="14.01916"><ele>216.0</ele><time>2026-05-02T06:05:41.5Z</time></trkpt><trkpt lat="41.3697517" lon="14.018965"><ele>218.33333333333331</ele><time>2026-05-02T06:05:42.5Z</time></trkpt><trkpt lat="41.369895" lon="14.0187633"><ele>220.66666666666666</ele><time>2026-05-02T06:05:43.5Z</time></trkpt><trkpt lat="41.3700433" lon="14.0185733"><ele>223.0</ele><time>2026-05-02T06:05:44.5Z</time></trkpt><trkpt lat="41.3701967" lon="14.0183733"><ele>222.66666666666666</ele><time>2026-05-02T06:05:45.5Z</time></trkpt><trkpt lat="41.3703433" lon="14.0181733"><ele>222.33333333333331</ele><time>2026-05-02T06:05:46.5Z</time></trkpt><trkpt lat="41.3704933" lon="14.01797"><ele>222.0</ele><time>2026-05-02T06:05:47.5Z</time></trkpt><trkpt lat="41.3706417" lon="14.0177667"><ele>222.0</ele><time>2026-05-02T06:05:48.5Z</time></trkpt><trkpt lat="41.3707917" lon="14.01756"><ele>222.0</ele><time>2026-05-02T06:05:49.501Z</time></trkpt><trkpt lat="41.3709517" lon="14.01736"><ele>222.0</ele><time>2026-05-02T06:05:50.5Z</time></trkpt><trkpt lat="41.371105" lon="14.017155"><ele>222.66666666666669</ele><time>2026-05-02T06:05:51.5Z</time></trkpt><trkpt lat="41.37126" lon="14.01694"><ele>223.33333333333334</ele><time>2026-05-02T06:05:52.5Z</time></trkpt><trkpt lat="41.3714117" lon="14.0167333"><ele>224.0</ele><time>2026-05-02T06:05:53.5Z</time></trkpt><trkpt lat="41.3715683" lon="14.016535"><ele>226.33333333333334</ele><time>2026-05-02T06:05:54.5Z</time></trkpt><trkpt lat="41.37172" lon="14.0163283"><ele>228.66666666666669</ele><time>2026-05-02T06:05:55.5Z</time></trkpt><trkpt lat="41.3718683" lon="14.01612"><ele>231.0</ele><time>2026-05-02T06:05:56.5Z</time></trkpt><trkpt lat="41.3720217" lon="14.0159133"><ele>232.0</ele><time>2026-05-02T06:05:57.5Z</time></trkpt><trkpt lat="41.3721817" lon="14.0157067"><ele>233.0</ele><time>2026-05-02T06:05:58.5Z</time></trkpt><trkpt lat="41.3723433" lon="14.0155"><ele>234.0</ele><time>2026-05-02T06:05:59.5Z</time></trkpt><trkpt lat="41.3725083" lon="14.015295"><ele>234.0</ele><time>2026-05-02T06:06:00.5Z</time></trkpt><trkpt lat="41.3726617" lon="14.01508"><ele>234.0</ele><time>2026-05-02T06:06:01.5Z</time></trkpt><trkpt lat="41.37282" lon="14.01487"><ele>234.0</ele><time>2026-05-02T06:06:02.5Z</time></trkpt><trkpt lat="41.372975" lon="14.014665"><ele>235.0</ele><time>2026-05-02T06:06:03.5Z</time></trkpt><trkpt lat="41.3731267" lon="14.0144517"><ele>236.0</ele><time>2026-05-02T06:06:04.5Z</time></trkpt><trkpt lat="41.373285" lon="14.01425"><ele>237.0</ele><time>2026-05-02T06:06:05.5Z</time></trkpt><trkpt lat="41.3734317" lon="14.0140433"><ele>237.33333333333331</ele><time>2026-05-02T06:06:06.5Z</time></trkpt><trkpt lat="41.37358" lon="14.01385"><ele>237.66666666666666</ele><time>2026-05-02T06:06:07.5Z</time></trkpt><trkpt lat="41.373735" lon="14.01365"><ele>238.0</ele><time>2026-05-02T06:06:08.5Z</time></trkpt><trkpt lat="41.3738883" lon="14.0134567"><ele>236.66666666666666</ele><time>2026-05-02T06:06:09.5Z</time></trkpt><trkpt lat="41.3740333" lon="14.013255"><ele>235.33333333333331</ele><time>2026-05-02T06:06:10.5Z</time></trkpt><trkpt lat="41.3741833" lon="14.0130533"><ele>234.0</ele><time>2026-05-02T06:06:11.5Z</time></trkpt><trkpt lat="41.374325" lon="14.0128533"><ele>234.0</ele><time>2026-05-02T06:06:12.5Z</time></trkpt><trkpt lat="41.3744717" lon="14.01265"><ele>234.0</ele><time>2026-05-02T06:06:13.5Z</time></trkpt><trkpt lat="41.374625" lon="14.0124517"><ele>234.0</ele><time>2026-05-02T06:06:14.5Z</time></trkpt><trkpt lat="41.3747717" lon="14.01225"><ele>231.33333333333331</ele><time>2026-05-02T06:06:15.5Z</time></trkpt><trkpt lat="41.374925" lon="14.0120483"><ele>228.66666666666666</ele><time>2026-05-02T06:06:16.5Z</time></trkpt><trkpt lat="41.3750733" lon="14.0118467"><ele>226.0</ele><time>2026-05-02T06:06:17.5Z</time></trkpt><trkpt lat="41.3752233" lon="14.0116467"><ele>224.33333333333331</ele><time>2026-05-02T06:06:18.5Z</time></trkpt><trkpt lat="41.37537" lon="14.0114467"><ele>222.66666666666669</ele><time>2026-05-02T06:06:19.501Z</time></trkpt><trkpt lat="41.3755217" lon="14.01124"><ele>221.0</ele><time>2026-05-02T06:06:20.5Z</time></trkpt><trkpt lat="41.3756733" lon="14.01104"><ele>221.0</ele><time>2026-05-02T06:06:21.5Z</time></trkpt><trkpt lat="41.3758267" lon="14.010835"><ele>221.0</ele><time>2026-05-02T06:06:22.501Z</time></trkpt><trkpt lat="41.3759817" lon="14.01063"><ele>221.0</ele><time>2026-05-02T06:06:23.501Z</time></trkpt><trkpt lat="41.3761333" lon="14.0104183"><ele>220.66666666666669</ele><time>2026-05-02T06:06:24.5Z</time></trkpt><trkpt lat="41.3762933" lon="14.0102117"><ele>220.33333333333331</ele><time>2026-05-02T06:06:25.5Z</time></trkpt><trkpt lat="41.3764517" lon="14.0100033"><ele>220.0</ele><time>2026-05-02T06:06:26.5Z</time></trkpt><trkpt lat="41.37661" lon="14.009795"><ele>223.66666666666666</ele><time>2026-05-02T06:06:27.5Z</time></trkpt><trkpt lat="41.3767633" lon="14.0095867"><ele>227.33333333333331</ele><time>2026-05-02T06:06:28.5Z</time></trkpt><trkpt lat="41.376915" lon="14.00938"><ele>231.0</ele><time>2026-05-02T06:06:29.5Z</time></trkpt><trkpt lat="41.37707" lon="14.009175"><ele>233.66666666666669</ele><time>2026-05-02T06:06:30.5Z</time></trkpt><trkpt lat="41.37722" lon="14.008975"><ele>236.33333333333334</ele><time>2026-05-02T06:06:31.5Z</time></trkpt><trkpt lat="41.3773683" lon="14.008775"><ele>239.0</ele><time>2026-05-02T06:06:32.5Z</time></trkpt><trkpt lat="41.3775167" lon="14.0085717"><ele>239.0</ele><time>2026-05-02T06:06:33.5Z</time></trkpt><trkpt lat="41.3776633" lon="14.0083633"><ele>239.0</ele><time>2026-05-02T06:06:34.5Z</time></trkpt><trkpt lat="41.3778117" lon="14.0081633"><ele>239.0</ele><time>2026-05-02T06:06:35.501Z</time></trkpt><trkpt lat="41.37796" lon="14.007955"><ele>238.66666666666669</ele><time>2026-05-02T06:06:36.5Z</time></trkpt><trkpt lat="41.37811" lon="14.0077533"><ele>238.33333333333331</ele><time>2026-05-02T06:06:37.5Z</time></trkpt><trkpt lat="41.3782667" lon="14.0075533"><ele>238.0</ele><time>2026-05-02T06:06:38.5Z</time></trkpt><trkpt lat="41.3784217" lon="14.007345"><ele>238.0</ele><time>2026-05-02T06:06:39.5Z</time></trkpt><trkpt lat="41.378575" lon="14.00714"><ele>238.0</ele><time>2026-05-02T06:06:40.5Z</time></trkpt><trkpt lat="41.3787233" lon="14.0069333"><ele>238.0</ele><time>2026-05-02T06:06:41.5Z</time></trkpt><trkpt lat="41.37888" lon="14.0067233"><ele>236.5</ele><time>2026-05-02T06:06:42.5Z</time></trkpt><trkpt lat="41.37904" lon="14.00651"><ele>235.0</ele><time>2026-05-02T06:06:43.5Z</time></trkpt><trkpt lat="41.379205" lon="14.0062983"><ele>235.0</ele><time>2026-05-02T06:06:44.5Z</time></trkpt><trkpt lat="41.3793617" lon="14.0060917"><ele>235.0</ele><time>2026-05-02T06:06:45.5Z</time></trkpt><trkpt lat="41.3795183" lon="14.00588"><ele>235.0</ele><time>2026-05-02T06:06:46.5Z</time></trkpt><trkpt lat="41.3796767" lon="14.005665"><ele>232.66666666666666</ele><time>2026-05-02T06:06:47.5Z</time></trkpt><trkpt lat="41.3798333" lon="14.0054483"><ele>230.33333333333331</ele><time>2026-05-02T06:06:48.501Z</time></trkpt><trkpt lat="41.3799917" lon="14.0052383"><ele>228.0</ele><time>2026-05-02T06:06:49.5Z</time></trkpt><trkpt lat="41.3801533" lon="14.0050267"><ele>227.0</ele><time>2026-05-02T06:06:50.5Z</time></trkpt><trkpt lat="41.3803133" lon="14.004815"><ele>226.0</ele><time>2026-05-02T06:06:51.5Z</time></trkpt><trkpt lat="41.3804733" lon="14.0046"><ele>225.0</ele><time>2026-05-02T06:06:52.5Z</time></trkpt><trkpt lat="41.3806333" lon="14.004395"><ele>224.0</ele><time>2026-05-02T06:06:53.5Z</time></trkpt><trkpt lat="41.3807883" lon="14.0041817"><ele>223.0</ele><time>2026-05-02T06:06:54.5Z</time></trkpt><trkpt lat="41.3809433" lon="14.0039633"><ele>223.0</ele><time>2026-05-02T06:06:55.5Z</time></trkpt><trkpt lat="41.3811083" lon="14.00375"><ele>223.0</ele><time>2026-05-02T06:06:56.5Z</time></trkpt><trkpt lat="41.38127" lon="14.0035317"><ele>220.5</ele><time>2026-05-02T06:06:57.5Z</time></trkpt><trkpt lat="41.38143" lon="14.0033233"><ele>218.0</ele><time>2026-05-02T06:06:58.5Z</time></trkpt><trkpt lat="41.38159" lon="14.0031067"><ele>218.0</ele><time>2026-05-02T06:06:59.501Z</time></trkpt><trkpt lat="41.3817467" lon="14.0028967"><ele>218.0</ele><time>2026-05-02T06:07:00.5Z</time></trkpt><trkpt lat="41.3818983" lon="14.0026867"><ele>218.0</ele><time>2026-05-02T06:07:01.5Z</time></trkpt><trkpt lat="41.3820483" lon="14.002485"><ele>216.33333333333334</ele><time>2026-05-02T06:07:02.5Z</time></trkpt><trkpt lat="41.3821967" lon="14.0022817"><ele>214.66666666666669</ele><time>2026-05-02T06:07:03.5Z</time></trkpt><trkpt lat="41.38235" lon="14.0020817"><ele>213.0</ele><time>2026-05-02T06:07:04.5Z</time></trkpt><trkpt lat="41.3825033" lon="14.00188"><ele>213.0</ele><time>2026-05-02T06:07:05.5Z</time></trkpt><trkpt lat="41.382655" lon="14.0016767"><ele>213.0</ele><time>2026-05-02T06:07:06.5Z</time></trkpt><trkpt lat="41.38281" lon="14.0014767"><ele>213.0</ele><time>2026-05-02T06:07:07.501Z</time></trkpt><trkpt lat="41.3829633" lon="14.0012667"><ele>211.66666666666669</ele><time>2026-05-02T06:07:08.5Z</time></trkpt><trkpt lat="41.3831167" lon="14.001055"><ele>210.33333333333334</ele><time>2026-05-02T06:07:09.5Z</time></trkpt><trkpt lat="41.3832667" lon="14.000845"><ele>209.0</ele><time>2026-05-02T06:07:10.501Z</time></trkpt><trkpt lat="41.3834233" lon="14.0006367"><ele>209.0</ele><time>2026-05-02T06:07:11.5Z</time></trkpt><trkpt lat="41.38358" lon="14.0004267"><ele>209.0</ele><time>2026-05-02T06:07:12.5Z</time></trkpt><trkpt lat="41.38374" lon="14.00022"><ele>209.0</ele><time>2026-05-02T06:07:13.5Z</time></trkpt><trkpt lat="41.3838983" lon="14.0000133"><ele>207.33333333333334</ele><time>2026-05-02T06:07:14.501Z</time></trkpt><trkpt lat="41.3840533" lon="13.9998017"><ele>205.66666666666669</ele><time>2026-05-02T06:07:15.5Z</time></trkpt><trkpt lat="41.3842117" lon="13.9995867"><ele>204.0</ele><time>2026-05-02T06:07:16.5Z</time></trkpt><trkpt lat="41.3843717" lon="13.99937"><ele>203.5</ele><time>2026-05-02T06:07:17.5Z</time></trkpt><trkpt lat="41.384535" lon="13.9991517"><ele>203.0</ele><time>2026-05-02T06:07:18.5Z</time></trkpt><trkpt lat="41.3846983" lon="13.99894"><ele>203.0</ele><time>2026-05-02T06:07:19.5Z</time></trkpt><trkpt lat="41.3848567" lon="13.9987267"><ele>203.0</ele><time>2026-05-02T06:07:20.5Z</time></trkpt><trkpt lat="41.385015" lon="13.998515"><ele>203.0</ele><time>2026-05-02T06:07:21.5Z</time></trkpt><trkpt lat="41.38517" lon="13.9982967"><ele>204.0</ele><time>2026-05-02T06:07:22.5Z</time></trkpt><trkpt lat="41.38533" lon="13.998085"><ele>205.0</ele><time>2026-05-02T06:07:23.5Z</time></trkpt><trkpt lat="41.385495" lon="13.9978733"><ele>204.5</ele><time>2026-05-02T06:07:24.5Z</time></trkpt><trkpt lat="41.3856617" lon="13.997655"><ele>204.0</ele><time>2026-05-02T06:07:25.5Z</time></trkpt><trkpt lat="41.3858233" lon="13.9974417"><ele>202.5</ele><time>2026-05-02T06:07:26.5Z</time></trkpt><trkpt lat="41.3859833" lon="13.9972267"><ele>201.0</ele><time>2026-05-02T06:07:27.5Z</time></trkpt><trkpt lat="41.3861383" lon="13.9970067"><ele>201.0</ele><time>2026-05-02T06:07:28.5Z</time></trkpt><trkpt lat="41.3862983" lon="13.9967867"><ele>201.0</ele><time>2026-05-02T06:07:29.5Z</time></trkpt><trkpt lat="41.38646" lon="13.99657"><ele>199.0</ele><time>2026-05-02T06:07:30.5Z</time></trkpt><trkpt lat="41.3866217" lon="13.9963617"><ele>197.0</ele><time>2026-05-02T06:07:31.5Z</time></trkpt><trkpt lat="41.38678" lon="13.996145"><ele>197.0</ele><time>2026-05-02T06:07:32.5Z</time></trkpt><trkpt lat="41.38694" lon="13.9959333"><ele>197.0</ele><time>2026-05-02T06:07:33.5Z</time></trkpt><trkpt lat="41.3870983" lon="13.9957217"><ele>192.0</ele><time>2026-05-02T06:07:34.5Z</time></trkpt><trkpt lat="41.3872583" lon="13.9955083"><ele>187.0</ele><time>2026-05-02T06:07:35.5Z</time></trkpt><trkpt lat="41.3874167" lon="13.995295"><ele>187.0</ele><time>2026-05-02T06:07:36.5Z</time></trkpt><trkpt lat="41.387575" lon="13.9950783"><ele>187.0</ele><time>2026-05-02T06:07:37.5Z</time></trkpt><trkpt lat="41.3877333" lon="13.99487"><ele>187.0</ele><time>2026-05-02T06:07:38.5Z</time></trkpt><trkpt lat="41.3878833" lon="13.9946583"><ele>187.33333333333334</ele><time>2026-05-02T06:07:39.5Z</time></trkpt><trkpt lat="41.3880383" lon="13.9944483"><ele>187.66666666666666</ele><time>2026-05-02T06:07:40.5Z</time></trkpt><trkpt lat="41.3881917" lon="13.994245"><ele>188.0</ele><time>2026-05-02T06:07:41.5Z</time></trkpt><trkpt lat="41.3883433" lon="13.9940367"><ele>188.0</ele><time>2026-05-02T06:07:42.5Z</time></trkpt><trkpt lat="41.3884983" lon="13.9938367"><ele>188.0</ele><time>2026-05-02T06:07:43.5Z</time></trkpt><trkpt lat="41.3886533" lon="13.993635"><ele>188.0</ele><time>2026-05-02T06:07:44.5Z</time></trkpt><trkpt lat="41.3888033" lon="13.9934267"><ele>189.0</ele><time>2026-05-02T06:07:45.5Z</time></trkpt><trkpt lat="41.3889583" lon="13.99322"><ele>190.0</ele><time>2026-05-02T06:07:46.5Z</time></trkpt><trkpt lat="41.38911" lon="13.9930117"><ele>191.0</ele><time>2026-05-02T06:07:47.5Z</time></trkpt><trkpt lat="41.3892683" lon="13.9928083"><ele>191.0</ele><time>2026-05-02T06:07:48.5Z</time></trkpt><trkpt lat="41.3894233" lon="13.9926017"><ele>191.0</ele><time>2026-05-02T06:07:49.5Z</time></trkpt><trkpt lat="41.3895783" lon="13.992395"><ele>191.0</ele><time>2026-05-02T06:07:50.5Z</time></trkpt><trkpt lat="41.389735" lon="13.9921917"><ele>189.66666666666666</ele><time>2026-05-02T06:07:51.5Z</time></trkpt><trkpt lat="41.38989" lon="13.9919833"><ele>188.33333333333334</ele><time>2026-05-02T06:07:52.5Z</time></trkpt><trkpt lat="41.3900433" lon="13.9917767"><ele>187.0</ele><time>2026-05-02T06:07:53.5Z</time></trkpt><trkpt lat="41.39019" lon="13.99157"><ele>184.0</ele><time>2026-05-02T06:07:54.5Z</time></trkpt><trkpt lat="41.3903433" lon="13.99136"><ele>181.0</ele><time>2026-05-02T06:07:55.5Z</time></trkpt><trkpt lat="41.3905" lon="13.9911583"><ele>178.0</ele><time>2026-05-02T06:07:56.5Z</time></trkpt><trkpt lat="41.3906533" lon="13.9909483"><ele>175.66666666666669</ele><time>2026-05-02T06:07:57.5Z</time></trkpt><trkpt lat="41.3908033" lon="13.99074"><ele>173.33333333333334</ele><time>2026-05-02T06:07:58.5Z</time></trkpt><trkpt lat="41.3909567" lon="13.9905383"><ele>171.0</ele><time>2026-05-02T06:07:59.501Z</time></trkpt><trkpt lat="41.3911133" lon="13.9903333"><ele>171.0</ele><time>2026-05-02T06:08:00.5Z</time></trkpt><trkpt lat="41.3912667" lon="13.9901183"><ele>171.0</ele><time>2026-05-02T06:08:01.5Z</time></trkpt><trkpt lat="41.39142" lon="13.9899083"><ele>171.0</ele><time>2026-05-02T06:08:02.5Z</time></trkpt><trkpt lat="41.3915783" lon="13.9897017"><ele>170.66666666666666</ele><time>2026-05-02T06:08:03.5Z</time></trkpt><trkpt lat="41.3917383" lon="13.989495"><ele>170.33333333333331</ele><time>2026-05-02T06:08:04.5Z</time></trkpt><trkpt lat="41.3918967" lon="13.9892883"><ele>170.0</ele><time>2026-05-02T06:08:05.5Z</time></trkpt><trkpt lat="41.3920517" lon="13.9890783"><ele>167.33333333333331</ele><time>2026-05-02T06:08:06.5Z</time></trkpt><trkpt lat="41.3922067" lon="13.988865"><ele>164.66666666666666</ele><time>2026-05-02T06:08:07.501Z</time></trkpt><trkpt lat="41.3923617" lon="13.9886533"><ele>162.0</ele><time>2026-05-02T06:08:08.5Z</time></trkpt><trkpt lat="41.3925217" lon="13.9884417"><ele>163.0</ele><time>2026-05-02T06:08:09.501Z</time></trkpt><trkpt lat="41.39268" lon="13.9882283"><ele>164.0</ele><time>2026-05-02T06:08:10.5Z</time></trkpt><trkpt lat="41.3928417" lon="13.9880117"><ele>164.0</ele><time>2026-05-02T06:08:11.5Z</time></trkpt><trkpt lat="41.393005" lon="13.9877867"><ele>164.0</ele><time>2026-05-02T06:08:12.5Z</time></trkpt><trkpt lat="41.393165" lon="13.987575"><ele>164.0</ele><time>2026-05-02T06:08:13.5Z</time></trkpt><trkpt lat="41.3933267" lon="13.9873583"><ele>164.0</ele><time>2026-05-02T06:08:14.5Z</time></trkpt><trkpt lat="41.39349" lon="13.9871433"><ele>164.0</ele><time>2026-05-02T06:08:15.5Z</time></trkpt><trkpt lat="41.3936533" lon="13.986925"><ele>164.0</ele><time>2026-05-02T06:08:16.5Z</time></trkpt><trkpt lat="41.3938133" lon="13.9867033"><ele>163.0</ele><time>2026-05-02T06:08:17.5Z</time></trkpt><trkpt lat="41.3939767" lon="13.9864867"><ele>162.0</ele><time>2026-05-02T06:08:18.5Z</time></trkpt><trkpt lat="41.3941367" lon="13.986275"><ele>162.0</ele><time>2026-05-02T06:08:19.5Z</time></trkpt><trkpt lat="41.394295" lon="13.9860633"><ele>162.0</ele><time>2026-05-02T06:08:20.5Z</time></trkpt><trkpt lat="41.3944567" lon="13.9858517"><ele>162.0</ele><time>2026-05-02T06:08:21.5Z</time></trkpt><trkpt lat="41.3946183" lon="13.9856383"><ele>162.0</ele><time>2026-05-02T06:08:22.5Z</time></trkpt><trkpt lat="41.3947817" lon="13.9854217"><ele>162.0</ele><time>2026-05-02T06:08:23.5Z</time></trkpt><trkpt lat="41.394945" lon="13.9851983"><ele>162.0</ele><time>2026-05-02T06:08:24.5Z</time></trkpt><trkpt lat="41.3951067" lon="13.9849783"><ele>160.5</ele><time>2026-05-02T06:08:25.5Z</time></trkpt><trkpt lat="41.3952717" lon="13.984765"><ele>159.0</ele><time>2026-05-02T06:08:26.5Z</time></trkpt><trkpt lat="41.3954317" lon="13.98455"><ele>158.0</ele><time>2026-05-02T06:08:27.5Z</time></trkpt><trkpt lat="41.39559" lon="13.9843317"><ele>157.0</ele><time>2026-05-02T06:08:28.5Z</time></trkpt><trkpt lat="41.3957483" lon="13.984115"><ele>155.0</ele><time>2026-05-02T06:08:29.5Z</time></trkpt><trkpt lat="41.3959033" lon="13.983905"><ele>153.0</ele><time>2026-05-02T06:08:30.5Z</time></trkpt><trkpt lat="41.39606" lon="13.98368"><ele>153.0</ele><time>2026-05-02T06:08:31.501Z</time></trkpt><trkpt lat="41.3962183" lon="13.98347"><ele>153.0</ele><time>2026-05-02T06:08:32.5Z</time></trkpt><trkpt lat="41.39638" lon="13.9832567"><ele>150.5</ele><time>2026-05-02T06:08:33.5Z</time></trkpt><trkpt lat="41.3965417" lon="13.9830433"><ele>148.0</ele><time>2026-05-02T06:08:34.5Z</time></trkpt><trkpt lat="41.3967" lon="13.9828267"><ele>148.0</ele><time>2026-05-02T06:08:35.5Z</time></trkpt><trkpt lat="41.39686" lon="13.9826133"><ele>148.0</ele><time>2026-05-02T06:08:36.5Z</time></trkpt><trkpt lat="41.3970217" lon="13.9824017"><ele>146.0</ele><time>2026-05-02T06:08:37.501Z</time></trkpt><trkpt lat="41.3971833" lon="13.9821867"><ele>144.0</ele><time>2026-05-02T06:08:38.5Z</time></trkpt><trkpt lat="41.397345" lon="13.98197"><ele>144.0</ele><time>2026-05-02T06:08:39.5Z</time></trkpt><trkpt lat="41.397505" lon="13.9817583"><ele>144.0</ele><time>2026-05-02T06:08:40.501Z</time></trkpt><trkpt lat="41.39766" lon="13.9815467"><ele>144.0</ele><time>2026-05-02T06:08:41.5Z</time></trkpt><trkpt lat="41.3978183" lon="13.9813317"><ele>142.0</ele><time>2026-05-02T06:08:42.5Z</time></trkpt><trkpt lat="41.3979767" lon="13.9811217"><ele>140.0</ele><time>2026-05-02T06:08:43.5Z</time></trkpt><trkpt lat="41.3981333" lon="13.9809017"><ele>137.33333333333331</ele><time>2026-05-02T06:08:44.5Z</time></trkpt><trkpt lat="41.39829" lon="13.9806867"><ele>134.66666666666666</ele><time>2026-05-02T06:08:45.5Z</time></trkpt><trkpt lat="41.39845" lon="13.9804767"><ele>132.0</ele><time>2026-05-02T06:08:46.5Z</time></trkpt><trkpt lat="41.3986083" lon="13.980265"><ele>132.0</ele><time>2026-05-02T06:08:47.5Z</time></trkpt><trkpt lat="41.39877" lon="13.9800533"><ele>132.0</ele><time>2026-05-02T06:08:48.5Z</time></trkpt><trkpt lat="41.3989283" lon="13.979845"><ele>132.0</ele><time>2026-05-02T06:08:49.501Z</time></trkpt><trkpt lat="41.3990833" lon="13.9796433"><ele>131.0</ele><time>2026-05-02T06:08:50.5Z</time></trkpt><trkpt lat="41.3992367" lon="13.9794383"><ele>130.0</ele><time>2026-05-02T06:08:51.5Z</time></trkpt><trkpt lat="41.3993867" lon="13.9792333"><ele>129.0</ele><time>2026-05-02T06:08:52.5Z</time></trkpt><trkpt lat="41.3995367" lon="13.9790267"><ele>127.33333333333334</ele><time>2026-05-02T06:08:53.5Z</time></trkpt><trkpt lat="41.399685" lon="13.9788183"><ele>125.66666666666667</ele><time>2026-05-02T06:08:54.5Z</time></trkpt><trkpt lat="41.3998333" lon="13.9786083"><ele>124.0</ele><time>2026-05-02T06:08:55.5Z</time></trkpt><trkpt lat="41.3999867" lon="13.978405"><ele>125.0</ele><time>2026-05-02T06:08:56.5Z</time></trkpt><trkpt lat="41.4001417" lon="13.9781983"><ele>126.0</ele><time>2026-05-02T06:08:57.5Z</time></trkpt><trkpt lat="41.400295" lon="13.9779917"><ele>127.0</ele><time>2026-05-02T06:08:58.5Z</time></trkpt><trkpt lat="41.40045" lon="13.9777917"><ele>126.66666666666667</ele><time>2026-05-02T06:08:59.5Z</time></trkpt><trkpt lat="41.4006067" lon="13.9775883"><ele>126.33333333333334</ele><time>2026-05-02T06:09:00.5Z</time></trkpt><trkpt lat="41.4007583" lon="13.9773833"><ele>126.0</ele><time>2026-05-02T06:09:01.5Z</time></trkpt><trkpt lat="41.4009183" lon="13.9771767"><ele>126.0</ele><time>2026-05-02T06:09:02.5Z</time></trkpt><trkpt lat="41.40108" lon="13.9769667"><ele>126.0</ele><time>2026-05-02T06:09:03.5Z</time></trkpt><trkpt lat="41.40124" lon="13.9767533"><ele>125.66666666666666</ele><time>2026-05-02T06:09:04.5Z</time></trkpt><trkpt lat="41.4013917" lon="13.976535"><ele>125.33333333333333</ele><time>2026-05-02T06:09:05.5Z</time></trkpt><trkpt lat="41.4015417" lon="13.976315"><ele>125.0</ele><time>2026-05-02T06:09:06.5Z</time></trkpt><trkpt lat="41.401695" lon="13.97609"><ele>125.0</ele><time>2026-05-02T06:09:07.5Z</time></trkpt><trkpt lat="41.4018483" lon="13.975865"><ele>125.0</ele><time>2026-05-02T06:09:08.5Z</time></trkpt><trkpt lat="41.4019983" lon="13.9756367"><ele>126.5</ele><time>2026-05-02T06:09:09.5Z</time></trkpt><trkpt lat="41.4021483" lon="13.9754083"><ele>128.0</ele><time>2026-05-02T06:09:10.5Z</time></trkpt><trkpt lat="41.402295" lon="13.9751683"><ele>129.5</ele><time>2026-05-02T06:09:11.5Z</time></trkpt><trkpt lat="41.4024367" lon="13.9749267"><ele>131.0</ele><time>2026-05-02T06:09:12.501Z</time></trkpt><trkpt lat="41.40258" lon="13.974685"><ele>131.0</ele><time>2026-05-02T06:09:13.5Z</time></trkpt><trkpt lat="41.4027217" lon="13.9744383"><ele>131.0</ele><time>2026-05-02T06:09:14.5Z</time></trkpt><trkpt lat="41.4028567" lon="13.9741883"><ele>130.5</ele><time>2026-05-02T06:09:15.5Z</time></trkpt><trkpt lat="41.4029917" lon="13.9739433"><ele>130.0</ele><time>2026-05-02T06:09:16.5Z</time></trkpt><trkpt lat="41.4031267" lon="13.9736883"><ele>130.0</ele><time>2026-05-02T06:09:17.5Z</time></trkpt><trkpt lat="41.4032617" lon="13.973435"><ele>130.0</ele><time>2026-05-02T06:09:18.5Z</time></trkpt><trkpt lat="41.4033933" lon="13.9731733"><ele>129.5</ele><time>2026-05-02T06:09:19.5Z</time></trkpt><trkpt lat="41.4035233" lon="13.9729133"><ele>129.0</ele><time>2026-05-02T06:09:20.5Z</time></trkpt><trkpt lat="41.403645" lon="13.972655"><ele>129.0</ele><time>2026-05-02T06:09:21.5Z</time></trkpt><trkpt lat="41.4037683" lon="13.9723933"><ele>129.0</ele><time>2026-05-02T06:09:22.5Z</time></trkpt><trkpt lat="41.4038833" lon="13.9721267"><ele>129.0</ele><time>2026-05-02T06:09:23.5Z</time></trkpt><trkpt lat="41.4039933" lon="13.9718633"><ele>129.0</ele><time>2026-05-02T06:09:24.5Z</time></trkpt><trkpt lat="41.4041083" lon="13.9715833"><ele>129.0</ele><time>2026-05-02T06:09:25.5Z</time></trkpt><trkpt lat="41.4042233" lon="13.9713133"><ele>129.0</ele><time>2026-05-02T06:09:26.5Z</time></trkpt><trkpt lat="41.4043317" lon="13.9710383"><ele>131.0</ele><time>2026-05-02T06:09:27.5Z</time></trkpt><trkpt lat="41.4044417" lon="13.97077"><ele>133.0</ele><time>2026-05-02T06:09:28.5Z</time></trkpt><trkpt lat="41.4045467" lon="13.9704983"><ele>133.0</ele><time>2026-05-02T06:09:29.5Z</time></trkpt><trkpt lat="41.40465" lon="13.9702267"><ele>133.0</ele><time>2026-05-02T06:09:30.5Z</time></trkpt><trkpt lat="41.4047567" lon="13.9699533"><ele>132.66666666666669</ele><time>2026-05-02T06:09:31.5Z</time></trkpt><trkpt lat="41.4048617" lon="13.96969"><ele>132.33333333333334</ele><time>2026-05-02T06:09:32.5Z</time></trkpt><trkpt lat="41.404965" lon="13.96943"><ele>132.0</ele><time>2026-05-02T06:09:33.5Z</time></trkpt><trkpt lat="41.405065" lon="13.969175"><ele>132.0</ele><time>2026-05-02T06:09:34.5Z</time></trkpt><trkpt lat="41.40516" lon="13.9689217"><ele>132.0</ele><time>2026-05-02T06:09:35.5Z</time></trkpt><trkpt lat="41.4052567" lon="13.9686667"><ele>132.0</ele><time>2026-05-02T06:09:36.5Z</time></trkpt><trkpt lat="41.405355" lon="13.9684083"><ele>132.33333333333334</ele><time>2026-05-02T06:09:37.5Z</time></trkpt><trkpt lat="41.4054583" lon="13.9681517"><ele>132.66666666666669</ele><time>2026-05-02T06:09:38.5Z</time></trkpt><trkpt lat="41.40556" lon="13.9678917"><ele>133.0</ele><time>2026-05-02T06:09:39.5Z</time></trkpt><trkpt lat="41.405665" lon="13.96763"><ele>131.33333333333334</ele><time>2026-05-02T06:09:40.5Z</time></trkpt><trkpt lat="41.40577" lon="13.9673683"><ele>129.66666666666666</ele><time>2026-05-02T06:09:41.5Z</time></trkpt><trkpt lat="41.4058717" lon="13.9671117"><ele>128.0</ele><time>2026-05-02T06:09:42.5Z</time></trkpt><trkpt lat="41.405975" lon="13.9668517"><ele>128.33333333333331</ele><time>2026-05-02T06:09:43.501Z</time></trkpt><trkpt lat="41.406075" lon="13.9665967"><ele>128.66666666666666</ele><time>2026-05-02T06:09:44.5Z</time></trkpt><trkpt lat="41.406175" lon="13.9663283"><ele>129.0</ele><time>2026-05-02T06:09:45.5Z</time></trkpt><trkpt lat="41.406275" lon="13.96606"><ele>128.33333333333334</ele><time>2026-05-02T06:09:46.5Z</time></trkpt><trkpt lat="41.40638" lon="13.965795"><ele>127.66666666666667</ele><time>2026-05-02T06:09:47.5Z</time></trkpt><trkpt lat="41.40648" lon="13.965535"><ele>127.0</ele><time>2026-05-02T06:09:48.5Z</time></trkpt><trkpt lat="41.406585" lon="13.9652683"><ele>127.33333333333334</ele><time>2026-05-02T06:09:49.5Z</time></trkpt><trkpt lat="41.4066917" lon="13.9650017"><ele>127.66666666666666</ele><time>2026-05-02T06:09:50.5Z</time></trkpt><trkpt lat="41.4067983" lon="13.9647417"><ele>128.0</ele><time>2026-05-02T06:09:51.5Z</time></trkpt><trkpt lat="41.4068967" lon="13.96448"><ele>128.0</ele><time>2026-05-02T06:09:52.5Z</time></trkpt><trkpt lat="41.407" lon="13.96422"><ele>128.0</ele><time>2026-05-02T06:09:53.5Z</time></trkpt><trkpt lat="41.4071" lon="13.9639583"><ele>128.0</ele><time>2026-05-02T06:09:54.5Z</time></trkpt><trkpt lat="41.4071967" lon="13.963695"><ele>128.33333333333331</ele><time>2026-05-02T06:09:55.5Z</time></trkpt><trkpt lat="41.407295" lon="13.9634383"><ele>128.66666666666666</ele><time>2026-05-02T06:09:56.5Z</time></trkpt><trkpt lat="41.4073983" lon="13.9631817"><ele>129.0</ele><time>2026-05-02T06:09:57.5Z</time></trkpt><trkpt lat="41.4075017" lon="13.9629167"><ele>130.5</ele><time>2026-05-02T06:09:58.5Z</time></trkpt><trkpt lat="41.4076067" lon="13.9626533"><ele>132.0</ele><time>2026-05-02T06:09:59.5Z</time></trkpt><trkpt lat="41.4077117" lon="13.9623833"><ele>133.5</ele><time>2026-05-02T06:10:00.5Z</time></trkpt><trkpt lat="41.4078183" lon="13.9621133"><ele>135.0</ele><time>2026-05-02T06:10:01.5Z</time></trkpt><trkpt lat="41.407925" lon="13.96184"><ele>134.0</ele><time>2026-05-02T06:10:02.5Z</time></trkpt><trkpt lat="41.4080283" lon="13.9615683"><ele>133.0</ele><time>2026-05-02T06:10:03.5Z</time></trkpt><trkpt lat="41.408135" lon="13.9613"><ele>133.0</ele><time>2026-05-02T06:10:04.5Z</time></trkpt><trkpt lat="41.40824" lon="13.96103"><ele>133.0</ele><time>2026-05-02T06:10:05.5Z</time></trkpt><trkpt lat="41.40835" lon="13.960755"><ele>134.5</ele><time>2026-05-02T06:10:06.501Z</time></trkpt><trkpt lat="41.4084567" lon="13.9604817"><ele>136.0</ele><time>2026-05-02T06:10:07.5Z</time></trkpt><trkpt lat="41.408565" lon="13.960215"><ele>137.0</ele><time>2026-05-02T06:10:08.5Z</time></trkpt><trkpt lat="41.4086683" lon="13.9599483"><ele>138.0</ele><time>2026-05-02T06:10:09.5Z</time></trkpt><trkpt lat="41.4087733" lon="13.9596817"><ele>136.5</ele><time>2026-05-02T06:10:10.5Z</time></trkpt><trkpt lat="41.4088783" lon="13.9594067"><ele>135.0</ele><time>2026-05-02T06:10:11.5Z</time></trkpt><trkpt lat="41.408985" lon="13.9591333"><ele>138.0</ele><time>2026-05-02T06:10:12.5Z</time></trkpt><trkpt lat="41.409095" lon="13.9588633"><ele>141.0</ele><time>2026-05-02T06:10:13.5Z</time></trkpt><trkpt lat="41.4092" lon="13.958595"><ele>142.0</ele><time>2026-05-02T06:10:14.5Z</time></trkpt><trkpt lat="41.4093033" lon="13.9583333"><ele>143.0</ele><time>2026-05-02T06:10:15.5Z</time></trkpt><trkpt lat="41.4094033" lon="13.9580667"><ele>144.0</ele><time>2026-05-02T06:10:16.5Z</time></trkpt><trkpt lat="41.4095083" lon="13.957805"><ele>144.0</ele><time>2026-05-02T06:10:17.5Z</time></trkpt><trkpt lat="41.4096083" lon="13.9575417"><ele>144.0</ele><time>2026-05-02T06:10:18.5Z</time></trkpt><trkpt lat="41.40971" lon="13.9572817"><ele>144.0</ele><time>2026-05-02T06:10:19.5Z</time></trkpt><trkpt lat="41.4098083" lon="13.9570217"><ele>142.66666666666666</ele><time>2026-05-02T06:10:20.5Z</time></trkpt><trkpt lat="41.4099017" lon="13.9567567"><ele>141.33333333333331</ele><time>2026-05-02T06:10:21.5Z</time></trkpt><trkpt lat="41.4100067" lon="13.9564867"><ele>140.0</ele><time>2026-05-02T06:10:22.5Z</time></trkpt><trkpt lat="41.410115" lon="13.95622"><ele>140.0</ele><time>2026-05-02T06:10:23.5Z</time></trkpt><trkpt lat="41.4102183" lon="13.9559483"><ele>140.0</ele><time>2026-05-02T06:10:24.5Z</time></trkpt><trkpt lat="41.41033" lon="13.9556833"><ele>140.0</ele><time>2026-05-02T06:10:25.5Z</time></trkpt><trkpt lat="41.410435" lon="13.9554133"><ele>140.0</ele><time>2026-05-02T06:10:26.5Z</time></trkpt><trkpt lat="41.4105417" lon="13.9551483"><ele>135.5</ele><time>2026-05-02T06:10:27.5Z</time></trkpt><trkpt lat="41.4106467" lon="13.9548733"><ele>131.0</ele><time>2026-05-02T06:10:28.5Z</time></trkpt><trkpt lat="41.4107533" lon="13.954605"><ele>131.0</ele><time>2026-05-02T06:10:29.5Z</time></trkpt><trkpt lat="41.4108617" lon="13.9543317"><ele>131.0</ele><time>2026-05-02T06:10:30.5Z</time></trkpt><trkpt lat="41.4109717" lon="13.9540617"><ele>130.0</ele><time>2026-05-02T06:10:31.5Z</time></trkpt><trkpt lat="41.411075" lon="13.9537933"><ele>129.0</ele><time>2026-05-02T06:10:32.5Z</time></trkpt><trkpt lat="41.41118" lon="13.9535183"><ele>128.5</ele><time>2026-05-02T06:10:33.5Z</time></trkpt><trkpt lat="41.4112817" lon="13.9532483"><ele>128.0</ele><time>2026-05-02T06:10:34.5Z</time></trkpt><trkpt lat="41.41139" lon="13.9529783"><ele>127.0</ele><time>2026-05-02T06:10:35.5Z</time></trkpt><trkpt lat="41.411495" lon="13.952705"><ele>126.0</ele><time>2026-05-02T06:10:36.5Z</time></trkpt><trkpt lat="41.4115983" lon="13.95243"><ele>126.0</ele><time>2026-05-02T06:10:37.5Z</time></trkpt><trkpt lat="41.4117067" lon="13.95216"><ele>126.0</ele><time>2026-05-02T06:10:38.5Z</time></trkpt><trkpt lat="41.4118117" lon="13.9518917"><ele>125.0</ele><time>2026-05-02T06:10:39.5Z</time></trkpt><trkpt lat="41.411915" lon="13.95162"><ele>124.0</ele><time>2026-05-02T06:10:40.5Z</time></trkpt><trkpt lat="41.4120217" lon="13.95135"><ele>124.0</ele><time>2026-05-02T06:10:41.5Z</time></trkpt><trkpt lat="41.4121267" lon="13.9510783"><ele>124.0</ele><time>2026-05-02T06:10:42.501Z</time></trkpt><trkpt lat="41.41223" lon="13.9508083"><ele>121.5</ele><time>2026-05-02T06:10:43.5Z</time></trkpt><trkpt lat="41.4123367" lon="13.9505333"><ele>119.0</ele><time>2026-05-02T06:10:44.5Z</time></trkpt><trkpt lat="41.412445" lon="13.9502633"><ele>118.5</ele><time>2026-05-02T06:10:45.5Z</time></trkpt><trkpt lat="41.41255" lon="13.9499933"><ele>118.0</ele><time>2026-05-02T06:10:46.5Z</time></trkpt><trkpt lat="41.412655" lon="13.94972"><ele>118.0</ele><time>2026-05-02T06:10:47.5Z</time></trkpt><trkpt lat="41.41276" lon="13.949455"><ele>118.0</ele><time>2026-05-02T06:10:48.5Z</time></trkpt><trkpt lat="41.4128633" lon="13.9491883"><ele>118.0</ele><time>2026-05-02T06:10:49.5Z</time></trkpt><trkpt lat="41.4129683" lon="13.9489217"><ele>118.0</ele><time>2026-05-02T06:10:50.5Z</time></trkpt><trkpt lat="41.41307" lon="13.9486533"><ele>116.0</ele><time>2026-05-02T06:10:51.5Z</time></trkpt><trkpt lat="41.413175" lon="13.9483883"><ele>114.0</ele><time>2026-05-02T06:10:52.5Z</time></trkpt><trkpt lat="41.4132817" lon="13.948115"><ele>113.5</ele><time>2026-05-02T06:10:53.5Z</time></trkpt><trkpt lat="41.4133867" lon="13.947845"><ele>113.0</ele><time>2026-05-02T06:10:54.5Z</time></trkpt><trkpt lat="41.413495" lon="13.947575"><ele>113.0</ele><time>2026-05-02T06:10:55.5Z</time></trkpt><trkpt lat="41.4135983" lon="13.9473017"><ele>113.0</ele><time>2026-05-02T06:10:56.5Z</time></trkpt><trkpt lat="41.4137033" lon="13.94703"><ele>113.0</ele><time>2026-05-02T06:10:57.5Z</time></trkpt><trkpt lat="41.413815" lon="13.9467533"><ele>113.0</ele><time>2026-05-02T06:10:58.5Z</time></trkpt><trkpt lat="41.413925" lon="13.9464817"><ele>112.5</ele><time>2026-05-02T06:10:59.5Z</time></trkpt><trkpt lat="41.4140317" lon="13.946205"><ele>112.0</ele><time>2026-05-02T06:11:00.5Z</time></trkpt><trkpt lat="41.4141367" lon="13.9459317"><ele>112.0</ele><time>2026-05-02T06:11:01.5Z</time></trkpt><trkpt lat="41.4142467" lon="13.9456567"><ele>112.0</ele><time>2026-05-02T06:11:02.5Z</time></trkpt><trkpt lat="41.4143517" lon="13.94539"><ele>112.0</ele><time>2026-05-02T06:11:03.5Z</time></trkpt><trkpt lat="41.4144533" lon="13.94513"><ele>112.0</ele><time>2026-05-02T06:11:04.5Z</time></trkpt><trkpt lat="41.4145533" lon="13.944865"><ele>112.0</ele><time>2026-05-02T06:11:05.5Z</time></trkpt><trkpt lat="41.4146567" lon="13.9446033"><ele>112.0</ele><time>2026-05-02T06:11:06.5Z</time></trkpt><trkpt lat="41.4147617" lon="13.94434"><ele>112.0</ele><time>2026-05-02T06:11:07.5Z</time></trkpt><trkpt lat="41.4148667" lon="13.9440733"><ele>111.0</ele><time>2026-05-02T06:11:08.5Z</time></trkpt><trkpt lat="41.41497" lon="13.9438017"><ele>110.0</ele><time>2026-05-02T06:11:09.5Z</time></trkpt><trkpt lat="41.415075" lon="13.9435367"><ele>109.0</ele><time>2026-05-02T06:11:10.5Z</time></trkpt><trkpt lat="41.4151783" lon="13.9432767"><ele>108.0</ele><time>2026-05-02T06:11:11.5Z</time></trkpt><trkpt lat="41.4152817" lon="13.9430167"><ele>107.0</ele><time>2026-05-02T06:11:12.501Z</time></trkpt><trkpt lat="41.415385" lon="13.94275"><ele>108.0</ele><time>2026-05-02T06:11:13.501Z</time></trkpt><trkpt lat="41.4154883" lon="13.942485"><ele>109.0</ele><time>2026-05-02T06:11:14.5Z</time></trkpt><trkpt lat="41.41559" lon="13.9422217"><ele>110.0</ele><time>2026-05-02T06:11:15.5Z</time></trkpt><trkpt lat="41.4156917" lon="13.9419583"><ele>107.0</ele><time>2026-05-02T06:11:16.5Z</time></trkpt><trkpt lat="41.415795" lon="13.941695"><ele>104.0</ele><time>2026-05-02T06:11:17.5Z</time></trkpt><trkpt lat="41.4158967" lon="13.9414367"><ele>101.0</ele><time>2026-05-02T06:11:18.5Z</time></trkpt><trkpt lat="41.4159983" lon="13.941175"><ele>101.0</ele><time>2026-05-02T06:11:19.5Z</time></trkpt><trkpt lat="41.4161" lon="13.940915"><ele>101.0</ele><time>2026-05-02T06:11:20.5Z</time></trkpt><trkpt lat="41.4162" lon="13.94065"><ele>101.0</ele><time>2026-05-02T06:11:21.5Z</time></trkpt><trkpt lat="41.4162983" lon="13.940385"><ele>101.33333333333333</ele><time>2026-05-02T06:11:22.5Z</time></trkpt><trkpt lat="41.4164" lon="13.94012"><ele>101.66666666666666</ele><time>2026-05-02T06:11:23.501Z</time></trkpt><trkpt lat="41.4165017" lon="13.9398567"><ele>102.0</ele><time>2026-05-02T06:11:24.5Z</time></trkpt><trkpt lat="41.416605" lon="13.9395917"><ele>101.0</ele><time>2026-05-02T06:11:25.5Z</time></trkpt><trkpt lat="41.4167083" lon="13.9393317"><ele>100.0</ele><time>2026-05-02T06:11:26.5Z</time></trkpt><trkpt lat="41.41681" lon="13.9390683"><ele>99.0</ele><time>2026-05-02T06:11:27.5Z</time></trkpt><trkpt lat="41.4169183" lon="13.9387967"><ele>95.5</ele><time>2026-05-02T06:11:28.5Z</time></trkpt><trkpt lat="41.417025" lon="13.938525"><ele>92.0</ele><time>2026-05-02T06:11:29.5Z</time></trkpt><trkpt lat="41.41713" lon="13.93825"><ele>97.0</ele><time>2026-05-02T06:11:30.5Z</time></trkpt><trkpt lat="41.417235" lon="13.9379767"><ele>102.0</ele><time>2026-05-02T06:11:31.5Z</time></trkpt><trkpt lat="41.4173483" lon="13.9377117"><ele>98.5</ele><time>2026-05-02T06:11:32.5Z</time></trkpt><trkpt lat="41.417455" lon="13.9374433"><ele>95.0</ele><time>2026-05-02T06:11:33.501Z</time></trkpt><trkpt lat="41.4175633" lon="13.93717"><ele>95.0</ele><time>2026-05-02T06:11:34.5Z</time></trkpt><trkpt lat="41.417665" lon="13.9368983"><ele>95.0</ele><time>2026-05-02T06:11:35.5Z</time></trkpt><trkpt lat="41.4177683" lon="13.936625"><ele>90.5</ele><time>2026-05-02T06:11:36.501Z</time></trkpt><trkpt lat="41.4178733" lon="13.93636"><ele>86.0</ele><time>2026-05-02T06:11:37.501Z</time></trkpt><trkpt lat="41.41798" lon="13.9360883"><ele>88.5</ele><time>2026-05-02T06:11:38.5Z</time></trkpt><trkpt lat="41.4180817" lon="13.93581"><ele>91.0</ele><time>2026-05-02T06:11:39.5Z</time></trkpt><trkpt lat="41.4181867" lon="13.9355333"><ele>91.0</ele><time>2026-05-02T06:11:40.5Z</time></trkpt><trkpt lat="41.418295" lon="13.9352533"><ele>91.0</ele><time>2026-05-02T06:11:41.5Z</time></trkpt><trkpt lat="41.4184033" lon="13.9349817"><ele>86.5</ele><time>2026-05-02T06:11:42.5Z</time></trkpt><trkpt lat="41.41851" lon="13.9347033"><ele>82.0</ele><time>2026-05-02T06:11:43.5Z</time></trkpt><trkpt lat="41.418615" lon="13.93443"><ele>79.5</ele><time>2026-05-02T06:11:44.5Z</time></trkpt><trkpt lat="41.41872" lon="13.93415"><ele>77.0</ele><time>2026-05-02T06:11:45.5Z</time></trkpt><trkpt lat="41.4188267" lon="13.9338733"><ele>79.5</ele><time>2026-05-02T06:11:46.5Z</time></trkpt><trkpt lat="41.4189333" lon="13.9336017"><ele>82.0</ele><time>2026-05-02T06:11:47.501Z</time></trkpt><trkpt lat="41.4190417" lon="13.93333"><ele>82.0</ele><time>2026-05-02T06:11:48.5Z</time></trkpt><trkpt lat="41.419145" lon="13.93306"><ele>82.0</ele><time>2026-05-02T06:11:49.5Z</time></trkpt><trkpt lat="41.41925" lon="13.932795"><ele>79.66666666666666</ele><time>2026-05-02T06:11:50.5Z</time></trkpt><trkpt lat="41.4193567" lon="13.9325333"><ele>77.33333333333333</ele><time>2026-05-02T06:11:51.5Z</time></trkpt><trkpt lat="41.41946" lon="13.93227"><ele>75.0</ele><time>2026-05-02T06:11:52.5Z</time></trkpt><trkpt lat="41.4195617" lon="13.9320117"><ele>77.0</ele><time>2026-05-02T06:11:53.5Z</time></trkpt><trkpt lat="41.419665" lon="13.9317483"><ele>79.0</ele><time>2026-05-02T06:11:54.5Z</time></trkpt><trkpt lat="41.4197667" lon="13.931485"><ele>81.0</ele><time>2026-05-02T06:11:55.5Z</time></trkpt><trkpt lat="41.4198683" lon="13.9312183"><ele>81.0</ele><time>2026-05-02T06:11:56.5Z</time></trkpt><trkpt lat="41.4199717" lon="13.9309567"><ele>81.0</ele><time>2026-05-02T06:11:57.5Z</time></trkpt><trkpt lat="41.4200733" lon="13.9306983"><ele>81.0</ele><time>2026-05-02T06:11:58.5Z</time></trkpt><trkpt lat="41.420175" lon="13.9304367"><ele>78.66666666666667</ele><time>2026-05-02T06:11:59.5Z</time></trkpt><trkpt lat="41.4202733" lon="13.9301733"><ele>76.33333333333334</ele><time>2026-05-02T06:12:00.501Z</time></trkpt><trkpt lat="41.4203783" lon="13.929915"><ele>74.0</ele><time>2026-05-02T06:12:01.5Z</time></trkpt><trkpt lat="41.42048" lon="13.9296567"><ele>75.0</ele><time>2026-05-02T06:12:02.5Z</time></trkpt><trkpt lat="41.42058" lon="13.9294017"><ele>76.0</ele><time>2026-05-02T06:12:03.5Z</time></trkpt><trkpt lat="41.4206817" lon="13.9291417"><ele>77.0</ele><time>2026-05-02T06:12:04.5Z</time></trkpt><trkpt lat="41.4207833" lon="13.928885"><ele>77.0</ele><time>2026-05-02T06:12:05.5Z</time></trkpt><trkpt lat="41.42089" lon="13.928625"><ele>77.0</ele><time>2026-05-02T06:12:06.5Z</time></trkpt><trkpt lat="41.4209917" lon="13.9283617"><ele>77.0</ele><time>2026-05-02T06:12:07.5Z</time></trkpt><trkpt lat="41.4210933" lon="13.9280967"><ele>75.66666666666667</ele><time>2026-05-02T06:12:08.5Z</time></trkpt><trkpt lat="41.4211933" lon="13.9278283"><ele>74.33333333333333</ele><time>2026-05-02T06:12:09.5Z</time></trkpt><trkpt lat="41.42129" lon="13.9275633"><ele>73.0</ele><time>2026-05-02T06:12:10.5Z</time></trkpt><trkpt lat="41.4213933" lon="13.92731"><ele>73.66666666666666</ele><time>2026-05-02T06:12:11.5Z</time></trkpt><trkpt lat="41.421495" lon="13.9270517"><ele>74.33333333333333</ele><time>2026-05-02T06:12:12.5Z</time></trkpt><trkpt lat="41.421595" lon="13.9267967"><ele>75.0</ele><time>2026-05-02T06:12:13.5Z</time></trkpt><trkpt lat="41.4216983" lon="13.92654"><ele>75.0</ele><time>2026-05-02T06:12:14.5Z</time></trkpt><trkpt lat="41.4218033" lon="13.9262783"><ele>75.0</ele><time>2026-05-02T06:12:15.5Z</time></trkpt><trkpt lat="41.4219067" lon="13.92602"><ele>75.0</ele><time>2026-05-02T06:12:16.5Z</time></trkpt><trkpt lat="41.422005" lon="13.9257583"><ele>74.66666666666667</ele><time>2026-05-02T06:12:17.5Z</time></trkpt><trkpt lat="41.4221033" lon="13.9254983"><ele>74.33333333333334</ele><time>2026-05-02T06:12:18.5Z</time></trkpt><trkpt lat="41.4222033" lon="13.925235"><ele>74.0</ele><time>2026-05-02T06:12:19.5Z</time></trkpt><trkpt lat="41.4223083" lon="13.9249783"><ele>74.0</ele><time>2026-05-02T06:12:20.5Z</time></trkpt><trkpt lat="41.4224083" lon="13.9247217"><ele>74.0</ele><time>2026-05-02T06:12:21.5Z</time></trkpt><trkpt lat="41.42251" lon="13.9244583"><ele>74.0</ele><time>2026-05-02T06:12:22.5Z</time></trkpt><trkpt lat="41.4226117" lon="13.9242017"><ele>72.0</ele><time>2026-05-02T06:12:23.5Z</time></trkpt><trkpt lat="41.4227133" lon="13.9239433"><ele>70.0</ele><time>2026-05-02T06:12:24.5Z</time></trkpt><trkpt lat="41.4228117" lon="13.923685"><ele>68.0</ele><time>2026-05-02T06:12:25.5Z</time></trkpt><trkpt lat="41.422905" lon="13.9234283"><ele>71.0</ele><time>2026-05-02T06:12:26.5Z</time></trkpt><trkpt lat="41.4230067" lon="13.923175"><ele>74.0</ele><time>2026-05-02T06:12:27.5Z</time></trkpt><trkpt lat="41.423105" lon="13.9229217"><ele>77.0</ele><time>2026-05-02T06:12:28.5Z</time></trkpt><trkpt lat="41.4232067" lon="13.9226683"><ele>73.66666666666667</ele><time>2026-05-02T06:12:29.5Z</time></trkpt><trkpt lat="41.42331" lon="13.9224217"><ele>70.33333333333333</ele><time>2026-05-02T06:12:30.5Z</time></trkpt><trkpt lat="41.4234083" lon="13.922165"><ele>67.0</ele><time>2026-05-02T06:12:31.5Z</time></trkpt><trkpt lat="41.4235067" lon="13.921905"><ele>64.0</ele><time>2026-05-02T06:12:32.5Z</time></trkpt><trkpt lat="41.4236017" lon="13.9216483"><ele>61.0</ele><time>2026-05-02T06:12:33.5Z</time></trkpt><trkpt lat="41.423705" lon="13.921405"><ele>58.0</ele><time>2026-05-02T06:12:34.5Z</time></trkpt><trkpt lat="41.4238033" lon="13.9211467"><ele>61.0</ele><time>2026-05-02T06:12:35.5Z</time></trkpt><trkpt lat="41.42389" lon="13.9208817"><ele>64.0</ele><time>2026-05-02T06:12:36.5Z</time></trkpt><trkpt lat="41.4240133" lon="13.9206017"><ele>64.0</ele><time>2026-05-02T06:12:37.5Z</time></trkpt><trkpt lat="41.424115" lon="13.920325"><ele>64.0</ele><time>2026-05-02T06:12:38.5Z</time></trkpt><trkpt lat="41.42423" lon="13.9200733"><ele>59.5</ele><time>2026-05-02T06:12:39.5Z</time></trkpt><trkpt lat="41.4243367" lon="13.9198"><ele>55.0</ele><time>2026-05-02T06:12:40.5Z</time></trkpt><trkpt lat="41.424445" lon="13.91952"><ele>55.0</ele><time>2026-05-02T06:12:41.5Z</time></trkpt><trkpt lat="41.4245517" lon="13.9192433"><ele>55.0</ele><time>2026-05-02T06:12:42.501Z</time></trkpt><trkpt lat="41.4246517" lon="13.9189733"><ele>56.5</ele><time>2026-05-02T06:12:43.5Z</time></trkpt><trkpt lat="41.42475" lon="13.9187083"><ele>58.0</ele><time>2026-05-02T06:12:44.5Z</time></trkpt><trkpt lat="41.424855" lon="13.9184383"><ele>57.0</ele><time>2026-05-02T06:12:45.5Z</time></trkpt><trkpt lat="41.424955" lon="13.9181733"><ele>56.0</ele><time>2026-05-02T06:12:46.5Z</time></trkpt><trkpt lat="41.4250567" lon="13.9179067"><ele>55.0</ele><time>2026-05-02T06:12:47.5Z</time></trkpt><trkpt lat="41.4251567" lon="13.9176367"><ele>53.33333333333333</ele><time>2026-05-02T06:12:48.5Z</time></trkpt><trkpt lat="41.4252583" lon="13.9173717"><ele>51.66666666666667</ele><time>2026-05-02T06:12:49.5Z</time></trkpt><trkpt lat="41.4253617" lon="13.9171033"><ele>50.0</ele><time>2026-05-02T06:12:50.5Z</time></trkpt><trkpt lat="41.4254617" lon="13.91684"><ele>51.66666666666667</ele><time>2026-05-02T06:12:51.5Z</time></trkpt><trkpt lat="41.4255717" lon="13.9165783"><ele>53.33333333333333</ele><time>2026-05-02T06:12:52.5Z</time></trkpt><trkpt lat="41.425675" lon="13.916315"><ele>55.0</ele><time>2026-05-02T06:12:53.5Z</time></trkpt><trkpt lat="41.425775" lon="13.9160533"><ele>53.666666666666664</ele><time>2026-05-02T06:12:54.5Z</time></trkpt><trkpt lat="41.4258767" lon="13.9157883"><ele>52.33333333333333</ele><time>2026-05-02T06:12:55.5Z</time></trkpt><trkpt lat="41.425985" lon="13.9155267"><ele>51.0</ele><time>2026-05-02T06:12:56.501Z</time></trkpt><trkpt lat="41.4260883" lon="13.91526"><ele>50.0</ele><time>2026-05-02T06:12:57.5Z</time></trkpt><trkpt lat="41.42619" lon="13.914995"><ele>49.0</ele><time>2026-05-02T06:12:58.5Z</time></trkpt><trkpt lat="41.4262983" lon="13.9147217"><ele>49.5</ele><time>2026-05-02T06:12:59.5Z</time></trkpt><trkpt lat="41.4264067" lon="13.9144483"><ele>50.0</ele><time>2026-05-02T06:13:00.5Z</time></trkpt><trkpt lat="41.42651" lon="13.9141783"><ele>50.0</ele><time>2026-05-02T06:13:01.5Z</time></trkpt><trkpt lat="41.426615" lon="13.9139033"><ele>50.0</ele><time>2026-05-02T06:13:02.5Z</time></trkpt><trkpt lat="41.4267183" lon="13.91363"><ele>49.5</ele><time>2026-05-02T06:13:03.5Z</time></trkpt><trkpt lat="41.4268233" lon="13.91336"><ele>49.0</ele><time>2026-05-02T06:13:04.5Z</time></trkpt><trkpt lat="41.4269283" lon="13.91309"><ele>49.0</ele><time>2026-05-02T06:13:05.501Z</time></trkpt><trkpt lat="41.4270367" lon="13.9128283"><ele>49.0</ele><time>2026-05-02T06:13:06.5Z</time></trkpt><trkpt lat="41.4271383" lon="13.9125683"><ele>49.0</ele><time>2026-05-02T06:13:07.5Z</time></trkpt><trkpt lat="41.4272417" lon="13.9123133"><ele>46.666666666666664</ele><time>2026-05-02T06:13:08.5Z</time></trkpt><trkpt lat="41.42734" lon="13.9120617"><ele>44.33333333333333</ele><time>2026-05-02T06:13:09.5Z</time></trkpt><trkpt lat="41.42744" lon="13.9118067"><ele>42.0</ele><time>2026-05-02T06:13:10.501Z</time></trkpt><trkpt lat="41.4275417" lon="13.9115467"><ele>41.666666666666664</ele><time>2026-05-02T06:13:11.501Z</time></trkpt><trkpt lat="41.4276417" lon="13.9112883"><ele>41.33333333333333</ele><time>2026-05-02T06:13:12.5Z</time></trkpt><trkpt lat="41.4277433" lon="13.91103"><ele>41.0</ele><time>2026-05-02T06:13:13.5Z</time></trkpt><trkpt lat="41.4278467" lon="13.9107667"><ele>40.0</ele><time>2026-05-02T06:13:14.5Z</time></trkpt><trkpt lat="41.427945" lon="13.9104983"><ele>39.0</ele><time>2026-05-02T06:13:15.5Z</time></trkpt><trkpt lat="41.42805" lon="13.9102333"><ele>38.0</ele><time>2026-05-02T06:13:16.5Z</time></trkpt><trkpt lat="41.4281583" lon="13.9099667"><ele>37.0</ele><time>2026-05-02T06:13:17.501Z</time></trkpt><trkpt lat="41.4282583" lon="13.9096933"><ele>36.0</ele><time>2026-05-02T06:13:18.502Z</time></trkpt><trkpt lat="41.42836" lon="13.909425"><ele>36.5</ele><time>2026-05-02T06:13:19.501Z</time></trkpt><trkpt lat="41.4284683" lon="13.909155"><ele>37.0</ele><time>2026-05-02T06:13:20.501Z</time></trkpt><trkpt lat="41.4285767" lon="13.908885"><ele>37.0</ele><time>2026-05-02T06:13:21.501Z</time></trkpt><trkpt lat="41.4286817" lon="13.9086167"><ele>37.0</ele><time>2026-05-02T06:13:22.501Z</time></trkpt><trkpt lat="41.428785" lon="13.9083433"><ele>36.5</ele><time>2026-05-02T06:13:23.502Z</time></trkpt><trkpt lat="41.4288867" lon="13.908075"><ele>36.0</ele><time>2026-05-02T06:13:24.501Z</time></trkpt><trkpt lat="41.4289917" lon="13.9078033"><ele>37.0</ele><time>2026-05-02T06:13:25.501Z</time></trkpt><trkpt lat="41.4290933" lon="13.907535"><ele>38.0</ele><time>2026-05-02T06:13:26.501Z</time></trkpt><trkpt lat="41.4291983" lon="13.90727"><ele>38.0</ele><time>2026-05-02T06:13:27.501Z</time></trkpt><trkpt lat="41.4293017" lon="13.907005"><ele>38.0</ele><time>2026-05-02T06:13:28.501Z</time></trkpt><trkpt lat="41.429405" lon="13.9067433"><ele>38.0</ele><time>2026-05-02T06:13:29.501Z</time></trkpt><trkpt lat="41.4295117" lon="13.9064733"><ele>38.5</ele><time>2026-05-02T06:13:30.501Z</time></trkpt><trkpt lat="41.42962" lon="13.9062033"><ele>39.0</ele><time>2026-05-02T06:13:31.501Z</time></trkpt><trkpt lat="41.429725" lon="13.9059383"><ele>40.333333333333336</ele><time>2026-05-02T06:13:32.502Z</time></trkpt><trkpt lat="41.4298283" lon="13.9056767"><ele>41.66666666666667</ele><time>2026-05-02T06:13:33.501Z</time></trkpt><trkpt lat="41.42993" lon="13.9054117"><ele>43.0</ele><time>2026-05-02T06:13:34.501Z</time></trkpt><trkpt lat="41.430035" lon="13.9051417"><ele>45.0</ele><time>2026-05-02T06:13:35.501Z</time></trkpt><trkpt lat="41.4301383" lon="13.9048733"><ele>47.0</ele><time>2026-05-02T06:13:36.501Z</time></trkpt><trkpt lat="41.4302383" lon="13.9046133"><ele>49.0</ele><time>2026-05-02T06:13:37.501Z</time></trkpt><trkpt lat="41.4303417" lon="13.9043567"><ele>49.33333333333333</ele><time>2026-05-02T06:13:38.502Z</time></trkpt><trkpt lat="41.4304417" lon="13.9040933"><ele>49.66666666666667</ele><time>2026-05-02T06:13:39.501Z</time></trkpt><trkpt lat="41.4305433" lon="13.9038383"><ele>50.0</ele><time>2026-05-02T06:13:40.501Z</time></trkpt><trkpt lat="41.4306467" lon="13.9035733"><ele>51.66666666666667</ele><time>2026-05-02T06:13:41.501Z</time></trkpt><trkpt lat="41.43075" lon="13.903305"><ele>53.33333333333333</ele><time>2026-05-02T06:13:42.501Z</time></trkpt><trkpt lat="41.4308517" lon="13.903045"><ele>55.0</ele><time>2026-05-02T06:13:43.501Z</time></trkpt><trkpt lat="41.4309517" lon="13.9027833"><ele>54.33333333333333</ele><time>2026-05-02T06:13:44.501Z</time></trkpt><trkpt lat="41.4310517" lon="13.9025233"><ele>53.66666666666667</ele><time>2026-05-02T06:13:45.501Z</time></trkpt><trkpt lat="41.4311517" lon="13.902255"><ele>53.0</ele><time>2026-05-02T06:13:46.501Z</time></trkpt><trkpt lat="41.431255" lon="13.901995"><ele>54.5</ele><time>2026-05-02T06:13:47.501Z</time></trkpt><trkpt lat="41.43136" lon="13.9017267"><ele>56.0</ele><time>2026-05-02T06:13:48.501Z</time></trkpt><trkpt lat="41.4314683" lon="13.9014583"><ele>56.0</ele><time>2026-05-02T06:13:49.501Z</time></trkpt><trkpt lat="41.431575" lon="13.9011917"><ele>56.0</ele><time>2026-05-02T06:13:50.501Z</time></trkpt><trkpt lat="41.4316783" lon="13.9009117"><ele>56.5</ele><time>2026-05-02T06:13:51.502Z</time></trkpt><trkpt lat="41.4317883" lon="13.9006467"><ele>57.0</ele><time>2026-05-02T06:13:52.501Z</time></trkpt><trkpt lat="41.4318967" lon="13.9003783"><ele>57.0</ele><time>2026-05-02T06:13:53.502Z</time></trkpt><trkpt lat="41.4319983" lon="13.9001083"><ele>57.0</ele><time>2026-05-02T06:13:54.501Z</time></trkpt><trkpt lat="41.4321067" lon="13.89984"><ele>56.0</ele><time>2026-05-02T06:13:55.502Z</time></trkpt><trkpt lat="41.43221" lon="13.8995767"><ele>55.0</ele><time>2026-05-02T06:13:56.501Z</time></trkpt><trkpt lat="41.4323167" lon="13.8993017"><ele>55.0</ele><time>2026-05-02T06:13:57.501Z</time></trkpt><trkpt lat="41.4324167" lon="13.899035"><ele>55.0</ele><time>2026-05-02T06:13:58.501Z</time></trkpt><trkpt lat="41.4325233" lon="13.89876"><ele>55.0</ele><time>2026-05-02T06:13:59.501Z</time></trkpt><trkpt lat="41.4326283" lon="13.8984917"><ele>55.0</ele><time>2026-05-02T06:14:00.501Z</time></trkpt><trkpt lat="41.4327333" lon="13.8982167"><ele>55.5</ele><time>2026-05-02T06:14:01.501Z</time></trkpt><trkpt lat="41.4328417" lon="13.8979433"><ele>56.0</ele><time>2026-05-02T06:14:02.501Z</time></trkpt><trkpt lat="41.4329467" lon="13.8976717"><ele>55.5</ele><time>2026-05-02T06:14:03.501Z</time></trkpt><trkpt lat="41.4330533" lon="13.8973983"><ele>55.0</ele><time>2026-05-02T06:14:04.501Z</time></trkpt><trkpt lat="41.43316" lon="13.89712"><ele>55.0</ele><time>2026-05-02T06:14:05.501Z</time></trkpt><trkpt lat="41.4332667" lon="13.8968483"><ele>55.0</ele><time>2026-05-02T06:14:06.501Z</time></trkpt><trkpt lat="41.4333717" lon="13.89658"><ele>55.5</ele><time>2026-05-02T06:14:07.501Z</time></trkpt><trkpt lat="41.4334733" lon="13.89631"><ele>56.0</ele><time>2026-05-02T06:14:08.502Z</time></trkpt><trkpt lat="41.4335767" lon="13.89604"><ele>56.5</ele><time>2026-05-02T06:14:09.501Z</time></trkpt><trkpt lat="41.4336817" lon="13.89577"><ele>57.0</ele><time>2026-05-02T06:14:10.501Z</time></trkpt><trkpt lat="41.4337867" lon="13.895495"><ele>56.66666666666667</ele><time>2026-05-02T06:14:11.501Z</time></trkpt><trkpt lat="41.43389" lon="13.8952317"><ele>56.333333333333336</ele><time>2026-05-02T06:14:12.501Z</time></trkpt><trkpt lat="41.4339917" lon="13.8949617"><ele>56.0</ele><time>2026-05-02T06:14:13.501Z</time></trkpt><trkpt lat="41.4340917" lon="13.8946983"><ele>56.0</ele><time>2026-05-02T06:14:14.501Z</time></trkpt><trkpt lat="41.434195" lon="13.8944367"><ele>56.0</ele><time>2026-05-02T06:14:15.501Z</time></trkpt><trkpt lat="41.4343017" lon="13.89417"><ele>56.0</ele><time>2026-05-02T06:14:16.501Z</time></trkpt><trkpt lat="41.4344067" lon="13.89391"><ele>56.0</ele><time>2026-05-02T06:14:17.501Z</time></trkpt><trkpt lat="41.4345133" lon="13.8936483"><ele>56.0</ele><time>2026-05-02T06:14:18.501Z</time></trkpt><trkpt lat="41.4346133" lon="13.8933817"><ele>56.0</ele><time>2026-05-02T06:14:19.501Z</time></trkpt><trkpt lat="41.4347183" lon="13.8931183"><ele>56.333333333333336</ele><time>2026-05-02T06:14:20.501Z</time></trkpt><trkpt lat="41.43482" lon="13.8928517"><ele>56.66666666666667</ele><time>2026-05-02T06:14:21.501Z</time></trkpt><trkpt lat="41.434925" lon="13.8925883"><ele>57.0</ele><time>2026-05-02T06:14:22.501Z</time></trkpt><trkpt lat="41.4350267" lon="13.89232"><ele>57.0</ele><time>2026-05-02T06:14:23.501Z</time></trkpt><trkpt lat="41.43513" lon="13.8920533"><ele>57.0</ele><time>2026-05-02T06:14:24.501Z</time></trkpt><trkpt lat="41.4352333" lon="13.89179"><ele>57.0</ele><time>2026-05-02T06:14:25.501Z</time></trkpt><trkpt lat="41.4353367" lon="13.8915283"><ele>57.66666666666667</ele><time>2026-05-02T06:14:26.501Z</time></trkpt><trkpt lat="41.43543" lon="13.89127"><ele>58.333333333333336</ele><time>2026-05-02T06:14:27.501Z</time></trkpt><trkpt lat="41.4355283" lon="13.8910117"><ele>59.0</ele><time>2026-05-02T06:14:28.501Z</time></trkpt><trkpt lat="41.43563" lon="13.8907517"><ele>59.66666666666667</ele><time>2026-05-02T06:14:29.502Z</time></trkpt><trkpt lat="41.435735" lon="13.8904883"><ele>60.33333333333333</ele><time>2026-05-02T06:14:30.501Z</time></trkpt><trkpt lat="41.4358383" lon="13.8902317"><ele>61.0</ele><time>2026-05-02T06:14:31.501Z</time></trkpt><trkpt lat="41.4359383" lon="13.8899667"><ele>61.0</ele><time>2026-05-02T06:14:32.501Z</time></trkpt><trkpt lat="41.43604" lon="13.8896967"><ele>61.0</ele><time>2026-05-02T06:14:33.501Z</time></trkpt><trkpt lat="41.4361417" lon="13.8894217"><ele>62.0</ele><time>2026-05-02T06:14:34.501Z</time></trkpt><trkpt lat="41.4362517" lon="13.8891467"><ele>63.0</ele><time>2026-05-02T06:14:35.501Z</time></trkpt><trkpt lat="41.4363633" lon="13.888875"><ele>63.0</ele><time>2026-05-02T06:14:36.501Z</time></trkpt><trkpt lat="41.4364717" lon="13.8886017"><ele>63.0</ele><time>2026-05-02T06:14:37.501Z</time></trkpt><trkpt lat="41.43658" lon="13.8883267"><ele>64.0</ele><time>2026-05-02T06:14:38.501Z</time></trkpt><trkpt lat="41.4366867" lon="13.88805"><ele>65.0</ele><time>2026-05-02T06:14:39.501Z</time></trkpt><trkpt lat="41.4367933" lon="13.8877783"><ele>67.0</ele><time>2026-05-02T06:14:40.501Z</time></trkpt><trkpt lat="41.4368983" lon="13.887505"><ele>69.0</ele><time>2026-05-02T06:14:41.501Z</time></trkpt><trkpt lat="41.437" lon="13.8872417"><ele>69.0</ele><time>2026-05-02T06:14:42.501Z</time></trkpt><trkpt lat="41.4371017" lon="13.8869767"><ele>69.0</ele><time>2026-05-02T06:14:43.502Z</time></trkpt><trkpt lat="41.4372033" lon="13.8867133"><ele>69.0</ele><time>2026-05-02T06:14:44.501Z</time></trkpt><trkpt lat="41.4373067" lon="13.8864517"><ele>67.0</ele><time>2026-05-02T06:14:45.501Z</time></trkpt><trkpt lat="41.43741" lon="13.8861883"><ele>65.0</ele><time>2026-05-02T06:14:46.502Z</time></trkpt><trkpt lat="41.437515" lon="13.88592"><ele>65.0</ele><time>2026-05-02T06:14:47.501Z</time></trkpt><trkpt lat="41.43762" lon="13.8856533"><ele>65.0</ele><time>2026-05-02T06:14:48.501Z</time></trkpt><trkpt lat="41.4377233" lon="13.8853833"><ele>65.0</ele><time>2026-05-02T06:14:49.501Z</time></trkpt><trkpt lat="41.4378267" lon="13.8851117"><ele>65.0</ele><time>2026-05-02T06:14:50.501Z</time></trkpt><trkpt lat="41.4379333" lon="13.8848417"><ele>63.0</ele><time>2026-05-02T06:14:51.501Z</time></trkpt><trkpt lat="41.43804" lon="13.8845733"><ele>61.0</ele><time>2026-05-02T06:14:52.501Z</time></trkpt><trkpt lat="41.4381467" lon="13.8842983"><ele>62.5</ele><time>2026-05-02T06:14:53.501Z</time></trkpt><trkpt lat="41.4382533" lon="13.8840233"><ele>64.0</ele><time>2026-05-02T06:14:54.501Z</time></trkpt><trkpt lat="41.4383617" lon="13.8837483"><ele>64.0</ele><time>2026-05-02T06:14:55.501Z</time></trkpt><trkpt lat="41.4384733" lon="13.8834733"><ele>64.0</ele><time>2026-05-02T06:14:56.501Z</time></trkpt><trkpt lat="41.4385833" lon="13.8832017"><ele>65.0</ele><time>2026-05-02T06:14:57.501Z</time></trkpt><trkpt lat="41.4386883" lon="13.8829317"><ele>66.0</ele><time>2026-05-02T06:14:58.501Z</time></trkpt><trkpt lat="41.4387967" lon="13.88266"><ele>62.5</ele><time>2026-05-02T06:14:59.501Z</time></trkpt><trkpt lat="41.4389" lon="13.882385"><ele>59.0</ele><time>2026-05-02T06:15:00.501Z</time></trkpt><trkpt lat="41.4390033" lon="13.8821067"><ele>59.0</ele><time>2026-05-02T06:15:01.501Z</time></trkpt><trkpt lat="41.43911" lon="13.88183"><ele>59.0</ele><time>2026-05-02T06:15:02.501Z</time></trkpt><trkpt lat="41.43922" lon="13.8815517"><ele>60.0</ele><time>2026-05-02T06:15:03.501Z</time></trkpt><trkpt lat="41.43933" lon="13.881275"><ele>61.0</ele><time>2026-05-02T06:15:04.501Z</time></trkpt><trkpt lat="41.4394333" lon="13.8809967"><ele>60.5</ele><time>2026-05-02T06:15:05.502Z</time></trkpt><trkpt lat="41.4395367" lon="13.8807167"><ele>60.0</ele><time>2026-05-02T06:15:06.501Z</time></trkpt><trkpt lat="41.43964" lon="13.88044"><ele>60.0</ele><time>2026-05-02T06:15:07.501Z</time></trkpt><trkpt lat="41.4397467" lon="13.880175"><ele>60.0</ele><time>2026-05-02T06:15:08.501Z</time></trkpt><trkpt lat="41.4398483" lon="13.8799"><ele>60.5</ele><time>2026-05-02T06:15:09.501Z</time></trkpt><trkpt lat="41.4399483" lon="13.8796283"><ele>61.0</ele><time>2026-05-02T06:15:10.501Z</time></trkpt><trkpt lat="41.440055" lon="13.87936"><ele>61.0</ele><time>2026-05-02T06:15:11.501Z</time></trkpt><trkpt lat="41.44015" lon="13.8790867"><ele>61.0</ele><time>2026-05-02T06:15:12.501Z</time></trkpt><trkpt lat="41.4402417" lon="13.87882"><ele>61.0</ele><time>2026-05-02T06:15:13.501Z</time></trkpt><trkpt lat="41.440335" lon="13.8785483"><ele>61.5</ele><time>2026-05-02T06:15:14.501Z</time></trkpt><trkpt lat="41.4404283" lon="13.878275"><ele>62.0</ele><time>2026-05-02T06:15:15.501Z</time></trkpt><trkpt lat="41.4405233" lon="13.878"><ele>61.66666666666667</ele><time>2026-05-02T06:15:16.501Z</time></trkpt><trkpt lat="41.4406133" lon="13.8777283"><ele>61.33333333333333</ele><time>2026-05-02T06:15:17.501Z</time></trkpt><trkpt lat="41.4407017" lon="13.8774533"><ele>61.0</ele><time>2026-05-02T06:15:18.501Z</time></trkpt><trkpt lat="41.440785" lon="13.8771733"><ele>61.0</ele><time>2026-05-02T06:15:19.501Z</time></trkpt><trkpt lat="41.440875" lon="13.876905"><ele>61.0</ele><time>2026-05-02T06:15:20.501Z</time></trkpt><trkpt lat="41.4409617" lon="13.8766317"><ele>61.0</ele><time>2026-05-02T06:15:21.501Z</time></trkpt><trkpt lat="41.441045" lon="13.87636"><ele>61.33333333333333</ele><time>2026-05-02T06:15:22.501Z</time></trkpt><trkpt lat="41.4411283" lon="13.8760917"><ele>61.66666666666667</ele><time>2026-05-02T06:15:23.501Z</time></trkpt><trkpt lat="41.44121" lon="13.875825"><ele>62.0</ele><time>2026-05-02T06:15:24.501Z</time></trkpt><trkpt lat="41.4412867" lon="13.8755617"><ele>62.66666666666667</ele><time>2026-05-02T06:15:25.501Z</time></trkpt><trkpt lat="41.4413617" lon="13.87529"><ele>63.33333333333333</ele><time>2026-05-02T06:15:26.501Z</time></trkpt><trkpt lat="41.44143" lon="13.87503"><ele>64.0</ele><time>2026-05-02T06:15:27.501Z</time></trkpt><trkpt lat="41.4415033" lon="13.8747767"><ele>62.666666666666664</ele><time>2026-05-02T06:15:28.501Z</time></trkpt><trkpt lat="41.4415717" lon="13.8745317"><ele>61.33333333333333</ele><time>2026-05-02T06:15:29.501Z</time></trkpt><trkpt lat="41.4416383" lon="13.8742967"><ele>60.0</ele><time>2026-05-02T06:15:30.501Z</time></trkpt><trkpt lat="41.4416967" lon="13.874065"><ele>58.0</ele><time>2026-05-02T06:15:31.501Z</time></trkpt><trkpt lat="41.441755" lon="13.8738333"><ele>56.0</ele><time>2026-05-02T06:15:32.501Z</time></trkpt><trkpt lat="41.4418167" lon="13.8735967"><ele>54.0</ele><time>2026-05-02T06:15:33.501Z</time></trkpt><trkpt lat="41.4418817" lon="13.873355"><ele>53.0</ele><time>2026-05-02T06:15:34.501Z</time></trkpt><trkpt lat="41.4419383" lon="13.8731067"><ele>52.0</ele><time>2026-05-02T06:15:35.501Z</time></trkpt><trkpt lat="41.4420017" lon="13.8728517"><ele>51.0</ele><time>2026-05-02T06:15:36.501Z</time></trkpt><trkpt lat="41.4420617" lon="13.8725933"><ele>50.66666666666667</ele><time>2026-05-02T06:15:37.501Z</time></trkpt><trkpt lat="41.4421267" lon="13.872325"><ele>50.333333333333336</ele><time>2026-05-02T06:15:38.502Z</time></trkpt><trkpt lat="41.4421917" lon="13.872055"><ele>50.0</ele><time>2026-05-02T06:15:39.501Z</time></trkpt><trkpt lat="41.442255" lon="13.8717783"><ele>48.66666666666667</ele><time>2026-05-02T06:15:40.501Z</time></trkpt><trkpt lat="41.4423133" lon="13.8715"><ele>47.333333333333336</ele><time>2026-05-02T06:15:41.502Z</time></trkpt><trkpt lat="41.442375" lon="13.8712233"><ele>46.0</ele><time>2026-05-02T06:15:42.502Z</time></trkpt><trkpt lat="41.44244" lon="13.8709483"><ele>45.333333333333336</ele><time>2026-05-02T06:15:43.501Z</time></trkpt><trkpt lat="41.442505" lon="13.870675"><ele>44.666666666666664</ele><time>2026-05-02T06:15:44.501Z</time></trkpt><trkpt lat="41.442565" lon="13.8704017"><ele>44.0</ele><time>2026-05-02T06:15:45.501Z</time></trkpt><trkpt lat="41.4426217" lon="13.8701267"><ele>43.33333333333333</ele><time>2026-05-02T06:15:46.501Z</time></trkpt><trkpt lat="41.4426817" lon="13.8698517"><ele>42.666666666666664</ele><time>2026-05-02T06:15:47.501Z</time></trkpt><trkpt lat="41.44274" lon="13.8695733"><ele>42.0</ele><time>2026-05-02T06:15:48.501Z</time></trkpt><trkpt lat="41.4428067" lon="13.8692983"><ele>41.666666666666664</ele><time>2026-05-02T06:15:49.501Z</time></trkpt><trkpt lat="41.4428717" lon="13.8690167"><ele>41.33333333333333</ele><time>2026-05-02T06:15:50.501Z</time></trkpt><trkpt lat="41.4429333" lon="13.8687317"><ele>41.0</ele><time>2026-05-02T06:15:51.501Z</time></trkpt><trkpt lat="41.4429967" lon="13.8684483"><ele>41.666666666666664</ele><time>2026-05-02T06:15:52.501Z</time></trkpt><trkpt lat="41.4430583" lon="13.868165"><ele>42.333333333333336</ele><time>2026-05-02T06:15:53.501Z</time></trkpt><trkpt lat="41.4431233" lon="13.8678817"><ele>43.0</ele><time>2026-05-02T06:15:54.501Z</time></trkpt><trkpt lat="41.4431833" lon="13.8675967"><ele>43.0</ele><time>2026-05-02T06:15:55.501Z</time></trkpt><trkpt lat="41.443245" lon="13.8673083"><ele>43.0</ele><time>2026-05-02T06:15:56.501Z</time></trkpt><trkpt lat="41.443305" lon="13.8670217"><ele>43.0</ele><time>2026-05-02T06:15:57.501Z</time></trkpt><trkpt lat="41.4433683" lon="13.86674"><ele>42.333333333333336</ele><time>2026-05-02T06:15:58.501Z</time></trkpt><trkpt lat="41.4434333" lon="13.8664533"><ele>41.666666666666664</ele><time>2026-05-02T06:15:59.501Z</time></trkpt><trkpt lat="41.4434933" lon="13.86617"><ele>41.0</ele><time>2026-05-02T06:16:00.501Z</time></trkpt><trkpt lat="41.4435567" lon="13.8658833"><ele>40.666666666666664</ele><time>2026-05-02T06:16:01.501Z</time></trkpt><trkpt lat="41.44362" lon="13.8655983"><ele>40.333333333333336</ele><time>2026-05-02T06:16:02.501Z</time></trkpt><trkpt lat="41.443685" lon="13.8653133"><ele>40.0</ele><time>2026-05-02T06:16:03.501Z</time></trkpt><trkpt lat="41.4437467" lon="13.8650283"><ele>41.0</ele><time>2026-05-02T06:16:04.501Z</time></trkpt><trkpt lat="41.4438083" lon="13.864745"><ele>42.0</ele><time>2026-05-02T06:16:05.501Z</time></trkpt><trkpt lat="41.4438733" lon="13.86446"><ele>43.0</ele><time>2026-05-02T06:16:06.501Z</time></trkpt><trkpt lat="41.4439417" lon="13.8641833"><ele>43.333333333333336</ele><time>2026-05-02T06:16:07.501Z</time></trkpt><trkpt lat="41.4439983" lon="13.8639033"><ele>43.666666666666664</ele><time>2026-05-02T06:16:08.501Z</time></trkpt><trkpt lat="41.444065" lon="13.8636283"><ele>44.0</ele><time>2026-05-02T06:16:09.501Z</time></trkpt><trkpt lat="41.4441267" lon="13.8633533"><ele>44.33333333333333</ele><time>2026-05-02T06:16:10.501Z</time></trkpt><trkpt lat="41.4441817" lon="13.8630767"><ele>44.666666666666664</ele><time>2026-05-02T06:16:11.501Z</time></trkpt><trkpt lat="41.44424" lon="13.8628"><ele>45.0</ele><time>2026-05-02T06:16:12.501Z</time></trkpt><trkpt lat="41.4443017" lon="13.8625267"><ele>45.333333333333336</ele><time>2026-05-02T06:16:13.501Z</time></trkpt><trkpt lat="41.444365" lon="13.8622533"><ele>45.66666666666667</ele><time>2026-05-02T06:16:14.501Z</time></trkpt><trkpt lat="41.4444283" lon="13.86198"><ele>46.0</ele><time>2026-05-02T06:16:15.501Z</time></trkpt><trkpt lat="41.4444933" lon="13.8616983"><ele>46.333333333333336</ele><time>2026-05-02T06:16:16.502Z</time></trkpt><trkpt lat="41.4445567" lon="13.8614267"><ele>46.666666666666664</ele><time>2026-05-02T06:16:17.501Z</time></trkpt><trkpt lat="41.4446167" lon="13.861145"><ele>47.0</ele><time>2026-05-02T06:16:18.501Z</time></trkpt><trkpt lat="41.4446733" lon="13.8608633"><ele>47.0</ele><time>2026-05-02T06:16:19.501Z</time></trkpt><trkpt lat="41.444735" lon="13.860585"><ele>47.0</ele><time>2026-05-02T06:16:20.501Z</time></trkpt><trkpt lat="41.4448" lon="13.860305"><ele>47.0</ele><time>2026-05-02T06:16:21.501Z</time></trkpt><trkpt lat="41.4448633" lon="13.860025"><ele>47.0</ele><time>2026-05-02T06:16:22.501Z</time></trkpt><trkpt lat="41.4449217" lon="13.85974"><ele>47.0</ele><time>2026-05-02T06:16:23.502Z</time></trkpt><trkpt lat="41.444985" lon="13.8594533"><ele>47.0</ele><time>2026-05-02T06:16:24.501Z</time></trkpt><trkpt lat="41.4450467" lon="13.8591633"><ele>47.0</ele><time>2026-05-02T06:16:25.501Z</time></trkpt><trkpt lat="41.4451117" lon="13.858875"><ele>47.0</ele><time>2026-05-02T06:16:26.501Z</time></trkpt><trkpt lat="41.4451717" lon="13.8585983"><ele>47.0</ele><time>2026-05-02T06:16:27.501Z</time></trkpt><trkpt lat="41.445235" lon="13.8583233"><ele>47.0</ele><time>2026-05-02T06:16:28.501Z</time></trkpt><trkpt lat="41.445295" lon="13.8580533"><ele>47.0</ele><time>2026-05-02T06:16:29.501Z</time></trkpt><trkpt lat="41.4453583" lon="13.8577833"><ele>47.0</ele><time>2026-05-02T06:16:30.501Z</time></trkpt><trkpt lat="41.4454167" lon="13.8575183"><ele>47.666666666666664</ele><time>2026-05-02T06:16:31.501Z</time></trkpt><trkpt lat="41.4454783" lon="13.8572483"><ele>48.33333333333333</ele><time>2026-05-02T06:16:32.501Z</time></trkpt><trkpt lat="41.4455367" lon="13.85698"><ele>49.0</ele><time>2026-05-02T06:16:33.501Z</time></trkpt><trkpt lat="41.4455983" lon="13.8567117"><ele>49.0</ele><time>2026-05-02T06:16:34.501Z</time></trkpt><trkpt lat="41.4456533" lon="13.85644"><ele>49.0</ele><time>2026-05-02T06:16:35.502Z</time></trkpt><trkpt lat="41.4457083" lon="13.8561633"><ele>49.0</ele><time>2026-05-02T06:16:36.501Z</time></trkpt><trkpt lat="41.4457717" lon="13.8558867"><ele>49.33333333333333</ele><time>2026-05-02T06:16:37.501Z</time></trkpt><trkpt lat="41.4458317" lon="13.8556067"><ele>49.66666666666667</ele><time>2026-05-02T06:16:38.501Z</time></trkpt><trkpt lat="41.445895" lon="13.8553283"><ele>50.0</ele><time>2026-05-02T06:16:39.501Z</time></trkpt><trkpt lat="41.44596" lon="13.8550417"><ele>50.5</ele><time>2026-05-02T06:16:40.501Z</time></trkpt><trkpt lat="41.4460267" lon="13.8547533"><ele>51.0</ele><time>2026-05-02T06:16:41.501Z</time></trkpt><trkpt lat="41.4460867" lon="13.8544617"><ele>50.5</ele><time>2026-05-02T06:16:42.501Z</time></trkpt><trkpt lat="41.4461483" lon="13.85417"><ele>50.0</ele><time>2026-05-02T06:16:43.501Z</time></trkpt><trkpt lat="41.4462117" lon="13.85388"><ele>50.0</ele><time>2026-05-02T06:16:44.501Z</time></trkpt><trkpt lat="41.44628" lon="13.853585"><ele>50.0</ele><time>2026-05-02T06:16:45.501Z</time></trkpt><trkpt lat="41.4463433" lon="13.853285"><ele>50.0</ele><time>2026-05-02T06:16:46.501Z</time></trkpt><trkpt lat="41.4464117" lon="13.8529867"><ele>50.0</ele><time>2026-05-02T06:16:47.501Z</time></trkpt><trkpt lat="41.4464783" lon="13.8526867"><ele>50.5</ele><time>2026-05-02T06:16:48.501Z</time></trkpt><trkpt lat="41.4465483" lon="13.8523867"><ele>51.0</ele><time>2026-05-02T06:16:49.501Z</time></trkpt><trkpt lat="41.44662" lon="13.85209"><ele>50.5</ele><time>2026-05-02T06:16:50.501Z</time></trkpt><trkpt lat="41.4466817" lon="13.851785"><ele>50.0</ele><time>2026-05-02T06:16:51.501Z</time></trkpt><trkpt lat="41.44674" lon="13.8514883"><ele>50.0</ele><time>2026-05-02T06:16:52.502Z</time></trkpt><trkpt lat="41.4468067" lon="13.85119"><ele>50.0</ele><time>2026-05-02T06:16:53.501Z</time></trkpt><trkpt lat="41.4468733" lon="13.8508883"><ele>49.0</ele><time>2026-05-02T06:16:54.501Z</time></trkpt><trkpt lat="41.44694" lon="13.850585"><ele>48.0</ele><time>2026-05-02T06:16:55.501Z</time></trkpt><trkpt lat="41.44701" lon="13.85028"><ele>48.5</ele><time>2026-05-02T06:16:56.501Z</time></trkpt><trkpt lat="41.447075" lon="13.849985"><ele>49.0</ele><time>2026-05-02T06:16:57.501Z</time></trkpt><trkpt lat="41.4471417" lon="13.8496867"><ele>45.5</ele><time>2026-05-02T06:16:58.501Z</time></trkpt><trkpt lat="41.4472083" lon="13.84939"><ele>42.0</ele><time>2026-05-02T06:16:59.501Z</time></trkpt><trkpt lat="41.447275" lon="13.8490983"><ele>42.0</ele><time>2026-05-02T06:17:00.501Z</time></trkpt><trkpt lat="41.4473367" lon="13.8488067"><ele>42.0</ele><time>2026-05-02T06:17:01.501Z</time></trkpt><trkpt lat="41.4474017" lon="13.8485133"><ele>42.0</ele><time>2026-05-02T06:17:02.502Z</time></trkpt><trkpt lat="41.447465" lon="13.8482233"><ele>42.0</ele><time>2026-05-02T06:17:03.501Z</time></trkpt><trkpt lat="41.44753" lon="13.8479317"><ele>42.0</ele><time>2026-05-02T06:17:04.501Z</time></trkpt><trkpt lat="41.4475983" lon="13.847645"><ele>42.0</ele><time>2026-05-02T06:17:05.501Z</time></trkpt><trkpt lat="41.44766" lon="13.847355"><ele>43.5</ele><time>2026-05-02T06:17:06.501Z</time></trkpt><trkpt lat="41.4477233" lon="13.8470633"><ele>45.0</ele><time>2026-05-02T06:17:07.501Z</time></trkpt><trkpt lat="41.447785" lon="13.84677"><ele>45.5</ele><time>2026-05-02T06:17:08.501Z</time></trkpt><trkpt lat="41.4478533" lon="13.84648"><ele>46.0</ele><time>2026-05-02T06:17:09.501Z</time></trkpt><trkpt lat="41.44792" lon="13.84619"><ele>44.0</ele><time>2026-05-02T06:17:10.501Z</time></trkpt><trkpt lat="41.447985" lon="13.845895"><ele>42.0</ele><time>2026-05-02T06:17:11.502Z</time></trkpt><trkpt lat="41.4480533" lon="13.8456"><ele>42.0</ele><time>2026-05-02T06:17:12.502Z</time></trkpt><trkpt lat="41.4481183" lon="13.8452967"><ele>42.0</ele><time>2026-05-02T06:17:13.501Z</time></trkpt><trkpt lat="41.4481817" lon="13.844995"><ele>43.5</ele><time>2026-05-02T06:17:14.501Z</time></trkpt><trkpt lat="41.448245" lon="13.8447017"><ele>45.0</ele><time>2026-05-02T06:17:15.501Z</time></trkpt><trkpt lat="41.4483117" lon="13.8444117"><ele>44.5</ele><time>2026-05-02T06:17:16.501Z</time></trkpt><trkpt lat="41.4483733" lon="13.84412"><ele>44.0</ele><time>2026-05-02T06:17:17.501Z</time></trkpt><trkpt lat="41.4484333" lon="13.843825"><ele>44.0</ele><time>2026-05-02T06:17:18.501Z</time></trkpt><trkpt lat="41.4484983" lon="13.8435333"><ele>44.0</ele><time>2026-05-02T06:17:19.501Z</time></trkpt><trkpt lat="41.4485633" lon="13.84325"><ele>44.0</ele><time>2026-05-02T06:17:20.501Z</time></trkpt><trkpt lat="41.44863" lon="13.8429583"><ele>44.0</ele><time>2026-05-02T06:17:21.502Z</time></trkpt><trkpt lat="41.448695" lon="13.842675"><ele>43.0</ele><time>2026-05-02T06:17:22.501Z</time></trkpt><trkpt lat="41.4487583" lon="13.8423867"><ele>42.0</ele><time>2026-05-02T06:17:23.501Z</time></trkpt><trkpt lat="41.4488217" lon="13.8421017"><ele>41.0</ele><time>2026-05-02T06:17:24.501Z</time></trkpt><trkpt lat="41.4488867" lon="13.8418083"><ele>41.33333333333333</ele><time>2026-05-02T06:17:25.501Z</time></trkpt><trkpt lat="41.448955" lon="13.8415167"><ele>41.666666666666664</ele><time>2026-05-02T06:17:26.501Z</time></trkpt><trkpt lat="41.4490183" lon="13.841235"><ele>42.0</ele><time>2026-05-02T06:17:27.501Z</time></trkpt><trkpt lat="41.449085" lon="13.840945"><ele>39.0</ele><time>2026-05-02T06:17:28.501Z</time></trkpt><trkpt lat="41.4491483" lon="13.8406533"><ele>36.0</ele><time>2026-05-02T06:17:29.501Z</time></trkpt><trkpt lat="41.4492117" lon="13.8403683"><ele>34.666666666666664</ele><time>2026-05-02T06:17:30.501Z</time></trkpt><trkpt lat="41.4492767" lon="13.8400833"><ele>33.33333333333333</ele><time>2026-05-02T06:17:31.501Z</time></trkpt><trkpt lat="41.449335" lon="13.8397983"><ele>32.0</ele><time>2026-05-02T06:17:32.501Z</time></trkpt><trkpt lat="41.4493983" lon="13.8395067"><ele>31.0</ele><time>2026-05-02T06:17:33.501Z</time></trkpt><trkpt lat="41.4494533" lon="13.839215"><ele>30.0</ele><time>2026-05-02T06:17:34.501Z</time></trkpt><trkpt lat="41.4495167" lon="13.8389233"><ele>30.0</ele><time>2026-05-02T06:17:35.501Z</time></trkpt><trkpt lat="41.449585" lon="13.8386333"><ele>30.0</ele><time>2026-05-02T06:17:36.501Z</time></trkpt><trkpt lat="41.4496467" lon="13.838345"><ele>29.666666666666664</ele><time>2026-05-02T06:17:37.501Z</time></trkpt><trkpt lat="41.4497117" lon="13.8380583"><ele>29.333333333333332</ele><time>2026-05-02T06:17:38.501Z</time></trkpt><trkpt lat="41.4497733" lon="13.8377717"><ele>29.0</ele><time>2026-05-02T06:17:39.501Z</time></trkpt><trkpt lat="41.4498367" lon="13.837485"><ele>29.0</ele><time>2026-05-02T06:17:40.502Z</time></trkpt><trkpt lat="41.4499033" lon="13.8371983"><ele>29.0</ele><time>2026-05-02T06:17:41.501Z</time></trkpt><trkpt lat="41.4499667" lon="13.836915"><ele>29.0</ele><time>2026-05-02T06:17:42.501Z</time></trkpt><trkpt lat="41.45003" lon="13.8366317"><ele>29.0</ele><time>2026-05-02T06:17:43.501Z</time></trkpt><trkpt lat="41.4500967" lon="13.8363417"><ele>29.0</ele><time>2026-05-02T06:17:44.501Z</time></trkpt><trkpt lat="41.45016" lon="13.8360583"><ele>29.0</ele><time>2026-05-02T06:17:45.501Z</time></trkpt><trkpt lat="41.4502217" lon="13.8357733"><ele>29.666666666666664</ele><time>2026-05-02T06:17:46.501Z</time></trkpt><trkpt lat="41.450285" lon="13.835485"><ele>30.333333333333336</ele><time>2026-05-02T06:17:47.501Z</time></trkpt><trkpt lat="41.4503483" lon="13.8351983"><ele>31.0</ele><time>2026-05-02T06:17:48.501Z</time></trkpt><trkpt lat="41.450405" lon="13.8349133"><ele>31.0</ele><time>2026-05-02T06:17:49.501Z</time></trkpt><trkpt lat="41.4504733" lon="13.8346333"><ele>31.0</ele><time>2026-05-02T06:17:50.501Z</time></trkpt><trkpt lat="41.4505317" lon="13.834355"><ele>31.0</ele><time>2026-05-02T06:17:51.501Z</time></trkpt><trkpt lat="41.450595" lon="13.8340883"><ele>34.0</ele><time>2026-05-02T06:17:52.501Z</time></trkpt><trkpt lat="41.4506517" lon="13.8338117"><ele>37.0</ele><time>2026-05-02T06:17:53.501Z</time></trkpt><trkpt lat="41.450715" lon="13.8335383"><ele>40.0</ele><time>2026-05-02T06:17:54.501Z</time></trkpt><trkpt lat="41.4507767" lon="13.83326"><ele>42.0</ele><time>2026-05-02T06:17:55.501Z</time></trkpt><trkpt lat="41.4508367" lon="13.8329833"><ele>44.0</ele><time>2026-05-02T06:17:56.501Z</time></trkpt><trkpt lat="41.4509" lon="13.8327"><ele>46.0</ele><time>2026-05-02T06:17:57.501Z</time></trkpt><trkpt lat="41.4509633" lon="13.8324167"><ele>47.5</ele><time>2026-05-02T06:17:58.501Z</time></trkpt><trkpt lat="41.4510317" lon="13.8321333"><ele>49.0</ele><time>2026-05-02T06:17:59.501Z</time></trkpt><trkpt lat="41.4510983" lon="13.8318433"><ele>48.5</ele><time>2026-05-02T06:18:00.501Z</time></trkpt><trkpt lat="41.4511583" lon="13.8315517"><ele>48.0</ele><time>2026-05-02T06:18:01.501Z</time></trkpt><trkpt lat="41.4512233" lon="13.8312617"><ele>49.0</ele><time>2026-05-02T06:18:02.502Z</time></trkpt><trkpt lat="41.4512833" lon="13.8309717"><ele>50.0</ele><time>2026-05-02T06:18:03.501Z</time></trkpt><trkpt lat="41.4513467" lon="13.8306833"><ele>49.5</ele><time>2026-05-02T06:18:04.501Z</time></trkpt><trkpt lat="41.4514117" lon="13.8303967"><ele>49.0</ele><time>2026-05-02T06:18:05.501Z</time></trkpt><trkpt lat="41.4514767" lon="13.8301083"><ele>49.0</ele><time>2026-05-02T06:18:06.501Z</time></trkpt><trkpt lat="41.45154" lon="13.8298233"><ele>49.0</ele><time>2026-05-02T06:18:07.501Z</time></trkpt><trkpt lat="41.4516033" lon="13.8295367"><ele>49.0</ele><time>2026-05-02T06:18:08.501Z</time></trkpt><trkpt lat="41.451665" lon="13.82925"><ele>49.33333333333333</ele><time>2026-05-02T06:18:09.502Z</time></trkpt><trkpt lat="41.4517233" lon="13.828965"><ele>49.66666666666667</ele><time>2026-05-02T06:18:10.501Z</time></trkpt><trkpt lat="41.4517833" lon="13.8286817"><ele>50.0</ele><time>2026-05-02T06:18:11.501Z</time></trkpt><trkpt lat="41.4518433" lon="13.8284067"><ele>51.333333333333336</ele><time>2026-05-02T06:18:12.501Z</time></trkpt><trkpt lat="41.4519067" lon="13.8281267"><ele>52.66666666666667</ele><time>2026-05-02T06:18:13.502Z</time></trkpt><trkpt lat="41.4519717" lon="13.8278467"><ele>54.0</ele><time>2026-05-02T06:18:14.502Z</time></trkpt><trkpt lat="41.4520383" lon="13.827565"><ele>54.66666666666667</ele><time>2026-05-02T06:18:15.501Z</time></trkpt><trkpt lat="41.4521" lon="13.8272767"><ele>55.333333333333336</ele><time>2026-05-02T06:18:16.501Z</time></trkpt><trkpt lat="41.4521633" lon="13.8269917"><ele>56.0</ele><time>2026-05-02T06:18:17.501Z</time></trkpt><trkpt lat="41.4522317" lon="13.8266983"><ele>57.5</ele><time>2026-05-02T06:18:18.501Z</time></trkpt><trkpt lat="41.4522967" lon="13.8264017"><ele>59.0</ele><time>2026-05-02T06:18:19.501Z</time></trkpt><trkpt lat="41.4523617" lon="13.826105"><ele>56.5</ele><time>2026-05-02T06:18:20.501Z</time></trkpt><trkpt lat="41.4524233" lon="13.8258017"><ele>54.0</ele><time>2026-05-02T06:18:21.501Z</time></trkpt><trkpt lat="41.4524917" lon="13.8255067"><ele>54.0</ele><time>2026-05-02T06:18:22.501Z</time></trkpt><trkpt lat="41.4525567" lon="13.8252167"><ele>54.0</ele><time>2026-05-02T06:18:23.501Z</time></trkpt><trkpt lat="41.45262" lon="13.8249317"><ele>52.66666666666667</ele><time>2026-05-02T06:18:24.501Z</time></trkpt><trkpt lat="41.4526817" lon="13.82465"><ele>51.333333333333336</ele><time>2026-05-02T06:18:25.501Z</time></trkpt><trkpt lat="41.4527433" lon="13.8243717"><ele>50.0</ele><time>2026-05-02T06:18:26.501Z</time></trkpt><trkpt lat="41.4528033" lon="13.8240917"><ele>50.0</ele><time>2026-05-02T06:18:27.501Z</time></trkpt><trkpt lat="41.452865" lon="13.823815"><ele>50.0</ele><time>2026-05-02T06:18:28.501Z</time></trkpt><trkpt lat="41.4529267" lon="13.8235333"><ele>50.0</ele><time>2026-05-02T06:18:29.501Z</time></trkpt><trkpt lat="41.4529883" lon="13.8232533"><ele>52.0</ele><time>2026-05-02T06:18:30.501Z</time></trkpt><trkpt lat="41.4530467" lon="13.8229733"><ele>54.0</ele><time>2026-05-02T06:18:31.501Z</time></trkpt><trkpt lat="41.45311" lon="13.8226933"><ele>56.0</ele><time>2026-05-02T06:18:32.501Z</time></trkpt><trkpt lat="41.453175" lon="13.82241"><ele>57.333333333333336</ele><time>2026-05-02T06:18:33.501Z</time></trkpt><trkpt lat="41.4532367" lon="13.822125"><ele>58.66666666666667</ele><time>2026-05-02T06:18:34.501Z</time></trkpt><trkpt lat="41.4532983" lon="13.8218367"><ele>60.0</ele><time>2026-05-02T06:18:35.501Z</time></trkpt><trkpt lat="41.453365" lon="13.8215467"><ele>60.0</ele><time>2026-05-02T06:18:36.501Z</time></trkpt><trkpt lat="41.4534317" lon="13.8212583"><ele>60.0</ele><time>2026-05-02T06:18:37.501Z</time></trkpt><trkpt lat="41.4534967" lon="13.8209683"><ele>60.0</ele><time>2026-05-02T06:18:38.501Z</time></trkpt><trkpt lat="41.4535633" lon="13.8206833"><ele>60.0</ele><time>2026-05-02T06:18:39.501Z</time></trkpt><trkpt lat="41.4536283" lon="13.8203883"><ele>60.0</ele><time>2026-05-02T06:18:40.501Z</time></trkpt><trkpt lat="41.4536967" lon="13.8201017"><ele>60.0</ele><time>2026-05-02T06:18:41.501Z</time></trkpt><trkpt lat="41.4537533" lon="13.8198167"><ele>60.0</ele><time>2026-05-02T06:18:42.501Z</time></trkpt><trkpt lat="41.453815" lon="13.8195433"><ele>60.66666666666667</ele><time>2026-05-02T06:18:43.501Z</time></trkpt><trkpt lat="41.45387" lon="13.8192783"><ele>61.333333333333336</ele><time>2026-05-02T06:18:44.501Z</time></trkpt><trkpt lat="41.4539317" lon="13.8190067"><ele>62.0</ele><time>2026-05-02T06:18:45.501Z</time></trkpt><trkpt lat="41.4539833" lon="13.81873"><ele>61.0</ele><time>2026-05-02T06:18:46.501Z</time></trkpt><trkpt lat="41.4540467" lon="13.8184567"><ele>60.0</ele><time>2026-05-02T06:18:47.501Z</time></trkpt><trkpt lat="41.4541067" lon="13.8181833"><ele>59.0</ele><time>2026-05-02T06:18:48.501Z</time></trkpt><trkpt lat="41.4541667" lon="13.817905"><ele>56.0</ele><time>2026-05-02T06:18:49.501Z</time></trkpt><trkpt lat="41.4542267" lon="13.8176267"><ele>53.0</ele><time>2026-05-02T06:18:50.501Z</time></trkpt><trkpt lat="41.4542883" lon="13.8173433"><ele>50.0</ele><time>2026-05-02T06:18:51.502Z</time></trkpt><trkpt lat="41.45435" lon="13.817055"><ele>47.5</ele><time>2026-05-02T06:18:52.501Z</time></trkpt><trkpt lat="41.4544117" lon="13.8167667"><ele>45.0</ele><time>2026-05-02T06:18:53.501Z</time></trkpt><trkpt lat="41.4544767" lon="13.8164783"><ele>45.0</ele><time>2026-05-02T06:18:54.501Z</time></trkpt><trkpt lat="41.45454" lon="13.8161967"><ele>45.0</ele><time>2026-05-02T06:18:55.501Z</time></trkpt><trkpt lat="41.4546033" lon="13.8159117"><ele>45.0</ele><time>2026-05-02T06:18:56.501Z</time></trkpt><trkpt lat="41.4546683" lon="13.815635"><ele>44.333333333333336</ele><time>2026-05-02T06:18:57.501Z</time></trkpt><trkpt lat="41.4547283" lon="13.81537"><ele>43.66666666666667</ele><time>2026-05-02T06:18:58.501Z</time></trkpt><trkpt lat="41.4547867" lon="13.8151117"><ele>43.0</ele><time>2026-05-02T06:18:59.501Z</time></trkpt><trkpt lat="41.45485" lon="13.8148583"><ele>43.0</ele><time>2026-05-02T06:19:00.501Z</time></trkpt><trkpt lat="41.454905" lon="13.8146083"><ele>43.0</ele><time>2026-05-02T06:19:01.502Z</time></trkpt><trkpt lat="41.45496" lon="13.8143467"><ele>43.0</ele><time>2026-05-02T06:19:02.501Z</time></trkpt><trkpt lat="41.4550183" lon="13.8140817"><ele>44.66666666666667</ele><time>2026-05-02T06:19:03.501Z</time></trkpt><trkpt lat="41.455075" lon="13.8138167"><ele>46.333333333333336</ele><time>2026-05-02T06:19:04.501Z</time></trkpt><trkpt lat="41.455135" lon="13.813555"><ele>48.0</ele><time>2026-05-02T06:19:05.501Z</time></trkpt><trkpt lat="41.45519" lon="13.8132917"><ele>48.33333333333333</ele><time>2026-05-02T06:19:06.501Z</time></trkpt><trkpt lat="41.4552433" lon="13.8130283"><ele>48.666666666666664</ele><time>2026-05-02T06:19:07.501Z</time></trkpt><trkpt lat="41.4553033" lon="13.8127683"><ele>49.0</ele><time>2026-05-02T06:19:08.501Z</time></trkpt><trkpt lat="41.45536" lon="13.8125017"><ele>49.33333333333333</ele><time>2026-05-02T06:19:09.501Z</time></trkpt><trkpt lat="41.4554183" lon="13.8122383"><ele>49.66666666666667</ele><time>2026-05-02T06:19:10.501Z</time></trkpt><trkpt lat="41.45548" lon="13.81197"><ele>50.0</ele><time>2026-05-02T06:19:11.501Z</time></trkpt><trkpt lat="41.45554" lon="13.8117017"><ele>51.66666666666667</ele><time>2026-05-02T06:19:12.501Z</time></trkpt><trkpt lat="41.4556" lon="13.81143"><ele>53.33333333333333</ele><time>2026-05-02T06:19:13.501Z</time></trkpt><trkpt lat="41.4556617" lon="13.8111583"><ele>55.0</ele><time>2026-05-02T06:19:14.501Z</time></trkpt><trkpt lat="41.4557183" lon="13.8108817"><ele>55.0</ele><time>2026-05-02T06:19:15.501Z</time></trkpt><trkpt lat="41.4557817" lon="13.8106067"><ele>55.0</ele><time>2026-05-02T06:19:16.501Z</time></trkpt><trkpt lat="41.4558417" lon="13.8103217"><ele>55.0</ele><time>2026-05-02T06:19:17.501Z</time></trkpt><trkpt lat="41.4559033" lon="13.8100417"><ele>55.0</ele><time>2026-05-02T06:19:18.501Z</time></trkpt><trkpt lat="41.45597" lon="13.8097583"><ele>55.0</ele><time>2026-05-02T06:19:19.501Z</time></trkpt><trkpt lat="41.456035" lon="13.8094717"><ele>55.0</ele><time>2026-05-02T06:19:20.501Z</time></trkpt><trkpt lat="41.4561017" lon="13.8091933"><ele>54.666666666666664</ele><time>2026-05-02T06:19:21.501Z</time></trkpt><trkpt lat="41.4561633" lon="13.80891"><ele>54.33333333333333</ele><time>2026-05-02T06:19:22.501Z</time></trkpt><trkpt lat="41.4562233" lon="13.8086267"><ele>54.0</ele><time>2026-05-02T06:19:23.501Z</time></trkpt><trkpt lat="41.4562817" lon="13.808345"><ele>55.0</ele><time>2026-05-02T06:19:24.502Z</time></trkpt><trkpt lat="41.45634" lon="13.8080683"><ele>56.0</ele><time>2026-05-02T06:19:25.502Z</time></trkpt><trkpt lat="41.4563967" lon="13.8077883"><ele>57.0</ele><time>2026-05-02T06:19:26.502Z</time></trkpt><trkpt lat="41.4564583" lon="13.807515"><ele>57.0</ele><time>2026-05-02T06:19:27.502Z</time></trkpt><trkpt lat="41.4565183" lon="13.8072333"><ele>57.0</ele><time>2026-05-02T06:19:28.502Z</time></trkpt><trkpt lat="41.4565817" lon="13.8069517"><ele>57.0</ele><time>2026-05-02T06:19:29.502Z</time></trkpt><trkpt lat="41.45664" lon="13.80667"><ele>58.0</ele><time>2026-05-02T06:19:30.502Z</time></trkpt><trkpt lat="41.45671" lon="13.8063783"><ele>59.0</ele><time>2026-05-02T06:19:31.502Z</time></trkpt><trkpt lat="41.4567767" lon="13.806085"><ele>59.0</ele><time>2026-05-02T06:19:32.502Z</time></trkpt><trkpt lat="41.456845" lon="13.8057917"><ele>59.0</ele><time>2026-05-02T06:19:33.502Z</time></trkpt><trkpt lat="41.4569083" lon="13.8054983"><ele>59.0</ele><time>2026-05-02T06:19:34.502Z</time></trkpt><trkpt lat="41.456975" lon="13.80521"><ele>59.0</ele><time>2026-05-02T06:19:35.502Z</time></trkpt><trkpt lat="41.457035" lon="13.80491"><ele>60.0</ele><time>2026-05-02T06:19:36.502Z</time></trkpt><trkpt lat="41.4571017" lon="13.80461"><ele>61.0</ele><time>2026-05-02T06:19:37.502Z</time></trkpt><trkpt lat="41.4571633" lon="13.8043083"><ele>61.5</ele><time>2026-05-02T06:19:38.502Z</time></trkpt><trkpt lat="41.4572267" lon="13.8040083"><ele>62.0</ele><time>2026-05-02T06:19:39.502Z</time></trkpt><trkpt lat="41.4572917" lon="13.8037167"><ele>62.5</ele><time>2026-05-02T06:19:40.503Z</time></trkpt><trkpt lat="41.4573567" lon="13.8034267"><ele>63.0</ele><time>2026-05-02T06:19:41.502Z</time></trkpt><trkpt lat="41.4574217" lon="13.8031367"><ele>63.0</ele><time>2026-05-02T06:19:42.503Z</time></trkpt><trkpt lat="41.4574833" lon="13.8028417"><ele>63.0</ele><time>2026-05-02T06:19:43.502Z</time></trkpt><trkpt lat="41.4575533" lon="13.8025517"><ele>63.66666666666667</ele><time>2026-05-02T06:19:44.502Z</time></trkpt><trkpt lat="41.457615" lon="13.80226"><ele>64.33333333333334</ele><time>2026-05-02T06:19:45.502Z</time></trkpt><trkpt lat="41.457675" lon="13.8019783"><ele>65.0</ele><time>2026-05-02T06:19:46.502Z</time></trkpt><trkpt lat="41.45774" lon="13.8017017"><ele>65.66666666666667</ele><time>2026-05-02T06:19:47.502Z</time></trkpt><trkpt lat="41.4578033" lon="13.8014317"><ele>66.33333333333333</ele><time>2026-05-02T06:19:48.502Z</time></trkpt><trkpt lat="41.457865" lon="13.8011583"><ele>67.0</ele><time>2026-05-02T06:19:49.502Z</time></trkpt><trkpt lat="41.4579267" lon="13.800875"><ele>68.66666666666666</ele><time>2026-05-02T06:19:50.502Z</time></trkpt><trkpt lat="41.4579867" lon="13.8005967"><ele>70.33333333333333</ele><time>2026-05-02T06:19:51.502Z</time></trkpt><trkpt lat="41.4580517" lon="13.8003183"><ele>72.0</ele><time>2026-05-02T06:19:52.502Z</time></trkpt><trkpt lat="41.458115" lon="13.80004"><ele>72.0</ele><time>2026-05-02T06:19:53.502Z</time></trkpt><trkpt lat="41.4581733" lon="13.799765"><ele>72.0</ele><time>2026-05-02T06:19:54.502Z</time></trkpt><trkpt lat="41.458235" lon="13.7994933"><ele>72.0</ele><time>2026-05-02T06:19:55.502Z</time></trkpt><trkpt lat="41.4582917" lon="13.7992217"><ele>72.0</ele><time>2026-05-02T06:19:56.502Z</time></trkpt><trkpt lat="41.4583533" lon="13.7989383"><ele>72.0</ele><time>2026-05-02T06:19:57.502Z</time></trkpt><trkpt lat="41.458415" lon="13.7986533"><ele>72.0</ele><time>2026-05-02T06:19:58.502Z</time></trkpt><trkpt lat="41.45848" lon="13.7983667"><ele>72.0</ele><time>2026-05-02T06:19:59.502Z</time></trkpt><trkpt lat="41.4585417" lon="13.798085"><ele>72.0</ele><time>2026-05-02T06:20:00.502Z</time></trkpt><trkpt lat="41.4586067" lon="13.7978017"><ele>72.0</ele><time>2026-05-02T06:20:01.503Z</time></trkpt><trkpt lat="41.45867" lon="13.79752"><ele>72.33333333333333</ele><time>2026-05-02T06:20:02.502Z</time></trkpt><trkpt lat="41.4587283" lon="13.797235"><ele>72.66666666666666</ele><time>2026-05-02T06:20:03.502Z</time></trkpt><trkpt lat="41.458795" lon="13.7969483"><ele>73.0</ele><time>2026-05-02T06:20:04.502Z</time></trkpt><trkpt lat="41.4588567" lon="13.7966633"><ele>75.0</ele><time>2026-05-02T06:20:05.503Z</time></trkpt><trkpt lat="41.45892" lon="13.796375"><ele>77.0</ele><time>2026-05-02T06:20:06.502Z</time></trkpt><trkpt lat="41.4589867" lon="13.7960883"><ele>77.0</ele><time>2026-05-02T06:20:07.502Z</time></trkpt><trkpt lat="41.45905" lon="13.7958"><ele>77.0</ele><time>2026-05-02T06:20:08.502Z</time></trkpt><trkpt lat="41.4591133" lon="13.7955033"><ele>77.0</ele><time>2026-05-02T06:20:09.502Z</time></trkpt><trkpt lat="41.4591767" lon="13.79521"><ele>77.0</ele><time>2026-05-02T06:20:10.502Z</time></trkpt><trkpt lat="41.45924" lon="13.7949133"><ele>76.5</ele><time>2026-05-02T06:20:11.502Z</time></trkpt><trkpt lat="41.4593033" lon="13.7946167"><ele>76.0</ele><time>2026-05-02T06:20:12.502Z</time></trkpt><trkpt lat="41.4593683" lon="13.794315"><ele>75.5</ele><time>2026-05-02T06:20:13.502Z</time></trkpt><trkpt lat="41.45943" lon="13.79402"><ele>75.0</ele><time>2026-05-02T06:20:14.502Z</time></trkpt><trkpt lat="41.4595" lon="13.7937217"><ele>76.0</ele><time>2026-05-02T06:20:15.502Z</time></trkpt><trkpt lat="41.4595683" lon="13.7934217"><ele>77.0</ele><time>2026-05-02T06:20:16.502Z</time></trkpt><trkpt lat="41.45964" lon="13.7931233"><ele>79.5</ele><time>2026-05-02T06:20:17.502Z</time></trkpt><trkpt lat="41.4597067" lon="13.79282"><ele>82.0</ele><time>2026-05-02T06:20:18.502Z</time></trkpt><trkpt lat="41.4597767" lon="13.7925217"><ele>82.0</ele><time>2026-05-02T06:20:19.502Z</time></trkpt><trkpt lat="41.4598433" lon="13.79222"><ele>82.0</ele><time>2026-05-02T06:20:20.502Z</time></trkpt><trkpt lat="41.4599133" lon="13.791915"><ele>81.0</ele><time>2026-05-02T06:20:21.502Z</time></trkpt><trkpt lat="41.459975" lon="13.791615"><ele>80.0</ele><time>2026-05-02T06:20:22.502Z</time></trkpt><trkpt lat="41.4600383" lon="13.7913167"><ele>80.0</ele><time>2026-05-02T06:20:23.502Z</time></trkpt><trkpt lat="41.4601033" lon="13.7910183"><ele>80.0</ele><time>2026-05-02T06:20:24.502Z</time></trkpt><trkpt lat="41.4601683" lon="13.7907167"><ele>78.5</ele><time>2026-05-02T06:20:25.502Z</time></trkpt><trkpt lat="41.460235" lon="13.7904233"><ele>77.0</ele><time>2026-05-02T06:20:26.502Z</time></trkpt><trkpt lat="41.4603" lon="13.7901233"><ele>75.5</ele><time>2026-05-02T06:20:27.502Z</time></trkpt><trkpt lat="41.4603633" lon="13.7898233"><ele>74.0</ele><time>2026-05-02T06:20:28.502Z</time></trkpt><trkpt lat="41.4604317" lon="13.7895333"><ele>75.33333333333334</ele><time>2026-05-02T06:20:29.503Z</time></trkpt><trkpt lat="41.4604933" lon="13.789245"><ele>76.66666666666667</ele><time>2026-05-02T06:20:30.502Z</time></trkpt><trkpt lat="41.4605583" lon="13.78896"><ele>78.0</ele><time>2026-05-02T06:20:31.502Z</time></trkpt><trkpt lat="41.4606217" lon="13.7886833"><ele>78.0</ele><time>2026-05-02T06:20:32.502Z</time></trkpt><trkpt lat="41.4606817" lon="13.7884067"><ele>78.0</ele><time>2026-05-02T06:20:33.502Z</time></trkpt><trkpt lat="41.46074" lon="13.7881317"><ele>78.0</ele><time>2026-05-02T06:20:34.502Z</time></trkpt><trkpt lat="41.4608033" lon="13.787855"><ele>78.0</ele><time>2026-05-02T06:20:35.502Z</time></trkpt><trkpt lat="41.46086" lon="13.78758"><ele>78.0</ele><time>2026-05-02T06:20:36.502Z</time></trkpt><trkpt lat="41.4609217" lon="13.7873083"><ele>78.0</ele><time>2026-05-02T06:20:37.502Z</time></trkpt><trkpt lat="41.460985" lon="13.7870317"><ele>77.66666666666667</ele><time>2026-05-02T06:20:38.502Z</time></trkpt><trkpt lat="41.4610517" lon="13.7867533"><ele>77.33333333333334</ele><time>2026-05-02T06:20:39.502Z</time></trkpt><trkpt lat="41.46112" lon="13.7864767"><ele>77.0</ele><time>2026-05-02T06:20:40.502Z</time></trkpt><trkpt lat="41.4611783" lon="13.786195"><ele>77.0</ele><time>2026-05-02T06:20:41.502Z</time></trkpt><trkpt lat="41.4612383" lon="13.785915"><ele>77.0</ele><time>2026-05-02T06:20:42.503Z</time></trkpt><trkpt lat="41.4613" lon="13.7856383"><ele>77.0</ele><time>2026-05-02T06:20:43.502Z</time></trkpt><trkpt lat="41.4613583" lon="13.7853533"><ele>78.66666666666667</ele><time>2026-05-02T06:20:44.502Z</time></trkpt><trkpt lat="41.4614233" lon="13.7850683"><ele>80.33333333333333</ele><time>2026-05-02T06:20:45.502Z</time></trkpt><trkpt lat="41.4614867" lon="13.7847883"><ele>82.0</ele><time>2026-05-02T06:20:46.502Z</time></trkpt><trkpt lat="41.4615433" lon="13.7845233"><ele>80.66666666666666</ele><time>2026-05-02T06:20:47.502Z</time></trkpt><trkpt lat="41.4616017" lon="13.7842583"><ele>79.33333333333333</ele><time>2026-05-02T06:20:48.502Z</time></trkpt><trkpt lat="41.4616567" lon="13.7839917"><ele>78.0</ele><time>2026-05-02T06:20:49.502Z</time></trkpt><trkpt lat="41.46171" lon="13.7837333"><ele>77.33333333333333</ele><time>2026-05-02T06:20:50.502Z</time></trkpt><trkpt lat="41.4617667" lon="13.7834683"><ele>76.66666666666666</ele><time>2026-05-02T06:20:51.503Z</time></trkpt><trkpt lat="41.4618333" lon="13.7832117"><ele>76.0</ele><time>2026-05-02T06:20:52.502Z</time></trkpt><trkpt lat="41.4618867" lon="13.78295"><ele>76.0</ele><time>2026-05-02T06:20:53.503Z</time></trkpt><trkpt lat="41.4619467" lon="13.782695"><ele>76.0</ele><time>2026-05-02T06:20:54.502Z</time></trkpt><trkpt lat="41.46201" lon="13.7824317"><ele>76.0</ele><time>2026-05-02T06:20:55.502Z</time></trkpt><trkpt lat="41.4620717" lon="13.7821633"><ele>75.0</ele><time>2026-05-02T06:20:56.503Z</time></trkpt><trkpt lat="41.462135" lon="13.7818983"><ele>74.0</ele><time>2026-05-02T06:20:57.502Z</time></trkpt><trkpt lat="41.46219" lon="13.7816267"><ele>73.0</ele><time>2026-05-02T06:20:58.502Z</time></trkpt><trkpt lat="41.462255" lon="13.78135"><ele>72.33333333333333</ele><time>2026-05-02T06:20:59.502Z</time></trkpt><trkpt lat="41.46231" lon="13.7810817"><ele>71.66666666666667</ele><time>2026-05-02T06:21:00.502Z</time></trkpt><trkpt lat="41.46237" lon="13.7808083"><ele>71.0</ele><time>2026-05-02T06:21:01.502Z</time></trkpt><trkpt lat="41.462425" lon="13.7805317"><ele>69.66666666666667</ele><time>2026-05-02T06:21:02.502Z</time></trkpt><trkpt lat="41.4624833" lon="13.780255"><ele>68.33333333333333</ele><time>2026-05-02T06:21:03.503Z</time></trkpt><trkpt lat="41.462545" lon="13.7799783"><ele>67.0</ele><time>2026-05-02T06:21:04.502Z</time></trkpt><trkpt lat="41.4626067" lon="13.7796983"><ele>67.0</ele><time>2026-05-02T06:21:05.502Z</time></trkpt><trkpt lat="41.4626733" lon="13.7794167"><ele>67.0</ele><time>2026-05-02T06:21:06.502Z</time></trkpt><trkpt lat="41.462735" lon="13.7791417"><ele>67.0</ele><time>2026-05-02T06:21:07.502Z</time></trkpt><trkpt lat="41.4627967" lon="13.778865"><ele>66.66666666666666</ele><time>2026-05-02T06:21:08.502Z</time></trkpt><trkpt lat="41.4628533" lon="13.7785933"><ele>66.33333333333333</ele><time>2026-05-02T06:21:09.502Z</time></trkpt><trkpt lat="41.4629133" lon="13.7783217"><ele>66.0</ele><time>2026-05-02T06:21:10.502Z</time></trkpt><trkpt lat="41.46297" lon="13.7780567"><ele>66.0</ele><time>2026-05-02T06:21:11.502Z</time></trkpt><trkpt lat="41.46303" lon="13.7777817"><ele>66.0</ele><time>2026-05-02T06:21:12.502Z</time></trkpt><trkpt lat="41.4630883" lon="13.777515"><ele>66.0</ele><time>2026-05-02T06:21:13.502Z</time></trkpt><trkpt lat="41.4631467" lon="13.77724"><ele>66.0</ele><time>2026-05-02T06:21:14.502Z</time></trkpt><trkpt lat="41.4632083" lon="13.77697"><ele>66.0</ele><time>2026-05-02T06:21:15.502Z</time></trkpt><trkpt lat="41.4632667" lon="13.7766917"><ele>66.0</ele><time>2026-05-02T06:21:16.502Z</time></trkpt><trkpt lat="41.463335" lon="13.7764083"><ele>66.0</ele><time>2026-05-02T06:21:17.502Z</time></trkpt><trkpt lat="41.4633983" lon="13.7761233"><ele>66.0</ele><time>2026-05-02T06:21:18.502Z</time></trkpt><trkpt lat="41.4634583" lon="13.7758417"><ele>66.0</ele><time>2026-05-02T06:21:19.502Z</time></trkpt><trkpt lat="41.4635183" lon="13.7755583"><ele>66.33333333333333</ele><time>2026-05-02T06:21:20.502Z</time></trkpt><trkpt lat="41.463585" lon="13.7752683"><ele>66.66666666666666</ele><time>2026-05-02T06:21:21.502Z</time></trkpt><trkpt lat="41.46365" lon="13.7749883"><ele>67.0</ele><time>2026-05-02T06:21:22.502Z</time></trkpt><trkpt lat="41.4637133" lon="13.7746983"><ele>67.33333333333333</ele><time>2026-05-02T06:21:23.502Z</time></trkpt><trkpt lat="41.4637783" lon="13.7744133"><ele>67.66666666666667</ele><time>2026-05-02T06:21:24.502Z</time></trkpt><trkpt lat="41.4638417" lon="13.77413"><ele>68.0</ele><time>2026-05-02T06:21:25.502Z</time></trkpt><trkpt lat="41.4639017" lon="13.7738417"><ele>68.0</ele><time>2026-05-02T06:21:26.502Z</time></trkpt><trkpt lat="41.4639633" lon="13.7735567"><ele>68.0</ele><time>2026-05-02T06:21:27.502Z</time></trkpt><trkpt lat="41.4640283" lon="13.7732667"><ele>68.0</ele><time>2026-05-02T06:21:28.502Z</time></trkpt><trkpt lat="41.464095" lon="13.7729783"><ele>68.0</ele><time>2026-05-02T06:21:29.502Z</time></trkpt><trkpt lat="41.4641533" lon="13.7727"><ele>68.0</ele><time>2026-05-02T06:21:30.502Z</time></trkpt><trkpt lat="41.4642183" lon="13.7724167"><ele>68.0</ele><time>2026-05-02T06:21:31.502Z</time></trkpt><trkpt lat="41.4642817" lon="13.7721367"><ele>68.66666666666667</ele><time>2026-05-02T06:21:32.502Z</time></trkpt><trkpt lat="41.4643433" lon="13.7718567"><ele>69.33333333333333</ele><time>2026-05-02T06:21:33.502Z</time></trkpt><trkpt lat="41.4644017" lon="13.77158"><ele>70.0</ele><time>2026-05-02T06:21:34.502Z</time></trkpt><trkpt lat="41.4644667" lon="13.771295"><ele>69.66666666666666</ele><time>2026-05-02T06:21:35.502Z</time></trkpt><trkpt lat="41.4645333" lon="13.7710217"><ele>69.33333333333333</ele><time>2026-05-02T06:21:36.502Z</time></trkpt><trkpt lat="41.4645967" lon="13.7707483"><ele>69.0</ele><time>2026-05-02T06:21:37.502Z</time></trkpt><trkpt lat="41.4646583" lon="13.7704667"><ele>69.0</ele><time>2026-05-02T06:21:38.502Z</time></trkpt><trkpt lat="41.4647117" lon="13.770185"><ele>69.0</ele><time>2026-05-02T06:21:39.502Z</time></trkpt><trkpt lat="41.4647733" lon="13.7699017"><ele>69.0</ele><time>2026-05-02T06:21:40.502Z</time></trkpt><trkpt lat="41.46483" lon="13.7696167"><ele>70.0</ele><time>2026-05-02T06:21:41.502Z</time></trkpt><trkpt lat="41.4648883" lon="13.76933"><ele>71.0</ele><time>2026-05-02T06:21:42.502Z</time></trkpt><trkpt lat="41.46495" lon="13.76904"><ele>72.0</ele><time>2026-05-02T06:21:43.502Z</time></trkpt><trkpt lat="41.4650183" lon="13.7687617"><ele>72.0</ele><time>2026-05-02T06:21:44.502Z</time></trkpt><trkpt lat="41.465085" lon="13.7684783"><ele>72.0</ele><time>2026-05-02T06:21:45.502Z</time></trkpt><trkpt lat="41.4651417" lon="13.7681917"><ele>72.0</ele><time>2026-05-02T06:21:46.502Z</time></trkpt><trkpt lat="41.4652017" lon="13.767905"><ele>72.5</ele><time>2026-05-02T06:21:47.502Z</time></trkpt><trkpt lat="41.4652667" lon="13.76762"><ele>73.0</ele><time>2026-05-02T06:21:48.502Z</time></trkpt><trkpt lat="41.4653317" lon="13.7673283"><ele>73.0</ele><time>2026-05-02T06:21:49.502Z</time></trkpt><trkpt lat="41.465395" lon="13.7670433"><ele>73.0</ele><time>2026-05-02T06:21:50.502Z</time></trkpt><trkpt lat="41.4654617" lon="13.7667517"><ele>75.0</ele><time>2026-05-02T06:21:51.502Z</time></trkpt><trkpt lat="41.46553" lon="13.766465"><ele>77.0</ele><time>2026-05-02T06:21:52.502Z</time></trkpt><trkpt lat="41.465595" lon="13.7661717"><ele>76.5</ele><time>2026-05-02T06:21:53.502Z</time></trkpt><trkpt lat="41.4656567" lon="13.7658833"><ele>76.0</ele><time>2026-05-02T06:21:54.502Z</time></trkpt><trkpt lat="41.4657233" lon="13.7655883"><ele>76.0</ele><time>2026-05-02T06:21:55.502Z</time></trkpt><trkpt lat="41.4657833" lon="13.7653067"><ele>76.0</ele><time>2026-05-02T06:21:56.502Z</time></trkpt><trkpt lat="41.465845" lon="13.7650267"><ele>76.0</ele><time>2026-05-02T06:21:57.502Z</time></trkpt><trkpt lat="41.4659083" lon="13.7647517"><ele>77.33333333333333</ele><time>2026-05-02T06:21:58.502Z</time></trkpt><trkpt lat="41.4659683" lon="13.7644867"><ele>78.66666666666667</ele><time>2026-05-02T06:21:59.502Z</time></trkpt><trkpt lat="41.466025" lon="13.7642233"><ele>80.0</ele><time>2026-05-02T06:22:00.502Z</time></trkpt><trkpt lat="41.466085" lon="13.7639533"><ele>81.66666666666667</ele><time>2026-05-02T06:22:01.502Z</time></trkpt><trkpt lat="41.46614" lon="13.7636817"><ele>83.33333333333333</ele><time>2026-05-02T06:22:02.502Z</time></trkpt><trkpt lat="41.4661983" lon="13.7634183"><ele>85.0</ele><time>2026-05-02T06:22:03.502Z</time></trkpt><trkpt lat="41.4662517" lon="13.763155"><ele>85.0</ele><time>2026-05-02T06:22:04.502Z</time></trkpt><trkpt lat="41.46631" lon="13.7628833"><ele>85.0</ele><time>2026-05-02T06:22:05.502Z</time></trkpt><trkpt lat="41.4663717" lon="13.7626133"><ele>85.0</ele><time>2026-05-02T06:22:06.502Z</time></trkpt><trkpt lat="41.4664317" lon="13.762345"><ele>85.0</ele><time>2026-05-02T06:22:07.502Z</time></trkpt><trkpt lat="41.4664983" lon="13.7620717"><ele>85.0</ele><time>2026-05-02T06:22:08.503Z</time></trkpt><trkpt lat="41.4665583" lon="13.7617983"><ele>85.0</ele><time>2026-05-02T06:22:09.502Z</time></trkpt><trkpt lat="41.4666233" lon="13.761525"><ele>85.0</ele><time>2026-05-02T06:22:10.502Z</time></trkpt><trkpt lat="41.4666817" lon="13.7612467"><ele>85.0</ele><time>2026-05-02T06:22:11.502Z</time></trkpt><trkpt lat="41.4667417" lon="13.7609717"><ele>85.0</ele><time>2026-05-02T06:22:12.502Z</time></trkpt><trkpt lat="41.4668017" lon="13.7606967"><ele>85.66666666666666</ele><time>2026-05-02T06:22:13.502Z</time></trkpt><trkpt lat="41.46686" lon="13.7604267"><ele>86.33333333333333</ele><time>2026-05-02T06:22:14.502Z</time></trkpt><trkpt lat="41.4669217" lon="13.7601467"><ele>87.0</ele><time>2026-05-02T06:22:15.502Z</time></trkpt><trkpt lat="41.4669833" lon="13.7598667"><ele>87.0</ele><time>2026-05-02T06:22:16.502Z</time></trkpt><trkpt lat="41.4670417" lon="13.7595867"><ele>87.0</ele><time>2026-05-02T06:22:17.502Z</time></trkpt><trkpt lat="41.467105" lon="13.759305"><ele>87.0</ele><time>2026-05-02T06:22:18.502Z</time></trkpt><trkpt lat="41.4671717" lon="13.759025"><ele>86.66666666666667</ele><time>2026-05-02T06:22:19.502Z</time></trkpt><trkpt lat="41.4672333" lon="13.758745"><ele>86.33333333333334</ele><time>2026-05-02T06:22:20.502Z</time></trkpt><trkpt lat="41.467295" lon="13.7584633"><ele>86.0</ele><time>2026-05-02T06:22:21.502Z</time></trkpt><trkpt lat="41.46736" lon="13.7581817"><ele>86.66666666666667</ele><time>2026-05-02T06:22:22.502Z</time></trkpt><trkpt lat="41.467425" lon="13.7579017"><ele>87.33333333333333</ele><time>2026-05-02T06:22:23.502Z</time></trkpt><trkpt lat="41.4674833" lon="13.75762"><ele>88.0</ele><time>2026-05-02T06:22:24.502Z</time></trkpt><trkpt lat="41.467545" lon="13.75734"><ele>88.66666666666666</ele><time>2026-05-02T06:22:25.502Z</time></trkpt><trkpt lat="41.4676117" lon="13.757055"><ele>89.33333333333333</ele><time>2026-05-02T06:22:26.502Z</time></trkpt><trkpt lat="41.4676683" lon="13.7567683"><ele>90.0</ele><time>2026-05-02T06:22:27.502Z</time></trkpt><trkpt lat="41.4677317" lon="13.756485"><ele>90.0</ele><time>2026-05-02T06:22:28.502Z</time></trkpt><trkpt lat="41.4677917" lon="13.7562017"><ele>90.0</ele><time>2026-05-02T06:22:29.502Z</time></trkpt><trkpt lat="41.467855" lon="13.7559167"><ele>90.0</ele><time>2026-05-02T06:22:30.502Z</time></trkpt><trkpt lat="41.4679183" lon="13.75563"><ele>90.66666666666667</ele><time>2026-05-02T06:22:31.502Z</time></trkpt><trkpt lat="41.4679817" lon="13.7553417"><ele>91.33333333333334</ele><time>2026-05-02T06:22:32.502Z</time></trkpt><trkpt lat="41.46805" lon="13.7550583"><ele>92.0</ele><time>2026-05-02T06:22:33.502Z</time></trkpt><trkpt lat="41.468115" lon="13.7547667"><ele>92.0</ele><time>2026-05-02T06:22:34.502Z</time></trkpt><trkpt lat="41.4681783" lon="13.7544783"><ele>92.0</ele><time>2026-05-02T06:22:35.502Z</time></trkpt><trkpt lat="41.4682467" lon="13.75419"><ele>92.0</ele><time>2026-05-02T06:22:36.502Z</time></trkpt><trkpt lat="41.4683117" lon="13.7539017"><ele>92.0</ele><time>2026-05-02T06:22:37.502Z</time></trkpt><trkpt lat="41.4683733" lon="13.7536117"><ele>92.5</ele><time>2026-05-02T06:22:38.502Z</time></trkpt><trkpt lat="41.4684367" lon="13.7533133"><ele>93.0</ele><time>2026-05-02T06:22:39.503Z</time></trkpt><trkpt lat="41.4685" lon="13.75302"><ele>93.0</ele><time>2026-05-02T06:22:40.502Z</time></trkpt><trkpt lat="41.4685633" lon="13.752725"><ele>93.0</ele><time>2026-05-02T06:22:41.502Z</time></trkpt><trkpt lat="41.4686317" lon="13.75243"><ele>93.0</ele><time>2026-05-02T06:22:42.502Z</time></trkpt><trkpt lat="41.4686917" lon="13.7521367"><ele>93.0</ele><time>2026-05-02T06:22:43.503Z</time></trkpt><trkpt lat="41.4687533" lon="13.7518417"><ele>95.0</ele><time>2026-05-02T06:22:44.502Z</time></trkpt><trkpt lat="41.4688183" lon="13.7515417"><ele>97.0</ele><time>2026-05-02T06:22:45.502Z</time></trkpt><trkpt lat="41.4688833" lon="13.751245"><ele>96.5</ele><time>2026-05-02T06:22:46.502Z</time></trkpt><trkpt lat="41.46895" lon="13.750945"><ele>96.0</ele><time>2026-05-02T06:22:47.502Z</time></trkpt><trkpt lat="41.46901" lon="13.750655"><ele>96.0</ele><time>2026-05-02T06:22:48.502Z</time></trkpt><trkpt lat="41.469075" lon="13.7503683"><ele>96.0</ele><time>2026-05-02T06:22:49.502Z</time></trkpt><trkpt lat="41.4691417" lon="13.7500833"><ele>96.0</ele><time>2026-05-02T06:22:50.502Z</time></trkpt><trkpt lat="41.4692083" lon="13.7498083"><ele>96.0</ele><time>2026-05-02T06:22:51.502Z</time></trkpt><trkpt lat="41.4692733" lon="13.7495367"><ele>96.0</ele><time>2026-05-02T06:22:52.503Z</time></trkpt><trkpt lat="41.4693417" lon="13.7492733"><ele>96.0</ele><time>2026-05-02T06:22:53.502Z</time></trkpt><trkpt lat="41.4694117" lon="13.7490117"><ele>96.0</ele><time>2026-05-02T06:22:54.502Z</time></trkpt><trkpt lat="41.4694867" lon="13.7487483"><ele>96.0</ele><time>2026-05-02T06:22:55.502Z</time></trkpt><trkpt lat="41.46956" lon="13.7484817"><ele>96.0</ele><time>2026-05-02T06:22:56.502Z</time></trkpt><trkpt lat="41.4696383" lon="13.7482233"><ele>96.33333333333334</ele><time>2026-05-02T06:22:57.502Z</time></trkpt><trkpt lat="41.469715" lon="13.7479583"><ele>96.66666666666667</ele><time>2026-05-02T06:22:58.502Z</time></trkpt><trkpt lat="41.469795" lon="13.747685"><ele>97.0</ele><time>2026-05-02T06:22:59.503Z</time></trkpt><trkpt lat="41.46989" lon="13.7474183"><ele>97.33333333333334</ele><time>2026-05-02T06:23:00.502Z</time></trkpt><trkpt lat="41.469985" lon="13.7471483"><ele>97.66666666666666</ele><time>2026-05-02T06:23:01.502Z</time></trkpt><trkpt lat="41.4700783" lon="13.7468767"><ele>98.0</ele><time>2026-05-02T06:23:02.502Z</time></trkpt><trkpt lat="41.47018" lon="13.7466017"><ele>98.0</ele><time>2026-05-02T06:23:03.502Z</time></trkpt><trkpt lat="41.470285" lon="13.74633"><ele>98.0</ele><time>2026-05-02T06:23:04.502Z</time></trkpt><trkpt lat="41.4703917" lon="13.7460517"><ele>97.5</ele><time>2026-05-02T06:23:05.502Z</time></trkpt><trkpt lat="41.470505" lon="13.7457767"><ele>97.0</ele><time>2026-05-02T06:23:06.502Z</time></trkpt><trkpt lat="41.4706133" lon="13.7455017"><ele>97.0</ele><time>2026-05-02T06:23:07.502Z</time></trkpt><trkpt lat="41.470725" lon="13.745225"><ele>97.0</ele><time>2026-05-02T06:23:08.502Z</time></trkpt><trkpt lat="41.470845" lon="13.7449483"><ele>96.0</ele><time>2026-05-02T06:23:09.502Z</time></trkpt><trkpt lat="41.47096" lon="13.7446717"><ele>95.0</ele><time>2026-05-02T06:23:10.502Z</time></trkpt><trkpt lat="41.4710783" lon="13.7443983"><ele>95.0</ele><time>2026-05-02T06:23:11.502Z</time></trkpt><trkpt lat="41.471195" lon="13.7441317"><ele>95.0</ele><time>2026-05-02T06:23:12.502Z</time></trkpt><trkpt lat="41.47131" lon="13.74386"><ele>95.5</ele><time>2026-05-02T06:23:13.503Z</time></trkpt><trkpt lat="41.4714267" lon="13.7435917"><ele>96.0</ele><time>2026-05-02T06:23:14.502Z</time></trkpt><trkpt lat="41.4715417" lon="13.7433267"><ele>96.5</ele><time>2026-05-02T06:23:15.502Z</time></trkpt><trkpt lat="41.47166" lon="13.7430667"><ele>97.0</ele><time>2026-05-02T06:23:16.502Z</time></trkpt><trkpt lat="41.4717733" lon="13.7428"><ele>97.33333333333334</ele><time>2026-05-02T06:23:17.502Z</time></trkpt><trkpt lat="41.4718817" lon="13.7425367"><ele>97.66666666666666</ele><time>2026-05-02T06:23:18.503Z</time></trkpt><trkpt lat="41.471995" lon="13.7422833"><ele>98.0</ele><time>2026-05-02T06:23:19.502Z</time></trkpt><trkpt lat="41.472105" lon="13.7420283"><ele>97.66666666666666</ele><time>2026-05-02T06:23:20.502Z</time></trkpt><trkpt lat="41.4722133" lon="13.7417817"><ele>97.33333333333334</ele><time>2026-05-02T06:23:21.502Z</time></trkpt><trkpt lat="41.4723183" lon="13.74153"><ele>97.0</ele><time>2026-05-02T06:23:22.502Z</time></trkpt><trkpt lat="41.4724233" lon="13.7412817"><ele>96.33333333333334</ele><time>2026-05-02T06:23:23.502Z</time></trkpt><trkpt lat="41.4725283" lon="13.7410333"><ele>95.66666666666667</ele><time>2026-05-02T06:23:24.502Z</time></trkpt><trkpt lat="41.4726333" lon="13.7407833"><ele>95.0</ele><time>2026-05-02T06:23:25.502Z</time></trkpt><trkpt lat="41.4727417" lon="13.7405383"><ele>95.0</ele><time>2026-05-02T06:23:26.502Z</time></trkpt><trkpt lat="41.4728433" lon="13.7403"><ele>95.0</ele><time>2026-05-02T06:23:27.502Z</time></trkpt><trkpt lat="41.4729417" lon="13.7400683"><ele>95.0</ele><time>2026-05-02T06:23:28.503Z</time></trkpt><trkpt lat="41.4730417" lon="13.739845"><ele>96.0</ele><time>2026-05-02T06:23:29.502Z</time></trkpt><trkpt lat="41.4731417" lon="13.739615"><ele>97.0</ele><time>2026-05-02T06:23:30.502Z</time></trkpt><trkpt lat="41.4732383" lon="13.739395"><ele>98.0</ele><time>2026-05-02T06:23:31.502Z</time></trkpt><trkpt lat="41.4733367" lon="13.7391683"><ele>98.0</ele><time>2026-05-02T06:23:32.502Z</time></trkpt><trkpt lat="41.4734367" lon="13.7389433"><ele>98.0</ele><time>2026-05-02T06:23:33.502Z</time></trkpt><trkpt lat="41.4735333" lon="13.7387133"><ele>98.0</ele><time>2026-05-02T06:23:34.502Z</time></trkpt><trkpt lat="41.47363" lon="13.738485"><ele>98.66666666666666</ele><time>2026-05-02T06:23:35.502Z</time></trkpt><trkpt lat="41.473725" lon="13.7382517"><ele>99.33333333333334</ele><time>2026-05-02T06:23:36.502Z</time></trkpt><trkpt lat="41.4738333" lon="13.738025"><ele>100.0</ele><time>2026-05-02T06:23:37.502Z</time></trkpt><trkpt lat="41.4739383" lon="13.7377883"><ele>100.0</ele><time>2026-05-02T06:23:38.502Z</time></trkpt><trkpt lat="41.474045" lon="13.737545"><ele>100.0</ele><time>2026-05-02T06:23:39.502Z</time></trkpt><trkpt lat="41.4741467" lon="13.7373"><ele>100.0</ele><time>2026-05-02T06:23:40.502Z</time></trkpt><trkpt lat="41.4742517" lon="13.73705"><ele>100.33333333333334</ele><time>2026-05-02T06:23:41.502Z</time></trkpt><trkpt lat="41.4743583" lon="13.7367967"><ele>100.66666666666666</ele><time>2026-05-02T06:23:42.502Z</time></trkpt><trkpt lat="41.474465" lon="13.73654"><ele>101.0</ele><time>2026-05-02T06:23:43.502Z</time></trkpt><trkpt lat="41.4745767" lon="13.7362883"><ele>101.0</ele><time>2026-05-02T06:23:44.502Z</time></trkpt><trkpt lat="41.4746917" lon="13.7360367"><ele>101.0</ele><time>2026-05-02T06:23:45.502Z</time></trkpt><trkpt lat="41.474805" lon="13.735775"><ele>101.0</ele><time>2026-05-02T06:23:46.502Z</time></trkpt><trkpt lat="41.4749183" lon="13.7355117"><ele>101.0</ele><time>2026-05-02T06:23:47.502Z</time></trkpt><trkpt lat="41.4750333" lon="13.7352483"><ele>101.0</ele><time>2026-05-02T06:23:48.502Z</time></trkpt><trkpt lat="41.4751467" lon="13.7349783"><ele>101.0</ele><time>2026-05-02T06:23:49.502Z</time></trkpt><trkpt lat="41.4752567" lon="13.7347133"><ele>101.0</ele><time>2026-05-02T06:23:50.502Z</time></trkpt><trkpt lat="41.47537" lon="13.7344583"><ele>101.0</ele><time>2026-05-02T06:23:51.502Z</time></trkpt><trkpt lat="41.475475" lon="13.7342067"><ele>101.0</ele><time>2026-05-02T06:23:52.502Z</time></trkpt><trkpt lat="41.475585" lon="13.73396"><ele>101.0</ele><time>2026-05-02T06:23:53.502Z</time></trkpt><trkpt lat="41.47569" lon="13.7337233"><ele>101.0</ele><time>2026-05-02T06:23:54.502Z</time></trkpt><trkpt lat="41.475785" lon="13.7334833"><ele>101.66666666666666</ele><time>2026-05-02T06:23:55.502Z</time></trkpt><trkpt lat="41.475885" lon="13.73325"><ele>102.33333333333334</ele><time>2026-05-02T06:23:56.502Z</time></trkpt><trkpt lat="41.4759817" lon="13.7330183"><ele>103.0</ele><time>2026-05-02T06:23:57.502Z</time></trkpt><trkpt lat="41.4760833" lon="13.7327867"><ele>103.0</ele><time>2026-05-02T06:23:58.502Z</time></trkpt><trkpt lat="41.4761783" lon="13.7325517"><ele>103.0</ele><time>2026-05-02T06:23:59.502Z</time></trkpt><trkpt lat="41.476275" lon="13.732325"><ele>103.0</ele><time>2026-05-02T06:24:00.502Z</time></trkpt><trkpt lat="41.4763717" lon="13.7320917"><ele>102.66666666666667</ele><time>2026-05-02T06:24:01.502Z</time></trkpt><trkpt lat="41.476475" lon="13.7318583"><ele>102.33333333333334</ele><time>2026-05-02T06:24:02.503Z</time></trkpt><trkpt lat="41.4765767" lon="13.7316267"><ele>102.0</ele><time>2026-05-02T06:24:03.502Z</time></trkpt><trkpt lat="41.4766783" lon="13.7313917"><ele>102.0</ele><time>2026-05-02T06:24:04.502Z</time></trkpt><trkpt lat="41.4767817" lon="13.731165"><ele>102.0</ele><time>2026-05-02T06:24:05.502Z</time></trkpt><trkpt lat="41.4768817" lon="13.7309433"><ele>102.0</ele><time>2026-05-02T06:24:06.501Z</time></trkpt><trkpt lat="41.4769817" lon="13.7307"><ele>102.0</ele><time>2026-05-02T06:24:07.502Z</time></trkpt><trkpt lat="41.477085" lon="13.730465"><ele>102.0</ele><time>2026-05-02T06:24:08.502Z</time></trkpt><trkpt lat="41.4771833" lon="13.73023"><ele>102.0</ele><time>2026-05-02T06:24:09.502Z</time></trkpt><trkpt lat="41.477285" lon="13.729995"><ele>101.66666666666666</ele><time>2026-05-02T06:24:10.502Z</time></trkpt><trkpt lat="41.47739" lon="13.72976"><ele>101.33333333333333</ele><time>2026-05-02T06:24:11.502Z</time></trkpt><trkpt lat="41.4774917" lon="13.729525"><ele>101.0</ele><time>2026-05-02T06:24:12.502Z</time></trkpt><trkpt lat="41.4776017" lon="13.7292817"><ele>101.0</ele><time>2026-05-02T06:24:13.502Z</time></trkpt><trkpt lat="41.477705" lon="13.7290317"><ele>101.0</ele><time>2026-05-02T06:24:14.502Z</time></trkpt><trkpt lat="41.4778117" lon="13.7287867"><ele>101.0</ele><time>2026-05-02T06:24:15.502Z</time></trkpt><trkpt lat="41.4779233" lon="13.7285383"><ele>101.66666666666666</ele><time>2026-05-02T06:24:16.502Z</time></trkpt><trkpt lat="41.4780333" lon="13.728285"><ele>102.33333333333334</ele><time>2026-05-02T06:24:17.502Z</time></trkpt><trkpt lat="41.4781417" lon="13.72804"><ele>103.0</ele><time>2026-05-02T06:24:18.502Z</time></trkpt><trkpt lat="41.4782433" lon="13.72779"><ele>102.66666666666667</ele><time>2026-05-02T06:24:19.502Z</time></trkpt><trkpt lat="41.478345" lon="13.7275467"><ele>102.33333333333334</ele><time>2026-05-02T06:24:20.502Z</time></trkpt><trkpt lat="41.4784517" lon="13.7272983"><ele>102.0</ele><time>2026-05-02T06:24:21.502Z</time></trkpt><trkpt lat="41.4785583" lon="13.7270567"><ele>102.33333333333334</ele><time>2026-05-02T06:24:22.502Z</time></trkpt><trkpt lat="41.478665" lon="13.7268167"><ele>102.66666666666667</ele><time>2026-05-02T06:24:23.502Z</time></trkpt><trkpt lat="41.47877" lon="13.7265733"><ele>103.0</ele><time>2026-05-02T06:24:24.502Z</time></trkpt><trkpt lat="41.478875" lon="13.7263317"><ele>103.0</ele><time>2026-05-02T06:24:25.502Z</time></trkpt><trkpt lat="41.47898" lon="13.7260867"><ele>103.0</ele><time>2026-05-02T06:24:26.502Z</time></trkpt><trkpt lat="41.4790817" lon="13.7258383"><ele>103.0</ele><time>2026-05-02T06:24:27.502Z</time></trkpt><trkpt lat="41.4791833" lon="13.72559"><ele>103.0</ele><time>2026-05-02T06:24:28.502Z</time></trkpt><trkpt lat="41.4792933" lon="13.7253333"><ele>103.0</ele><time>2026-05-02T06:24:29.503Z</time></trkpt><trkpt lat="41.4794017" lon="13.7250883"><ele>103.0</ele><time>2026-05-02T06:24:30.502Z</time></trkpt><trkpt lat="41.4795133" lon="13.72484"><ele>103.0</ele><time>2026-05-02T06:24:31.502Z</time></trkpt><trkpt lat="41.4796167" lon="13.724585"><ele>103.0</ele><time>2026-05-02T06:24:32.502Z</time></trkpt><trkpt lat="41.4797267" lon="13.7243317"><ele>103.0</ele><time>2026-05-02T06:24:33.502Z</time></trkpt><trkpt lat="41.4798333" lon="13.7240817"><ele>103.0</ele><time>2026-05-02T06:24:34.502Z</time></trkpt><trkpt lat="41.479945" lon="13.7238267"><ele>103.0</ele><time>2026-05-02T06:24:35.502Z</time></trkpt><trkpt lat="41.480055" lon="13.7235717"><ele>103.0</ele><time>2026-05-02T06:24:36.502Z</time></trkpt><trkpt lat="41.4801683" lon="13.723315"><ele>103.0</ele><time>2026-05-02T06:24:37.503Z</time></trkpt><trkpt lat="41.4802817" lon="13.7230617"><ele>103.0</ele><time>2026-05-02T06:24:38.502Z</time></trkpt><trkpt lat="41.4803867" lon="13.7228083"><ele>103.0</ele><time>2026-05-02T06:24:39.502Z</time></trkpt><trkpt lat="41.4804983" lon="13.72255"><ele>104.0</ele><time>2026-05-02T06:24:40.503Z</time></trkpt><trkpt lat="41.4806083" lon="13.7222983"><ele>105.0</ele><time>2026-05-02T06:24:41.503Z</time></trkpt><trkpt lat="41.4807167" lon="13.7220483"><ele>106.0</ele><time>2026-05-02T06:24:42.503Z</time></trkpt><trkpt lat="41.4808233" lon="13.7217983"><ele>106.0</ele><time>2026-05-02T06:24:43.503Z</time></trkpt><trkpt lat="41.4809333" lon="13.721545"><ele>106.0</ele><time>2026-05-02T06:24:44.503Z</time></trkpt><trkpt lat="41.481045" lon="13.72129"><ele>106.0</ele><time>2026-05-02T06:24:45.504Z</time></trkpt><trkpt lat="41.4811517" lon="13.7210333"><ele>105.66666666666667</ele><time>2026-05-02T06:24:46.503Z</time></trkpt><trkpt lat="41.4812583" lon="13.7207817"><ele>105.33333333333334</ele><time>2026-05-02T06:24:47.503Z</time></trkpt><trkpt lat="41.4813667" lon="13.72052"><ele>105.0</ele><time>2026-05-02T06:24:48.503Z</time></trkpt><trkpt lat="41.4814767" lon="13.7202683"><ele>104.66666666666666</ele><time>2026-05-02T06:24:49.503Z</time></trkpt><trkpt lat="41.4815883" lon="13.7200133"><ele>104.33333333333333</ele><time>2026-05-02T06:24:50.503Z</time></trkpt><trkpt lat="41.4816967" lon="13.7197583"><ele>104.0</ele><time>2026-05-02T06:24:51.503Z</time></trkpt><trkpt lat="41.481805" lon="13.7195033"><ele>104.33333333333333</ele><time>2026-05-02T06:24:52.503Z</time></trkpt><trkpt lat="41.4819133" lon="13.71925"><ele>104.66666666666666</ele><time>2026-05-02T06:24:53.503Z</time></trkpt><trkpt lat="41.4820217" lon="13.7189883"><ele>105.0</ele><time>2026-05-02T06:24:54.503Z</time></trkpt><trkpt lat="41.4821317" lon="13.718735"><ele>105.0</ele><time>2026-05-02T06:24:55.503Z</time></trkpt><trkpt lat="41.48224" lon="13.71848"><ele>105.0</ele><time>2026-05-02T06:24:56.503Z</time></trkpt><trkpt lat="41.48235" lon="13.718225"><ele>105.0</ele><time>2026-05-02T06:24:57.503Z</time></trkpt><trkpt lat="41.4824583" lon="13.7179683"><ele>104.66666666666666</ele><time>2026-05-02T06:24:58.503Z</time></trkpt><trkpt lat="41.4825667" lon="13.7177183"><ele>104.33333333333333</ele><time>2026-05-02T06:24:59.503Z</time></trkpt><trkpt lat="41.482675" lon="13.7174617"><ele>104.0</ele><time>2026-05-02T06:25:00.503Z</time></trkpt><trkpt lat="41.4827867" lon="13.7172033"><ele>104.0</ele><time>2026-05-02T06:25:01.503Z</time></trkpt><trkpt lat="41.4828917" lon="13.716945"><ele>104.0</ele><time>2026-05-02T06:25:02.503Z</time></trkpt><trkpt lat="41.483005" lon="13.7166917"><ele>104.0</ele><time>2026-05-02T06:25:03.503Z</time></trkpt><trkpt lat="41.483115" lon="13.7164333"><ele>105.0</ele><time>2026-05-02T06:25:04.503Z</time></trkpt><trkpt lat="41.4832233" lon="13.7161767"><ele>106.0</ele><time>2026-05-02T06:25:05.503Z</time></trkpt><trkpt lat="41.4833317" lon="13.71592"><ele>107.0</ele><time>2026-05-02T06:25:06.504Z</time></trkpt><trkpt lat="41.4834433" lon="13.715665"><ele>107.0</ele><time>2026-05-02T06:25:07.503Z</time></trkpt><trkpt lat="41.4835583" lon="13.7154117"><ele>107.0</ele><time>2026-05-02T06:25:08.503Z</time></trkpt><trkpt lat="41.48367" lon="13.7151467"><ele>108.0</ele><time>2026-05-02T06:25:09.503Z</time></trkpt><trkpt lat="41.4837817" lon="13.7148867"><ele>109.0</ele><time>2026-05-02T06:25:10.503Z</time></trkpt><trkpt lat="41.4838883" lon="13.7146217"><ele>109.0</ele><time>2026-05-02T06:25:11.503Z</time></trkpt><trkpt lat="41.4840083" lon="13.7143667"><ele>109.0</ele><time>2026-05-02T06:25:12.503Z</time></trkpt><trkpt lat="41.4841217" lon="13.7141017"><ele>109.0</ele><time>2026-05-02T06:25:13.503Z</time></trkpt><trkpt lat="41.4842333" lon="13.713845"><ele>109.0</ele><time>2026-05-02T06:25:14.503Z</time></trkpt><trkpt lat="41.4843433" lon="13.713585"><ele>109.0</ele><time>2026-05-02T06:25:15.503Z</time></trkpt><trkpt lat="41.4844483" lon="13.7133283"><ele>109.0</ele><time>2026-05-02T06:25:16.503Z</time></trkpt><trkpt lat="41.4845617" lon="13.71307"><ele>109.0</ele><time>2026-05-02T06:25:17.503Z</time></trkpt><trkpt lat="41.4846733" lon="13.71282"><ele>109.0</ele><time>2026-05-02T06:25:18.503Z</time></trkpt><trkpt lat="41.4847817" lon="13.71257"><ele>109.33333333333334</ele><time>2026-05-02T06:25:19.503Z</time></trkpt><trkpt lat="41.484895" lon="13.71232"><ele>109.66666666666666</ele><time>2026-05-02T06:25:20.503Z</time></trkpt><trkpt lat="41.4850117" lon="13.7120633"><ele>110.0</ele><time>2026-05-02T06:25:21.503Z</time></trkpt><trkpt lat="41.4851183" lon="13.711805"><ele>109.66666666666666</ele><time>2026-05-02T06:25:22.503Z</time></trkpt><trkpt lat="41.4852233" lon="13.7115467"><ele>109.33333333333334</ele><time>2026-05-02T06:25:23.503Z</time></trkpt><trkpt lat="41.485335" lon="13.71129"><ele>109.0</ele><time>2026-05-02T06:25:24.503Z</time></trkpt><trkpt lat="41.4854467" lon="13.7110333"><ele>109.0</ele><time>2026-05-02T06:25:25.503Z</time></trkpt><trkpt lat="41.4855567" lon="13.71078"><ele>109.0</ele><time>2026-05-02T06:25:26.503Z</time></trkpt><trkpt lat="41.4856667" lon="13.7105133"><ele>109.0</ele><time>2026-05-02T06:25:27.503Z</time></trkpt><trkpt lat="41.48578" lon="13.7102567"><ele>109.0</ele><time>2026-05-02T06:25:28.503Z</time></trkpt><trkpt lat="41.48589" lon="13.7099967"><ele>109.0</ele><time>2026-05-02T06:25:29.503Z</time></trkpt><trkpt lat="41.4859983" lon="13.7097433"><ele>109.0</ele><time>2026-05-02T06:25:30.503Z</time></trkpt><trkpt lat="41.4861067" lon="13.7095067"><ele>108.66666666666667</ele><time>2026-05-02T06:25:31.504Z</time></trkpt><trkpt lat="41.4862083" lon="13.70927"><ele>108.33333333333334</ele><time>2026-05-02T06:25:32.503Z</time></trkpt><trkpt lat="41.48631" lon="13.709035"><ele>108.0</ele><time>2026-05-02T06:25:33.503Z</time></trkpt><trkpt lat="41.486405" lon="13.708795"><ele>108.66666666666666</ele><time>2026-05-02T06:25:34.503Z</time></trkpt><trkpt lat="41.48651" lon="13.708565"><ele>109.33333333333333</ele><time>2026-05-02T06:25:35.503Z</time></trkpt><trkpt lat="41.48661" lon="13.7083283"><ele>110.0</ele><time>2026-05-02T06:25:36.503Z</time></trkpt><trkpt lat="41.4867133" lon="13.70809"><ele>110.0</ele><time>2026-05-02T06:25:37.503Z</time></trkpt><trkpt lat="41.4868133" lon="13.7078483"><ele>110.0</ele><time>2026-05-02T06:25:38.503Z</time></trkpt><trkpt lat="41.486915" lon="13.7076083"><ele>110.0</ele><time>2026-05-02T06:25:39.503Z</time></trkpt><trkpt lat="41.48702" lon="13.7073667"><ele>109.33333333333333</ele><time>2026-05-02T06:25:40.503Z</time></trkpt><trkpt lat="41.48712" lon="13.70712"><ele>108.66666666666666</ele><time>2026-05-02T06:25:41.503Z</time></trkpt><trkpt lat="41.4872217" lon="13.706875"><ele>108.0</ele><time>2026-05-02T06:25:42.503Z</time></trkpt><trkpt lat="41.4873267" lon="13.7066367"><ele>107.66666666666666</ele><time>2026-05-02T06:25:43.503Z</time></trkpt><trkpt lat="41.4874283" lon="13.7064017"><ele>107.33333333333333</ele><time>2026-05-02T06:25:44.503Z</time></trkpt><trkpt lat="41.4875317" lon="13.7061667"><ele>107.0</ele><time>2026-05-02T06:25:45.503Z</time></trkpt><trkpt lat="41.4876317" lon="13.70593"><ele>107.0</ele><time>2026-05-02T06:25:46.503Z</time></trkpt><trkpt lat="41.487735" lon="13.7056883"><ele>107.0</ele><time>2026-05-02T06:25:47.503Z</time></trkpt><trkpt lat="41.4878417" lon="13.7054433"><ele>107.0</ele><time>2026-05-02T06:25:48.503Z</time></trkpt><trkpt lat="41.4879333" lon="13.7052083"><ele>107.0</ele><time>2026-05-02T06:25:49.503Z</time></trkpt><trkpt lat="41.4880317" lon="13.7049717"><ele>107.0</ele><time>2026-05-02T06:25:50.503Z</time></trkpt><trkpt lat="41.4881283" lon="13.7047333"><ele>107.0</ele><time>2026-05-02T06:25:51.504Z</time></trkpt><trkpt lat="41.488225" lon="13.7044967"><ele>106.66666666666666</ele><time>2026-05-02T06:25:52.503Z</time></trkpt><trkpt lat="41.488325" lon="13.7042717"><ele>106.33333333333334</ele><time>2026-05-02T06:25:53.503Z</time></trkpt><trkpt lat="41.48843" lon="13.7040417"><ele>106.0</ele><time>2026-05-02T06:25:54.503Z</time></trkpt><trkpt lat="41.488535" lon="13.7038117"><ele>106.33333333333334</ele><time>2026-05-02T06:25:55.503Z</time></trkpt><trkpt lat="41.4886333" lon="13.7035783"><ele>106.66666666666666</ele><time>2026-05-02T06:25:56.503Z</time></trkpt><trkpt lat="41.4887383" lon="13.7033517"><ele>107.0</ele><time>2026-05-02T06:25:57.503Z</time></trkpt><trkpt lat="41.4888317" lon="13.7031267"><ele>107.33333333333333</ele><time>2026-05-02T06:25:58.503Z</time></trkpt><trkpt lat="41.4889267" lon="13.7029083"><ele>107.66666666666666</ele><time>2026-05-02T06:25:59.503Z</time></trkpt><trkpt lat="41.4890217" lon="13.7026933"><ele>108.0</ele><time>2026-05-02T06:26:00.503Z</time></trkpt><trkpt lat="41.4891167" lon="13.70247"><ele>107.0</ele><time>2026-05-02T06:26:01.503Z</time></trkpt><trkpt lat="41.4892133" lon="13.702245"><ele>106.0</ele><time>2026-05-02T06:26:02.503Z</time></trkpt><trkpt lat="41.489315" lon="13.7020167"><ele>105.0</ele><time>2026-05-02T06:26:03.503Z</time></trkpt><trkpt lat="41.48941" lon="13.70179"><ele>105.0</ele><time>2026-05-02T06:26:04.503Z</time></trkpt><trkpt lat="41.489495" lon="13.7015717"><ele>105.0</ele><time>2026-05-02T06:26:05.503Z</time></trkpt><trkpt lat="41.4895933" lon="13.7013517"><ele>105.0</ele><time>2026-05-02T06:26:06.503Z</time></trkpt><trkpt lat="41.48969" lon="13.7011333"><ele>104.33333333333334</ele><time>2026-05-02T06:26:07.503Z</time></trkpt><trkpt lat="41.4897867" lon="13.7009117"><ele>103.66666666666667</ele><time>2026-05-02T06:26:08.503Z</time></trkpt><trkpt lat="41.489885" lon="13.7006817"><ele>103.0</ele><time>2026-05-02T06:26:09.503Z</time></trkpt><trkpt lat="41.4899833" lon="13.7004517"><ele>103.66666666666667</ele><time>2026-05-02T06:26:10.503Z</time></trkpt><trkpt lat="41.490075" lon="13.7002283"><ele>104.33333333333334</ele><time>2026-05-02T06:26:11.503Z</time></trkpt><trkpt lat="41.49017" lon="13.7000083"><ele>105.0</ele><time>2026-05-02T06:26:12.503Z</time></trkpt><trkpt lat="41.49026" lon="13.69979"><ele>105.0</ele><time>2026-05-02T06:26:13.503Z</time></trkpt><trkpt lat="41.4903533" lon="13.69957"><ele>105.0</ele><time>2026-05-02T06:26:14.503Z</time></trkpt><trkpt lat="41.4904467" lon="13.699325"><ele>105.0</ele><time>2026-05-02T06:26:15.503Z</time></trkpt><trkpt lat="41.4905283" lon="13.6990717"><ele>102.66666666666666</ele><time>2026-05-02T06:26:16.503Z</time></trkpt><trkpt lat="41.4906767" lon="13.69889"><ele>100.33333333333333</ele><time>2026-05-02T06:26:17.503Z</time></trkpt><trkpt lat="41.4907517" lon="13.6986667"><ele>98.0</ele><time>2026-05-02T06:26:18.503Z</time></trkpt><trkpt lat="41.4908483" lon="13.6984667"><ele>95.33333333333333</ele><time>2026-05-02T06:26:19.504Z</time></trkpt><trkpt lat="41.4909433" lon="13.6982433"><ele>92.66666666666666</ele><time>2026-05-02T06:26:20.503Z</time></trkpt><trkpt lat="41.4910433" lon="13.69802"><ele>90.0</ele><time>2026-05-02T06:26:21.504Z</time></trkpt><trkpt lat="41.4911317" lon="13.6977933"><ele>89.66666666666667</ele><time>2026-05-02T06:26:22.503Z</time></trkpt><trkpt lat="41.491225" lon="13.6975683"><ele>89.33333333333334</ele><time>2026-05-02T06:26:23.503Z</time></trkpt><trkpt lat="41.491315" lon="13.6973483"><ele>89.0</ele><time>2026-05-02T06:26:24.503Z</time></trkpt><trkpt lat="41.4914017" lon="13.697135"><ele>92.0</ele><time>2026-05-02T06:26:25.503Z</time></trkpt><trkpt lat="41.49149" lon="13.6969167"><ele>95.0</ele><time>2026-05-02T06:26:26.503Z</time></trkpt><trkpt lat="41.4915817" lon="13.69671"><ele>98.0</ele><time>2026-05-02T06:26:27.503Z</time></trkpt><trkpt lat="41.4916767" lon="13.6965033"><ele>98.0</ele><time>2026-05-02T06:26:28.503Z</time></trkpt><trkpt lat="41.4917683" lon="13.6962917"><ele>98.0</ele><time>2026-05-02T06:26:29.503Z</time></trkpt><trkpt lat="41.4918567" lon="13.6960783"><ele>98.0</ele><time>2026-05-02T06:26:30.503Z</time></trkpt><trkpt lat="41.4919517" lon="13.6958683"><ele>98.66666666666666</ele><time>2026-05-02T06:26:31.503Z</time></trkpt><trkpt lat="41.49204" lon="13.695655"><ele>99.33333333333334</ele><time>2026-05-02T06:26:32.504Z</time></trkpt><trkpt lat="41.4921417" lon="13.69544"><ele>100.0</ele><time>2026-05-02T06:26:33.503Z</time></trkpt><trkpt lat="41.4922367" lon="13.6952183"><ele>100.0</ele><time>2026-05-02T06:26:34.504Z</time></trkpt><trkpt lat="41.4923283" lon="13.6949917"><ele>100.0</ele><time>2026-05-02T06:26:35.503Z</time></trkpt><trkpt lat="41.49243" lon="13.6947683"><ele>100.0</ele><time>2026-05-02T06:26:36.504Z</time></trkpt><trkpt lat="41.4925317" lon="13.6945433"><ele>100.33333333333334</ele><time>2026-05-02T06:26:37.503Z</time></trkpt><trkpt lat="41.4926267" lon="13.6943167"><ele>100.66666666666666</ele><time>2026-05-02T06:26:38.504Z</time></trkpt><trkpt lat="41.4927217" lon="13.6940817"><ele>101.0</ele><time>2026-05-02T06:26:39.503Z</time></trkpt><trkpt lat="41.4928217" lon="13.69385"><ele>102.66666666666666</ele><time>2026-05-02T06:26:40.503Z</time></trkpt><trkpt lat="41.4929233" lon="13.6936133"><ele>104.33333333333334</ele><time>2026-05-02T06:26:41.503Z</time></trkpt><trkpt lat="41.4930267" lon="13.6933683"><ele>106.0</ele><time>2026-05-02T06:26:42.503Z</time></trkpt><trkpt lat="41.4931283" lon="13.69313"><ele>106.66666666666667</ele><time>2026-05-02T06:26:43.503Z</time></trkpt><trkpt lat="41.493235" lon="13.6928883"><ele>107.33333333333334</ele><time>2026-05-02T06:26:44.503Z</time></trkpt><trkpt lat="41.4933367" lon="13.6926467"><ele>108.0</ele><time>2026-05-02T06:26:45.503Z</time></trkpt><trkpt lat="41.4934467" lon="13.6924083"><ele>108.0</ele><time>2026-05-02T06:26:46.503Z</time></trkpt><trkpt lat="41.4935433" lon="13.6921633"><ele>108.0</ele><time>2026-05-02T06:26:47.503Z</time></trkpt><trkpt lat="41.493645" lon="13.691925"><ele>108.0</ele><time>2026-05-02T06:26:48.503Z</time></trkpt><trkpt lat="41.493745" lon="13.6916983"><ele>108.33333333333334</ele><time>2026-05-02T06:26:49.503Z</time></trkpt><trkpt lat="41.4938467" lon="13.6914717"><ele>108.66666666666667</ele><time>2026-05-02T06:26:50.503Z</time></trkpt><trkpt lat="41.4939433" lon="13.6912367"><ele>109.0</ele><time>2026-05-02T06:26:51.503Z</time></trkpt><trkpt lat="41.4940417" lon="13.691005"><ele>109.0</ele><time>2026-05-02T06:26:52.503Z</time></trkpt><trkpt lat="41.4941417" lon="13.6907767"><ele>109.0</ele><time>2026-05-02T06:26:53.503Z</time></trkpt><trkpt lat="41.4942383" lon="13.6905417"><ele>109.0</ele><time>2026-05-02T06:26:54.503Z</time></trkpt><trkpt lat="41.49434" lon="13.6903083"><ele>109.66666666666667</ele><time>2026-05-02T06:26:55.503Z</time></trkpt><trkpt lat="41.49444" lon="13.6900733"><ele>110.33333333333334</ele><time>2026-05-02T06:26:56.503Z</time></trkpt><trkpt lat="41.4945367" lon="13.6898417"><ele>111.0</ele><time>2026-05-02T06:26:57.503Z</time></trkpt><trkpt lat="41.4946317" lon="13.6896167"><ele>111.33333333333334</ele><time>2026-05-02T06:26:58.503Z</time></trkpt><trkpt lat="41.4947217" lon="13.6894"><ele>111.66666666666667</ele><time>2026-05-02T06:26:59.503Z</time></trkpt><trkpt lat="41.4948067" lon="13.6891983"><ele>112.0</ele><time>2026-05-02T06:27:00.503Z</time></trkpt><trkpt lat="41.4948883" lon="13.6890067"><ele>112.0</ele><time>2026-05-02T06:27:01.503Z</time></trkpt><trkpt lat="41.4949683" lon="13.6888233"><ele>112.0</ele><time>2026-05-02T06:27:02.503Z</time></trkpt><trkpt lat="41.4950467" lon="13.688635"><ele>112.0</ele><time>2026-05-02T06:27:03.503Z</time></trkpt><trkpt lat="41.4951267" lon="13.6884567"><ele>112.25</ele><time>2026-05-02T06:27:04.503Z</time></trkpt><trkpt lat="41.4952" lon="13.688285"><ele>112.5</ele><time>2026-05-02T06:27:05.503Z</time></trkpt><trkpt lat="41.49527" lon="13.68812"><ele>112.75</ele><time>2026-05-02T06:27:06.503Z</time></trkpt><trkpt lat="41.495335" lon="13.687965"><ele>113.0</ele><time>2026-05-02T06:27:07.503Z</time></trkpt><trkpt lat="41.4954017" lon="13.6878183"><ele>113.2</ele><time>2026-05-02T06:27:08.503Z</time></trkpt><trkpt lat="41.495465" lon="13.687675"><ele>113.4</ele><time>2026-05-02T06:27:09.503Z</time></trkpt><trkpt lat="41.4955233" lon="13.6875417"><ele>113.60000000000001</ele><time>2026-05-02T06:27:10.504Z</time></trkpt><trkpt lat="41.4955833" lon="13.6874217"><ele>113.80000000000001</ele><time>2026-05-02T06:27:11.503Z</time></trkpt><trkpt lat="41.4956367" lon="13.6873083"><ele>114.0</ele><time>2026-05-02T06:27:12.503Z</time></trkpt><trkpt lat="41.4956833" lon="13.6871867"><ele>114.0</ele><time>2026-05-02T06:27:13.503Z</time></trkpt><trkpt lat="41.4957367" lon="13.6870683"><ele>114.0</ele><time>2026-05-02T06:27:14.503Z</time></trkpt><trkpt lat="41.4957883" lon="13.6869467"><ele>114.0</ele><time>2026-05-02T06:27:15.503Z</time></trkpt><trkpt lat="41.495845" lon="13.6868233"><ele>114.0</ele><time>2026-05-02T06:27:16.504Z</time></trkpt><trkpt lat="41.4958933" lon="13.6867067"><ele>114.0</ele><time>2026-05-02T06:27:17.503Z</time></trkpt><trkpt lat="41.49595" lon="13.68659"><ele>114.0</ele><time>2026-05-02T06:27:18.503Z</time></trkpt><trkpt lat="41.496005" lon="13.68647"><ele>114.0</ele><time>2026-05-02T06:27:19.503Z</time></trkpt><trkpt lat="41.49606" lon="13.686355"><ele>114.0</ele><time>2026-05-02T06:27:20.503Z</time></trkpt><trkpt lat="41.4961083" lon="13.6862317"><ele>114.0</ele><time>2026-05-02T06:27:21.504Z</time></trkpt><trkpt lat="41.496155" lon="13.686115"><ele>114.0</ele><time>2026-05-02T06:27:22.503Z</time></trkpt><trkpt lat="41.4962083" lon="13.6859933"><ele>114.4</ele><time>2026-05-02T06:27:23.503Z</time></trkpt><trkpt lat="41.4962583" lon="13.685875"><ele>114.80000000000001</ele><time>2026-05-02T06:27:24.504Z</time></trkpt><trkpt lat="41.4963067" lon="13.6857567"><ele>115.19999999999999</ele><time>2026-05-02T06:27:25.503Z</time></trkpt><trkpt lat="41.4963583" lon="13.6856367"><ele>115.6</ele><time>2026-05-02T06:27:26.503Z</time></trkpt><trkpt lat="41.4964117" lon="13.685515"><ele>116.0</ele><time>2026-05-02T06:27:27.503Z</time></trkpt><trkpt lat="41.49647" lon="13.6853917"><ele>116.0</ele><time>2026-05-02T06:27:28.503Z</time></trkpt><trkpt lat="41.4965267" lon="13.6852733"><ele>116.0</ele><time>2026-05-02T06:27:29.503Z</time></trkpt><trkpt lat="41.4965817" lon="13.68516"><ele>116.0</ele><time>2026-05-02T06:27:30.503Z</time></trkpt><trkpt lat="41.4966433" lon="13.6850467"><ele>116.0</ele><time>2026-05-02T06:27:31.503Z</time></trkpt><trkpt lat="41.4967067" lon="13.6849333"><ele>116.0</ele><time>2026-05-02T06:27:32.503Z</time></trkpt><trkpt lat="41.496775" lon="13.68483"><ele>116.0</ele><time>2026-05-02T06:27:33.503Z</time></trkpt><trkpt lat="41.4968517" lon="13.6847317"><ele>116.0</ele><time>2026-05-02T06:27:34.503Z</time></trkpt><trkpt lat="41.49692" lon="13.6846333"><ele>116.0</ele><time>2026-05-02T06:27:35.503Z</time></trkpt><trkpt lat="41.4969867" lon="13.68454"><ele>116.0</ele><time>2026-05-02T06:27:36.503Z</time></trkpt><trkpt lat="41.49705" lon="13.6844483"><ele>116.0</ele><time>2026-05-02T06:27:37.504Z</time></trkpt><trkpt lat="41.4971" lon="13.6843683"><ele>115.99999999999999</ele><time>2026-05-02T06:27:38.503Z</time></trkpt><trkpt lat="41.4971567" lon="13.6842767"><ele>116.0</ele><time>2026-05-02T06:27:40.503Z</time></trkpt><trkpt lat="41.4971917" lon="13.6841617"><ele>116.0</ele><time>2026-05-02T06:29:20.503Z</time></trkpt><trkpt lat="41.4972467" lon="13.6841"><ele>116.0</ele><time>2026-05-02T06:29:22.503Z</time></trkpt><trkpt lat="41.4973217" lon="13.684075"><ele>115.99999999999999</ele><time>2026-05-02T06:29:24.503Z</time></trkpt><trkpt lat="41.4974" lon="13.684115"><ele>116.0</ele><time>2026-05-02T06:29:26.503Z</time></trkpt><trkpt lat="41.4974733" lon="13.6841583"><ele>115.99999999999999</ele><time>2026-05-02T06:29:28.503Z</time></trkpt><trkpt lat="41.4975333" lon="13.6841917"><ele>116.0</ele><time>2026-05-02T06:29:30.503Z</time></trkpt><trkpt lat="41.4976133" lon="13.684215"><ele>116.0</ele><time>2026-05-02T06:29:33.503Z</time></trkpt><trkpt lat="41.49769" lon="13.6842167"><ele>116.0</ele><time>2026-05-02T06:29:35.503Z</time></trkpt><trkpt lat="41.49777" lon="13.6841383"><ele>115.99999999999999</ele><time>2026-05-02T06:29:38.504Z</time></trkpt><trkpt lat="41.4978317" lon="13.68408"><ele>116.0</ele><time>2026-05-02T06:29:40.503Z</time></trkpt><trkpt lat="41.4978167" lon="13.6839927"><ele>116.00000000000001</ele><time>2026-05-02T06:31:50.532Z</time></trkpt><trkpt lat="41.4978147" lon="13.6838989"><ele>116.0</ele><time>2026-05-02T06:32:09.596Z</time></trkpt><trkpt lat="41.4978398" lon="13.6837953"><ele>116.00000000000001</ele><time>2026-05-02T06:32:14.542Z</time></trkpt><trkpt lat="41.497879" lon="13.6837261"><ele>116.00000000000001</ele><time>2026-05-02T06:32:21.558Z</time></trkpt><trkpt lat="41.4979622" lon="13.6836883"><ele>116.0</ele><time>2026-05-02T06:32:32.522Z</time></trkpt><trkpt lat="41.4980335" lon="13.6836718"><ele>116.00000000000001</ele><time>2026-05-02T06:32:37.565Z</time></trkpt><trkpt lat="41.4979688" lon="13.6836502"><ele>116.00000000000001</ele><time>2026-05-02T06:32:54.553Z</time></trkpt><trkpt lat="41.4979554" lon="13.6835541"><ele>116.16666666666666</ele><time>2026-05-02T06:33:05.517Z</time></trkpt><trkpt lat="41.4979339" lon="13.6834739"><ele>116.33333333333333</ele><time>2026-05-02T06:33:31.504Z</time></trkpt><trkpt lat="41.4979882" lon="13.6835615"><ele>116.5</ele><time>2026-05-02T06:38:35.526Z</time></trkpt><trkpt lat="41.4980641" lon="13.6836314"><ele>116.66666666666666</ele><time>2026-05-02T06:38:45.503Z</time></trkpt><trkpt lat="41.4981347" lon="13.6836274"><ele>116.83333333333333</ele><time>2026-05-02T06:38:51.196Z</time></trkpt><trkpt lat="41.4981762" lon="13.6835544"><ele>117.0</ele><time>2026-05-02T06:38:57.775Z</time></trkpt><trkpt lat="41.4982748" lon="13.6836012"><ele>117.0</ele><time>2026-05-02T06:39:10.686Z</time></trkpt><trkpt lat="41.4982927" lon="13.68379"><ele>117.0</ele><time>2026-05-02T06:39:16.873Z</time></trkpt><trkpt lat="41.4982752" lon="13.68393"><ele>117.0</ele><time>2026-05-02T06:39:23.084Z</time></trkpt><trkpt lat="41.4980487" lon="13.6836193"><ele>117.16666666666667</ele><time>2026-05-02T06:39:36.309Z</time></trkpt><trkpt lat="41.4981004" lon="13.6835085"><ele>117.33333333333334</ele><time>2026-05-02T06:39:42.657Z</time></trkpt><trkpt lat="41.4980644" lon="13.6833805"><ele>117.5</ele><time>2026-05-02T06:39:53.528Z</time></trkpt><trkpt lat="41.4980215" lon="13.6832948"><ele>117.66666666666667</ele><time>2026-05-02T06:39:55.5Z</time></trkpt><trkpt lat="41.4980095" lon="13.6831744"><ele>117.83333333333334</ele><time>2026-05-02T06:40:06.416Z</time></trkpt><trkpt lat="41.4979787" lon="13.6830884"><ele>118.0</ele><time>2026-05-02T06:40:08.554Z</time></trkpt><trkpt lat="41.4979472" lon="13.6832652"><ele>118.00000000000001</ele><time>2026-05-02T06:40:14.295Z</time></trkpt><trkpt lat="41.4979562" lon="13.6833879"><ele>118.0</ele><time>2026-05-02T06:40:22.194Z</time></trkpt><trkpt lat="41.4979874" lon="13.6834803"><ele>118.0</ele><time>2026-05-02T06:40:25.697Z</time></trkpt><trkpt lat="41.4980516" lon="13.6834955"><ele>118.0</ele><time>2026-05-02T06:40:32.358Z</time></trkpt><trkpt lat="41.4980032" lon="13.6835501"><ele>118.00000000000001</ele><time>2026-05-02T06:41:29.198Z</time></trkpt><trkpt lat="41.4979262" lon="13.6836115"><ele>118.0</ele><time>2026-05-02T06:42:58.267Z</time></trkpt><trkpt lat="41.4979557" lon="13.6837235"><ele>117.83333333333334</ele><time>2026-05-02T06:48:42.531Z</time></trkpt><trkpt lat="41.4980214" lon="13.683783"><ele>117.66666666666667</ele><time>2026-05-02T06:48:44.504Z</time></trkpt><trkpt lat="41.4980902" lon="13.6837989"><ele>117.5</ele><time>2026-05-02T06:48:50.534Z</time></trkpt><trkpt lat="41.4979946" lon="13.6837042"><ele>117.33333333333334</ele><time>2026-05-02T06:49:02.492Z</time></trkpt><trkpt lat="41.4979624" lon="13.6837837"><ele>117.16666666666667</ele><time>2026-05-02T06:49:10.476Z</time></trkpt><trkpt lat="41.4979506" lon="13.6838704"><ele>117.0</ele><time>2026-05-02T06:49:19.197Z</time></trkpt><trkpt lat="41.4978831" lon="13.6838916"><ele>116.83333333333333</ele><time>2026-05-02T06:49:33.475Z</time></trkpt><trkpt lat="41.4978205" lon="13.6839199"><ele>116.66666666666666</ele><time>2026-05-02T06:49:44.491Z</time></trkpt><trkpt lat="41.4977574" lon="13.6839362"><ele>116.5</ele><time>2026-05-02T06:54:43.491Z</time></trkpt><trkpt lat="41.4976036" lon="13.683896"><ele>116.33333333333333</ele><time>2026-05-02T06:54:46.544Z</time></trkpt><trkpt lat="41.4975383" lon="13.6838528"><ele>116.16666666666666</ele><time>2026-05-02T06:54:49.504Z</time></trkpt><trkpt lat="41.497485" lon="13.6837867"><ele>116.0</ele><time>2026-05-02T06:55:00.491Z</time></trkpt><trkpt lat="41.4975" lon="13.683685"><ele>115.99999999999999</ele><time>2026-05-02T06:55:02.491Z</time></trkpt><trkpt lat="41.49755" lon="13.6835883"><ele>116.0</ele><time>2026-05-02T06:55:04.491Z</time></trkpt><trkpt lat="41.4976067" lon="13.6835383"><ele>116.0</ele><time>2026-05-02T06:55:06.491Z</time></trkpt><trkpt lat="41.497665" lon="13.6835017"><ele>116.0</ele><time>2026-05-02T06:55:09.491Z</time></trkpt><trkpt lat="41.4977267" lon="13.68346"><ele>115.99999999999999</ele><time>2026-05-02T06:55:13.491Z</time></trkpt><trkpt lat="41.4977633" lon="13.68339"><ele>116.0</ele><time>2026-05-02T06:55:16.491Z</time></trkpt><trkpt lat="41.497865" lon="13.6833467"><ele>115.99999999999999</ele><time>2026-05-02T06:56:20.491Z</time></trkpt><trkpt lat="41.4978" lon="13.68327"><ele>116.0</ele><time>2026-05-02T06:58:02.491Z</time></trkpt><trkpt lat="41.4978283" lon="13.68314"><ele>116.0</ele><time>2026-05-02T07:00:03.491Z</time></trkpt><trkpt lat="41.497805" lon="13.68305"><ele>116.0</ele><time>2026-05-02T07:00:05.491Z</time></trkpt><trkpt lat="41.4977767" lon="13.6829317"><ele>115.99999999999999</ele><time>2026-05-02T07:00:07.491Z</time></trkpt><trkpt lat="41.4977567" lon="13.6828217"><ele>116.0</ele><time>2026-05-02T07:00:09.491Z</time></trkpt><trkpt lat="41.49774" lon="13.6827267"><ele>116.33333333333333</ele><time>2026-05-02T07:00:11.491Z</time></trkpt><trkpt lat="41.4977233" lon="13.6825983"><ele>116.66666666666666</ele><time>2026-05-02T07:00:13.491Z</time></trkpt><trkpt lat="41.4977483" lon="13.68245"><ele>117.0</ele><time>2026-05-02T07:00:15.491Z</time></trkpt><trkpt lat="41.49777" lon="13.6823633"><ele>117.33333333333334</ele><time>2026-05-02T07:00:16.491Z</time></trkpt><trkpt lat="41.4978017" lon="13.6822683"><ele>117.66666666666667</ele><time>2026-05-02T07:00:17.491Z</time></trkpt><trkpt lat="41.4978383" lon="13.6821667"><ele>118.0</ele><time>2026-05-02T07:00:18.491Z</time></trkpt><trkpt lat="41.4978833" lon="13.68206"><ele>118.0</ele><time>2026-05-02T07:00:19.491Z</time></trkpt><trkpt lat="41.49793" lon="13.6819467"><ele>118.00000000000001</ele><time>2026-05-02T07:00:20.491Z</time></trkpt><trkpt lat="41.4979767" lon="13.68182"><ele>118.00000000000001</ele><time>2026-05-02T07:00:21.491Z</time></trkpt><trkpt lat="41.4980267" lon="13.6816917"><ele>118.0</ele><time>2026-05-02T07:00:22.491Z</time></trkpt><trkpt lat="41.4980783" lon="13.68155"><ele>118.0</ele><time>2026-05-02T07:00:23.491Z</time></trkpt><trkpt lat="41.498135" lon="13.6813933"><ele>117.66666666666667</ele><time>2026-05-02T07:00:24.491Z</time></trkpt><trkpt lat="41.4982" lon="13.681225"><ele>117.33333333333334</ele><time>2026-05-02T07:00:25.491Z</time></trkpt><trkpt lat="41.4982783" lon="13.6810433"><ele>117.0</ele><time>2026-05-02T07:00:26.491Z</time></trkpt><trkpt lat="41.498355" lon="13.6808583"><ele>116.66666666666666</ele><time>2026-05-02T07:00:27.491Z</time></trkpt><trkpt lat="41.4984333" lon="13.6806783"><ele>116.33333333333333</ele><time>2026-05-02T07:00:28.491Z</time></trkpt><trkpt lat="41.49852" lon="13.6804883"><ele>116.0</ele><time>2026-05-02T07:00:29.491Z</time></trkpt><trkpt lat="41.4986017" lon="13.6802917"><ele>117.0</ele><time>2026-05-02T07:00:30.491Z</time></trkpt><trkpt lat="41.49869" lon="13.6801017"><ele>118.0</ele><time>2026-05-02T07:00:31.491Z</time></trkpt><trkpt lat="41.4987833" lon="13.6798983"><ele>119.0</ele><time>2026-05-02T07:00:32.491Z</time></trkpt><trkpt lat="41.49887" lon="13.679685"><ele>119.0</ele><time>2026-05-02T07:00:33.491Z</time></trkpt><trkpt lat="41.4989617" lon="13.679475"><ele>119.0</ele><time>2026-05-02T07:00:34.491Z</time></trkpt><trkpt lat="41.4990567" lon="13.6792667"><ele>119.0</ele><time>2026-05-02T07:00:35.491Z</time></trkpt><trkpt lat="41.4991483" lon="13.6790567"><ele>118.33333333333333</ele><time>2026-05-02T07:00:36.491Z</time></trkpt><trkpt lat="41.4992383" lon="13.678845"><ele>117.66666666666666</ele><time>2026-05-02T07:00:37.491Z</time></trkpt><trkpt lat="41.4993283" lon="13.67863"><ele>117.0</ele><time>2026-05-02T07:00:38.491Z</time></trkpt><trkpt lat="41.4994183" lon="13.67842"><ele>117.0</ele><time>2026-05-02T07:00:39.491Z</time></trkpt><trkpt lat="41.4995117" lon="13.6782033"><ele>117.0</ele><time>2026-05-02T07:00:40.491Z</time></trkpt><trkpt lat="41.4996067" lon="13.6779917"><ele>117.0</ele><time>2026-05-02T07:00:41.491Z</time></trkpt><trkpt lat="41.4996983" lon="13.6777733"><ele>117.33333333333334</ele><time>2026-05-02T07:00:42.491Z</time></trkpt><trkpt lat="41.49979" lon="13.6775633"><ele>117.66666666666667</ele><time>2026-05-02T07:00:43.491Z</time></trkpt><trkpt lat="41.4998767" lon="13.6773467"><ele>118.0</ele><time>2026-05-02T07:00:44.491Z</time></trkpt><trkpt lat="41.499975" lon="13.6771367"><ele>117.66666666666667</ele><time>2026-05-02T07:00:45.491Z</time></trkpt><trkpt lat="41.5000617" lon="13.6769283"><ele>117.33333333333334</ele><time>2026-05-02T07:00:46.491Z</time></trkpt><trkpt lat="41.5001533" lon="13.67671"><ele>117.0</ele><time>2026-05-02T07:00:47.491Z</time></trkpt><trkpt lat="41.5002467" lon="13.67649"><ele>117.0</ele><time>2026-05-02T07:00:48.491Z</time></trkpt><trkpt lat="41.50034" lon="13.6762733"><ele>117.0</ele><time>2026-05-02T07:00:49.491Z</time></trkpt><trkpt lat="41.5004333" lon="13.67605"><ele>117.0</ele><time>2026-05-02T07:00:50.491Z</time></trkpt><trkpt lat="41.50053" lon="13.6758183"><ele>117.33333333333334</ele><time>2026-05-02T07:00:51.491Z</time></trkpt><trkpt lat="41.5006283" lon="13.67559"><ele>117.66666666666667</ele><time>2026-05-02T07:00:52.491Z</time></trkpt><trkpt lat="41.500725" lon="13.6753533"><ele>118.0</ele><time>2026-05-02T07:00:53.491Z</time></trkpt><trkpt lat="41.5008333" lon="13.6751183"><ele>118.0</ele><time>2026-05-02T07:00:54.492Z</time></trkpt><trkpt lat="41.500935" lon="13.6748767"><ele>118.0</ele><time>2026-05-02T07:00:55.491Z</time></trkpt><trkpt lat="41.50104" lon="13.6746333"><ele>118.0</ele><time>2026-05-02T07:00:56.491Z</time></trkpt><trkpt lat="41.5011467" lon="13.67439"><ele>118.33333333333334</ele><time>2026-05-02T07:00:57.491Z</time></trkpt><trkpt lat="41.50125" lon="13.674145"><ele>118.66666666666666</ele><time>2026-05-02T07:00:58.491Z</time></trkpt><trkpt lat="41.5013517" lon="13.6739067"><ele>119.0</ele><time>2026-05-02T07:00:59.491Z</time></trkpt><trkpt lat="41.5014483" lon="13.6736667"><ele>118.66666666666666</ele><time>2026-05-02T07:01:00.491Z</time></trkpt><trkpt lat="41.5015617" lon="13.6734267"><ele>118.33333333333334</ele><time>2026-05-02T07:01:01.491Z</time></trkpt><trkpt lat="41.501665" lon="13.67318"><ele>118.0</ele><time>2026-05-02T07:01:02.491Z</time></trkpt><trkpt lat="41.5017683" lon="13.6729317"><ele>117.66666666666667</ele><time>2026-05-02T07:01:03.491Z</time></trkpt><trkpt lat="41.501875" lon="13.6726817"><ele>117.33333333333334</ele><time>2026-05-02T07:01:04.491Z</time></trkpt><trkpt lat="41.501985" lon="13.672435"><ele>117.0</ele><time>2026-05-02T07:01:05.491Z</time></trkpt><trkpt lat="41.50209" lon="13.6721817"><ele>116.66666666666666</ele><time>2026-05-02T07:01:06.491Z</time></trkpt><trkpt lat="41.502195" lon="13.6719333"><ele>116.33333333333333</ele><time>2026-05-02T07:01:07.491Z</time></trkpt><trkpt lat="41.5023017" lon="13.6716833"><ele>116.0</ele><time>2026-05-02T07:01:08.491Z</time></trkpt><trkpt lat="41.5024067" lon="13.6714333"><ele>116.0</ele><time>2026-05-02T07:01:09.491Z</time></trkpt><trkpt lat="41.5025183" lon="13.671185"><ele>116.0</ele><time>2026-05-02T07:01:10.491Z</time></trkpt><trkpt lat="41.5026233" lon="13.67094"><ele>116.0</ele><time>2026-05-02T07:01:11.491Z</time></trkpt><trkpt lat="41.502725" lon="13.6706917"><ele>115.66666666666666</ele><time>2026-05-02T07:01:12.491Z</time></trkpt><trkpt lat="41.502835" lon="13.67044"><ele>115.33333333333334</ele><time>2026-05-02T07:01:13.492Z</time></trkpt><trkpt lat="41.502935" lon="13.6701933"><ele>115.0</ele><time>2026-05-02T07:01:14.492Z</time></trkpt><trkpt lat="41.5030467" lon="13.6699467"><ele>115.0</ele><time>2026-05-02T07:01:15.491Z</time></trkpt><trkpt lat="41.503155" lon="13.6696967"><ele>115.0</ele><time>2026-05-02T07:01:16.491Z</time></trkpt><trkpt lat="41.50326" lon="13.6694583"><ele>115.0</ele><time>2026-05-02T07:01:17.491Z</time></trkpt><trkpt lat="41.5033617" lon="13.66922"><ele>115.0</ele><time>2026-05-02T07:01:18.491Z</time></trkpt><trkpt lat="41.503465" lon="13.66898"><ele>115.0</ele><time>2026-05-02T07:01:19.491Z</time></trkpt><trkpt lat="41.503565" lon="13.6687383"><ele>115.0</ele><time>2026-05-02T07:01:20.491Z</time></trkpt><trkpt lat="41.50367" lon="13.6684983"><ele>116.33333333333334</ele><time>2026-05-02T07:01:21.491Z</time></trkpt><trkpt lat="41.5037733" lon="13.6682583"><ele>117.66666666666666</ele><time>2026-05-02T07:01:22.491Z</time></trkpt><trkpt lat="41.5038767" lon="13.6680183"><ele>119.0</ele><time>2026-05-02T07:01:23.491Z</time></trkpt><trkpt lat="41.5039833" lon="13.66778"><ele>119.0</ele><time>2026-05-02T07:01:24.491Z</time></trkpt><trkpt lat="41.504085" lon="13.6675383"><ele>119.0</ele><time>2026-05-02T07:01:25.491Z</time></trkpt><trkpt lat="41.5041933" lon="13.6673"><ele>119.0</ele><time>2026-05-02T07:01:26.491Z</time></trkpt><trkpt lat="41.5043033" lon="13.6670567"><ele>118.66666666666666</ele><time>2026-05-02T07:01:27.491Z</time></trkpt><trkpt lat="41.5044083" lon="13.6668067"><ele>118.33333333333334</ele><time>2026-05-02T07:01:28.491Z</time></trkpt><trkpt lat="41.504515" lon="13.6665567"><ele>118.0</ele><time>2026-05-02T07:01:29.491Z</time></trkpt><trkpt lat="41.5046183" lon="13.6663133"><ele>117.66666666666667</ele><time>2026-05-02T07:01:30.492Z</time></trkpt><trkpt lat="41.5047217" lon="13.6660717"><ele>117.33333333333334</ele><time>2026-05-02T07:01:31.491Z</time></trkpt><trkpt lat="41.5048217" lon="13.6658283"><ele>117.0</ele><time>2026-05-02T07:01:32.492Z</time></trkpt><trkpt lat="41.5049233" lon="13.6655867"><ele>117.0</ele><time>2026-05-02T07:01:33.491Z</time></trkpt><trkpt lat="41.5050283" lon="13.6653417"><ele>117.0</ele><time>2026-05-02T07:01:34.491Z</time></trkpt><trkpt lat="41.5051317" lon="13.6650933"><ele>117.0</ele><time>2026-05-02T07:01:35.491Z</time></trkpt><trkpt lat="41.5052317" lon="13.6648483"><ele>116.66666666666666</ele><time>2026-05-02T07:01:36.491Z</time></trkpt><trkpt lat="41.50534" lon="13.6646033"><ele>116.33333333333333</ele><time>2026-05-02T07:01:37.491Z</time></trkpt><trkpt lat="41.5054433" lon="13.664365"><ele>116.0</ele><time>2026-05-02T07:01:38.491Z</time></trkpt><trkpt lat="41.5055467" lon="13.664125"><ele>116.0</ele><time>2026-05-02T07:01:39.491Z</time></trkpt><trkpt lat="41.5056517" lon="13.6638833"><ele>116.0</ele><time>2026-05-02T07:01:40.491Z</time></trkpt><trkpt lat="41.505755" lon="13.6636483"><ele>116.0</ele><time>2026-05-02T07:01:41.491Z</time></trkpt><trkpt lat="41.5058633" lon="13.6634117"><ele>116.33333333333333</ele><time>2026-05-02T07:01:42.492Z</time></trkpt><trkpt lat="41.5059667" lon="13.6631733"><ele>116.66666666666666</ele><time>2026-05-02T07:01:43.491Z</time></trkpt><trkpt lat="41.5060683" lon="13.6629317"><ele>117.0</ele><time>2026-05-02T07:01:44.491Z</time></trkpt><trkpt lat="41.5061683" lon="13.6626917"><ele>116.66666666666666</ele><time>2026-05-02T07:01:45.491Z</time></trkpt><trkpt lat="41.5062733" lon="13.6624533"><ele>116.33333333333333</ele><time>2026-05-02T07:01:46.491Z</time></trkpt><trkpt lat="41.5063717" lon="13.6622167"><ele>116.0</ele><time>2026-05-02T07:01:47.491Z</time></trkpt><trkpt lat="41.506475" lon="13.6619817"><ele>116.33333333333333</ele><time>2026-05-02T07:01:48.491Z</time></trkpt><trkpt lat="41.506575" lon="13.6617567"><ele>116.66666666666666</ele><time>2026-05-02T07:01:49.491Z</time></trkpt><trkpt lat="41.5066717" lon="13.6615317"><ele>117.0</ele><time>2026-05-02T07:01:50.491Z</time></trkpt><trkpt lat="41.5067683" lon="13.6613067"><ele>117.33333333333334</ele><time>2026-05-02T07:01:51.491Z</time></trkpt><trkpt lat="41.5068633" lon="13.6610833"><ele>117.66666666666667</ele><time>2026-05-02T07:01:52.491Z</time></trkpt><trkpt lat="41.5069617" lon="13.66086"><ele>118.0</ele><time>2026-05-02T07:01:53.491Z</time></trkpt><trkpt lat="41.5070583" lon="13.6606317"><ele>118.0</ele><time>2026-05-02T07:01:54.491Z</time></trkpt><trkpt lat="41.5071533" lon="13.6604067"><ele>118.0</ele><time>2026-05-02T07:01:55.491Z</time></trkpt><trkpt lat="41.5072417" lon="13.66018"><ele>118.0</ele><time>2026-05-02T07:01:56.491Z</time></trkpt><trkpt lat="41.5073417" lon="13.6599517"><ele>118.0</ele><time>2026-05-02T07:01:57.491Z</time></trkpt><trkpt lat="41.5074417" lon="13.65972"><ele>118.0</ele><time>2026-05-02T07:01:58.491Z</time></trkpt><trkpt lat="41.50754" lon="13.6594833"><ele>118.0</ele><time>2026-05-02T07:01:59.491Z</time></trkpt><trkpt lat="41.50764" lon="13.6592483"><ele>118.0</ele><time>2026-05-02T07:02:00.491Z</time></trkpt><trkpt lat="41.50774" lon="13.6590133"><ele>118.0</ele><time>2026-05-02T07:02:01.491Z</time></trkpt><trkpt lat="41.5078417" lon="13.6587817"><ele>118.0</ele><time>2026-05-02T07:02:02.491Z</time></trkpt><trkpt lat="41.5079433" lon="13.6585467"><ele>117.0</ele><time>2026-05-02T07:02:03.491Z</time></trkpt><trkpt lat="41.508045" lon="13.6583133"><ele>116.0</ele><time>2026-05-02T07:02:04.491Z</time></trkpt><trkpt lat="41.508145" lon="13.658075"><ele>115.0</ele><time>2026-05-02T07:02:05.491Z</time></trkpt><trkpt lat="41.5082467" lon="13.6578417"><ele>115.33333333333334</ele><time>2026-05-02T07:02:06.491Z</time></trkpt><trkpt lat="41.5083483" lon="13.657605"><ele>115.66666666666666</ele><time>2026-05-02T07:02:07.491Z</time></trkpt><trkpt lat="41.5084483" lon="13.65737"><ele>116.0</ele><time>2026-05-02T07:02:08.491Z</time></trkpt><trkpt lat="41.5085467" lon="13.657135"><ele>116.0</ele><time>2026-05-02T07:02:09.491Z</time></trkpt><trkpt lat="41.5086467" lon="13.6569"><ele>116.0</ele><time>2026-05-02T07:02:10.491Z</time></trkpt><trkpt lat="41.5087517" lon="13.65666"><ele>116.0</ele><time>2026-05-02T07:02:11.491Z</time></trkpt><trkpt lat="41.5088567" lon="13.6564233"><ele>116.33333333333333</ele><time>2026-05-02T07:02:12.491Z</time></trkpt><trkpt lat="41.5089583" lon="13.6561833"><ele>116.66666666666666</ele><time>2026-05-02T07:02:13.491Z</time></trkpt><trkpt lat="41.509065" lon="13.6559417"><ele>117.0</ele><time>2026-05-02T07:02:14.491Z</time></trkpt><trkpt lat="41.5091683" lon="13.6557"><ele>118.0</ele><time>2026-05-02T07:02:15.491Z</time></trkpt><trkpt lat="41.50927" lon="13.6554517"><ele>119.0</ele><time>2026-05-02T07:02:16.491Z</time></trkpt><trkpt lat="41.5093783" lon="13.6552083"><ele>120.0</ele><time>2026-05-02T07:02:17.491Z</time></trkpt><trkpt lat="41.5094833" lon="13.6549633"><ele>120.0</ele><time>2026-05-02T07:02:18.491Z</time></trkpt><trkpt lat="41.509585" lon="13.6547167"><ele>120.0</ele><time>2026-05-02T07:02:19.492Z</time></trkpt><trkpt lat="41.50969" lon="13.65447"><ele>120.0</ele><time>2026-05-02T07:02:20.491Z</time></trkpt><trkpt lat="41.509795" lon="13.654225"><ele>119.33333333333334</ele><time>2026-05-02T07:02:21.491Z</time></trkpt><trkpt lat="41.5098983" lon="13.6539717"><ele>118.66666666666667</ele><time>2026-05-02T07:02:22.491Z</time></trkpt><trkpt lat="41.510005" lon="13.6537167"><ele>118.0</ele><time>2026-05-02T07:02:23.491Z</time></trkpt><trkpt lat="41.510105" lon="13.65347"><ele>118.33333333333334</ele><time>2026-05-02T07:02:24.491Z</time></trkpt><trkpt lat="41.5102067" lon="13.6532233"><ele>118.66666666666666</ele><time>2026-05-02T07:02:25.491Z</time></trkpt><trkpt lat="41.51032" lon="13.652975"><ele>119.0</ele><time>2026-05-02T07:02:26.491Z</time></trkpt><trkpt lat="41.5104317" lon="13.6527283"><ele>119.0</ele><time>2026-05-02T07:02:27.491Z</time></trkpt><trkpt lat="41.5105367" lon="13.6524817"><ele>119.0</ele><time>2026-05-02T07:02:28.491Z</time></trkpt><trkpt lat="41.5106467" lon="13.652235"><ele>119.0</ele><time>2026-05-02T07:02:29.492Z</time></trkpt><trkpt lat="41.5107533" lon="13.6519933"><ele>118.0</ele><time>2026-05-02T07:02:30.491Z</time></trkpt><trkpt lat="41.51086" lon="13.65174"><ele>117.0</ele><time>2026-05-02T07:02:31.491Z</time></trkpt><trkpt lat="41.5109633" lon="13.65149"><ele>116.0</ele><time>2026-05-02T07:02:32.491Z</time></trkpt><trkpt lat="41.5110683" lon="13.6512333"><ele>116.0</ele><time>2026-05-02T07:02:33.491Z</time></trkpt><trkpt lat="41.5111783" lon="13.6509767"><ele>116.0</ele><time>2026-05-02T07:02:34.491Z</time></trkpt><trkpt lat="41.5112883" lon="13.65072"><ele>116.0</ele><time>2026-05-02T07:02:35.491Z</time></trkpt><trkpt lat="41.5113967" lon="13.6504667"><ele>116.66666666666666</ele><time>2026-05-02T07:02:36.491Z</time></trkpt><trkpt lat="41.5115067" lon="13.650215"><ele>117.33333333333334</ele><time>2026-05-02T07:02:37.491Z</time></trkpt><trkpt lat="41.511615" lon="13.6499567"><ele>118.0</ele><time>2026-05-02T07:02:38.492Z</time></trkpt><trkpt lat="41.5117317" lon="13.6497"><ele>117.66666666666667</ele><time>2026-05-02T07:02:39.491Z</time></trkpt><trkpt lat="41.5118433" lon="13.6494383"><ele>117.33333333333334</ele><time>2026-05-02T07:02:40.491Z</time></trkpt><trkpt lat="41.511955" lon="13.64918"><ele>117.0</ele><time>2026-05-02T07:02:41.491Z</time></trkpt><trkpt lat="41.5120633" lon="13.6489217"><ele>117.66666666666666</ele><time>2026-05-02T07:02:42.491Z</time></trkpt><trkpt lat="41.512175" lon="13.6486617"><ele>118.33333333333333</ele><time>2026-05-02T07:02:43.491Z</time></trkpt><trkpt lat="41.5122883" lon="13.6484033"><ele>119.0</ele><time>2026-05-02T07:02:44.491Z</time></trkpt><trkpt lat="41.5123933" lon="13.6481333"><ele>119.0</ele><time>2026-05-02T07:02:45.491Z</time></trkpt><trkpt lat="41.512505" lon="13.647875"><ele>119.0</ele><time>2026-05-02T07:02:46.491Z</time></trkpt><trkpt lat="41.5126133" lon="13.6476133"><ele>119.0</ele><time>2026-05-02T07:02:47.492Z</time></trkpt><trkpt lat="41.5127333" lon="13.647345"><ele>119.0</ele><time>2026-05-02T07:02:48.491Z</time></trkpt><trkpt lat="41.5128533" lon="13.647075"><ele>119.0</ele><time>2026-05-02T07:02:49.491Z</time></trkpt><trkpt lat="41.5129667" lon="13.646805"><ele>119.0</ele><time>2026-05-02T07:02:50.491Z</time></trkpt><trkpt lat="41.5130817" lon="13.6465383"><ele>119.0</ele><time>2026-05-02T07:02:51.491Z</time></trkpt><trkpt lat="41.5131967" lon="13.6462767"><ele>119.0</ele><time>2026-05-02T07:02:52.491Z</time></trkpt><trkpt lat="41.5133083" lon="13.6460233"><ele>119.0</ele><time>2026-05-02T07:02:53.491Z</time></trkpt><trkpt lat="41.5134133" lon="13.64578"><ele>119.0</ele><time>2026-05-02T07:02:54.491Z</time></trkpt><trkpt lat="41.513515" lon="13.6455483"><ele>119.0</ele><time>2026-05-02T07:02:55.491Z</time></trkpt><trkpt lat="41.5136083" lon="13.645325"><ele>119.0</ele><time>2026-05-02T07:02:56.491Z</time></trkpt><trkpt lat="41.5137033" lon="13.6451033"><ele>119.0</ele><time>2026-05-02T07:02:57.491Z</time></trkpt><trkpt lat="41.5137933" lon="13.64489"><ele>119.0</ele><time>2026-05-02T07:02:58.491Z</time></trkpt><trkpt lat="41.513885" lon="13.644675"><ele>119.0</ele><time>2026-05-02T07:02:59.491Z</time></trkpt><trkpt lat="41.5139767" lon="13.6444617"><ele>119.0</ele><time>2026-05-02T07:03:00.491Z</time></trkpt><trkpt lat="41.5140683" lon="13.6442517"><ele>118.33333333333333</ele><time>2026-05-02T07:03:01.491Z</time></trkpt><trkpt lat="41.5141583" lon="13.6440433"><ele>117.66666666666666</ele><time>2026-05-02T07:03:02.491Z</time></trkpt><trkpt lat="41.5142483" lon="13.6438317"><ele>117.0</ele><time>2026-05-02T07:03:03.491Z</time></trkpt><trkpt lat="41.5143367" lon="13.6436217"><ele>117.0</ele><time>2026-05-02T07:03:04.491Z</time></trkpt><trkpt lat="41.5144317" lon="13.6434083"><ele>117.0</ele><time>2026-05-02T07:03:05.492Z</time></trkpt><trkpt lat="41.5145217" lon="13.6431933"><ele>117.0</ele><time>2026-05-02T07:03:06.491Z</time></trkpt><trkpt lat="41.514615" lon="13.6429767"><ele>117.66666666666666</ele><time>2026-05-02T07:03:07.491Z</time></trkpt><trkpt lat="41.5147067" lon="13.642765"><ele>118.33333333333333</ele><time>2026-05-02T07:03:08.491Z</time></trkpt><trkpt lat="41.5147983" lon="13.64255"><ele>119.0</ele><time>2026-05-02T07:03:09.491Z</time></trkpt><trkpt lat="41.51489" lon="13.6423367"><ele>119.0</ele><time>2026-05-02T07:03:10.491Z</time></trkpt><trkpt lat="41.51498" lon="13.6421233"><ele>119.0</ele><time>2026-05-02T07:03:11.491Z</time></trkpt><trkpt lat="41.5150667" lon="13.6419133"><ele>119.0</ele><time>2026-05-02T07:03:12.491Z</time></trkpt><trkpt lat="41.5151617" lon="13.6417017"><ele>119.0</ele><time>2026-05-02T07:03:13.491Z</time></trkpt><trkpt lat="41.5152583" lon="13.6414867"><ele>119.0</ele><time>2026-05-02T07:03:14.491Z</time></trkpt><trkpt lat="41.51535" lon="13.64127"><ele>119.0</ele><time>2026-05-02T07:03:15.491Z</time></trkpt><trkpt lat="41.5154383" lon="13.641055"><ele>119.33333333333333</ele><time>2026-05-02T07:03:16.491Z</time></trkpt><trkpt lat="41.5155333" lon="13.6408367"><ele>119.66666666666666</ele><time>2026-05-02T07:03:17.491Z</time></trkpt><trkpt lat="41.5156283" lon="13.64062"><ele>120.0</ele><time>2026-05-02T07:03:18.491Z</time></trkpt><trkpt lat="41.5157133" lon="13.6404067"><ele>119.66666666666666</ele><time>2026-05-02T07:03:19.491Z</time></trkpt><trkpt lat="41.51581" lon="13.6401883"><ele>119.33333333333333</ele><time>2026-05-02T07:03:20.491Z</time></trkpt><trkpt lat="41.5159067" lon="13.6399717"><ele>119.0</ele><time>2026-05-02T07:03:21.492Z</time></trkpt><trkpt lat="41.5159983" lon="13.6397517"><ele>119.0</ele><time>2026-05-02T07:03:22.491Z</time></trkpt><trkpt lat="41.5160933" lon="13.6395333"><ele>119.0</ele><time>2026-05-02T07:03:23.491Z</time></trkpt><trkpt lat="41.5161867" lon="13.6393117"><ele>119.0</ele><time>2026-05-02T07:03:24.491Z</time></trkpt><trkpt lat="41.516285" lon="13.63909"><ele>119.0</ele><time>2026-05-02T07:03:25.491Z</time></trkpt><trkpt lat="41.5163783" lon="13.638875"><ele>119.0</ele><time>2026-05-02T07:03:26.491Z</time></trkpt><trkpt lat="41.5164683" lon="13.638655"><ele>119.0</ele><time>2026-05-02T07:03:27.491Z</time></trkpt><trkpt lat="41.5165583" lon="13.6384433"><ele>119.33333333333333</ele><time>2026-05-02T07:03:28.491Z</time></trkpt><trkpt lat="41.516655" lon="13.6382283"><ele>119.66666666666666</ele><time>2026-05-02T07:03:29.491Z</time></trkpt><trkpt lat="41.51675" lon="13.638005"><ele>120.0</ele><time>2026-05-02T07:03:30.491Z</time></trkpt><trkpt lat="41.5168483" lon="13.63779"><ele>120.0</ele><time>2026-05-02T07:03:31.492Z</time></trkpt><trkpt lat="41.51694" lon="13.6375717"><ele>120.0</ele><time>2026-05-02T07:03:32.491Z</time></trkpt><trkpt lat="41.517035" lon="13.637355"><ele>120.0</ele><time>2026-05-02T07:03:33.491Z</time></trkpt><trkpt lat="41.51713" lon="13.6371367"><ele>120.0</ele><time>2026-05-02T07:03:34.491Z</time></trkpt><trkpt lat="41.51722" lon="13.63692"><ele>120.0</ele><time>2026-05-02T07:03:35.492Z</time></trkpt><trkpt lat="41.5173183" lon="13.6367"><ele>120.0</ele><time>2026-05-02T07:03:36.491Z</time></trkpt><trkpt lat="41.5174117" lon="13.63648"><ele>120.0</ele><time>2026-05-02T07:03:37.491Z</time></trkpt><trkpt lat="41.51751" lon="13.636255"><ele>120.0</ele><time>2026-05-02T07:03:38.491Z</time></trkpt><trkpt lat="41.5176033" lon="13.6360267"><ele>120.0</ele><time>2026-05-02T07:03:39.491Z</time></trkpt><trkpt lat="41.5177" lon="13.6358033"><ele>120.0</ele><time>2026-05-02T07:03:40.491Z</time></trkpt><trkpt lat="41.517795" lon="13.635575"><ele>120.0</ele><time>2026-05-02T07:03:41.491Z</time></trkpt><trkpt lat="41.51789" lon="13.6353533"><ele>120.0</ele><time>2026-05-02T07:03:42.491Z</time></trkpt><trkpt lat="41.5179867" lon="13.63513"><ele>120.33333333333334</ele><time>2026-05-02T07:03:43.491Z</time></trkpt><trkpt lat="41.5180817" lon="13.6349017"><ele>120.66666666666667</ele><time>2026-05-02T07:03:44.491Z</time></trkpt><trkpt lat="41.51818" lon="13.6346783"><ele>121.0</ele><time>2026-05-02T07:03:45.492Z</time></trkpt><trkpt lat="41.51828" lon="13.6344533"><ele>121.33333333333334</ele><time>2026-05-02T07:03:46.491Z</time></trkpt><trkpt lat="41.5183783" lon="13.6342233"><ele>121.66666666666666</ele><time>2026-05-02T07:03:47.491Z</time></trkpt><trkpt lat="41.5184783" lon="13.6339983"><ele>122.0</ele><time>2026-05-02T07:03:48.491Z</time></trkpt><trkpt lat="41.5185733" lon="13.6337667"><ele>121.66666666666666</ele><time>2026-05-02T07:03:49.491Z</time></trkpt><trkpt lat="41.5186717" lon="13.6335333"><ele>121.33333333333334</ele><time>2026-05-02T07:03:50.491Z</time></trkpt><trkpt lat="41.5187683" lon="13.6333"><ele>121.0</ele><time>2026-05-02T07:03:51.491Z</time></trkpt><trkpt lat="41.5188617" lon="13.6330617"><ele>120.66666666666667</ele><time>2026-05-02T07:03:52.491Z</time></trkpt><trkpt lat="41.5189617" lon="13.6328183"><ele>120.33333333333334</ele><time>2026-05-02T07:03:53.492Z</time></trkpt><trkpt lat="41.5190617" lon="13.6325867"><ele>120.0</ele><time>2026-05-02T07:03:54.491Z</time></trkpt><trkpt lat="41.5191633" lon="13.632355"><ele>119.66666666666666</ele><time>2026-05-02T07:03:55.492Z</time></trkpt><trkpt lat="41.5192633" lon="13.632115"><ele>119.33333333333333</ele><time>2026-05-02T07:03:56.491Z</time></trkpt><trkpt lat="41.5193683" lon="13.631875"><ele>119.0</ele><time>2026-05-02T07:03:57.491Z</time></trkpt><trkpt lat="41.51947" lon="13.6316333"><ele>119.0</ele><time>2026-05-02T07:03:58.491Z</time></trkpt><trkpt lat="41.5195733" lon="13.63139"><ele>119.0</ele><time>2026-05-02T07:03:59.491Z</time></trkpt><trkpt lat="41.51968" lon="13.631145"><ele>119.0</ele><time>2026-05-02T07:04:00.491Z</time></trkpt><trkpt lat="41.51978" lon="13.6308967"><ele>118.33333333333333</ele><time>2026-05-02T07:04:01.491Z</time></trkpt><trkpt lat="41.51989" lon="13.630655"><ele>117.66666666666666</ele><time>2026-05-02T07:04:02.491Z</time></trkpt><trkpt lat="41.52" lon="13.6304133"><ele>117.0</ele><time>2026-05-02T07:04:03.491Z</time></trkpt><trkpt lat="41.5201083" lon="13.6301617"><ele>116.66666666666666</ele><time>2026-05-02T07:04:04.491Z</time></trkpt><trkpt lat="41.520215" lon="13.629915"><ele>116.33333333333333</ele><time>2026-05-02T07:04:05.491Z</time></trkpt><trkpt lat="41.520315" lon="13.6296633"><ele>116.0</ele><time>2026-05-02T07:04:06.491Z</time></trkpt><trkpt lat="41.52042" lon="13.6294133"><ele>116.0</ele><time>2026-05-02T07:04:07.491Z</time></trkpt><trkpt lat="41.52052" lon="13.6291683"><ele>116.0</ele><time>2026-05-02T07:04:08.491Z</time></trkpt><trkpt lat="41.520625" lon="13.6289233"><ele>116.0</ele><time>2026-05-02T07:04:09.491Z</time></trkpt><trkpt lat="41.520725" lon="13.6286817"><ele>115.66666666666666</ele><time>2026-05-02T07:04:10.491Z</time></trkpt><trkpt lat="41.5208283" lon="13.628435"><ele>115.33333333333334</ele><time>2026-05-02T07:04:11.491Z</time></trkpt><trkpt lat="41.520935" lon="13.6281883"><ele>115.0</ele><time>2026-05-02T07:04:12.491Z</time></trkpt><trkpt lat="41.5210417" lon="13.627945"><ele>114.0</ele><time>2026-05-02T07:04:13.492Z</time></trkpt><trkpt lat="41.5211483" lon="13.6277067"><ele>113.0</ele><time>2026-05-02T07:04:14.491Z</time></trkpt><trkpt lat="41.521255" lon="13.6274617"><ele>112.0</ele><time>2026-05-02T07:04:15.491Z</time></trkpt><trkpt lat="41.521355" lon="13.627215"><ele>107.0</ele><time>2026-05-02T07:04:16.491Z</time></trkpt><trkpt lat="41.5214567" lon="13.6269733"><ele>102.0</ele><time>2026-05-02T07:04:17.491Z</time></trkpt><trkpt lat="41.5215617" lon="13.6267267"><ele>97.0</ele><time>2026-05-02T07:04:18.491Z</time></trkpt><trkpt lat="41.5216667" lon="13.626475"><ele>97.0</ele><time>2026-05-02T07:04:19.491Z</time></trkpt><trkpt lat="41.5217717" lon="13.626225"><ele>97.0</ele><time>2026-05-02T07:04:20.491Z</time></trkpt><trkpt lat="41.5218767" lon="13.6259767"><ele>97.0</ele><time>2026-05-02T07:04:21.492Z</time></trkpt><trkpt lat="41.5219767" lon="13.6257217"><ele>97.33333333333334</ele><time>2026-05-02T07:04:22.491Z</time></trkpt><trkpt lat="41.5220833" lon="13.6254767"><ele>97.66666666666666</ele><time>2026-05-02T07:04:23.491Z</time></trkpt><trkpt lat="41.5221817" lon="13.6252233"><ele>98.0</ele><time>2026-05-02T07:04:24.491Z</time></trkpt><trkpt lat="41.5222883" lon="13.624975"><ele>100.66666666666666</ele><time>2026-05-02T07:04:25.491Z</time></trkpt><trkpt lat="41.5223983" lon="13.6247233"><ele>103.33333333333334</ele><time>2026-05-02T07:04:26.492Z</time></trkpt><trkpt lat="41.5225017" lon="13.62448"><ele>106.0</ele><time>2026-05-02T07:04:27.491Z</time></trkpt><trkpt lat="41.5226067" lon="13.6242317"><ele>106.0</ele><time>2026-05-02T07:04:28.491Z</time></trkpt><trkpt lat="41.5227117" lon="13.62399"><ele>106.0</ele><time>2026-05-02T07:04:29.491Z</time></trkpt><trkpt lat="41.52281" lon="13.6237533"><ele>106.0</ele><time>2026-05-02T07:04:30.492Z</time></trkpt><trkpt lat="41.5229183" lon="13.623505"><ele>106.33333333333334</ele><time>2026-05-02T07:04:31.491Z</time></trkpt><trkpt lat="41.5230217" lon="13.6232533"><ele>106.66666666666666</ele><time>2026-05-02T07:04:32.491Z</time></trkpt><trkpt lat="41.5231233" lon="13.62301"><ele>107.0</ele><time>2026-05-02T07:04:33.491Z</time></trkpt><trkpt lat="41.5232333" lon="13.6227667"><ele>107.0</ele><time>2026-05-02T07:04:34.491Z</time></trkpt><trkpt lat="41.5233367" lon="13.62252"><ele>107.0</ele><time>2026-05-02T07:04:35.491Z</time></trkpt><trkpt lat="41.52344" lon="13.622275"><ele>107.0</ele><time>2026-05-02T07:04:36.491Z</time></trkpt><trkpt lat="41.5235467" lon="13.6220333"><ele>107.33333333333333</ele><time>2026-05-02T07:04:37.491Z</time></trkpt><trkpt lat="41.523655" lon="13.6217883"><ele>107.66666666666666</ele><time>2026-05-02T07:04:38.491Z</time></trkpt><trkpt lat="41.5237567" lon="13.6215383"><ele>108.0</ele><time>2026-05-02T07:04:39.491Z</time></trkpt><trkpt lat="41.5238667" lon="13.6212867"><ele>109.66666666666666</ele><time>2026-05-02T07:04:40.491Z</time></trkpt><trkpt lat="41.5239733" lon="13.621035"><ele>111.33333333333333</ele><time>2026-05-02T07:04:41.491Z</time></trkpt><trkpt lat="41.5240783" lon="13.6207883"><ele>113.0</ele><time>2026-05-02T07:04:42.491Z</time></trkpt><trkpt lat="41.5241867" lon="13.6205417"><ele>112.33333333333333</ele><time>2026-05-02T07:04:43.491Z</time></trkpt><trkpt lat="41.5242933" lon="13.6202917"><ele>111.66666666666666</ele><time>2026-05-02T07:04:44.491Z</time></trkpt><trkpt lat="41.5243967" lon="13.6200433"><ele>111.0</ele><time>2026-05-02T07:04:45.491Z</time></trkpt><trkpt lat="41.5245" lon="13.6197967"><ele>112.33333333333334</ele><time>2026-05-02T07:04:46.491Z</time></trkpt><trkpt lat="41.5246017" lon="13.6195517"><ele>113.66666666666667</ele><time>2026-05-02T07:04:47.491Z</time></trkpt><trkpt lat="41.5247017" lon="13.6193067"><ele>115.0</ele><time>2026-05-02T07:04:48.491Z</time></trkpt><trkpt lat="41.52481" lon="13.6190583"><ele>115.0</ele><time>2026-05-02T07:04:49.491Z</time></trkpt><trkpt lat="41.5249167" lon="13.61881"><ele>115.0</ele><time>2026-05-02T07:04:50.491Z</time></trkpt><trkpt lat="41.5250217" lon="13.6185633"><ele>115.0</ele><time>2026-05-02T07:04:51.492Z</time></trkpt><trkpt lat="41.5251233" lon="13.61832"><ele>115.0</ele><time>2026-05-02T07:04:52.492Z</time></trkpt><trkpt lat="41.525225" lon="13.618075"><ele>115.0</ele><time>2026-05-02T07:04:53.492Z</time></trkpt><trkpt lat="41.52533" lon="13.6178333"><ele>115.0</ele><time>2026-05-02T07:04:54.492Z</time></trkpt><trkpt lat="41.5254317" lon="13.6175917"><ele>115.33333333333334</ele><time>2026-05-02T07:04:55.493Z</time></trkpt><trkpt lat="41.525535" lon="13.6173533"><ele>115.66666666666666</ele><time>2026-05-02T07:04:56.493Z</time></trkpt><trkpt lat="41.5256433" lon="13.61711"><ele>116.0</ele><time>2026-05-02T07:04:57.492Z</time></trkpt><trkpt lat="41.52574" lon="13.61687"><ele>116.0</ele><time>2026-05-02T07:04:58.492Z</time></trkpt><trkpt lat="41.5258467" lon="13.6166183"><ele>116.0</ele><time>2026-05-02T07:04:59.492Z</time></trkpt><trkpt lat="41.52595" lon="13.61638"><ele>116.0</ele><time>2026-05-02T07:05:00.492Z</time></trkpt><trkpt lat="41.5260517" lon="13.6161333"><ele>115.66666666666666</ele><time>2026-05-02T07:05:01.492Z</time></trkpt><trkpt lat="41.5261583" lon="13.615885"><ele>115.33333333333334</ele><time>2026-05-02T07:05:02.492Z</time></trkpt><trkpt lat="41.526265" lon="13.615635"><ele>115.0</ele><time>2026-05-02T07:05:03.492Z</time></trkpt><trkpt lat="41.5263667" lon="13.615385"><ele>114.66666666666667</ele><time>2026-05-02T07:05:04.492Z</time></trkpt><trkpt lat="41.526475" lon="13.6151333"><ele>114.33333333333334</ele><time>2026-05-02T07:05:05.492Z</time></trkpt><trkpt lat="41.5265833" lon="13.6148833"><ele>114.0</ele><time>2026-05-02T07:05:06.492Z</time></trkpt><trkpt lat="41.5266883" lon="13.61463"><ele>114.0</ele><time>2026-05-02T07:05:07.492Z</time></trkpt><trkpt lat="41.52679" lon="13.6143833"><ele>114.0</ele><time>2026-05-02T07:05:08.492Z</time></trkpt><trkpt lat="41.526895" lon="13.614135"><ele>114.0</ele><time>2026-05-02T07:05:09.492Z</time></trkpt><trkpt lat="41.527005" lon="13.6138933"><ele>115.0</ele><time>2026-05-02T07:05:10.492Z</time></trkpt><trkpt lat="41.5271067" lon="13.6136517"><ele>116.0</ele><time>2026-05-02T07:05:11.492Z</time></trkpt><trkpt lat="41.527215" lon="13.6134083"><ele>117.0</ele><time>2026-05-02T07:05:12.492Z</time></trkpt><trkpt lat="41.5273267" lon="13.61316"><ele>117.0</ele><time>2026-05-02T07:05:13.492Z</time></trkpt><trkpt lat="41.5274283" lon="13.612905"><ele>117.0</ele><time>2026-05-02T07:05:14.492Z</time></trkpt><trkpt lat="41.5275333" lon="13.6126467"><ele>117.0</ele><time>2026-05-02T07:05:15.492Z</time></trkpt><trkpt lat="41.52764" lon="13.6123933"><ele>117.33333333333334</ele><time>2026-05-02T07:05:16.492Z</time></trkpt><trkpt lat="41.5277483" lon="13.6121367"><ele>117.66666666666667</ele><time>2026-05-02T07:05:17.492Z</time></trkpt><trkpt lat="41.52786" lon="13.61188"><ele>118.0</ele><time>2026-05-02T07:05:18.492Z</time></trkpt><trkpt lat="41.5279733" lon="13.61162"><ele>117.33333333333334</ele><time>2026-05-02T07:05:19.492Z</time></trkpt><trkpt lat="41.528085" lon="13.6113617"><ele>116.66666666666666</ele><time>2026-05-02T07:05:20.493Z</time></trkpt><trkpt lat="41.52819" lon="13.6111"><ele>116.0</ele><time>2026-05-02T07:05:21.493Z</time></trkpt><trkpt lat="41.5283" lon="13.6108383"><ele>116.0</ele><time>2026-05-02T07:05:22.492Z</time></trkpt><trkpt lat="41.5284083" lon="13.6105767"><ele>116.0</ele><time>2026-05-02T07:05:23.492Z</time></trkpt><trkpt lat="41.52852" lon="13.61032"><ele>116.0</ele><time>2026-05-02T07:05:24.492Z</time></trkpt><trkpt lat="41.5286317" lon="13.61006"><ele>116.0</ele><time>2026-05-02T07:05:25.492Z</time></trkpt><trkpt lat="41.5287417" lon="13.6097983"><ele>116.0</ele><time>2026-05-02T07:05:26.492Z</time></trkpt><trkpt lat="41.5288517" lon="13.6095417"><ele>116.0</ele><time>2026-05-02T07:05:27.492Z</time></trkpt><trkpt lat="41.52896" lon="13.609285"><ele>116.0</ele><time>2026-05-02T07:05:28.492Z</time></trkpt><trkpt lat="41.5290683" lon="13.6090217"><ele>116.0</ele><time>2026-05-02T07:05:29.492Z</time></trkpt><trkpt lat="41.5291817" lon="13.60876"><ele>116.5</ele><time>2026-05-02T07:05:30.492Z</time></trkpt><trkpt lat="41.5292917" lon="13.608495"><ele>117.0</ele><time>2026-05-02T07:05:31.492Z</time></trkpt><trkpt lat="41.529405" lon="13.6082283"><ele>117.0</ele><time>2026-05-02T07:05:32.492Z</time></trkpt><trkpt lat="41.5295183" lon="13.6079617"><ele>117.0</ele><time>2026-05-02T07:05:33.492Z</time></trkpt><trkpt lat="41.5296317" lon="13.6076967"><ele>116.5</ele><time>2026-05-02T07:05:34.492Z</time></trkpt><trkpt lat="41.5297433" lon="13.6074317"><ele>116.0</ele><time>2026-05-02T07:05:35.493Z</time></trkpt><trkpt lat="41.5298517" lon="13.6071717"><ele>115.5</ele><time>2026-05-02T07:05:36.492Z</time></trkpt><trkpt lat="41.5299633" lon="13.6069083"><ele>115.0</ele><time>2026-05-02T07:05:37.492Z</time></trkpt><trkpt lat="41.5300717" lon="13.6066467"><ele>115.0</ele><time>2026-05-02T07:05:38.493Z</time></trkpt><trkpt lat="41.5301833" lon="13.6063867"><ele>115.0</ele><time>2026-05-02T07:05:39.492Z</time></trkpt><trkpt lat="41.530295" lon="13.6061317"><ele>115.0</ele><time>2026-05-02T07:05:40.492Z</time></trkpt><trkpt lat="41.5304033" lon="13.6058767"><ele>115.66666666666667</ele><time>2026-05-02T07:05:41.492Z</time></trkpt><trkpt lat="41.53051" lon="13.6056217"><ele>116.33333333333334</ele><time>2026-05-02T07:05:42.492Z</time></trkpt><trkpt lat="41.5306183" lon="13.605365"><ele>117.0</ele><time>2026-05-02T07:05:43.492Z</time></trkpt><trkpt lat="41.5307267" lon="13.6051117"><ele>117.0</ele><time>2026-05-02T07:05:44.492Z</time></trkpt><trkpt lat="41.5308367" lon="13.6048567"><ele>117.0</ele><time>2026-05-02T07:05:45.492Z</time></trkpt><trkpt lat="41.5309467" lon="13.604605"><ele>117.0</ele><time>2026-05-02T07:05:46.493Z</time></trkpt><trkpt lat="41.531055" lon="13.604355"><ele>116.0</ele><time>2026-05-02T07:05:47.492Z</time></trkpt><trkpt lat="41.53116" lon="13.6041033"><ele>115.0</ele><time>2026-05-02T07:05:48.492Z</time></trkpt><trkpt lat="41.531265" lon="13.6038517"><ele>114.0</ele><time>2026-05-02T07:05:49.492Z</time></trkpt><trkpt lat="41.53137" lon="13.603605"><ele>112.66666666666666</ele><time>2026-05-02T07:05:50.492Z</time></trkpt><trkpt lat="41.531475" lon="13.6033567"><ele>111.33333333333333</ele><time>2026-05-02T07:05:51.492Z</time></trkpt><trkpt lat="41.5315783" lon="13.6031067"><ele>110.0</ele><time>2026-05-02T07:05:52.492Z</time></trkpt><trkpt lat="41.5316833" lon="13.602855"><ele>110.66666666666666</ele><time>2026-05-02T07:05:53.492Z</time></trkpt><trkpt lat="41.5317883" lon="13.6026083"><ele>111.33333333333334</ele><time>2026-05-02T07:05:54.492Z</time></trkpt><trkpt lat="41.5319017" lon="13.60236"><ele>112.0</ele><time>2026-05-02T07:05:55.492Z</time></trkpt><trkpt lat="41.53201" lon="13.6021083"><ele>113.66666666666667</ele><time>2026-05-02T07:05:56.492Z</time></trkpt><trkpt lat="41.5321167" lon="13.6018567"><ele>115.33333333333334</ele><time>2026-05-02T07:05:57.492Z</time></trkpt><trkpt lat="41.5322233" lon="13.6016083"><ele>117.0</ele><time>2026-05-02T07:05:58.492Z</time></trkpt><trkpt lat="41.5323317" lon="13.6013533"><ele>116.5</ele><time>2026-05-02T07:05:59.492Z</time></trkpt><trkpt lat="41.532435" lon="13.6011017"><ele>116.0</ele><time>2026-05-02T07:06:00.492Z</time></trkpt><trkpt lat="41.5326417" lon="13.6005983"><ele>116.0</ele><time>2026-05-02T07:06:02.492Z</time></trkpt><trkpt lat="41.5327467" lon="13.6003483"><ele>116.0</ele><time>2026-05-02T07:06:03.493Z</time></trkpt><trkpt lat="41.5328533" lon="13.6000983"><ele>116.0</ele><time>2026-05-02T07:06:04.493Z</time></trkpt><trkpt lat="41.5329567" lon="13.59984"><ele>117.0</ele><time>2026-05-02T07:06:05.492Z</time></trkpt><trkpt lat="41.5330683" lon="13.5995883"><ele>118.0</ele><time>2026-05-02T07:06:06.492Z</time></trkpt><trkpt lat="41.5331833" lon="13.59933"><ele>119.0</ele><time>2026-05-02T07:06:07.492Z</time></trkpt><trkpt lat="41.53329" lon="13.5990733"><ele>119.0</ele><time>2026-05-02T07:06:08.492Z</time></trkpt><trkpt lat="41.533395" lon="13.598815"><ele>119.0</ele><time>2026-05-02T07:06:09.492Z</time></trkpt><trkpt lat="41.5335067" lon="13.5985617"><ele>119.0</ele><time>2026-05-02T07:06:10.492Z</time></trkpt><trkpt lat="41.533615" lon="13.598305"><ele>119.0</ele><time>2026-05-02T07:06:11.492Z</time></trkpt><trkpt lat="41.5337217" lon="13.5980483"><ele>119.0</ele><time>2026-05-02T07:06:12.492Z</time></trkpt><trkpt lat="41.5338283" lon="13.597795"><ele>119.0</ele><time>2026-05-02T07:06:13.493Z</time></trkpt><trkpt lat="41.5339333" lon="13.5975433"><ele>119.0</ele><time>2026-05-02T07:06:14.492Z</time></trkpt><trkpt lat="41.53404" lon="13.597295"><ele>119.0</ele><time>2026-05-02T07:06:15.492Z</time></trkpt><trkpt lat="41.5341467" lon="13.59705"><ele>119.0</ele><time>2026-05-02T07:06:16.492Z</time></trkpt><trkpt lat="41.5342517" lon="13.5967933"><ele>119.0</ele><time>2026-05-02T07:06:17.492Z</time></trkpt><trkpt lat="41.534365" lon="13.59654"><ele>119.0</ele><time>2026-05-02T07:06:18.492Z</time></trkpt><trkpt lat="41.5344783" lon="13.5962833"><ele>119.0</ele><time>2026-05-02T07:06:19.493Z</time></trkpt><trkpt lat="41.534585" lon="13.596025"><ele>118.66666666666666</ele><time>2026-05-02T07:06:20.492Z</time></trkpt><trkpt lat="41.5346917" lon="13.59577"><ele>118.33333333333334</ele><time>2026-05-02T07:06:21.492Z</time></trkpt><trkpt lat="41.5348" lon="13.595515"><ele>118.0</ele><time>2026-05-02T07:06:22.492Z</time></trkpt><trkpt lat="41.5349067" lon="13.5952667"><ele>118.0</ele><time>2026-05-02T07:06:23.492Z</time></trkpt><trkpt lat="41.5350133" lon="13.5950133"><ele>118.0</ele><time>2026-05-02T07:06:24.492Z</time></trkpt><trkpt lat="41.5351233" lon="13.59476"><ele>118.0</ele><time>2026-05-02T07:06:25.492Z</time></trkpt><trkpt lat="41.5352333" lon="13.594505"><ele>118.66666666666667</ele><time>2026-05-02T07:06:26.492Z</time></trkpt><trkpt lat="41.5353383" lon="13.59425"><ele>119.33333333333334</ele><time>2026-05-02T07:06:27.492Z</time></trkpt><trkpt lat="41.5354417" lon="13.5939883"><ele>120.0</ele><time>2026-05-02T07:06:28.492Z</time></trkpt><trkpt lat="41.535555" lon="13.5937333"><ele>120.0</ele><time>2026-05-02T07:06:29.492Z</time></trkpt><trkpt lat="41.5356667" lon="13.5934767"><ele>120.0</ele><time>2026-05-02T07:06:30.492Z</time></trkpt><trkpt lat="41.5357717" lon="13.5932217"><ele>120.0</ele><time>2026-05-02T07:06:31.492Z</time></trkpt><trkpt lat="41.5358767" lon="13.5929733"><ele>119.33333333333334</ele><time>2026-05-02T07:06:32.492Z</time></trkpt><trkpt lat="41.53598" lon="13.59272"><ele>118.66666666666667</ele><time>2026-05-02T07:06:33.493Z</time></trkpt><trkpt lat="41.5360933" lon="13.5924633"><ele>118.0</ele><time>2026-05-02T07:06:34.493Z</time></trkpt><trkpt lat="41.5362017" lon="13.5922117"><ele>119.0</ele><time>2026-05-02T07:06:35.492Z</time></trkpt><trkpt lat="41.5363067" lon="13.5919633"><ele>120.0</ele><time>2026-05-02T07:06:36.492Z</time></trkpt><trkpt lat="41.5364083" lon="13.59171"><ele>121.0</ele><time>2026-05-02T07:06:37.492Z</time></trkpt><trkpt lat="41.536515" lon="13.5914667"><ele>121.0</ele><time>2026-05-02T07:06:38.492Z</time></trkpt><trkpt lat="41.536625" lon="13.5912217"><ele>121.0</ele><time>2026-05-02T07:06:39.492Z</time></trkpt><trkpt lat="41.5367283" lon="13.5909733"><ele>121.0</ele><time>2026-05-02T07:06:40.492Z</time></trkpt><trkpt lat="41.5368333" lon="13.5907333"><ele>121.0</ele><time>2026-05-02T07:06:41.492Z</time></trkpt><trkpt lat="41.5369367" lon="13.5904817"><ele>121.0</ele><time>2026-05-02T07:06:42.492Z</time></trkpt><trkpt lat="41.5370417" lon="13.5902317"><ele>121.0</ele><time>2026-05-02T07:06:43.492Z</time></trkpt><trkpt lat="41.537145" lon="13.589985"><ele>121.66666666666667</ele><time>2026-05-02T07:06:44.492Z</time></trkpt><trkpt lat="41.53725" lon="13.5897383"><ele>122.33333333333334</ele><time>2026-05-02T07:06:45.492Z</time></trkpt><trkpt lat="41.537355" lon="13.58949"><ele>123.0</ele><time>2026-05-02T07:06:46.492Z</time></trkpt><trkpt lat="41.53746" lon="13.5892417"><ele>123.33333333333334</ele><time>2026-05-02T07:06:47.492Z</time></trkpt><trkpt lat="41.5375683" lon="13.5889933"><ele>123.66666666666667</ele><time>2026-05-02T07:06:48.493Z</time></trkpt><trkpt lat="41.5376733" lon="13.5887433"><ele>124.0</ele><time>2026-05-02T07:06:49.492Z</time></trkpt><trkpt lat="41.5377833" lon="13.58849"><ele>123.0</ele><time>2026-05-02T07:06:50.492Z</time></trkpt><trkpt lat="41.5378933" lon="13.58823"><ele>122.0</ele><time>2026-05-02T07:06:51.492Z</time></trkpt><trkpt lat="41.5379983" lon="13.587975"><ele>121.0</ele><time>2026-05-02T07:06:52.492Z</time></trkpt><trkpt lat="41.538105" lon="13.5877183"><ele>121.0</ele><time>2026-05-02T07:06:53.492Z</time></trkpt><trkpt lat="41.5382183" lon="13.5874667"><ele>121.0</ele><time>2026-05-02T07:06:54.492Z</time></trkpt><trkpt lat="41.53833" lon="13.5872067"><ele>121.0</ele><time>2026-05-02T07:06:55.493Z</time></trkpt><trkpt lat="41.5384383" lon="13.5869467"><ele>121.5</ele><time>2026-05-02T07:06:56.492Z</time></trkpt><trkpt lat="41.53855" lon="13.5866833"><ele>122.0</ele><time>2026-05-02T07:06:57.492Z</time></trkpt><trkpt lat="41.53866" lon="13.5864233"><ele>122.33333333333333</ele><time>2026-05-02T07:06:58.492Z</time></trkpt><trkpt lat="41.538775" lon="13.5861633"><ele>122.66666666666666</ele><time>2026-05-02T07:06:59.492Z</time></trkpt><trkpt lat="41.5388783" lon="13.5859017"><ele>123.0</ele><time>2026-05-02T07:07:00.492Z</time></trkpt><trkpt lat="41.53899" lon="13.5856367"><ele>123.0</ele><time>2026-05-02T07:07:01.492Z</time></trkpt><trkpt lat="41.539095" lon="13.5853717"><ele>123.0</ele><time>2026-05-02T07:07:02.492Z</time></trkpt><trkpt lat="41.5391983" lon="13.585105"><ele>123.0</ele><time>2026-05-02T07:07:03.492Z</time></trkpt><trkpt lat="41.5393" lon="13.5848383"><ele>122.5</ele><time>2026-05-02T07:07:04.492Z</time></trkpt><trkpt lat="41.5394033" lon="13.5845683"><ele>122.0</ele><time>2026-05-02T07:07:05.492Z</time></trkpt><trkpt lat="41.539505" lon="13.5842983"><ele>122.66666666666666</ele><time>2026-05-02T07:07:06.492Z</time></trkpt><trkpt lat="41.5396067" lon="13.58403"><ele>123.33333333333334</ele><time>2026-05-02T07:07:07.492Z</time></trkpt><trkpt lat="41.5397083" lon="13.5837633"><ele>124.0</ele><time>2026-05-02T07:07:08.492Z</time></trkpt><trkpt lat="41.5398083" lon="13.5834883"><ele>121.5</ele><time>2026-05-02T07:07:09.492Z</time></trkpt><trkpt lat="41.5399083" lon="13.583215"><ele>119.0</ele><time>2026-05-02T07:07:10.492Z</time></trkpt><trkpt lat="41.5400033" lon="13.5829467"><ele>118.0</ele><time>2026-05-02T07:07:11.492Z</time></trkpt><trkpt lat="41.5400933" lon="13.582675"><ele>117.0</ele><time>2026-05-02T07:07:12.492Z</time></trkpt><trkpt lat="41.5401883" lon="13.582405"><ele>116.0</ele><time>2026-05-02T07:07:13.493Z</time></trkpt><trkpt lat="41.540285" lon="13.5821267"><ele>116.0</ele><time>2026-05-02T07:07:14.492Z</time></trkpt><trkpt lat="41.54038" lon="13.5818517"><ele>116.0</ele><time>2026-05-02T07:07:15.492Z</time></trkpt><trkpt lat="41.5404683" lon="13.5815833"><ele>116.0</ele><time>2026-05-02T07:07:16.492Z</time></trkpt><trkpt lat="41.5405533" lon="13.5813083"><ele>114.0</ele><time>2026-05-02T07:07:17.492Z</time></trkpt><trkpt lat="41.5406417" lon="13.5810333"><ele>112.0</ele><time>2026-05-02T07:07:18.492Z</time></trkpt><trkpt lat="41.54073" lon="13.5807533"><ele>112.0</ele><time>2026-05-02T07:07:19.492Z</time></trkpt><trkpt lat="41.5408167" lon="13.5804817"><ele>112.0</ele><time>2026-05-02T07:07:20.492Z</time></trkpt><trkpt lat="41.5409017" lon="13.5802067"><ele>112.0</ele><time>2026-05-02T07:07:21.492Z</time></trkpt><trkpt lat="41.5409867" lon="13.5799267"><ele>109.33333333333334</ele><time>2026-05-02T07:07:22.492Z</time></trkpt><trkpt lat="41.5410667" lon="13.5796583"><ele>106.66666666666666</ele><time>2026-05-02T07:07:23.492Z</time></trkpt><trkpt lat="41.54115" lon="13.5793833"><ele>104.0</ele><time>2026-05-02T07:07:24.492Z</time></trkpt><trkpt lat="41.54123" lon="13.5791117"><ele>104.33333333333333</ele><time>2026-05-02T07:07:25.492Z</time></trkpt><trkpt lat="41.5413067" lon="13.5788383"><ele>104.66666666666666</ele><time>2026-05-02T07:07:26.492Z</time></trkpt><trkpt lat="41.54139" lon="13.5785717"><ele>105.0</ele><time>2026-05-02T07:07:27.492Z</time></trkpt><trkpt lat="41.5414667" lon="13.5783017"><ele>105.0</ele><time>2026-05-02T07:07:28.492Z</time></trkpt><trkpt lat="41.541545" lon="13.57803"><ele>105.0</ele><time>2026-05-02T07:07:29.492Z</time></trkpt><trkpt lat="41.5416183" lon="13.5777517"><ele>105.0</ele><time>2026-05-02T07:07:30.492Z</time></trkpt><trkpt lat="41.5416933" lon="13.5774717"><ele>105.0</ele><time>2026-05-02T07:07:31.492Z</time></trkpt><trkpt lat="41.5417617" lon="13.5771883"><ele>105.0</ele><time>2026-05-02T07:07:32.492Z</time></trkpt><trkpt lat="41.5418367" lon="13.576915"><ele>105.0</ele><time>2026-05-02T07:07:33.493Z</time></trkpt><trkpt lat="41.5419017" lon="13.5766417"><ele>105.0</ele><time>2026-05-02T07:07:34.492Z</time></trkpt><trkpt lat="41.541975" lon="13.5763633"><ele>105.0</ele><time>2026-05-02T07:07:35.492Z</time></trkpt><trkpt lat="41.5420483" lon="13.5760917"><ele>105.0</ele><time>2026-05-02T07:07:36.492Z</time></trkpt><trkpt lat="41.54212" lon="13.575815"><ele>105.0</ele><time>2026-05-02T07:07:37.492Z</time></trkpt><trkpt lat="41.5421833" lon="13.575545"><ele>105.0</ele><time>2026-05-02T07:07:38.492Z</time></trkpt><trkpt lat="41.5422467" lon="13.575275"><ele>105.0</ele><time>2026-05-02T07:07:39.492Z</time></trkpt><trkpt lat="41.54231" lon="13.575005"><ele>105.0</ele><time>2026-05-02T07:07:40.492Z</time></trkpt><trkpt lat="41.5423733" lon="13.5747333"><ele>105.0</ele><time>2026-05-02T07:07:41.492Z</time></trkpt><trkpt lat="41.54243" lon="13.5744633"><ele>105.0</ele><time>2026-05-02T07:07:42.492Z</time></trkpt><trkpt lat="41.5424867" lon="13.5741883"><ele>107.66666666666666</ele><time>2026-05-02T07:07:43.492Z</time></trkpt><trkpt lat="41.5425467" lon="13.5739117"><ele>110.33333333333333</ele><time>2026-05-02T07:07:44.492Z</time></trkpt><trkpt lat="41.5426083" lon="13.5736367"><ele>113.0</ele><time>2026-05-02T07:07:45.492Z</time></trkpt><trkpt lat="41.5426717" lon="13.57336"><ele>114.0</ele><time>2026-05-02T07:07:46.493Z</time></trkpt><trkpt lat="41.5427333" lon="13.573075"><ele>115.0</ele><time>2026-05-02T07:07:47.492Z</time></trkpt><trkpt lat="41.5427933" lon="13.5727983"><ele>116.0</ele><time>2026-05-02T07:07:48.493Z</time></trkpt><trkpt lat="41.5428483" lon="13.5725117"><ele>117.66666666666666</ele><time>2026-05-02T07:07:49.492Z</time></trkpt><trkpt lat="41.5429017" lon="13.5722217"><ele>119.33333333333334</ele><time>2026-05-02T07:07:50.492Z</time></trkpt><trkpt lat="41.54295" lon="13.571935"><ele>121.0</ele><time>2026-05-02T07:07:51.492Z</time></trkpt><trkpt lat="41.5430067" lon="13.5716483"><ele>121.0</ele><time>2026-05-02T07:07:52.492Z</time></trkpt><trkpt lat="41.5430583" lon="13.57136"><ele>121.0</ele><time>2026-05-02T07:07:53.492Z</time></trkpt><trkpt lat="41.5431133" lon="13.5710633"><ele>122.5</ele><time>2026-05-02T07:07:54.492Z</time></trkpt><trkpt lat="41.543165" lon="13.5707717"><ele>124.0</ele><time>2026-05-02T07:07:55.492Z</time></trkpt><trkpt lat="41.5432167" lon="13.5704783"><ele>125.0</ele><time>2026-05-02T07:07:56.492Z</time></trkpt><trkpt lat="41.5432667" lon="13.5701833"><ele>126.0</ele><time>2026-05-02T07:07:57.492Z</time></trkpt><trkpt lat="41.54331" lon="13.5698917"><ele>127.0</ele><time>2026-05-02T07:07:58.492Z</time></trkpt><trkpt lat="41.5433583" lon="13.5696017"><ele>127.0</ele><time>2026-05-02T07:07:59.492Z</time></trkpt><trkpt lat="41.543405" lon="13.569315"><ele>127.0</ele><time>2026-05-02T07:08:00.492Z</time></trkpt><trkpt lat="41.54345" lon="13.5690217"><ele>127.0</ele><time>2026-05-02T07:08:01.492Z</time></trkpt><trkpt lat="41.54349" lon="13.5687367"><ele>127.33333333333334</ele><time>2026-05-02T07:08:02.492Z</time></trkpt><trkpt lat="41.5435283" lon="13.5684467"><ele>127.66666666666666</ele><time>2026-05-02T07:08:03.492Z</time></trkpt><trkpt lat="41.543565" lon="13.5681583"><ele>128.0</ele><time>2026-05-02T07:08:04.492Z</time></trkpt><trkpt lat="41.5435983" lon="13.5678683"><ele>128.66666666666666</ele><time>2026-05-02T07:08:05.492Z</time></trkpt><trkpt lat="41.5436383" lon="13.56759"><ele>129.33333333333334</ele><time>2026-05-02T07:08:06.493Z</time></trkpt><trkpt lat="41.543675" lon="13.5673083"><ele>130.0</ele><time>2026-05-02T07:08:07.492Z</time></trkpt><trkpt lat="41.54371" lon="13.567025"><ele>131.66666666666669</ele><time>2026-05-02T07:08:08.492Z</time></trkpt><trkpt lat="41.5437433" lon="13.5667417"><ele>133.33333333333334</ele><time>2026-05-02T07:08:09.492Z</time></trkpt><trkpt lat="41.5437717" lon="13.56646"><ele>135.0</ele><time>2026-05-02T07:08:10.492Z</time></trkpt><trkpt lat="41.5438083" lon="13.5661733"><ele>135.33333333333334</ele><time>2026-05-02T07:08:11.493Z</time></trkpt><trkpt lat="41.54384" lon="13.5658883"><ele>135.66666666666669</ele><time>2026-05-02T07:08:12.492Z</time></trkpt><trkpt lat="41.5438767" lon="13.5656"><ele>136.0</ele><time>2026-05-02T07:08:13.492Z</time></trkpt><trkpt lat="41.5439067" lon="13.5653117"><ele>136.0</ele><time>2026-05-02T07:08:14.492Z</time></trkpt><trkpt lat="41.5439333" lon="13.56502"><ele>136.0</ele><time>2026-05-02T07:08:15.492Z</time></trkpt><trkpt lat="41.54396" lon="13.56473"><ele>136.0</ele><time>2026-05-02T07:08:16.492Z</time></trkpt><trkpt lat="41.543985" lon="13.5644467"><ele>136.0</ele><time>2026-05-02T07:08:17.492Z</time></trkpt><trkpt lat="41.5440067" lon="13.5641483"><ele>136.0</ele><time>2026-05-02T07:08:18.493Z</time></trkpt><trkpt lat="41.5440317" lon="13.5638533"><ele>136.0</ele><time>2026-05-02T07:08:19.492Z</time></trkpt><trkpt lat="41.544055" lon="13.56356"><ele>136.0</ele><time>2026-05-02T07:08:20.492Z</time></trkpt><trkpt lat="41.5440783" lon="13.56326"><ele>136.0</ele><time>2026-05-02T07:08:21.492Z</time></trkpt><trkpt lat="41.5441" lon="13.5629567"><ele>136.33333333333334</ele><time>2026-05-02T07:08:22.492Z</time></trkpt><trkpt lat="41.54412" lon="13.5626583"><ele>136.66666666666666</ele><time>2026-05-02T07:08:23.492Z</time></trkpt><trkpt lat="41.5441367" lon="13.56236"><ele>137.0</ele><time>2026-05-02T07:08:24.492Z</time></trkpt><trkpt lat="41.544155" lon="13.5620667"><ele>136.66666666666666</ele><time>2026-05-02T07:08:25.492Z</time></trkpt><trkpt lat="41.5441683" lon="13.56177"><ele>136.33333333333334</ele><time>2026-05-02T07:08:26.492Z</time></trkpt><trkpt lat="41.5441867" lon="13.5614833"><ele>136.0</ele><time>2026-05-02T07:08:27.492Z</time></trkpt><trkpt lat="41.5442067" lon="13.561195"><ele>136.0</ele><time>2026-05-02T07:08:28.493Z</time></trkpt><trkpt lat="41.5442183" lon="13.5609017"><ele>136.0</ele><time>2026-05-02T07:08:29.492Z</time></trkpt><trkpt lat="41.5442233" lon="13.5606283"><ele>136.0</ele><time>2026-05-02T07:08:30.492Z</time></trkpt><trkpt lat="41.5442333" lon="13.56034"><ele>136.0</ele><time>2026-05-02T07:08:31.492Z</time></trkpt><trkpt lat="41.5442433" lon="13.5600483"><ele>136.0</ele><time>2026-05-02T07:08:32.492Z</time></trkpt><trkpt lat="41.5442633" lon="13.5597533"><ele>136.0</ele><time>2026-05-02T07:08:33.492Z</time></trkpt><trkpt lat="41.5442717" lon="13.5594617"><ele>134.5</ele><time>2026-05-02T07:08:34.492Z</time></trkpt><trkpt lat="41.5442817" lon="13.559155"><ele>133.0</ele><time>2026-05-02T07:08:35.492Z</time></trkpt><trkpt lat="41.5442883" lon="13.5588583"><ele>132.0</ele><time>2026-05-02T07:08:36.492Z</time></trkpt><trkpt lat="41.544295" lon="13.558555"><ele>131.0</ele><time>2026-05-02T07:08:37.492Z</time></trkpt><trkpt lat="41.5442983" lon="13.5582567"><ele>131.0</ele><time>2026-05-02T07:08:38.492Z</time></trkpt><trkpt lat="41.5443017" lon="13.5579617"><ele>131.0</ele><time>2026-05-02T07:08:39.492Z</time></trkpt><trkpt lat="41.5443033" lon="13.557665"><ele>131.0</ele><time>2026-05-02T07:08:40.492Z</time></trkpt><trkpt lat="41.5443" lon="13.5573767"><ele>130.66666666666666</ele><time>2026-05-02T07:08:41.492Z</time></trkpt><trkpt lat="41.5443" lon="13.55708"><ele>130.33333333333334</ele><time>2026-05-02T07:08:42.492Z</time></trkpt><trkpt lat="41.5442983" lon="13.556795"><ele>130.0</ele><time>2026-05-02T07:08:43.492Z</time></trkpt><trkpt lat="41.544295" lon="13.55652"><ele>130.66666666666669</ele><time>2026-05-02T07:08:44.492Z</time></trkpt><trkpt lat="41.5442917" lon="13.5562517"><ele>131.33333333333334</ele><time>2026-05-02T07:08:45.492Z</time></trkpt><trkpt lat="41.5442933" lon="13.555975"><ele>132.0</ele><time>2026-05-02T07:08:46.492Z</time></trkpt><trkpt lat="41.5442867" lon="13.5557017"><ele>132.33333333333334</ele><time>2026-05-02T07:08:47.492Z</time></trkpt><trkpt lat="41.5442767" lon="13.5554267"><ele>132.66666666666669</ele><time>2026-05-02T07:08:48.492Z</time></trkpt><trkpt lat="41.544265" lon="13.5551467"><ele>133.0</ele><time>2026-05-02T07:08:49.492Z</time></trkpt><trkpt lat="41.5442533" lon="13.554865"><ele>133.0</ele><time>2026-05-02T07:08:50.492Z</time></trkpt><trkpt lat="41.5442417" lon="13.5545883"><ele>133.0</ele><time>2026-05-02T07:08:51.492Z</time></trkpt><trkpt lat="41.5442217" lon="13.5543117"><ele>133.0</ele><time>2026-05-02T07:08:52.492Z</time></trkpt><trkpt lat="41.544215" lon="13.5540317"><ele>132.66666666666669</ele><time>2026-05-02T07:08:53.492Z</time></trkpt><trkpt lat="41.54421" lon="13.5537433"><ele>132.33333333333334</ele><time>2026-05-02T07:08:54.492Z</time></trkpt><trkpt lat="41.5442083" lon="13.553455"><ele>132.0</ele><time>2026-05-02T07:08:55.492Z</time></trkpt><trkpt lat="41.5442033" lon="13.5531733"><ele>132.0</ele><time>2026-05-02T07:08:56.492Z</time></trkpt><trkpt lat="41.5441867" lon="13.5528917"><ele>132.0</ele><time>2026-05-02T07:08:57.493Z</time></trkpt><trkpt lat="41.5441767" lon="13.5526117"><ele>132.0</ele><time>2026-05-02T07:08:58.492Z</time></trkpt><trkpt lat="41.544175" lon="13.552325"><ele>132.0</ele><time>2026-05-02T07:08:59.492Z</time></trkpt><trkpt lat="41.5441667" lon="13.5520433"><ele>132.0</ele><time>2026-05-02T07:09:00.492Z</time></trkpt><trkpt lat="41.5441617" lon="13.55176"><ele>132.0</ele><time>2026-05-02T07:09:01.492Z</time></trkpt><trkpt lat="41.544145" lon="13.5514867"><ele>132.0</ele><time>2026-05-02T07:09:02.492Z</time></trkpt><trkpt lat="41.544135" lon="13.55121"><ele>132.0</ele><time>2026-05-02T07:09:03.492Z</time></trkpt><trkpt lat="41.544125" lon="13.55093"><ele>132.0</ele><time>2026-05-02T07:09:04.492Z</time></trkpt><trkpt lat="41.544115" lon="13.550645"><ele>132.0</ele><time>2026-05-02T07:09:05.492Z</time></trkpt><trkpt lat="41.544105" lon="13.5503567"><ele>132.0</ele><time>2026-05-02T07:09:06.492Z</time></trkpt><trkpt lat="41.5440967" lon="13.5500683"><ele>132.0</ele><time>2026-05-02T07:09:07.492Z</time></trkpt><trkpt lat="41.5440933" lon="13.5497717"><ele>132.0</ele><time>2026-05-02T07:09:08.492Z</time></trkpt><trkpt lat="41.54408" lon="13.5494767"><ele>132.0</ele><time>2026-05-02T07:09:09.492Z</time></trkpt><trkpt lat="41.544075" lon="13.5491833"><ele>132.0</ele><time>2026-05-02T07:09:10.493Z</time></trkpt><trkpt lat="41.5440633" lon="13.5488833"><ele>131.33333333333334</ele><time>2026-05-02T07:09:11.492Z</time></trkpt><trkpt lat="41.544055" lon="13.5486"><ele>130.66666666666669</ele><time>2026-05-02T07:09:12.492Z</time></trkpt><trkpt lat="41.5440467" lon="13.5483183"><ele>130.0</ele><time>2026-05-02T07:09:13.492Z</time></trkpt><trkpt lat="41.5440433" lon="13.5480333"><ele>128.66666666666669</ele><time>2026-05-02T07:09:14.492Z</time></trkpt><trkpt lat="41.5440333" lon="13.54775"><ele>127.33333333333334</ele><time>2026-05-02T07:09:15.493Z</time></trkpt><trkpt lat="41.54402" lon="13.54747"><ele>126.0</ele><time>2026-05-02T07:09:16.492Z</time></trkpt><trkpt lat="41.5440117" lon="13.5471933"><ele>125.66666666666666</ele><time>2026-05-02T07:09:17.492Z</time></trkpt><trkpt lat="41.544005" lon="13.5469133"><ele>125.33333333333333</ele><time>2026-05-02T07:09:18.493Z</time></trkpt><trkpt lat="41.5439917" lon="13.5466333"><ele>125.0</ele><time>2026-05-02T07:09:19.492Z</time></trkpt><trkpt lat="41.54398" lon="13.5463517"><ele>124.0</ele><time>2026-05-02T07:09:20.492Z</time></trkpt><trkpt lat="41.5439717" lon="13.5460783"><ele>123.0</ele><time>2026-05-02T07:09:21.493Z</time></trkpt><trkpt lat="41.5439617" lon="13.5458"><ele>122.0</ele><time>2026-05-02T07:09:22.492Z</time></trkpt><trkpt lat="41.543955" lon="13.545525"><ele>120.33333333333333</ele><time>2026-05-02T07:09:23.492Z</time></trkpt><trkpt lat="41.5439467" lon="13.5452517"><ele>118.66666666666666</ele><time>2026-05-02T07:09:24.492Z</time></trkpt><trkpt lat="41.5439417" lon="13.5449733"><ele>117.0</ele><time>2026-05-02T07:09:25.492Z</time></trkpt><trkpt lat="41.5439333" lon="13.5447"><ele>115.33333333333334</ele><time>2026-05-02T07:09:26.493Z</time></trkpt><trkpt lat="41.5439233" lon="13.5444233"><ele>113.66666666666667</ele><time>2026-05-02T07:09:27.492Z</time></trkpt><trkpt lat="41.5439117" lon="13.5441533"><ele>112.0</ele><time>2026-05-02T07:09:28.492Z</time></trkpt><trkpt lat="41.543905" lon="13.5438767"><ele>111.66666666666667</ele><time>2026-05-02T07:09:29.492Z</time></trkpt><trkpt lat="41.5439017" lon="13.5435917"><ele>111.33333333333334</ele><time>2026-05-02T07:09:30.492Z</time></trkpt><trkpt lat="41.5438917" lon="13.5433117"><ele>111.0</ele><time>2026-05-02T07:09:31.492Z</time></trkpt><trkpt lat="41.5438867" lon="13.5430333"><ele>111.33333333333334</ele><time>2026-05-02T07:09:32.492Z</time></trkpt><trkpt lat="41.5438783" lon="13.5427567"><ele>111.66666666666667</ele><time>2026-05-02T07:09:33.493Z</time></trkpt><trkpt lat="41.5438683" lon="13.5424733"><ele>112.0</ele><time>2026-05-02T07:09:34.492Z</time></trkpt><trkpt lat="41.5438583" lon="13.5421917"><ele>113.66666666666667</ele><time>2026-05-02T07:09:35.492Z</time></trkpt><trkpt lat="41.5438483" lon="13.54191"><ele>115.33333333333334</ele><time>2026-05-02T07:09:36.492Z</time></trkpt><trkpt lat="41.54384" lon="13.5416267"><ele>117.0</ele><time>2026-05-02T07:09:37.492Z</time></trkpt><trkpt lat="41.5438333" lon="13.5413417"><ele>119.66666666666666</ele><time>2026-05-02T07:09:38.492Z</time></trkpt><trkpt lat="41.5438283" lon="13.54105"><ele>122.33333333333333</ele><time>2026-05-02T07:09:39.492Z</time></trkpt><trkpt lat="41.54382" lon="13.5407667"><ele>125.0</ele><time>2026-05-02T07:09:40.492Z</time></trkpt><trkpt lat="41.54381" lon="13.5404883"><ele>126.33333333333333</ele><time>2026-05-02T07:09:41.492Z</time></trkpt><trkpt lat="41.5438033" lon="13.54021"><ele>127.66666666666666</ele><time>2026-05-02T07:09:42.492Z</time></trkpt><trkpt lat="41.5438" lon="13.5399267"><ele>129.0</ele><time>2026-05-02T07:09:43.492Z</time></trkpt><trkpt lat="41.5437933" lon="13.53964"><ele>128.0</ele><time>2026-05-02T07:09:44.492Z</time></trkpt><trkpt lat="41.5437867" lon="13.539355"><ele>127.0</ele><time>2026-05-02T07:09:45.492Z</time></trkpt><trkpt lat="41.5437783" lon="13.5390617"><ele>126.0</ele><time>2026-05-02T07:09:46.493Z</time></trkpt><trkpt lat="41.5437717" lon="13.5387767"><ele>125.33333333333334</ele><time>2026-05-02T07:09:47.492Z</time></trkpt><trkpt lat="41.5437617" lon="13.53849"><ele>124.66666666666667</ele><time>2026-05-02T07:09:48.492Z</time></trkpt><trkpt lat="41.5437517" lon="13.538205"><ele>124.0</ele><time>2026-05-02T07:09:49.492Z</time></trkpt><trkpt lat="41.5437417" lon="13.5379267"><ele>124.66666666666667</ele><time>2026-05-02T07:09:50.493Z</time></trkpt><trkpt lat="41.543735" lon="13.5376433"><ele>125.33333333333334</ele><time>2026-05-02T07:09:51.492Z</time></trkpt><trkpt lat="41.5437283" lon="13.537355"><ele>126.0</ele><time>2026-05-02T07:09:52.492Z</time></trkpt><trkpt lat="41.5437167" lon="13.5370633"><ele>126.0</ele><time>2026-05-02T07:09:53.492Z</time></trkpt><trkpt lat="41.54371" lon="13.5367717"><ele>126.0</ele><time>2026-05-02T07:09:54.492Z</time></trkpt><trkpt lat="41.5436983" lon="13.536475"><ele>126.0</ele><time>2026-05-02T07:09:55.492Z</time></trkpt><trkpt lat="41.5436883" lon="13.5361833"><ele>126.0</ele><time>2026-05-02T07:09:56.492Z</time></trkpt><trkpt lat="41.543675" lon="13.53589"><ele>126.0</ele><time>2026-05-02T07:09:57.492Z</time></trkpt><trkpt lat="41.543665" lon="13.535595"><ele>126.0</ele><time>2026-05-02T07:09:58.492Z</time></trkpt><trkpt lat="41.543655" lon="13.535305"><ele>126.5</ele><time>2026-05-02T07:09:59.492Z</time></trkpt><trkpt lat="41.54365" lon="13.5350083"><ele>127.0</ele><time>2026-05-02T07:10:00.492Z</time></trkpt><trkpt lat="41.5436417" lon="13.5347033"><ele>127.66666666666667</ele><time>2026-05-02T07:10:01.492Z</time></trkpt><trkpt lat="41.5436333" lon="13.534405"><ele>128.33333333333334</ele><time>2026-05-02T07:10:02.493Z</time></trkpt><trkpt lat="41.5436217" lon="13.534115"><ele>129.0</ele><time>2026-05-02T07:10:03.492Z</time></trkpt><trkpt lat="41.5436117" lon="13.5338183"><ele>130.0</ele><time>2026-05-02T07:10:04.492Z</time></trkpt><trkpt lat="41.5436017" lon="13.5335217"><ele>131.0</ele><time>2026-05-02T07:10:05.492Z</time></trkpt><trkpt lat="41.54359" lon="13.5332283"><ele>132.0</ele><time>2026-05-02T07:10:06.492Z</time></trkpt><trkpt lat="41.5435833" lon="13.5329367"><ele>132.66666666666666</ele><time>2026-05-02T07:10:07.492Z</time></trkpt><trkpt lat="41.5435767" lon="13.5326367"><ele>133.33333333333331</ele><time>2026-05-02T07:10:08.492Z</time></trkpt><trkpt lat="41.5435683" lon="13.532345"><ele>134.0</ele><time>2026-05-02T07:10:09.492Z</time></trkpt><trkpt lat="41.5435617" lon="13.5320567"><ele>133.0</ele><time>2026-05-02T07:10:10.492Z</time></trkpt><trkpt lat="41.54355" lon="13.5317717"><ele>132.0</ele><time>2026-05-02T07:10:11.492Z</time></trkpt><trkpt lat="41.5435383" lon="13.5314867"><ele>131.0</ele><time>2026-05-02T07:10:12.492Z</time></trkpt><trkpt lat="41.543525" lon="13.5312033"><ele>128.66666666666666</ele><time>2026-05-02T07:10:13.492Z</time></trkpt><trkpt lat="41.5435167" lon="13.5309167"><ele>126.33333333333334</ele><time>2026-05-02T07:10:14.492Z</time></trkpt><trkpt lat="41.5435083" lon="13.5306267"><ele>124.0</ele><time>2026-05-02T07:10:15.492Z</time></trkpt><trkpt lat="41.5435033" lon="13.530335"><ele>121.66666666666667</ele><time>2026-05-02T07:10:16.492Z</time></trkpt><trkpt lat="41.543495" lon="13.5300433"><ele>119.33333333333334</ele><time>2026-05-02T07:10:17.492Z</time></trkpt><trkpt lat="41.5434817" lon="13.5297533"><ele>117.0</ele><time>2026-05-02T07:10:18.492Z</time></trkpt><trkpt lat="41.543475" lon="13.5294567"><ele>116.0</ele><time>2026-05-02T07:10:19.492Z</time></trkpt><trkpt lat="41.5434683" lon="13.52916"><ele>115.0</ele><time>2026-05-02T07:10:20.492Z</time></trkpt><trkpt lat="41.5434533" lon="13.5288633"><ele>114.0</ele><time>2026-05-02T07:10:21.492Z</time></trkpt><trkpt lat="41.543445" lon="13.5285633"><ele>113.33333333333334</ele><time>2026-05-02T07:10:22.492Z</time></trkpt><trkpt lat="41.543435" lon="13.5282667"><ele>112.66666666666667</ele><time>2026-05-02T07:10:23.492Z</time></trkpt><trkpt lat="41.5434233" lon="13.5279733"><ele>112.0</ele><time>2026-05-02T07:10:24.492Z</time></trkpt><trkpt lat="41.5434183" lon="13.5276667"><ele>111.66666666666667</ele><time>2026-05-02T07:10:25.492Z</time></trkpt><trkpt lat="41.54341" lon="13.5273717"><ele>111.33333333333334</ele><time>2026-05-02T07:10:26.492Z</time></trkpt><trkpt lat="41.5434017" lon="13.5270767"><ele>111.0</ele><time>2026-05-02T07:10:27.492Z</time></trkpt><trkpt lat="41.5433967" lon="13.5267783"><ele>110.33333333333334</ele><time>2026-05-02T07:10:28.492Z</time></trkpt><trkpt lat="41.5433833" lon="13.5264833"><ele>109.66666666666667</ele><time>2026-05-02T07:10:29.492Z</time></trkpt><trkpt lat="41.543375" lon="13.52619"><ele>109.0</ele><time>2026-05-02T07:10:30.492Z</time></trkpt><trkpt lat="41.5433667" lon="13.5258967"><ele>108.0</ele><time>2026-05-02T07:10:31.492Z</time></trkpt><trkpt lat="41.5433567" lon="13.525605"><ele>107.0</ele><time>2026-05-02T07:10:32.492Z</time></trkpt><trkpt lat="41.54335" lon="13.5253133"><ele>106.0</ele><time>2026-05-02T07:10:33.492Z</time></trkpt><trkpt lat="41.5433367" lon="13.5250333"><ele>105.0</ele><time>2026-05-02T07:10:34.492Z</time></trkpt><trkpt lat="41.54333" lon="13.5247517"><ele>104.0</ele><time>2026-05-02T07:10:35.492Z</time></trkpt><trkpt lat="41.5433183" lon="13.5244783"><ele>103.0</ele><time>2026-05-02T07:10:36.492Z</time></trkpt><trkpt lat="41.543315" lon="13.5242067"><ele>102.33333333333334</ele><time>2026-05-02T07:10:37.492Z</time></trkpt><trkpt lat="41.5433117" lon="13.52394"><ele>101.66666666666666</ele><time>2026-05-02T07:10:38.492Z</time></trkpt><trkpt lat="41.54331" lon="13.5236733"><ele>101.0</ele><time>2026-05-02T07:10:39.492Z</time></trkpt><trkpt lat="41.5433" lon="13.5233983"><ele>100.33333333333333</ele><time>2026-05-02T07:10:40.492Z</time></trkpt><trkpt lat="41.5432917" lon="13.5231217"><ele>99.66666666666666</ele><time>2026-05-02T07:10:41.492Z</time></trkpt><trkpt lat="41.5432783" lon="13.5228417"><ele>99.0</ele><time>2026-05-02T07:10:42.492Z</time></trkpt><trkpt lat="41.5432667" lon="13.5225567"><ele>98.66666666666666</ele><time>2026-05-02T07:10:43.492Z</time></trkpt><trkpt lat="41.5432583" lon="13.52227"><ele>98.33333333333333</ele><time>2026-05-02T07:10:44.492Z</time></trkpt><trkpt lat="41.543245" lon="13.5219833"><ele>98.0</ele><time>2026-05-02T07:10:45.492Z</time></trkpt><trkpt lat="41.5432317" lon="13.5217033"><ele>97.66666666666666</ele><time>2026-05-02T07:10:46.492Z</time></trkpt><trkpt lat="41.5432183" lon="13.52142"><ele>97.33333333333334</ele><time>2026-05-02T07:10:47.492Z</time></trkpt><trkpt lat="41.5432083" lon="13.521135"><ele>97.0</ele><time>2026-05-02T07:10:48.492Z</time></trkpt><trkpt lat="41.5432017" lon="13.5208467"><ele>96.33333333333334</ele><time>2026-05-02T07:10:49.492Z</time></trkpt><trkpt lat="41.5431983" lon="13.5205667"><ele>95.66666666666667</ele><time>2026-05-02T07:10:50.492Z</time></trkpt><trkpt lat="41.5431867" lon="13.52029"><ele>95.0</ele><time>2026-05-02T07:10:51.492Z</time></trkpt><trkpt lat="41.5431783" lon="13.520015"><ele>95.0</ele><time>2026-05-02T07:10:52.492Z</time></trkpt><trkpt lat="41.543175" lon="13.51973"><ele>95.0</ele><time>2026-05-02T07:10:53.492Z</time></trkpt><trkpt lat="41.543165" lon="13.5194567"><ele>95.0</ele><time>2026-05-02T07:10:54.492Z</time></trkpt><trkpt lat="41.5431567" lon="13.51918"><ele>94.33333333333334</ele><time>2026-05-02T07:10:55.492Z</time></trkpt><trkpt lat="41.54315" lon="13.5189017"><ele>93.66666666666667</ele><time>2026-05-02T07:10:56.493Z</time></trkpt><trkpt lat="41.5431433" lon="13.5186233"><ele>93.0</ele><time>2026-05-02T07:10:57.492Z</time></trkpt><trkpt lat="41.5431333" lon="13.51835"><ele>91.66666666666667</ele><time>2026-05-02T07:10:58.492Z</time></trkpt><trkpt lat="41.5431233" lon="13.5180767"><ele>90.33333333333334</ele><time>2026-05-02T07:10:59.492Z</time></trkpt><trkpt lat="41.5431117" lon="13.5178"><ele>89.0</ele><time>2026-05-02T07:11:00.492Z</time></trkpt><trkpt lat="41.5431017" lon="13.51753"><ele>89.0</ele><time>2026-05-02T07:11:01.492Z</time></trkpt><trkpt lat="41.5430917" lon="13.5172567"><ele>89.0</ele><time>2026-05-02T07:11:02.492Z</time></trkpt><trkpt lat="41.54308" lon="13.51698"><ele>89.0</ele><time>2026-05-02T07:11:03.492Z</time></trkpt><trkpt lat="41.54307" lon="13.5166983"><ele>90.0</ele><time>2026-05-02T07:11:04.492Z</time></trkpt><trkpt lat="41.543055" lon="13.5164133"><ele>91.0</ele><time>2026-05-02T07:11:05.492Z</time></trkpt><trkpt lat="41.54305" lon="13.5161233"><ele>92.0</ele><time>2026-05-02T07:11:06.492Z</time></trkpt><trkpt lat="41.5430417" lon="13.5158383"><ele>93.0</ele><time>2026-05-02T07:11:07.492Z</time></trkpt><trkpt lat="41.5430383" lon="13.515555"><ele>94.0</ele><time>2026-05-02T07:11:08.492Z</time></trkpt><trkpt lat="41.5430333" lon="13.5152833"><ele>95.0</ele><time>2026-05-02T07:11:09.492Z</time></trkpt><trkpt lat="41.5430217" lon="13.515015"><ele>95.0</ele><time>2026-05-02T07:11:10.492Z</time></trkpt><trkpt lat="41.54301" lon="13.5147467"><ele>95.0</ele><time>2026-05-02T07:11:11.493Z</time></trkpt><trkpt lat="41.5429983" lon="13.5144733"><ele>95.0</ele><time>2026-05-02T07:11:12.492Z</time></trkpt><trkpt lat="41.5429917" lon="13.5142"><ele>95.66666666666667</ele><time>2026-05-02T07:11:13.492Z</time></trkpt><trkpt lat="41.5429867" lon="13.51393"><ele>96.33333333333334</ele><time>2026-05-02T07:11:14.492Z</time></trkpt><trkpt lat="41.5429767" lon="13.513665"><ele>97.0</ele><time>2026-05-02T07:11:15.492Z</time></trkpt><trkpt lat="41.5429633" lon="13.513405"><ele>97.33333333333334</ele><time>2026-05-02T07:11:16.492Z</time></trkpt><trkpt lat="41.5429533" lon="13.5131367"><ele>97.66666666666666</ele><time>2026-05-02T07:11:17.492Z</time></trkpt><trkpt lat="41.5429483" lon="13.5128717"><ele>98.0</ele><time>2026-05-02T07:11:18.492Z</time></trkpt><trkpt lat="41.54294" lon="13.512605"><ele>98.0</ele><time>2026-05-02T07:11:19.492Z</time></trkpt><trkpt lat="41.5429367" lon="13.51233"><ele>98.0</ele><time>2026-05-02T07:11:20.492Z</time></trkpt><trkpt lat="41.542925" lon="13.5120617"><ele>98.0</ele><time>2026-05-02T07:11:21.492Z</time></trkpt><trkpt lat="41.5429167" lon="13.5117983"><ele>98.0</ele><time>2026-05-02T07:11:22.492Z</time></trkpt><trkpt lat="41.5429017" lon="13.5115317"><ele>98.0</ele><time>2026-05-02T07:11:23.493Z</time></trkpt><trkpt lat="41.5428983" lon="13.51126"><ele>98.0</ele><time>2026-05-02T07:11:24.492Z</time></trkpt><trkpt lat="41.54289" lon="13.5109867"><ele>100.33333333333333</ele><time>2026-05-02T07:11:25.492Z</time></trkpt><trkpt lat="41.54288" lon="13.510705"><ele>102.66666666666666</ele><time>2026-05-02T07:11:26.493Z</time></trkpt><trkpt lat="41.542875" lon="13.5104233"><ele>105.0</ele><time>2026-05-02T07:11:27.492Z</time></trkpt><trkpt lat="41.5428667" lon="13.510145"><ele>105.33333333333334</ele><time>2026-05-02T07:11:28.492Z</time></trkpt><trkpt lat="41.54286" lon="13.5098583"><ele>105.66666666666667</ele><time>2026-05-02T07:11:29.492Z</time></trkpt><trkpt lat="41.54285" lon="13.5095717"><ele>106.0</ele><time>2026-05-02T07:11:30.492Z</time></trkpt><trkpt lat="41.5428383" lon="13.5092917"><ele>106.33333333333334</ele><time>2026-05-02T07:11:31.492Z</time></trkpt><trkpt lat="41.54282" lon="13.5089967"><ele>106.66666666666666</ele><time>2026-05-02T07:11:32.492Z</time></trkpt><trkpt lat="41.5428117" lon="13.5087033"><ele>107.0</ele><time>2026-05-02T07:11:33.492Z</time></trkpt><trkpt lat="41.5428117" lon="13.5084067"><ele>107.0</ele><time>2026-05-02T07:11:34.492Z</time></trkpt><trkpt lat="41.5428083" lon="13.50811"><ele>107.0</ele><time>2026-05-02T07:11:35.492Z</time></trkpt><trkpt lat="41.5428067" lon="13.5078167"><ele>107.0</ele><time>2026-05-02T07:11:36.493Z</time></trkpt><trkpt lat="41.542795" lon="13.5075283"><ele>107.33333333333333</ele><time>2026-05-02T07:11:37.492Z</time></trkpt><trkpt lat="41.542785" lon="13.50724"><ele>107.66666666666666</ele><time>2026-05-02T07:11:38.492Z</time></trkpt><trkpt lat="41.542775" lon="13.5069517"><ele>108.0</ele><time>2026-05-02T07:11:39.492Z</time></trkpt><trkpt lat="41.54277" lon="13.5066583"><ele>108.33333333333334</ele><time>2026-05-02T07:11:40.492Z</time></trkpt><trkpt lat="41.5427633" lon="13.506365"><ele>108.66666666666667</ele><time>2026-05-02T07:11:41.492Z</time></trkpt><trkpt lat="41.5427517" lon="13.506075"><ele>109.0</ele><time>2026-05-02T07:11:42.492Z</time></trkpt><trkpt lat="41.5427383" lon="13.5057883"><ele>109.66666666666667</ele><time>2026-05-02T07:11:43.492Z</time></trkpt><trkpt lat="41.5427317" lon="13.505495"><ele>110.33333333333334</ele><time>2026-05-02T07:11:44.492Z</time></trkpt><trkpt lat="41.5427233" lon="13.5052033"><ele>111.0</ele><time>2026-05-02T07:11:45.492Z</time></trkpt><trkpt lat="41.5427167" lon="13.5049117"><ele>111.33333333333334</ele><time>2026-05-02T07:11:46.492Z</time></trkpt><trkpt lat="41.5427117" lon="13.5046233"><ele>111.66666666666667</ele><time>2026-05-02T07:11:47.492Z</time></trkpt><trkpt lat="41.5427117" lon="13.5043317"><ele>112.0</ele><time>2026-05-02T07:11:48.492Z</time></trkpt><trkpt lat="41.542715" lon="13.5040533"><ele>113.0</ele><time>2026-05-02T07:11:49.492Z</time></trkpt><trkpt lat="41.542705" lon="13.5037633"><ele>114.0</ele><time>2026-05-02T07:11:50.492Z</time></trkpt><trkpt lat="41.5427117" lon="13.5034817"><ele>115.0</ele><time>2026-05-02T07:11:51.492Z</time></trkpt><trkpt lat="41.542715" lon="13.503195"><ele>116.0</ele><time>2026-05-02T07:11:52.492Z</time></trkpt><trkpt lat="41.5427183" lon="13.5029183"><ele>117.0</ele><time>2026-05-02T07:11:53.493Z</time></trkpt><trkpt lat="41.5427233" lon="13.5026383"><ele>118.0</ele><time>2026-05-02T07:11:54.492Z</time></trkpt><trkpt lat="41.542735" lon="13.5023517"><ele>118.0</ele><time>2026-05-02T07:11:55.492Z</time></trkpt><trkpt lat="41.5427383" lon="13.5020633"><ele>118.0</ele><time>2026-05-02T07:11:56.492Z</time></trkpt><trkpt lat="41.54275" lon="13.501775"><ele>118.0</ele><time>2026-05-02T07:11:57.492Z</time></trkpt><trkpt lat="41.54276" lon="13.5014867"><ele>118.66666666666667</ele><time>2026-05-02T07:11:58.492Z</time></trkpt><trkpt lat="41.542775" lon="13.5011967"><ele>119.33333333333334</ele><time>2026-05-02T07:11:59.492Z</time></trkpt><trkpt lat="41.5427917" lon="13.50091"><ele>120.0</ele><time>2026-05-02T07:12:00.492Z</time></trkpt><trkpt lat="41.5428017" lon="13.5006283"><ele>120.0</ele><time>2026-05-02T07:12:01.492Z</time></trkpt><trkpt lat="41.5428283" lon="13.500335"><ele>120.0</ele><time>2026-05-02T07:12:02.492Z</time></trkpt><trkpt lat="41.54285" lon="13.50004"><ele>120.0</ele><time>2026-05-02T07:12:03.492Z</time></trkpt><trkpt lat="41.5428733" lon="13.49975"><ele>120.0</ele><time>2026-05-02T07:12:04.492Z</time></trkpt><trkpt lat="41.5428983" lon="13.4994533"><ele>120.0</ele><time>2026-05-02T07:12:05.493Z</time></trkpt><trkpt lat="41.5429233" lon="13.49916"><ele>120.0</ele><time>2026-05-02T07:12:06.492Z</time></trkpt><trkpt lat="41.5429483" lon="13.4988733"><ele>120.66666666666666</ele><time>2026-05-02T07:12:07.492Z</time></trkpt><trkpt lat="41.5429833" lon="13.49858"><ele>121.33333333333333</ele><time>2026-05-02T07:12:08.493Z</time></trkpt><trkpt lat="41.5430217" lon="13.49829"><ele>122.0</ele><time>2026-05-02T07:12:09.492Z</time></trkpt><trkpt lat="41.543055" lon="13.4980017"><ele>121.66666666666666</ele><time>2026-05-02T07:12:10.492Z</time></trkpt><trkpt lat="41.5430933" lon="13.497705"><ele>121.33333333333334</ele><time>2026-05-02T07:12:11.492Z</time></trkpt><trkpt lat="41.5431367" lon="13.497415"><ele>121.0</ele><time>2026-05-02T07:12:12.492Z</time></trkpt><trkpt lat="41.5431783" lon="13.49712"><ele>121.33333333333334</ele><time>2026-05-02T07:12:13.492Z</time></trkpt><trkpt lat="41.543225" lon="13.4968267"><ele>121.66666666666666</ele><time>2026-05-02T07:12:14.492Z</time></trkpt><trkpt lat="41.54327" lon="13.4965333"><ele>122.0</ele><time>2026-05-02T07:12:15.493Z</time></trkpt><trkpt lat="41.5433083" lon="13.4962433"><ele>122.66666666666666</ele><time>2026-05-02T07:12:16.492Z</time></trkpt><trkpt lat="41.543355" lon="13.495955"><ele>123.33333333333334</ele><time>2026-05-02T07:12:17.492Z</time></trkpt><trkpt lat="41.5434033" lon="13.4956733"><ele>124.0</ele><time>2026-05-02T07:12:18.492Z</time></trkpt><trkpt lat="41.5434533" lon="13.4953967"><ele>124.0</ele><time>2026-05-02T07:12:19.492Z</time></trkpt><trkpt lat="41.5435067" lon="13.4951133"><ele>124.0</ele><time>2026-05-02T07:12:20.492Z</time></trkpt><trkpt lat="41.5435567" lon="13.494835"><ele>124.0</ele><time>2026-05-02T07:12:21.492Z</time></trkpt><trkpt lat="41.5436017" lon="13.4945533"><ele>124.33333333333334</ele><time>2026-05-02T07:12:22.492Z</time></trkpt><trkpt lat="41.5436583" lon="13.4942733"><ele>124.66666666666666</ele><time>2026-05-02T07:12:23.492Z</time></trkpt><trkpt lat="41.5437083" lon="13.49399"><ele>125.0</ele><time>2026-05-02T07:12:24.492Z</time></trkpt><trkpt lat="41.5437633" lon="13.4937083"><ele>125.33333333333333</ele><time>2026-05-02T07:12:25.492Z</time></trkpt><trkpt lat="41.54382" lon="13.4934217"><ele>125.66666666666666</ele><time>2026-05-02T07:12:26.492Z</time></trkpt><trkpt lat="41.543865" lon="13.4931317"><ele>126.0</ele><time>2026-05-02T07:12:27.492Z</time></trkpt><trkpt lat="41.5439133" lon="13.4928433"><ele>126.0</ele><time>2026-05-02T07:12:28.492Z</time></trkpt><trkpt lat="41.5439633" lon="13.4925617"><ele>126.0</ele><time>2026-05-02T07:12:29.492Z</time></trkpt><trkpt lat="41.5440117" lon="13.492275"><ele>126.0</ele><time>2026-05-02T07:12:30.492Z</time></trkpt><trkpt lat="41.5440633" lon="13.491985"><ele>126.33333333333334</ele><time>2026-05-02T07:12:31.493Z</time></trkpt><trkpt lat="41.5441133" lon="13.491695"><ele>126.66666666666667</ele><time>2026-05-02T07:12:32.492Z</time></trkpt><trkpt lat="41.5441633" lon="13.4914083"><ele>127.0</ele><time>2026-05-02T07:12:33.492Z</time></trkpt><trkpt lat="41.54422" lon="13.4911233"><ele>126.0</ele><time>2026-05-02T07:12:34.492Z</time></trkpt><trkpt lat="41.54427" lon="13.4908367"><ele>125.0</ele><time>2026-05-02T07:12:35.492Z</time></trkpt><trkpt lat="41.54432" lon="13.490555"><ele>124.0</ele><time>2026-05-02T07:12:36.492Z</time></trkpt><trkpt lat="41.54437" lon="13.4902733"><ele>123.66666666666667</ele><time>2026-05-02T07:12:37.492Z</time></trkpt><trkpt lat="41.5444267" lon="13.48999"><ele>123.33333333333334</ele><time>2026-05-02T07:12:38.492Z</time></trkpt><trkpt lat="41.5444717" lon="13.4896917"><ele>123.0</ele><time>2026-05-02T07:12:39.492Z</time></trkpt><trkpt lat="41.5445183" lon="13.4893983"><ele>123.0</ele><time>2026-05-02T07:12:40.492Z</time></trkpt><trkpt lat="41.5445667" lon="13.489115"><ele>123.0</ele><time>2026-05-02T07:12:41.492Z</time></trkpt><trkpt lat="41.5446167" lon="13.4888183"><ele>123.0</ele><time>2026-05-02T07:12:42.492Z</time></trkpt><trkpt lat="41.5446683" lon="13.488535"><ele>121.5</ele><time>2026-05-02T07:12:43.492Z</time></trkpt><trkpt lat="41.544725" lon="13.48824"><ele>120.0</ele><time>2026-05-02T07:12:44.492Z</time></trkpt><trkpt lat="41.5447733" lon="13.48794"><ele>120.0</ele><time>2026-05-02T07:12:45.492Z</time></trkpt><trkpt lat="41.5448233" lon="13.4876483"><ele>120.0</ele><time>2026-05-02T07:12:46.492Z</time></trkpt><trkpt lat="41.54488" lon="13.4873567"><ele>120.0</ele><time>2026-05-02T07:12:47.492Z</time></trkpt><trkpt lat="41.5449267" lon="13.4870717"><ele>119.66666666666666</ele><time>2026-05-02T07:12:48.492Z</time></trkpt><trkpt lat="41.5449767" lon="13.4867867"><ele>119.33333333333333</ele><time>2026-05-02T07:12:49.492Z</time></trkpt><trkpt lat="41.54503" lon="13.486505"><ele>119.0</ele><time>2026-05-02T07:12:50.492Z</time></trkpt><trkpt lat="41.54508" lon="13.486225"><ele>118.0</ele><time>2026-05-02T07:12:51.492Z</time></trkpt><trkpt lat="41.5451317" lon="13.4859417"><ele>117.0</ele><time>2026-05-02T07:12:52.492Z</time></trkpt><trkpt lat="41.54518" lon="13.4856633"><ele>116.0</ele><time>2026-05-02T07:12:53.492Z</time></trkpt><trkpt lat="41.5452333" lon="13.4853833"><ele>115.66666666666666</ele><time>2026-05-02T07:12:54.492Z</time></trkpt><trkpt lat="41.54528" lon="13.485105"><ele>115.33333333333334</ele><time>2026-05-02T07:12:55.492Z</time></trkpt><trkpt lat="41.5453283" lon="13.4848333"><ele>115.0</ele><time>2026-05-02T07:12:56.492Z</time></trkpt><trkpt lat="41.545375" lon="13.4845567"><ele>115.0</ele><time>2026-05-02T07:12:57.492Z</time></trkpt><trkpt lat="41.5454267" lon="13.48428"><ele>115.0</ele><time>2026-05-02T07:12:58.492Z</time></trkpt><trkpt lat="41.5454783" lon="13.484005"><ele>115.0</ele><time>2026-05-02T07:12:59.492Z</time></trkpt><trkpt lat="41.545525" lon="13.483725"><ele>114.33333333333334</ele><time>2026-05-02T07:13:00.492Z</time></trkpt><trkpt lat="41.5455767" lon="13.4834417"><ele>113.66666666666666</ele><time>2026-05-02T07:13:01.492Z</time></trkpt><trkpt lat="41.5456283" lon="13.48316"><ele>113.0</ele><time>2026-05-02T07:13:02.492Z</time></trkpt><trkpt lat="41.5456767" lon="13.4828817"><ele>112.33333333333333</ele><time>2026-05-02T07:13:03.492Z</time></trkpt><trkpt lat="41.54573" lon="13.4825983"><ele>111.66666666666666</ele><time>2026-05-02T07:13:04.492Z</time></trkpt><trkpt lat="41.5457817" lon="13.4823183"><ele>111.0</ele><time>2026-05-02T07:13:05.492Z</time></trkpt><trkpt lat="41.5458333" lon="13.4820467"><ele>111.0</ele><time>2026-05-02T07:13:06.492Z</time></trkpt><trkpt lat="41.5458767" lon="13.4817917"><ele>111.0</ele><time>2026-05-02T07:13:07.492Z</time></trkpt><trkpt lat="41.5459267" lon="13.481525"><ele>111.0</ele><time>2026-05-02T07:13:08.492Z</time></trkpt><trkpt lat="41.5459767" lon="13.4812683"><ele>111.66666666666666</ele><time>2026-05-02T07:13:09.492Z</time></trkpt><trkpt lat="41.5460233" lon="13.4810083"><ele>112.33333333333333</ele><time>2026-05-02T07:13:10.492Z</time></trkpt><trkpt lat="41.5460717" lon="13.4807367"><ele>113.0</ele><time>2026-05-02T07:13:11.492Z</time></trkpt><trkpt lat="41.5461217" lon="13.4804683"><ele>113.33333333333333</ele><time>2026-05-02T07:13:12.492Z</time></trkpt><trkpt lat="41.5461633" lon="13.4802"><ele>113.66666666666666</ele><time>2026-05-02T07:13:13.492Z</time></trkpt><trkpt lat="41.5462083" lon="13.4799283"><ele>114.0</ele><time>2026-05-02T07:13:14.492Z</time></trkpt><trkpt lat="41.5462583" lon="13.4796517"><ele>115.0</ele><time>2026-05-02T07:13:15.492Z</time></trkpt><trkpt lat="41.5463017" lon="13.4793783"><ele>116.0</ele><time>2026-05-02T07:13:16.493Z</time></trkpt><trkpt lat="41.54635" lon="13.4791033"><ele>117.0</ele><time>2026-05-02T07:13:17.492Z</time></trkpt><trkpt lat="41.5463983" lon="13.4788317"><ele>117.0</ele><time>2026-05-02T07:13:18.492Z</time></trkpt><trkpt lat="41.5464417" lon="13.4785583"><ele>117.0</ele><time>2026-05-02T07:13:19.493Z</time></trkpt><trkpt lat="41.546495" lon="13.4782817"><ele>117.0</ele><time>2026-05-02T07:13:20.492Z</time></trkpt><trkpt lat="41.546545" lon="13.4780083"><ele>117.66666666666666</ele><time>2026-05-02T07:13:21.492Z</time></trkpt><trkpt lat="41.546595" lon="13.477735"><ele>118.33333333333333</ele><time>2026-05-02T07:13:22.492Z</time></trkpt><trkpt lat="41.546645" lon="13.4774633"><ele>119.0</ele><time>2026-05-02T07:13:23.492Z</time></trkpt><trkpt lat="41.5466933" lon="13.4771817"><ele>120.0</ele><time>2026-05-02T07:13:24.492Z</time></trkpt><trkpt lat="41.5467417" lon="13.4769017"><ele>121.0</ele><time>2026-05-02T07:13:25.492Z</time></trkpt><trkpt lat="41.5467933" lon="13.47662"><ele>122.0</ele><time>2026-05-02T07:13:26.492Z</time></trkpt><trkpt lat="41.5468383" lon="13.476335"><ele>123.0</ele><time>2026-05-02T07:13:27.492Z</time></trkpt><trkpt lat="41.5468867" lon="13.4760533"><ele>124.0</ele><time>2026-05-02T07:13:28.492Z</time></trkpt><trkpt lat="41.5469383" lon="13.47577"><ele>125.0</ele><time>2026-05-02T07:13:29.492Z</time></trkpt><trkpt lat="41.54699" lon="13.4754833"><ele>125.33333333333333</ele><time>2026-05-02T07:13:30.492Z</time></trkpt><trkpt lat="41.5470383" lon="13.4752017"><ele>125.66666666666666</ele><time>2026-05-02T07:13:31.492Z</time></trkpt><trkpt lat="41.5470883" lon="13.4749117"><ele>126.0</ele><time>2026-05-02T07:13:32.492Z</time></trkpt><trkpt lat="41.5471383" lon="13.4746233"><ele>127.0</ele><time>2026-05-02T07:13:33.492Z</time></trkpt><trkpt lat="41.5471933" lon="13.47434"><ele>128.0</ele><time>2026-05-02T07:13:34.492Z</time></trkpt><trkpt lat="41.547245" lon="13.4740567"><ele>129.0</ele><time>2026-05-02T07:13:35.492Z</time></trkpt><trkpt lat="41.547295" lon="13.473775"><ele>129.0</ele><time>2026-05-02T07:13:36.492Z</time></trkpt><trkpt lat="41.54735" lon="13.4734917"><ele>129.0</ele><time>2026-05-02T07:13:37.492Z</time></trkpt><trkpt lat="41.5474033" lon="13.4732067"><ele>129.0</ele><time>2026-05-02T07:13:38.492Z</time></trkpt><trkpt lat="41.547455" lon="13.4729217"><ele>129.0</ele><time>2026-05-02T07:13:39.492Z</time></trkpt><trkpt lat="41.547505" lon="13.4726433"><ele>129.0</ele><time>2026-05-02T07:13:40.493Z</time></trkpt><trkpt lat="41.5475567" lon="13.47236"><ele>129.0</ele><time>2026-05-02T07:13:41.492Z</time></trkpt><trkpt lat="41.547605" lon="13.4720833"><ele>128.33333333333334</ele><time>2026-05-02T07:13:42.492Z</time></trkpt><trkpt lat="41.5476517" lon="13.471805"><ele>127.66666666666667</ele><time>2026-05-02T07:13:43.492Z</time></trkpt><trkpt lat="41.5477" lon="13.4715217"><ele>127.0</ele><time>2026-05-02T07:13:44.492Z</time></trkpt><trkpt lat="41.54775" lon="13.4712433"><ele>126.33333333333334</ele><time>2026-05-02T07:13:45.492Z</time></trkpt><trkpt lat="41.5477917" lon="13.4709667"><ele>125.66666666666666</ele><time>2026-05-02T07:13:46.492Z</time></trkpt><trkpt lat="41.5478367" lon="13.4706933"><ele>125.0</ele><time>2026-05-02T07:13:47.492Z</time></trkpt><trkpt lat="41.5478883" lon="13.47042"><ele>123.66666666666666</ele><time>2026-05-02T07:13:48.493Z</time></trkpt><trkpt lat="41.547935" lon="13.47015"><ele>122.33333333333334</ele><time>2026-05-02T07:13:49.492Z</time></trkpt><trkpt lat="41.547985" lon="13.4698733"><ele>121.0</ele><time>2026-05-02T07:13:50.492Z</time></trkpt><trkpt lat="41.548035" lon="13.4695983"><ele>119.33333333333334</ele><time>2026-05-02T07:13:51.492Z</time></trkpt><trkpt lat="41.5480867" lon="13.469325"><ele>117.66666666666666</ele><time>2026-05-02T07:13:52.492Z</time></trkpt><trkpt lat="41.548135" lon="13.4690517"><ele>116.0</ele><time>2026-05-02T07:13:53.492Z</time></trkpt><trkpt lat="41.5481833" lon="13.4687617"><ele>116.0</ele><time>2026-05-02T07:13:54.492Z</time></trkpt><trkpt lat="41.54823" lon="13.46848"><ele>116.0</ele><time>2026-05-02T07:13:55.492Z</time></trkpt><trkpt lat="41.54828" lon="13.4681933"><ele>116.0</ele><time>2026-05-02T07:13:56.492Z</time></trkpt><trkpt lat="41.5483333" lon="13.4679083"><ele>116.0</ele><time>2026-05-02T07:13:57.493Z</time></trkpt><trkpt lat="41.5483783" lon="13.46763"><ele>116.0</ele><time>2026-05-02T07:13:58.492Z</time></trkpt><trkpt lat="41.5484283" lon="13.4673517"><ele>116.0</ele><time>2026-05-02T07:13:59.492Z</time></trkpt><trkpt lat="41.54848" lon="13.4670767"><ele>116.66666666666666</ele><time>2026-05-02T07:14:00.492Z</time></trkpt><trkpt lat="41.5485317" lon="13.4667983"><ele>117.33333333333334</ele><time>2026-05-02T07:14:01.492Z</time></trkpt><trkpt lat="41.548575" lon="13.4665233"><ele>118.0</ele><time>2026-05-02T07:14:02.492Z</time></trkpt><trkpt lat="41.5486233" lon="13.466245"><ele>117.66666666666667</ele><time>2026-05-02T07:14:03.492Z</time></trkpt><trkpt lat="41.54867" lon="13.46597"><ele>117.33333333333334</ele><time>2026-05-02T07:14:04.492Z</time></trkpt><trkpt lat="41.5487167" lon="13.4656983"><ele>117.0</ele><time>2026-05-02T07:14:05.492Z</time></trkpt><trkpt lat="41.5487667" lon="13.4654183"><ele>118.33333333333334</ele><time>2026-05-02T07:14:06.492Z</time></trkpt><trkpt lat="41.548815" lon="13.46514"><ele>119.66666666666667</ele><time>2026-05-02T07:14:07.492Z</time></trkpt><trkpt lat="41.5488683" lon="13.46486"><ele>121.0</ele><time>2026-05-02T07:14:08.492Z</time></trkpt><trkpt lat="41.54892" lon="13.4645817"><ele>122.33333333333334</ele><time>2026-05-02T07:14:09.493Z</time></trkpt><trkpt lat="41.54897" lon="13.4643017"><ele>123.66666666666666</ele><time>2026-05-02T07:14:10.493Z</time></trkpt><trkpt lat="41.5490217" lon="13.4640167"><ele>125.0</ele><time>2026-05-02T07:14:11.493Z</time></trkpt><trkpt lat="41.54907" lon="13.4637367"><ele>126.0</ele><time>2026-05-02T07:14:12.493Z</time></trkpt><trkpt lat="41.549115" lon="13.4634483"><ele>127.0</ele><time>2026-05-02T07:14:13.493Z</time></trkpt><trkpt lat="41.5491633" lon="13.4631683"><ele>128.0</ele><time>2026-05-02T07:14:14.493Z</time></trkpt><trkpt lat="41.549215" lon="13.4628883"><ele>128.0</ele><time>2026-05-02T07:14:15.493Z</time></trkpt><trkpt lat="41.549265" lon="13.4626083"><ele>128.0</ele><time>2026-05-02T07:14:16.494Z</time></trkpt><trkpt lat="41.5493117" lon="13.4623283"><ele>128.0</ele><time>2026-05-02T07:14:17.493Z</time></trkpt><trkpt lat="41.5493617" lon="13.4620467"><ele>128.0</ele><time>2026-05-02T07:14:18.493Z</time></trkpt><trkpt lat="41.5494133" lon="13.4617617"><ele>128.0</ele><time>2026-05-02T07:14:19.493Z</time></trkpt><trkpt lat="41.5494633" lon="13.4614783"><ele>128.0</ele><time>2026-05-02T07:14:20.493Z</time></trkpt><trkpt lat="41.5495133" lon="13.4611983"><ele>128.0</ele><time>2026-05-02T07:14:21.493Z</time></trkpt><trkpt lat="41.5495633" lon="13.4609167"><ele>128.0</ele><time>2026-05-02T07:14:22.493Z</time></trkpt><trkpt lat="41.5496133" lon="13.4606367"><ele>128.0</ele><time>2026-05-02T07:14:23.493Z</time></trkpt><trkpt lat="41.5496683" lon="13.4603533"><ele>128.0</ele><time>2026-05-02T07:14:24.493Z</time></trkpt><trkpt lat="41.5497167" lon="13.4600717"><ele>128.0</ele><time>2026-05-02T07:14:25.493Z</time></trkpt><trkpt lat="41.549765" lon="13.4598"><ele>128.0</ele><time>2026-05-02T07:14:26.493Z</time></trkpt><trkpt lat="41.5498183" lon="13.4595167"><ele>128.33333333333331</ele><time>2026-05-02T07:14:27.493Z</time></trkpt><trkpt lat="41.54987" lon="13.459235"><ele>128.66666666666666</ele><time>2026-05-02T07:14:28.493Z</time></trkpt><trkpt lat="41.54992" lon="13.458945"><ele>129.0</ele><time>2026-05-02T07:14:29.493Z</time></trkpt><trkpt lat="41.5499683" lon="13.4586583"><ele>128.33333333333334</ele><time>2026-05-02T07:14:30.493Z</time></trkpt><trkpt lat="41.5500217" lon="13.458365"><ele>127.66666666666667</ele><time>2026-05-02T07:14:31.493Z</time></trkpt><trkpt lat="41.5500667" lon="13.4580783"><ele>127.0</ele><time>2026-05-02T07:14:32.494Z</time></trkpt><trkpt lat="41.5501183" lon="13.4577917"><ele>125.66666666666667</ele><time>2026-05-02T07:14:33.493Z</time></trkpt><trkpt lat="41.5501667" lon="13.4575067"><ele>124.33333333333334</ele><time>2026-05-02T07:14:34.493Z</time></trkpt><trkpt lat="41.550215" lon="13.457225"><ele>123.0</ele><time>2026-05-02T07:14:35.493Z</time></trkpt><trkpt lat="41.5502683" lon="13.4569383"><ele>122.5</ele><time>2026-05-02T07:14:36.493Z</time></trkpt><trkpt lat="41.5503683" lon="13.4563667"><ele>122.0</ele><time>2026-05-02T07:14:38.493Z</time></trkpt><trkpt lat="41.55042" lon="13.4560817"><ele>122.0</ele><time>2026-05-02T07:14:39.493Z</time></trkpt><trkpt lat="41.55047" lon="13.4557967"><ele>122.0</ele><time>2026-05-02T07:14:40.493Z</time></trkpt><trkpt lat="41.5505217" lon="13.4555133"><ele>122.0</ele><time>2026-05-02T07:14:41.493Z</time></trkpt><trkpt lat="41.55057" lon="13.4552333"><ele>121.0</ele><time>2026-05-02T07:14:42.494Z</time></trkpt><trkpt lat="41.55062" lon="13.4549467"><ele>120.0</ele><time>2026-05-02T07:14:43.493Z</time></trkpt><trkpt lat="41.55067" lon="13.4546633"><ele>119.0</ele><time>2026-05-02T07:14:44.493Z</time></trkpt><trkpt lat="41.5507217" lon="13.4543817"><ele>118.0</ele><time>2026-05-02T07:14:45.493Z</time></trkpt><trkpt lat="41.5507683" lon="13.4541017"><ele>117.0</ele><time>2026-05-02T07:14:46.493Z</time></trkpt><trkpt lat="41.5508183" lon="13.4538233"><ele>116.0</ele><time>2026-05-02T07:14:47.493Z</time></trkpt><trkpt lat="41.5508667" lon="13.4535383"><ele>115.66666666666666</ele><time>2026-05-02T07:14:48.493Z</time></trkpt><trkpt lat="41.550915" lon="13.4532583"><ele>115.33333333333334</ele><time>2026-05-02T07:14:49.493Z</time></trkpt><trkpt lat="41.55097" lon="13.4529783"><ele>115.0</ele><time>2026-05-02T07:14:50.493Z</time></trkpt><trkpt lat="41.55102" lon="13.4526967"><ele>114.33333333333334</ele><time>2026-05-02T07:14:51.493Z</time></trkpt><trkpt lat="41.5510667" lon="13.4524217"><ele>113.66666666666666</ele><time>2026-05-02T07:14:52.493Z</time></trkpt><trkpt lat="41.5511133" lon="13.4521533"><ele>113.0</ele><time>2026-05-02T07:14:53.493Z</time></trkpt><trkpt lat="41.5511617" lon="13.45189"><ele>112.66666666666666</ele><time>2026-05-02T07:14:54.494Z</time></trkpt><trkpt lat="41.5512067" lon="13.4516217"><ele>112.33333333333334</ele><time>2026-05-02T07:14:55.493Z</time></trkpt><trkpt lat="41.5512567" lon="13.4513533"><ele>112.0</ele><time>2026-05-02T07:14:56.493Z</time></trkpt><trkpt lat="41.5513017" lon="13.451085"><ele>112.0</ele><time>2026-05-02T07:14:57.493Z</time></trkpt><trkpt lat="41.55135" lon="13.4508117"><ele>112.0</ele><time>2026-05-02T07:14:58.493Z</time></trkpt><trkpt lat="41.5514" lon="13.4505367"><ele>112.0</ele><time>2026-05-02T07:14:59.493Z</time></trkpt><trkpt lat="41.551445" lon="13.45026"><ele>112.0</ele><time>2026-05-02T07:15:00.493Z</time></trkpt><trkpt lat="41.5514967" lon="13.4499883"><ele>112.0</ele><time>2026-05-02T07:15:01.493Z</time></trkpt><trkpt lat="41.55154" lon="13.4497133"><ele>112.0</ele><time>2026-05-02T07:15:02.493Z</time></trkpt><trkpt lat="41.5515833" lon="13.4494333"><ele>113.33333333333334</ele><time>2026-05-02T07:15:03.494Z</time></trkpt><trkpt lat="41.551635" lon="13.4491533"><ele>114.66666666666666</ele><time>2026-05-02T07:15:04.494Z</time></trkpt><trkpt lat="41.5516883" lon="13.4488767"><ele>116.0</ele><time>2026-05-02T07:15:05.493Z</time></trkpt><trkpt lat="41.5517433" lon="13.4485917"><ele>117.0</ele><time>2026-05-02T07:15:06.493Z</time></trkpt><trkpt lat="41.5517917" lon="13.4483133"><ele>118.0</ele><time>2026-05-02T07:15:07.493Z</time></trkpt><trkpt lat="41.5518483" lon="13.4480267"><ele>119.0</ele><time>2026-05-02T07:15:08.493Z</time></trkpt><trkpt lat="41.551895" lon="13.4477517"><ele>119.0</ele><time>2026-05-02T07:15:09.493Z</time></trkpt><trkpt lat="41.5519483" lon="13.44746"><ele>119.0</ele><time>2026-05-02T07:15:10.493Z</time></trkpt><trkpt lat="41.5519967" lon="13.4471733"><ele>119.0</ele><time>2026-05-02T07:15:11.493Z</time></trkpt><trkpt lat="41.5520433" lon="13.4468833"><ele>119.33333333333333</ele><time>2026-05-02T07:15:12.493Z</time></trkpt><trkpt lat="41.552085" lon="13.4466017"><ele>119.66666666666666</ele><time>2026-05-02T07:15:13.493Z</time></trkpt><trkpt lat="41.5521317" lon="13.4463217"><ele>120.0</ele><time>2026-05-02T07:15:14.493Z</time></trkpt><trkpt lat="41.55218" lon="13.44604"><ele>120.0</ele><time>2026-05-02T07:15:15.493Z</time></trkpt><trkpt lat="41.55223" lon="13.445755"><ele>120.0</ele><time>2026-05-02T07:15:16.493Z</time></trkpt><trkpt lat="41.5522833" lon="13.4454733"><ele>120.0</ele><time>2026-05-02T07:15:17.493Z</time></trkpt><trkpt lat="41.552335" lon="13.4451967"><ele>121.33333333333334</ele><time>2026-05-02T07:15:18.493Z</time></trkpt><trkpt lat="41.55238" lon="13.4449167"><ele>122.66666666666667</ele><time>2026-05-02T07:15:19.494Z</time></trkpt><trkpt lat="41.55243" lon="13.44464"><ele>124.0</ele><time>2026-05-02T07:15:20.493Z</time></trkpt><trkpt lat="41.5524833" lon="13.4443633"><ele>125.0</ele><time>2026-05-02T07:15:21.493Z</time></trkpt><trkpt lat="41.5525317" lon="13.444095"><ele>126.0</ele><time>2026-05-02T07:15:22.493Z</time></trkpt><trkpt lat="41.5525867" lon="13.4438183"><ele>127.0</ele><time>2026-05-02T07:15:23.493Z</time></trkpt><trkpt lat="41.5526417" lon="13.4435433"><ele>127.0</ele><time>2026-05-02T07:15:24.493Z</time></trkpt><trkpt lat="41.5526867" lon="13.4432683"><ele>127.0</ele><time>2026-05-02T07:15:25.493Z</time></trkpt><trkpt lat="41.5527317" lon="13.4429983"><ele>127.0</ele><time>2026-05-02T07:15:26.493Z</time></trkpt><trkpt lat="41.5527733" lon="13.4427333"><ele>127.33333333333334</ele><time>2026-05-02T07:15:27.493Z</time></trkpt><trkpt lat="41.5528167" lon="13.4424717"><ele>127.66666666666666</ele><time>2026-05-02T07:15:28.493Z</time></trkpt><trkpt lat="41.55286" lon="13.442205"><ele>128.0</ele><time>2026-05-02T07:15:29.494Z</time></trkpt><trkpt lat="41.5529033" lon="13.4419383"><ele>130.0</ele><time>2026-05-02T07:15:30.493Z</time></trkpt><trkpt lat="41.55296" lon="13.4416667"><ele>132.0</ele><time>2026-05-02T07:15:31.493Z</time></trkpt><trkpt lat="41.553015" lon="13.4414"><ele>134.0</ele><time>2026-05-02T07:15:32.493Z</time></trkpt><trkpt lat="41.553065" lon="13.44113"><ele>135.0</ele><time>2026-05-02T07:15:33.493Z</time></trkpt><trkpt lat="41.5531167" lon="13.4408667"><ele>136.0</ele><time>2026-05-02T07:15:34.493Z</time></trkpt><trkpt lat="41.553155" lon="13.4406"><ele>137.0</ele><time>2026-05-02T07:15:35.493Z</time></trkpt><trkpt lat="41.5532033" lon="13.4403317"><ele>137.33333333333331</ele><time>2026-05-02T07:15:36.493Z</time></trkpt><trkpt lat="41.5532517" lon="13.4400583"><ele>137.66666666666666</ele><time>2026-05-02T07:15:37.493Z</time></trkpt><trkpt lat="41.5532983" lon="13.4397867"><ele>138.0</ele><time>2026-05-02T07:15:38.493Z</time></trkpt><trkpt lat="41.553345" lon="13.4395133"><ele>138.0</ele><time>2026-05-02T07:15:39.493Z</time></trkpt><trkpt lat="41.55339" lon="13.4392367"><ele>138.0</ele><time>2026-05-02T07:15:40.493Z</time></trkpt><trkpt lat="41.5534367" lon="13.4389583"><ele>138.0</ele><time>2026-05-02T07:15:41.493Z</time></trkpt><trkpt lat="41.55349" lon="13.4386817"><ele>138.0</ele><time>2026-05-02T07:15:42.493Z</time></trkpt><trkpt lat="41.553535" lon="13.4384033"><ele>138.0</ele><time>2026-05-02T07:15:43.493Z</time></trkpt><trkpt lat="41.5535867" lon="13.4381283"><ele>138.0</ele><time>2026-05-02T07:15:44.493Z</time></trkpt><trkpt lat="41.553635" lon="13.43785"><ele>137.66666666666666</ele><time>2026-05-02T07:15:45.494Z</time></trkpt><trkpt lat="41.5536833" lon="13.4375733"><ele>137.33333333333331</ele><time>2026-05-02T07:15:46.493Z</time></trkpt><trkpt lat="41.5537317" lon="13.4372917"><ele>137.0</ele><time>2026-05-02T07:15:47.493Z</time></trkpt><trkpt lat="41.55378" lon="13.4370117"><ele>139.0</ele><time>2026-05-02T07:15:48.493Z</time></trkpt><trkpt lat="41.5538317" lon="13.4367333"><ele>141.0</ele><time>2026-05-02T07:15:49.493Z</time></trkpt><trkpt lat="41.5538767" lon="13.43646"><ele>143.0</ele><time>2026-05-02T07:15:50.493Z</time></trkpt><trkpt lat="41.5539233" lon="13.4361833"><ele>143.0</ele><time>2026-05-02T07:15:51.493Z</time></trkpt><trkpt lat="41.55397" lon="13.4359067"><ele>143.0</ele><time>2026-05-02T07:15:52.493Z</time></trkpt><trkpt lat="41.5540167" lon="13.4356267"><ele>143.0</ele><time>2026-05-02T07:15:53.493Z</time></trkpt><trkpt lat="41.5540667" lon="13.4353517"><ele>142.66666666666666</ele><time>2026-05-02T07:15:54.494Z</time></trkpt><trkpt lat="41.554115" lon="13.435075"><ele>142.33333333333334</ele><time>2026-05-02T07:15:55.493Z</time></trkpt><trkpt lat="41.5541667" lon="13.434795"><ele>142.0</ele><time>2026-05-02T07:15:56.493Z</time></trkpt><trkpt lat="41.5542133" lon="13.4345167"><ele>142.0</ele><time>2026-05-02T07:15:57.493Z</time></trkpt><trkpt lat="41.5542633" lon="13.43424"><ele>142.0</ele><time>2026-05-02T07:15:58.493Z</time></trkpt><trkpt lat="41.554315" lon="13.4339567"><ele>142.0</ele><time>2026-05-02T07:15:59.493Z</time></trkpt><trkpt lat="41.554365" lon="13.43368"><ele>141.66666666666669</ele><time>2026-05-02T07:16:00.493Z</time></trkpt><trkpt lat="41.55441" lon="13.4334017"><ele>141.33333333333334</ele><time>2026-05-02T07:16:01.493Z</time></trkpt><trkpt lat="41.5544633" lon="13.4331217"><ele>141.0</ele><time>2026-05-02T07:16:02.493Z</time></trkpt><trkpt lat="41.554515" lon="13.4328483"><ele>142.33333333333334</ele><time>2026-05-02T07:16:03.493Z</time></trkpt><trkpt lat="41.5545633" lon="13.4325767"><ele>143.66666666666669</ele><time>2026-05-02T07:16:04.493Z</time></trkpt><trkpt lat="41.554615" lon="13.4323033"><ele>145.0</ele><time>2026-05-02T07:16:05.493Z</time></trkpt><trkpt lat="41.554665" lon="13.43203"><ele>145.33333333333334</ele><time>2026-05-02T07:16:06.493Z</time></trkpt><trkpt lat="41.5547217" lon="13.43175"><ele>145.66666666666666</ele><time>2026-05-02T07:16:07.493Z</time></trkpt><trkpt lat="41.5547683" lon="13.4314767"><ele>146.0</ele><time>2026-05-02T07:16:08.493Z</time></trkpt><trkpt lat="41.554815" lon="13.4311933"><ele>145.33333333333331</ele><time>2026-05-02T07:16:09.493Z</time></trkpt><trkpt lat="41.5548617" lon="13.4309133"><ele>144.66666666666666</ele><time>2026-05-02T07:16:10.493Z</time></trkpt><trkpt lat="41.5549133" lon="13.430625"><ele>144.0</ele><time>2026-05-02T07:16:11.493Z</time></trkpt><trkpt lat="41.5549617" lon="13.43034"><ele>144.0</ele><time>2026-05-02T07:16:12.493Z</time></trkpt><trkpt lat="41.5550017" lon="13.430045"><ele>144.0</ele><time>2026-05-02T07:16:13.493Z</time></trkpt><trkpt lat="41.5550483" lon="13.4297583"><ele>144.0</ele><time>2026-05-02T07:16:14.493Z</time></trkpt><trkpt lat="41.5550983" lon="13.42947"><ele>143.66666666666666</ele><time>2026-05-02T07:16:15.493Z</time></trkpt><trkpt lat="41.5551533" lon="13.42919"><ele>143.33333333333331</ele><time>2026-05-02T07:16:16.493Z</time></trkpt><trkpt lat="41.555205" lon="13.428905"><ele>143.0</ele><time>2026-05-02T07:16:17.493Z</time></trkpt><trkpt lat="41.5552633" lon="13.4286233"><ele>143.0</ele><time>2026-05-02T07:16:18.493Z</time></trkpt><trkpt lat="41.5553067" lon="13.4283567"><ele>143.0</ele><time>2026-05-02T07:16:19.493Z</time></trkpt><trkpt lat="41.55535" lon="13.4280933"><ele>143.0</ele><time>2026-05-02T07:16:20.493Z</time></trkpt><trkpt lat="41.555395" lon="13.4278317"><ele>144.0</ele><time>2026-05-02T07:16:21.493Z</time></trkpt><trkpt lat="41.5554467" lon="13.4275633"><ele>145.0</ele><time>2026-05-02T07:16:22.493Z</time></trkpt><trkpt lat="41.5554967" lon="13.4272917"><ele>146.0</ele><time>2026-05-02T07:16:23.493Z</time></trkpt><trkpt lat="41.555545" lon="13.4270217"><ele>146.33333333333331</ele><time>2026-05-02T07:16:24.493Z</time></trkpt><trkpt lat="41.5555917" lon="13.4267417"><ele>146.66666666666666</ele><time>2026-05-02T07:16:25.493Z</time></trkpt><trkpt lat="41.5556367" lon="13.4264617"><ele>147.0</ele><time>2026-05-02T07:16:26.493Z</time></trkpt><trkpt lat="41.5556883" lon="13.4261833"><ele>148.0</ele><time>2026-05-02T07:16:27.493Z</time></trkpt><trkpt lat="41.5557417" lon="13.425905"><ele>149.0</ele><time>2026-05-02T07:16:28.493Z</time></trkpt><trkpt lat="41.5557967" lon="13.4256167"><ele>150.0</ele><time>2026-05-02T07:16:29.493Z</time></trkpt><trkpt lat="41.5558483" lon="13.4253283"><ele>150.0</ele><time>2026-05-02T07:16:30.493Z</time></trkpt><trkpt lat="41.5558917" lon="13.4250483"><ele>150.0</ele><time>2026-05-02T07:16:31.493Z</time></trkpt><trkpt lat="41.5559467" lon="13.4247567"><ele>150.0</ele><time>2026-05-02T07:16:32.493Z</time></trkpt><trkpt lat="41.5559967" lon="13.4244767"><ele>150.0</ele><time>2026-05-02T07:16:33.493Z</time></trkpt><trkpt lat="41.5560467" lon="13.4241833"><ele>150.0</ele><time>2026-05-02T07:16:34.493Z</time></trkpt><trkpt lat="41.5560983" lon="13.4238917"><ele>150.0</ele><time>2026-05-02T07:16:35.493Z</time></trkpt><trkpt lat="41.5561467" lon="13.4236133"><ele>149.66666666666666</ele><time>2026-05-02T07:16:36.493Z</time></trkpt><trkpt lat="41.5561967" lon="13.4233367"><ele>149.33333333333331</ele><time>2026-05-02T07:16:37.493Z</time></trkpt><trkpt lat="41.5562483" lon="13.4230583"><ele>149.0</ele><time>2026-05-02T07:16:38.493Z</time></trkpt><trkpt lat="41.5562967" lon="13.42278"><ele>149.0</ele><time>2026-05-02T07:16:39.493Z</time></trkpt><trkpt lat="41.5563417" lon="13.4225"><ele>149.0</ele><time>2026-05-02T07:16:40.493Z</time></trkpt><trkpt lat="41.5563867" lon="13.4222217"><ele>149.0</ele><time>2026-05-02T07:16:41.493Z</time></trkpt><trkpt lat="41.5564317" lon="13.4219433"><ele>149.0</ele><time>2026-05-02T07:16:42.493Z</time></trkpt><trkpt lat="41.5564817" lon="13.421655"><ele>149.0</ele><time>2026-05-02T07:16:43.493Z</time></trkpt><trkpt lat="41.5565267" lon="13.421375"><ele>149.0</ele><time>2026-05-02T07:16:44.493Z</time></trkpt><trkpt lat="41.55658" lon="13.4210983"><ele>148.66666666666666</ele><time>2026-05-02T07:16:45.493Z</time></trkpt><trkpt lat="41.5566333" lon="13.4208133"><ele>148.33333333333334</ele><time>2026-05-02T07:16:46.493Z</time></trkpt><trkpt lat="41.556685" lon="13.42053"><ele>148.0</ele><time>2026-05-02T07:16:47.493Z</time></trkpt><trkpt lat="41.55674" lon="13.42025"><ele>149.33333333333334</ele><time>2026-05-02T07:16:48.493Z</time></trkpt><trkpt lat="41.5567883" lon="13.4199767"><ele>150.66666666666666</ele><time>2026-05-02T07:16:49.493Z</time></trkpt><trkpt lat="41.5568333" lon="13.419695"><ele>152.0</ele><time>2026-05-02T07:16:50.493Z</time></trkpt><trkpt lat="41.5568833" lon="13.41942"><ele>153.33333333333331</ele><time>2026-05-02T07:16:51.494Z</time></trkpt><trkpt lat="41.5569333" lon="13.41914"><ele>154.66666666666666</ele><time>2026-05-02T07:16:52.493Z</time></trkpt><trkpt lat="41.5569783" lon="13.4188583"><ele>156.0</ele><time>2026-05-02T07:16:53.493Z</time></trkpt><trkpt lat="41.5570267" lon="13.4185717"><ele>157.0</ele><time>2026-05-02T07:16:54.493Z</time></trkpt><trkpt lat="41.557075" lon="13.41829"><ele>158.0</ele><time>2026-05-02T07:16:55.493Z</time></trkpt><trkpt lat="41.5571267" lon="13.4180033"><ele>159.0</ele><time>2026-05-02T07:16:56.493Z</time></trkpt><trkpt lat="41.55718" lon="13.4177217"><ele>160.33333333333334</ele><time>2026-05-02T07:16:57.493Z</time></trkpt><trkpt lat="41.557225" lon="13.417435"><ele>161.66666666666669</ele><time>2026-05-02T07:16:58.494Z</time></trkpt><trkpt lat="41.5572783" lon="13.4171467"><ele>163.0</ele><time>2026-05-02T07:16:59.493Z</time></trkpt><trkpt lat="41.5573283" lon="13.4168717"><ele>164.33333333333334</ele><time>2026-05-02T07:17:00.493Z</time></trkpt><trkpt lat="41.5573867" lon="13.4165917"><ele>165.66666666666666</ele><time>2026-05-02T07:17:01.494Z</time></trkpt><trkpt lat="41.55744" lon="13.416305"><ele>167.0</ele><time>2026-05-02T07:17:02.493Z</time></trkpt><trkpt lat="41.5574967" lon="13.41602"><ele>168.0</ele><time>2026-05-02T07:17:03.493Z</time></trkpt><trkpt lat="41.557555" lon="13.41573"><ele>169.0</ele><time>2026-05-02T07:17:04.493Z</time></trkpt><trkpt lat="41.557615" lon="13.4154333"><ele>169.0</ele><time>2026-05-02T07:17:05.494Z</time></trkpt><trkpt lat="41.557675" lon="13.4151483"><ele>169.0</ele><time>2026-05-02T07:17:06.493Z</time></trkpt><trkpt lat="41.55774" lon="13.4148633"><ele>169.0</ele><time>2026-05-02T07:17:07.493Z</time></trkpt><trkpt lat="41.5578033" lon="13.41458"><ele>170.33333333333334</ele><time>2026-05-02T07:17:08.493Z</time></trkpt><trkpt lat="41.557875" lon="13.4143"><ele>171.66666666666666</ele><time>2026-05-02T07:17:09.493Z</time></trkpt><trkpt lat="41.557945" lon="13.4140167"><ele>173.0</ele><time>2026-05-02T07:17:10.493Z</time></trkpt><trkpt lat="41.5580117" lon="13.41374"><ele>173.0</ele><time>2026-05-02T07:17:11.493Z</time></trkpt><trkpt lat="41.558085" lon="13.4134617"><ele>173.0</ele><time>2026-05-02T07:17:12.493Z</time></trkpt><trkpt lat="41.5581667" lon="13.4131833"><ele>173.0</ele><time>2026-05-02T07:17:13.493Z</time></trkpt><trkpt lat="41.5582417" lon="13.4129067"><ele>171.66666666666666</ele><time>2026-05-02T07:17:14.493Z</time></trkpt><trkpt lat="41.558325" lon="13.4126283"><ele>170.33333333333334</ele><time>2026-05-02T07:17:15.493Z</time></trkpt><trkpt lat="41.558405" lon="13.41236"><ele>169.0</ele><time>2026-05-02T07:17:16.493Z</time></trkpt><trkpt lat="41.5584867" lon="13.4120783"><ele>167.0</ele><time>2026-05-02T07:17:17.493Z</time></trkpt><trkpt lat="41.5585783" lon="13.4117983"><ele>165.0</ele><time>2026-05-02T07:17:18.493Z</time></trkpt><trkpt lat="41.5586667" lon="13.4115183"><ele>166.66666666666666</ele><time>2026-05-02T07:17:19.493Z</time></trkpt><trkpt lat="41.5587583" lon="13.4112417"><ele>168.33333333333331</ele><time>2026-05-02T07:17:20.493Z</time></trkpt><trkpt lat="41.5588467" lon="13.41097"><ele>170.0</ele><time>2026-05-02T07:17:21.493Z</time></trkpt><trkpt lat="41.5589433" lon="13.4106933"><ele>165.5</ele><time>2026-05-02T07:17:22.493Z</time></trkpt><trkpt lat="41.5590417" lon="13.4104167"><ele>161.0</ele><time>2026-05-02T07:17:23.493Z</time></trkpt><trkpt lat="41.5591367" lon="13.4101383"><ele>161.0</ele><time>2026-05-02T07:17:24.493Z</time></trkpt><trkpt lat="41.5592317" lon="13.4098633"><ele>161.0</ele><time>2026-05-02T07:17:25.493Z</time></trkpt><trkpt lat="41.5593333" lon="13.40959"><ele>159.66666666666666</ele><time>2026-05-02T07:17:26.493Z</time></trkpt><trkpt lat="41.559435" lon="13.4093233"><ele>158.33333333333334</ele><time>2026-05-02T07:17:27.493Z</time></trkpt><trkpt lat="41.5595383" lon="13.40906"><ele>157.0</ele><time>2026-05-02T07:17:28.493Z</time></trkpt><trkpt lat="41.5596483" lon="13.4087983"><ele>154.66666666666669</ele><time>2026-05-02T07:17:29.493Z</time></trkpt><trkpt lat="41.559755" lon="13.4085417"><ele>152.33333333333334</ele><time>2026-05-02T07:17:30.493Z</time></trkpt><trkpt lat="41.5598583" lon="13.4082867"><ele>150.0</ele><time>2026-05-02T07:17:31.494Z</time></trkpt><trkpt lat="41.5599633" lon="13.4080283"><ele>147.66666666666666</ele><time>2026-05-02T07:17:32.493Z</time></trkpt><trkpt lat="41.560065" lon="13.4077767"><ele>145.33333333333331</ele><time>2026-05-02T07:17:33.493Z</time></trkpt><trkpt lat="41.5601683" lon="13.4075233"><ele>143.0</ele><time>2026-05-02T07:17:34.493Z</time></trkpt><trkpt lat="41.5602717" lon="13.4072767"><ele>144.0</ele><time>2026-05-02T07:17:35.493Z</time></trkpt><trkpt lat="41.5603833" lon="13.407025"><ele>145.0</ele><time>2026-05-02T07:17:36.493Z</time></trkpt><trkpt lat="41.56049" lon="13.4067783"><ele>146.0</ele><time>2026-05-02T07:17:37.493Z</time></trkpt><trkpt lat="41.560595" lon="13.4065317"><ele>145.33333333333331</ele><time>2026-05-02T07:17:38.493Z</time></trkpt><trkpt lat="41.5607033" lon="13.4062817"><ele>144.66666666666666</ele><time>2026-05-02T07:17:39.493Z</time></trkpt><trkpt lat="41.56081" lon="13.40603"><ele>144.0</ele><time>2026-05-02T07:17:40.493Z</time></trkpt><trkpt lat="41.5609167" lon="13.4057783"><ele>144.0</ele><time>2026-05-02T07:17:41.493Z</time></trkpt><trkpt lat="41.5610233" lon="13.40553"><ele>144.0</ele><time>2026-05-02T07:17:42.493Z</time></trkpt><trkpt lat="41.5611333" lon="13.4052767"><ele>144.0</ele><time>2026-05-02T07:17:43.493Z</time></trkpt><trkpt lat="41.56124" lon="13.4050133"><ele>144.0</ele><time>2026-05-02T07:17:44.493Z</time></trkpt><trkpt lat="41.5613483" lon="13.4047517"><ele>144.0</ele><time>2026-05-02T07:17:45.494Z</time></trkpt><trkpt lat="41.5614617" lon="13.404485"><ele>144.0</ele><time>2026-05-02T07:17:46.493Z</time></trkpt><trkpt lat="41.56157" lon="13.4042283"><ele>144.0</ele><time>2026-05-02T07:17:47.493Z</time></trkpt><trkpt lat="41.5616817" lon="13.403965"><ele>144.0</ele><time>2026-05-02T07:17:48.493Z</time></trkpt><trkpt lat="41.5617883" lon="13.4037033"><ele>145.0</ele><time>2026-05-02T07:17:49.494Z</time></trkpt><trkpt lat="41.561895" lon="13.4034417"><ele>146.0</ele><time>2026-05-02T07:17:50.493Z</time></trkpt><trkpt lat="41.5620017" lon="13.4031833"><ele>147.0</ele><time>2026-05-02T07:17:51.493Z</time></trkpt><trkpt lat="41.56211" lon="13.4029283"><ele>147.0</ele><time>2026-05-02T07:17:52.493Z</time></trkpt><trkpt lat="41.5622217" lon="13.402675"><ele>147.0</ele><time>2026-05-02T07:17:53.493Z</time></trkpt><trkpt lat="41.5623283" lon="13.40242"><ele>147.0</ele><time>2026-05-02T07:17:54.494Z</time></trkpt><trkpt lat="41.5624333" lon="13.40217"><ele>150.33333333333334</ele><time>2026-05-02T07:17:55.493Z</time></trkpt><trkpt lat="41.56254" lon="13.4019183"><ele>153.66666666666669</ele><time>2026-05-02T07:17:56.493Z</time></trkpt><trkpt lat="41.5626517" lon="13.4016683"><ele>157.0</ele><time>2026-05-02T07:17:57.493Z</time></trkpt><trkpt lat="41.5627617" lon="13.4014183"><ele>156.66666666666669</ele><time>2026-05-02T07:17:58.493Z</time></trkpt><trkpt lat="41.562865" lon="13.4011667"><ele>156.33333333333334</ele><time>2026-05-02T07:17:59.493Z</time></trkpt><trkpt lat="41.562965" lon="13.4009183"><ele>156.0</ele><time>2026-05-02T07:18:00.493Z</time></trkpt><trkpt lat="41.56306" lon="13.4006767"><ele>155.66666666666666</ele><time>2026-05-02T07:18:01.493Z</time></trkpt><trkpt lat="41.5631633" lon="13.40044"><ele>155.33333333333331</ele><time>2026-05-02T07:18:02.493Z</time></trkpt><trkpt lat="41.5632667" lon="13.4002033"><ele>155.0</ele><time>2026-05-02T07:18:03.493Z</time></trkpt><trkpt lat="41.5633667" lon="13.3999667"><ele>155.0</ele><time>2026-05-02T07:18:04.493Z</time></trkpt><trkpt lat="41.5634583" lon="13.3997267"><ele>155.0</ele><time>2026-05-02T07:18:05.493Z</time></trkpt><trkpt lat="41.5635617" lon="13.3994883"><ele>155.0</ele><time>2026-05-02T07:18:06.493Z</time></trkpt><trkpt lat="41.5636633" lon="13.39925"><ele>155.0</ele><time>2026-05-02T07:18:07.493Z</time></trkpt><trkpt lat="41.563765" lon="13.3990083"><ele>155.0</ele><time>2026-05-02T07:18:08.493Z</time></trkpt><trkpt lat="41.5638633" lon="13.3987667"><ele>155.0</ele><time>2026-05-02T07:18:09.493Z</time></trkpt><trkpt lat="41.5640633" lon="13.3982817"><ele>155.0</ele><time>2026-05-02T07:18:11.493Z</time></trkpt><trkpt lat="41.5641633" lon="13.3980417"><ele>155.0</ele><time>2026-05-02T07:18:12.493Z</time></trkpt><trkpt lat="41.564265" lon="13.3978017"><ele>155.0</ele><time>2026-05-02T07:18:13.493Z</time></trkpt><trkpt lat="41.5643683" lon="13.39756"><ele>155.0</ele><time>2026-05-02T07:18:14.494Z</time></trkpt><trkpt lat="41.5644717" lon="13.39732"><ele>155.0</ele><time>2026-05-02T07:18:15.494Z</time></trkpt><trkpt lat="41.564575" lon="13.3970783"><ele>155.0</ele><time>2026-05-02T07:18:16.494Z</time></trkpt><trkpt lat="41.564675" lon="13.3968317"><ele>156.66666666666666</ele><time>2026-05-02T07:18:17.493Z</time></trkpt><trkpt lat="41.564775" lon="13.39659"><ele>158.33333333333334</ele><time>2026-05-02T07:18:18.493Z</time></trkpt><trkpt lat="41.56488" lon="13.3963383"><ele>160.0</ele><time>2026-05-02T07:18:19.493Z</time></trkpt><trkpt lat="41.56498" lon="13.3961033"><ele>161.33333333333334</ele><time>2026-05-02T07:18:20.493Z</time></trkpt><trkpt lat="41.565085" lon="13.3958567"><ele>162.66666666666666</ele><time>2026-05-02T07:18:21.493Z</time></trkpt><trkpt lat="41.565195" lon="13.39561"><ele>164.0</ele><time>2026-05-02T07:18:22.493Z</time></trkpt><trkpt lat="41.565305" lon="13.3953567"><ele>163.33333333333331</ele><time>2026-05-02T07:18:23.493Z</time></trkpt><trkpt lat="41.565405" lon="13.3951033"><ele>162.66666666666666</ele><time>2026-05-02T07:18:24.493Z</time></trkpt><trkpt lat="41.565505" lon="13.3948517"><ele>162.0</ele><time>2026-05-02T07:18:25.493Z</time></trkpt><trkpt lat="41.5656133" lon="13.3946"><ele>162.0</ele><time>2026-05-02T07:18:26.493Z</time></trkpt><trkpt lat="41.5657183" lon="13.3943483"><ele>162.0</ele><time>2026-05-02T07:18:27.493Z</time></trkpt><trkpt lat="41.5658217" lon="13.3941033"><ele>162.0</ele><time>2026-05-02T07:18:28.493Z</time></trkpt><trkpt lat="41.5659267" lon="13.3938483"><ele>160.33333333333334</ele><time>2026-05-02T07:18:29.493Z</time></trkpt><trkpt lat="41.5660317" lon="13.3935917"><ele>158.66666666666669</ele><time>2026-05-02T07:18:30.494Z</time></trkpt><trkpt lat="41.5661367" lon="13.3933433"><ele>157.0</ele><time>2026-05-02T07:18:31.494Z</time></trkpt><trkpt lat="41.5662383" lon="13.3930933"><ele>152.66666666666669</ele><time>2026-05-02T07:18:32.493Z</time></trkpt><trkpt lat="41.5663483" lon="13.3928417"><ele>148.33333333333334</ele><time>2026-05-02T07:18:33.493Z</time></trkpt><trkpt lat="41.5664583" lon="13.3925917"><ele>144.0</ele><time>2026-05-02T07:18:34.493Z</time></trkpt><trkpt lat="41.5665583" lon="13.3923383"><ele>143.0</ele><time>2026-05-02T07:18:35.493Z</time></trkpt><trkpt lat="41.56666" lon="13.3920883"><ele>142.0</ele><time>2026-05-02T07:18:36.493Z</time></trkpt><trkpt lat="41.5667667" lon="13.39184"><ele>141.0</ele><time>2026-05-02T07:18:37.493Z</time></trkpt><trkpt lat="41.566875" lon="13.3915883"><ele>140.33333333333334</ele><time>2026-05-02T07:18:38.493Z</time></trkpt><trkpt lat="41.5669783" lon="13.3913383"><ele>139.66666666666669</ele><time>2026-05-02T07:18:39.494Z</time></trkpt><trkpt lat="41.5670883" lon="13.3910883"><ele>139.0</ele><time>2026-05-02T07:18:40.493Z</time></trkpt><trkpt lat="41.56719" lon="13.3908367"><ele>139.0</ele><time>2026-05-02T07:18:41.493Z</time></trkpt><trkpt lat="41.5672933" lon="13.3905867"><ele>139.0</ele><time>2026-05-02T07:18:42.493Z</time></trkpt><trkpt lat="41.5673967" lon="13.3903433"><ele>139.0</ele><time>2026-05-02T07:18:43.493Z</time></trkpt><trkpt lat="41.5675017" lon="13.3901017"><ele>139.66666666666669</ele><time>2026-05-02T07:18:44.493Z</time></trkpt><trkpt lat="41.567605" lon="13.38986"><ele>140.33333333333334</ele><time>2026-05-02T07:18:45.493Z</time></trkpt><trkpt lat="41.5677033" lon="13.3896167"><ele>141.0</ele><time>2026-05-02T07:18:46.493Z</time></trkpt><trkpt lat="41.5678117" lon="13.3893717"><ele>144.33333333333334</ele><time>2026-05-02T07:18:47.493Z</time></trkpt><trkpt lat="41.567915" lon="13.3891233"><ele>147.66666666666669</ele><time>2026-05-02T07:18:48.493Z</time></trkpt><trkpt lat="41.56802" lon="13.3888767"><ele>151.0</ele><time>2026-05-02T07:18:49.493Z</time></trkpt><trkpt lat="41.5681233" lon="13.3886267"><ele>151.0</ele><time>2026-05-02T07:18:50.493Z</time></trkpt><trkpt lat="41.56823" lon="13.38838"><ele>151.0</ele><time>2026-05-02T07:18:51.493Z</time></trkpt><trkpt lat="41.56833" lon="13.3881317"><ele>151.0</ele><time>2026-05-02T07:18:52.493Z</time></trkpt><trkpt lat="41.5684383" lon="13.387875"><ele>151.33333333333334</ele><time>2026-05-02T07:18:53.493Z</time></trkpt><trkpt lat="41.568545" lon="13.387625"><ele>151.66666666666666</ele><time>2026-05-02T07:18:54.493Z</time></trkpt><trkpt lat="41.5686483" lon="13.3873683"><ele>152.0</ele><time>2026-05-02T07:18:55.493Z</time></trkpt><trkpt lat="41.5687617" lon="13.3871217"><ele>152.0</ele><time>2026-05-02T07:18:56.493Z</time></trkpt><trkpt lat="41.56887" lon="13.3868817"><ele>152.0</ele><time>2026-05-02T07:18:57.493Z</time></trkpt><trkpt lat="41.56898" lon="13.3866333"><ele>152.0</ele><time>2026-05-02T07:18:58.493Z</time></trkpt><trkpt lat="41.56909" lon="13.3863867"><ele>152.33333333333331</ele><time>2026-05-02T07:18:59.493Z</time></trkpt><trkpt lat="41.5692033" lon="13.38613"><ele>152.66666666666666</ele><time>2026-05-02T07:19:00.493Z</time></trkpt><trkpt lat="41.569315" lon="13.3858767"><ele>153.0</ele><time>2026-05-02T07:19:01.493Z</time></trkpt><trkpt lat="41.56942" lon="13.3856217"><ele>152.33333333333334</ele><time>2026-05-02T07:19:02.493Z</time></trkpt><trkpt lat="41.5695317" lon="13.38537"><ele>151.66666666666669</ele><time>2026-05-02T07:19:03.493Z</time></trkpt><trkpt lat="41.5696417" lon="13.38511"><ele>151.0</ele><time>2026-05-02T07:19:04.493Z</time></trkpt><trkpt lat="41.569755" lon="13.3848467"><ele>154.66666666666669</ele><time>2026-05-02T07:19:05.493Z</time></trkpt><trkpt lat="41.5698633" lon="13.3845867"><ele>158.33333333333334</ele><time>2026-05-02T07:19:06.493Z</time></trkpt><trkpt lat="41.5699667" lon="13.3843317"><ele>162.0</ele><time>2026-05-02T07:19:07.493Z</time></trkpt><trkpt lat="41.5700733" lon="13.3840783"><ele>163.0</ele><time>2026-05-02T07:19:08.493Z</time></trkpt><trkpt lat="41.570185" lon="13.3838267"><ele>164.0</ele><time>2026-05-02T07:19:09.493Z</time></trkpt><trkpt lat="41.5702917" lon="13.3835817"><ele>165.0</ele><time>2026-05-02T07:19:10.493Z</time></trkpt><trkpt lat="41.5705017" lon="13.3830817"><ele>166.0</ele><time>2026-05-02T07:19:12.493Z</time></trkpt><trkpt lat="41.5706083" lon="13.3828417"><ele>167.0</ele><time>2026-05-02T07:19:13.493Z</time></trkpt><trkpt lat="41.5707083" lon="13.3825917"><ele>168.0</ele><time>2026-05-02T07:19:14.493Z</time></trkpt><trkpt lat="41.5708117" lon="13.3823417"><ele>170.33333333333334</ele><time>2026-05-02T07:19:15.493Z</time></trkpt><trkpt lat="41.5709117" lon="13.3820967"><ele>172.66666666666669</ele><time>2026-05-02T07:19:16.493Z</time></trkpt><trkpt lat="41.571015" lon="13.3818467"><ele>175.0</ele><time>2026-05-02T07:19:17.493Z</time></trkpt><trkpt lat="41.5711217" lon="13.3815983"><ele>176.0</ele><time>2026-05-02T07:19:18.493Z</time></trkpt><trkpt lat="41.571225" lon="13.3813533"><ele>177.0</ele><time>2026-05-02T07:19:19.493Z</time></trkpt><trkpt lat="41.5713317" lon="13.3811117"><ele>178.0</ele><time>2026-05-02T07:19:20.493Z</time></trkpt><trkpt lat="41.5714367" lon="13.38087"><ele>178.0</ele><time>2026-05-02T07:19:21.493Z</time></trkpt><trkpt lat="41.57155" lon="13.3806283"><ele>178.0</ele><time>2026-05-02T07:19:22.493Z</time></trkpt><trkpt lat="41.5716583" lon="13.380385"><ele>178.0</ele><time>2026-05-02T07:19:23.493Z</time></trkpt><trkpt lat="41.571695" lon="13.3800533"><ele>177.0</ele><time>2026-05-02T07:19:24.493Z</time></trkpt><trkpt lat="41.5718217" lon="13.3798467"><ele>176.0</ele><time>2026-05-02T07:19:25.493Z</time></trkpt><trkpt lat="41.5719533" lon="13.37959"><ele>175.0</ele><time>2026-05-02T07:19:26.493Z</time></trkpt><trkpt lat="41.57208" lon="13.3793333"><ele>168.0</ele><time>2026-05-02T07:19:27.493Z</time></trkpt><trkpt lat="41.5721883" lon="13.37906"><ele>161.0</ele><time>2026-05-02T07:19:28.493Z</time></trkpt><trkpt lat="41.5722933" lon="13.3787867"><ele>158.0</ele><time>2026-05-02T07:19:29.493Z</time></trkpt><trkpt lat="41.5724033" lon="13.3785183"><ele>155.0</ele><time>2026-05-02T07:19:30.493Z</time></trkpt><trkpt lat="41.572515" lon="13.3782517"><ele>153.5</ele><time>2026-05-02T07:19:31.493Z</time></trkpt><trkpt lat="41.5726317" lon="13.3779883"><ele>152.0</ele><time>2026-05-02T07:19:32.493Z</time></trkpt><trkpt lat="41.572745" lon="13.37772"><ele>150.5</ele><time>2026-05-02T07:19:33.493Z</time></trkpt><trkpt lat="41.57286" lon="13.377455"><ele>149.0</ele><time>2026-05-02T07:19:34.493Z</time></trkpt><trkpt lat="41.5729717" lon="13.377195"><ele>151.66666666666666</ele><time>2026-05-02T07:19:35.493Z</time></trkpt><trkpt lat="41.5730817" lon="13.3769333"><ele>154.33333333333334</ele><time>2026-05-02T07:19:36.493Z</time></trkpt><trkpt lat="41.5731883" lon="13.3766717"><ele>157.0</ele><time>2026-05-02T07:19:37.493Z</time></trkpt><trkpt lat="41.573295" lon="13.3764067"><ele>158.0</ele><time>2026-05-02T07:19:38.493Z</time></trkpt><trkpt lat="41.5734033" lon="13.3761433"><ele>159.0</ele><time>2026-05-02T07:19:39.493Z</time></trkpt><trkpt lat="41.5735083" lon="13.37588"><ele>160.0</ele><time>2026-05-02T07:19:40.493Z</time></trkpt><trkpt lat="41.5736167" lon="13.375615"><ele>164.5</ele><time>2026-05-02T07:19:41.493Z</time></trkpt><trkpt lat="41.5737317" lon="13.375355"><ele>169.0</ele><time>2026-05-02T07:19:42.494Z</time></trkpt><trkpt lat="41.5738467" lon="13.3750917"><ele>169.0</ele><time>2026-05-02T07:19:43.493Z</time></trkpt><trkpt lat="41.57396" lon="13.374825"><ele>169.0</ele><time>2026-05-02T07:19:44.493Z</time></trkpt><trkpt lat="41.57407" lon="13.3745583"><ele>163.5</ele><time>2026-05-02T07:19:45.493Z</time></trkpt><trkpt lat="41.57418" lon="13.3742883"><ele>158.0</ele><time>2026-05-02T07:19:46.493Z</time></trkpt><trkpt lat="41.5742883" lon="13.3740117"><ele>153.0</ele><time>2026-05-02T07:19:47.493Z</time></trkpt><trkpt lat="41.5743967" lon="13.37374"><ele>148.0</ele><time>2026-05-02T07:19:48.493Z</time></trkpt><trkpt lat="41.5745083" lon="13.3734783"><ele>148.0</ele><time>2026-05-02T07:19:49.493Z</time></trkpt><trkpt lat="41.57461" lon="13.3732167"><ele>148.0</ele><time>2026-05-02T07:19:50.493Z</time></trkpt><trkpt lat="41.5747167" lon="13.3729567"><ele>148.0</ele><time>2026-05-02T07:19:51.493Z</time></trkpt><trkpt lat="41.57482" lon="13.3726967"><ele>146.0</ele><time>2026-05-02T07:19:52.493Z</time></trkpt><trkpt lat="41.5749233" lon="13.37244"><ele>144.0</ele><time>2026-05-02T07:19:53.493Z</time></trkpt><trkpt lat="41.5750217" lon="13.3721833"><ele>142.0</ele><time>2026-05-02T07:19:54.493Z</time></trkpt><trkpt lat="41.575125" lon="13.37193"><ele>140.0</ele><time>2026-05-02T07:19:55.493Z</time></trkpt><trkpt lat="41.575225" lon="13.3716667"><ele>138.0</ele><time>2026-05-02T07:19:56.493Z</time></trkpt><trkpt lat="41.5753233" lon="13.3714083"><ele>136.0</ele><time>2026-05-02T07:19:57.493Z</time></trkpt><trkpt lat="41.5754267" lon="13.3711533"><ele>136.66666666666669</ele><time>2026-05-02T07:19:58.493Z</time></trkpt><trkpt lat="41.5755233" lon="13.3709017"><ele>137.33333333333334</ele><time>2026-05-02T07:19:59.493Z</time></trkpt><trkpt lat="41.575625" lon="13.3706517"><ele>138.0</ele><time>2026-05-02T07:20:00.493Z</time></trkpt><trkpt lat="41.5757233" lon="13.370405"><ele>138.0</ele><time>2026-05-02T07:20:01.493Z</time></trkpt><trkpt lat="41.5758183" lon="13.37016"><ele>138.0</ele><time>2026-05-02T07:20:02.493Z</time></trkpt><trkpt lat="41.5759233" lon="13.3699167"><ele>138.0</ele><time>2026-05-02T07:20:03.493Z</time></trkpt><trkpt lat="41.5760233" lon="13.36967"><ele>139.33333333333334</ele><time>2026-05-02T07:20:04.493Z</time></trkpt><trkpt lat="41.5761233" lon="13.369425"><ele>140.66666666666669</ele><time>2026-05-02T07:20:05.494Z</time></trkpt><trkpt lat="41.5762283" lon="13.3691817"><ele>142.0</ele><time>2026-05-02T07:20:06.493Z</time></trkpt><trkpt lat="41.5763333" lon="13.3689333"><ele>145.33333333333334</ele><time>2026-05-02T07:20:07.493Z</time></trkpt><trkpt lat="41.5764333" lon="13.36869"><ele>148.66666666666666</ele><time>2026-05-02T07:20:08.493Z</time></trkpt><trkpt lat="41.576535" lon="13.3684467"><ele>152.0</ele><time>2026-05-02T07:20:09.493Z</time></trkpt><trkpt lat="41.5766483" lon="13.3682083"><ele>151.0</ele><time>2026-05-02T07:20:10.493Z</time></trkpt><trkpt lat="41.5767567" lon="13.367965"><ele>150.0</ele><time>2026-05-02T07:20:11.494Z</time></trkpt><trkpt lat="41.5768567" lon="13.36772"><ele>149.0</ele><time>2026-05-02T07:20:12.493Z</time></trkpt><trkpt lat="41.576955" lon="13.3674683"><ele>151.0</ele><time>2026-05-02T07:20:13.493Z</time></trkpt><trkpt lat="41.577055" lon="13.3672133"><ele>153.0</ele><time>2026-05-02T07:20:14.493Z</time></trkpt><trkpt lat="41.577165" lon="13.3669617"><ele>155.0</ele><time>2026-05-02T07:20:15.493Z</time></trkpt><trkpt lat="41.577265" lon="13.3667133"><ele>155.0</ele><time>2026-05-02T07:20:16.493Z</time></trkpt><trkpt lat="41.5773683" lon="13.3664667"><ele>155.0</ele><time>2026-05-02T07:20:17.493Z</time></trkpt><trkpt lat="41.5774767" lon="13.36622"><ele>155.0</ele><time>2026-05-02T07:20:18.493Z</time></trkpt><trkpt lat="41.577585" lon="13.3659717"><ele>153.33333333333331</ele><time>2026-05-02T07:20:19.493Z</time></trkpt><trkpt lat="41.5776867" lon="13.3657233"><ele>151.66666666666666</ele><time>2026-05-02T07:20:20.493Z</time></trkpt><trkpt lat="41.5777867" lon="13.3654733"><ele>150.0</ele><time>2026-05-02T07:20:21.493Z</time></trkpt><trkpt lat="41.5778917" lon="13.365225"><ele>151.66666666666666</ele><time>2026-05-02T07:20:22.493Z</time></trkpt><trkpt lat="41.5779967" lon="13.3649833"><ele>153.33333333333331</ele><time>2026-05-02T07:20:23.493Z</time></trkpt><trkpt lat="41.5781017" lon="13.3647283"><ele>155.0</ele><time>2026-05-02T07:20:24.493Z</time></trkpt><trkpt lat="41.5782083" lon="13.3644767"><ele>155.0</ele><time>2026-05-02T07:20:25.493Z</time></trkpt><trkpt lat="41.5783167" lon="13.36423"><ele>155.0</ele><time>2026-05-02T07:20:26.493Z</time></trkpt><trkpt lat="41.57842" lon="13.36397"><ele>155.0</ele><time>2026-05-02T07:20:27.493Z</time></trkpt><trkpt lat="41.5785233" lon="13.3637183"><ele>153.66666666666666</ele><time>2026-05-02T07:20:28.493Z</time></trkpt><trkpt lat="41.5786283" lon="13.3634667"><ele>152.33333333333334</ele><time>2026-05-02T07:20:29.494Z</time></trkpt><trkpt lat="41.5787383" lon="13.3632183"><ele>151.0</ele><time>2026-05-02T07:20:30.493Z</time></trkpt><trkpt lat="41.57884" lon="13.3629667"><ele>153.33333333333334</ele><time>2026-05-02T07:20:31.494Z</time></trkpt><trkpt lat="41.5789483" lon="13.3627067"><ele>155.66666666666666</ele><time>2026-05-02T07:20:32.493Z</time></trkpt><trkpt lat="41.57906" lon="13.3624517"><ele>158.0</ele><time>2026-05-02T07:20:33.493Z</time></trkpt><trkpt lat="41.579175" lon="13.3621967"><ele>158.0</ele><time>2026-05-02T07:20:34.493Z</time></trkpt><trkpt lat="41.5792833" lon="13.361945"><ele>158.0</ele><time>2026-05-02T07:20:35.493Z</time></trkpt><trkpt lat="41.579395" lon="13.3616983"><ele>158.0</ele><time>2026-05-02T07:20:36.493Z</time></trkpt><trkpt lat="41.5794983" lon="13.3614617"><ele>159.66666666666666</ele><time>2026-05-02T07:20:37.493Z</time></trkpt><trkpt lat="41.5796083" lon="13.3612217"><ele>161.33333333333334</ele><time>2026-05-02T07:20:38.493Z</time></trkpt><trkpt lat="41.5797167" lon="13.3609917"><ele>163.0</ele><time>2026-05-02T07:20:39.493Z</time></trkpt><trkpt lat="41.5798317" lon="13.3607583"><ele>162.0</ele><time>2026-05-02T07:20:40.493Z</time></trkpt><trkpt lat="41.57994" lon="13.36053"><ele>161.0</ele><time>2026-05-02T07:20:41.493Z</time></trkpt><trkpt lat="41.58005" lon="13.3602983"><ele>160.0</ele><time>2026-05-02T07:20:42.493Z</time></trkpt><trkpt lat="41.58016" lon="13.360065"><ele>160.0</ele><time>2026-05-02T07:20:43.493Z</time></trkpt><trkpt lat="41.5802783" lon="13.3598333"><ele>160.0</ele><time>2026-05-02T07:20:44.493Z</time></trkpt><trkpt lat="41.5803933" lon="13.359605"><ele>160.0</ele><time>2026-05-02T07:20:45.493Z</time></trkpt><trkpt lat="41.580515" lon="13.35938"><ele>163.33333333333334</ele><time>2026-05-02T07:20:46.493Z</time></trkpt><trkpt lat="41.580635" lon="13.3591483"><ele>166.66666666666666</ele><time>2026-05-02T07:20:47.493Z</time></trkpt><trkpt lat="41.58075" lon="13.3589183"><ele>170.0</ele><time>2026-05-02T07:20:48.493Z</time></trkpt><trkpt lat="41.5808733" lon="13.3586883"><ele>171.33333333333331</ele><time>2026-05-02T07:20:49.493Z</time></trkpt><trkpt lat="41.5809983" lon="13.3584517"><ele>172.66666666666666</ele><time>2026-05-02T07:20:50.493Z</time></trkpt><trkpt lat="41.5811233" lon="13.358215"><ele>174.0</ele><time>2026-05-02T07:20:51.493Z</time></trkpt><trkpt lat="41.5812483" lon="13.3579867"><ele>176.0</ele><time>2026-05-02T07:20:52.493Z</time></trkpt><trkpt lat="41.5813717" lon="13.3577517"><ele>178.0</ele><time>2026-05-02T07:20:53.493Z</time></trkpt><trkpt lat="41.5814967" lon="13.35752"><ele>180.0</ele><time>2026-05-02T07:20:54.493Z</time></trkpt><trkpt lat="41.581625" lon="13.3572883"><ele>181.33333333333334</ele><time>2026-05-02T07:20:55.493Z</time></trkpt><trkpt lat="41.58176" lon="13.3570517"><ele>182.66666666666669</ele><time>2026-05-02T07:20:56.493Z</time></trkpt><trkpt lat="41.5819017" lon="13.3568233"><ele>184.0</ele><time>2026-05-02T07:20:57.493Z</time></trkpt><trkpt lat="41.5820467" lon="13.3565967"><ele>177.0</ele><time>2026-05-02T07:20:58.493Z</time></trkpt><trkpt lat="41.58219" lon="13.3563633"><ele>170.0</ele><time>2026-05-02T07:20:59.493Z</time></trkpt><trkpt lat="41.58233" lon="13.3561267"><ele>170.0</ele><time>2026-05-02T07:21:00.494Z</time></trkpt><trkpt lat="41.5824717" lon="13.35589"><ele>170.0</ele><time>2026-05-02T07:21:01.493Z</time></trkpt><trkpt lat="41.5826183" lon="13.35566"><ele>171.66666666666666</ele><time>2026-05-02T07:21:02.493Z</time></trkpt><trkpt lat="41.5827633" lon="13.3554367"><ele>173.33333333333334</ele><time>2026-05-02T07:21:03.493Z</time></trkpt><trkpt lat="41.5829017" lon="13.35521"><ele>175.0</ele><time>2026-05-02T07:21:04.493Z</time></trkpt><trkpt lat="41.583045" lon="13.3549733"><ele>171.0</ele><time>2026-05-02T07:21:05.493Z</time></trkpt><trkpt lat="41.5831883" lon="13.3547433"><ele>167.0</ele><time>2026-05-02T07:21:06.493Z</time></trkpt><trkpt lat="41.5833267" lon="13.3545133"><ele>163.0</ele><time>2026-05-02T07:21:07.493Z</time></trkpt><trkpt lat="41.58347" lon="13.35428"><ele>163.0</ele><time>2026-05-02T07:21:08.493Z</time></trkpt><trkpt lat="41.5836067" lon="13.3540517"><ele>163.0</ele><time>2026-05-02T07:21:09.493Z</time></trkpt><trkpt lat="41.58375" lon="13.353815"><ele>163.0</ele><time>2026-05-02T07:21:10.493Z</time></trkpt><trkpt lat="41.5838917" lon="13.35358"><ele>154.0</ele><time>2026-05-02T07:21:11.493Z</time></trkpt><trkpt lat="41.584035" lon="13.35335"><ele>145.0</ele><time>2026-05-02T07:21:12.493Z</time></trkpt><trkpt lat="41.5841783" lon="13.35311"><ele>144.33333333333334</ele><time>2026-05-02T07:21:13.493Z</time></trkpt><trkpt lat="41.5843167" lon="13.3528783"><ele>143.66666666666666</ele><time>2026-05-02T07:21:14.493Z</time></trkpt><trkpt lat="41.58446" lon="13.352645"><ele>143.0</ele><time>2026-05-02T07:21:15.493Z</time></trkpt><trkpt lat="41.5846017" lon="13.3524217"><ele>147.33333333333331</ele><time>2026-05-02T07:21:16.493Z</time></trkpt><trkpt lat="41.5847383" lon="13.3521983"><ele>151.66666666666666</ele><time>2026-05-02T07:21:17.493Z</time></trkpt><trkpt lat="41.5848733" lon="13.35197"><ele>156.0</ele><time>2026-05-02T07:21:18.493Z</time></trkpt><trkpt lat="41.5850183" lon="13.3517433"><ele>156.0</ele><time>2026-05-02T07:21:19.493Z</time></trkpt><trkpt lat="41.585155" lon="13.3515117"><ele>156.0</ele><time>2026-05-02T07:21:20.493Z</time></trkpt><trkpt lat="41.585295" lon="13.3512817"><ele>156.0</ele><time>2026-05-02T07:21:21.493Z</time></trkpt><trkpt lat="41.5854283" lon="13.3510583"><ele>156.66666666666666</ele><time>2026-05-02T07:21:22.493Z</time></trkpt><trkpt lat="41.58557" lon="13.350835"><ele>157.33333333333331</ele><time>2026-05-02T07:21:23.494Z</time></trkpt><trkpt lat="41.5857083" lon="13.3506117"><ele>158.0</ele><time>2026-05-02T07:21:24.494Z</time></trkpt><trkpt lat="41.5858483" lon="13.3503833"><ele>158.0</ele><time>2026-05-02T07:21:25.494Z</time></trkpt><trkpt lat="41.585985" lon="13.3501567"><ele>158.0</ele><time>2026-05-02T07:21:26.494Z</time></trkpt><trkpt lat="41.5861283" lon="13.349925"><ele>158.0</ele><time>2026-05-02T07:21:27.494Z</time></trkpt><trkpt lat="41.586265" lon="13.3497"><ele>158.66666666666666</ele><time>2026-05-02T07:21:28.494Z</time></trkpt><trkpt lat="41.5864033" lon="13.3494717"><ele>159.33333333333334</ele><time>2026-05-02T07:21:29.494Z</time></trkpt><trkpt lat="41.586535" lon="13.349255"><ele>160.0</ele><time>2026-05-02T07:21:30.494Z</time></trkpt><trkpt lat="41.5866683" lon="13.34904"><ele>159.33333333333334</ele><time>2026-05-02T07:21:31.494Z</time></trkpt><trkpt lat="41.5868033" lon="13.3488267"><ele>158.66666666666666</ele><time>2026-05-02T07:21:32.494Z</time></trkpt><trkpt lat="41.5869367" lon="13.3486133"><ele>158.0</ele><time>2026-05-02T07:21:33.494Z</time></trkpt><trkpt lat="41.5870617" lon="13.3483967"><ele>158.0</ele><time>2026-05-02T07:21:34.494Z</time></trkpt><trkpt lat="41.5871917" lon="13.3481867"><ele>158.0</ele><time>2026-05-02T07:21:35.494Z</time></trkpt><trkpt lat="41.5873217" lon="13.34797"><ele>158.0</ele><time>2026-05-02T07:21:36.494Z</time></trkpt><trkpt lat="41.5874483" lon="13.3477533"><ele>160.0</ele><time>2026-05-02T07:21:37.494Z</time></trkpt><trkpt lat="41.5875733" lon="13.3475333"><ele>162.0</ele><time>2026-05-02T07:21:38.495Z</time></trkpt><trkpt lat="41.5877017" lon="13.3473117"><ele>164.0</ele><time>2026-05-02T07:21:39.494Z</time></trkpt><trkpt lat="41.5878317" lon="13.347095"><ele>168.33333333333331</ele><time>2026-05-02T07:21:40.494Z</time></trkpt><trkpt lat="41.5879683" lon="13.346885"><ele>172.66666666666666</ele><time>2026-05-02T07:21:41.494Z</time></trkpt><trkpt lat="41.5880983" lon="13.34667"><ele>177.0</ele><time>2026-05-02T07:21:42.494Z</time></trkpt><trkpt lat="41.58824" lon="13.3464567"><ele>177.33333333333334</ele><time>2026-05-02T07:21:43.494Z</time></trkpt><trkpt lat="41.5883667" lon="13.34624"><ele>177.66666666666669</ele><time>2026-05-02T07:21:44.494Z</time></trkpt><trkpt lat="41.5885033" lon="13.3460183"><ele>178.0</ele><time>2026-05-02T07:21:45.494Z</time></trkpt><trkpt lat="41.5886367" lon="13.3458"><ele>177.33333333333334</ele><time>2026-05-02T07:21:46.494Z</time></trkpt><trkpt lat="41.5887717" lon="13.3455867"><ele>176.66666666666666</ele><time>2026-05-02T07:21:47.494Z</time></trkpt><trkpt lat="41.5889033" lon="13.3453617"><ele>176.0</ele><time>2026-05-02T07:21:48.494Z</time></trkpt><trkpt lat="41.5890367" lon="13.34514"><ele>172.66666666666666</ele><time>2026-05-02T07:21:49.494Z</time></trkpt><trkpt lat="41.5891733" lon="13.34492"><ele>169.33333333333334</ele><time>2026-05-02T07:21:50.494Z</time></trkpt><trkpt lat="41.58931" lon="13.3446933"><ele>166.0</ele><time>2026-05-02T07:21:51.494Z</time></trkpt><trkpt lat="41.5894483" lon="13.34447"><ele>163.66666666666669</ele><time>2026-05-02T07:21:52.494Z</time></trkpt><trkpt lat="41.58959" lon="13.3442383"><ele>161.33333333333334</ele><time>2026-05-02T07:21:53.494Z</time></trkpt><trkpt lat="41.58973" lon="13.344005"><ele>159.0</ele><time>2026-05-02T07:21:54.494Z</time></trkpt><trkpt lat="41.5898683" lon="13.3437833"><ele>159.0</ele><time>2026-05-02T07:21:55.494Z</time></trkpt><trkpt lat="41.5900017" lon="13.3435617"><ele>159.0</ele><time>2026-05-02T07:21:56.494Z</time></trkpt><trkpt lat="41.5901383" lon="13.3433383"><ele>159.0</ele><time>2026-05-02T07:21:57.494Z</time></trkpt><trkpt lat="41.590275" lon="13.3431117"><ele>159.66666666666666</ele><time>2026-05-02T07:21:58.494Z</time></trkpt><trkpt lat="41.5904117" lon="13.3428833"><ele>160.33333333333331</ele><time>2026-05-02T07:21:59.494Z</time></trkpt><trkpt lat="41.59055" lon="13.3426633"><ele>161.0</ele><time>2026-05-02T07:22:00.495Z</time></trkpt><trkpt lat="41.5906917" lon="13.3424483"><ele>161.0</ele><time>2026-05-02T07:22:01.494Z</time></trkpt><trkpt lat="41.5908317" lon="13.3422267"><ele>161.0</ele><time>2026-05-02T07:22:02.494Z</time></trkpt><trkpt lat="41.590965" lon="13.3420083"><ele>161.0</ele><time>2026-05-02T07:22:03.494Z</time></trkpt><trkpt lat="41.5911" lon="13.341785"><ele>166.0</ele><time>2026-05-02T07:22:04.494Z</time></trkpt><trkpt lat="41.5912333" lon="13.3415667"><ele>171.0</ele><time>2026-05-02T07:22:05.494Z</time></trkpt><trkpt lat="41.5913683" lon="13.341345"><ele>176.0</ele><time>2026-05-02T07:22:06.494Z</time></trkpt><trkpt lat="41.5915067" lon="13.3411233"><ele>176.0</ele><time>2026-05-02T07:22:07.494Z</time></trkpt><trkpt lat="41.5916383" lon="13.3409067"><ele>176.0</ele><time>2026-05-02T07:22:08.494Z</time></trkpt><trkpt lat="41.5917717" lon="13.3406917"><ele>176.0</ele><time>2026-05-02T07:22:09.494Z</time></trkpt><trkpt lat="41.5919117" lon="13.340475"><ele>175.66666666666666</ele><time>2026-05-02T07:22:10.494Z</time></trkpt><trkpt lat="41.5920567" lon="13.3402617"><ele>175.33333333333334</ele><time>2026-05-02T07:22:11.494Z</time></trkpt><trkpt lat="41.59221" lon="13.3400517"><ele>175.0</ele><time>2026-05-02T07:22:12.494Z</time></trkpt><trkpt lat="41.5923583" lon="13.339845"><ele>173.33333333333334</ele><time>2026-05-02T07:22:13.494Z</time></trkpt><trkpt lat="41.5925133" lon="13.33964"><ele>171.66666666666666</ele><time>2026-05-02T07:22:14.494Z</time></trkpt><trkpt lat="41.59267" lon="13.3394333"><ele>170.0</ele><time>2026-05-02T07:22:15.495Z</time></trkpt><trkpt lat="41.5928333" lon="13.3392283"><ele>170.0</ele><time>2026-05-02T07:22:16.494Z</time></trkpt><trkpt lat="41.5930017" lon="13.3390283"><ele>170.0</ele><time>2026-05-02T07:22:17.494Z</time></trkpt><trkpt lat="41.593165" lon="13.3388367"><ele>170.0</ele><time>2026-05-02T07:22:18.494Z</time></trkpt><trkpt lat="41.593335" lon="13.33865"><ele>170.0</ele><time>2026-05-02T07:22:19.494Z</time></trkpt><trkpt lat="41.593505" lon="13.3384667"><ele>170.0</ele><time>2026-05-02T07:22:20.494Z</time></trkpt><trkpt lat="41.5936683" lon="13.3382933"><ele>170.0</ele><time>2026-05-02T07:22:21.494Z</time></trkpt><trkpt lat="41.5938367" lon="13.3381333"><ele>171.66666666666666</ele><time>2026-05-02T07:22:22.494Z</time></trkpt><trkpt lat="41.5940083" lon="13.337975"><ele>173.33333333333334</ele><time>2026-05-02T07:22:23.494Z</time></trkpt><trkpt lat="41.59418" lon="13.3378233"><ele>175.0</ele><time>2026-05-02T07:22:24.494Z</time></trkpt><trkpt lat="41.59436" lon="13.337675"><ele>174.33333333333334</ele><time>2026-05-02T07:22:25.494Z</time></trkpt><trkpt lat="41.5945383" lon="13.3375283"><ele>173.66666666666666</ele><time>2026-05-02T07:22:26.494Z</time></trkpt><trkpt lat="41.5947183" lon="13.3373783"><ele>173.0</ele><time>2026-05-02T07:22:27.494Z</time></trkpt><trkpt lat="41.5949" lon="13.337235"><ele>172.66666666666666</ele><time>2026-05-02T07:22:28.494Z</time></trkpt><trkpt lat="41.59508" lon="13.3371033"><ele>172.33333333333334</ele><time>2026-05-02T07:22:29.494Z</time></trkpt><trkpt lat="41.595265" lon="13.33697"><ele>172.0</ele><time>2026-05-02T07:22:30.494Z</time></trkpt><trkpt lat="41.5954467" lon="13.336835"><ele>168.33333333333334</ele><time>2026-05-02T07:22:31.494Z</time></trkpt><trkpt lat="41.5956317" lon="13.3367017"><ele>164.66666666666666</ele><time>2026-05-02T07:22:32.494Z</time></trkpt><trkpt lat="41.595825" lon="13.3365717"><ele>161.0</ele><time>2026-05-02T07:22:33.494Z</time></trkpt><trkpt lat="41.59602" lon="13.3364517"><ele>161.33333333333331</ele><time>2026-05-02T07:22:34.494Z</time></trkpt><trkpt lat="41.5962233" lon="13.3363467"><ele>161.66666666666666</ele><time>2026-05-02T07:22:35.494Z</time></trkpt><trkpt lat="41.59642" lon="13.3362383"><ele>162.0</ele><time>2026-05-02T07:22:36.495Z</time></trkpt><trkpt lat="41.5966183" lon="13.3361383"><ele>162.0</ele><time>2026-05-02T07:22:37.494Z</time></trkpt><trkpt lat="41.5968217" lon="13.33604"><ele>162.0</ele><time>2026-05-02T07:22:38.495Z</time></trkpt><trkpt lat="41.5970317" lon="13.33594"><ele>162.0</ele><time>2026-05-02T07:22:39.494Z</time></trkpt><trkpt lat="41.597235" lon="13.335855"><ele>158.66666666666666</ele><time>2026-05-02T07:22:40.494Z</time></trkpt><trkpt lat="41.5974417" lon="13.33576"><ele>155.33333333333331</ele><time>2026-05-02T07:22:41.494Z</time></trkpt><trkpt lat="41.59765" lon="13.33567"><ele>152.0</ele><time>2026-05-02T07:22:42.494Z</time></trkpt><trkpt lat="41.5978633" lon="13.3355833"><ele>149.0</ele><time>2026-05-02T07:22:43.494Z</time></trkpt><trkpt lat="41.5980717" lon="13.3354917"><ele>146.0</ele><time>2026-05-02T07:22:44.494Z</time></trkpt><trkpt lat="41.5982817" lon="13.3354"><ele>143.0</ele><time>2026-05-02T07:22:45.494Z</time></trkpt><trkpt lat="41.5984967" lon="13.3353167"><ele>141.66666666666666</ele><time>2026-05-02T07:22:46.494Z</time></trkpt><trkpt lat="41.5987083" lon="13.3352283"><ele>140.33333333333334</ele><time>2026-05-02T07:22:47.494Z</time></trkpt><trkpt lat="41.5989167" lon="13.33514"><ele>139.0</ele><time>2026-05-02T07:22:48.495Z</time></trkpt><trkpt lat="41.59913" lon="13.3350567"><ele>139.0</ele><time>2026-05-02T07:22:49.494Z</time></trkpt><trkpt lat="41.5993383" lon="13.33497"><ele>139.0</ele><time>2026-05-02T07:22:50.494Z</time></trkpt><trkpt lat="41.59955" lon="13.3348767"><ele>139.0</ele><time>2026-05-02T07:22:51.494Z</time></trkpt><trkpt lat="41.5997617" lon="13.3347967"><ele>139.0</ele><time>2026-05-02T07:22:52.494Z</time></trkpt><trkpt lat="41.5999733" lon="13.3347083"><ele>139.0</ele><time>2026-05-02T07:22:53.494Z</time></trkpt><trkpt lat="41.600185" lon="13.33462"><ele>139.0</ele><time>2026-05-02T07:22:54.494Z</time></trkpt><trkpt lat="41.6003983" lon="13.3345283"><ele>138.66666666666669</ele><time>2026-05-02T07:22:55.494Z</time></trkpt><trkpt lat="41.600605" lon="13.3344383"><ele>138.33333333333334</ele><time>2026-05-02T07:22:56.494Z</time></trkpt><trkpt lat="41.60081" lon="13.3343383"><ele>138.0</ele><time>2026-05-02T07:22:57.494Z</time></trkpt><trkpt lat="41.6010267" lon="13.33425"><ele>138.33333333333334</ele><time>2026-05-02T07:22:58.494Z</time></trkpt><trkpt lat="41.6012433" lon="13.3341633"><ele>138.66666666666669</ele><time>2026-05-02T07:22:59.494Z</time></trkpt><trkpt lat="41.6014517" lon="13.3340783"><ele>139.0</ele><time>2026-05-02T07:23:00.494Z</time></trkpt><trkpt lat="41.60166" lon="13.3339933"><ele>139.0</ele><time>2026-05-02T07:23:01.494Z</time></trkpt><trkpt lat="41.6018733" lon="13.3339083"><ele>139.0</ele><time>2026-05-02T07:23:02.495Z</time></trkpt><trkpt lat="41.6020767" lon="13.33382"><ele>139.0</ele><time>2026-05-02T07:23:03.494Z</time></trkpt><trkpt lat="41.602285" lon="13.3337267"><ele>140.0</ele><time>2026-05-02T07:23:04.494Z</time></trkpt><trkpt lat="41.6024933" lon="13.3336383"><ele>141.0</ele><time>2026-05-02T07:23:05.494Z</time></trkpt><trkpt lat="41.602705" lon="13.33355"><ele>142.0</ele><time>2026-05-02T07:23:06.494Z</time></trkpt><trkpt lat="41.6029117" lon="13.3334583"><ele>142.66666666666669</ele><time>2026-05-02T07:23:07.494Z</time></trkpt><trkpt lat="41.6031267" lon="13.3333717"><ele>143.33333333333334</ele><time>2026-05-02T07:23:08.494Z</time></trkpt><trkpt lat="41.6033333" lon="13.3332817"><ele>144.0</ele><time>2026-05-02T07:23:09.494Z</time></trkpt><trkpt lat="41.60354" lon="13.3331917"><ele>145.33333333333334</ele><time>2026-05-02T07:23:10.495Z</time></trkpt><trkpt lat="41.603755" lon="13.33311"><ele>146.66666666666669</ele><time>2026-05-02T07:23:11.494Z</time></trkpt><trkpt lat="41.6039617" lon="13.33302"><ele>148.0</ele><time>2026-05-02T07:23:12.494Z</time></trkpt><trkpt lat="41.604175" lon="13.3329283"><ele>148.33333333333334</ele><time>2026-05-02T07:23:13.494Z</time></trkpt><trkpt lat="41.60439" lon="13.3328467"><ele>148.66666666666666</ele><time>2026-05-02T07:23:14.494Z</time></trkpt><trkpt lat="41.6045967" lon="13.3327583"><ele>149.0</ele><time>2026-05-02T07:23:15.495Z</time></trkpt><trkpt lat="41.6048017" lon="13.33267"><ele>149.0</ele><time>2026-05-02T07:23:16.494Z</time></trkpt><trkpt lat="41.60501" lon="13.3325817"><ele>149.0</ele><time>2026-05-02T07:23:17.494Z</time></trkpt><trkpt lat="41.6052183" lon="13.3324967"><ele>149.0</ele><time>2026-05-02T07:23:18.494Z</time></trkpt><trkpt lat="41.60543" lon="13.332415"><ele>149.33333333333331</ele><time>2026-05-02T07:23:19.495Z</time></trkpt><trkpt lat="41.605645" lon="13.332325"><ele>149.66666666666666</ele><time>2026-05-02T07:23:20.494Z</time></trkpt><trkpt lat="41.6058583" lon="13.3322383"><ele>150.0</ele><time>2026-05-02T07:23:21.494Z</time></trkpt><trkpt lat="41.6060667" lon="13.3321517"><ele>152.5</ele><time>2026-05-02T07:23:22.494Z</time></trkpt><trkpt lat="41.6062817" lon="13.3320633"><ele>155.0</ele><time>2026-05-02T07:23:23.494Z</time></trkpt><trkpt lat="41.6064983" lon="13.331975"><ele>155.0</ele><time>2026-05-02T07:23:24.494Z</time></trkpt><trkpt lat="41.6067133" lon="13.3318833"><ele>155.0</ele><time>2026-05-02T07:23:25.494Z</time></trkpt><trkpt lat="41.6069233" lon="13.3317917"><ele>155.0</ele><time>2026-05-02T07:23:26.495Z</time></trkpt><trkpt lat="41.6071417" lon="13.3317017"><ele>153.5</ele><time>2026-05-02T07:23:27.494Z</time></trkpt><trkpt lat="41.6073567" lon="13.3316083"><ele>152.0</ele><time>2026-05-02T07:23:28.494Z</time></trkpt><trkpt lat="41.60757" lon="13.3315183"><ele>152.0</ele><time>2026-05-02T07:23:29.495Z</time></trkpt><trkpt lat="41.6077833" lon="13.33143"><ele>152.0</ele><time>2026-05-02T07:23:30.494Z</time></trkpt><trkpt lat="41.6080017" lon="13.3313317"><ele>152.0</ele><time>2026-05-02T07:23:31.494Z</time></trkpt><trkpt lat="41.60822" lon="13.33124"><ele>152.0</ele><time>2026-05-02T07:23:32.494Z</time></trkpt><trkpt lat="41.6084383" lon="13.3311467"><ele>152.0</ele><time>2026-05-02T07:23:33.495Z</time></trkpt><trkpt lat="41.6086583" lon="13.331055"><ele>152.0</ele><time>2026-05-02T07:23:34.494Z</time></trkpt><trkpt lat="41.60887" lon="13.330955"><ele>152.66666666666666</ele><time>2026-05-02T07:23:35.494Z</time></trkpt><trkpt lat="41.6090833" lon="13.3308583"><ele>153.33333333333334</ele><time>2026-05-02T07:23:36.494Z</time></trkpt><trkpt lat="41.609295" lon="13.3307717"><ele>154.0</ele><time>2026-05-02T07:23:37.494Z</time></trkpt><trkpt lat="41.60951" lon="13.330675"><ele>154.66666666666669</ele><time>2026-05-02T07:23:38.494Z</time></trkpt><trkpt lat="41.6097267" lon="13.330585"><ele>155.33333333333334</ele><time>2026-05-02T07:23:39.494Z</time></trkpt><trkpt lat="41.6099333" lon="13.3304967"><ele>156.0</ele><time>2026-05-02T07:23:40.494Z</time></trkpt><trkpt lat="41.6101483" lon="13.3303983"><ele>155.0</ele><time>2026-05-02T07:23:41.494Z</time></trkpt><trkpt lat="41.6103633" lon="13.3302983"><ele>154.0</ele><time>2026-05-02T07:23:42.494Z</time></trkpt><trkpt lat="41.6105783" lon="13.3302017"><ele>154.0</ele><time>2026-05-02T07:23:43.494Z</time></trkpt><trkpt lat="41.6107883" lon="13.3301"><ele>154.0</ele><time>2026-05-02T07:23:44.494Z</time></trkpt><trkpt lat="41.6109933" lon="13.329995"><ele>154.0</ele><time>2026-05-02T07:23:45.494Z</time></trkpt><trkpt lat="41.6111967" lon="13.3298733"><ele>154.0</ele><time>2026-05-02T07:23:46.495Z</time></trkpt><trkpt lat="41.6113967" lon="13.329745"><ele>154.0</ele><time>2026-05-02T07:23:47.494Z</time></trkpt><trkpt lat="41.6116" lon="13.329615"><ele>154.0</ele><time>2026-05-02T07:23:48.494Z</time></trkpt><trkpt lat="41.611795" lon="13.32947"><ele>154.0</ele><time>2026-05-02T07:23:49.494Z</time></trkpt><trkpt lat="41.6119883" lon="13.3293167"><ele>154.0</ele><time>2026-05-02T07:23:50.494Z</time></trkpt><trkpt lat="41.6121833" lon="13.3291667"><ele>154.0</ele><time>2026-05-02T07:23:51.494Z</time></trkpt><trkpt lat="41.6123783" lon="13.3290117"><ele>154.0</ele><time>2026-05-02T07:23:52.494Z</time></trkpt><trkpt lat="41.6125617" lon="13.3288383"><ele>154.0</ele><time>2026-05-02T07:23:53.494Z</time></trkpt><trkpt lat="41.6127433" lon="13.32866"><ele>154.0</ele><time>2026-05-02T07:23:54.494Z</time></trkpt><trkpt lat="41.612925" lon="13.328485"><ele>154.0</ele><time>2026-05-02T07:23:55.494Z</time></trkpt><trkpt lat="41.6131" lon="13.3283017"><ele>153.66666666666669</ele><time>2026-05-02T07:23:56.494Z</time></trkpt><trkpt lat="41.6132733" lon="13.3281167"><ele>153.33333333333334</ele><time>2026-05-02T07:23:57.494Z</time></trkpt><trkpt lat="41.61344" lon="13.3279167"><ele>153.0</ele><time>2026-05-02T07:23:58.494Z</time></trkpt><trkpt lat="41.61361" lon="13.3277117"><ele>154.0</ele><time>2026-05-02T07:23:59.494Z</time></trkpt><trkpt lat="41.6137717" lon="13.3275033"><ele>155.0</ele><time>2026-05-02T07:24:00.494Z</time></trkpt><trkpt lat="41.61393" lon="13.3272917"><ele>156.0</ele><time>2026-05-02T07:24:01.494Z</time></trkpt><trkpt lat="41.614075" lon="13.3270817"><ele>156.0</ele><time>2026-05-02T07:24:02.494Z</time></trkpt><trkpt lat="41.6142233" lon="13.3268633"><ele>156.0</ele><time>2026-05-02T07:24:03.494Z</time></trkpt><trkpt lat="41.6143633" lon="13.326645"><ele>156.0</ele><time>2026-05-02T07:24:04.494Z</time></trkpt><trkpt lat="41.6145" lon="13.3264133"><ele>157.0</ele><time>2026-05-02T07:24:05.494Z</time></trkpt><trkpt lat="41.6146267" lon="13.3261867"><ele>158.0</ele><time>2026-05-02T07:24:06.495Z</time></trkpt><trkpt lat="41.6147583" lon="13.32595"><ele>159.0</ele><time>2026-05-02T07:24:07.494Z</time></trkpt><trkpt lat="41.6148883" lon="13.32571"><ele>159.66666666666666</ele><time>2026-05-02T07:24:08.494Z</time></trkpt><trkpt lat="41.6150067" lon="13.32547"><ele>160.33333333333331</ele><time>2026-05-02T07:24:09.494Z</time></trkpt><trkpt lat="41.615125" lon="13.3252233"><ele>161.0</ele><time>2026-05-02T07:24:10.494Z</time></trkpt><trkpt lat="41.6152333" lon="13.3249667"><ele>162.0</ele><time>2026-05-02T07:24:11.494Z</time></trkpt><trkpt lat="41.6153417" lon="13.3247083"><ele>163.0</ele><time>2026-05-02T07:24:12.494Z</time></trkpt><trkpt lat="41.615445" lon="13.324445"><ele>164.0</ele><time>2026-05-02T07:24:13.494Z</time></trkpt><trkpt lat="41.615545" lon="13.3241883"><ele>164.0</ele><time>2026-05-02T07:24:14.494Z</time></trkpt><trkpt lat="41.6156433" lon="13.3239217"><ele>164.0</ele><time>2026-05-02T07:24:15.494Z</time></trkpt><trkpt lat="41.6157433" lon="13.3236467"><ele>163.5</ele><time>2026-05-02T07:24:16.494Z</time></trkpt><trkpt lat="41.6158367" lon="13.3233667"><ele>163.0</ele><time>2026-05-02T07:24:17.494Z</time></trkpt><trkpt lat="41.6159317" lon="13.3230917"><ele>164.0</ele><time>2026-05-02T07:24:18.495Z</time></trkpt><trkpt lat="41.6160317" lon="13.3228183"><ele>165.0</ele><time>2026-05-02T07:24:19.494Z</time></trkpt><trkpt lat="41.61613" lon="13.3225467"><ele>166.0</ele><time>2026-05-02T07:24:20.494Z</time></trkpt><trkpt lat="41.6162283" lon="13.3222733"><ele>167.0</ele><time>2026-05-02T07:24:21.494Z</time></trkpt><trkpt lat="41.616325" lon="13.321995"><ele>167.0</ele><time>2026-05-02T07:24:22.494Z</time></trkpt><trkpt lat="41.6164183" lon="13.3217117"><ele>167.0</ele><time>2026-05-02T07:24:23.494Z</time></trkpt><trkpt lat="41.616515" lon="13.3214317"><ele>167.5</ele><time>2026-05-02T07:24:24.494Z</time></trkpt><trkpt lat="41.6166133" lon="13.3211383"><ele>168.0</ele><time>2026-05-02T07:24:25.494Z</time></trkpt><trkpt lat="41.61671" lon="13.3208583"><ele>168.0</ele><time>2026-05-02T07:24:26.494Z</time></trkpt><trkpt lat="41.6168033" lon="13.3205767"><ele>168.0</ele><time>2026-05-02T07:24:27.494Z</time></trkpt><trkpt lat="41.6168933" lon="13.3203"><ele>167.0</ele><time>2026-05-02T07:24:28.494Z</time></trkpt><trkpt lat="41.6169867" lon="13.32003"><ele>166.0</ele><time>2026-05-02T07:24:29.494Z</time></trkpt><trkpt lat="41.61708" lon="13.3197667"><ele>165.0</ele><time>2026-05-02T07:24:30.494Z</time></trkpt><trkpt lat="41.617175" lon="13.3195033"><ele>163.0</ele><time>2026-05-02T07:24:31.494Z</time></trkpt><trkpt lat="41.6172683" lon="13.31924"><ele>161.0</ele><time>2026-05-02T07:24:32.494Z</time></trkpt><trkpt lat="41.6173683" lon="13.3189817"><ele>159.0</ele><time>2026-05-02T07:24:33.494Z</time></trkpt><trkpt lat="41.6174633" lon="13.3187233"><ele>158.0</ele><time>2026-05-02T07:24:34.494Z</time></trkpt><trkpt lat="41.6175567" lon="13.31846"><ele>157.0</ele><time>2026-05-02T07:24:35.494Z</time></trkpt><trkpt lat="41.6176467" lon="13.3182033"><ele>156.0</ele><time>2026-05-02T07:24:36.494Z</time></trkpt><trkpt lat="41.6177383" lon="13.3179417"><ele>155.0</ele><time>2026-05-02T07:24:37.494Z</time></trkpt><trkpt lat="41.6178383" lon="13.3176767"><ele>154.0</ele><time>2026-05-02T07:24:38.494Z</time></trkpt><trkpt lat="41.6179283" lon="13.317415"><ele>153.0</ele><time>2026-05-02T07:24:39.494Z</time></trkpt><trkpt lat="41.6180217" lon="13.31715"><ele>153.0</ele><time>2026-05-02T07:24:40.494Z</time></trkpt><trkpt lat="41.6181167" lon="13.3168833"><ele>153.0</ele><time>2026-05-02T07:24:41.494Z</time></trkpt><trkpt lat="41.6182117" lon="13.31662"><ele>153.0</ele><time>2026-05-02T07:24:42.494Z</time></trkpt><trkpt lat="41.6183067" lon="13.31635"><ele>152.66666666666666</ele><time>2026-05-02T07:24:43.494Z</time></trkpt><trkpt lat="41.6183983" lon="13.3160817"><ele>152.33333333333331</ele><time>2026-05-02T07:24:44.494Z</time></trkpt><trkpt lat="41.6184933" lon="13.31581"><ele>152.0</ele><time>2026-05-02T07:24:45.495Z</time></trkpt><trkpt lat="41.61858" lon="13.3155467"><ele>151.5</ele><time>2026-05-02T07:24:46.494Z</time></trkpt><trkpt lat="41.6186783" lon="13.3152783"><ele>151.0</ele><time>2026-05-02T07:24:47.494Z</time></trkpt><trkpt lat="41.6187783" lon="13.3150067"><ele>150.0</ele><time>2026-05-02T07:24:48.494Z</time></trkpt><trkpt lat="41.6188783" lon="13.3147367"><ele>149.0</ele><time>2026-05-02T07:24:49.495Z</time></trkpt><trkpt lat="41.61897" lon="13.3144617"><ele>149.0</ele><time>2026-05-02T07:24:50.494Z</time></trkpt><trkpt lat="41.6190667" lon="13.3141883"><ele>149.0</ele><time>2026-05-02T07:24:51.494Z</time></trkpt><trkpt lat="41.6191617" lon="13.3139167"><ele>149.0</ele><time>2026-05-02T07:24:52.494Z</time></trkpt><trkpt lat="41.61926" lon="13.3136417"><ele>149.0</ele><time>2026-05-02T07:24:53.494Z</time></trkpt><trkpt lat="41.61936" lon="13.3133667"><ele>149.0</ele><time>2026-05-02T07:24:54.494Z</time></trkpt><trkpt lat="41.6194583" lon="13.31308"><ele>149.0</ele><time>2026-05-02T07:24:55.494Z</time></trkpt><trkpt lat="41.6195583" lon="13.3128"><ele>150.0</ele><time>2026-05-02T07:24:56.494Z</time></trkpt><trkpt lat="41.6196483" lon="13.31252"><ele>151.0</ele><time>2026-05-02T07:24:57.494Z</time></trkpt><trkpt lat="41.6197433" lon="13.3122517"><ele>150.0</ele><time>2026-05-02T07:24:58.494Z</time></trkpt><trkpt lat="41.6198367" lon="13.3119817"><ele>149.0</ele><time>2026-05-02T07:24:59.494Z</time></trkpt><trkpt lat="41.619935" lon="13.3117167"><ele>148.0</ele><time>2026-05-02T07:25:00.494Z</time></trkpt><trkpt lat="41.6200267" lon="13.3114533"><ele>147.66666666666669</ele><time>2026-05-02T07:25:01.494Z</time></trkpt><trkpt lat="41.62012" lon="13.3111883"><ele>147.33333333333334</ele><time>2026-05-02T07:25:02.494Z</time></trkpt><trkpt lat="41.6202167" lon="13.310925"><ele>147.0</ele><time>2026-05-02T07:25:03.494Z</time></trkpt><trkpt lat="41.6203117" lon="13.3106633"><ele>148.0</ele><time>2026-05-02T07:25:04.494Z</time></trkpt><trkpt lat="41.6204067" lon="13.3104"><ele>149.0</ele><time>2026-05-02T07:25:05.494Z</time></trkpt><trkpt lat="41.6205033" lon="13.3101367"><ele>150.0</ele><time>2026-05-02T07:25:06.494Z</time></trkpt><trkpt lat="41.6205933" lon="13.3098733"><ele>150.33333333333334</ele><time>2026-05-02T07:25:07.494Z</time></trkpt><trkpt lat="41.62068" lon="13.3096167"><ele>150.66666666666669</ele><time>2026-05-02T07:25:08.494Z</time></trkpt><trkpt lat="41.6207717" lon="13.3093517"><ele>151.0</ele><time>2026-05-02T07:25:09.494Z</time></trkpt><trkpt lat="41.6208683" lon="13.3090883"><ele>150.66666666666669</ele><time>2026-05-02T07:25:10.494Z</time></trkpt><trkpt lat="41.62096" lon="13.30882"><ele>150.33333333333334</ele><time>2026-05-02T07:25:11.494Z</time></trkpt><trkpt lat="41.6210533" lon="13.3085567"><ele>150.0</ele><time>2026-05-02T07:25:12.494Z</time></trkpt><trkpt lat="41.6211467" lon="13.308295"><ele>149.66666666666666</ele><time>2026-05-02T07:25:13.494Z</time></trkpt><trkpt lat="41.6212433" lon="13.3080283"><ele>149.33333333333331</ele><time>2026-05-02T07:25:14.494Z</time></trkpt><trkpt lat="41.621335" lon="13.3077633"><ele>149.0</ele><time>2026-05-02T07:25:15.494Z</time></trkpt><trkpt lat="41.6214283" lon="13.307495"><ele>148.33333333333331</ele><time>2026-05-02T07:25:16.494Z</time></trkpt><trkpt lat="41.62152" lon="13.3072267"><ele>147.66666666666666</ele><time>2026-05-02T07:25:17.494Z</time></trkpt><trkpt lat="41.6216133" lon="13.30696"><ele>147.0</ele><time>2026-05-02T07:25:18.494Z</time></trkpt><trkpt lat="41.6217083" lon="13.3066867"><ele>147.0</ele><time>2026-05-02T07:25:19.494Z</time></trkpt><trkpt lat="41.6218" lon="13.3064167"><ele>147.0</ele><time>2026-05-02T07:25:20.494Z</time></trkpt><trkpt lat="41.62189" lon="13.306155"><ele>147.0</ele><time>2026-05-02T07:25:21.494Z</time></trkpt><trkpt lat="41.621985" lon="13.3058883"><ele>147.0</ele><time>2026-05-02T07:25:22.494Z</time></trkpt><trkpt lat="41.62208" lon="13.3056217"><ele>147.0</ele><time>2026-05-02T07:25:23.494Z</time></trkpt><trkpt lat="41.6221717" lon="13.30535"><ele>147.0</ele><time>2026-05-02T07:25:24.494Z</time></trkpt><trkpt lat="41.6222683" lon="13.3050883"><ele>149.66666666666666</ele><time>2026-05-02T07:25:25.494Z</time></trkpt><trkpt lat="41.6223683" lon="13.304825"><ele>152.33333333333331</ele><time>2026-05-02T07:25:26.494Z</time></trkpt><trkpt lat="41.6224633" lon="13.3045633"><ele>155.0</ele><time>2026-05-02T07:25:27.494Z</time></trkpt><trkpt lat="41.622555" lon="13.3043067"><ele>156.0</ele><time>2026-05-02T07:25:28.495Z</time></trkpt><trkpt lat="41.6226433" lon="13.3040467"><ele>157.0</ele><time>2026-05-02T07:25:29.494Z</time></trkpt><trkpt lat="41.6227283" lon="13.3037933"><ele>158.0</ele><time>2026-05-02T07:25:30.494Z</time></trkpt><trkpt lat="41.622815" lon="13.303545"><ele>159.33333333333331</ele><time>2026-05-02T07:25:31.494Z</time></trkpt><trkpt lat="41.6229033" lon="13.3032933"><ele>160.66666666666666</ele><time>2026-05-02T07:25:32.494Z</time></trkpt><trkpt lat="41.622995" lon="13.3030433"><ele>162.0</ele><time>2026-05-02T07:25:33.494Z</time></trkpt><trkpt lat="41.623085" lon="13.302795"><ele>163.0</ele><time>2026-05-02T07:25:34.494Z</time></trkpt><trkpt lat="41.6231683" lon="13.3025433"><ele>164.0</ele><time>2026-05-02T07:25:35.494Z</time></trkpt><trkpt lat="41.6232567" lon="13.3022917"><ele>165.0</ele><time>2026-05-02T07:25:36.494Z</time></trkpt><trkpt lat="41.6233467" lon="13.3020383"><ele>165.33333333333334</ele><time>2026-05-02T07:25:37.495Z</time></trkpt><trkpt lat="41.6234367" lon="13.3017833"><ele>165.66666666666669</ele><time>2026-05-02T07:25:38.494Z</time></trkpt><trkpt lat="41.6235267" lon="13.30153"><ele>166.0</ele><time>2026-05-02T07:25:39.494Z</time></trkpt><trkpt lat="41.6236117" lon="13.3012733"><ele>166.0</ele><time>2026-05-02T07:25:40.494Z</time></trkpt><trkpt lat="41.6236967" lon="13.30102"><ele>166.0</ele><time>2026-05-02T07:25:41.494Z</time></trkpt><trkpt lat="41.6237833" lon="13.3007667"><ele>166.0</ele><time>2026-05-02T07:25:42.494Z</time></trkpt><trkpt lat="41.6238733" lon="13.3005183"><ele>166.0</ele><time>2026-05-02T07:25:43.494Z</time></trkpt><trkpt lat="41.6239633" lon="13.3002667"><ele>166.0</ele><time>2026-05-02T07:25:44.494Z</time></trkpt><trkpt lat="41.6240567" lon="13.3000083"><ele>166.0</ele><time>2026-05-02T07:25:45.494Z</time></trkpt><trkpt lat="41.62415" lon="13.2997567"><ele>165.33333333333334</ele><time>2026-05-02T07:25:46.494Z</time></trkpt><trkpt lat="41.6242333" lon="13.29951"><ele>164.66666666666666</ele><time>2026-05-02T07:25:47.494Z</time></trkpt><trkpt lat="41.6243217" lon="13.2992567"><ele>164.0</ele><time>2026-05-02T07:25:48.494Z</time></trkpt><trkpt lat="41.62441" lon="13.299"><ele>164.0</ele><time>2026-05-02T07:25:49.494Z</time></trkpt><trkpt lat="41.6245033" lon="13.2987467"><ele>164.0</ele><time>2026-05-02T07:25:50.494Z</time></trkpt><trkpt lat="41.62459" lon="13.2984983"><ele>164.0</ele><time>2026-05-02T07:25:51.494Z</time></trkpt><trkpt lat="41.6246817" lon="13.2982483"><ele>163.66666666666666</ele><time>2026-05-02T07:25:52.494Z</time></trkpt><trkpt lat="41.62477" lon="13.2979817"><ele>163.33333333333334</ele><time>2026-05-02T07:25:53.494Z</time></trkpt><trkpt lat="41.6248633" lon="13.297715"><ele>163.0</ele><time>2026-05-02T07:25:54.494Z</time></trkpt><trkpt lat="41.624955" lon="13.2974567"><ele>161.66666666666669</ele><time>2026-05-02T07:25:55.494Z</time></trkpt><trkpt lat="41.6250417" lon="13.2972033"><ele>160.33333333333334</ele><time>2026-05-02T07:25:56.494Z</time></trkpt><trkpt lat="41.6251333" lon="13.2969467"><ele>159.0</ele><time>2026-05-02T07:25:57.495Z</time></trkpt><trkpt lat="41.6252283" lon="13.2966833"><ele>161.33333333333334</ele><time>2026-05-02T07:25:58.494Z</time></trkpt><trkpt lat="41.6253217" lon="13.29642"><ele>163.66666666666669</ele><time>2026-05-02T07:25:59.494Z</time></trkpt><trkpt lat="41.6254167" lon="13.2961533"><ele>166.0</ele><time>2026-05-02T07:26:00.494Z</time></trkpt><trkpt lat="41.6255133" lon="13.295885"><ele>166.0</ele><time>2026-05-02T07:26:01.494Z</time></trkpt><trkpt lat="41.6256033" lon="13.2956267"><ele>166.0</ele><time>2026-05-02T07:26:02.494Z</time></trkpt><trkpt lat="41.625695" lon="13.2953617"><ele>166.0</ele><time>2026-05-02T07:26:03.494Z</time></trkpt><trkpt lat="41.6257917" lon="13.2950983"><ele>166.33333333333334</ele><time>2026-05-02T07:26:04.494Z</time></trkpt><trkpt lat="41.625885" lon="13.2948333"><ele>166.66666666666666</ele><time>2026-05-02T07:26:05.494Z</time></trkpt><trkpt lat="41.62597" lon="13.2945733"><ele>167.0</ele><time>2026-05-02T07:26:06.495Z</time></trkpt><trkpt lat="41.6260617" lon="13.2943133"><ele>167.0</ele><time>2026-05-02T07:26:07.494Z</time></trkpt><trkpt lat="41.6261583" lon="13.2940533"><ele>167.0</ele><time>2026-05-02T07:26:08.494Z</time></trkpt><trkpt lat="41.6262483" lon="13.2937917"><ele>167.0</ele><time>2026-05-02T07:26:09.494Z</time></trkpt><trkpt lat="41.6263383" lon="13.29354"><ele>167.0</ele><time>2026-05-02T07:26:10.494Z</time></trkpt><trkpt lat="41.626425" lon="13.29329"><ele>167.0</ele><time>2026-05-02T07:26:11.494Z</time></trkpt><trkpt lat="41.6265133" lon="13.2930417"><ele>167.0</ele><time>2026-05-02T07:26:12.494Z</time></trkpt><trkpt lat="41.6266017" lon="13.29279"><ele>166.33333333333331</ele><time>2026-05-02T07:26:13.495Z</time></trkpt><trkpt lat="41.6266883" lon="13.2925467"><ele>165.66666666666666</ele><time>2026-05-02T07:26:14.494Z</time></trkpt><trkpt lat="41.626775" lon="13.2923"><ele>165.0</ele><time>2026-05-02T07:26:15.494Z</time></trkpt><trkpt lat="41.62686" lon="13.2920583"><ele>162.33333333333334</ele><time>2026-05-02T07:26:16.494Z</time></trkpt><trkpt lat="41.6269467" lon="13.2918133"><ele>159.66666666666669</ele><time>2026-05-02T07:26:17.494Z</time></trkpt><trkpt lat="41.6270367" lon="13.291565"><ele>157.0</ele><time>2026-05-02T07:26:18.494Z</time></trkpt><trkpt lat="41.6271233" lon="13.2913117"><ele>157.0</ele><time>2026-05-02T07:26:19.495Z</time></trkpt><trkpt lat="41.6272133" lon="13.291055"><ele>157.0</ele><time>2026-05-02T07:26:20.494Z</time></trkpt><trkpt lat="41.6273017" lon="13.2907967"><ele>157.0</ele><time>2026-05-02T07:26:21.494Z</time></trkpt><trkpt lat="41.6273917" lon="13.2905433"><ele>157.0</ele><time>2026-05-02T07:26:22.494Z</time></trkpt><trkpt lat="41.6274867" lon="13.2902783"><ele>157.0</ele><time>2026-05-02T07:26:23.494Z</time></trkpt><trkpt lat="41.6275783" lon="13.2900233"><ele>157.0</ele><time>2026-05-02T07:26:24.494Z</time></trkpt><trkpt lat="41.6276683" lon="13.289765"><ele>157.33333333333334</ele><time>2026-05-02T07:26:25.495Z</time></trkpt><trkpt lat="41.62776" lon="13.2895083"><ele>157.66666666666666</ele><time>2026-05-02T07:26:26.494Z</time></trkpt><trkpt lat="41.6278517" lon="13.28925"><ele>158.0</ele><time>2026-05-02T07:26:27.494Z</time></trkpt><trkpt lat="41.6279433" lon="13.2889933"><ele>157.33333333333331</ele><time>2026-05-02T07:26:28.494Z</time></trkpt><trkpt lat="41.6280283" lon="13.2887333"><ele>156.66666666666666</ele><time>2026-05-02T07:26:29.494Z</time></trkpt><trkpt lat="41.6281233" lon="13.2884683"><ele>156.0</ele><time>2026-05-02T07:26:30.494Z</time></trkpt><trkpt lat="41.6282167" lon="13.2882033"><ele>155.33333333333334</ele><time>2026-05-02T07:26:31.494Z</time></trkpt><trkpt lat="41.6283067" lon="13.2879433"><ele>154.66666666666669</ele><time>2026-05-02T07:26:32.494Z</time></trkpt><trkpt lat="41.6284017" lon="13.2876817"><ele>154.0</ele><time>2026-05-02T07:26:33.494Z</time></trkpt><trkpt lat="41.6284933" lon="13.2874183"><ele>154.33333333333334</ele><time>2026-05-02T07:26:34.494Z</time></trkpt><trkpt lat="41.6285833" lon="13.2871567"><ele>154.66666666666666</ele><time>2026-05-02T07:26:35.494Z</time></trkpt><trkpt lat="41.6286783" lon="13.28689"><ele>155.0</ele><time>2026-05-02T07:26:36.495Z</time></trkpt><trkpt lat="41.6287667" lon="13.28663"><ele>155.0</ele><time>2026-05-02T07:26:37.494Z</time></trkpt><trkpt lat="41.62886" lon="13.286365"><ele>155.0</ele><time>2026-05-02T07:26:38.494Z</time></trkpt><trkpt lat="41.6289517" lon="13.2861"><ele>155.0</ele><time>2026-05-02T07:26:39.494Z</time></trkpt><trkpt lat="41.62904" lon="13.2858383"><ele>154.0</ele><time>2026-05-02T07:26:40.494Z</time></trkpt><trkpt lat="41.629135" lon="13.2855733"><ele>153.0</ele><time>2026-05-02T07:26:41.494Z</time></trkpt><trkpt lat="41.6292267" lon="13.2853083"><ele>152.0</ele><time>2026-05-02T07:26:42.494Z</time></trkpt><trkpt lat="41.6293233" lon="13.28504"><ele>152.0</ele><time>2026-05-02T07:26:43.494Z</time></trkpt><trkpt lat="41.6294167" lon="13.2847717"><ele>152.0</ele><time>2026-05-02T07:26:44.494Z</time></trkpt><trkpt lat="41.6295083" lon="13.2845067"><ele>152.0</ele><time>2026-05-02T07:26:45.494Z</time></trkpt><trkpt lat="41.6296017" lon="13.2842383"><ele>152.0</ele><time>2026-05-02T07:26:46.494Z</time></trkpt><trkpt lat="41.6296983" lon="13.283975"><ele>152.0</ele><time>2026-05-02T07:26:47.495Z</time></trkpt><trkpt lat="41.6297967" lon="13.2837117"><ele>152.0</ele><time>2026-05-02T07:26:48.494Z</time></trkpt><trkpt lat="41.6298883" lon="13.2834483"><ele>152.33333333333331</ele><time>2026-05-02T07:26:49.494Z</time></trkpt><trkpt lat="41.6299817" lon="13.283175"><ele>152.66666666666666</ele><time>2026-05-02T07:26:50.494Z</time></trkpt><trkpt lat="41.630075" lon="13.28291"><ele>153.0</ele><time>2026-05-02T07:26:51.494Z</time></trkpt><trkpt lat="41.6301683" lon="13.2826483"><ele>153.33333333333334</ele><time>2026-05-02T07:26:52.494Z</time></trkpt><trkpt lat="41.63026" lon="13.2823933"><ele>153.66666666666669</ele><time>2026-05-02T07:26:53.495Z</time></trkpt><trkpt lat="41.63035" lon="13.2821433"><ele>154.0</ele><time>2026-05-02T07:26:54.494Z</time></trkpt><trkpt lat="41.63044" lon="13.2818967"><ele>154.66666666666669</ele><time>2026-05-02T07:26:55.494Z</time></trkpt><trkpt lat="41.63053" lon="13.281645"><ele>155.33333333333334</ele><time>2026-05-02T07:26:56.494Z</time></trkpt><trkpt lat="41.6306133" lon="13.28139"><ele>156.0</ele><time>2026-05-02T07:26:57.494Z</time></trkpt><trkpt lat="41.630705" lon="13.2811367"><ele>156.0</ele><time>2026-05-02T07:26:58.494Z</time></trkpt><trkpt lat="41.630795" lon="13.280885"><ele>156.0</ele><time>2026-05-02T07:26:59.494Z</time></trkpt><trkpt lat="41.6308833" lon="13.2806383"><ele>156.0</ele><time>2026-05-02T07:27:00.494Z</time></trkpt><trkpt lat="41.63097" lon="13.28038"><ele>156.33333333333334</ele><time>2026-05-02T07:27:01.494Z</time></trkpt><trkpt lat="41.6310617" lon="13.280125"><ele>156.66666666666669</ele><time>2026-05-02T07:27:02.494Z</time></trkpt><trkpt lat="41.6311433" lon="13.27987"><ele>157.0</ele><time>2026-05-02T07:27:03.494Z</time></trkpt><trkpt lat="41.6312333" lon="13.2796167"><ele>157.66666666666669</ele><time>2026-05-02T07:27:04.494Z</time></trkpt><trkpt lat="41.6313183" lon="13.27936"><ele>158.33333333333334</ele><time>2026-05-02T07:27:05.495Z</time></trkpt><trkpt lat="41.631405" lon="13.2791083"><ele>159.0</ele><time>2026-05-02T07:27:06.494Z</time></trkpt><trkpt lat="41.63149" lon="13.27886"><ele>160.0</ele><time>2026-05-02T07:27:07.494Z</time></trkpt><trkpt lat="41.6315767" lon="13.27861"><ele>161.0</ele><time>2026-05-02T07:27:08.494Z</time></trkpt><trkpt lat="41.6316667" lon="13.2783633"><ele>162.0</ele><time>2026-05-02T07:27:09.494Z</time></trkpt><trkpt lat="41.631755" lon="13.2781117"><ele>160.0</ele><time>2026-05-02T07:27:10.494Z</time></trkpt><trkpt lat="41.6318417" lon="13.27786"><ele>158.0</ele><time>2026-05-02T07:27:11.494Z</time></trkpt><trkpt lat="41.6319333" lon="13.2776083"><ele>156.0</ele><time>2026-05-02T07:27:12.494Z</time></trkpt><trkpt lat="41.6320233" lon="13.277355"><ele>154.66666666666666</ele><time>2026-05-02T07:27:13.494Z</time></trkpt><trkpt lat="41.6321133" lon="13.2770967"><ele>153.33333333333331</ele><time>2026-05-02T07:27:14.494Z</time></trkpt><trkpt lat="41.6322017" lon="13.2768483"><ele>152.0</ele><time>2026-05-02T07:27:15.494Z</time></trkpt><trkpt lat="41.632285" lon="13.2765967"><ele>153.0</ele><time>2026-05-02T07:27:16.494Z</time></trkpt><trkpt lat="41.6323783" lon="13.2763483"><ele>154.0</ele><time>2026-05-02T07:27:17.494Z</time></trkpt><trkpt lat="41.632465" lon="13.2760983"><ele>155.0</ele><time>2026-05-02T07:27:18.494Z</time></trkpt><trkpt lat="41.632565" lon="13.2758533"><ele>155.0</ele><time>2026-05-02T07:27:19.494Z</time></trkpt><trkpt lat="41.6326583" lon="13.2756017"><ele>155.0</ele><time>2026-05-02T07:27:20.494Z</time></trkpt><trkpt lat="41.6327483" lon="13.275355"><ele>155.0</ele><time>2026-05-02T07:27:21.494Z</time></trkpt><trkpt lat="41.632845" lon="13.2751117"><ele>155.0</ele><time>2026-05-02T07:27:22.494Z</time></trkpt><trkpt lat="41.632945" lon="13.2748683"><ele>155.0</ele><time>2026-05-02T07:27:23.494Z</time></trkpt><trkpt lat="41.6330467" lon="13.2746283"><ele>155.0</ele><time>2026-05-02T07:27:24.495Z</time></trkpt><trkpt lat="41.6331483" lon="13.2743867"><ele>155.0</ele><time>2026-05-02T07:27:25.494Z</time></trkpt><trkpt lat="41.6332583" lon="13.274155"><ele>155.0</ele><time>2026-05-02T07:27:26.494Z</time></trkpt><trkpt lat="41.6333717" lon="13.2739167"><ele>155.0</ele><time>2026-05-02T07:27:27.494Z</time></trkpt><trkpt lat="41.6334833" lon="13.273675"><ele>154.66666666666666</ele><time>2026-05-02T07:27:28.494Z</time></trkpt><trkpt lat="41.6336" lon="13.273445"><ele>154.33333333333334</ele><time>2026-05-02T07:27:29.494Z</time></trkpt><trkpt lat="41.6337183" lon="13.2732133"><ele>154.0</ele><time>2026-05-02T07:27:30.494Z</time></trkpt><trkpt lat="41.633845" lon="13.272985"><ele>154.0</ele><time>2026-05-02T07:27:31.494Z</time></trkpt><trkpt lat="41.63397" lon="13.2727633"><ele>154.0</ele><time>2026-05-02T07:27:32.494Z</time></trkpt><trkpt lat="41.6340967" lon="13.2725433"><ele>154.0</ele><time>2026-05-02T07:27:33.494Z</time></trkpt><trkpt lat="41.6342283" lon="13.2723233"><ele>154.0</ele><time>2026-05-02T07:27:34.494Z</time></trkpt><trkpt lat="41.6343633" lon="13.2721067"><ele>154.0</ele><time>2026-05-02T07:27:35.494Z</time></trkpt><trkpt lat="41.6345017" lon="13.27189"><ele>154.0</ele><time>2026-05-02T07:27:36.494Z</time></trkpt><trkpt lat="41.63464" lon="13.2716783"><ele>154.0</ele><time>2026-05-02T07:27:37.494Z</time></trkpt><trkpt lat="41.6347817" lon="13.2714667"><ele>154.0</ele><time>2026-05-02T07:27:38.494Z</time></trkpt><trkpt lat="41.63492" lon="13.2712617"><ele>154.0</ele><time>2026-05-02T07:27:39.494Z</time></trkpt><trkpt lat="41.63507" lon="13.2710567"><ele>154.33333333333334</ele><time>2026-05-02T07:27:40.494Z</time></trkpt><trkpt lat="41.6352183" lon="13.2708533"><ele>154.66666666666666</ele><time>2026-05-02T07:27:41.494Z</time></trkpt><trkpt lat="41.6353683" lon="13.270655"><ele>155.0</ele><time>2026-05-02T07:27:42.494Z</time></trkpt><trkpt lat="41.6355233" lon="13.2704517"><ele>155.0</ele><time>2026-05-02T07:27:43.494Z</time></trkpt><trkpt lat="41.6356817" lon="13.2702533"><ele>155.0</ele><time>2026-05-02T07:27:44.494Z</time></trkpt><trkpt lat="41.63584" lon="13.2700567"><ele>155.0</ele><time>2026-05-02T07:27:45.494Z</time></trkpt><trkpt lat="41.635995" lon="13.2698517"><ele>154.0</ele><time>2026-05-02T07:27:46.494Z</time></trkpt><trkpt lat="41.636155" lon="13.26965"><ele>153.0</ele><time>2026-05-02T07:27:47.494Z</time></trkpt><trkpt lat="41.63631" lon="13.26945"><ele>152.0</ele><time>2026-05-02T07:27:48.494Z</time></trkpt><trkpt lat="41.6364667" lon="13.2692483"><ele>152.0</ele><time>2026-05-02T07:27:49.494Z</time></trkpt><trkpt lat="41.6366233" lon="13.2690433"><ele>152.0</ele><time>2026-05-02T07:27:50.494Z</time></trkpt><trkpt lat="41.6367833" lon="13.2688417"><ele>152.0</ele><time>2026-05-02T07:27:51.494Z</time></trkpt><trkpt lat="41.6369483" lon="13.2686367"><ele>152.66666666666666</ele><time>2026-05-02T07:27:52.494Z</time></trkpt><trkpt lat="41.6371117" lon="13.2684333"><ele>153.33333333333334</ele><time>2026-05-02T07:27:53.494Z</time></trkpt><trkpt lat="41.6372717" lon="13.2682267"><ele>154.0</ele><time>2026-05-02T07:27:54.495Z</time></trkpt><trkpt lat="41.6374317" lon="13.268025"><ele>152.66666666666669</ele><time>2026-05-02T07:27:55.494Z</time></trkpt><trkpt lat="41.6375917" lon="13.267825"><ele>151.33333333333334</ele><time>2026-05-02T07:27:56.494Z</time></trkpt><trkpt lat="41.6377467" lon="13.2676233"><ele>150.0</ele><time>2026-05-02T07:27:57.494Z</time></trkpt><trkpt lat="41.6379033" lon="13.2674183"><ele>149.66666666666666</ele><time>2026-05-02T07:27:58.494Z</time></trkpt><trkpt lat="41.63806" lon="13.2672167"><ele>149.33333333333331</ele><time>2026-05-02T07:27:59.494Z</time></trkpt><trkpt lat="41.63822" lon="13.2670117"><ele>149.0</ele><time>2026-05-02T07:28:00.494Z</time></trkpt><trkpt lat="41.6383783" lon="13.26681"><ele>149.0</ele><time>2026-05-02T07:28:01.494Z</time></trkpt><trkpt lat="41.6385367" lon="13.266605"><ele>149.0</ele><time>2026-05-02T07:28:02.494Z</time></trkpt><trkpt lat="41.6386933" lon="13.2664033"><ele>149.0</ele><time>2026-05-02T07:28:03.494Z</time></trkpt><trkpt lat="41.6388467" lon="13.2662083"><ele>148.66666666666666</ele><time>2026-05-02T07:28:04.494Z</time></trkpt><trkpt lat="41.6390067" lon="13.2660067"><ele>148.33333333333334</ele><time>2026-05-02T07:28:05.494Z</time></trkpt><trkpt lat="41.6391667" lon="13.2658"><ele>148.0</ele><time>2026-05-02T07:28:06.494Z</time></trkpt><trkpt lat="41.6393183" lon="13.2655967"><ele>148.66666666666669</ele><time>2026-05-02T07:28:07.494Z</time></trkpt><trkpt lat="41.63947" lon="13.2653933"><ele>149.33333333333334</ele><time>2026-05-02T07:28:08.494Z</time></trkpt><trkpt lat="41.639625" lon="13.2651933"><ele>150.0</ele><time>2026-05-02T07:28:09.494Z</time></trkpt><trkpt lat="41.6397883" lon="13.264995"><ele>150.0</ele><time>2026-05-02T07:28:10.494Z</time></trkpt><trkpt lat="41.6399517" lon="13.2647883"><ele>150.0</ele><time>2026-05-02T07:28:11.494Z</time></trkpt><trkpt lat="41.64011" lon="13.2645833"><ele>150.0</ele><time>2026-05-02T07:28:12.494Z</time></trkpt><trkpt lat="41.64027" lon="13.26438"><ele>149.66666666666666</ele><time>2026-05-02T07:28:13.495Z</time></trkpt><trkpt lat="41.6404233" lon="13.2641633"><ele>149.33333333333331</ele><time>2026-05-02T07:28:14.494Z</time></trkpt><trkpt lat="41.6405767" lon="13.26395"><ele>149.0</ele><time>2026-05-02T07:28:15.494Z</time></trkpt><trkpt lat="41.6407217" lon="13.2637383"><ele>148.66666666666666</ele><time>2026-05-02T07:28:16.494Z</time></trkpt><trkpt lat="41.6408733" lon="13.2635183"><ele>148.33333333333334</ele><time>2026-05-02T07:28:17.494Z</time></trkpt><trkpt lat="41.6410183" lon="13.2633033"><ele>148.0</ele><time>2026-05-02T07:28:18.494Z</time></trkpt><trkpt lat="41.64116" lon="13.26308"><ele>149.33333333333334</ele><time>2026-05-02T07:28:19.495Z</time></trkpt><trkpt lat="41.6412983" lon="13.26286"><ele>150.66666666666666</ele><time>2026-05-02T07:28:20.494Z</time></trkpt><trkpt lat="41.6414433" lon="13.262635"><ele>152.0</ele><time>2026-05-02T07:28:21.495Z</time></trkpt><trkpt lat="41.6415867" lon="13.2624033"><ele>151.33333333333331</ele><time>2026-05-02T07:28:22.494Z</time></trkpt><trkpt lat="41.6417233" lon="13.26217"><ele>150.66666666666666</ele><time>2026-05-02T07:28:23.494Z</time></trkpt><trkpt lat="41.6418567" lon="13.2619367"><ele>150.0</ele><time>2026-05-02T07:28:24.495Z</time></trkpt><trkpt lat="41.64199" lon="13.261705"><ele>150.0</ele><time>2026-05-02T07:28:25.495Z</time></trkpt><trkpt lat="41.6421233" lon="13.2614733"><ele>150.0</ele><time>2026-05-02T07:28:26.496Z</time></trkpt><trkpt lat="41.6422483" lon="13.261235"><ele>150.0</ele><time>2026-05-02T07:28:27.496Z</time></trkpt><trkpt lat="41.64237" lon="13.2609917"><ele>149.33333333333334</ele><time>2026-05-02T07:28:28.495Z</time></trkpt><trkpt lat="41.6424883" lon="13.2607483"><ele>148.66666666666669</ele><time>2026-05-02T07:28:29.495Z</time></trkpt><trkpt lat="41.642605" lon="13.2605017"><ele>148.0</ele><time>2026-05-02T07:28:30.495Z</time></trkpt><trkpt lat="41.6427233" lon="13.2602583"><ele>148.0</ele><time>2026-05-02T07:28:31.495Z</time></trkpt><trkpt lat="41.642845" lon="13.260005"><ele>148.0</ele><time>2026-05-02T07:28:32.495Z</time></trkpt><trkpt lat="41.64296" lon="13.259755"><ele>148.0</ele><time>2026-05-02T07:28:33.495Z</time></trkpt><trkpt lat="41.6430717" lon="13.2594967"><ele>148.0</ele><time>2026-05-02T07:28:34.495Z</time></trkpt><trkpt lat="41.6431867" lon="13.2592417"><ele>148.0</ele><time>2026-05-02T07:28:35.495Z</time></trkpt><trkpt lat="41.643295" lon="13.2589783"><ele>148.0</ele><time>2026-05-02T07:28:36.495Z</time></trkpt><trkpt lat="41.6434033" lon="13.25872"><ele>148.0</ele><time>2026-05-02T07:28:37.495Z</time></trkpt><trkpt lat="41.6435083" lon="13.2584633"><ele>148.0</ele><time>2026-05-02T07:28:38.495Z</time></trkpt><trkpt lat="41.643615" lon="13.2582"><ele>148.0</ele><time>2026-05-02T07:28:39.495Z</time></trkpt><trkpt lat="41.643725" lon="13.2579417"><ele>148.0</ele><time>2026-05-02T07:28:40.495Z</time></trkpt><trkpt lat="41.643835" lon="13.25768"><ele>148.0</ele><time>2026-05-02T07:28:41.495Z</time></trkpt><trkpt lat="41.64394" lon="13.2574167"><ele>148.0</ele><time>2026-05-02T07:28:42.495Z</time></trkpt><trkpt lat="41.6440467" lon="13.2571467"><ele>148.0</ele><time>2026-05-02T07:28:43.495Z</time></trkpt><trkpt lat="41.644155" lon="13.2568717"><ele>148.0</ele><time>2026-05-02T07:28:44.495Z</time></trkpt><trkpt lat="41.6442633" lon="13.2566"><ele>148.0</ele><time>2026-05-02T07:28:45.495Z</time></trkpt><trkpt lat="41.6443733" lon="13.2563267"><ele>148.0</ele><time>2026-05-02T07:28:46.495Z</time></trkpt><trkpt lat="41.644485" lon="13.25606"><ele>147.0</ele><time>2026-05-02T07:28:47.496Z</time></trkpt><trkpt lat="41.6445983" lon="13.255785"><ele>146.0</ele><time>2026-05-02T07:28:48.495Z</time></trkpt><trkpt lat="41.64471" lon="13.2555033"><ele>146.0</ele><time>2026-05-02T07:28:49.496Z</time></trkpt><trkpt lat="41.644815" lon="13.25523"><ele>146.0</ele><time>2026-05-02T07:28:50.496Z</time></trkpt><trkpt lat="41.644925" lon="13.2549633"><ele>146.0</ele><time>2026-05-02T07:28:51.495Z</time></trkpt><trkpt lat="41.6450333" lon="13.2546933"><ele>146.0</ele><time>2026-05-02T07:28:52.495Z</time></trkpt><trkpt lat="41.6451433" lon="13.2544317"><ele>146.0</ele><time>2026-05-02T07:28:53.495Z</time></trkpt><trkpt lat="41.6452533" lon="13.2541583"><ele>146.0</ele><time>2026-05-02T07:28:54.495Z</time></trkpt><trkpt lat="41.6453617" lon="13.2538933"><ele>145.66666666666666</ele><time>2026-05-02T07:28:55.495Z</time></trkpt><trkpt lat="41.64547" lon="13.2536267"><ele>145.33333333333334</ele><time>2026-05-02T07:28:56.495Z</time></trkpt><trkpt lat="41.64557" lon="13.253365"><ele>145.0</ele><time>2026-05-02T07:28:57.495Z</time></trkpt><trkpt lat="41.6456767" lon="13.253095"><ele>143.0</ele><time>2026-05-02T07:28:58.495Z</time></trkpt><trkpt lat="41.6457867" lon="13.252825"><ele>141.0</ele><time>2026-05-02T07:28:59.495Z</time></trkpt><trkpt lat="41.645895" lon="13.252565"><ele>141.0</ele><time>2026-05-02T07:29:00.495Z</time></trkpt><trkpt lat="41.646" lon="13.2523067"><ele>141.0</ele><time>2026-05-02T07:29:01.495Z</time></trkpt><trkpt lat="41.6461033" lon="13.2520417"><ele>141.0</ele><time>2026-05-02T07:29:02.495Z</time></trkpt><trkpt lat="41.64621" lon="13.2517817"><ele>142.0</ele><time>2026-05-02T07:29:03.495Z</time></trkpt><trkpt lat="41.6463217" lon="13.2515283"><ele>143.0</ele><time>2026-05-02T07:29:04.495Z</time></trkpt><trkpt lat="41.6464317" lon="13.25127"><ele>144.0</ele><time>2026-05-02T07:29:05.495Z</time></trkpt><trkpt lat="41.6465383" lon="13.251015"><ele>144.33333333333334</ele><time>2026-05-02T07:29:06.495Z</time></trkpt><trkpt lat="41.6466417" lon="13.2507567"><ele>144.66666666666669</ele><time>2026-05-02T07:29:07.495Z</time></trkpt><trkpt lat="41.646745" lon="13.2505033"><ele>145.0</ele><time>2026-05-02T07:29:08.495Z</time></trkpt><trkpt lat="41.646845" lon="13.25025"><ele>145.0</ele><time>2026-05-02T07:29:09.495Z</time></trkpt><trkpt lat="41.6469533" lon="13.2499917"><ele>145.0</ele><time>2026-05-02T07:29:10.495Z</time></trkpt><trkpt lat="41.64705" lon="13.2497383"><ele>145.0</ele><time>2026-05-02T07:29:11.495Z</time></trkpt><trkpt lat="41.647145" lon="13.2494933"><ele>145.33333333333334</ele><time>2026-05-02T07:29:12.495Z</time></trkpt><trkpt lat="41.6472467" lon="13.249245"><ele>145.66666666666666</ele><time>2026-05-02T07:29:13.496Z</time></trkpt><trkpt lat="41.6473467" lon="13.2490017"><ele>146.0</ele><time>2026-05-02T07:29:14.495Z</time></trkpt><trkpt lat="41.6474483" lon="13.2487533"><ele>146.0</ele><time>2026-05-02T07:29:15.495Z</time></trkpt><trkpt lat="41.6475433" lon="13.248505"><ele>146.0</ele><time>2026-05-02T07:29:16.495Z</time></trkpt><trkpt lat="41.6476417" lon="13.2482583"><ele>146.0</ele><time>2026-05-02T07:29:17.495Z</time></trkpt><trkpt lat="41.647745" lon="13.248015"><ele>146.66666666666666</ele><time>2026-05-02T07:29:18.495Z</time></trkpt><trkpt lat="41.6478367" lon="13.2477733"><ele>147.33333333333334</ele><time>2026-05-02T07:29:19.495Z</time></trkpt><trkpt lat="41.6479367" lon="13.2475283"><ele>148.0</ele><time>2026-05-02T07:29:20.495Z</time></trkpt><trkpt lat="41.6480367" lon="13.24728"><ele>148.0</ele><time>2026-05-02T07:29:21.495Z</time></trkpt><trkpt lat="41.6481417" lon="13.2470317"><ele>148.0</ele><time>2026-05-02T07:29:22.495Z</time></trkpt><trkpt lat="41.648245" lon="13.2467867"><ele>148.0</ele><time>2026-05-02T07:29:23.495Z</time></trkpt><trkpt lat="41.6483483" lon="13.2465367"><ele>147.33333333333334</ele><time>2026-05-02T07:29:24.495Z</time></trkpt><trkpt lat="41.6484533" lon="13.2462767"><ele>146.66666666666666</ele><time>2026-05-02T07:29:25.495Z</time></trkpt><trkpt lat="41.6485567" lon="13.2460167"><ele>146.0</ele><time>2026-05-02T07:29:26.495Z</time></trkpt><trkpt lat="41.6486633" lon="13.245755"><ele>146.33333333333331</ele><time>2026-05-02T07:29:27.495Z</time></trkpt><trkpt lat="41.6487683" lon="13.2454933"><ele>146.66666666666666</ele><time>2026-05-02T07:29:28.496Z</time></trkpt><trkpt lat="41.648875" lon="13.245235"><ele>147.0</ele><time>2026-05-02T07:29:29.495Z</time></trkpt><trkpt lat="41.648985" lon="13.2449733"><ele>147.5</ele><time>2026-05-02T07:29:30.495Z</time></trkpt><trkpt lat="41.6490967" lon="13.2447083"><ele>148.0</ele><time>2026-05-02T07:29:31.495Z</time></trkpt><trkpt lat="41.6492117" lon="13.2444467"><ele>148.0</ele><time>2026-05-02T07:29:32.495Z</time></trkpt><trkpt lat="41.6493283" lon="13.2441867"><ele>148.0</ele><time>2026-05-02T07:29:33.495Z</time></trkpt><trkpt lat="41.64945" lon="13.24393"><ele>149.5</ele><time>2026-05-02T07:29:34.495Z</time></trkpt><trkpt lat="41.6495717" lon="13.243675"><ele>151.0</ele><time>2026-05-02T07:29:35.496Z</time></trkpt><trkpt lat="41.6496933" lon="13.2434217"><ele>151.0</ele><time>2026-05-02T07:29:36.495Z</time></trkpt><trkpt lat="41.6498217" lon="13.2431733"><ele>151.0</ele><time>2026-05-02T07:29:37.495Z</time></trkpt><trkpt lat="41.6499483" lon="13.24293"><ele>151.0</ele><time>2026-05-02T07:29:38.495Z</time></trkpt><trkpt lat="41.6500833" lon="13.2426917"><ele>150.66666666666669</ele><time>2026-05-02T07:29:39.495Z</time></trkpt><trkpt lat="41.650215" lon="13.242455"><ele>150.33333333333334</ele><time>2026-05-02T07:29:40.495Z</time></trkpt><trkpt lat="41.6503467" lon="13.242215"><ele>150.0</ele><time>2026-05-02T07:29:41.495Z</time></trkpt><trkpt lat="41.65048" lon="13.24198"><ele>150.0</ele><time>2026-05-02T07:29:42.496Z</time></trkpt><trkpt lat="41.65062" lon="13.24174"><ele>150.0</ele><time>2026-05-02T07:29:43.495Z</time></trkpt><trkpt lat="41.6507633" lon="13.24151"><ele>150.0</ele><time>2026-05-02T07:29:44.495Z</time></trkpt><trkpt lat="41.6509033" lon="13.2412833"><ele>150.0</ele><time>2026-05-02T07:29:45.495Z</time></trkpt><trkpt lat="41.6510467" lon="13.2410567"><ele>150.0</ele><time>2026-05-02T07:29:46.495Z</time></trkpt><trkpt lat="41.6511917" lon="13.2408283"><ele>149.66666666666666</ele><time>2026-05-02T07:29:47.496Z</time></trkpt><trkpt lat="41.6513433" lon="13.2406033"><ele>149.33333333333331</ele><time>2026-05-02T07:29:48.495Z</time></trkpt><trkpt lat="41.65149" lon="13.2403817"><ele>149.0</ele><time>2026-05-02T07:29:49.495Z</time></trkpt><trkpt lat="41.6516383" lon="13.2401567"><ele>149.0</ele><time>2026-05-02T07:29:50.496Z</time></trkpt><trkpt lat="41.6517933" lon="13.2399367"><ele>149.0</ele><time>2026-05-02T07:29:51.496Z</time></trkpt><trkpt lat="41.6519417" lon="13.2397117"><ele>148.5</ele><time>2026-05-02T07:29:52.495Z</time></trkpt><trkpt lat="41.65209" lon="13.2394783"><ele>148.0</ele><time>2026-05-02T07:29:53.495Z</time></trkpt><trkpt lat="41.65224" lon="13.23925"><ele>148.0</ele><time>2026-05-02T07:29:54.495Z</time></trkpt><trkpt lat="41.6523917" lon="13.2390267"><ele>148.0</ele><time>2026-05-02T07:29:55.495Z</time></trkpt><trkpt lat="41.6525417" lon="13.2388017"><ele>148.5</ele><time>2026-05-02T07:29:56.495Z</time></trkpt><trkpt lat="41.6526933" lon="13.2385767"><ele>149.0</ele><time>2026-05-02T07:29:57.495Z</time></trkpt><trkpt lat="41.652845" lon="13.23835"><ele>149.66666666666666</ele><time>2026-05-02T07:29:58.495Z</time></trkpt><trkpt lat="41.65299" lon="13.238125"><ele>150.33333333333334</ele><time>2026-05-02T07:29:59.496Z</time></trkpt><trkpt lat="41.6531383" lon="13.2379067"><ele>151.0</ele><time>2026-05-02T07:30:00.495Z</time></trkpt><trkpt lat="41.65329" lon="13.2376833"><ele>151.0</ele><time>2026-05-02T07:30:01.495Z</time></trkpt><trkpt lat="41.6534433" lon="13.2374567"><ele>151.0</ele><time>2026-05-02T07:30:02.495Z</time></trkpt><trkpt lat="41.65359" lon="13.2372333"><ele>150.33333333333334</ele><time>2026-05-02T07:30:03.495Z</time></trkpt><trkpt lat="41.6537367" lon="13.2370117"><ele>149.66666666666666</ele><time>2026-05-02T07:30:04.495Z</time></trkpt><trkpt lat="41.6538867" lon="13.236785"><ele>149.0</ele><time>2026-05-02T07:30:05.495Z</time></trkpt><trkpt lat="41.6540317" lon="13.23657"><ele>148.66666666666666</ele><time>2026-05-02T07:30:06.495Z</time></trkpt><trkpt lat="41.65418" lon="13.2363517"><ele>148.33333333333334</ele><time>2026-05-02T07:30:07.495Z</time></trkpt><trkpt lat="41.654325" lon="13.236135"><ele>148.0</ele><time>2026-05-02T07:30:08.495Z</time></trkpt><trkpt lat="41.654465" lon="13.2359117"><ele>148.66666666666669</ele><time>2026-05-02T07:30:09.495Z</time></trkpt><trkpt lat="41.6546083" lon="13.2357"><ele>149.33333333333334</ele><time>2026-05-02T07:30:10.495Z</time></trkpt><trkpt lat="41.6547567" lon="13.2354817"><ele>150.0</ele><time>2026-05-02T07:30:11.495Z</time></trkpt><trkpt lat="41.6549033" lon="13.2352667"><ele>152.0</ele><time>2026-05-02T07:30:12.495Z</time></trkpt><trkpt lat="41.6550517" lon="13.235045"><ele>154.0</ele><time>2026-05-02T07:30:13.495Z</time></trkpt><trkpt lat="41.6551967" lon="13.2348233"><ele>156.0</ele><time>2026-05-02T07:30:14.495Z</time></trkpt><trkpt lat="41.6553433" lon="13.2346017"><ele>156.0</ele><time>2026-05-02T07:30:15.495Z</time></trkpt><trkpt lat="41.6554917" lon="13.2343767"><ele>156.0</ele><time>2026-05-02T07:30:16.495Z</time></trkpt><trkpt lat="41.655635" lon="13.2341567"><ele>156.0</ele><time>2026-05-02T07:30:17.495Z</time></trkpt><trkpt lat="41.6557817" lon="13.233935"><ele>156.0</ele><time>2026-05-02T07:30:18.495Z</time></trkpt><trkpt lat="41.6559317" lon="13.2337167"><ele>156.0</ele><time>2026-05-02T07:30:19.495Z</time></trkpt><trkpt lat="41.6560833" lon="13.23349"><ele>156.0</ele><time>2026-05-02T07:30:20.495Z</time></trkpt><trkpt lat="41.6562333" lon="13.233265"><ele>161.0</ele><time>2026-05-02T07:30:21.495Z</time></trkpt><trkpt lat="41.656385" lon="13.2330383"><ele>166.0</ele><time>2026-05-02T07:30:22.495Z</time></trkpt><trkpt lat="41.6565333" lon="13.2328167"><ele>166.0</ele><time>2026-05-02T07:30:23.495Z</time></trkpt><trkpt lat="41.6566817" lon="13.2325883"><ele>166.0</ele><time>2026-05-02T07:30:24.495Z</time></trkpt><trkpt lat="41.65683" lon="13.2323583"><ele>166.0</ele><time>2026-05-02T07:30:25.495Z</time></trkpt><trkpt lat="41.6569833" lon="13.2321333"><ele>166.0</ele><time>2026-05-02T07:30:26.495Z</time></trkpt><trkpt lat="41.6571367" lon="13.2319117"><ele>166.0</ele><time>2026-05-02T07:30:27.495Z</time></trkpt><trkpt lat="41.6572883" lon="13.23169"><ele>166.0</ele><time>2026-05-02T07:30:28.495Z</time></trkpt><trkpt lat="41.6574333" lon="13.231465"><ele>166.0</ele><time>2026-05-02T07:30:29.495Z</time></trkpt><trkpt lat="41.6575867" lon="13.2312483"><ele>166.0</ele><time>2026-05-02T07:30:30.495Z</time></trkpt><trkpt lat="41.6577333" lon="13.2310233"><ele>166.0</ele><time>2026-05-02T07:30:31.495Z</time></trkpt><trkpt lat="41.6578867" lon="13.230795"><ele>169.0</ele><time>2026-05-02T07:30:32.495Z</time></trkpt><trkpt lat="41.6580417" lon="13.2305633"><ele>172.0</ele><time>2026-05-02T07:30:33.495Z</time></trkpt><trkpt lat="41.6581983" lon="13.2303333"><ele>172.0</ele><time>2026-05-02T07:30:34.496Z</time></trkpt><trkpt lat="41.658355" lon="13.2301"><ele>172.0</ele><time>2026-05-02T07:30:35.495Z</time></trkpt><trkpt lat="41.65851" lon="13.2298583"><ele>173.0</ele><time>2026-05-02T07:30:36.495Z</time></trkpt><trkpt lat="41.658665" lon="13.2296167"><ele>174.0</ele><time>2026-05-02T07:30:37.495Z</time></trkpt><trkpt lat="41.65882" lon="13.2293767"><ele>174.0</ele><time>2026-05-02T07:30:38.495Z</time></trkpt><trkpt lat="41.6589783" lon="13.22914"><ele>174.0</ele><time>2026-05-02T07:30:39.495Z</time></trkpt><trkpt lat="41.659135" lon="13.228905"><ele>177.0</ele><time>2026-05-02T07:30:40.495Z</time></trkpt><trkpt lat="41.6592883" lon="13.228675"><ele>180.0</ele><time>2026-05-02T07:30:41.495Z</time></trkpt><trkpt lat="41.6594467" lon="13.2284433"><ele>180.0</ele><time>2026-05-02T07:30:42.495Z</time></trkpt><trkpt lat="41.6595967" lon="13.228215"><ele>180.0</ele><time>2026-05-02T07:30:43.495Z</time></trkpt><trkpt lat="41.659755" lon="13.227985"><ele>182.5</ele><time>2026-05-02T07:30:44.495Z</time></trkpt><trkpt lat="41.6599067" lon="13.227755"><ele>185.0</ele><time>2026-05-02T07:30:45.495Z</time></trkpt><trkpt lat="41.66006" lon="13.22752"><ele>190.5</ele><time>2026-05-02T07:30:46.495Z</time></trkpt><trkpt lat="41.6602117" lon="13.2272917"><ele>196.0</ele><time>2026-05-02T07:30:47.495Z</time></trkpt><trkpt lat="41.660365" lon="13.2270583"><ele>196.0</ele><time>2026-05-02T07:30:48.495Z</time></trkpt><trkpt lat="41.66052" lon="13.226825"><ele>196.0</ele><time>2026-05-02T07:30:49.495Z</time></trkpt><trkpt lat="41.6606783" lon="13.2265933"><ele>197.5</ele><time>2026-05-02T07:30:50.495Z</time></trkpt><trkpt lat="41.6608383" lon="13.226365"><ele>199.0</ele><time>2026-05-02T07:30:51.495Z</time></trkpt><trkpt lat="41.6609917" lon="13.22613"><ele>199.5</ele><time>2026-05-02T07:30:52.495Z</time></trkpt><trkpt lat="41.6611467" lon="13.2258983"><ele>200.0</ele><time>2026-05-02T07:30:53.495Z</time></trkpt><trkpt lat="41.6612983" lon="13.2256667"><ele>200.0</ele><time>2026-05-02T07:30:54.495Z</time></trkpt><trkpt lat="41.66145" lon="13.2254317"><ele>200.0</ele><time>2026-05-02T07:30:55.495Z</time></trkpt><trkpt lat="41.6616033" lon="13.2252"><ele>200.0</ele><time>2026-05-02T07:30:56.495Z</time></trkpt><trkpt lat="41.6617583" lon="13.2249767"><ele>200.0</ele><time>2026-05-02T07:30:57.496Z</time></trkpt><trkpt lat="41.6619083" lon="13.22475"><ele>201.5</ele><time>2026-05-02T07:30:58.495Z</time></trkpt><trkpt lat="41.6620583" lon="13.2245167"><ele>203.0</ele><time>2026-05-02T07:30:59.495Z</time></trkpt><trkpt lat="41.662215" lon="13.2242883"><ele>203.0</ele><time>2026-05-02T07:31:00.496Z</time></trkpt><trkpt lat="41.6623617" lon="13.2240483"><ele>203.0</ele><time>2026-05-02T07:31:01.495Z</time></trkpt><trkpt lat="41.662515" lon="13.223825"><ele>203.0</ele><time>2026-05-02T07:31:02.495Z</time></trkpt><trkpt lat="41.662665" lon="13.2236017"><ele>203.0</ele><time>2026-05-02T07:31:03.495Z</time></trkpt><trkpt lat="41.662815" lon="13.2233767"><ele>204.0</ele><time>2026-05-02T07:31:04.495Z</time></trkpt><trkpt lat="41.662965" lon="13.22315"><ele>205.0</ele><time>2026-05-02T07:31:05.495Z</time></trkpt><trkpt lat="41.6631117" lon="13.2229217"><ele>205.5</ele><time>2026-05-02T07:31:06.495Z</time></trkpt><trkpt lat="41.6632633" lon="13.2227"><ele>206.0</ele><time>2026-05-02T07:31:07.495Z</time></trkpt><trkpt lat="41.6634183" lon="13.2224733"><ele>206.0</ele><time>2026-05-02T07:31:08.495Z</time></trkpt><trkpt lat="41.66357" lon="13.2222517"><ele>206.0</ele><time>2026-05-02T07:31:09.495Z</time></trkpt><trkpt lat="41.663715" lon="13.22203"><ele>206.0</ele><time>2026-05-02T07:31:10.495Z</time></trkpt><trkpt lat="41.663865" lon="13.2218117"><ele>206.0</ele><time>2026-05-02T07:31:11.495Z</time></trkpt><trkpt lat="41.66401" lon="13.22159"><ele>206.0</ele><time>2026-05-02T07:31:12.495Z</time></trkpt><trkpt lat="41.664155" lon="13.2213667"><ele>206.0</ele><time>2026-05-02T07:31:13.495Z</time></trkpt><trkpt lat="41.6643017" lon="13.2211483"><ele>206.33333333333334</ele><time>2026-05-02T07:31:14.495Z</time></trkpt><trkpt lat="41.6644483" lon="13.220925"><ele>206.66666666666669</ele><time>2026-05-02T07:31:15.495Z</time></trkpt><trkpt lat="41.6645917" lon="13.2207083"><ele>207.0</ele><time>2026-05-02T07:31:16.496Z</time></trkpt><trkpt lat="41.6647383" lon="13.2204917"><ele>207.33333333333331</ele><time>2026-05-02T07:31:17.495Z</time></trkpt><trkpt lat="41.6648867" lon="13.2202667"><ele>207.66666666666666</ele><time>2026-05-02T07:31:18.495Z</time></trkpt><trkpt lat="41.6650333" lon="13.2200467"><ele>208.0</ele><time>2026-05-02T07:31:19.495Z</time></trkpt><trkpt lat="41.665185" lon="13.2198267"><ele>210.0</ele><time>2026-05-02T07:31:20.495Z</time></trkpt><trkpt lat="41.6653367" lon="13.2196033"><ele>212.0</ele><time>2026-05-02T07:31:21.495Z</time></trkpt><trkpt lat="41.665485" lon="13.2193767"><ele>212.0</ele><time>2026-05-02T07:31:22.495Z</time></trkpt><trkpt lat="41.6656367" lon="13.21915"><ele>212.0</ele><time>2026-05-02T07:31:23.495Z</time></trkpt><trkpt lat="41.6657917" lon="13.218925"><ele>212.0</ele><time>2026-05-02T07:31:24.495Z</time></trkpt><trkpt lat="41.66594" lon="13.2186967"><ele>212.0</ele><time>2026-05-02T07:31:25.495Z</time></trkpt><trkpt lat="41.666095" lon="13.218465"><ele>211.5</ele><time>2026-05-02T07:31:26.495Z</time></trkpt><trkpt lat="41.66625" lon="13.2182283"><ele>211.0</ele><time>2026-05-02T07:31:27.495Z</time></trkpt><trkpt lat="41.6664033" lon="13.2179933"><ele>212.0</ele><time>2026-05-02T07:31:28.495Z</time></trkpt><trkpt lat="41.6665633" lon="13.2177583"><ele>213.0</ele><time>2026-05-02T07:31:29.495Z</time></trkpt><trkpt lat="41.6667217" lon="13.21752"><ele>215.0</ele><time>2026-05-02T07:31:30.495Z</time></trkpt><trkpt lat="41.666885" lon="13.2172783"><ele>217.0</ele><time>2026-05-02T07:31:31.495Z</time></trkpt><trkpt lat="41.6670367" lon="13.2170433"><ele>217.5</ele><time>2026-05-02T07:31:32.495Z</time></trkpt><trkpt lat="41.6671933" lon="13.21681"><ele>218.0</ele><time>2026-05-02T07:31:33.495Z</time></trkpt><trkpt lat="41.6673483" lon="13.2165667"><ele>218.5</ele><time>2026-05-02T07:31:34.495Z</time></trkpt><trkpt lat="41.66751" lon="13.2163333"><ele>219.0</ele><time>2026-05-02T07:31:35.495Z</time></trkpt><trkpt lat="41.6676583" lon="13.2161"><ele>217.5</ele><time>2026-05-02T07:31:36.495Z</time></trkpt><trkpt lat="41.6678183" lon="13.21587"><ele>216.0</ele><time>2026-05-02T07:31:37.495Z</time></trkpt><trkpt lat="41.6679767" lon="13.2156383"><ele>216.0</ele><time>2026-05-02T07:31:38.495Z</time></trkpt><trkpt lat="41.668135" lon="13.2153983"><ele>216.0</ele><time>2026-05-02T07:31:39.495Z</time></trkpt><trkpt lat="41.668295" lon="13.21516"><ele>216.0</ele><time>2026-05-02T07:31:40.495Z</time></trkpt><trkpt lat="41.66846" lon="13.2149183"><ele>216.0</ele><time>2026-05-02T07:31:41.495Z</time></trkpt><trkpt lat="41.6686167" lon="13.2146817"><ele>216.0</ele><time>2026-05-02T07:31:42.496Z</time></trkpt><trkpt lat="41.6687767" lon="13.2144367"><ele>216.0</ele><time>2026-05-02T07:31:43.495Z</time></trkpt><trkpt lat="41.6689317" lon="13.2141983"><ele>217.5</ele><time>2026-05-02T07:31:44.496Z</time></trkpt><trkpt lat="41.669085" lon="13.21397"><ele>219.0</ele><time>2026-05-02T07:31:45.495Z</time></trkpt><trkpt lat="41.6692333" lon="13.2137433"><ele>219.0</ele><time>2026-05-02T07:31:46.495Z</time></trkpt><trkpt lat="41.66938" lon="13.2135267"><ele>219.0</ele><time>2026-05-02T07:31:47.496Z</time></trkpt><trkpt lat="41.6695217" lon="13.213315"><ele>219.0</ele><time>2026-05-02T07:31:48.495Z</time></trkpt><trkpt lat="41.6696683" lon="13.2130967"><ele>219.0</ele><time>2026-05-02T07:31:49.495Z</time></trkpt><trkpt lat="41.6698117" lon="13.2128817"><ele>219.0</ele><time>2026-05-02T07:31:50.496Z</time></trkpt><trkpt lat="41.6699617" lon="13.2126583"><ele>219.0</ele><time>2026-05-02T07:31:51.495Z</time></trkpt><trkpt lat="41.67011" lon="13.2124317"><ele>218.33333333333331</ele><time>2026-05-02T07:31:52.495Z</time></trkpt><trkpt lat="41.670255" lon="13.2122067"><ele>217.66666666666666</ele><time>2026-05-02T07:31:53.495Z</time></trkpt><trkpt lat="41.670405" lon="13.2119817"><ele>217.0</ele><time>2026-05-02T07:31:54.495Z</time></trkpt><trkpt lat="41.670555" lon="13.2117617"><ele>217.0</ele><time>2026-05-02T07:31:55.495Z</time></trkpt><trkpt lat="41.6707033" lon="13.2115417"><ele>217.0</ele><time>2026-05-02T07:31:56.496Z</time></trkpt><trkpt lat="41.67085" lon="13.2113167"><ele>217.0</ele><time>2026-05-02T07:31:57.495Z</time></trkpt><trkpt lat="41.671" lon="13.21109"><ele>217.0</ele><time>2026-05-02T07:31:58.495Z</time></trkpt><trkpt lat="41.6711433" lon="13.2108683"><ele>217.0</ele><time>2026-05-02T07:31:59.495Z</time></trkpt><trkpt lat="41.6712883" lon="13.21065"><ele>217.0</ele><time>2026-05-02T07:32:00.495Z</time></trkpt><trkpt lat="41.671435" lon="13.21043"><ele>217.0</ele><time>2026-05-02T07:32:01.495Z</time></trkpt><trkpt lat="41.67158" lon="13.2102117"><ele>217.0</ele><time>2026-05-02T07:32:02.495Z</time></trkpt><trkpt lat="41.6717267" lon="13.209995"><ele>217.0</ele><time>2026-05-02T07:32:03.495Z</time></trkpt><trkpt lat="41.671875" lon="13.2097733"><ele>218.33333333333331</ele><time>2026-05-02T07:32:04.496Z</time></trkpt><trkpt lat="41.6720217" lon="13.209555"><ele>219.66666666666669</ele><time>2026-05-02T07:32:05.495Z</time></trkpt><trkpt lat="41.672165" lon="13.2093317"><ele>221.0</ele><time>2026-05-02T07:32:06.495Z</time></trkpt><trkpt lat="41.6723117" lon="13.2091167"><ele>221.33333333333334</ele><time>2026-05-02T07:32:07.495Z</time></trkpt><trkpt lat="41.672455" lon="13.208895"><ele>221.66666666666669</ele><time>2026-05-02T07:32:08.495Z</time></trkpt><trkpt lat="41.6726083" lon="13.2086733"><ele>222.0</ele><time>2026-05-02T07:32:09.495Z</time></trkpt><trkpt lat="41.6727583" lon="13.2084517"><ele>221.0</ele><time>2026-05-02T07:32:10.495Z</time></trkpt><trkpt lat="41.6729067" lon="13.2082267"><ele>220.0</ele><time>2026-05-02T07:32:11.495Z</time></trkpt><trkpt lat="41.6730583" lon="13.2080017"><ele>220.0</ele><time>2026-05-02T07:32:12.495Z</time></trkpt><trkpt lat="41.6732067" lon="13.2077717"><ele>220.0</ele><time>2026-05-02T07:32:13.495Z</time></trkpt><trkpt lat="41.67336" lon="13.20755"><ele>220.0</ele><time>2026-05-02T07:32:14.496Z</time></trkpt><trkpt lat="41.6735133" lon="13.2073267"><ele>220.0</ele><time>2026-05-02T07:32:15.495Z</time></trkpt><trkpt lat="41.6736633" lon="13.2071017"><ele>220.0</ele><time>2026-05-02T07:32:16.495Z</time></trkpt><trkpt lat="41.6738117" lon="13.20687"><ele>220.0</ele><time>2026-05-02T07:32:17.495Z</time></trkpt><trkpt lat="41.6739583" lon="13.20664"><ele>220.5</ele><time>2026-05-02T07:32:18.495Z</time></trkpt><trkpt lat="41.6741083" lon="13.2064083"><ele>221.0</ele><time>2026-05-02T07:32:19.495Z</time></trkpt><trkpt lat="41.6742583" lon="13.2061767"><ele>221.0</ele><time>2026-05-02T07:32:20.495Z</time></trkpt><trkpt lat="41.6744117" lon="13.205945"><ele>221.0</ele><time>2026-05-02T07:32:21.495Z</time></trkpt><trkpt lat="41.674565" lon="13.205715"><ele>221.0</ele><time>2026-05-02T07:32:22.495Z</time></trkpt><trkpt lat="41.6747183" lon="13.20549"><ele>221.0</ele><time>2026-05-02T07:32:23.495Z</time></trkpt><trkpt lat="41.6748733" lon="13.20526"><ele>221.0</ele><time>2026-05-02T07:32:24.495Z</time></trkpt><trkpt lat="41.675025" lon="13.20503"><ele>221.0</ele><time>2026-05-02T07:32:25.495Z</time></trkpt><trkpt lat="41.6751733" lon="13.204805"><ele>220.66666666666669</ele><time>2026-05-02T07:32:26.496Z</time></trkpt><trkpt lat="41.6753217" lon="13.20458"><ele>220.33333333333331</ele><time>2026-05-02T07:32:27.495Z</time></trkpt><trkpt lat="41.67547" lon="13.204365"><ele>220.0</ele><time>2026-05-02T07:32:28.495Z</time></trkpt><trkpt lat="41.6756217" lon="13.2041383"><ele>220.66666666666666</ele><time>2026-05-02T07:32:29.495Z</time></trkpt><trkpt lat="41.6757733" lon="13.203915"><ele>221.33333333333331</ele><time>2026-05-02T07:32:30.495Z</time></trkpt><trkpt lat="41.6759217" lon="13.203695"><ele>222.0</ele><time>2026-05-02T07:32:31.495Z</time></trkpt><trkpt lat="41.6760683" lon="13.2034717"><ele>222.33333333333331</ele><time>2026-05-02T07:32:32.495Z</time></trkpt><trkpt lat="41.6762133" lon="13.203255"><ele>222.66666666666666</ele><time>2026-05-02T07:32:33.496Z</time></trkpt><trkpt lat="41.6763617" lon="13.2030333"><ele>223.0</ele><time>2026-05-02T07:32:34.495Z</time></trkpt><trkpt lat="41.67651" lon="13.2028133"><ele>223.0</ele><time>2026-05-02T07:32:35.495Z</time></trkpt><trkpt lat="41.6766533" lon="13.2025917"><ele>223.0</ele><time>2026-05-02T07:32:36.496Z</time></trkpt><trkpt lat="41.67679" lon="13.2023733"><ele>223.0</ele><time>2026-05-02T07:32:37.495Z</time></trkpt><trkpt lat="41.6769333" lon="13.202155"><ele>222.66666666666666</ele><time>2026-05-02T07:32:38.495Z</time></trkpt><trkpt lat="41.6770717" lon="13.2019467"><ele>222.33333333333331</ele><time>2026-05-02T07:32:39.495Z</time></trkpt><trkpt lat="41.6772167" lon="13.2017317"><ele>222.0</ele><time>2026-05-02T07:32:40.495Z</time></trkpt><trkpt lat="41.67736" lon="13.2015133"><ele>222.66666666666669</ele><time>2026-05-02T07:32:41.495Z</time></trkpt><trkpt lat="41.6775067" lon="13.2013067"><ele>223.33333333333334</ele><time>2026-05-02T07:32:42.495Z</time></trkpt><trkpt lat="41.67765" lon="13.201095"><ele>224.0</ele><time>2026-05-02T07:32:43.495Z</time></trkpt><trkpt lat="41.6778017" lon="13.20088"><ele>223.33333333333334</ele><time>2026-05-02T07:32:44.495Z</time></trkpt><trkpt lat="41.6779483" lon="13.2006633"><ele>222.66666666666669</ele><time>2026-05-02T07:32:45.495Z</time></trkpt><trkpt lat="41.678095" lon="13.200445"><ele>222.0</ele><time>2026-05-02T07:32:46.495Z</time></trkpt><trkpt lat="41.6782417" lon="13.2002283"><ele>222.0</ele><time>2026-05-02T07:32:47.495Z</time></trkpt><trkpt lat="41.6783883" lon="13.2000117"><ele>222.0</ele><time>2026-05-02T07:32:48.495Z</time></trkpt><trkpt lat="41.67853" lon="13.1997933"><ele>222.0</ele><time>2026-05-02T07:32:49.495Z</time></trkpt><trkpt lat="41.6786733" lon="13.19957"><ele>222.33333333333331</ele><time>2026-05-02T07:32:50.495Z</time></trkpt><trkpt lat="41.678815" lon="13.1993483"><ele>222.66666666666666</ele><time>2026-05-02T07:32:51.496Z</time></trkpt><trkpt lat="41.67896" lon="13.19913"><ele>223.0</ele><time>2026-05-02T07:32:52.496Z</time></trkpt><trkpt lat="41.6791033" lon="13.1989083"><ele>223.0</ele><time>2026-05-02T07:32:53.495Z</time></trkpt><trkpt lat="41.6792517" lon="13.1986883"><ele>223.0</ele><time>2026-05-02T07:32:54.496Z</time></trkpt><trkpt lat="41.6793933" lon="13.1984717"><ele>223.0</ele><time>2026-05-02T07:32:55.495Z</time></trkpt><trkpt lat="41.679535" lon="13.1982567"><ele>225.66666666666666</ele><time>2026-05-02T07:32:56.495Z</time></trkpt><trkpt lat="41.6796817" lon="13.1980417"><ele>228.33333333333331</ele><time>2026-05-02T07:32:57.495Z</time></trkpt><trkpt lat="41.6798267" lon="13.1978233"><ele>231.0</ele><time>2026-05-02T07:32:58.495Z</time></trkpt><trkpt lat="41.6799767" lon="13.197605"><ele>231.0</ele><time>2026-05-02T07:32:59.495Z</time></trkpt><trkpt lat="41.6801267" lon="13.1973833"><ele>231.0</ele><time>2026-05-02T07:33:00.495Z</time></trkpt><trkpt lat="41.6802733" lon="13.1971617"><ele>231.0</ele><time>2026-05-02T07:33:01.495Z</time></trkpt><trkpt lat="41.6804183" lon="13.1969433"><ele>231.66666666666669</ele><time>2026-05-02T07:33:02.495Z</time></trkpt><trkpt lat="41.6805633" lon="13.19672"><ele>232.33333333333334</ele><time>2026-05-02T07:33:03.495Z</time></trkpt><trkpt lat="41.6807133" lon="13.1964967"><ele>233.0</ele><time>2026-05-02T07:33:04.495Z</time></trkpt><trkpt lat="41.6808617" lon="13.1962683"><ele>233.0</ele><time>2026-05-02T07:33:05.495Z</time></trkpt><trkpt lat="41.6810117" lon="13.19604"><ele>233.0</ele><time>2026-05-02T07:33:06.495Z</time></trkpt><trkpt lat="41.681165" lon="13.195815"><ele>233.66666666666669</ele><time>2026-05-02T07:33:07.495Z</time></trkpt><trkpt lat="41.681315" lon="13.1955883"><ele>234.33333333333331</ele><time>2026-05-02T07:33:08.495Z</time></trkpt><trkpt lat="41.6814633" lon="13.195365"><ele>235.0</ele><time>2026-05-02T07:33:09.495Z</time></trkpt><trkpt lat="41.6816067" lon="13.1951333"><ele>235.0</ele><time>2026-05-02T07:33:10.495Z</time></trkpt><trkpt lat="41.681755" lon="13.1949133"><ele>235.0</ele><time>2026-05-02T07:33:11.495Z</time></trkpt><trkpt lat="41.681905" lon="13.1946967"><ele>235.0</ele><time>2026-05-02T07:33:12.495Z</time></trkpt><trkpt lat="41.6820517" lon="13.1944817"><ele>236.0</ele><time>2026-05-02T07:33:13.495Z</time></trkpt><trkpt lat="41.6821967" lon="13.1942717"><ele>237.0</ele><time>2026-05-02T07:33:14.495Z</time></trkpt><trkpt lat="41.6823433" lon="13.194055"><ele>238.0</ele><time>2026-05-02T07:33:15.495Z</time></trkpt><trkpt lat="41.6824917" lon="13.19384"><ele>238.33333333333331</ele><time>2026-05-02T07:33:16.495Z</time></trkpt><trkpt lat="41.682635" lon="13.1936217"><ele>238.66666666666669</ele><time>2026-05-02T07:33:17.495Z</time></trkpt><trkpt lat="41.682775" lon="13.193405"><ele>239.0</ele><time>2026-05-02T07:33:18.495Z</time></trkpt><trkpt lat="41.6829183" lon="13.1931833"><ele>241.33333333333334</ele><time>2026-05-02T07:33:19.495Z</time></trkpt><trkpt lat="41.6830667" lon="13.192965"><ele>243.66666666666669</ele><time>2026-05-02T07:33:20.495Z</time></trkpt><trkpt lat="41.683205" lon="13.1927367"><ele>246.0</ele><time>2026-05-02T07:33:21.495Z</time></trkpt><trkpt lat="41.68335" lon="13.19252"><ele>247.0</ele><time>2026-05-02T07:33:22.495Z</time></trkpt><trkpt lat="41.6834933" lon="13.1923167"><ele>248.0</ele><time>2026-05-02T07:33:23.495Z</time></trkpt><trkpt lat="41.6836283" lon="13.1921117"><ele>249.0</ele><time>2026-05-02T07:33:24.496Z</time></trkpt><trkpt lat="41.6837633" lon="13.1919117"><ele>249.0</ele><time>2026-05-02T07:33:25.495Z</time></trkpt><trkpt lat="41.6838967" lon="13.1917083"><ele>249.0</ele><time>2026-05-02T07:33:26.495Z</time></trkpt><trkpt lat="41.6840333" lon="13.1915"><ele>249.0</ele><time>2026-05-02T07:33:27.495Z</time></trkpt><trkpt lat="41.6841683" lon="13.1912917"><ele>249.0</ele><time>2026-05-02T07:33:28.495Z</time></trkpt><trkpt lat="41.68431" lon="13.1910917"><ele>249.0</ele><time>2026-05-02T07:33:29.495Z</time></trkpt><trkpt lat="41.684445" lon="13.1908883"><ele>249.0</ele><time>2026-05-02T07:33:30.495Z</time></trkpt><trkpt lat="41.684585" lon="13.1906917"><ele>247.66666666666669</ele><time>2026-05-02T07:33:31.495Z</time></trkpt><trkpt lat="41.6847167" lon="13.1904867"><ele>246.33333333333334</ele><time>2026-05-02T07:33:32.495Z</time></trkpt><trkpt lat="41.6848483" lon="13.19028"><ele>245.0</ele><time>2026-05-02T07:33:33.495Z</time></trkpt><trkpt lat="41.68498" lon="13.1900767"><ele>245.0</ele><time>2026-05-02T07:33:34.495Z</time></trkpt><trkpt lat="41.6851133" lon="13.1898767"><ele>245.0</ele><time>2026-05-02T07:33:35.495Z</time></trkpt><trkpt lat="41.6852483" lon="13.1896783"><ele>245.0</ele><time>2026-05-02T07:33:36.495Z</time></trkpt><trkpt lat="41.685385" lon="13.18948"><ele>244.66666666666669</ele><time>2026-05-02T07:33:37.495Z</time></trkpt><trkpt lat="41.68552" lon="13.189275"><ele>244.33333333333331</ele><time>2026-05-02T07:33:38.495Z</time></trkpt><trkpt lat="41.6856567" lon="13.1890683"><ele>244.0</ele><time>2026-05-02T07:33:39.495Z</time></trkpt><trkpt lat="41.6857967" lon="13.18886"><ele>243.66666666666666</ele><time>2026-05-02T07:33:40.495Z</time></trkpt><trkpt lat="41.6859367" lon="13.1886467"><ele>243.33333333333331</ele><time>2026-05-02T07:33:41.495Z</time></trkpt><trkpt lat="41.6860817" lon="13.1884317"><ele>243.0</ele><time>2026-05-02T07:33:42.495Z</time></trkpt><trkpt lat="41.6862267" lon="13.1882183"><ele>243.0</ele><time>2026-05-02T07:33:43.495Z</time></trkpt><trkpt lat="41.6863717" lon="13.188"><ele>243.0</ele><time>2026-05-02T07:33:44.495Z</time></trkpt><trkpt lat="41.6865133" lon="13.187785"><ele>243.0</ele><time>2026-05-02T07:33:45.495Z</time></trkpt><trkpt lat="41.6866533" lon="13.1875683"><ele>243.0</ele><time>2026-05-02T07:33:46.495Z</time></trkpt><trkpt lat="41.6867917" lon="13.187355"><ele>243.0</ele><time>2026-05-02T07:33:47.495Z</time></trkpt><trkpt lat="41.6869283" lon="13.1871333"><ele>243.0</ele><time>2026-05-02T07:33:48.495Z</time></trkpt><trkpt lat="41.6870667" lon="13.18691"><ele>242.66666666666669</ele><time>2026-05-02T07:33:49.495Z</time></trkpt><trkpt lat="41.6872083" lon="13.186685"><ele>242.33333333333334</ele><time>2026-05-02T07:33:50.496Z</time></trkpt><trkpt lat="41.6873467" lon="13.1864567"><ele>242.0</ele><time>2026-05-02T07:33:51.495Z</time></trkpt><trkpt lat="41.68749" lon="13.186225"><ele>241.66666666666669</ele><time>2026-05-02T07:33:52.495Z</time></trkpt><trkpt lat="41.6876317" lon="13.1859917"><ele>241.33333333333331</ele><time>2026-05-02T07:33:53.495Z</time></trkpt><trkpt lat="41.6877667" lon="13.185755"><ele>241.0</ele><time>2026-05-02T07:33:54.495Z</time></trkpt><trkpt lat="41.68791" lon="13.1855133"><ele>242.5</ele><time>2026-05-02T07:33:55.495Z</time></trkpt><trkpt lat="41.6880517" lon="13.1852733"><ele>244.0</ele><time>2026-05-02T07:33:56.495Z</time></trkpt><trkpt lat="41.6881883" lon="13.1850333"><ele>243.33333333333331</ele><time>2026-05-02T07:33:57.495Z</time></trkpt><trkpt lat="41.68832" lon="13.1847967"><ele>242.66666666666669</ele><time>2026-05-02T07:33:58.495Z</time></trkpt><trkpt lat="41.688455" lon="13.184565"><ele>242.0</ele><time>2026-05-02T07:33:59.496Z</time></trkpt><trkpt lat="41.6885867" lon="13.1843283"><ele>242.66666666666669</ele><time>2026-05-02T07:34:00.496Z</time></trkpt><trkpt lat="41.68872" lon="13.18409"><ele>243.33333333333331</ele><time>2026-05-02T07:34:01.495Z</time></trkpt><trkpt lat="41.68885" lon="13.18385"><ele>244.0</ele><time>2026-05-02T07:34:02.496Z</time></trkpt><trkpt lat="41.6889767" lon="13.1836083"><ele>241.33333333333331</ele><time>2026-05-02T07:34:03.495Z</time></trkpt><trkpt lat="41.6891033" lon="13.1833633"><ele>238.66666666666669</ele><time>2026-05-02T07:34:04.495Z</time></trkpt><trkpt lat="41.6892283" lon="13.183115"><ele>236.0</ele><time>2026-05-02T07:34:05.495Z</time></trkpt><trkpt lat="41.6893567" lon="13.1828667"><ele>237.0</ele><time>2026-05-02T07:34:06.495Z</time></trkpt><trkpt lat="41.6894767" lon="13.18262"><ele>238.0</ele><time>2026-05-02T07:34:07.495Z</time></trkpt><trkpt lat="41.6895983" lon="13.1823683"><ele>239.0</ele><time>2026-05-02T07:34:08.495Z</time></trkpt><trkpt lat="41.68972" lon="13.1821217"><ele>235.0</ele><time>2026-05-02T07:34:09.495Z</time></trkpt><trkpt lat="41.6898417" lon="13.1818767"><ele>231.0</ele><time>2026-05-02T07:34:10.495Z</time></trkpt><trkpt lat="41.689965" lon="13.181635"><ele>227.0</ele><time>2026-05-02T07:34:11.495Z</time></trkpt><trkpt lat="41.6900833" lon="13.1813983"><ele>226.0</ele><time>2026-05-02T07:34:12.495Z</time></trkpt><trkpt lat="41.6902033" lon="13.18117"><ele>225.0</ele><time>2026-05-02T07:34:13.496Z</time></trkpt><trkpt lat="41.690315" lon="13.1809433"><ele>224.0</ele><time>2026-05-02T07:34:14.495Z</time></trkpt><trkpt lat="41.690425" lon="13.1807167"><ele>223.33333333333334</ele><time>2026-05-02T07:34:15.495Z</time></trkpt><trkpt lat="41.690535" lon="13.1804867"><ele>222.66666666666669</ele><time>2026-05-02T07:34:16.495Z</time></trkpt><trkpt lat="41.6906483" lon="13.1802583"><ele>222.0</ele><time>2026-05-02T07:34:17.495Z</time></trkpt><trkpt lat="41.6907633" lon="13.1800283"><ele>221.0</ele><time>2026-05-02T07:34:18.495Z</time></trkpt><trkpt lat="41.6908767" lon="13.179795"><ele>220.0</ele><time>2026-05-02T07:34:19.496Z</time></trkpt><trkpt lat="41.690995" lon="13.17956"><ele>219.0</ele><time>2026-05-02T07:34:20.495Z</time></trkpt><trkpt lat="41.69111" lon="13.179325"><ele>220.0</ele><time>2026-05-02T07:34:21.495Z</time></trkpt><trkpt lat="41.6912217" lon="13.1790817"><ele>221.0</ele><time>2026-05-02T07:34:22.495Z</time></trkpt><trkpt lat="41.6913383" lon="13.1788433"><ele>222.0</ele><time>2026-05-02T07:34:23.495Z</time></trkpt><trkpt lat="41.6914583" lon="13.1786"><ele>222.0</ele><time>2026-05-02T07:34:24.495Z</time></trkpt><trkpt lat="41.6915767" lon="13.1783567"><ele>222.0</ele><time>2026-05-02T07:34:25.495Z</time></trkpt><trkpt lat="41.6916967" lon="13.1781083"><ele>222.0</ele><time>2026-05-02T07:34:26.495Z</time></trkpt><trkpt lat="41.69182" lon="13.1778633"><ele>221.66666666666669</ele><time>2026-05-02T07:34:27.495Z</time></trkpt><trkpt lat="41.6919383" lon="13.1776183"><ele>221.33333333333334</ele><time>2026-05-02T07:34:28.495Z</time></trkpt><trkpt lat="41.6920617" lon="13.1773683"><ele>221.0</ele><time>2026-05-02T07:34:29.495Z</time></trkpt><trkpt lat="41.69218" lon="13.1771183"><ele>219.0</ele><time>2026-05-02T07:34:30.495Z</time></trkpt><trkpt lat="41.6923033" lon="13.176865"><ele>217.0</ele><time>2026-05-02T07:34:31.495Z</time></trkpt><trkpt lat="41.692425" lon="13.1766117"><ele>216.0</ele><time>2026-05-02T07:34:32.495Z</time></trkpt><trkpt lat="41.6925433" lon="13.1763567"><ele>215.0</ele><time>2026-05-02T07:34:33.495Z</time></trkpt><trkpt lat="41.6926717" lon="13.1761067"><ele>216.33333333333334</ele><time>2026-05-02T07:34:34.495Z</time></trkpt><trkpt lat="41.6927933" lon="13.1758583"><ele>217.66666666666669</ele><time>2026-05-02T07:34:35.496Z</time></trkpt><trkpt lat="41.692915" lon="13.1756067"><ele>219.0</ele><time>2026-05-02T07:34:36.495Z</time></trkpt><trkpt lat="41.6930367" lon="13.175355"><ele>219.0</ele><time>2026-05-02T07:34:37.495Z</time></trkpt><trkpt lat="41.69316" lon="13.1751033"><ele>219.0</ele><time>2026-05-02T07:34:38.495Z</time></trkpt><trkpt lat="41.6932833" lon="13.1748533"><ele>219.0</ele><time>2026-05-02T07:34:39.495Z</time></trkpt><trkpt lat="41.69341" lon="13.1746"><ele>219.5</ele><time>2026-05-02T07:34:40.495Z</time></trkpt><trkpt lat="41.69353" lon="13.174345"><ele>220.0</ele><time>2026-05-02T07:34:41.495Z</time></trkpt><trkpt lat="41.69366" lon="13.1740917"><ele>216.5</ele><time>2026-05-02T07:34:42.495Z</time></trkpt><trkpt lat="41.693785" lon="13.173835"><ele>213.0</ele><time>2026-05-02T07:34:43.495Z</time></trkpt><trkpt lat="41.6939083" lon="13.1735783"><ele>213.0</ele><time>2026-05-02T07:34:44.495Z</time></trkpt><trkpt lat="41.6940333" lon="13.173325"><ele>213.0</ele><time>2026-05-02T07:34:45.496Z</time></trkpt><trkpt lat="41.6941567" lon="13.17307"><ele>212.0</ele><time>2026-05-02T07:34:46.495Z</time></trkpt><trkpt lat="41.694285" lon="13.1728167"><ele>211.0</ele><time>2026-05-02T07:34:47.495Z</time></trkpt><trkpt lat="41.6944083" lon="13.1725583"><ele>210.5</ele><time>2026-05-02T07:34:48.495Z</time></trkpt><trkpt lat="41.6945333" lon="13.1723033"><ele>210.0</ele><time>2026-05-02T07:34:49.495Z</time></trkpt><trkpt lat="41.6946567" lon="13.172055"><ele>210.0</ele><time>2026-05-02T07:34:50.495Z</time></trkpt><trkpt lat="41.6947783" lon="13.1718033"><ele>210.0</ele><time>2026-05-02T07:34:51.495Z</time></trkpt><trkpt lat="41.6949" lon="13.171555"><ele>210.0</ele><time>2026-05-02T07:34:52.495Z</time></trkpt><trkpt lat="41.6950267" lon="13.1713083"><ele>209.0</ele><time>2026-05-02T07:34:53.495Z</time></trkpt><trkpt lat="41.695145" lon="13.17106"><ele>208.0</ele><time>2026-05-02T07:34:54.495Z</time></trkpt><trkpt lat="41.6952633" lon="13.1708133"><ele>207.0</ele><time>2026-05-02T07:34:55.495Z</time></trkpt><trkpt lat="41.6953833" lon="13.1705717"><ele>207.0</ele><time>2026-05-02T07:34:56.495Z</time></trkpt><trkpt lat="41.695505" lon="13.170325"><ele>207.0</ele><time>2026-05-02T07:34:57.495Z</time></trkpt><trkpt lat="41.695625" lon="13.1700717"><ele>207.0</ele><time>2026-05-02T07:34:58.495Z</time></trkpt><trkpt lat="41.695745" lon="13.169825"><ele>207.0</ele><time>2026-05-02T07:34:59.495Z</time></trkpt><trkpt lat="41.6958633" lon="13.1695767"><ele>207.0</ele><time>2026-05-02T07:35:00.495Z</time></trkpt><trkpt lat="41.6959883" lon="13.1693267"><ele>207.0</ele><time>2026-05-02T07:35:01.495Z</time></trkpt><trkpt lat="41.6961117" lon="13.1690767"><ele>207.5</ele><time>2026-05-02T07:35:02.495Z</time></trkpt><trkpt lat="41.6962317" lon="13.1688233"><ele>208.0</ele><time>2026-05-02T07:35:03.495Z</time></trkpt><trkpt lat="41.6963567" lon="13.1685683"><ele>208.0</ele><time>2026-05-02T07:35:04.495Z</time></trkpt><trkpt lat="41.6964817" lon="13.1683217"><ele>208.0</ele><time>2026-05-02T07:35:05.495Z</time></trkpt><trkpt lat="41.6966" lon="13.168075"><ele>208.0</ele><time>2026-05-02T07:35:06.496Z</time></trkpt><trkpt lat="41.6967233" lon="13.1678333"><ele>208.0</ele><time>2026-05-02T07:35:07.495Z</time></trkpt><trkpt lat="41.6968433" lon="13.1675883"><ele>208.0</ele><time>2026-05-02T07:35:08.495Z</time></trkpt><trkpt lat="41.6969617" lon="13.16734"><ele>208.0</ele><time>2026-05-02T07:35:09.495Z</time></trkpt><trkpt lat="41.69708" lon="13.167095"><ele>208.33333333333331</ele><time>2026-05-02T07:35:10.495Z</time></trkpt><trkpt lat="41.6971967" lon="13.1668533"><ele>208.66666666666669</ele><time>2026-05-02T07:35:11.495Z</time></trkpt><trkpt lat="41.6973183" lon="13.1666067"><ele>209.0</ele><time>2026-05-02T07:35:12.495Z</time></trkpt><trkpt lat="41.69744" lon="13.1663567"><ele>209.0</ele><time>2026-05-02T07:35:13.495Z</time></trkpt><trkpt lat="41.69756" lon="13.1661117"><ele>209.0</ele><time>2026-05-02T07:35:14.495Z</time></trkpt><trkpt lat="41.69768" lon="13.165865"><ele>209.0</ele><time>2026-05-02T07:35:15.495Z</time></trkpt><trkpt lat="41.6978033" lon="13.1656167"><ele>208.0</ele><time>2026-05-02T07:35:16.496Z</time></trkpt><trkpt lat="41.6979483" lon="13.1653867"><ele>207.0</ele><time>2026-05-02T07:35:17.495Z</time></trkpt><trkpt lat="41.6980483" lon="13.16512"><ele>206.0</ele><time>2026-05-02T07:35:18.495Z</time></trkpt><trkpt lat="41.6981617" lon="13.1648683"><ele>206.33333333333334</ele><time>2026-05-02T07:35:19.495Z</time></trkpt><trkpt lat="41.6982767" lon="13.1646217"><ele>206.66666666666669</ele><time>2026-05-02T07:35:20.495Z</time></trkpt><trkpt lat="41.6983983" lon="13.1643783"><ele>207.0</ele><time>2026-05-02T07:35:21.495Z</time></trkpt><trkpt lat="41.6985183" lon="13.164135"><ele>207.66666666666669</ele><time>2026-05-02T07:35:22.495Z</time></trkpt><trkpt lat="41.6986417" lon="13.1638883"><ele>208.33333333333334</ele><time>2026-05-02T07:35:23.495Z</time></trkpt><trkpt lat="41.6987617" lon="13.163645"><ele>209.0</ele><time>2026-05-02T07:35:24.495Z</time></trkpt><trkpt lat="41.6988783" lon="13.163405"><ele>209.33333333333334</ele><time>2026-05-02T07:35:25.495Z</time></trkpt><trkpt lat="41.6989967" lon="13.163165"><ele>209.66666666666669</ele><time>2026-05-02T07:35:26.495Z</time></trkpt><trkpt lat="41.6991117" lon="13.1629233"><ele>210.0</ele><time>2026-05-02T07:35:27.495Z</time></trkpt><trkpt lat="41.6992283" lon="13.16268"><ele>210.0</ele><time>2026-05-02T07:35:28.495Z</time></trkpt><trkpt lat="41.6993417" lon="13.16244"><ele>210.0</ele><time>2026-05-02T07:35:29.495Z</time></trkpt><trkpt lat="41.69946" lon="13.1622"><ele>210.0</ele><time>2026-05-02T07:35:30.495Z</time></trkpt><trkpt lat="41.6995817" lon="13.161955"><ele>210.66666666666669</ele><time>2026-05-02T07:35:31.495Z</time></trkpt><trkpt lat="41.6997017" lon="13.1617133"><ele>211.33333333333334</ele><time>2026-05-02T07:35:32.495Z</time></trkpt><trkpt lat="41.699825" lon="13.1614733"><ele>212.0</ele><time>2026-05-02T07:35:33.495Z</time></trkpt><trkpt lat="41.6999467" lon="13.161225"><ele>212.33333333333334</ele><time>2026-05-02T07:35:34.496Z</time></trkpt><trkpt lat="41.7000667" lon="13.1609833"><ele>212.66666666666669</ele><time>2026-05-02T07:35:35.495Z</time></trkpt><trkpt lat="41.7001883" lon="13.1607383"><ele>213.0</ele><time>2026-05-02T07:35:36.495Z</time></trkpt><trkpt lat="41.7003067" lon="13.16049"><ele>213.66666666666669</ele><time>2026-05-02T07:35:37.495Z</time></trkpt><trkpt lat="41.700425" lon="13.1602417"><ele>214.33333333333334</ele><time>2026-05-02T07:35:38.495Z</time></trkpt><trkpt lat="41.7005467" lon="13.1599967"><ele>215.0</ele><time>2026-05-02T07:35:39.495Z</time></trkpt><trkpt lat="41.70067" lon="13.1597517"><ele>215.0</ele><time>2026-05-02T07:35:40.495Z</time></trkpt><trkpt lat="41.700785" lon="13.1595117"><ele>215.0</ele><time>2026-05-02T07:35:41.495Z</time></trkpt><trkpt lat="41.7009033" lon="13.1592667"><ele>215.0</ele><time>2026-05-02T07:35:42.495Z</time></trkpt><trkpt lat="41.70102" lon="13.1590267"><ele>214.33333333333334</ele><time>2026-05-02T07:35:43.495Z</time></trkpt><trkpt lat="41.7011367" lon="13.158785"><ele>213.66666666666669</ele><time>2026-05-02T07:35:44.495Z</time></trkpt><trkpt lat="41.7012567" lon="13.1585417"><ele>213.0</ele><time>2026-05-02T07:35:45.495Z</time></trkpt><trkpt lat="41.7013733" lon="13.1582983"><ele>214.0</ele><time>2026-05-02T07:35:46.495Z</time></trkpt><trkpt lat="41.7014933" lon="13.1580517"><ele>215.0</ele><time>2026-05-02T07:35:47.495Z</time></trkpt><trkpt lat="41.70161" lon="13.15781"><ele>216.0</ele><time>2026-05-02T07:35:48.495Z</time></trkpt><trkpt lat="41.7017267" lon="13.1575733"><ele>216.0</ele><time>2026-05-02T07:35:49.495Z</time></trkpt><trkpt lat="41.7018433" lon="13.157335"><ele>216.0</ele><time>2026-05-02T07:35:50.495Z</time></trkpt><trkpt lat="41.7019567" lon="13.1570967"><ele>216.0</ele><time>2026-05-02T07:35:51.495Z</time></trkpt><trkpt lat="41.7020733" lon="13.1568583"><ele>216.0</ele><time>2026-05-02T07:35:52.495Z</time></trkpt><trkpt lat="41.70219" lon="13.1566133"><ele>216.0</ele><time>2026-05-02T07:35:53.495Z</time></trkpt><trkpt lat="41.7023033" lon="13.1563733"><ele>216.0</ele><time>2026-05-02T07:35:54.495Z</time></trkpt><trkpt lat="41.70242" lon="13.1561333"><ele>216.0</ele><time>2026-05-02T07:35:55.495Z</time></trkpt><trkpt lat="41.7025383" lon="13.1558967"><ele>216.0</ele><time>2026-05-02T07:35:56.495Z</time></trkpt><trkpt lat="41.7026517" lon="13.15566"><ele>216.0</ele><time>2026-05-02T07:35:57.495Z</time></trkpt><trkpt lat="41.70277" lon="13.1554267"><ele>216.0</ele><time>2026-05-02T07:35:58.495Z</time></trkpt><trkpt lat="41.7028867" lon="13.15519"><ele>216.0</ele><time>2026-05-02T07:35:59.495Z</time></trkpt><trkpt lat="41.7030067" lon="13.1549433"><ele>216.0</ele><time>2026-05-02T07:36:00.495Z</time></trkpt><trkpt lat="41.7031267" lon="13.1547017"><ele>216.0</ele><time>2026-05-02T07:36:01.495Z</time></trkpt><trkpt lat="41.7032467" lon="13.1544567"><ele>216.0</ele><time>2026-05-02T07:36:02.495Z</time></trkpt><trkpt lat="41.7033633" lon="13.154215"><ele>216.0</ele><time>2026-05-02T07:36:03.495Z</time></trkpt><trkpt lat="41.70348" lon="13.1539717"><ele>216.66666666666669</ele><time>2026-05-02T07:36:04.495Z</time></trkpt><trkpt lat="41.7035983" lon="13.153725"><ele>217.33333333333334</ele><time>2026-05-02T07:36:05.495Z</time></trkpt><trkpt lat="41.7037183" lon="13.1534817"><ele>218.0</ele><time>2026-05-02T07:36:06.495Z</time></trkpt><trkpt lat="41.7038367" lon="13.1532367"><ele>217.0</ele><time>2026-05-02T07:36:07.495Z</time></trkpt><trkpt lat="41.7039567" lon="13.15299"><ele>216.0</ele><time>2026-05-02T07:36:08.495Z</time></trkpt><trkpt lat="41.7040833" lon="13.152745"><ele>215.0</ele><time>2026-05-02T07:36:09.495Z</time></trkpt><trkpt lat="41.7042" lon="13.1524967"><ele>214.66666666666669</ele><time>2026-05-02T07:36:10.495Z</time></trkpt><trkpt lat="41.7043217" lon="13.15225"><ele>214.33333333333331</ele><time>2026-05-02T07:36:11.495Z</time></trkpt><trkpt lat="41.7044417" lon="13.152"><ele>214.0</ele><time>2026-05-02T07:36:12.495Z</time></trkpt><trkpt lat="41.7045633" lon="13.1517533"><ele>215.33333333333331</ele><time>2026-05-02T07:36:13.495Z</time></trkpt><trkpt lat="41.704685" lon="13.1515067"><ele>216.66666666666669</ele><time>2026-05-02T07:36:14.495Z</time></trkpt><trkpt lat="41.7048033" lon="13.15126"><ele>218.0</ele><time>2026-05-02T07:36:15.495Z</time></trkpt><trkpt lat="41.7049267" lon="13.151015"><ele>218.0</ele><time>2026-05-02T07:36:16.496Z</time></trkpt><trkpt lat="41.7050433" lon="13.1507667"><ele>218.0</ele><time>2026-05-02T07:36:17.495Z</time></trkpt><trkpt lat="41.7051583" lon="13.1505217"><ele>218.0</ele><time>2026-05-02T07:36:18.495Z</time></trkpt><trkpt lat="41.7052767" lon="13.150275"><ele>218.0</ele><time>2026-05-02T07:36:19.495Z</time></trkpt><trkpt lat="41.705395" lon="13.1500367"><ele>218.0</ele><time>2026-05-02T07:36:20.495Z</time></trkpt><trkpt lat="41.7055133" lon="13.1497967"><ele>218.0</ele><time>2026-05-02T07:36:21.495Z</time></trkpt><trkpt lat="41.7056333" lon="13.1495567"><ele>217.33333333333334</ele><time>2026-05-02T07:36:22.495Z</time></trkpt><trkpt lat="41.7057517" lon="13.149315"><ele>216.66666666666669</ele><time>2026-05-02T07:36:23.495Z</time></trkpt><trkpt lat="41.7058717" lon="13.14907"><ele>216.0</ele><time>2026-05-02T07:36:24.495Z</time></trkpt><trkpt lat="41.7059883" lon="13.1488233"><ele>216.33333333333331</ele><time>2026-05-02T07:36:25.495Z</time></trkpt><trkpt lat="41.70611" lon="13.1485833"><ele>216.66666666666666</ele><time>2026-05-02T07:36:26.495Z</time></trkpt><trkpt lat="41.706235" lon="13.1483333"><ele>217.0</ele><time>2026-05-02T07:36:27.495Z</time></trkpt><trkpt lat="41.70636" lon="13.1480867"><ele>217.0</ele><time>2026-05-02T07:36:28.495Z</time></trkpt><trkpt lat="41.7064833" lon="13.147835"><ele>217.0</ele><time>2026-05-02T07:36:29.495Z</time></trkpt><trkpt lat="41.7066017" lon="13.1475867"><ele>217.0</ele><time>2026-05-02T07:36:30.495Z</time></trkpt><trkpt lat="41.7067217" lon="13.1473333"><ele>217.66666666666666</ele><time>2026-05-02T07:36:31.495Z</time></trkpt><trkpt lat="41.706845" lon="13.14708"><ele>218.33333333333331</ele><time>2026-05-02T07:36:32.495Z</time></trkpt><trkpt lat="41.706965" lon="13.146835"><ele>219.0</ele><time>2026-05-02T07:36:33.495Z</time></trkpt><trkpt lat="41.7070883" lon="13.1465867"><ele>219.33333333333331</ele><time>2026-05-02T07:36:34.495Z</time></trkpt><trkpt lat="41.70721" lon="13.146345"><ele>219.66666666666666</ele><time>2026-05-02T07:36:35.495Z</time></trkpt><trkpt lat="41.70733" lon="13.1461"><ele>220.0</ele><time>2026-05-02T07:36:36.495Z</time></trkpt><trkpt lat="41.70745" lon="13.1458583"><ele>220.0</ele><time>2026-05-02T07:36:37.495Z</time></trkpt><trkpt lat="41.7075683" lon="13.14561"><ele>220.0</ele><time>2026-05-02T07:36:38.495Z</time></trkpt><trkpt lat="41.7076867" lon="13.1453617"><ele>220.0</ele><time>2026-05-02T07:36:39.495Z</time></trkpt><trkpt lat="41.707805" lon="13.1451133"><ele>221.0</ele><time>2026-05-02T07:36:40.495Z</time></trkpt><trkpt lat="41.7079267" lon="13.1448667"><ele>222.0</ele><time>2026-05-02T07:36:41.495Z</time></trkpt><trkpt lat="41.7080467" lon="13.144615"><ele>223.0</ele><time>2026-05-02T07:36:42.496Z</time></trkpt><trkpt lat="41.7081667" lon="13.1443667"><ele>223.0</ele><time>2026-05-02T07:36:43.495Z</time></trkpt><trkpt lat="41.708285" lon="13.1441217"><ele>223.0</ele><time>2026-05-02T07:36:44.495Z</time></trkpt><trkpt lat="41.708405" lon="13.1438783"><ele>223.0</ele><time>2026-05-02T07:36:45.495Z</time></trkpt><trkpt lat="41.7085267" lon="13.14363"><ele>223.33333333333331</ele><time>2026-05-02T07:36:46.495Z</time></trkpt><trkpt lat="41.7086467" lon="13.1433833"><ele>223.66666666666669</ele><time>2026-05-02T07:36:47.495Z</time></trkpt><trkpt lat="41.7087667" lon="13.1431417"><ele>224.0</ele><time>2026-05-02T07:36:48.495Z</time></trkpt><trkpt lat="41.7088867" lon="13.1429"><ele>223.33333333333334</ele><time>2026-05-02T07:36:49.495Z</time></trkpt><trkpt lat="41.7090067" lon="13.1426567"><ele>222.66666666666669</ele><time>2026-05-02T07:36:50.495Z</time></trkpt><trkpt lat="41.7091283" lon="13.1424117"><ele>222.0</ele><time>2026-05-02T07:36:51.495Z</time></trkpt><trkpt lat="41.7092467" lon="13.1421683"><ele>222.0</ele><time>2026-05-02T07:36:52.495Z</time></trkpt><trkpt lat="41.7093633" lon="13.1419183"><ele>222.0</ele><time>2026-05-02T07:36:53.495Z</time></trkpt><trkpt lat="41.70948" lon="13.14167"><ele>222.0</ele><time>2026-05-02T07:36:54.495Z</time></trkpt><trkpt lat="41.7095983" lon="13.1414167"><ele>222.33333333333331</ele><time>2026-05-02T07:36:55.495Z</time></trkpt><trkpt lat="41.7097183" lon="13.1411667"><ele>222.66666666666666</ele><time>2026-05-02T07:36:56.496Z</time></trkpt><trkpt lat="41.7098433" lon="13.14092"><ele>223.0</ele><time>2026-05-02T07:36:57.495Z</time></trkpt><trkpt lat="41.70997" lon="13.1406767"><ele>223.0</ele><time>2026-05-02T07:36:58.495Z</time></trkpt><trkpt lat="41.7100933" lon="13.1404333"><ele>223.0</ele><time>2026-05-02T07:36:59.495Z</time></trkpt><trkpt lat="41.7102167" lon="13.14019"><ele>223.0</ele><time>2026-05-02T07:37:00.495Z</time></trkpt><trkpt lat="41.7103367" lon="13.13994"><ele>222.33333333333331</ele><time>2026-05-02T07:37:01.495Z</time></trkpt><trkpt lat="41.7104567" lon="13.1396933"><ele>221.66666666666669</ele><time>2026-05-02T07:37:02.495Z</time></trkpt><trkpt lat="41.7105767" lon="13.1394433"><ele>221.0</ele><time>2026-05-02T07:37:03.495Z</time></trkpt><trkpt lat="41.710695" lon="13.139195"><ele>220.66666666666669</ele><time>2026-05-02T07:37:04.496Z</time></trkpt><trkpt lat="41.710815" lon="13.13895"><ele>220.33333333333331</ele><time>2026-05-02T07:37:05.496Z</time></trkpt><trkpt lat="41.7109417" lon="13.1387033"><ele>220.0</ele><time>2026-05-02T07:37:06.496Z</time></trkpt><trkpt lat="41.711065" lon="13.1384517"><ele>220.0</ele><time>2026-05-02T07:37:07.496Z</time></trkpt><trkpt lat="41.7111833" lon="13.1382033"><ele>220.0</ele><time>2026-05-02T07:37:08.496Z</time></trkpt><trkpt lat="41.711305" lon="13.1379567"><ele>220.0</ele><time>2026-05-02T07:37:09.496Z</time></trkpt><trkpt lat="41.7114217" lon="13.1377"><ele>220.0</ele><time>2026-05-02T07:37:10.496Z</time></trkpt><trkpt lat="41.7115417" lon="13.13745"><ele>220.0</ele><time>2026-05-02T07:37:11.496Z</time></trkpt><trkpt lat="41.7116617" lon="13.1372067"><ele>220.0</ele><time>2026-05-02T07:37:12.496Z</time></trkpt><trkpt lat="41.7117867" lon="13.13696"><ele>220.0</ele><time>2026-05-02T07:37:13.497Z</time></trkpt><trkpt lat="41.711905" lon="13.136715"><ele>220.0</ele><time>2026-05-02T07:37:14.496Z</time></trkpt><trkpt lat="41.712025" lon="13.1364683"><ele>220.0</ele><time>2026-05-02T07:37:15.496Z</time></trkpt><trkpt lat="41.7121467" lon="13.13622"><ele>220.0</ele><time>2026-05-02T07:37:16.496Z</time></trkpt><trkpt lat="41.7122667" lon="13.1359683"><ele>220.0</ele><time>2026-05-02T07:37:17.496Z</time></trkpt><trkpt lat="41.7123883" lon="13.1357183"><ele>220.0</ele><time>2026-05-02T07:37:18.496Z</time></trkpt><trkpt lat="41.712505" lon="13.1354717"><ele>220.0</ele><time>2026-05-02T07:37:19.497Z</time></trkpt><trkpt lat="41.712625" lon="13.1352217"><ele>220.0</ele><time>2026-05-02T07:37:20.496Z</time></trkpt><trkpt lat="41.7127483" lon="13.13497"><ele>220.0</ele><time>2026-05-02T07:37:21.496Z</time></trkpt><trkpt lat="41.7128683" lon="13.13472"><ele>218.66666666666666</ele><time>2026-05-02T07:37:22.496Z</time></trkpt><trkpt lat="41.7129917" lon="13.13447"><ele>217.33333333333331</ele><time>2026-05-02T07:37:23.496Z</time></trkpt><trkpt lat="41.7131117" lon="13.134225"><ele>216.0</ele><time>2026-05-02T07:37:24.497Z</time></trkpt><trkpt lat="41.7132317" lon="13.1339733"><ele>215.66666666666669</ele><time>2026-05-02T07:37:25.496Z</time></trkpt><trkpt lat="41.7133583" lon="13.13373"><ele>215.33333333333334</ele><time>2026-05-02T07:37:26.496Z</time></trkpt><trkpt lat="41.713475" lon="13.13348"><ele>215.0</ele><time>2026-05-02T07:37:27.496Z</time></trkpt><trkpt lat="41.713595" lon="13.133235"><ele>214.66666666666669</ele><time>2026-05-02T07:37:28.497Z</time></trkpt><trkpt lat="41.7137167" lon="13.132985"><ele>214.33333333333331</ele><time>2026-05-02T07:37:29.496Z</time></trkpt><trkpt lat="41.7138367" lon="13.132735"><ele>214.0</ele><time>2026-05-02T07:37:30.497Z</time></trkpt><trkpt lat="41.7139633" lon="13.132485"><ele>214.0</ele><time>2026-05-02T07:37:31.496Z</time></trkpt><trkpt lat="41.7140883" lon="13.1322317"><ele>214.0</ele><time>2026-05-02T07:37:32.497Z</time></trkpt><trkpt lat="41.7142133" lon="13.1319783"><ele>214.0</ele><time>2026-05-02T07:37:33.496Z</time></trkpt><trkpt lat="41.71434" lon="13.1317267"><ele>214.0</ele><time>2026-05-02T07:37:34.496Z</time></trkpt><trkpt lat="41.71446" lon="13.1314717"><ele>212.5</ele><time>2026-05-02T07:37:35.496Z</time></trkpt><trkpt lat="41.7145833" lon="13.1312167"><ele>211.0</ele><time>2026-05-02T07:37:36.496Z</time></trkpt><trkpt lat="41.71471" lon="13.13096"><ele>210.5</ele><time>2026-05-02T07:37:37.496Z</time></trkpt><trkpt lat="41.7148317" lon="13.1307"><ele>210.0</ele><time>2026-05-02T07:37:38.496Z</time></trkpt><trkpt lat="41.7149583" lon="13.1304433"><ele>210.0</ele><time>2026-05-02T07:37:39.496Z</time></trkpt><trkpt lat="41.7150817" lon="13.1301867"><ele>210.0</ele><time>2026-05-02T07:37:40.496Z</time></trkpt><trkpt lat="41.7152117" lon="13.1299333"><ele>209.0</ele><time>2026-05-02T07:37:41.496Z</time></trkpt><trkpt lat="41.715335" lon="13.1296783"><ele>208.0</ele><time>2026-05-02T07:37:42.496Z</time></trkpt><trkpt lat="41.7154567" lon="13.1294283"><ele>208.0</ele><time>2026-05-02T07:37:43.496Z</time></trkpt><trkpt lat="41.7155783" lon="13.12918"><ele>208.0</ele><time>2026-05-02T07:37:44.496Z</time></trkpt><trkpt lat="41.7157033" lon="13.128935"><ele>208.0</ele><time>2026-05-02T07:37:45.496Z</time></trkpt><trkpt lat="41.715825" lon="13.1286967"><ele>208.0</ele><time>2026-05-02T07:37:46.496Z</time></trkpt><trkpt lat="41.7159433" lon="13.1284517"><ele>208.0</ele><time>2026-05-02T07:37:47.496Z</time></trkpt><trkpt lat="41.7160667" lon="13.1282017"><ele>208.0</ele><time>2026-05-02T07:37:48.496Z</time></trkpt><trkpt lat="41.71618" lon="13.1279517"><ele>208.0</ele><time>2026-05-02T07:37:49.496Z</time></trkpt><trkpt lat="41.7163" lon="13.1277067"><ele>208.0</ele><time>2026-05-02T07:37:50.496Z</time></trkpt><trkpt lat="41.716425" lon="13.1274567"><ele>208.0</ele><time>2026-05-02T07:37:51.496Z</time></trkpt><trkpt lat="41.7165483" lon="13.1272133"><ele>208.0</ele><time>2026-05-02T07:37:52.497Z</time></trkpt><trkpt lat="41.71667" lon="13.1269633"><ele>208.0</ele><time>2026-05-02T07:37:53.496Z</time></trkpt><trkpt lat="41.71679" lon="13.12671"><ele>208.0</ele><time>2026-05-02T07:37:54.497Z</time></trkpt><trkpt lat="41.7169133" lon="13.1264617"><ele>207.0</ele><time>2026-05-02T07:37:55.496Z</time></trkpt><trkpt lat="41.717035" lon="13.1262083"><ele>206.0</ele><time>2026-05-02T07:37:56.496Z</time></trkpt><trkpt lat="41.7171633" lon="13.1259583"><ele>206.0</ele><time>2026-05-02T07:37:57.496Z</time></trkpt><trkpt lat="41.71729" lon="13.125705"><ele>206.0</ele><time>2026-05-02T07:37:58.496Z</time></trkpt><trkpt lat="41.7174117" lon="13.125445"><ele>206.0</ele><time>2026-05-02T07:37:59.497Z</time></trkpt><trkpt lat="41.7175367" lon="13.1251933"><ele>206.0</ele><time>2026-05-02T07:38:00.496Z</time></trkpt><trkpt lat="41.7176567" lon="13.1249417"><ele>206.0</ele><time>2026-05-02T07:38:01.496Z</time></trkpt><trkpt lat="41.717775" lon="13.124685"><ele>207.66666666666669</ele><time>2026-05-02T07:38:02.496Z</time></trkpt><trkpt lat="41.7178983" lon="13.1244317"><ele>209.33333333333331</ele><time>2026-05-02T07:38:03.496Z</time></trkpt><trkpt lat="41.7180233" lon="13.124185"><ele>211.0</ele><time>2026-05-02T07:38:04.496Z</time></trkpt><trkpt lat="41.7181483" lon="13.12393"><ele>211.0</ele><time>2026-05-02T07:38:05.496Z</time></trkpt><trkpt lat="41.71827" lon="13.12368"><ele>211.0</ele><time>2026-05-02T07:38:06.496Z</time></trkpt><trkpt lat="41.71839" lon="13.123435"><ele>211.0</ele><time>2026-05-02T07:38:07.496Z</time></trkpt><trkpt lat="41.71851" lon="13.123185"><ele>213.0</ele><time>2026-05-02T07:38:08.496Z</time></trkpt><trkpt lat="41.7186383" lon="13.1229367"><ele>215.0</ele><time>2026-05-02T07:38:09.496Z</time></trkpt><trkpt lat="41.71876" lon="13.1226883"><ele>217.0</ele><time>2026-05-02T07:38:10.496Z</time></trkpt><trkpt lat="41.71888" lon="13.1224417"><ele>215.66666666666666</ele><time>2026-05-02T07:38:11.496Z</time></trkpt><trkpt lat="41.7189967" lon="13.1221983"><ele>214.33333333333331</ele><time>2026-05-02T07:38:12.496Z</time></trkpt><trkpt lat="41.7191117" lon="13.1219517"><ele>213.0</ele><time>2026-05-02T07:38:13.496Z</time></trkpt><trkpt lat="41.7192367" lon="13.1217167"><ele>213.33333333333331</ele><time>2026-05-02T07:38:14.496Z</time></trkpt><trkpt lat="41.7193583" lon="13.12147"><ele>213.66666666666666</ele><time>2026-05-02T07:38:15.496Z</time></trkpt><trkpt lat="41.7194733" lon="13.1212267"><ele>214.0</ele><time>2026-05-02T07:38:16.496Z</time></trkpt><trkpt lat="41.7195933" lon="13.1209817"><ele>214.0</ele><time>2026-05-02T07:38:17.496Z</time></trkpt><trkpt lat="41.7197417" lon="13.1207567"><ele>214.0</ele><time>2026-05-02T07:38:18.497Z</time></trkpt><trkpt lat="41.7198433" lon="13.1205017"><ele>214.0</ele><time>2026-05-02T07:38:19.496Z</time></trkpt><trkpt lat="41.7199683" lon="13.1202683"><ele>214.0</ele><time>2026-05-02T07:38:20.496Z</time></trkpt><trkpt lat="41.7200683" lon="13.120005"><ele>214.0</ele><time>2026-05-02T07:38:21.496Z</time></trkpt><trkpt lat="41.72018" lon="13.11975"><ele>214.0</ele><time>2026-05-02T07:38:22.496Z</time></trkpt><trkpt lat="41.7203" lon="13.11951"><ele>214.0</ele><time>2026-05-02T07:38:23.496Z</time></trkpt><trkpt lat="41.720425" lon="13.11926"><ele>214.0</ele><time>2026-05-02T07:38:24.496Z</time></trkpt><trkpt lat="41.7205483" lon="13.119015"><ele>214.0</ele><time>2026-05-02T07:38:25.496Z</time></trkpt><trkpt lat="41.720675" lon="13.1187667"><ele>212.66666666666666</ele><time>2026-05-02T07:38:26.496Z</time></trkpt><trkpt lat="41.7208" lon="13.118515"><ele>211.33333333333331</ele><time>2026-05-02T07:38:27.496Z</time></trkpt><trkpt lat="41.7209167" lon="13.1182683"><ele>210.0</ele><time>2026-05-02T07:38:28.496Z</time></trkpt><trkpt lat="41.721035" lon="13.118015"><ele>210.0</ele><time>2026-05-02T07:38:29.496Z</time></trkpt><trkpt lat="41.7211533" lon="13.117755"><ele>210.0</ele><time>2026-05-02T07:38:30.496Z</time></trkpt><trkpt lat="41.72128" lon="13.1174967"><ele>209.0</ele><time>2026-05-02T07:38:31.496Z</time></trkpt><trkpt lat="41.7214" lon="13.1172383"><ele>208.0</ele><time>2026-05-02T07:38:32.496Z</time></trkpt><trkpt lat="41.721525" lon="13.116985"><ele>208.0</ele><time>2026-05-02T07:38:33.496Z</time></trkpt><trkpt lat="41.721645" lon="13.1167283"><ele>208.0</ele><time>2026-05-02T07:38:34.496Z</time></trkpt><trkpt lat="41.7217667" lon="13.1164717"><ele>208.0</ele><time>2026-05-02T07:38:35.496Z</time></trkpt><trkpt lat="41.7218867" lon="13.11621"><ele>208.0</ele><time>2026-05-02T07:38:36.496Z</time></trkpt><trkpt lat="41.7220167" lon="13.1159533"><ele>208.0</ele><time>2026-05-02T07:38:37.496Z</time></trkpt><trkpt lat="41.72214" lon="13.1157033"><ele>208.0</ele><time>2026-05-02T07:38:38.496Z</time></trkpt><trkpt lat="41.7222667" lon="13.1154483"><ele>208.0</ele><time>2026-05-02T07:38:39.496Z</time></trkpt><trkpt lat="41.72239" lon="13.1152033"><ele>208.0</ele><time>2026-05-02T07:38:40.496Z</time></trkpt><trkpt lat="41.7225133" lon="13.11495"><ele>208.0</ele><time>2026-05-02T07:38:41.496Z</time></trkpt><trkpt lat="41.7226383" lon="13.1147017"><ele>208.0</ele><time>2026-05-02T07:38:42.496Z</time></trkpt><trkpt lat="41.72276" lon="13.1144567"><ele>208.0</ele><time>2026-05-02T07:38:43.496Z</time></trkpt><trkpt lat="41.7228817" lon="13.1142083"><ele>208.0</ele><time>2026-05-02T07:38:44.496Z</time></trkpt><trkpt lat="41.7230117" lon="13.1139583"><ele>208.0</ele><time>2026-05-02T07:38:45.496Z</time></trkpt><trkpt lat="41.7231267" lon="13.11371"><ele>208.0</ele><time>2026-05-02T07:38:46.496Z</time></trkpt><trkpt lat="41.7232467" lon="13.1134617"><ele>208.0</ele><time>2026-05-02T07:38:47.496Z</time></trkpt><trkpt lat="41.7233667" lon="13.1132167"><ele>208.33333333333331</ele><time>2026-05-02T07:38:48.497Z</time></trkpt><trkpt lat="41.7234883" lon="13.1129633"><ele>208.66666666666669</ele><time>2026-05-02T07:38:49.496Z</time></trkpt><trkpt lat="41.723605" lon="13.1127117"><ele>209.0</ele><time>2026-05-02T07:38:50.497Z</time></trkpt><trkpt lat="41.7237217" lon="13.1124733"><ele>210.66666666666669</ele><time>2026-05-02T07:38:51.496Z</time></trkpt><trkpt lat="41.72384" lon="13.1122333"><ele>212.33333333333331</ele><time>2026-05-02T07:38:52.496Z</time></trkpt><trkpt lat="41.723955" lon="13.1119933"><ele>214.0</ele><time>2026-05-02T07:38:53.497Z</time></trkpt><trkpt lat="41.724075" lon="13.111745"><ele>215.0</ele><time>2026-05-02T07:38:54.496Z</time></trkpt><trkpt lat="41.7241967" lon="13.1115017"><ele>216.0</ele><time>2026-05-02T07:38:55.496Z</time></trkpt><trkpt lat="41.7243133" lon="13.1112583"><ele>217.0</ele><time>2026-05-02T07:38:56.496Z</time></trkpt><trkpt lat="41.7244333" lon="13.111015"><ele>217.66666666666666</ele><time>2026-05-02T07:38:57.496Z</time></trkpt><trkpt lat="41.7245483" lon="13.1107683"><ele>218.33333333333331</ele><time>2026-05-02T07:38:58.496Z</time></trkpt><trkpt lat="41.72467" lon="13.1105267"><ele>219.0</ele><time>2026-05-02T07:38:59.497Z</time></trkpt><trkpt lat="41.7247917" lon="13.110275"><ele>219.0</ele><time>2026-05-02T07:39:00.496Z</time></trkpt><trkpt lat="41.7249067" lon="13.1100317"><ele>219.0</ele><time>2026-05-02T07:39:01.496Z</time></trkpt><trkpt lat="41.7250267" lon="13.10979"><ele>219.0</ele><time>2026-05-02T07:39:02.496Z</time></trkpt><trkpt lat="41.7251467" lon="13.1095483"><ele>219.66666666666669</ele><time>2026-05-02T07:39:03.496Z</time></trkpt><trkpt lat="41.725265" lon="13.1093117"><ele>220.33333333333334</ele><time>2026-05-02T07:39:04.496Z</time></trkpt><trkpt lat="41.7253817" lon="13.1090717"><ele>221.0</ele><time>2026-05-02T07:39:05.496Z</time></trkpt><trkpt lat="41.7255033" lon="13.10883"><ele>221.0</ele><time>2026-05-02T07:39:06.497Z</time></trkpt><trkpt lat="41.72562" lon="13.10859"><ele>221.0</ele><time>2026-05-02T07:39:07.496Z</time></trkpt><trkpt lat="41.7257417" lon="13.108345"><ele>221.0</ele><time>2026-05-02T07:39:08.496Z</time></trkpt><trkpt lat="41.72586" lon="13.108095"><ele>220.33333333333334</ele><time>2026-05-02T07:39:09.496Z</time></trkpt><trkpt lat="41.72598" lon="13.1078483"><ele>219.66666666666669</ele><time>2026-05-02T07:39:10.496Z</time></trkpt><trkpt lat="41.7261" lon="13.1076067"><ele>219.0</ele><time>2026-05-02T07:39:11.497Z</time></trkpt><trkpt lat="41.7262233" lon="13.10736"><ele>221.33333333333331</ele><time>2026-05-02T07:39:12.496Z</time></trkpt><trkpt lat="41.7263417" lon="13.107115"><ele>223.66666666666666</ele><time>2026-05-02T07:39:13.496Z</time></trkpt><trkpt lat="41.7264617" lon="13.1068683"><ele>226.0</ele><time>2026-05-02T07:39:14.496Z</time></trkpt><trkpt lat="41.7265833" lon="13.1066233"><ele>226.33333333333331</ele><time>2026-05-02T07:39:15.496Z</time></trkpt><trkpt lat="41.7267017" lon="13.10638"><ele>226.66666666666669</ele><time>2026-05-02T07:39:16.496Z</time></trkpt><trkpt lat="41.7268183" lon="13.1061383"><ele>227.0</ele><time>2026-05-02T07:39:17.496Z</time></trkpt><trkpt lat="41.7269333" lon="13.10589"><ele>227.66666666666669</ele><time>2026-05-02T07:39:18.496Z</time></trkpt><trkpt lat="41.7270517" lon="13.10565"><ele>228.33333333333331</ele><time>2026-05-02T07:39:19.496Z</time></trkpt><trkpt lat="41.72717" lon="13.105405"><ele>229.0</ele><time>2026-05-02T07:39:20.496Z</time></trkpt><trkpt lat="41.7272867" lon="13.10516"><ele>229.0</ele><time>2026-05-02T07:39:21.496Z</time></trkpt><trkpt lat="41.72741" lon="13.1049167"><ele>229.0</ele><time>2026-05-02T07:39:22.496Z</time></trkpt><trkpt lat="41.7275283" lon="13.1046717"><ele>229.0</ele><time>2026-05-02T07:39:23.496Z</time></trkpt><trkpt lat="41.7276533" lon="13.1044267"><ele>229.33333333333331</ele><time>2026-05-02T07:39:24.496Z</time></trkpt><trkpt lat="41.7277717" lon="13.1041833"><ele>229.66666666666669</ele><time>2026-05-02T07:39:25.496Z</time></trkpt><trkpt lat="41.7278917" lon="13.10393"><ele>230.0</ele><time>2026-05-02T07:39:26.497Z</time></trkpt><trkpt lat="41.728015" lon="13.10368"><ele>227.33333333333334</ele><time>2026-05-02T07:39:27.496Z</time></trkpt><trkpt lat="41.728135" lon="13.103435"><ele>224.66666666666669</ele><time>2026-05-02T07:39:28.496Z</time></trkpt><trkpt lat="41.7282567" lon="13.103175"><ele>222.0</ele><time>2026-05-02T07:39:29.496Z</time></trkpt><trkpt lat="41.72838" lon="13.1029183"><ele>220.5</ele><time>2026-05-02T07:39:30.497Z</time></trkpt><trkpt lat="41.7285083" lon="13.1026633"><ele>219.0</ele><time>2026-05-02T07:39:31.496Z</time></trkpt><trkpt lat="41.7286333" lon="13.102405"><ele>219.0</ele><time>2026-05-02T07:39:32.496Z</time></trkpt><trkpt lat="41.728755" lon="13.102145"><ele>219.0</ele><time>2026-05-02T07:39:33.496Z</time></trkpt><trkpt lat="41.7288817" lon="13.1018867"><ele>219.0</ele><time>2026-05-02T07:39:34.496Z</time></trkpt><trkpt lat="41.7290117" lon="13.1016283"><ele>219.0</ele><time>2026-05-02T07:39:35.496Z</time></trkpt><trkpt lat="41.729145" lon="13.1013733"><ele>216.5</ele><time>2026-05-02T07:39:36.496Z</time></trkpt><trkpt lat="41.7292683" lon="13.10111"><ele>214.0</ele><time>2026-05-02T07:39:37.496Z</time></trkpt><trkpt lat="41.7293917" lon="13.1008533"><ele>215.5</ele><time>2026-05-02T07:39:38.496Z</time></trkpt><trkpt lat="41.7295167" lon="13.1005967"><ele>217.0</ele><time>2026-05-02T07:39:39.496Z</time></trkpt><trkpt lat="41.729645" lon="13.100335"><ele>217.0</ele><time>2026-05-02T07:39:40.496Z</time></trkpt><trkpt lat="41.7297683" lon="13.1000783"><ele>217.0</ele><time>2026-05-02T07:39:41.496Z</time></trkpt><trkpt lat="41.729895" lon="13.0998217"><ele>218.5</ele><time>2026-05-02T07:39:42.496Z</time></trkpt><trkpt lat="41.7300167" lon="13.0995633"><ele>220.0</ele><time>2026-05-02T07:39:43.496Z</time></trkpt><trkpt lat="41.7301367" lon="13.09931"><ele>217.5</ele><time>2026-05-02T07:39:44.496Z</time></trkpt><trkpt lat="41.73026" lon="13.0990567"><ele>215.0</ele><time>2026-05-02T07:39:45.496Z</time></trkpt><trkpt lat="41.7303817" lon="13.0988033"><ele>215.0</ele><time>2026-05-02T07:39:46.496Z</time></trkpt><trkpt lat="41.7305083" lon="13.098555"><ele>215.0</ele><time>2026-05-02T07:39:47.496Z</time></trkpt><trkpt lat="41.730625" lon="13.0983"><ele>215.0</ele><time>2026-05-02T07:39:48.496Z</time></trkpt><trkpt lat="41.730745" lon="13.0980483"><ele>215.0</ele><time>2026-05-02T07:39:49.496Z</time></trkpt><trkpt lat="41.7308683" lon="13.0977967"><ele>215.0</ele><time>2026-05-02T07:39:50.496Z</time></trkpt><trkpt lat="41.7309933" lon="13.0975433"><ele>219.5</ele><time>2026-05-02T07:39:51.496Z</time></trkpt><trkpt lat="41.731115" lon="13.0972917"><ele>224.0</ele><time>2026-05-02T07:39:52.496Z</time></trkpt><trkpt lat="41.7312433" lon="13.0970367"><ele>224.0</ele><time>2026-05-02T07:39:53.496Z</time></trkpt><trkpt lat="41.7313683" lon="13.09679"><ele>224.0</ele><time>2026-05-02T07:39:54.496Z</time></trkpt><trkpt lat="41.7314883" lon="13.0965483"><ele>224.0</ele><time>2026-05-02T07:39:55.496Z</time></trkpt><trkpt lat="41.7316033" lon="13.096315"><ele>224.0</ele><time>2026-05-02T07:39:56.496Z</time></trkpt><trkpt lat="41.7317183" lon="13.096085"><ele>224.0</ele><time>2026-05-02T07:39:57.496Z</time></trkpt><trkpt lat="41.7318333" lon="13.0958483"><ele>224.0</ele><time>2026-05-02T07:39:58.496Z</time></trkpt><trkpt lat="41.7319433" lon="13.0956217"><ele>224.0</ele><time>2026-05-02T07:39:59.496Z</time></trkpt><trkpt lat="41.73205" lon="13.0953883"><ele>224.0</ele><time>2026-05-02T07:40:00.496Z</time></trkpt><trkpt lat="41.7321667" lon="13.0951583"><ele>224.0</ele><time>2026-05-02T07:40:01.496Z</time></trkpt><trkpt lat="41.7322783" lon="13.0949317"><ele>223.66666666666669</ele><time>2026-05-02T07:40:02.496Z</time></trkpt><trkpt lat="41.7323933" lon="13.094705"><ele>223.33333333333331</ele><time>2026-05-02T07:40:03.496Z</time></trkpt><trkpt lat="41.7325033" lon="13.0944833"><ele>223.0</ele><time>2026-05-02T07:40:04.496Z</time></trkpt><trkpt lat="41.7326133" lon="13.0942567"><ele>223.0</ele><time>2026-05-02T07:40:05.496Z</time></trkpt><trkpt lat="41.73272" lon="13.09403"><ele>223.0</ele><time>2026-05-02T07:40:06.496Z</time></trkpt><trkpt lat="41.73283" lon="13.0938033"><ele>223.0</ele><time>2026-05-02T07:40:07.497Z</time></trkpt><trkpt lat="41.73294" lon="13.0935767"><ele>222.33333333333331</ele><time>2026-05-02T07:40:08.496Z</time></trkpt><trkpt lat="41.733055" lon="13.09335"><ele>221.66666666666669</ele><time>2026-05-02T07:40:09.496Z</time></trkpt><trkpt lat="41.73316" lon="13.0931167"><ele>221.0</ele><time>2026-05-02T07:40:10.496Z</time></trkpt><trkpt lat="41.7332683" lon="13.0928883"><ele>220.0</ele><time>2026-05-02T07:40:11.496Z</time></trkpt><trkpt lat="41.7333783" lon="13.0926583"><ele>219.0</ele><time>2026-05-02T07:40:12.496Z</time></trkpt><trkpt lat="41.7334917" lon="13.0924267"><ele>218.0</ele><time>2026-05-02T07:40:13.496Z</time></trkpt><trkpt lat="41.7336067" lon="13.09219"><ele>213.0</ele><time>2026-05-02T07:40:14.496Z</time></trkpt><trkpt lat="41.733725" lon="13.0919567"><ele>208.0</ele><time>2026-05-02T07:40:15.496Z</time></trkpt><trkpt lat="41.7338417" lon="13.0917167"><ele>203.0</ele><time>2026-05-02T07:40:16.496Z</time></trkpt><trkpt lat="41.7339567" lon="13.0914767"><ele>203.0</ele><time>2026-05-02T07:40:17.496Z</time></trkpt><trkpt lat="41.7340783" lon="13.0912383"><ele>203.0</ele><time>2026-05-02T07:40:18.496Z</time></trkpt><trkpt lat="41.7341967" lon="13.0909983"><ele>203.0</ele><time>2026-05-02T07:40:19.496Z</time></trkpt><trkpt lat="41.734315" lon="13.0907567"><ele>200.66666666666669</ele><time>2026-05-02T07:40:20.496Z</time></trkpt><trkpt lat="41.73443" lon="13.0905117"><ele>198.33333333333331</ele><time>2026-05-02T07:40:21.496Z</time></trkpt><trkpt lat="41.7345517" lon="13.090265"><ele>196.0</ele><time>2026-05-02T07:40:22.496Z</time></trkpt><trkpt lat="41.7346683" lon="13.090015"><ele>196.66666666666666</ele><time>2026-05-02T07:40:23.496Z</time></trkpt><trkpt lat="41.7347883" lon="13.089775"><ele>197.33333333333331</ele><time>2026-05-02T07:40:24.496Z</time></trkpt><trkpt lat="41.7349033" lon="13.0895317"><ele>198.0</ele><time>2026-05-02T07:40:25.497Z</time></trkpt><trkpt lat="41.7350217" lon="13.08929"><ele>197.66666666666669</ele><time>2026-05-02T07:40:26.496Z</time></trkpt><trkpt lat="41.7351433" lon="13.0890517"><ele>197.33333333333334</ele><time>2026-05-02T07:40:27.496Z</time></trkpt><trkpt lat="41.7352567" lon="13.0888083"><ele>197.0</ele><time>2026-05-02T07:40:28.496Z</time></trkpt><trkpt lat="41.7353733" lon="13.0885683"><ele>197.33333333333334</ele><time>2026-05-02T07:40:29.497Z</time></trkpt><trkpt lat="41.73549" lon="13.08833"><ele>197.66666666666669</ele><time>2026-05-02T07:40:30.496Z</time></trkpt><trkpt lat="41.735605" lon="13.0880967"><ele>198.0</ele><time>2026-05-02T07:40:31.496Z</time></trkpt><trkpt lat="41.7357267" lon="13.0878583"><ele>198.0</ele><time>2026-05-02T07:40:32.496Z</time></trkpt><trkpt lat="41.7358417" lon="13.0876167"><ele>198.0</ele><time>2026-05-02T07:40:33.496Z</time></trkpt><trkpt lat="41.73596" lon="13.0873767"><ele>198.0</ele><time>2026-05-02T07:40:34.496Z</time></trkpt><trkpt lat="41.736075" lon="13.08714"><ele>199.33333333333331</ele><time>2026-05-02T07:40:35.496Z</time></trkpt><trkpt lat="41.7361833" lon="13.0869017"><ele>200.66666666666666</ele><time>2026-05-02T07:40:36.496Z</time></trkpt><trkpt lat="41.7362983" lon="13.08666"><ele>202.0</ele><time>2026-05-02T07:40:37.496Z</time></trkpt><trkpt lat="41.736415" lon="13.0864233"><ele>202.0</ele><time>2026-05-02T07:40:38.496Z</time></trkpt><trkpt lat="41.7365333" lon="13.08619"><ele>202.0</ele><time>2026-05-02T07:40:39.496Z</time></trkpt><trkpt lat="41.73665" lon="13.0859483"><ele>202.0</ele><time>2026-05-02T07:40:40.496Z</time></trkpt><trkpt lat="41.7367683" lon="13.0857033"><ele>201.66666666666666</ele><time>2026-05-02T07:40:41.496Z</time></trkpt><trkpt lat="41.736885" lon="13.08546"><ele>201.33333333333331</ele><time>2026-05-02T07:40:42.497Z</time></trkpt><trkpt lat="41.7370033" lon="13.0852167"><ele>201.0</ele><time>2026-05-02T07:40:43.497Z</time></trkpt><trkpt lat="41.7371217" lon="13.0849783"><ele>199.33333333333331</ele><time>2026-05-02T07:40:44.496Z</time></trkpt><trkpt lat="41.7372383" lon="13.0847417"><ele>197.66666666666666</ele><time>2026-05-02T07:40:45.497Z</time></trkpt><trkpt lat="41.737355" lon="13.0845017"><ele>196.0</ele><time>2026-05-02T07:40:46.496Z</time></trkpt><trkpt lat="41.73747" lon="13.08426"><ele>195.0</ele><time>2026-05-02T07:40:47.496Z</time></trkpt><trkpt lat="41.7375917" lon="13.0840233"><ele>194.0</ele><time>2026-05-02T07:40:48.496Z</time></trkpt><trkpt lat="41.737705" lon="13.0837917"><ele>193.0</ele><time>2026-05-02T07:40:49.496Z</time></trkpt><trkpt lat="41.7378233" lon="13.0835533"><ele>192.66666666666666</ele><time>2026-05-02T07:40:50.496Z</time></trkpt><trkpt lat="41.73794" lon="13.0833067"><ele>192.33333333333331</ele><time>2026-05-02T07:40:51.496Z</time></trkpt><trkpt lat="41.7380533" lon="13.0830733"><ele>192.0</ele><time>2026-05-02T07:40:52.496Z</time></trkpt><trkpt lat="41.7381667" lon="13.0828383"><ele>191.66666666666666</ele><time>2026-05-02T07:40:53.496Z</time></trkpt><trkpt lat="41.73828" lon="13.0826017"><ele>191.33333333333331</ele><time>2026-05-02T07:40:54.496Z</time></trkpt><trkpt lat="41.738395" lon="13.0823683"><ele>191.0</ele><time>2026-05-02T07:40:55.496Z</time></trkpt><trkpt lat="41.7385167" lon="13.08213"><ele>191.0</ele><time>2026-05-02T07:40:56.496Z</time></trkpt><trkpt lat="41.7386333" lon="13.08189"><ele>191.0</ele><time>2026-05-02T07:40:57.496Z</time></trkpt><trkpt lat="41.7387467" lon="13.0816617"><ele>191.0</ele><time>2026-05-02T07:40:58.497Z</time></trkpt><trkpt lat="41.73886" lon="13.0814333"><ele>193.0</ele><time>2026-05-02T07:40:59.496Z</time></trkpt><trkpt lat="41.7389733" lon="13.081205"><ele>195.0</ele><time>2026-05-02T07:41:00.496Z</time></trkpt><trkpt lat="41.7390833" lon="13.080975"><ele>197.0</ele><time>2026-05-02T07:41:01.496Z</time></trkpt><trkpt lat="41.7391967" lon="13.080745"><ele>199.0</ele><time>2026-05-02T07:41:02.496Z</time></trkpt><trkpt lat="41.7393083" lon="13.0805133"><ele>201.0</ele><time>2026-05-02T07:41:03.496Z</time></trkpt><trkpt lat="41.7394183" lon="13.0802867"><ele>203.0</ele><time>2026-05-02T07:41:04.496Z</time></trkpt><trkpt lat="41.73953" lon="13.0800617"><ele>205.33333333333334</ele><time>2026-05-02T07:41:05.497Z</time></trkpt><trkpt lat="41.7396417" lon="13.0798333"><ele>207.66666666666669</ele><time>2026-05-02T07:41:06.496Z</time></trkpt><trkpt lat="41.7397517" lon="13.0796067"><ele>210.0</ele><time>2026-05-02T07:41:07.496Z</time></trkpt><trkpt lat="41.7398633" lon="13.0793783"><ele>210.0</ele><time>2026-05-02T07:41:08.496Z</time></trkpt><trkpt lat="41.739975" lon="13.07915"><ele>210.0</ele><time>2026-05-02T07:41:09.496Z</time></trkpt><trkpt lat="41.740085" lon="13.0789267"><ele>210.0</ele><time>2026-05-02T07:41:10.496Z</time></trkpt><trkpt lat="41.7401917" lon="13.078695"><ele>212.0</ele><time>2026-05-02T07:41:11.496Z</time></trkpt><trkpt lat="41.7403" lon="13.0784633"><ele>214.0</ele><time>2026-05-02T07:41:12.496Z</time></trkpt><trkpt lat="41.7404083" lon="13.0782417"><ele>216.0</ele><time>2026-05-02T07:41:13.496Z</time></trkpt><trkpt lat="41.7405167" lon="13.0780117"><ele>217.66666666666669</ele><time>2026-05-02T07:41:14.496Z</time></trkpt><trkpt lat="41.74064" lon="13.0777817"><ele>219.33333333333334</ele><time>2026-05-02T07:41:15.496Z</time></trkpt><trkpt lat="41.7407483" lon="13.0775567"><ele>221.0</ele><time>2026-05-02T07:41:16.496Z</time></trkpt><trkpt lat="41.7408683" lon="13.0773183"><ele>222.33333333333334</ele><time>2026-05-02T07:41:17.496Z</time></trkpt><trkpt lat="41.740985" lon="13.0770817"><ele>223.66666666666669</ele><time>2026-05-02T07:41:18.496Z</time></trkpt><trkpt lat="41.7410933" lon="13.07685"><ele>225.0</ele><time>2026-05-02T07:41:19.496Z</time></trkpt><trkpt lat="41.741205" lon="13.0766183"><ele>227.0</ele><time>2026-05-02T07:41:20.496Z</time></trkpt><trkpt lat="41.7413133" lon="13.0763833"><ele>229.0</ele><time>2026-05-02T07:41:21.496Z</time></trkpt><trkpt lat="41.7414233" lon="13.0761517"><ele>231.0</ele><time>2026-05-02T07:41:22.496Z</time></trkpt><trkpt lat="41.74154" lon="13.0759183"><ele>231.0</ele><time>2026-05-02T07:41:23.496Z</time></trkpt><trkpt lat="41.74166" lon="13.075685"><ele>231.0</ele><time>2026-05-02T07:41:24.496Z</time></trkpt><trkpt lat="41.7417783" lon="13.075445"><ele>231.0</ele><time>2026-05-02T07:41:25.496Z</time></trkpt><trkpt lat="41.741895" lon="13.0752067"><ele>231.0</ele><time>2026-05-02T07:41:26.496Z</time></trkpt><trkpt lat="41.7420117" lon="13.07497"><ele>231.0</ele><time>2026-05-02T07:41:27.496Z</time></trkpt><trkpt lat="41.742125" lon="13.0747283"><ele>231.0</ele><time>2026-05-02T07:41:28.496Z</time></trkpt><trkpt lat="41.7422383" lon="13.0744833"><ele>228.0</ele><time>2026-05-02T07:41:29.496Z</time></trkpt><trkpt lat="41.7424717" lon="13.0739967"><ele>225.0</ele><time>2026-05-02T07:41:31.497Z</time></trkpt><trkpt lat="41.7425867" lon="13.0737533"><ele>225.0</ele><time>2026-05-02T07:41:32.496Z</time></trkpt><trkpt lat="41.7427083" lon="13.07351"><ele>225.0</ele><time>2026-05-02T07:41:33.496Z</time></trkpt><trkpt lat="41.7428267" lon="13.0732617"><ele>225.0</ele><time>2026-05-02T07:41:34.496Z</time></trkpt><trkpt lat="41.7429483" lon="13.07302"><ele>225.0</ele><time>2026-05-02T07:41:35.497Z</time></trkpt><trkpt lat="41.7430667" lon="13.072775"><ele>225.0</ele><time>2026-05-02T07:41:36.496Z</time></trkpt><trkpt lat="41.74319" lon="13.0725367"><ele>225.0</ele><time>2026-05-02T07:41:37.496Z</time></trkpt><trkpt lat="41.74331" lon="13.07229"><ele>225.33333333333331</ele><time>2026-05-02T07:41:38.496Z</time></trkpt><trkpt lat="41.74343" lon="13.0720433"><ele>225.66666666666666</ele><time>2026-05-02T07:41:39.496Z</time></trkpt><trkpt lat="41.7435567" lon="13.0717883"><ele>226.0</ele><time>2026-05-02T07:41:40.497Z</time></trkpt><trkpt lat="41.7436767" lon="13.0715317"><ele>227.33333333333331</ele><time>2026-05-02T07:41:41.496Z</time></trkpt><trkpt lat="41.7438" lon="13.0712817"><ele>228.66666666666669</ele><time>2026-05-02T07:41:42.496Z</time></trkpt><trkpt lat="41.7439217" lon="13.0710267"><ele>230.0</ele><time>2026-05-02T07:41:43.496Z</time></trkpt><trkpt lat="41.7440417" lon="13.0707817"><ele>229.5</ele><time>2026-05-02T07:41:44.496Z</time></trkpt><trkpt lat="41.7441583" lon="13.070535"><ele>229.0</ele><time>2026-05-02T07:41:45.496Z</time></trkpt><trkpt lat="41.74429" lon="13.070275"><ele>230.0</ele><time>2026-05-02T07:41:46.496Z</time></trkpt><trkpt lat="41.7444167" lon="13.07002"><ele>231.0</ele><time>2026-05-02T07:41:47.496Z</time></trkpt><trkpt lat="41.74454" lon="13.0697683"><ele>228.0</ele><time>2026-05-02T07:41:48.496Z</time></trkpt><trkpt lat="41.7446633" lon="13.0695067"><ele>225.0</ele><time>2026-05-02T07:41:49.496Z</time></trkpt><trkpt lat="41.7447867" lon="13.0692483"><ele>222.5</ele><time>2026-05-02T07:41:50.496Z</time></trkpt><trkpt lat="41.74491" lon="13.0689917"><ele>220.0</ele><time>2026-05-02T07:41:51.496Z</time></trkpt><trkpt lat="41.7450317" lon="13.06872"><ele>220.0</ele><time>2026-05-02T07:41:52.496Z</time></trkpt><trkpt lat="41.7451567" lon="13.0684633"><ele>220.0</ele><time>2026-05-02T07:41:53.496Z</time></trkpt><trkpt lat="41.74528" lon="13.0682067"><ele>215.5</ele><time>2026-05-02T07:41:54.496Z</time></trkpt><trkpt lat="41.74541" lon="13.0679517"><ele>211.0</ele><time>2026-05-02T07:41:55.496Z</time></trkpt><trkpt lat="41.7455383" lon="13.0677067"><ele>211.0</ele><time>2026-05-02T07:41:56.496Z</time></trkpt><trkpt lat="41.7456617" lon="13.0674617"><ele>211.0</ele><time>2026-05-02T07:41:57.496Z</time></trkpt><trkpt lat="41.7457817" lon="13.067215"><ele>211.0</ele><time>2026-05-02T07:41:58.496Z</time></trkpt><trkpt lat="41.7459" lon="13.06697"><ele>209.0</ele><time>2026-05-02T07:41:59.496Z</time></trkpt><trkpt lat="41.7460133" lon="13.0667217"><ele>207.0</ele><time>2026-05-02T07:42:00.496Z</time></trkpt><trkpt lat="41.746135" lon="13.06647"><ele>205.0</ele><time>2026-05-02T07:42:01.496Z</time></trkpt><trkpt lat="41.7462517" lon="13.0662217"><ele>203.66666666666666</ele><time>2026-05-02T07:42:02.496Z</time></trkpt><trkpt lat="41.7463683" lon="13.0659767"><ele>202.33333333333331</ele><time>2026-05-02T07:42:03.496Z</time></trkpt><trkpt lat="41.7464883" lon="13.065735"><ele>201.0</ele><time>2026-05-02T07:42:04.496Z</time></trkpt><trkpt lat="41.7466083" lon="13.0654967"><ele>201.0</ele><time>2026-05-02T07:42:05.496Z</time></trkpt><trkpt lat="41.7467217" lon="13.0652617"><ele>201.0</ele><time>2026-05-02T07:42:06.496Z</time></trkpt><trkpt lat="41.7468367" lon="13.06502"><ele>201.0</ele><time>2026-05-02T07:42:07.496Z</time></trkpt><trkpt lat="41.7469467" lon="13.06478"><ele>203.0</ele><time>2026-05-02T07:42:08.496Z</time></trkpt><trkpt lat="41.7470633" lon="13.064545"><ele>205.0</ele><time>2026-05-02T07:42:09.496Z</time></trkpt><trkpt lat="41.7471767" lon="13.0643083"><ele>207.0</ele><time>2026-05-02T07:42:10.496Z</time></trkpt><trkpt lat="41.7472867" lon="13.0640717"><ele>207.0</ele><time>2026-05-02T07:42:11.496Z</time></trkpt><trkpt lat="41.747395" lon="13.0638367"><ele>207.0</ele><time>2026-05-02T07:42:12.496Z</time></trkpt><trkpt lat="41.7474983" lon="13.0635983"><ele>207.0</ele><time>2026-05-02T07:42:13.496Z</time></trkpt><trkpt lat="41.747595" lon="13.0633567"><ele>206.33333333333331</ele><time>2026-05-02T07:42:14.496Z</time></trkpt><trkpt lat="41.74769" lon="13.06311"><ele>205.66666666666666</ele><time>2026-05-02T07:42:15.496Z</time></trkpt><trkpt lat="41.74778" lon="13.0628633"><ele>205.0</ele><time>2026-05-02T07:42:16.496Z</time></trkpt><trkpt lat="41.747865" lon="13.0626133"><ele>204.33333333333331</ele><time>2026-05-02T07:42:17.496Z</time></trkpt><trkpt lat="41.7479517" lon="13.0623533"><ele>203.66666666666669</ele><time>2026-05-02T07:42:18.496Z</time></trkpt><trkpt lat="41.7480267" lon="13.0620883"><ele>203.0</ele><time>2026-05-02T07:42:19.496Z</time></trkpt><trkpt lat="41.7481033" lon="13.0618267"><ele>202.33333333333334</ele><time>2026-05-02T07:42:20.496Z</time></trkpt><trkpt lat="41.7481733" lon="13.0615567"><ele>201.66666666666669</ele><time>2026-05-02T07:42:21.496Z</time></trkpt><trkpt lat="41.7482417" lon="13.061285"><ele>201.0</ele><time>2026-05-02T07:42:22.496Z</time></trkpt><trkpt lat="41.7483017" lon="13.0610083"><ele>201.0</ele><time>2026-05-02T07:42:23.496Z</time></trkpt><trkpt lat="41.748355" lon="13.0607283"><ele>201.0</ele><time>2026-05-02T07:42:24.496Z</time></trkpt><trkpt lat="41.7484133" lon="13.06044"><ele>201.0</ele><time>2026-05-02T07:42:25.496Z</time></trkpt><trkpt lat="41.74846" lon="13.0601517"><ele>201.33333333333331</ele><time>2026-05-02T07:42:26.496Z</time></trkpt><trkpt lat="41.7485067" lon="13.0598633"><ele>201.66666666666666</ele><time>2026-05-02T07:42:27.496Z</time></trkpt><trkpt lat="41.748545" lon="13.0595717"><ele>202.0</ele><time>2026-05-02T07:42:28.496Z</time></trkpt><trkpt lat="41.74858" lon="13.0592783"><ele>202.0</ele><time>2026-05-02T07:42:29.496Z</time></trkpt><trkpt lat="41.7486083" lon="13.058985"><ele>202.0</ele><time>2026-05-02T07:42:30.496Z</time></trkpt><trkpt lat="41.7486283" lon="13.0586917"><ele>202.0</ele><time>2026-05-02T07:42:31.496Z</time></trkpt><trkpt lat="41.74864" lon="13.058395"><ele>202.0</ele><time>2026-05-02T07:42:32.496Z</time></trkpt><trkpt lat="41.74865" lon="13.0580933"><ele>202.0</ele><time>2026-05-02T07:42:33.496Z</time></trkpt><trkpt lat="41.7486567" lon="13.057795"><ele>202.0</ele><time>2026-05-02T07:42:34.496Z</time></trkpt><trkpt lat="41.748655" lon="13.0575017"><ele>201.33333333333331</ele><time>2026-05-02T07:42:35.496Z</time></trkpt><trkpt lat="41.7486483" lon="13.0572117"><ele>200.66666666666669</ele><time>2026-05-02T07:42:36.496Z</time></trkpt><trkpt lat="41.74865" lon="13.056925"><ele>200.0</ele><time>2026-05-02T07:42:37.496Z</time></trkpt><trkpt lat="41.74865" lon="13.05664"><ele>200.0</ele><time>2026-05-02T07:42:38.496Z</time></trkpt><trkpt lat="41.748655" lon="13.0563483"><ele>200.0</ele><time>2026-05-02T07:42:39.496Z</time></trkpt><trkpt lat="41.7486583" lon="13.056065"><ele>200.0</ele><time>2026-05-02T07:42:40.496Z</time></trkpt><trkpt lat="41.7486633" lon="13.05578"><ele>201.66666666666669</ele><time>2026-05-02T07:42:41.496Z</time></trkpt><trkpt lat="41.7486683" lon="13.0554917"><ele>203.33333333333331</ele><time>2026-05-02T07:42:42.496Z</time></trkpt><trkpt lat="41.748675" lon="13.0552067"><ele>205.0</ele><time>2026-05-02T07:42:43.496Z</time></trkpt><trkpt lat="41.7486817" lon="13.0549167"><ele>205.33333333333331</ele><time>2026-05-02T07:42:44.496Z</time></trkpt><trkpt lat="41.7486883" lon="13.054625"><ele>205.66666666666669</ele><time>2026-05-02T07:42:45.496Z</time></trkpt><trkpt lat="41.7486917" lon="13.05433"><ele>206.0</ele><time>2026-05-02T07:42:46.496Z</time></trkpt><trkpt lat="41.7486883" lon="13.0540433"><ele>206.0</ele><time>2026-05-02T07:42:47.496Z</time></trkpt><trkpt lat="41.7486917" lon="13.0537517"><ele>206.0</ele><time>2026-05-02T07:42:48.496Z</time></trkpt><trkpt lat="41.7486917" lon="13.0534633"><ele>206.0</ele><time>2026-05-02T07:42:49.496Z</time></trkpt><trkpt lat="41.7486983" lon="13.0531767"><ele>204.66666666666669</ele><time>2026-05-02T07:42:50.496Z</time></trkpt><trkpt lat="41.7486983" lon="13.0528883"><ele>203.33333333333331</ele><time>2026-05-02T07:42:51.496Z</time></trkpt><trkpt lat="41.748705" lon="13.0526017"><ele>202.0</ele><time>2026-05-02T07:42:52.497Z</time></trkpt><trkpt lat="41.748705" lon="13.0523067"><ele>202.0</ele><time>2026-05-02T07:42:53.496Z</time></trkpt><trkpt lat="41.7487017" lon="13.0520117"><ele>202.0</ele><time>2026-05-02T07:42:54.496Z</time></trkpt><trkpt lat="41.7487067" lon="13.0517167"><ele>202.0</ele><time>2026-05-02T07:42:55.496Z</time></trkpt><trkpt lat="41.74871" lon="13.0514217"><ele>202.33333333333331</ele><time>2026-05-02T07:42:56.496Z</time></trkpt><trkpt lat="41.7487167" lon="13.05113"><ele>202.66666666666669</ele><time>2026-05-02T07:42:57.496Z</time></trkpt><trkpt lat="41.748715" lon="13.05084"><ele>203.0</ele><time>2026-05-02T07:42:58.496Z</time></trkpt><trkpt lat="41.7487183" lon="13.0505433"><ele>203.0</ele><time>2026-05-02T07:42:59.496Z</time></trkpt><trkpt lat="41.748725" lon="13.05025"><ele>203.0</ele><time>2026-05-02T07:43:00.497Z</time></trkpt><trkpt lat="41.74873" lon="13.0499617"><ele>203.0</ele><time>2026-05-02T07:43:01.496Z</time></trkpt><trkpt lat="41.7487317" lon="13.0496683"><ele>204.66666666666669</ele><time>2026-05-02T07:43:02.496Z</time></trkpt><trkpt lat="41.7487317" lon="13.0493783"><ele>206.33333333333331</ele><time>2026-05-02T07:43:03.496Z</time></trkpt><trkpt lat="41.7487333" lon="13.0490883"><ele>208.0</ele><time>2026-05-02T07:43:04.496Z</time></trkpt><trkpt lat="41.7487333" lon="13.048805"><ele>208.0</ele><time>2026-05-02T07:43:05.496Z</time></trkpt><trkpt lat="41.7487333" lon="13.0485167"><ele>208.0</ele><time>2026-05-02T07:43:06.496Z</time></trkpt><trkpt lat="41.7487383" lon="13.0482217"><ele>208.0</ele><time>2026-05-02T07:43:07.496Z</time></trkpt><trkpt lat="41.74874" lon="13.047935"><ele>207.33333333333331</ele><time>2026-05-02T07:43:08.496Z</time></trkpt><trkpt lat="41.748745" lon="13.0476433"><ele>206.66666666666669</ele><time>2026-05-02T07:43:09.496Z</time></trkpt><trkpt lat="41.7487467" lon="13.0473517"><ele>206.0</ele><time>2026-05-02T07:43:10.496Z</time></trkpt><trkpt lat="41.7487483" lon="13.047055"><ele>206.0</ele><time>2026-05-02T07:43:11.496Z</time></trkpt><trkpt lat="41.7487467" lon="13.0467583"><ele>206.0</ele><time>2026-05-02T07:43:12.496Z</time></trkpt><trkpt lat="41.7487483" lon="13.0464633"><ele>206.0</ele><time>2026-05-02T07:43:13.496Z</time></trkpt><trkpt lat="41.74875" lon="13.0461683"><ele>206.0</ele><time>2026-05-02T07:43:14.496Z</time></trkpt><trkpt lat="41.74875" lon="13.0458767"><ele>206.0</ele><time>2026-05-02T07:43:15.497Z</time></trkpt><trkpt lat="41.748755" lon="13.0455867"><ele>206.0</ele><time>2026-05-02T07:43:16.496Z</time></trkpt><trkpt lat="41.7487583" lon="13.045295"><ele>205.66666666666669</ele><time>2026-05-02T07:43:17.496Z</time></trkpt><trkpt lat="41.7487667" lon="13.0450017"><ele>205.33333333333331</ele><time>2026-05-02T07:43:18.496Z</time></trkpt><trkpt lat="41.74877" lon="13.0447067"><ele>205.0</ele><time>2026-05-02T07:43:19.496Z</time></trkpt><trkpt lat="41.7487683" lon="13.04442"><ele>205.0</ele><time>2026-05-02T07:43:20.496Z</time></trkpt><trkpt lat="41.74877" lon="13.0441333"><ele>205.0</ele><time>2026-05-02T07:43:21.496Z</time></trkpt><trkpt lat="41.74877" lon="13.04385"><ele>205.0</ele><time>2026-05-02T07:43:22.497Z</time></trkpt><trkpt lat="41.7487733" lon="13.0435667"><ele>204.66666666666666</ele><time>2026-05-02T07:43:23.496Z</time></trkpt><trkpt lat="41.7487767" lon="13.0432833"><ele>204.33333333333331</ele><time>2026-05-02T07:43:24.496Z</time></trkpt><trkpt lat="41.748775" lon="13.0430017"><ele>204.0</ele><time>2026-05-02T07:43:25.497Z</time></trkpt><trkpt lat="41.7487767" lon="13.0427217"><ele>204.33333333333331</ele><time>2026-05-02T07:43:26.496Z</time></trkpt><trkpt lat="41.7487817" lon="13.0424417"><ele>204.66666666666666</ele><time>2026-05-02T07:43:27.496Z</time></trkpt><trkpt lat="41.7487883" lon="13.0421583"><ele>205.0</ele><time>2026-05-02T07:43:28.496Z</time></trkpt><trkpt lat="41.74879" lon="13.041875"><ele>207.0</ele><time>2026-05-02T07:43:29.496Z</time></trkpt><trkpt lat="41.7487883" lon="13.0415867"><ele>209.0</ele><time>2026-05-02T07:43:30.496Z</time></trkpt><trkpt lat="41.74879" lon="13.0413083"><ele>211.0</ele><time>2026-05-02T07:43:31.496Z</time></trkpt><trkpt lat="41.74879" lon="13.0410283"><ele>212.66666666666666</ele><time>2026-05-02T07:43:32.496Z</time></trkpt><trkpt lat="41.7487933" lon="13.04075"><ele>214.33333333333331</ele><time>2026-05-02T07:43:33.496Z</time></trkpt><trkpt lat="41.748795" lon="13.0404717"><ele>216.0</ele><time>2026-05-02T07:43:34.496Z</time></trkpt><trkpt lat="41.7487933" lon="13.0401917"><ele>217.66666666666669</ele><time>2026-05-02T07:43:35.497Z</time></trkpt><trkpt lat="41.7487933" lon="13.03992"><ele>219.33333333333334</ele><time>2026-05-02T07:43:36.496Z</time></trkpt><trkpt lat="41.7487983" lon="13.0396467"><ele>221.0</ele><time>2026-05-02T07:43:37.496Z</time></trkpt><trkpt lat="41.7488" lon="13.0393717"><ele>222.33333333333334</ele><time>2026-05-02T07:43:38.496Z</time></trkpt><trkpt lat="41.748805" lon="13.0391017"><ele>223.66666666666669</ele><time>2026-05-02T07:43:39.496Z</time></trkpt><trkpt lat="41.7488" lon="13.0388333"><ele>225.0</ele><time>2026-05-02T07:43:40.496Z</time></trkpt><trkpt lat="41.748805" lon="13.0385617"><ele>225.0</ele><time>2026-05-02T07:43:41.496Z</time></trkpt><trkpt lat="41.7488117" lon="13.0382867"><ele>225.0</ele><time>2026-05-02T07:43:42.496Z</time></trkpt><trkpt lat="41.74882" lon="13.0380183"><ele>225.0</ele><time>2026-05-02T07:43:43.496Z</time></trkpt><trkpt lat="41.7488233" lon="13.0377433"><ele>226.0</ele><time>2026-05-02T07:43:44.496Z</time></trkpt><trkpt lat="41.7488267" lon="13.0374683"><ele>227.0</ele><time>2026-05-02T07:43:45.496Z</time></trkpt><trkpt lat="41.7488283" lon="13.0371883"><ele>228.0</ele><time>2026-05-02T07:43:46.496Z</time></trkpt><trkpt lat="41.7488283" lon="13.0369117"><ele>228.66666666666669</ele><time>2026-05-02T07:43:47.496Z</time></trkpt><trkpt lat="41.74883" lon="13.03663"><ele>229.33333333333334</ele><time>2026-05-02T07:43:48.496Z</time></trkpt><trkpt lat="41.74883" lon="13.03635"><ele>230.0</ele><time>2026-05-02T07:43:49.496Z</time></trkpt><trkpt lat="41.7488317" lon="13.0360633"><ele>230.33333333333334</ele><time>2026-05-02T07:43:50.496Z</time></trkpt><trkpt lat="41.7488333" lon="13.0357733"><ele>230.66666666666669</ele><time>2026-05-02T07:43:51.496Z</time></trkpt><trkpt lat="41.7488367" lon="13.035485"><ele>231.0</ele><time>2026-05-02T07:43:52.496Z</time></trkpt><trkpt lat="41.74884" lon="13.035195"><ele>231.0</ele><time>2026-05-02T07:43:53.496Z</time></trkpt><trkpt lat="41.748845" lon="13.0349067"><ele>231.0</ele><time>2026-05-02T07:43:54.496Z</time></trkpt><trkpt lat="41.7488417" lon="13.0346217"><ele>231.0</ele><time>2026-05-02T07:43:55.496Z</time></trkpt><trkpt lat="41.748845" lon="13.034335"><ele>231.66666666666669</ele><time>2026-05-02T07:43:56.496Z</time></trkpt><trkpt lat="41.7488483" lon="13.0340517"><ele>232.33333333333334</ele><time>2026-05-02T07:43:57.497Z</time></trkpt><trkpt lat="41.74885" lon="13.0337633"><ele>233.0</ele><time>2026-05-02T07:43:58.497Z</time></trkpt><trkpt lat="41.74885" lon="13.03348"><ele>233.33333333333334</ele><time>2026-05-02T07:43:59.497Z</time></trkpt><trkpt lat="41.74885" lon="13.033195"><ele>233.66666666666669</ele><time>2026-05-02T07:44:00.498Z</time></trkpt><trkpt lat="41.7488517" lon="13.0329133"><ele>234.0</ele><time>2026-05-02T07:44:01.498Z</time></trkpt><trkpt lat="41.7488517" lon="13.03263"><ele>235.33333333333331</ele><time>2026-05-02T07:44:02.497Z</time></trkpt><trkpt lat="41.7488533" lon="13.03234"><ele>236.66666666666666</ele><time>2026-05-02T07:44:03.497Z</time></trkpt><trkpt lat="41.7488567" lon="13.0320567"><ele>238.0</ele><time>2026-05-02T07:44:04.497Z</time></trkpt><trkpt lat="41.7488617" lon="13.0317667"><ele>238.33333333333331</ele><time>2026-05-02T07:44:05.497Z</time></trkpt><trkpt lat="41.748865" lon="13.0314767"><ele>238.66666666666669</ele><time>2026-05-02T07:44:06.497Z</time></trkpt><trkpt lat="41.7488633" lon="13.031185"><ele>239.0</ele><time>2026-05-02T07:44:07.497Z</time></trkpt><trkpt lat="41.7488683" lon="13.0308933"><ele>239.33333333333334</ele><time>2026-05-02T07:44:08.497Z</time></trkpt><trkpt lat="41.7488667" lon="13.0306"><ele>239.66666666666669</ele><time>2026-05-02T07:44:09.497Z</time></trkpt><trkpt lat="41.7488617" lon="13.030305"><ele>240.0</ele><time>2026-05-02T07:44:10.497Z</time></trkpt><trkpt lat="41.7488567" lon="13.030015"><ele>239.66666666666669</ele><time>2026-05-02T07:44:11.497Z</time></trkpt><trkpt lat="41.74886" lon="13.0297217"><ele>239.33333333333334</ele><time>2026-05-02T07:44:12.497Z</time></trkpt><trkpt lat="41.7488717" lon="13.0294217"><ele>239.0</ele><time>2026-05-02T07:44:13.497Z</time></trkpt><trkpt lat="41.7488667" lon="13.0291283"><ele>238.0</ele><time>2026-05-02T07:44:14.497Z</time></trkpt><trkpt lat="41.7488683" lon="13.02883"><ele>237.0</ele><time>2026-05-02T07:44:15.497Z</time></trkpt><trkpt lat="41.7488783" lon="13.0285267"><ele>236.0</ele><time>2026-05-02T07:44:16.497Z</time></trkpt><trkpt lat="41.7488817" lon="13.02822"><ele>236.0</ele><time>2026-05-02T07:44:17.497Z</time></trkpt><trkpt lat="41.7488783" lon="13.0279167"><ele>236.0</ele><time>2026-05-02T07:44:18.497Z</time></trkpt><trkpt lat="41.7488833" lon="13.0276117"><ele>239.0</ele><time>2026-05-02T07:44:19.497Z</time></trkpt><trkpt lat="41.74889" lon="13.0273117"><ele>242.0</ele><time>2026-05-02T07:44:20.498Z</time></trkpt><trkpt lat="41.7488967" lon="13.027005"><ele>242.0</ele><time>2026-05-02T07:44:21.497Z</time></trkpt><trkpt lat="41.7488967" lon="13.0267017"><ele>242.0</ele><time>2026-05-02T07:44:22.497Z</time></trkpt><trkpt lat="41.7489017" lon="13.026395"><ele>243.5</ele><time>2026-05-02T07:44:23.497Z</time></trkpt><trkpt lat="41.7489083" lon="13.0260817"><ele>245.0</ele><time>2026-05-02T07:44:24.497Z</time></trkpt><trkpt lat="41.7489117" lon="13.02577"><ele>245.0</ele><time>2026-05-02T07:44:25.498Z</time></trkpt><trkpt lat="41.748915" lon="13.025455"><ele>245.0</ele><time>2026-05-02T07:44:26.497Z</time></trkpt><trkpt lat="41.7489167" lon="13.0251383"><ele>245.0</ele><time>2026-05-02T07:44:27.497Z</time></trkpt><trkpt lat="41.74892" lon="13.0248233"><ele>245.0</ele><time>2026-05-02T07:44:28.497Z</time></trkpt><trkpt lat="41.7489233" lon="13.02451"><ele>245.0</ele><time>2026-05-02T07:44:29.497Z</time></trkpt><trkpt lat="41.74893" lon="13.0241933"><ele>245.0</ele><time>2026-05-02T07:44:30.497Z</time></trkpt><trkpt lat="41.74893" lon="13.02389"><ele>245.33333333333334</ele><time>2026-05-02T07:44:31.497Z</time></trkpt><trkpt lat="41.7489267" lon="13.02359"><ele>245.66666666666669</ele><time>2026-05-02T07:44:32.497Z</time></trkpt><trkpt lat="41.7489283" lon="13.02329"><ele>246.0</ele><time>2026-05-02T07:44:33.497Z</time></trkpt><trkpt lat="41.7489333" lon="13.0229933"><ele>245.0</ele><time>2026-05-02T07:44:34.497Z</time></trkpt><trkpt lat="41.7489383" lon="13.0226933"><ele>244.0</ele><time>2026-05-02T07:44:35.497Z</time></trkpt><trkpt lat="41.7489367" lon="13.0223967"><ele>243.0</ele><time>2026-05-02T07:44:36.497Z</time></trkpt><trkpt lat="41.74894" lon="13.0220967"><ele>243.0</ele><time>2026-05-02T07:44:37.497Z</time></trkpt><trkpt lat="41.748945" lon="13.0217983"><ele>243.0</ele><time>2026-05-02T07:44:38.497Z</time></trkpt><trkpt lat="41.748945" lon="13.0215"><ele>243.0</ele><time>2026-05-02T07:44:39.497Z</time></trkpt><trkpt lat="41.7489467" lon="13.0212083"><ele>243.0</ele><time>2026-05-02T07:44:40.497Z</time></trkpt><trkpt lat="41.7489533" lon="13.0209083"><ele>243.0</ele><time>2026-05-02T07:44:41.497Z</time></trkpt><trkpt lat="41.7489567" lon="13.0206133"><ele>243.0</ele><time>2026-05-02T07:44:42.497Z</time></trkpt><trkpt lat="41.7489583" lon="13.020325"><ele>241.33333333333331</ele><time>2026-05-02T07:44:43.497Z</time></trkpt><trkpt lat="41.7489533" lon="13.0200367"><ele>239.66666666666666</ele><time>2026-05-02T07:44:44.498Z</time></trkpt><trkpt lat="41.7489517" lon="13.01975"><ele>238.0</ele><time>2026-05-02T07:44:45.498Z</time></trkpt><trkpt lat="41.7489533" lon="13.019455"><ele>236.0</ele><time>2026-05-02T07:44:46.497Z</time></trkpt><trkpt lat="41.7489567" lon="13.01916"><ele>234.0</ele><time>2026-05-02T07:44:47.497Z</time></trkpt><trkpt lat="41.7489633" lon="13.0188633"><ele>232.0</ele><time>2026-05-02T07:44:48.497Z</time></trkpt><trkpt lat="41.74897" lon="13.018565"><ele>224.5</ele><time>2026-05-02T07:44:49.498Z</time></trkpt><trkpt lat="41.7489717" lon="13.0182617"><ele>217.0</ele><time>2026-05-02T07:44:50.497Z</time></trkpt><trkpt lat="41.74897" lon="13.0179617"><ele>217.0</ele><time>2026-05-02T07:44:51.497Z</time></trkpt><trkpt lat="41.748975" lon="13.0176533"><ele>217.0</ele><time>2026-05-02T07:44:52.497Z</time></trkpt><trkpt lat="41.7489717" lon="13.0173567"><ele>217.33333333333331</ele><time>2026-05-02T07:44:53.497Z</time></trkpt><trkpt lat="41.7489733" lon="13.017065"><ele>217.66666666666669</ele><time>2026-05-02T07:44:54.497Z</time></trkpt><trkpt lat="41.7489717" lon="13.0167733"><ele>218.0</ele><time>2026-05-02T07:44:55.497Z</time></trkpt><trkpt lat="41.7489717" lon="13.0164833"><ele>218.0</ele><time>2026-05-02T07:44:56.497Z</time></trkpt><trkpt lat="41.748975" lon="13.0161883"><ele>218.0</ele><time>2026-05-02T07:44:57.497Z</time></trkpt><trkpt lat="41.7489783" lon="13.0158933"><ele>218.0</ele><time>2026-05-02T07:44:58.497Z</time></trkpt><trkpt lat="41.7489783" lon="13.0155983"><ele>220.33333333333334</ele><time>2026-05-02T07:44:59.497Z</time></trkpt><trkpt lat="41.7489817" lon="13.0153033"><ele>222.66666666666669</ele><time>2026-05-02T07:45:00.498Z</time></trkpt><trkpt lat="41.748985" lon="13.015015"><ele>225.0</ele><time>2026-05-02T07:45:01.497Z</time></trkpt><trkpt lat="41.7489883" lon="13.0147217"><ele>226.0</ele><time>2026-05-02T07:45:02.497Z</time></trkpt><trkpt lat="41.7489933" lon="13.0144283"><ele>227.0</ele><time>2026-05-02T07:45:03.497Z</time></trkpt><trkpt lat="41.7489983" lon="13.0141283"><ele>228.0</ele><time>2026-05-02T07:45:04.497Z</time></trkpt><trkpt lat="41.749" lon="13.0138317"><ele>228.0</ele><time>2026-05-02T07:45:05.497Z</time></trkpt><trkpt lat="41.749" lon="13.0135317"><ele>228.0</ele><time>2026-05-02T07:45:06.497Z</time></trkpt><trkpt lat="41.748995" lon="13.0132317"><ele>228.0</ele><time>2026-05-02T07:45:07.497Z</time></trkpt><trkpt lat="41.748995" lon="13.0129283"><ele>226.5</ele><time>2026-05-02T07:45:08.497Z</time></trkpt><trkpt lat="41.7489983" lon="13.012625"><ele>225.0</ele><time>2026-05-02T07:45:09.497Z</time></trkpt><trkpt lat="41.749" lon="13.012325"><ele>223.66666666666669</ele><time>2026-05-02T07:45:10.498Z</time></trkpt><trkpt lat="41.7490033" lon="13.0120233"><ele>222.33333333333334</ele><time>2026-05-02T07:45:11.497Z</time></trkpt><trkpt lat="41.7490067" lon="13.011725"><ele>221.0</ele><time>2026-05-02T07:45:12.497Z</time></trkpt><trkpt lat="41.7490083" lon="13.0114233"><ele>221.0</ele><time>2026-05-02T07:45:13.497Z</time></trkpt><trkpt lat="41.7490083" lon="13.01112"><ele>221.0</ele><time>2026-05-02T07:45:14.497Z</time></trkpt><trkpt lat="41.74901" lon="13.0108183"><ele>222.0</ele><time>2026-05-02T07:45:15.497Z</time></trkpt><trkpt lat="41.74901" lon="13.010515"><ele>223.0</ele><time>2026-05-02T07:45:16.497Z</time></trkpt><trkpt lat="41.749015" lon="13.0102133"><ele>224.0</ele><time>2026-05-02T07:45:17.498Z</time></trkpt><trkpt lat="41.7490233" lon="13.00991"><ele>225.0</ele><time>2026-05-02T07:45:18.497Z</time></trkpt><trkpt lat="41.7490233" lon="13.0096117"><ele>226.0</ele><time>2026-05-02T07:45:19.497Z</time></trkpt><trkpt lat="41.7490317" lon="13.0093133"><ele>226.66666666666666</ele><time>2026-05-02T07:45:20.497Z</time></trkpt><trkpt lat="41.7490383" lon="13.00902"><ele>227.33333333333331</ele><time>2026-05-02T07:45:21.497Z</time></trkpt><trkpt lat="41.749035" lon="13.008725"><ele>228.0</ele><time>2026-05-02T07:45:22.497Z</time></trkpt><trkpt lat="41.7490383" lon="13.0084267"><ele>228.66666666666669</ele><time>2026-05-02T07:45:23.497Z</time></trkpt><trkpt lat="41.749035" lon="13.0081283"><ele>229.33333333333334</ele><time>2026-05-02T07:45:24.498Z</time></trkpt><trkpt lat="41.7490383" lon="13.0078333"><ele>230.0</ele><time>2026-05-02T07:45:25.497Z</time></trkpt><trkpt lat="41.7490383" lon="13.00755"><ele>231.33333333333334</ele><time>2026-05-02T07:45:26.497Z</time></trkpt><trkpt lat="41.7490417" lon="13.007265"><ele>232.66666666666669</ele><time>2026-05-02T07:45:27.497Z</time></trkpt><trkpt lat="41.7490383" lon="13.0069783"><ele>234.0</ele><time>2026-05-02T07:45:28.497Z</time></trkpt><trkpt lat="41.74904" lon="13.0066933"><ele>234.0</ele><time>2026-05-02T07:45:29.497Z</time></trkpt><trkpt lat="41.749045" lon="13.0063983"><ele>234.0</ele><time>2026-05-02T07:45:30.498Z</time></trkpt><trkpt lat="41.749045" lon="13.006105"><ele>234.0</ele><time>2026-05-02T07:45:31.497Z</time></trkpt><trkpt lat="41.74905" lon="13.0058117"><ele>235.33333333333331</ele><time>2026-05-02T07:45:32.497Z</time></trkpt><trkpt lat="41.7490567" lon="13.0055167"><ele>236.66666666666666</ele><time>2026-05-02T07:45:33.497Z</time></trkpt><trkpt lat="41.74906" lon="13.0052183"><ele>238.0</ele><time>2026-05-02T07:45:34.497Z</time></trkpt><trkpt lat="41.7490667" lon="13.0049233"><ele>240.0</ele><time>2026-05-02T07:45:35.497Z</time></trkpt><trkpt lat="41.749065" lon="13.0046217"><ele>242.0</ele><time>2026-05-02T07:45:36.498Z</time></trkpt><trkpt lat="41.74907" lon="13.0043183"><ele>243.0</ele><time>2026-05-02T07:45:37.497Z</time></trkpt><trkpt lat="41.7490717" lon="13.0040117"><ele>244.0</ele><time>2026-05-02T07:45:38.497Z</time></trkpt><trkpt lat="41.7490767" lon="13.0037"><ele>244.0</ele><time>2026-05-02T07:45:39.497Z</time></trkpt><trkpt lat="41.7490817" lon="13.003395"><ele>244.0</ele><time>2026-05-02T07:45:40.497Z</time></trkpt><trkpt lat="41.7490817" lon="13.00309"><ele>244.0</ele><time>2026-05-02T07:45:41.497Z</time></trkpt><trkpt lat="41.7490767" lon="13.0027783"><ele>244.0</ele><time>2026-05-02T07:45:42.497Z</time></trkpt><trkpt lat="41.7490783" lon="13.0024683"><ele>244.0</ele><time>2026-05-02T07:45:43.497Z</time></trkpt><trkpt lat="41.7490833" lon="13.00216"><ele>244.0</ele><time>2026-05-02T07:45:44.498Z</time></trkpt><trkpt lat="41.7490867" lon="13.00185"><ele>244.0</ele><time>2026-05-02T07:45:45.497Z</time></trkpt><trkpt lat="41.74909" lon="13.001535"><ele>244.0</ele><time>2026-05-02T07:45:46.497Z</time></trkpt><trkpt lat="41.749095" lon="13.0012233"><ele>244.0</ele><time>2026-05-02T07:45:47.497Z</time></trkpt><trkpt lat="41.7491" lon="13.000915"><ele>244.0</ele><time>2026-05-02T07:45:48.497Z</time></trkpt><trkpt lat="41.7491017" lon="13.0006"><ele>240.0</ele><time>2026-05-02T07:45:49.497Z</time></trkpt><trkpt lat="41.7491083" lon="13.0002917"><ele>236.0</ele><time>2026-05-02T07:45:50.498Z</time></trkpt><trkpt lat="41.7491117" lon="12.9999833"><ele>236.0</ele><time>2026-05-02T07:45:51.497Z</time></trkpt><trkpt lat="41.7491083" lon="12.99968"><ele>236.0</ele><time>2026-05-02T07:45:52.497Z</time></trkpt><trkpt lat="41.74911" lon="12.9993767"><ele>230.0</ele><time>2026-05-02T07:45:53.497Z</time></trkpt><trkpt lat="41.7491133" lon="12.999075"><ele>224.0</ele><time>2026-05-02T07:45:54.497Z</time></trkpt><trkpt lat="41.7491167" lon="12.9987717"><ele>224.0</ele><time>2026-05-02T07:45:55.497Z</time></trkpt><trkpt lat="41.7491217" lon="12.9984733"><ele>224.0</ele><time>2026-05-02T07:45:56.497Z</time></trkpt><trkpt lat="41.7491167" lon="12.9981767"><ele>224.0</ele><time>2026-05-02T07:45:57.497Z</time></trkpt><trkpt lat="41.7491183" lon="12.9978833"><ele>223.66666666666669</ele><time>2026-05-02T07:45:58.497Z</time></trkpt><trkpt lat="41.7491217" lon="12.9975817"><ele>223.33333333333331</ele><time>2026-05-02T07:45:59.497Z</time></trkpt><trkpt lat="41.7491233" lon="12.9972833"><ele>223.0</ele><time>2026-05-02T07:46:00.498Z</time></trkpt><trkpt lat="41.7491283" lon="12.9969833"><ele>225.5</ele><time>2026-05-02T07:46:01.497Z</time></trkpt><trkpt lat="41.7491283" lon="12.9966783"><ele>228.0</ele><time>2026-05-02T07:46:02.497Z</time></trkpt><trkpt lat="41.7491317" lon="12.9963733"><ele>228.0</ele><time>2026-05-02T07:46:03.497Z</time></trkpt><trkpt lat="41.7491367" lon="12.9960683"><ele>228.0</ele><time>2026-05-02T07:46:04.498Z</time></trkpt><trkpt lat="41.7491467" lon="12.9957633"><ele>228.0</ele><time>2026-05-02T07:46:05.497Z</time></trkpt><trkpt lat="41.7491533" lon="12.99546"><ele>228.0</ele><time>2026-05-02T07:46:06.497Z</time></trkpt><trkpt lat="41.7491617" lon="12.9951583"><ele>227.5</ele><time>2026-05-02T07:46:07.497Z</time></trkpt><trkpt lat="41.7491783" lon="12.9948467"><ele>227.0</ele><time>2026-05-02T07:46:08.497Z</time></trkpt><trkpt lat="41.7492" lon="12.99454"><ele>227.0</ele><time>2026-05-02T07:46:09.497Z</time></trkpt><trkpt lat="41.7492283" lon="12.9942317"><ele>227.0</ele><time>2026-05-02T07:46:10.497Z</time></trkpt><trkpt lat="41.749255" lon="12.9939183"><ele>223.5</ele><time>2026-05-02T07:46:11.497Z</time></trkpt><trkpt lat="41.7492833" lon="12.9936017"><ele>220.0</ele><time>2026-05-02T07:46:12.497Z</time></trkpt><trkpt lat="41.74932" lon="12.9932883"><ele>220.5</ele><time>2026-05-02T07:46:13.497Z</time></trkpt><trkpt lat="41.7493633" lon="12.9929767"><ele>221.0</ele><time>2026-05-02T07:46:14.497Z</time></trkpt><trkpt lat="41.7494083" lon="12.9926683"><ele>222.0</ele><time>2026-05-02T07:46:15.497Z</time></trkpt><trkpt lat="41.749455" lon="12.992365"><ele>223.0</ele><time>2026-05-02T07:46:16.497Z</time></trkpt><trkpt lat="41.7495083" lon="12.9920583"><ele>223.0</ele><time>2026-05-02T07:46:17.497Z</time></trkpt><trkpt lat="41.7495583" lon="12.9917483"><ele>223.0</ele><time>2026-05-02T07:46:18.497Z</time></trkpt><trkpt lat="41.7496233" lon="12.99145"><ele>226.0</ele><time>2026-05-02T07:46:19.497Z</time></trkpt><trkpt lat="41.749695" lon="12.9911467"><ele>229.0</ele><time>2026-05-02T07:46:20.497Z</time></trkpt><trkpt lat="41.7497633" lon="12.990845"><ele>229.5</ele><time>2026-05-02T07:46:21.497Z</time></trkpt><trkpt lat="41.7498367" lon="12.9905467"><ele>230.0</ele><time>2026-05-02T07:46:22.497Z</time></trkpt><trkpt lat="41.7499167" lon="12.990245"><ele>227.5</ele><time>2026-05-02T07:46:23.497Z</time></trkpt><trkpt lat="41.75" lon="12.98995"><ele>225.0</ele><time>2026-05-02T07:46:24.497Z</time></trkpt><trkpt lat="41.7500833" lon="12.989655"><ele>225.0</ele><time>2026-05-02T07:46:25.497Z</time></trkpt><trkpt lat="41.75017" lon="12.98936"><ele>225.0</ele><time>2026-05-02T07:46:26.497Z</time></trkpt><trkpt lat="41.7502583" lon="12.989065"><ele>223.5</ele><time>2026-05-02T07:46:27.497Z</time></trkpt><trkpt lat="41.75035" lon="12.9887617"><ele>222.0</ele><time>2026-05-02T07:46:28.497Z</time></trkpt><trkpt lat="41.7504283" lon="12.9884683"><ele>217.0</ele><time>2026-05-02T07:46:29.497Z</time></trkpt><trkpt lat="41.7505133" lon="12.9881733"><ele>212.0</ele><time>2026-05-02T07:46:30.497Z</time></trkpt><trkpt lat="41.7505983" lon="12.987875"><ele>212.0</ele><time>2026-05-02T07:46:31.497Z</time></trkpt><trkpt lat="41.7506817" lon="12.9875783"><ele>212.0</ele><time>2026-05-02T07:46:32.497Z</time></trkpt><trkpt lat="41.7507667" lon="12.987285"><ele>211.5</ele><time>2026-05-02T07:46:33.498Z</time></trkpt><trkpt lat="41.75085" lon="12.9869883"><ele>211.0</ele><time>2026-05-02T07:46:34.497Z</time></trkpt><trkpt lat="41.750935" lon="12.986705"><ele>210.66666666666666</ele><time>2026-05-02T07:46:35.497Z</time></trkpt><trkpt lat="41.75102" lon="12.9864267"><ele>210.33333333333331</ele><time>2026-05-02T07:46:36.497Z</time></trkpt><trkpt lat="41.751095" lon="12.98615"><ele>210.0</ele><time>2026-05-02T07:46:37.497Z</time></trkpt><trkpt lat="41.7511783" lon="12.985875"><ele>209.66666666666669</ele><time>2026-05-02T07:46:38.497Z</time></trkpt><trkpt lat="41.751255" lon="12.9855967"><ele>209.33333333333334</ele><time>2026-05-02T07:46:39.497Z</time></trkpt><trkpt lat="41.7513383" lon="12.98532"><ele>209.0</ele><time>2026-05-02T07:46:40.497Z</time></trkpt><trkpt lat="41.751415" lon="12.9850417"><ele>209.66666666666669</ele><time>2026-05-02T07:46:41.497Z</time></trkpt><trkpt lat="41.751495" lon="12.9847583"><ele>210.33333333333331</ele><time>2026-05-02T07:46:42.497Z</time></trkpt><trkpt lat="41.751575" lon="12.984485"><ele>211.0</ele><time>2026-05-02T07:46:43.497Z</time></trkpt><trkpt lat="41.751655" lon="12.9842167"><ele>211.33333333333331</ele><time>2026-05-02T07:46:44.497Z</time></trkpt><trkpt lat="41.75173" lon="12.9839483"><ele>211.66666666666669</ele><time>2026-05-02T07:46:45.497Z</time></trkpt><trkpt lat="41.751805" lon="12.98368"><ele>212.0</ele><time>2026-05-02T07:46:46.497Z</time></trkpt><trkpt lat="41.751885" lon="12.983405"><ele>210.66666666666669</ele><time>2026-05-02T07:46:47.497Z</time></trkpt><trkpt lat="41.75197" lon="12.9831283"><ele>209.33333333333331</ele><time>2026-05-02T07:46:48.498Z</time></trkpt><trkpt lat="41.7520467" lon="12.9828617"><ele>208.0</ele><time>2026-05-02T07:46:49.497Z</time></trkpt><trkpt lat="41.7521267" lon="12.9825883"><ele>208.33333333333331</ele><time>2026-05-02T07:46:50.497Z</time></trkpt><trkpt lat="41.752205" lon="12.9823083"><ele>208.66666666666669</ele><time>2026-05-02T07:46:51.497Z</time></trkpt><trkpt lat="41.7522867" lon="12.98203"><ele>209.0</ele><time>2026-05-02T07:46:52.497Z</time></trkpt><trkpt lat="41.7523683" lon="12.9817467"><ele>214.5</ele><time>2026-05-02T07:46:53.497Z</time></trkpt><trkpt lat="41.75245" lon="12.9814617"><ele>220.0</ele><time>2026-05-02T07:46:54.498Z</time></trkpt><trkpt lat="41.752535" lon="12.981175"><ele>220.0</ele><time>2026-05-02T07:46:55.497Z</time></trkpt><trkpt lat="41.75262" lon="12.9808833"><ele>220.0</ele><time>2026-05-02T07:46:56.497Z</time></trkpt><trkpt lat="41.7527067" lon="12.980595"><ele>221.5</ele><time>2026-05-02T07:46:57.497Z</time></trkpt><trkpt lat="41.7527933" lon="12.9803"><ele>223.0</ele><time>2026-05-02T07:46:58.497Z</time></trkpt><trkpt lat="41.7528783" lon="12.98001"><ele>226.0</ele><time>2026-05-02T07:46:59.497Z</time></trkpt><trkpt lat="41.7529683" lon="12.9797167"><ele>229.0</ele><time>2026-05-02T07:47:00.497Z</time></trkpt><trkpt lat="41.753045" lon="12.9794183"><ele>229.0</ele><time>2026-05-02T07:47:01.497Z</time></trkpt><trkpt lat="41.753135" lon="12.9791267"><ele>229.0</ele><time>2026-05-02T07:47:02.497Z</time></trkpt><trkpt lat="41.753225" lon="12.97883"><ele>229.0</ele><time>2026-05-02T07:47:03.497Z</time></trkpt><trkpt lat="41.7533133" lon="12.9785367"><ele>229.0</ele><time>2026-05-02T07:47:04.497Z</time></trkpt><trkpt lat="41.7533933" lon="12.9782467"><ele>228.5</ele><time>2026-05-02T07:47:05.497Z</time></trkpt><trkpt lat="41.753475" lon="12.9779633"><ele>228.0</ele><time>2026-05-02T07:47:06.497Z</time></trkpt><trkpt lat="41.753555" lon="12.9776817"><ele>223.0</ele><time>2026-05-02T07:47:07.497Z</time></trkpt><trkpt lat="41.7536367" lon="12.9774033"><ele>218.0</ele><time>2026-05-02T07:47:08.498Z</time></trkpt><trkpt lat="41.7537167" lon="12.9771217"><ele>213.0</ele><time>2026-05-02T07:47:09.497Z</time></trkpt><trkpt lat="41.75379" lon="12.9768433"><ele>213.66666666666669</ele><time>2026-05-02T07:47:10.497Z</time></trkpt><trkpt lat="41.7538683" lon="12.97657"><ele>214.33333333333334</ele><time>2026-05-02T07:47:11.497Z</time></trkpt><trkpt lat="41.7539467" lon="12.9762883"><ele>215.0</ele><time>2026-05-02T07:47:12.497Z</time></trkpt><trkpt lat="41.75402" lon="12.9760167"><ele>215.66666666666669</ele><time>2026-05-02T07:47:13.498Z</time></trkpt><trkpt lat="41.7541" lon="12.9757433"><ele>216.33333333333331</ele><time>2026-05-02T07:47:14.497Z</time></trkpt><trkpt lat="41.7541783" lon="12.975465"><ele>217.0</ele><time>2026-05-02T07:47:15.497Z</time></trkpt><trkpt lat="41.7542617" lon="12.9751883"><ele>216.0</ele><time>2026-05-02T07:47:16.497Z</time></trkpt><trkpt lat="41.7543417" lon="12.974915"><ele>215.0</ele><time>2026-05-02T07:47:17.497Z</time></trkpt><trkpt lat="41.75442" lon="12.9746417"><ele>214.0</ele><time>2026-05-02T07:47:18.497Z</time></trkpt><trkpt lat="41.754505" lon="12.9743667"><ele>217.0</ele><time>2026-05-02T07:47:19.497Z</time></trkpt><trkpt lat="41.7545917" lon="12.9740833"><ele>220.0</ele><time>2026-05-02T07:47:20.497Z</time></trkpt><trkpt lat="41.7546717" lon="12.9738"><ele>220.0</ele><time>2026-05-02T07:47:21.497Z</time></trkpt><trkpt lat="41.7547583" lon="12.97351"><ele>220.0</ele><time>2026-05-02T07:47:22.498Z</time></trkpt><trkpt lat="41.7548383" lon="12.9732217"><ele>223.66666666666666</ele><time>2026-05-02T07:47:23.497Z</time></trkpt><trkpt lat="41.7549183" lon="12.972935"><ele>227.33333333333331</ele><time>2026-05-02T07:47:24.497Z</time></trkpt><trkpt lat="41.7549967" lon="12.97266"><ele>231.0</ele><time>2026-05-02T07:47:25.497Z</time></trkpt><trkpt lat="41.7550733" lon="12.9723833"><ele>235.0</ele><time>2026-05-02T07:47:26.497Z</time></trkpt><trkpt lat="41.7551583" lon="12.9721033"><ele>239.0</ele><time>2026-05-02T07:47:27.497Z</time></trkpt><trkpt lat="41.75524" lon="12.97182"><ele>233.33333333333334</ele><time>2026-05-02T07:47:28.498Z</time></trkpt><trkpt lat="41.7553233" lon="12.9715483"><ele>227.66666666666669</ele><time>2026-05-02T07:47:29.497Z</time></trkpt><trkpt lat="41.7554033" lon="12.9712783"><ele>222.0</ele><time>2026-05-02T07:47:30.497Z</time></trkpt><trkpt lat="41.7554833" lon="12.9710033"><ele>223.66666666666669</ele><time>2026-05-02T07:47:31.497Z</time></trkpt><trkpt lat="41.7555617" lon="12.9707283"><ele>225.33333333333334</ele><time>2026-05-02T07:47:32.497Z</time></trkpt><trkpt lat="41.7556417" lon="12.9704483"><ele>227.0</ele><time>2026-05-02T07:47:33.497Z</time></trkpt><trkpt lat="41.7557167" lon="12.970175"><ele>229.0</ele><time>2026-05-02T07:47:34.497Z</time></trkpt><trkpt lat="41.7557967" lon="12.9699033"><ele>231.0</ele><time>2026-05-02T07:47:35.497Z</time></trkpt><trkpt lat="41.755875" lon="12.9696333"><ele>233.0</ele><time>2026-05-02T07:47:36.497Z</time></trkpt><trkpt lat="41.7559533" lon="12.9693533"><ele>232.66666666666669</ele><time>2026-05-02T07:47:37.497Z</time></trkpt><trkpt lat="41.7560267" lon="12.96908"><ele>232.33333333333331</ele><time>2026-05-02T07:47:38.497Z</time></trkpt><trkpt lat="41.7561033" lon="12.9688033"><ele>232.0</ele><time>2026-05-02T07:47:39.497Z</time></trkpt><trkpt lat="41.75618" lon="12.968525"><ele>229.5</ele><time>2026-05-02T07:47:40.497Z</time></trkpt><trkpt lat="41.75627" lon="12.9682383"><ele>227.0</ele><time>2026-05-02T07:47:41.498Z</time></trkpt><trkpt lat="41.7563517" lon="12.9679567"><ele>227.0</ele><time>2026-05-02T07:47:42.497Z</time></trkpt><trkpt lat="41.756435" lon="12.9676783"><ele>227.0</ele><time>2026-05-02T07:47:43.497Z</time></trkpt><trkpt lat="41.7565133" lon="12.9673967"><ele>227.0</ele><time>2026-05-02T07:47:44.497Z</time></trkpt><trkpt lat="41.7565917" lon="12.9671217"><ele>230.33333333333334</ele><time>2026-05-02T07:47:45.497Z</time></trkpt><trkpt lat="41.75667" lon="12.966845"><ele>233.66666666666669</ele><time>2026-05-02T07:47:46.497Z</time></trkpt><trkpt lat="41.7567517" lon="12.9665683"><ele>237.0</ele><time>2026-05-02T07:47:47.497Z</time></trkpt><trkpt lat="41.75683" lon="12.9663"><ele>234.0</ele><time>2026-05-02T07:47:48.497Z</time></trkpt><trkpt lat="41.75691" lon="12.9660233"><ele>231.0</ele><time>2026-05-02T07:47:49.497Z</time></trkpt><trkpt lat="41.756995" lon="12.9657517"><ele>228.0</ele><time>2026-05-02T07:47:50.498Z</time></trkpt><trkpt lat="41.757075" lon="12.9654767"><ele>228.0</ele><time>2026-05-02T07:47:51.497Z</time></trkpt><trkpt lat="41.7571517" lon="12.9652017"><ele>228.0</ele><time>2026-05-02T07:47:52.497Z</time></trkpt><trkpt lat="41.7572117" lon="12.9649433"><ele>228.0</ele><time>2026-05-02T07:47:53.497Z</time></trkpt><trkpt lat="41.7573033" lon="12.9646617"><ele>232.0</ele><time>2026-05-02T07:47:54.497Z</time></trkpt><trkpt lat="41.7573867" lon="12.96438"><ele>236.0</ele><time>2026-05-02T07:47:55.497Z</time></trkpt><trkpt lat="41.7574667" lon="12.9641017"><ele>240.0</ele><time>2026-05-02T07:47:56.497Z</time></trkpt><trkpt lat="41.757535" lon="12.9638283"><ele>240.0</ele><time>2026-05-02T07:47:57.497Z</time></trkpt><trkpt lat="41.75761" lon="12.9635567"><ele>240.0</ele><time>2026-05-02T07:47:58.497Z</time></trkpt><trkpt lat="41.757685" lon="12.963285"><ele>240.0</ele><time>2026-05-02T07:47:59.497Z</time></trkpt><trkpt lat="41.7577533" lon="12.9630033"><ele>240.0</ele><time>2026-05-02T07:48:00.497Z</time></trkpt><trkpt lat="41.7578233" lon="12.96272"><ele>240.0</ele><time>2026-05-02T07:48:01.497Z</time></trkpt><trkpt lat="41.7578883" lon="12.9624317"><ele>240.0</ele><time>2026-05-02T07:48:02.497Z</time></trkpt><trkpt lat="41.7579617" lon="12.9621383"><ele>242.0</ele><time>2026-05-02T07:48:03.497Z</time></trkpt><trkpt lat="41.7580267" lon="12.9618433"><ele>244.0</ele><time>2026-05-02T07:48:04.497Z</time></trkpt><trkpt lat="41.7580867" lon="12.9615417"><ele>245.0</ele><time>2026-05-02T07:48:05.497Z</time></trkpt><trkpt lat="41.75815" lon="12.9612383"><ele>246.0</ele><time>2026-05-02T07:48:06.497Z</time></trkpt><trkpt lat="41.7582167" lon="12.9609433"><ele>246.0</ele><time>2026-05-02T07:48:07.497Z</time></trkpt><trkpt lat="41.7582817" lon="12.9606483"><ele>246.0</ele><time>2026-05-02T07:48:08.497Z</time></trkpt><trkpt lat="41.75835" lon="12.9603417"><ele>246.0</ele><time>2026-05-02T07:48:09.497Z</time></trkpt><trkpt lat="41.758415" lon="12.96004"><ele>246.0</ele><time>2026-05-02T07:48:10.497Z</time></trkpt><trkpt lat="41.7584833" lon="12.959735"><ele>241.5</ele><time>2026-05-02T07:48:11.497Z</time></trkpt><trkpt lat="41.758545" lon="12.9594283"><ele>237.0</ele><time>2026-05-02T07:48:12.497Z</time></trkpt><trkpt lat="41.7586167" lon="12.9591217"><ele>237.0</ele><time>2026-05-02T07:48:13.497Z</time></trkpt><trkpt lat="41.7586833" lon="12.9588167"><ele>237.0</ele><time>2026-05-02T07:48:14.497Z</time></trkpt><trkpt lat="41.75875" lon="12.9585133"><ele>239.0</ele><time>2026-05-02T07:48:15.497Z</time></trkpt><trkpt lat="41.7588183" lon="12.9582067"><ele>241.0</ele><time>2026-05-02T07:48:16.497Z</time></trkpt><trkpt lat="41.7588883" lon="12.9578983"><ele>241.0</ele><time>2026-05-02T07:48:17.497Z</time></trkpt><trkpt lat="41.7589583" lon="12.9575933"><ele>241.0</ele><time>2026-05-02T07:48:18.497Z</time></trkpt><trkpt lat="41.7590283" lon="12.957295"><ele>241.5</ele><time>2026-05-02T07:48:19.497Z</time></trkpt><trkpt lat="41.759105" lon="12.956995"><ele>242.0</ele><time>2026-05-02T07:48:20.497Z</time></trkpt><trkpt lat="41.75918" lon="12.9566967"><ele>243.0</ele><time>2026-05-02T07:48:21.497Z</time></trkpt><trkpt lat="41.759245" lon="12.9564067"><ele>244.0</ele><time>2026-05-02T07:48:22.497Z</time></trkpt><trkpt lat="41.7593133" lon="12.9561067"><ele>249.5</ele><time>2026-05-02T07:48:23.498Z</time></trkpt><trkpt lat="41.7593817" lon="12.95581"><ele>255.0</ele><time>2026-05-02T07:48:24.497Z</time></trkpt><trkpt lat="41.75945" lon="12.95552"><ele>255.0</ele><time>2026-05-02T07:48:25.497Z</time></trkpt><trkpt lat="41.759515" lon="12.95523"><ele>255.0</ele><time>2026-05-02T07:48:26.497Z</time></trkpt><trkpt lat="41.759575" lon="12.95494"><ele>254.66666666666669</ele><time>2026-05-02T07:48:27.497Z</time></trkpt><trkpt lat="41.75964" lon="12.9546533"><ele>254.33333333333334</ele><time>2026-05-02T07:48:28.497Z</time></trkpt><trkpt lat="41.759705" lon="12.954365"><ele>254.0</ele><time>2026-05-02T07:48:29.497Z</time></trkpt><trkpt lat="41.75977" lon="12.954075"><ele>253.0</ele><time>2026-05-02T07:48:30.497Z</time></trkpt><trkpt lat="41.7598317" lon="12.9537917"><ele>252.0</ele><time>2026-05-02T07:48:31.498Z</time></trkpt><trkpt lat="41.7598967" lon="12.9535033"><ele>251.0</ele><time>2026-05-02T07:48:32.497Z</time></trkpt><trkpt lat="41.759965" lon="12.953215"><ele>249.33333333333334</ele><time>2026-05-02T07:48:33.497Z</time></trkpt><trkpt lat="41.7600333" lon="12.9529267"><ele>247.66666666666669</ele><time>2026-05-02T07:48:34.497Z</time></trkpt><trkpt lat="41.7600933" lon="12.9526383"><ele>246.0</ele><time>2026-05-02T07:48:35.497Z</time></trkpt><trkpt lat="41.7601517" lon="12.9523533"><ele>245.66666666666669</ele><time>2026-05-02T07:48:36.497Z</time></trkpt><trkpt lat="41.76021" lon="12.9520783"><ele>245.33333333333334</ele><time>2026-05-02T07:48:37.498Z</time></trkpt><trkpt lat="41.7602817" lon="12.9517917"><ele>245.0</ele><time>2026-05-02T07:48:38.497Z</time></trkpt><trkpt lat="41.7603517" lon="12.9515017"><ele>244.33333333333334</ele><time>2026-05-02T07:48:39.497Z</time></trkpt><trkpt lat="41.7604133" lon="12.9512183"><ele>243.66666666666669</ele><time>2026-05-02T07:48:40.498Z</time></trkpt><trkpt lat="41.7604683" lon="12.9509383"><ele>243.0</ele><time>2026-05-02T07:48:41.497Z</time></trkpt><trkpt lat="41.7605283" lon="12.950655"><ele>243.0</ele><time>2026-05-02T07:48:42.497Z</time></trkpt><trkpt lat="41.7605933" lon="12.950365"><ele>243.0</ele><time>2026-05-02T07:48:43.498Z</time></trkpt><trkpt lat="41.76066" lon="12.9500767"><ele>245.33333333333331</ele><time>2026-05-02T07:48:44.498Z</time></trkpt><trkpt lat="41.76072" lon="12.9497917"><ele>247.66666666666666</ele><time>2026-05-02T07:48:45.497Z</time></trkpt><trkpt lat="41.7607867" lon="12.949505"><ele>250.0</ele><time>2026-05-02T07:48:46.497Z</time></trkpt><trkpt lat="41.7608517" lon="12.9492167"><ele>251.33333333333331</ele><time>2026-05-02T07:48:47.497Z</time></trkpt><trkpt lat="41.760915" lon="12.94894"><ele>252.66666666666669</ele><time>2026-05-02T07:48:48.497Z</time></trkpt><trkpt lat="41.7609817" lon="12.94865"><ele>254.0</ele><time>2026-05-02T07:48:49.497Z</time></trkpt><trkpt lat="41.7610467" lon="12.9483633"><ele>256.0</ele><time>2026-05-02T07:48:50.498Z</time></trkpt><trkpt lat="41.7611083" lon="12.9480767"><ele>258.0</ele><time>2026-05-02T07:48:51.497Z</time></trkpt><trkpt lat="41.7611783" lon="12.9477883"><ele>260.0</ele><time>2026-05-02T07:48:52.497Z</time></trkpt><trkpt lat="41.7612433" lon="12.9475033"><ele>261.33333333333337</ele><time>2026-05-02T07:48:53.497Z</time></trkpt><trkpt lat="41.7613033" lon="12.9472233"><ele>262.6666666666667</ele><time>2026-05-02T07:48:54.498Z</time></trkpt><trkpt lat="41.7613633" lon="12.94694"><ele>264.0</ele><time>2026-05-02T07:48:55.497Z</time></trkpt><trkpt lat="41.7614233" lon="12.9466567"><ele>264.0</ele><time>2026-05-02T07:48:56.497Z</time></trkpt><trkpt lat="41.7614867" lon="12.9463717"><ele>264.0</ele><time>2026-05-02T07:48:57.497Z</time></trkpt><trkpt lat="41.7615517" lon="12.9460767"><ele>264.0</ele><time>2026-05-02T07:48:58.497Z</time></trkpt><trkpt lat="41.761615" lon="12.94579"><ele>264.0</ele><time>2026-05-02T07:48:59.497Z</time></trkpt><trkpt lat="41.761675" lon="12.9455017"><ele>264.0</ele><time>2026-05-02T07:49:00.497Z</time></trkpt><trkpt lat="41.7617367" lon="12.9452133"><ele>264.5</ele><time>2026-05-02T07:49:01.497Z</time></trkpt><trkpt lat="41.7618017" lon="12.944925"><ele>265.0</ele><time>2026-05-02T07:49:02.497Z</time></trkpt><trkpt lat="41.7618667" lon="12.944625"><ele>263.0</ele><time>2026-05-02T07:49:03.497Z</time></trkpt><trkpt lat="41.7619317" lon="12.944335"><ele>261.0</ele><time>2026-05-02T07:49:04.498Z</time></trkpt><trkpt lat="41.762" lon="12.9440383"><ele>260.5</ele><time>2026-05-02T07:49:05.497Z</time></trkpt><trkpt lat="41.7620667" lon="12.9437467"><ele>260.0</ele><time>2026-05-02T07:49:06.497Z</time></trkpt><trkpt lat="41.7621367" lon="12.943455"><ele>260.0</ele><time>2026-05-02T07:49:07.497Z</time></trkpt><trkpt lat="41.7622033" lon="12.9431667"><ele>260.0</ele><time>2026-05-02T07:49:08.497Z</time></trkpt><trkpt lat="41.7622617" lon="12.9428817"><ele>260.0</ele><time>2026-05-02T07:49:09.497Z</time></trkpt><trkpt lat="41.7623267" lon="12.9425983"><ele>260.0</ele><time>2026-05-02T07:49:10.498Z</time></trkpt><trkpt lat="41.7623867" lon="12.94232"><ele>260.0</ele><time>2026-05-02T07:49:11.497Z</time></trkpt><trkpt lat="41.7624467" lon="12.9420317"><ele>260.0</ele><time>2026-05-02T07:49:12.497Z</time></trkpt><trkpt lat="41.7625033" lon="12.94175"><ele>260.0</ele><time>2026-05-02T07:49:13.497Z</time></trkpt><trkpt lat="41.762565" lon="12.941465"><ele>260.0</ele><time>2026-05-02T07:49:14.497Z</time></trkpt><trkpt lat="41.7626283" lon="12.94118"><ele>260.0</ele><time>2026-05-02T07:49:15.497Z</time></trkpt><trkpt lat="41.7626917" lon="12.9408983"><ele>261.33333333333337</ele><time>2026-05-02T07:49:16.497Z</time></trkpt><trkpt lat="41.7627533" lon="12.940615"><ele>262.6666666666667</ele><time>2026-05-02T07:49:17.497Z</time></trkpt><trkpt lat="41.762815" lon="12.9403317"><ele>264.0</ele><time>2026-05-02T07:49:18.497Z</time></trkpt><trkpt lat="41.7628767" lon="12.94006"><ele>265.0</ele><time>2026-05-02T07:49:19.497Z</time></trkpt><trkpt lat="41.7629417" lon="12.93978"><ele>266.0</ele><time>2026-05-02T07:49:20.498Z</time></trkpt><trkpt lat="41.763005" lon="12.9394967"><ele>267.0</ele><time>2026-05-02T07:49:21.497Z</time></trkpt><trkpt lat="41.76307" lon="12.9392117"><ele>267.3333333333333</ele><time>2026-05-02T07:49:22.497Z</time></trkpt><trkpt lat="41.76313" lon="12.9389317"><ele>267.66666666666663</ele><time>2026-05-02T07:49:23.497Z</time></trkpt><trkpt lat="41.76319" lon="12.9386517"><ele>268.0</ele><time>2026-05-02T07:49:24.497Z</time></trkpt><trkpt lat="41.76325" lon="12.93837"><ele>268.3333333333333</ele><time>2026-05-02T07:49:25.497Z</time></trkpt><trkpt lat="41.76331" lon="12.9380883"><ele>268.6666666666667</ele><time>2026-05-02T07:49:26.497Z</time></trkpt><trkpt lat="41.763375" lon="12.937815"><ele>269.0</ele><time>2026-05-02T07:49:27.497Z</time></trkpt><trkpt lat="41.7634333" lon="12.9375367"><ele>269.0</ele><time>2026-05-02T07:49:28.497Z</time></trkpt><trkpt lat="41.763495" lon="12.93727"><ele>269.0</ele><time>2026-05-02T07:49:29.497Z</time></trkpt><trkpt lat="41.76355" lon="12.9369933"><ele>269.0</ele><time>2026-05-02T07:49:30.497Z</time></trkpt><trkpt lat="41.7636133" lon="12.9367133"><ele>270.6666666666667</ele><time>2026-05-02T07:49:31.497Z</time></trkpt><trkpt lat="41.7636733" lon="12.9364317"><ele>272.3333333333333</ele><time>2026-05-02T07:49:32.497Z</time></trkpt><trkpt lat="41.7637333" lon="12.9361533"><ele>274.0</ele><time>2026-05-02T07:49:33.497Z</time></trkpt><trkpt lat="41.7638017" lon="12.93587"><ele>274.0</ele><time>2026-05-02T07:49:34.497Z</time></trkpt><trkpt lat="41.7638633" lon="12.9355917"><ele>274.0</ele><time>2026-05-02T07:49:35.497Z</time></trkpt><trkpt lat="41.76393" lon="12.9353133"><ele>274.0</ele><time>2026-05-02T07:49:36.497Z</time></trkpt><trkpt lat="41.7639983" lon="12.935035"><ele>274.0</ele><time>2026-05-02T07:49:37.497Z</time></trkpt><trkpt lat="41.7640567" lon="12.934755"><ele>274.0</ele><time>2026-05-02T07:49:38.497Z</time></trkpt><trkpt lat="41.7641133" lon="12.9344767"><ele>274.0</ele><time>2026-05-02T07:49:39.497Z</time></trkpt><trkpt lat="41.76417" lon="12.9341983"><ele>274.66666666666663</ele><time>2026-05-02T07:49:40.497Z</time></trkpt><trkpt lat="41.7642283" lon="12.9339117"><ele>275.3333333333333</ele><time>2026-05-02T07:49:41.498Z</time></trkpt><trkpt lat="41.7642883" lon="12.933625"><ele>276.0</ele><time>2026-05-02T07:49:42.497Z</time></trkpt><trkpt lat="41.7643517" lon="12.93334"><ele>275.0</ele><time>2026-05-02T07:49:43.497Z</time></trkpt><trkpt lat="41.7644183" lon="12.9330517"><ele>274.0</ele><time>2026-05-02T07:49:44.497Z</time></trkpt><trkpt lat="41.7644783" lon="12.9327783"><ele>273.0</ele><time>2026-05-02T07:49:45.497Z</time></trkpt><trkpt lat="41.76454" lon="12.9324933"><ele>273.0</ele><time>2026-05-02T07:49:46.497Z</time></trkpt><trkpt lat="41.7646033" lon="12.9322117"><ele>273.0</ele><time>2026-05-02T07:49:47.497Z</time></trkpt><trkpt lat="41.7646633" lon="12.9319283"><ele>273.0</ele><time>2026-05-02T07:49:48.497Z</time></trkpt><trkpt lat="41.7647317" lon="12.9316467"><ele>272.3333333333333</ele><time>2026-05-02T07:49:49.497Z</time></trkpt><trkpt lat="41.7648" lon="12.9313667"><ele>271.66666666666663</ele><time>2026-05-02T07:49:50.497Z</time></trkpt><trkpt lat="41.7648633" lon="12.9310817"><ele>271.0</ele><time>2026-05-02T07:49:51.498Z</time></trkpt><trkpt lat="41.7649267" lon="12.930795"><ele>271.0</ele><time>2026-05-02T07:49:52.497Z</time></trkpt><trkpt lat="41.7649883" lon="12.9305117"><ele>271.0</ele><time>2026-05-02T07:49:53.497Z</time></trkpt><trkpt lat="41.7650483" lon="12.9302333"><ele>271.0</ele><time>2026-05-02T07:49:54.497Z</time></trkpt><trkpt lat="41.7651117" lon="12.9299467"><ele>271.0</ele><time>2026-05-02T07:49:55.497Z</time></trkpt><trkpt lat="41.76517" lon="12.9296617"><ele>271.0</ele><time>2026-05-02T07:49:56.497Z</time></trkpt><trkpt lat="41.7652367" lon="12.9293783"><ele>271.0</ele><time>2026-05-02T07:49:57.497Z</time></trkpt><trkpt lat="41.7652983" lon="12.9290917"><ele>271.0</ele><time>2026-05-02T07:49:58.497Z</time></trkpt><trkpt lat="41.7653617" lon="12.9288067"><ele>271.0</ele><time>2026-05-02T07:49:59.497Z</time></trkpt><trkpt lat="41.76543" lon="12.9285167"><ele>271.0</ele><time>2026-05-02T07:50:00.497Z</time></trkpt><trkpt lat="41.7654933" lon="12.9282333"><ele>272.0</ele><time>2026-05-02T07:50:01.497Z</time></trkpt><trkpt lat="41.7655567" lon="12.927955"><ele>273.0</ele><time>2026-05-02T07:50:02.497Z</time></trkpt><trkpt lat="41.7656133" lon="12.92767"><ele>274.0</ele><time>2026-05-02T07:50:03.497Z</time></trkpt><trkpt lat="41.7656717" lon="12.9273867"><ele>275.3333333333333</ele><time>2026-05-02T07:50:04.497Z</time></trkpt><trkpt lat="41.7657333" lon="12.9271083"><ele>276.6666666666667</ele><time>2026-05-02T07:50:05.497Z</time></trkpt><trkpt lat="41.765795" lon="12.926825"><ele>278.0</ele><time>2026-05-02T07:50:06.497Z</time></trkpt><trkpt lat="41.7658617" lon="12.9265417"><ele>278.0</ele><time>2026-05-02T07:50:07.497Z</time></trkpt><trkpt lat="41.7659217" lon="12.9262633"><ele>278.0</ele><time>2026-05-02T07:50:08.497Z</time></trkpt><trkpt lat="41.7659867" lon="12.9259883"><ele>278.0</ele><time>2026-05-02T07:50:09.497Z</time></trkpt><trkpt lat="41.7660467" lon="12.92571"><ele>278.0</ele><time>2026-05-02T07:50:10.497Z</time></trkpt><trkpt lat="41.7661083" lon="12.9254317"><ele>278.0</ele><time>2026-05-02T07:50:11.497Z</time></trkpt><trkpt lat="41.76623" lon="12.9248817"><ele>278.33333333333337</ele><time>2026-05-02T07:50:13.497Z</time></trkpt><trkpt lat="41.7662867" lon="12.924615"><ele>278.6666666666667</ele><time>2026-05-02T07:50:14.497Z</time></trkpt><trkpt lat="41.7663467" lon="12.9243467"><ele>279.0</ele><time>2026-05-02T07:50:15.497Z</time></trkpt><trkpt lat="41.7664017" lon="12.9240783"><ele>280.3333333333333</ele><time>2026-05-02T07:50:16.497Z</time></trkpt><trkpt lat="41.7664633" lon="12.9238033"><ele>281.66666666666663</ele><time>2026-05-02T07:50:17.497Z</time></trkpt><trkpt lat="41.7665217" lon="12.92353"><ele>283.0</ele><time>2026-05-02T07:50:18.497Z</time></trkpt><trkpt lat="41.7665833" lon="12.9232517"><ele>283.0</ele><time>2026-05-02T07:50:19.498Z</time></trkpt><trkpt lat="41.7666433" lon="12.9229817"><ele>283.0</ele><time>2026-05-02T07:50:20.497Z</time></trkpt><trkpt lat="41.7667" lon="12.9227083"><ele>283.0</ele><time>2026-05-02T07:50:21.497Z</time></trkpt><trkpt lat="41.7667583" lon="12.9224333"><ele>283.0</ele><time>2026-05-02T07:50:22.497Z</time></trkpt><trkpt lat="41.7668167" lon="12.92216"><ele>283.0</ele><time>2026-05-02T07:50:23.497Z</time></trkpt><trkpt lat="41.7668783" lon="12.9218917"><ele>283.0</ele><time>2026-05-02T07:50:24.497Z</time></trkpt><trkpt lat="41.7669417" lon="12.9216183"><ele>283.3333333333333</ele><time>2026-05-02T07:50:25.497Z</time></trkpt><trkpt lat="41.7670017" lon="12.92134"><ele>283.6666666666667</ele><time>2026-05-02T07:50:26.497Z</time></trkpt><trkpt lat="41.7670667" lon="12.9210733"><ele>284.0</ele><time>2026-05-02T07:50:27.497Z</time></trkpt><trkpt lat="41.7671267" lon="12.9208083"><ele>284.0</ele><time>2026-05-02T07:50:28.497Z</time></trkpt><trkpt lat="41.7671867" lon="12.920555"><ele>284.0</ele><time>2026-05-02T07:50:29.497Z</time></trkpt><trkpt lat="41.7672383" lon="12.9202967"><ele>284.0</ele><time>2026-05-02T07:50:30.497Z</time></trkpt><trkpt lat="41.7672933" lon="12.9200367"><ele>284.0</ele><time>2026-05-02T07:50:31.497Z</time></trkpt><trkpt lat="41.7673533" lon="12.9197783"><ele>284.0</ele><time>2026-05-02T07:50:32.497Z</time></trkpt><trkpt lat="41.76741" lon="12.919525"><ele>284.0</ele><time>2026-05-02T07:50:33.497Z</time></trkpt><trkpt lat="41.7674667" lon="12.9192667"><ele>284.33333333333337</ele><time>2026-05-02T07:50:34.497Z</time></trkpt><trkpt lat="41.767525" lon="12.919005"><ele>284.6666666666667</ele><time>2026-05-02T07:50:35.497Z</time></trkpt><trkpt lat="41.7675783" lon="12.91874"><ele>285.0</ele><time>2026-05-02T07:50:36.497Z</time></trkpt><trkpt lat="41.7676283" lon="12.9184767"><ele>285.3333333333333</ele><time>2026-05-02T07:50:37.497Z</time></trkpt><trkpt lat="41.767685" lon="12.9182067"><ele>285.66666666666663</ele><time>2026-05-02T07:50:38.497Z</time></trkpt><trkpt lat="41.7677467" lon="12.9179417"><ele>286.0</ele><time>2026-05-02T07:50:39.498Z</time></trkpt><trkpt lat="41.7678117" lon="12.9176783"><ele>286.66666666666663</ele><time>2026-05-02T07:50:40.497Z</time></trkpt><trkpt lat="41.7678717" lon="12.9174167"><ele>287.3333333333333</ele><time>2026-05-02T07:50:41.497Z</time></trkpt><trkpt lat="41.7679233" lon="12.91715"><ele>288.0</ele><time>2026-05-02T07:50:42.497Z</time></trkpt><trkpt lat="41.7679833" lon="12.9168883"><ele>288.6666666666667</ele><time>2026-05-02T07:50:43.497Z</time></trkpt><trkpt lat="41.7680433" lon="12.91663"><ele>289.33333333333337</ele><time>2026-05-02T07:50:44.497Z</time></trkpt><trkpt lat="41.7681033" lon="12.9163617"><ele>290.0</ele><time>2026-05-02T07:50:45.497Z</time></trkpt><trkpt lat="41.7681617" lon="12.91609"><ele>289.6666666666667</ele><time>2026-05-02T07:50:46.497Z</time></trkpt><trkpt lat="41.7682217" lon="12.9158167"><ele>289.3333333333333</ele><time>2026-05-02T07:50:47.497Z</time></trkpt><trkpt lat="41.7682783" lon="12.9155517"><ele>289.0</ele><time>2026-05-02T07:50:48.497Z</time></trkpt><trkpt lat="41.768335" lon="12.9152767"><ele>289.3333333333333</ele><time>2026-05-02T07:50:49.497Z</time></trkpt><trkpt lat="41.7683983" lon="12.915005"><ele>289.6666666666667</ele><time>2026-05-02T07:50:50.497Z</time></trkpt><trkpt lat="41.768465" lon="12.914735"><ele>290.0</ele><time>2026-05-02T07:50:51.497Z</time></trkpt><trkpt lat="41.76853" lon="12.9144567"><ele>293.6666666666667</ele><time>2026-05-02T07:50:52.497Z</time></trkpt><trkpt lat="41.76859" lon="12.91418"><ele>297.3333333333333</ele><time>2026-05-02T07:50:53.497Z</time></trkpt><trkpt lat="41.76865" lon="12.9139033"><ele>301.0</ele><time>2026-05-02T07:50:54.498Z</time></trkpt><trkpt lat="41.768705" lon="12.9136317"><ele>301.66666666666663</ele><time>2026-05-02T07:50:55.497Z</time></trkpt><trkpt lat="41.7687667" lon="12.9133583"><ele>302.3333333333333</ele><time>2026-05-02T07:50:56.498Z</time></trkpt><trkpt lat="41.768825" lon="12.91308"><ele>303.0</ele><time>2026-05-02T07:50:57.497Z</time></trkpt><trkpt lat="41.7688817" lon="12.9128067"><ele>302.6666666666667</ele><time>2026-05-02T07:50:58.497Z</time></trkpt><trkpt lat="41.7689417" lon="12.9125267"><ele>302.33333333333337</ele><time>2026-05-02T07:50:59.498Z</time></trkpt><trkpt lat="41.769005" lon="12.9122517"><ele>302.0</ele><time>2026-05-02T07:51:00.497Z</time></trkpt><trkpt lat="41.7690633" lon="12.911975"><ele>300.33333333333337</ele><time>2026-05-02T07:51:01.497Z</time></trkpt><trkpt lat="41.76912" lon="12.911695"><ele>298.6666666666667</ele><time>2026-05-02T07:51:02.497Z</time></trkpt><trkpt lat="41.769175" lon="12.9114167"><ele>297.0</ele><time>2026-05-02T07:51:03.497Z</time></trkpt><trkpt lat="41.769235" lon="12.9111467"><ele>297.0</ele><time>2026-05-02T07:51:04.497Z</time></trkpt><trkpt lat="41.7692933" lon="12.9108683"><ele>297.0</ele><time>2026-05-02T07:51:05.498Z</time></trkpt><trkpt lat="41.76935" lon="12.910585"><ele>297.0</ele><time>2026-05-02T07:51:06.497Z</time></trkpt><trkpt lat="41.7694117" lon="12.910315"><ele>297.6666666666667</ele><time>2026-05-02T07:51:07.497Z</time></trkpt><trkpt lat="41.76948" lon="12.9100533"><ele>298.33333333333337</ele><time>2026-05-02T07:51:08.497Z</time></trkpt><trkpt lat="41.7695433" lon="12.9097817"><ele>299.0</ele><time>2026-05-02T07:51:09.497Z</time></trkpt><trkpt lat="41.7696117" lon="12.909505"><ele>298.33333333333337</ele><time>2026-05-02T07:51:10.497Z</time></trkpt><trkpt lat="41.7696733" lon="12.9092283"><ele>297.6666666666667</ele><time>2026-05-02T07:51:11.497Z</time></trkpt><trkpt lat="41.7697333" lon="12.9089533"><ele>297.0</ele><time>2026-05-02T07:51:12.497Z</time></trkpt><trkpt lat="41.7697967" lon="12.9086783"><ele>297.0</ele><time>2026-05-02T07:51:13.497Z</time></trkpt><trkpt lat="41.7698583" lon="12.9084033"><ele>297.0</ele><time>2026-05-02T07:51:14.497Z</time></trkpt><trkpt lat="41.7699233" lon="12.9081233"><ele>297.0</ele><time>2026-05-02T07:51:15.497Z</time></trkpt><trkpt lat="41.7699833" lon="12.907845"><ele>298.6666666666667</ele><time>2026-05-02T07:51:16.497Z</time></trkpt><trkpt lat="41.770045" lon="12.9075617"><ele>300.33333333333337</ele><time>2026-05-02T07:51:17.497Z</time></trkpt><trkpt lat="41.7701067" lon="12.9072833"><ele>302.0</ele><time>2026-05-02T07:51:18.497Z</time></trkpt><trkpt lat="41.77017" lon="12.9070033"><ele>300.6666666666667</ele><time>2026-05-02T07:51:19.497Z</time></trkpt><trkpt lat="41.770235" lon="12.9067233"><ele>299.3333333333333</ele><time>2026-05-02T07:51:20.497Z</time></trkpt><trkpt lat="41.7702967" lon="12.9064367"><ele>298.0</ele><time>2026-05-02T07:51:21.497Z</time></trkpt><trkpt lat="41.770355" lon="12.9061533"><ele>298.0</ele><time>2026-05-02T07:51:22.498Z</time></trkpt><trkpt lat="41.7704167" lon="12.90587"><ele>298.0</ele><time>2026-05-02T07:51:23.497Z</time></trkpt><trkpt lat="41.77048" lon="12.9055833"><ele>298.0</ele><time>2026-05-02T07:51:24.497Z</time></trkpt><trkpt lat="41.7705433" lon="12.9053017"><ele>299.3333333333333</ele><time>2026-05-02T07:51:25.497Z</time></trkpt><trkpt lat="41.7706117" lon="12.905015"><ele>300.6666666666667</ele><time>2026-05-02T07:51:26.497Z</time></trkpt><trkpt lat="41.7706783" lon="12.9047283"><ele>302.0</ele><time>2026-05-02T07:51:27.497Z</time></trkpt><trkpt lat="41.77074" lon="12.90444"><ele>303.0</ele><time>2026-05-02T07:51:28.497Z</time></trkpt><trkpt lat="41.7707983" lon="12.90415"><ele>304.0</ele><time>2026-05-02T07:51:29.498Z</time></trkpt><trkpt lat="41.7708617" lon="12.9038633"><ele>305.0</ele><time>2026-05-02T07:51:30.498Z</time></trkpt><trkpt lat="41.770925" lon="12.9035817"><ele>306.0</ele><time>2026-05-02T07:51:31.497Z</time></trkpt><trkpt lat="41.77099" lon="12.9032883"><ele>307.0</ele><time>2026-05-02T07:51:32.497Z</time></trkpt><trkpt lat="41.771055" lon="12.903005"><ele>308.0</ele><time>2026-05-02T07:51:33.497Z</time></trkpt><trkpt lat="41.7711183" lon="12.9027117"><ele>309.0</ele><time>2026-05-02T07:51:34.497Z</time></trkpt><trkpt lat="41.7711833" lon="12.9024233"><ele>310.0</ele><time>2026-05-02T07:51:35.497Z</time></trkpt><trkpt lat="41.771235" lon="12.9021383"><ele>311.0</ele><time>2026-05-02T07:51:36.497Z</time></trkpt><trkpt lat="41.771295" lon="12.90185"><ele>311.6666666666667</ele><time>2026-05-02T07:51:37.497Z</time></trkpt><trkpt lat="41.771355" lon="12.901565"><ele>312.3333333333333</ele><time>2026-05-02T07:51:38.497Z</time></trkpt><trkpt lat="41.7714167" lon="12.9012817"><ele>313.0</ele><time>2026-05-02T07:51:39.497Z</time></trkpt><trkpt lat="41.7714783" lon="12.901"><ele>314.0</ele><time>2026-05-02T07:51:40.497Z</time></trkpt><trkpt lat="41.77155" lon="12.9007117"><ele>315.0</ele><time>2026-05-02T07:51:41.497Z</time></trkpt><trkpt lat="41.77161" lon="12.900425"><ele>316.0</ele><time>2026-05-02T07:51:42.497Z</time></trkpt><trkpt lat="41.7716767" lon="12.9001483"><ele>316.3333333333333</ele><time>2026-05-02T07:51:43.497Z</time></trkpt><trkpt lat="41.7717383" lon="12.899865"><ele>316.6666666666667</ele><time>2026-05-02T07:51:44.497Z</time></trkpt><trkpt lat="41.7718067" lon="12.8995883"><ele>317.0</ele><time>2026-05-02T07:51:45.498Z</time></trkpt><trkpt lat="41.7718617" lon="12.8993083"><ele>314.0</ele><time>2026-05-02T07:51:46.497Z</time></trkpt><trkpt lat="41.77192" lon="12.8990233"><ele>311.0</ele><time>2026-05-02T07:51:47.497Z</time></trkpt><trkpt lat="41.7719817" lon="12.8987417"><ele>308.0</ele><time>2026-05-02T07:51:48.497Z</time></trkpt><trkpt lat="41.7720433" lon="12.8984617"><ele>309.0</ele><time>2026-05-02T07:51:49.497Z</time></trkpt><trkpt lat="41.7721067" lon="12.8981817"><ele>310.0</ele><time>2026-05-02T07:51:50.497Z</time></trkpt><trkpt lat="41.7721717" lon="12.8979067"><ele>311.0</ele><time>2026-05-02T07:51:51.497Z</time></trkpt><trkpt lat="41.7722333" lon="12.897625"><ele>311.33333333333337</ele><time>2026-05-02T07:51:52.497Z</time></trkpt><trkpt lat="41.7722967" lon="12.8973483"><ele>311.6666666666667</ele><time>2026-05-02T07:51:53.497Z</time></trkpt><trkpt lat="41.772355" lon="12.8970633"><ele>312.0</ele><time>2026-05-02T07:51:54.497Z</time></trkpt><trkpt lat="41.7724133" lon="12.8967883"><ele>312.6666666666667</ele><time>2026-05-02T07:51:55.497Z</time></trkpt><trkpt lat="41.7724767" lon="12.89651"><ele>313.33333333333337</ele><time>2026-05-02T07:51:56.497Z</time></trkpt><trkpt lat="41.7725417" lon="12.8962317"><ele>314.0</ele><time>2026-05-02T07:51:57.497Z</time></trkpt><trkpt lat="41.7726083" lon="12.895955"><ele>314.0</ele><time>2026-05-02T07:51:58.497Z</time></trkpt><trkpt lat="41.7726667" lon="12.895675"><ele>314.0</ele><time>2026-05-02T07:51:59.497Z</time></trkpt><trkpt lat="41.77273" lon="12.8953867"><ele>314.0</ele><time>2026-05-02T07:52:00.497Z</time></trkpt><trkpt lat="41.7727933" lon="12.8951033"><ele>314.0</ele><time>2026-05-02T07:52:01.497Z</time></trkpt><trkpt lat="41.7728567" lon="12.8948167"><ele>314.0</ele><time>2026-05-02T07:52:02.497Z</time></trkpt><trkpt lat="41.7729167" lon="12.8945317"><ele>314.0</ele><time>2026-05-02T07:52:03.497Z</time></trkpt><trkpt lat="41.77298" lon="12.894245"><ele>314.0</ele><time>2026-05-02T07:52:04.497Z</time></trkpt><trkpt lat="41.7730417" lon="12.8939533"><ele>314.0</ele><time>2026-05-02T07:52:05.497Z</time></trkpt><trkpt lat="41.7731017" lon="12.8936617"><ele>314.6666666666667</ele><time>2026-05-02T07:52:06.497Z</time></trkpt><trkpt lat="41.7731617" lon="12.8933733"><ele>315.3333333333333</ele><time>2026-05-02T07:52:07.497Z</time></trkpt><trkpt lat="41.77323" lon="12.893085"><ele>316.0</ele><time>2026-05-02T07:52:08.497Z</time></trkpt><trkpt lat="41.7732983" lon="12.8927983"><ele>316.66666666666663</ele><time>2026-05-02T07:52:09.497Z</time></trkpt><trkpt lat="41.7733583" lon="12.8925083"><ele>317.3333333333333</ele><time>2026-05-02T07:52:10.497Z</time></trkpt><trkpt lat="41.77342" lon="12.8922217"><ele>318.0</ele><time>2026-05-02T07:52:11.497Z</time></trkpt><trkpt lat="41.7734867" lon="12.8919383"><ele>318.0</ele><time>2026-05-02T07:52:12.497Z</time></trkpt><trkpt lat="41.7735483" lon="12.89165"><ele>318.0</ele><time>2026-05-02T07:52:13.497Z</time></trkpt><trkpt lat="41.773615" lon="12.8913617"><ele>318.0</ele><time>2026-05-02T07:52:14.497Z</time></trkpt><trkpt lat="41.7736817" lon="12.8910833"><ele>319.0</ele><time>2026-05-02T07:52:15.497Z</time></trkpt><trkpt lat="41.773745" lon="12.8907933"><ele>320.0</ele><time>2026-05-02T07:52:16.497Z</time></trkpt><trkpt lat="41.7738033" lon="12.8905033"><ele>321.0</ele><time>2026-05-02T07:52:17.497Z</time></trkpt><trkpt lat="41.773865" lon="12.8902167"><ele>322.0</ele><time>2026-05-02T07:52:18.497Z</time></trkpt><trkpt lat="41.7739283" lon="12.8899283"><ele>323.0</ele><time>2026-05-02T07:52:19.497Z</time></trkpt><trkpt lat="41.77399" lon="12.889645"><ele>324.0</ele><time>2026-05-02T07:52:20.497Z</time></trkpt><trkpt lat="41.7740517" lon="12.889355"><ele>324.5</ele><time>2026-05-02T07:52:21.498Z</time></trkpt><trkpt lat="41.7741167" lon="12.8890633"><ele>325.0</ele><time>2026-05-02T07:52:22.497Z</time></trkpt><trkpt lat="41.77418" lon="12.8887717"><ele>325.0</ele><time>2026-05-02T07:52:23.497Z</time></trkpt><trkpt lat="41.7742433" lon="12.8884867"><ele>325.0</ele><time>2026-05-02T07:52:24.497Z</time></trkpt><trkpt lat="41.7743117" lon="12.8881983"><ele>325.0</ele><time>2026-05-02T07:52:25.497Z</time></trkpt><trkpt lat="41.7743783" lon="12.8879117"><ele>324.66666666666663</ele><time>2026-05-02T07:52:26.497Z</time></trkpt><trkpt lat="41.7744483" lon="12.887625"><ele>324.3333333333333</ele><time>2026-05-02T07:52:27.497Z</time></trkpt><trkpt lat="41.77451" lon="12.8873367"><ele>324.0</ele><time>2026-05-02T07:52:28.497Z</time></trkpt><trkpt lat="41.7745717" lon="12.8870433"><ele>323.5</ele><time>2026-05-02T07:52:29.498Z</time></trkpt><trkpt lat="41.77464" lon="12.886745"><ele>323.0</ele><time>2026-05-02T07:52:30.497Z</time></trkpt><trkpt lat="41.7747017" lon="12.886455"><ele>323.0</ele><time>2026-05-02T07:52:31.497Z</time></trkpt><trkpt lat="41.7747617" lon="12.8861617"><ele>323.0</ele><time>2026-05-02T07:52:32.497Z</time></trkpt><trkpt lat="41.7748267" lon="12.8858667"><ele>324.5</ele><time>2026-05-02T07:52:33.497Z</time></trkpt><trkpt lat="41.7748883" lon="12.8855717"><ele>326.0</ele><time>2026-05-02T07:52:34.497Z</time></trkpt><trkpt lat="41.7749533" lon="12.8852817"><ele>328.0</ele><time>2026-05-02T07:52:35.497Z</time></trkpt><trkpt lat="41.7750167" lon="12.8849833"><ele>330.0</ele><time>2026-05-02T07:52:36.497Z</time></trkpt><trkpt lat="41.77508" lon="12.88469"><ele>330.0</ele><time>2026-05-02T07:52:37.497Z</time></trkpt><trkpt lat="41.7751433" lon="12.8843933"><ele>330.0</ele><time>2026-05-02T07:52:38.497Z</time></trkpt><trkpt lat="41.7752133" lon="12.8840983"><ele>333.5</ele><time>2026-05-02T07:52:39.497Z</time></trkpt><trkpt lat="41.7752783" lon="12.883805"><ele>337.0</ele><time>2026-05-02T07:52:40.497Z</time></trkpt><trkpt lat="41.775345" lon="12.8835133"><ele>338.0</ele><time>2026-05-02T07:52:41.497Z</time></trkpt><trkpt lat="41.7754117" lon="12.88322"><ele>339.0</ele><time>2026-05-02T07:52:42.497Z</time></trkpt><trkpt lat="41.7754767" lon="12.8829267"><ele>339.0</ele><time>2026-05-02T07:52:43.497Z</time></trkpt><trkpt lat="41.7755367" lon="12.882625"><ele>339.0</ele><time>2026-05-02T07:52:44.497Z</time></trkpt><trkpt lat="41.7755983" lon="12.882325"><ele>339.0</ele><time>2026-05-02T07:52:45.497Z</time></trkpt><trkpt lat="41.7756667" lon="12.8820333"><ele>339.0</ele><time>2026-05-02T07:52:46.497Z</time></trkpt><trkpt lat="41.7757283" lon="12.8817533"><ele>339.0</ele><time>2026-05-02T07:52:47.497Z</time></trkpt><trkpt lat="41.7757917" lon="12.8814717"><ele>339.0</ele><time>2026-05-02T07:52:48.497Z</time></trkpt><trkpt lat="41.7758617" lon="12.88119"><ele>339.0</ele><time>2026-05-02T07:52:49.497Z</time></trkpt><trkpt lat="41.775925" lon="12.8809033"><ele>339.0</ele><time>2026-05-02T07:52:50.497Z</time></trkpt><trkpt lat="41.775985" lon="12.8806217"><ele>340.3333333333333</ele><time>2026-05-02T07:52:51.497Z</time></trkpt><trkpt lat="41.7760483" lon="12.880335"><ele>341.66666666666663</ele><time>2026-05-02T07:52:52.497Z</time></trkpt><trkpt lat="41.77611" lon="12.88005"><ele>343.0</ele><time>2026-05-02T07:52:53.497Z</time></trkpt><trkpt lat="41.7761683" lon="12.8797633"><ele>343.3333333333333</ele><time>2026-05-02T07:52:54.497Z</time></trkpt><trkpt lat="41.77623" lon="12.8794767"><ele>343.6666666666667</ele><time>2026-05-02T07:52:55.497Z</time></trkpt><trkpt lat="41.7762933" lon="12.8791917"><ele>344.0</ele><time>2026-05-02T07:52:56.497Z</time></trkpt><trkpt lat="41.7763567" lon="12.878915"><ele>344.0</ele><time>2026-05-02T07:52:57.497Z</time></trkpt><trkpt lat="41.7764233" lon="12.878635"><ele>344.0</ele><time>2026-05-02T07:52:58.497Z</time></trkpt><trkpt lat="41.7764883" lon="12.878345"><ele>344.0</ele><time>2026-05-02T07:52:59.497Z</time></trkpt><trkpt lat="41.77654" lon="12.8780533"><ele>343.5</ele><time>2026-05-02T07:53:00.497Z</time></trkpt><trkpt lat="41.7766033" lon="12.8777633"><ele>343.0</ele><time>2026-05-02T07:53:01.497Z</time></trkpt><trkpt lat="41.7766717" lon="12.8774717"><ele>342.5</ele><time>2026-05-02T07:53:02.497Z</time></trkpt><trkpt lat="41.7767367" lon="12.877185"><ele>342.0</ele><time>2026-05-02T07:53:03.497Z</time></trkpt><trkpt lat="41.776805" lon="12.8768917"><ele>345.0</ele><time>2026-05-02T07:53:04.497Z</time></trkpt><trkpt lat="41.7768683" lon="12.876595"><ele>348.0</ele><time>2026-05-02T07:53:05.497Z</time></trkpt><trkpt lat="41.776935" lon="12.8762967"><ele>348.0</ele><time>2026-05-02T07:53:06.497Z</time></trkpt><trkpt lat="41.777" lon="12.876005"><ele>348.0</ele><time>2026-05-02T07:53:07.497Z</time></trkpt><trkpt lat="41.7770633" lon="12.8757117"><ele>349.0</ele><time>2026-05-02T07:53:08.497Z</time></trkpt><trkpt lat="41.7771267" lon="12.875415"><ele>350.0</ele><time>2026-05-02T07:53:09.498Z</time></trkpt><trkpt lat="41.77719" lon="12.8751167"><ele>349.5</ele><time>2026-05-02T07:53:10.497Z</time></trkpt><trkpt lat="41.7772533" lon="12.8748183"><ele>349.0</ele><time>2026-05-02T07:53:11.497Z</time></trkpt><trkpt lat="41.777325" lon="12.8745217"><ele>347.5</ele><time>2026-05-02T07:53:12.497Z</time></trkpt><trkpt lat="41.7773917" lon="12.8742217"><ele>346.0</ele><time>2026-05-02T07:53:13.497Z</time></trkpt><trkpt lat="41.777455" lon="12.8739267"><ele>346.0</ele><time>2026-05-02T07:53:14.497Z</time></trkpt><trkpt lat="41.77752" lon="12.873625"><ele>346.0</ele><time>2026-05-02T07:53:15.497Z</time></trkpt><trkpt lat="41.777585" lon="12.8733267"><ele>342.5</ele><time>2026-05-02T07:53:16.497Z</time></trkpt><trkpt lat="41.7776483" lon="12.8730283"><ele>339.0</ele><time>2026-05-02T07:53:17.497Z</time></trkpt><trkpt lat="41.7777133" lon="12.8727233"><ele>339.5</ele><time>2026-05-02T07:53:18.497Z</time></trkpt><trkpt lat="41.7777817" lon="12.8724233"><ele>340.0</ele><time>2026-05-02T07:53:19.498Z</time></trkpt><trkpt lat="41.7778483" lon="12.87212"><ele>340.0</ele><time>2026-05-02T07:53:20.497Z</time></trkpt><trkpt lat="41.777915" lon="12.8718267"><ele>340.0</ele><time>2026-05-02T07:53:21.497Z</time></trkpt><trkpt lat="41.7779767" lon="12.871535"><ele>342.0</ele><time>2026-05-02T07:53:22.497Z</time></trkpt><trkpt lat="41.7780383" lon="12.8712433"><ele>344.0</ele><time>2026-05-02T07:53:23.497Z</time></trkpt><trkpt lat="41.7781033" lon="12.8709533"><ele>345.5</ele><time>2026-05-02T07:53:24.497Z</time></trkpt><trkpt lat="41.7781683" lon="12.8706583"><ele>347.0</ele><time>2026-05-02T07:53:25.497Z</time></trkpt><trkpt lat="41.7782333" lon="12.8703633"><ele>347.33333333333337</ele><time>2026-05-02T07:53:26.497Z</time></trkpt><trkpt lat="41.778295" lon="12.8700717"><ele>347.6666666666667</ele><time>2026-05-02T07:53:27.497Z</time></trkpt><trkpt lat="41.7783633" lon="12.8697867"><ele>348.0</ele><time>2026-05-02T07:53:28.497Z</time></trkpt><trkpt lat="41.778425" lon="12.8694983"><ele>347.0</ele><time>2026-05-02T07:53:29.497Z</time></trkpt><trkpt lat="41.7784933" lon="12.8692033"><ele>346.0</ele><time>2026-05-02T07:53:30.497Z</time></trkpt><trkpt lat="41.77856" lon="12.86891"><ele>349.5</ele><time>2026-05-02T07:53:31.497Z</time></trkpt><trkpt lat="41.7786217" lon="12.868615"><ele>353.0</ele><time>2026-05-02T07:53:32.497Z</time></trkpt><trkpt lat="41.778685" lon="12.86832"><ele>353.0</ele><time>2026-05-02T07:53:33.497Z</time></trkpt><trkpt lat="41.778745" lon="12.8680283"><ele>353.0</ele><time>2026-05-02T07:53:34.497Z</time></trkpt><trkpt lat="41.7788117" lon="12.8677383"><ele>354.0</ele><time>2026-05-02T07:53:35.497Z</time></trkpt><trkpt lat="41.77888" lon="12.8674417"><ele>355.0</ele><time>2026-05-02T07:53:36.497Z</time></trkpt><trkpt lat="41.77895" lon="12.8671467"><ele>355.0</ele><time>2026-05-02T07:53:37.497Z</time></trkpt><trkpt lat="41.77902" lon="12.86685"><ele>355.0</ele><time>2026-05-02T07:53:38.498Z</time></trkpt><trkpt lat="41.7790917" lon="12.8665567"><ele>353.5</ele><time>2026-05-02T07:53:39.497Z</time></trkpt><trkpt lat="41.77916" lon="12.8662633"><ele>352.0</ele><time>2026-05-02T07:53:40.497Z</time></trkpt><trkpt lat="41.779235" lon="12.8659733"><ele>354.0</ele><time>2026-05-02T07:53:41.498Z</time></trkpt><trkpt lat="41.7793117" lon="12.8656767"><ele>356.0</ele><time>2026-05-02T07:53:42.497Z</time></trkpt><trkpt lat="41.7793917" lon="12.8653817"><ele>358.0</ele><time>2026-05-02T07:53:43.497Z</time></trkpt><trkpt lat="41.77948" lon="12.8650917"><ele>360.0</ele><time>2026-05-02T07:53:44.497Z</time></trkpt><trkpt lat="41.7795683" lon="12.8647983"><ele>360.0</ele><time>2026-05-02T07:53:45.497Z</time></trkpt><trkpt lat="41.7796617" lon="12.8645033"><ele>360.0</ele><time>2026-05-02T07:53:46.497Z</time></trkpt><trkpt lat="41.7797567" lon="12.8642117"><ele>360.5</ele><time>2026-05-02T07:53:47.498Z</time></trkpt><trkpt lat="41.7798417" lon="12.8639317"><ele>361.0</ele><time>2026-05-02T07:53:48.497Z</time></trkpt><trkpt lat="41.7799333" lon="12.863645"><ele>361.5</ele><time>2026-05-02T07:53:49.497Z</time></trkpt><trkpt lat="41.78003" lon="12.8633567"><ele>362.0</ele><time>2026-05-02T07:53:50.497Z</time></trkpt><trkpt lat="41.780135" lon="12.86308"><ele>361.5</ele><time>2026-05-02T07:53:51.497Z</time></trkpt><trkpt lat="41.7802317" lon="12.8628083"><ele>361.0</ele><time>2026-05-02T07:53:52.497Z</time></trkpt><trkpt lat="41.78034" lon="12.8625317"><ele>360.5</ele><time>2026-05-02T07:53:53.497Z</time></trkpt><trkpt lat="41.780445" lon="12.8622583"><ele>360.0</ele><time>2026-05-02T07:53:54.497Z</time></trkpt><trkpt lat="41.78055" lon="12.8619817"><ele>359.5</ele><time>2026-05-02T07:53:55.497Z</time></trkpt><trkpt lat="41.78066" lon="12.86171"><ele>359.0</ele><time>2026-05-02T07:53:56.497Z</time></trkpt><trkpt lat="41.7807733" lon="12.8614383"><ele>359.0</ele><time>2026-05-02T07:53:57.497Z</time></trkpt><trkpt lat="41.7808867" lon="12.8611683"><ele>359.0</ele><time>2026-05-02T07:53:58.497Z</time></trkpt><trkpt lat="41.7809983" lon="12.8609"><ele>362.0</ele><time>2026-05-02T07:53:59.497Z</time></trkpt><trkpt lat="41.7811167" lon="12.8606383"><ele>365.0</ele><time>2026-05-02T07:54:00.497Z</time></trkpt><trkpt lat="41.7812367" lon="12.8603717"><ele>364.5</ele><time>2026-05-02T07:54:01.497Z</time></trkpt><trkpt lat="41.78136" lon="12.8601083"><ele>364.0</ele><time>2026-05-02T07:54:02.497Z</time></trkpt><trkpt lat="41.7814833" lon="12.8598417"><ele>364.0</ele><time>2026-05-02T07:54:03.497Z</time></trkpt><trkpt lat="41.781615" lon="12.8595783"><ele>364.0</ele><time>2026-05-02T07:54:04.497Z</time></trkpt><trkpt lat="41.7817467" lon="12.8593133"><ele>360.0</ele><time>2026-05-02T07:54:05.497Z</time></trkpt><trkpt lat="41.781885" lon="12.8590483"><ele>356.0</ele><time>2026-05-02T07:54:06.497Z</time></trkpt><trkpt lat="41.782015" lon="12.85879"><ele>356.0</ele><time>2026-05-02T07:54:07.497Z</time></trkpt><trkpt lat="41.7821517" lon="12.8585367"><ele>356.0</ele><time>2026-05-02T07:54:08.497Z</time></trkpt><trkpt lat="41.7822917" lon="12.8582933"><ele>355.0</ele><time>2026-05-02T07:54:09.497Z</time></trkpt><trkpt lat="41.7824333" lon="12.858045"><ele>354.0</ele><time>2026-05-02T07:54:10.497Z</time></trkpt><trkpt lat="41.7825733" lon="12.857795"><ele>358.0</ele><time>2026-05-02T07:54:11.498Z</time></trkpt><trkpt lat="41.7827183" lon="12.8575483"><ele>362.0</ele><time>2026-05-02T07:54:12.497Z</time></trkpt><trkpt lat="41.7828633" lon="12.8573"><ele>362.0</ele><time>2026-05-02T07:54:13.497Z</time></trkpt><trkpt lat="41.7829983" lon="12.85705"><ele>362.0</ele><time>2026-05-02T07:54:14.498Z</time></trkpt><trkpt lat="41.7831367" lon="12.8568"><ele>363.0</ele><time>2026-05-02T07:54:15.498Z</time></trkpt><trkpt lat="41.7832783" lon="12.85655"><ele>364.0</ele><time>2026-05-02T07:54:16.498Z</time></trkpt><trkpt lat="41.7834167" lon="12.856305"><ele>365.0</ele><time>2026-05-02T07:54:17.498Z</time></trkpt><trkpt lat="41.7835517" lon="12.8560583"><ele>366.0</ele><time>2026-05-02T07:54:18.498Z</time></trkpt><trkpt lat="41.7836933" lon="12.85582"><ele>366.0</ele><time>2026-05-02T07:54:19.498Z</time></trkpt><trkpt lat="41.783835" lon="12.8555717"><ele>366.0</ele><time>2026-05-02T07:54:20.498Z</time></trkpt><trkpt lat="41.7839717" lon="12.8553283"><ele>363.5</ele><time>2026-05-02T07:54:21.498Z</time></trkpt><trkpt lat="41.784105" lon="12.8550867"><ele>361.0</ele><time>2026-05-02T07:54:22.499Z</time></trkpt><trkpt lat="41.7842467" lon="12.854835"><ele>358.5</ele><time>2026-05-02T07:54:23.498Z</time></trkpt><trkpt lat="41.784385" lon="12.8545867"><ele>356.0</ele><time>2026-05-02T07:54:24.498Z</time></trkpt><trkpt lat="41.7845267" lon="12.8543383"><ele>357.5</ele><time>2026-05-02T07:54:25.498Z</time></trkpt><trkpt lat="41.7846683" lon="12.8540883"><ele>359.0</ele><time>2026-05-02T07:54:26.498Z</time></trkpt><trkpt lat="41.7848133" lon="12.8538317"><ele>359.0</ele><time>2026-05-02T07:54:27.498Z</time></trkpt><trkpt lat="41.7849583" lon="12.85358"><ele>359.0</ele><time>2026-05-02T07:54:28.498Z</time></trkpt><trkpt lat="41.7851017" lon="12.8533283"><ele>352.0</ele><time>2026-05-02T07:54:29.498Z</time></trkpt><trkpt lat="41.7852433" lon="12.8530733"><ele>345.0</ele><time>2026-05-02T07:54:30.498Z</time></trkpt><trkpt lat="41.78539" lon="12.8528233"><ele>343.5</ele><time>2026-05-02T07:54:31.498Z</time></trkpt><trkpt lat="41.785535" lon="12.8525683"><ele>342.0</ele><time>2026-05-02T07:54:32.498Z</time></trkpt><trkpt lat="41.7856783" lon="12.85232"><ele>342.0</ele><time>2026-05-02T07:54:33.498Z</time></trkpt><trkpt lat="41.785825" lon="12.852065"><ele>342.0</ele><time>2026-05-02T07:54:34.498Z</time></trkpt><trkpt lat="41.78597" lon="12.8518117"><ele>343.5</ele><time>2026-05-02T07:54:35.498Z</time></trkpt><trkpt lat="41.78611" lon="12.8515583"><ele>345.0</ele><time>2026-05-02T07:54:36.499Z</time></trkpt><trkpt lat="41.7862483" lon="12.851305"><ele>345.0</ele><time>2026-05-02T07:54:37.498Z</time></trkpt><trkpt lat="41.7863867" lon="12.8510517"><ele>345.0</ele><time>2026-05-02T07:54:38.498Z</time></trkpt><trkpt lat="41.786525" lon="12.8508017"><ele>345.5</ele><time>2026-05-02T07:54:39.498Z</time></trkpt><trkpt lat="41.78667" lon="12.8505483"><ele>346.0</ele><time>2026-05-02T07:54:40.498Z</time></trkpt><trkpt lat="41.78681" lon="12.850295"><ele>348.5</ele><time>2026-05-02T07:54:41.498Z</time></trkpt><trkpt lat="41.78695" lon="12.850045"><ele>351.0</ele><time>2026-05-02T07:54:42.498Z</time></trkpt><trkpt lat="41.787095" lon="12.849795"><ele>351.0</ele><time>2026-05-02T07:54:43.499Z</time></trkpt><trkpt lat="41.7872367" lon="12.8495433"><ele>351.0</ele><time>2026-05-02T07:54:44.498Z</time></trkpt><trkpt lat="41.7873733" lon="12.8492933"><ele>350.5</ele><time>2026-05-02T07:54:45.498Z</time></trkpt><trkpt lat="41.7875167" lon="12.8490417"><ele>350.0</ele><time>2026-05-02T07:54:46.498Z</time></trkpt><trkpt lat="41.787665" lon="12.848795"><ele>351.5</ele><time>2026-05-02T07:54:47.498Z</time></trkpt><trkpt lat="41.7878067" lon="12.848545"><ele>353.0</ele><time>2026-05-02T07:54:48.498Z</time></trkpt><trkpt lat="41.78795" lon="12.8482933"><ele>353.0</ele><time>2026-05-02T07:54:49.498Z</time></trkpt><trkpt lat="41.7880917" lon="12.84804"><ele>353.0</ele><time>2026-05-02T07:54:50.498Z</time></trkpt><trkpt lat="41.788235" lon="12.847785"><ele>357.5</ele><time>2026-05-02T07:54:51.498Z</time></trkpt><trkpt lat="41.7883717" lon="12.8475433"><ele>362.0</ele><time>2026-05-02T07:54:52.498Z</time></trkpt><trkpt lat="41.7885067" lon="12.8473017"><ele>360.0</ele><time>2026-05-02T07:54:53.498Z</time></trkpt><trkpt lat="41.7886467" lon="12.84706"><ele>358.0</ele><time>2026-05-02T07:54:54.498Z</time></trkpt><trkpt lat="41.78878" lon="12.8468217"><ele>358.3333333333333</ele><time>2026-05-02T07:54:55.498Z</time></trkpt><trkpt lat="41.7889217" lon="12.8465833"><ele>358.6666666666667</ele><time>2026-05-02T07:54:56.498Z</time></trkpt><trkpt lat="41.7890533" lon="12.84635"><ele>359.0</ele><time>2026-05-02T07:54:57.498Z</time></trkpt><trkpt lat="41.7891883" lon="12.846115"><ele>358.6666666666667</ele><time>2026-05-02T07:54:58.498Z</time></trkpt><trkpt lat="41.789315" lon="12.8458767"><ele>358.3333333333333</ele><time>2026-05-02T07:54:59.498Z</time></trkpt><trkpt lat="41.78945" lon="12.845635"><ele>358.0</ele><time>2026-05-02T07:55:00.498Z</time></trkpt><trkpt lat="41.7895867" lon="12.8454"><ele>358.0</ele><time>2026-05-02T07:55:01.498Z</time></trkpt><trkpt lat="41.7897267" lon="12.8451633"><ele>358.0</ele><time>2026-05-02T07:55:02.498Z</time></trkpt><trkpt lat="41.7898633" lon="12.8449217"><ele>358.0</ele><time>2026-05-02T07:55:03.499Z</time></trkpt><trkpt lat="41.79" lon="12.844675"><ele>358.0</ele><time>2026-05-02T07:55:04.499Z</time></trkpt><trkpt lat="41.7901367" lon="12.8444333"><ele>353.5</ele><time>2026-05-02T07:55:05.498Z</time></trkpt><trkpt lat="41.7902733" lon="12.8441917"><ele>349.0</ele><time>2026-05-02T07:55:06.498Z</time></trkpt><trkpt lat="41.790415" lon="12.8439467"><ele>349.0</ele><time>2026-05-02T07:55:07.498Z</time></trkpt><trkpt lat="41.7905567" lon="12.8436917"><ele>349.0</ele><time>2026-05-02T07:55:08.499Z</time></trkpt><trkpt lat="41.7907017" lon="12.84344"><ele>351.0</ele><time>2026-05-02T07:55:09.499Z</time></trkpt><trkpt lat="41.7908417" lon="12.8431917"><ele>353.0</ele><time>2026-05-02T07:55:10.498Z</time></trkpt><trkpt lat="41.7909833" lon="12.84294"><ele>351.5</ele><time>2026-05-02T07:55:11.498Z</time></trkpt><trkpt lat="41.791125" lon="12.8426883"><ele>350.0</ele><time>2026-05-02T07:55:12.498Z</time></trkpt><trkpt lat="41.7912683" lon="12.842445"><ele>350.0</ele><time>2026-05-02T07:55:13.498Z</time></trkpt><trkpt lat="41.7914067" lon="12.8421983"><ele>350.0</ele><time>2026-05-02T07:55:14.498Z</time></trkpt><trkpt lat="41.7915483" lon="12.84195"><ele>351.5</ele><time>2026-05-02T07:55:15.498Z</time></trkpt><trkpt lat="41.7916867" lon="12.8417083"><ele>353.0</ele><time>2026-05-02T07:55:16.498Z</time></trkpt><trkpt lat="41.7918267" lon="12.8414567"><ele>352.5</ele><time>2026-05-02T07:55:17.498Z</time></trkpt><trkpt lat="41.7919667" lon="12.8412133"><ele>352.0</ele><time>2026-05-02T07:55:18.498Z</time></trkpt><trkpt lat="41.7921" lon="12.8409683"><ele>354.5</ele><time>2026-05-02T07:55:19.498Z</time></trkpt><trkpt lat="41.79224" lon="12.8407267"><ele>357.0</ele><time>2026-05-02T07:55:20.499Z</time></trkpt><trkpt lat="41.79238" lon="12.8404783"><ele>357.0</ele><time>2026-05-02T07:55:21.498Z</time></trkpt><trkpt lat="41.792515" lon="12.84024"><ele>357.0</ele><time>2026-05-02T07:55:22.498Z</time></trkpt><trkpt lat="41.7926467" lon="12.8399983"><ele>357.0</ele><time>2026-05-02T07:55:23.498Z</time></trkpt><trkpt lat="41.79278" lon="12.8397533"><ele>362.5</ele><time>2026-05-02T07:55:24.499Z</time></trkpt><trkpt lat="41.79292" lon="12.83951"><ele>368.0</ele><time>2026-05-02T07:55:25.498Z</time></trkpt><trkpt lat="41.7930567" lon="12.8392667"><ele>368.0</ele><time>2026-05-02T07:55:26.498Z</time></trkpt><trkpt lat="41.7932" lon="12.8390267"><ele>368.0</ele><time>2026-05-02T07:55:27.498Z</time></trkpt><trkpt lat="41.7933417" lon="12.838775"><ele>368.0</ele><time>2026-05-02T07:55:28.498Z</time></trkpt><trkpt lat="41.79348" lon="12.8385317"><ele>368.0</ele><time>2026-05-02T07:55:29.498Z</time></trkpt><trkpt lat="41.7936117" lon="12.8382917"><ele>369.0</ele><time>2026-05-02T07:55:30.498Z</time></trkpt><trkpt lat="41.7937483" lon="12.8380467"><ele>370.0</ele><time>2026-05-02T07:55:31.498Z</time></trkpt><trkpt lat="41.7938917" lon="12.8377983"><ele>370.0</ele><time>2026-05-02T07:55:32.499Z</time></trkpt><trkpt lat="41.794035" lon="12.8375483"><ele>370.0</ele><time>2026-05-02T07:55:33.498Z</time></trkpt><trkpt lat="41.7941783" lon="12.8373033"><ele>370.0</ele><time>2026-05-02T07:55:34.498Z</time></trkpt><trkpt lat="41.7943167" lon="12.837055"><ele>370.0</ele><time>2026-05-02T07:55:35.498Z</time></trkpt><trkpt lat="41.7944533" lon="12.8368033"><ele>370.5</ele><time>2026-05-02T07:55:36.498Z</time></trkpt><trkpt lat="41.79459" lon="12.83655"><ele>371.0</ele><time>2026-05-02T07:55:37.498Z</time></trkpt><trkpt lat="41.7947267" lon="12.8363033"><ele>371.0</ele><time>2026-05-02T07:55:38.498Z</time></trkpt><trkpt lat="41.7948567" lon="12.8360567"><ele>371.0</ele><time>2026-05-02T07:55:39.498Z</time></trkpt><trkpt lat="41.79499" lon="12.8358083"><ele>371.0</ele><time>2026-05-02T07:55:40.498Z</time></trkpt><trkpt lat="41.79512" lon="12.8355633"><ele>371.0</ele><time>2026-05-02T07:55:41.498Z</time></trkpt><trkpt lat="41.795255" lon="12.8353117"><ele>368.5</ele><time>2026-05-02T07:55:42.498Z</time></trkpt><trkpt lat="41.795385" lon="12.8350617"><ele>366.0</ele><time>2026-05-02T07:55:43.498Z</time></trkpt><trkpt lat="41.79552" lon="12.834815"><ele>366.0</ele><time>2026-05-02T07:55:44.498Z</time></trkpt><trkpt lat="41.7956417" lon="12.8345667"><ele>366.0</ele><time>2026-05-02T07:55:45.498Z</time></trkpt><trkpt lat="41.7957667" lon="12.8343067"><ele>363.5</ele><time>2026-05-02T07:55:46.498Z</time></trkpt><trkpt lat="41.7959033" lon="12.8340583"><ele>361.0</ele><time>2026-05-02T07:55:47.498Z</time></trkpt><trkpt lat="41.79604" lon="12.8338017"><ele>360.0</ele><time>2026-05-02T07:55:48.498Z</time></trkpt><trkpt lat="41.7961733" lon="12.8335483"><ele>359.0</ele><time>2026-05-02T07:55:49.498Z</time></trkpt><trkpt lat="41.7963083" lon="12.8332967"><ele>358.5</ele><time>2026-05-02T07:55:50.498Z</time></trkpt><trkpt lat="41.7964417" lon="12.8330467"><ele>358.0</ele><time>2026-05-02T07:55:51.498Z</time></trkpt><trkpt lat="41.7965733" lon="12.8328017"><ele>360.0</ele><time>2026-05-02T07:55:52.498Z</time></trkpt><trkpt lat="41.796695" lon="12.8325617"><ele>362.0</ele><time>2026-05-02T07:55:53.499Z</time></trkpt><trkpt lat="41.7968133" lon="12.8323283"><ele>364.0</ele><time>2026-05-02T07:55:54.498Z</time></trkpt><trkpt lat="41.7969383" lon="12.8321"><ele>366.0</ele><time>2026-05-02T07:55:55.498Z</time></trkpt><trkpt lat="41.79706" lon="12.831865"><ele>368.0</ele><time>2026-05-02T07:55:56.498Z</time></trkpt><trkpt lat="41.7971717" lon="12.83163"><ele>370.0</ele><time>2026-05-02T07:55:57.498Z</time></trkpt><trkpt lat="41.7972867" lon="12.8313983"><ele>370.0</ele><time>2026-05-02T07:55:58.498Z</time></trkpt><trkpt lat="41.7974033" lon="12.8311717"><ele>370.0</ele><time>2026-05-02T07:55:59.498Z</time></trkpt><trkpt lat="41.7975267" lon="12.83094"><ele>370.0</ele><time>2026-05-02T07:56:00.498Z</time></trkpt><trkpt lat="41.7976483" lon="12.8307017"><ele>371.66666666666663</ele><time>2026-05-02T07:56:01.499Z</time></trkpt><trkpt lat="41.79777" lon="12.83046"><ele>373.3333333333333</ele><time>2026-05-02T07:56:02.498Z</time></trkpt><trkpt lat="41.797895" lon="12.8302183"><ele>375.0</ele><time>2026-05-02T07:56:03.498Z</time></trkpt><trkpt lat="41.79802" lon="12.8299767"><ele>375.0</ele><time>2026-05-02T07:56:04.498Z</time></trkpt><trkpt lat="41.7981483" lon="12.8297333"><ele>375.0</ele><time>2026-05-02T07:56:05.498Z</time></trkpt><trkpt lat="41.7982733" lon="12.82949"><ele>375.0</ele><time>2026-05-02T07:56:06.498Z</time></trkpt><trkpt lat="41.7984017" lon="12.8292517"><ele>373.3333333333333</ele><time>2026-05-02T07:56:07.498Z</time></trkpt><trkpt lat="41.7985317" lon="12.829005"><ele>371.66666666666663</ele><time>2026-05-02T07:56:08.499Z</time></trkpt><trkpt lat="41.7986533" lon="12.8287617"><ele>370.0</ele><time>2026-05-02T07:56:09.498Z</time></trkpt><trkpt lat="41.7987783" lon="12.8285167"><ele>369.3333333333333</ele><time>2026-05-02T07:56:10.498Z</time></trkpt><trkpt lat="41.7989017" lon="12.8282783"><ele>368.6666666666667</ele><time>2026-05-02T07:56:11.499Z</time></trkpt><trkpt lat="41.7990317" lon="12.82803"><ele>368.0</ele><time>2026-05-02T07:56:12.498Z</time></trkpt><trkpt lat="41.7991617" lon="12.8277783"><ele>367.33333333333337</ele><time>2026-05-02T07:56:13.498Z</time></trkpt><trkpt lat="41.7992867" lon="12.8275317"><ele>366.6666666666667</ele><time>2026-05-02T07:56:14.498Z</time></trkpt><trkpt lat="41.7994167" lon="12.8272833"><ele>366.0</ele><time>2026-05-02T07:56:15.498Z</time></trkpt><trkpt lat="41.799545" lon="12.827035"><ele>364.0</ele><time>2026-05-02T07:56:16.498Z</time></trkpt><trkpt lat="41.7996767" lon="12.82678"><ele>362.0</ele><time>2026-05-02T07:56:17.499Z</time></trkpt><trkpt lat="41.799805" lon="12.826525"><ele>362.0</ele><time>2026-05-02T07:56:18.498Z</time></trkpt><trkpt lat="41.7999383" lon="12.8262733"><ele>362.0</ele><time>2026-05-02T07:56:19.498Z</time></trkpt><trkpt lat="41.8000733" lon="12.8260167"><ele>362.5</ele><time>2026-05-02T07:56:20.498Z</time></trkpt><trkpt lat="41.8002" lon="12.8257683"><ele>363.0</ele><time>2026-05-02T07:56:21.498Z</time></trkpt><trkpt lat="41.8003317" lon="12.8255217"><ele>363.0</ele><time>2026-05-02T07:56:22.498Z</time></trkpt><trkpt lat="41.800465" lon="12.825275"><ele>363.0</ele><time>2026-05-02T07:56:23.498Z</time></trkpt><trkpt lat="41.8005917" lon="12.8250333"><ele>363.0</ele><time>2026-05-02T07:56:24.498Z</time></trkpt><trkpt lat="41.8007133" lon="12.824795"><ele>361.0</ele><time>2026-05-02T07:56:25.498Z</time></trkpt><trkpt lat="41.800835" lon="12.824555"><ele>359.0</ele><time>2026-05-02T07:56:26.498Z</time></trkpt><trkpt lat="41.8009567" lon="12.8243183"><ele>357.0</ele><time>2026-05-02T07:56:27.499Z</time></trkpt><trkpt lat="41.80108" lon="12.8240767"><ele>354.3333333333333</ele><time>2026-05-02T07:56:28.498Z</time></trkpt><trkpt lat="41.8012017" lon="12.82384"><ele>351.66666666666663</ele><time>2026-05-02T07:56:29.498Z</time></trkpt><trkpt lat="41.8013217" lon="12.8236067"><ele>349.0</ele><time>2026-05-02T07:56:30.498Z</time></trkpt><trkpt lat="41.8014433" lon="12.8233733"><ele>348.66666666666663</ele><time>2026-05-02T07:56:31.498Z</time></trkpt><trkpt lat="41.8015617" lon="12.82314"><ele>348.3333333333333</ele><time>2026-05-02T07:56:32.498Z</time></trkpt><trkpt lat="41.8016833" lon="12.8229083"><ele>348.0</ele><time>2026-05-02T07:56:33.498Z</time></trkpt><trkpt lat="41.8018083" lon="12.822675"><ele>347.0</ele><time>2026-05-02T07:56:34.498Z</time></trkpt><trkpt lat="41.80193" lon="12.822445"><ele>346.0</ele><time>2026-05-02T07:56:35.498Z</time></trkpt><trkpt lat="41.8020483" lon="12.8222167"><ele>345.0</ele><time>2026-05-02T07:56:36.498Z</time></trkpt><trkpt lat="41.8021667" lon="12.8219817"><ele>347.0</ele><time>2026-05-02T07:56:37.498Z</time></trkpt><trkpt lat="41.8022917" lon="12.8217517"><ele>349.0</ele><time>2026-05-02T07:56:38.499Z</time></trkpt><trkpt lat="41.8024167" lon="12.82152"><ele>351.0</ele><time>2026-05-02T07:56:39.498Z</time></trkpt><trkpt lat="41.802535" lon="12.821285"><ele>351.0</ele><time>2026-05-02T07:56:40.498Z</time></trkpt><trkpt lat="41.802655" lon="12.82105"><ele>351.0</ele><time>2026-05-02T07:56:41.498Z</time></trkpt><trkpt lat="41.80277" lon="12.8208167"><ele>351.0</ele><time>2026-05-02T07:56:42.499Z</time></trkpt><trkpt lat="41.8028917" lon="12.8205833"><ele>353.0</ele><time>2026-05-02T07:56:43.499Z</time></trkpt><trkpt lat="41.80301" lon="12.8203517"><ele>355.0</ele><time>2026-05-02T07:56:44.498Z</time></trkpt><trkpt lat="41.8031283" lon="12.82012"><ele>357.0</ele><time>2026-05-02T07:56:45.498Z</time></trkpt><trkpt lat="41.8032433" lon="12.8198983"><ele>358.0</ele><time>2026-05-02T07:56:46.498Z</time></trkpt><trkpt lat="41.80335" lon="12.81968"><ele>359.0</ele><time>2026-05-02T07:56:47.498Z</time></trkpt><trkpt lat="41.8034633" lon="12.8194667"><ele>360.0</ele><time>2026-05-02T07:56:48.498Z</time></trkpt><trkpt lat="41.8035783" lon="12.8192517"><ele>360.0</ele><time>2026-05-02T07:56:49.498Z</time></trkpt><trkpt lat="41.80369" lon="12.819035"><ele>360.0</ele><time>2026-05-02T07:56:50.498Z</time></trkpt><trkpt lat="41.803805" lon="12.8188183"><ele>360.0</ele><time>2026-05-02T07:56:51.498Z</time></trkpt><trkpt lat="41.803915" lon="12.8185983"><ele>360.6666666666667</ele><time>2026-05-02T07:56:52.498Z</time></trkpt><trkpt lat="41.8040333" lon="12.81838"><ele>361.33333333333337</ele><time>2026-05-02T07:56:53.498Z</time></trkpt><trkpt lat="41.80415" lon="12.81816"><ele>362.0</ele><time>2026-05-02T07:56:54.498Z</time></trkpt><trkpt lat="41.8042667" lon="12.8179367"><ele>362.0</ele><time>2026-05-02T07:56:55.498Z</time></trkpt><trkpt lat="41.8043883" lon="12.81771"><ele>362.0</ele><time>2026-05-02T07:56:56.498Z</time></trkpt><trkpt lat="41.8045133" lon="12.8174733"><ele>362.0</ele><time>2026-05-02T07:56:57.498Z</time></trkpt><trkpt lat="41.8046417" lon="12.817235"><ele>361.0</ele><time>2026-05-02T07:56:58.498Z</time></trkpt><trkpt lat="41.8047633" lon="12.8169933"><ele>360.0</ele><time>2026-05-02T07:56:59.498Z</time></trkpt><trkpt lat="41.80489" lon="12.81675"><ele>359.0</ele><time>2026-05-02T07:57:00.498Z</time></trkpt><trkpt lat="41.8050217" lon="12.8165067"><ele>359.0</ele><time>2026-05-02T07:57:01.498Z</time></trkpt><trkpt lat="41.8051467" lon="12.816255"><ele>359.0</ele><time>2026-05-02T07:57:02.498Z</time></trkpt><trkpt lat="41.805275" lon="12.8160033"><ele>358.0</ele><time>2026-05-02T07:57:03.498Z</time></trkpt><trkpt lat="41.8054067" lon="12.8157583"><ele>357.0</ele><time>2026-05-02T07:57:04.498Z</time></trkpt><trkpt lat="41.8055367" lon="12.8155133"><ele>356.0</ele><time>2026-05-02T07:57:05.498Z</time></trkpt><trkpt lat="41.805665" lon="12.8152617"><ele>355.6666666666667</ele><time>2026-05-02T07:57:06.498Z</time></trkpt><trkpt lat="41.8057933" lon="12.81502"><ele>355.3333333333333</ele><time>2026-05-02T07:57:07.498Z</time></trkpt><trkpt lat="41.8059267" lon="12.8147733"><ele>355.0</ele><time>2026-05-02T07:57:08.498Z</time></trkpt><trkpt lat="41.8060583" lon="12.8145383"><ele>354.3333333333333</ele><time>2026-05-02T07:57:09.498Z</time></trkpt><trkpt lat="41.80619" lon="12.8143083"><ele>353.6666666666667</ele><time>2026-05-02T07:57:10.498Z</time></trkpt><trkpt lat="41.8063233" lon="12.81408"><ele>353.0</ele><time>2026-05-02T07:57:11.498Z</time></trkpt><trkpt lat="41.8064567" lon="12.8138583"><ele>353.0</ele><time>2026-05-02T07:57:12.498Z</time></trkpt><trkpt lat="41.8065883" lon="12.8136367"><ele>353.0</ele><time>2026-05-02T07:57:13.498Z</time></trkpt><trkpt lat="41.8067233" lon="12.8134167"><ele>353.0</ele><time>2026-05-02T07:57:14.498Z</time></trkpt><trkpt lat="41.8068633" lon="12.8132"><ele>352.0</ele><time>2026-05-02T07:57:15.498Z</time></trkpt><trkpt lat="41.8070017" lon="12.81299"><ele>351.0</ele><time>2026-05-02T07:57:16.498Z</time></trkpt><trkpt lat="41.8071483" lon="12.8127833"><ele>350.0</ele><time>2026-05-02T07:57:17.498Z</time></trkpt><trkpt lat="41.8072933" lon="12.8125733"><ele>349.0</ele><time>2026-05-02T07:57:18.498Z</time></trkpt><trkpt lat="41.8074417" lon="12.81237"><ele>348.0</ele><time>2026-05-02T07:57:19.498Z</time></trkpt><trkpt lat="41.8076" lon="12.8121683"><ele>347.0</ele><time>2026-05-02T07:57:20.498Z</time></trkpt><trkpt lat="41.8077583" lon="12.8119717"><ele>347.0</ele><time>2026-05-02T07:57:21.498Z</time></trkpt><trkpt lat="41.80792" lon="12.8117817"><ele>347.0</ele><time>2026-05-02T07:57:22.499Z</time></trkpt><trkpt lat="41.8080817" lon="12.811595"><ele>347.0</ele><time>2026-05-02T07:57:23.498Z</time></trkpt><trkpt lat="41.8082483" lon="12.81141"><ele>347.0</ele><time>2026-05-02T07:57:24.498Z</time></trkpt><trkpt lat="41.80842" lon="12.8112283"><ele>347.0</ele><time>2026-05-02T07:57:25.498Z</time></trkpt><trkpt lat="41.8085967" lon="12.8110533"><ele>347.0</ele><time>2026-05-02T07:57:26.498Z</time></trkpt><trkpt lat="41.8087817" lon="12.8108833"><ele>346.0</ele><time>2026-05-02T07:57:27.498Z</time></trkpt><trkpt lat="41.808965" lon="12.8107133"><ele>345.0</ele><time>2026-05-02T07:57:28.498Z</time></trkpt><trkpt lat="41.8091483" lon="12.8105517"><ele>344.0</ele><time>2026-05-02T07:57:29.498Z</time></trkpt><trkpt lat="41.8093417" lon="12.810395"><ele>343.0</ele><time>2026-05-02T07:57:30.498Z</time></trkpt><trkpt lat="41.809535" lon="12.8102417"><ele>342.0</ele><time>2026-05-02T07:57:31.499Z</time></trkpt><trkpt lat="41.80973" lon="12.8100867"><ele>341.6666666666667</ele><time>2026-05-02T07:57:32.498Z</time></trkpt><trkpt lat="41.8099267" lon="12.8099417"><ele>341.33333333333337</ele><time>2026-05-02T07:57:33.498Z</time></trkpt><trkpt lat="41.8101233" lon="12.809805"><ele>341.0</ele><time>2026-05-02T07:57:34.498Z</time></trkpt><trkpt lat="41.81032" lon="12.8096717"><ele>339.33333333333337</ele><time>2026-05-02T07:57:35.498Z</time></trkpt><trkpt lat="41.810515" lon="12.8095517"><ele>337.6666666666667</ele><time>2026-05-02T07:57:36.498Z</time></trkpt><trkpt lat="41.8107117" lon="12.8094383"><ele>336.0</ele><time>2026-05-02T07:57:37.498Z</time></trkpt><trkpt lat="41.8109133" lon="12.8093317"><ele>332.0</ele><time>2026-05-02T07:57:38.498Z</time></trkpt><trkpt lat="41.8111167" lon="12.8092283"><ele>328.0</ele><time>2026-05-02T07:57:39.498Z</time></trkpt><trkpt lat="41.81132" lon="12.80913"><ele>324.0</ele><time>2026-05-02T07:57:40.498Z</time></trkpt><trkpt lat="41.81152" lon="12.8090383"><ele>324.0</ele><time>2026-05-02T07:57:41.498Z</time></trkpt><trkpt lat="41.8117217" lon="12.8089467"><ele>324.0</ele><time>2026-05-02T07:57:42.499Z</time></trkpt><trkpt lat="41.8119283" lon="12.8088617"><ele>324.0</ele><time>2026-05-02T07:57:43.498Z</time></trkpt><trkpt lat="41.8121383" lon="12.8087833"><ele>322.6666666666667</ele><time>2026-05-02T07:57:44.498Z</time></trkpt><trkpt lat="41.8123483" lon="12.8087067"><ele>321.33333333333337</ele><time>2026-05-02T07:57:45.498Z</time></trkpt><trkpt lat="41.8125617" lon="12.8086367"><ele>320.0</ele><time>2026-05-02T07:57:46.498Z</time></trkpt><trkpt lat="41.812775" lon="12.808565"><ele>316.5</ele><time>2026-05-02T07:57:47.498Z</time></trkpt><trkpt lat="41.812995" lon="12.8085017"><ele>313.0</ele><time>2026-05-02T07:57:48.498Z</time></trkpt><trkpt lat="41.8132167" lon="12.808445"><ele>313.0</ele><time>2026-05-02T07:57:49.498Z</time></trkpt><trkpt lat="41.81344" lon="12.808385"><ele>313.0</ele><time>2026-05-02T07:57:50.498Z</time></trkpt><trkpt lat="41.81366" lon="12.8083317"><ele>310.5</ele><time>2026-05-02T07:57:51.499Z</time></trkpt><trkpt lat="41.8138883" lon="12.808285"><ele>308.0</ele><time>2026-05-02T07:57:52.498Z</time></trkpt><trkpt lat="41.8141233" lon="12.80824"><ele>308.0</ele><time>2026-05-02T07:57:53.498Z</time></trkpt><trkpt lat="41.81435" lon="12.8082033"><ele>308.0</ele><time>2026-05-02T07:57:54.498Z</time></trkpt><trkpt lat="41.8145717" lon="12.80817"><ele>308.0</ele><time>2026-05-02T07:57:55.498Z</time></trkpt><trkpt lat="41.8147867" lon="12.8081433"><ele>308.0</ele><time>2026-05-02T07:57:56.498Z</time></trkpt><trkpt lat="41.8149917" lon="12.80811"><ele>308.0</ele><time>2026-05-02T07:57:57.498Z</time></trkpt><trkpt lat="41.8152" lon="12.8080833"><ele>307.33333333333337</ele><time>2026-05-02T07:57:58.498Z</time></trkpt><trkpt lat="41.8154083" lon="12.80806"><ele>306.6666666666667</ele><time>2026-05-02T07:57:59.498Z</time></trkpt><trkpt lat="41.8156133" lon="12.808035"><ele>306.0</ele><time>2026-05-02T07:58:00.498Z</time></trkpt><trkpt lat="41.8158233" lon="12.8080133"><ele>304.6666666666667</ele><time>2026-05-02T07:58:01.498Z</time></trkpt><trkpt lat="41.8160333" lon="12.807985"><ele>303.33333333333337</ele><time>2026-05-02T07:58:02.498Z</time></trkpt><trkpt lat="41.8162417" lon="12.80795"><ele>302.0</ele><time>2026-05-02T07:58:03.499Z</time></trkpt><trkpt lat="41.8164567" lon="12.80792"><ele>302.0</ele><time>2026-05-02T07:58:04.498Z</time></trkpt><trkpt lat="41.8166717" lon="12.807895"><ele>302.0</ele><time>2026-05-02T07:58:05.498Z</time></trkpt><trkpt lat="41.816885" lon="12.80786"><ele>302.0</ele><time>2026-05-02T07:58:06.498Z</time></trkpt><trkpt lat="41.8171067" lon="12.8078217"><ele>301.33333333333337</ele><time>2026-05-02T07:58:07.498Z</time></trkpt><trkpt lat="41.817325" lon="12.8077817"><ele>300.6666666666667</ele><time>2026-05-02T07:58:08.498Z</time></trkpt><trkpt lat="41.817545" lon="12.8077383"><ele>300.0</ele><time>2026-05-02T07:58:09.498Z</time></trkpt><trkpt lat="41.8177617" lon="12.8076867"><ele>299.0</ele><time>2026-05-02T07:58:10.498Z</time></trkpt><trkpt lat="41.8179833" lon="12.8076333"><ele>298.0</ele><time>2026-05-02T07:58:11.498Z</time></trkpt><trkpt lat="41.8182083" lon="12.8075717"><ele>298.0</ele><time>2026-05-02T07:58:12.498Z</time></trkpt><trkpt lat="41.8184333" lon="12.80751"><ele>298.0</ele><time>2026-05-02T07:58:13.498Z</time></trkpt><trkpt lat="41.8186583" lon="12.8074467"><ele>296.5</ele><time>2026-05-02T07:58:14.498Z</time></trkpt><trkpt lat="41.8188767" lon="12.807385"><ele>295.0</ele><time>2026-05-02T07:58:15.498Z</time></trkpt><trkpt lat="41.8191" lon="12.8073267"><ele>294.0</ele><time>2026-05-02T07:58:16.498Z</time></trkpt><trkpt lat="41.81932" lon="12.807255"><ele>293.0</ele><time>2026-05-02T07:58:17.498Z</time></trkpt><trkpt lat="41.8195517" lon="12.8071783"><ele>293.0</ele><time>2026-05-02T07:58:18.498Z</time></trkpt><trkpt lat="41.8197767" lon="12.8070917"><ele>293.0</ele><time>2026-05-02T07:58:19.498Z</time></trkpt><trkpt lat="41.8200033" lon="12.807005"><ele>293.0</ele><time>2026-05-02T07:58:20.498Z</time></trkpt><trkpt lat="41.820225" lon="12.806925"><ele>293.0</ele><time>2026-05-02T07:58:21.498Z</time></trkpt><trkpt lat="41.820445" lon="12.8068467"><ele>292.6666666666667</ele><time>2026-05-02T07:58:22.498Z</time></trkpt><trkpt lat="41.8206567" lon="12.806765"><ele>292.3333333333333</ele><time>2026-05-02T07:58:23.498Z</time></trkpt><trkpt lat="41.82087" lon="12.8066717"><ele>292.0</ele><time>2026-05-02T07:58:24.498Z</time></trkpt><trkpt lat="41.82108" lon="12.8065783"><ele>292.0</ele><time>2026-05-02T07:58:25.498Z</time></trkpt><trkpt lat="41.82129" lon="12.806485"><ele>292.0</ele><time>2026-05-02T07:58:26.498Z</time></trkpt><trkpt lat="41.8215067" lon="12.8063883"><ele>292.0</ele><time>2026-05-02T07:58:27.498Z</time></trkpt><trkpt lat="41.82172" lon="12.8062883"><ele>292.0</ele><time>2026-05-02T07:58:28.498Z</time></trkpt><trkpt lat="41.8219283" lon="12.806185"><ele>292.0</ele><time>2026-05-02T07:58:29.498Z</time></trkpt><trkpt lat="41.8221383" lon="12.806075"><ele>292.66666666666663</ele><time>2026-05-02T07:58:30.498Z</time></trkpt><trkpt lat="41.8223383" lon="12.8059567"><ele>293.3333333333333</ele><time>2026-05-02T07:58:31.498Z</time></trkpt><trkpt lat="41.8225417" lon="12.8058367"><ele>294.0</ele><time>2026-05-02T07:58:32.498Z</time></trkpt><trkpt lat="41.8227383" lon="12.8057233"><ele>294.0</ele><time>2026-05-02T07:58:33.498Z</time></trkpt><trkpt lat="41.82295" lon="12.8056133"><ele>294.0</ele><time>2026-05-02T07:58:34.498Z</time></trkpt><trkpt lat="41.8231483" lon="12.8054917"><ele>294.0</ele><time>2026-05-02T07:58:35.499Z</time></trkpt><trkpt lat="41.8233433" lon="12.805365"><ele>291.3333333333333</ele><time>2026-05-02T07:58:36.498Z</time></trkpt><trkpt lat="41.8235383" lon="12.80525"><ele>288.66666666666663</ele><time>2026-05-02T07:58:37.498Z</time></trkpt><trkpt lat="41.8237333" lon="12.8051267"><ele>286.0</ele><time>2026-05-02T07:58:38.498Z</time></trkpt><trkpt lat="41.8239333" lon="12.8050117"><ele>286.0</ele><time>2026-05-02T07:58:39.498Z</time></trkpt><trkpt lat="41.824125" lon="12.8048983"><ele>286.0</ele><time>2026-05-02T07:58:40.498Z</time></trkpt><trkpt lat="41.8243183" lon="12.8047817"><ele>286.0</ele><time>2026-05-02T07:58:41.498Z</time></trkpt><trkpt lat="41.82452" lon="12.8046583"><ele>286.3333333333333</ele><time>2026-05-02T07:58:42.498Z</time></trkpt><trkpt lat="41.8247217" lon="12.8045333"><ele>286.6666666666667</ele><time>2026-05-02T07:58:43.498Z</time></trkpt><trkpt lat="41.824925" lon="12.8044167"><ele>287.0</ele><time>2026-05-02T07:58:44.499Z</time></trkpt><trkpt lat="41.8251267" lon="12.8042883"><ele>288.6666666666667</ele><time>2026-05-02T07:58:45.498Z</time></trkpt><trkpt lat="41.82533" lon="12.80416"><ele>290.3333333333333</ele><time>2026-05-02T07:58:46.498Z</time></trkpt><trkpt lat="41.82553" lon="12.804045"><ele>292.0</ele><time>2026-05-02T07:58:47.498Z</time></trkpt><trkpt lat="41.82573" lon="12.8039217"><ele>292.0</ele><time>2026-05-02T07:58:48.498Z</time></trkpt><trkpt lat="41.8259267" lon="12.8038"><ele>292.0</ele><time>2026-05-02T07:58:49.498Z</time></trkpt><trkpt lat="41.826125" lon="12.8036733"><ele>292.0</ele><time>2026-05-02T07:58:50.498Z</time></trkpt><trkpt lat="41.8263267" lon="12.8035367"><ele>292.3333333333333</ele><time>2026-05-02T07:58:51.498Z</time></trkpt><trkpt lat="41.8265283" lon="12.8034083"><ele>292.6666666666667</ele><time>2026-05-02T07:58:52.498Z</time></trkpt><trkpt lat="41.8267317" lon="12.8032817"><ele>293.0</ele><time>2026-05-02T07:58:53.498Z</time></trkpt><trkpt lat="41.826935" lon="12.8031533"><ele>294.5</ele><time>2026-05-02T07:58:54.498Z</time></trkpt><trkpt lat="41.8271433" lon="12.80303"><ele>296.0</ele><time>2026-05-02T07:58:55.498Z</time></trkpt><trkpt lat="41.8273517" lon="12.80291"><ele>296.0</ele><time>2026-05-02T07:58:56.498Z</time></trkpt><trkpt lat="41.8275617" lon="12.80279"><ele>296.0</ele><time>2026-05-02T07:58:57.498Z</time></trkpt><trkpt lat="41.8277667" lon="12.8026683"><ele>293.5</ele><time>2026-05-02T07:58:58.498Z</time></trkpt><trkpt lat="41.8279717" lon="12.8025417"><ele>291.0</ele><time>2026-05-02T07:58:59.498Z</time></trkpt><trkpt lat="41.8281767" lon="12.8024167"><ele>291.0</ele><time>2026-05-02T07:59:00.498Z</time></trkpt><trkpt lat="41.8283833" lon="12.8022883"><ele>291.0</ele><time>2026-05-02T07:59:01.498Z</time></trkpt><trkpt lat="41.8285967" lon="12.80217"><ele>291.0</ele><time>2026-05-02T07:59:02.498Z</time></trkpt><trkpt lat="41.828805" lon="12.8020467"><ele>291.0</ele><time>2026-05-02T07:59:03.498Z</time></trkpt><trkpt lat="41.8290117" lon="12.8019367"><ele>289.3333333333333</ele><time>2026-05-02T07:59:04.498Z</time></trkpt><trkpt lat="41.8292067" lon="12.8018233"><ele>287.66666666666663</ele><time>2026-05-02T07:59:05.498Z</time></trkpt><trkpt lat="41.8294167" lon="12.8017167"><ele>286.0</ele><time>2026-05-02T07:59:06.498Z</time></trkpt><trkpt lat="41.82962" lon="12.8016067"><ele>280.5</ele><time>2026-05-02T07:59:07.498Z</time></trkpt><trkpt lat="41.8298367" lon="12.8014867"><ele>275.0</ele><time>2026-05-02T07:59:08.498Z</time></trkpt><trkpt lat="41.8300533" lon="12.801375"><ele>275.0</ele><time>2026-05-02T07:59:09.498Z</time></trkpt><trkpt lat="41.8302683" lon="12.801275"><ele>275.0</ele><time>2026-05-02T07:59:10.498Z</time></trkpt><trkpt lat="41.830475" lon="12.8011633"><ele>275.0</ele><time>2026-05-02T07:59:11.498Z</time></trkpt><trkpt lat="41.83069" lon="12.80106"><ele>275.0</ele><time>2026-05-02T07:59:12.499Z</time></trkpt><trkpt lat="41.830905" lon="12.8009533"><ele>275.0</ele><time>2026-05-02T07:59:13.498Z</time></trkpt><trkpt lat="41.8311217" lon="12.8008417"><ele>275.0</ele><time>2026-05-02T07:59:14.498Z</time></trkpt><trkpt lat="41.83134" lon="12.8007367"><ele>275.0</ele><time>2026-05-02T07:59:15.498Z</time></trkpt><trkpt lat="41.8315533" lon="12.800635"><ele>275.0</ele><time>2026-05-02T07:59:16.499Z</time></trkpt><trkpt lat="41.83176" lon="12.8005333"><ele>275.0</ele><time>2026-05-02T07:59:17.498Z</time></trkpt><trkpt lat="41.8319717" lon="12.800435"><ele>276.0</ele><time>2026-05-02T07:59:18.499Z</time></trkpt><trkpt lat="41.83218" lon="12.8003367"><ele>277.0</ele><time>2026-05-02T07:59:19.499Z</time></trkpt><trkpt lat="41.8323833" lon="12.8002317"><ele>278.0</ele><time>2026-05-02T07:59:20.498Z</time></trkpt><trkpt lat="41.8325917" lon="12.8001417"><ele>270.5</ele><time>2026-05-02T07:59:21.498Z</time></trkpt><trkpt lat="41.8328067" lon="12.800045"><ele>263.0</ele><time>2026-05-02T07:59:22.498Z</time></trkpt><trkpt lat="41.8330217" lon="12.799955"><ele>263.0</ele><time>2026-05-02T07:59:23.498Z</time></trkpt><trkpt lat="41.83323" lon="12.7998583"><ele>263.0</ele><time>2026-05-02T07:59:24.498Z</time></trkpt><trkpt lat="41.8334433" lon="12.7997617"><ele>263.0</ele><time>2026-05-02T07:59:25.498Z</time></trkpt><trkpt lat="41.833645" lon="12.7996667"><ele>265.6666666666667</ele><time>2026-05-02T07:59:26.498Z</time></trkpt><trkpt lat="41.833855" lon="12.7995767"><ele>268.3333333333333</ele><time>2026-05-02T07:59:27.498Z</time></trkpt><trkpt lat="41.8340683" lon="12.79948"><ele>271.0</ele><time>2026-05-02T07:59:28.498Z</time></trkpt><trkpt lat="41.834275" lon="12.7993783"><ele>270.66666666666663</ele><time>2026-05-02T07:59:29.498Z</time></trkpt><trkpt lat="41.8344817" lon="12.79928"><ele>270.3333333333333</ele><time>2026-05-02T07:59:30.498Z</time></trkpt><trkpt lat="41.8346917" lon="12.7991833"><ele>270.0</ele><time>2026-05-02T07:59:31.498Z</time></trkpt><trkpt lat="41.8349" lon="12.7990883"><ele>270.0</ele><time>2026-05-02T07:59:32.498Z</time></trkpt><trkpt lat="41.83511" lon="12.798985"><ele>270.0</ele><time>2026-05-02T07:59:33.498Z</time></trkpt><trkpt lat="41.8353183" lon="12.79888"><ele>270.0</ele><time>2026-05-02T07:59:34.498Z</time></trkpt><trkpt lat="41.8355283" lon="12.798785"><ele>272.0</ele><time>2026-05-02T07:59:35.498Z</time></trkpt><trkpt lat="41.8357367" lon="12.79868"><ele>274.0</ele><time>2026-05-02T07:59:36.498Z</time></trkpt><trkpt lat="41.8359467" lon="12.798575"><ele>276.0</ele><time>2026-05-02T07:59:37.498Z</time></trkpt><trkpt lat="41.8361583" lon="12.7984717"><ele>268.5</ele><time>2026-05-02T07:59:38.498Z</time></trkpt><trkpt lat="41.8363633" lon="12.798365"><ele>261.0</ele><time>2026-05-02T07:59:39.498Z</time></trkpt><trkpt lat="41.836585" lon="12.7982667"><ele>261.0</ele><time>2026-05-02T07:59:40.498Z</time></trkpt><trkpt lat="41.8367917" lon="12.7981667"><ele>261.0</ele><time>2026-05-02T07:59:41.498Z</time></trkpt><trkpt lat="41.8370133" lon="12.7980533"><ele>261.6666666666667</ele><time>2026-05-02T07:59:42.498Z</time></trkpt><trkpt lat="41.8372217" lon="12.7979517"><ele>262.33333333333337</ele><time>2026-05-02T07:59:43.498Z</time></trkpt><trkpt lat="41.8374333" lon="12.7978433"><ele>263.0</ele><time>2026-05-02T07:59:44.498Z</time></trkpt><trkpt lat="41.837655" lon="12.7977317"><ele>261.5</ele><time>2026-05-02T07:59:45.498Z</time></trkpt><trkpt lat="41.8378733" lon="12.7976233"><ele>260.0</ele><time>2026-05-02T07:59:46.498Z</time></trkpt><trkpt lat="41.8380933" lon="12.7975167"><ele>260.0</ele><time>2026-05-02T07:59:47.498Z</time></trkpt><trkpt lat="41.838305" lon="12.7974033"><ele>260.0</ele><time>2026-05-02T07:59:48.498Z</time></trkpt><trkpt lat="41.8385217" lon="12.7972783"><ele>264.0</ele><time>2026-05-02T07:59:49.499Z</time></trkpt><trkpt lat="41.83874" lon="12.7971583"><ele>268.0</ele><time>2026-05-02T07:59:50.498Z</time></trkpt><trkpt lat="41.8389517" lon="12.7970417"><ele>268.0</ele><time>2026-05-02T07:59:51.498Z</time></trkpt><trkpt lat="41.8391617" lon="12.7969283"><ele>268.0</ele><time>2026-05-02T07:59:52.498Z</time></trkpt><trkpt lat="41.839375" lon="12.7968067"><ele>264.0</ele><time>2026-05-02T07:59:53.498Z</time></trkpt><trkpt lat="41.83959" lon="12.79669"><ele>260.0</ele><time>2026-05-02T07:59:54.498Z</time></trkpt><trkpt lat="41.8397967" lon="12.796575"><ele>260.0</ele><time>2026-05-02T07:59:55.498Z</time></trkpt><trkpt lat="41.8400033" lon="12.7964617"><ele>260.0</ele><time>2026-05-02T07:59:56.498Z</time></trkpt><trkpt lat="41.840215" lon="12.796345"><ele>262.0</ele><time>2026-05-02T07:59:57.498Z</time></trkpt><trkpt lat="41.8404233" lon="12.796225"><ele>264.0</ele><time>2026-05-02T07:59:58.498Z</time></trkpt><trkpt lat="41.8406267" lon="12.7961083"><ele>266.0</ele><time>2026-05-02T07:59:59.498Z</time></trkpt><trkpt lat="41.8408333" lon="12.796"><ele>262.6666666666667</ele><time>2026-05-02T08:00:00.498Z</time></trkpt><trkpt lat="41.8410383" lon="12.795885"><ele>259.3333333333333</ele><time>2026-05-02T08:00:01.498Z</time></trkpt><trkpt lat="41.84124" lon="12.79577"><ele>256.0</ele><time>2026-05-02T08:00:02.498Z</time></trkpt><trkpt lat="41.8414467" lon="12.7956533"><ele>256.0</ele><time>2026-05-02T08:00:03.498Z</time></trkpt><trkpt lat="41.8416483" lon="12.7955367"><ele>256.0</ele><time>2026-05-02T08:00:04.498Z</time></trkpt><trkpt lat="41.84185" lon="12.7954117"><ele>256.0</ele><time>2026-05-02T08:00:05.498Z</time></trkpt><trkpt lat="41.8420567" lon="12.7952833"><ele>253.0</ele><time>2026-05-02T08:00:06.498Z</time></trkpt><trkpt lat="41.8422567" lon="12.7951567"><ele>250.0</ele><time>2026-05-02T08:00:07.498Z</time></trkpt><trkpt lat="41.842465" lon="12.7950333"><ele>247.0</ele><time>2026-05-02T08:00:08.498Z</time></trkpt><trkpt lat="41.8426683" lon="12.7949067"><ele>247.0</ele><time>2026-05-02T08:00:09.498Z</time></trkpt><trkpt lat="41.8428783" lon="12.7947783"><ele>247.0</ele><time>2026-05-02T08:00:10.498Z</time></trkpt><trkpt lat="41.8430817" lon="12.79465"><ele>247.0</ele><time>2026-05-02T08:00:11.498Z</time></trkpt><trkpt lat="41.8432817" lon="12.7945283"><ele>247.0</ele><time>2026-05-02T08:00:12.498Z</time></trkpt><trkpt lat="41.84349" lon="12.7944033"><ele>247.0</ele><time>2026-05-02T08:00:13.499Z</time></trkpt><trkpt lat="41.84369" lon="12.7942767"><ele>247.0</ele><time>2026-05-02T08:00:14.498Z</time></trkpt><trkpt lat="41.8438967" lon="12.7941517"><ele>247.0</ele><time>2026-05-02T08:00:15.498Z</time></trkpt><trkpt lat="41.8440983" lon="12.7940283"><ele>247.0</ele><time>2026-05-02T08:00:16.498Z</time></trkpt><trkpt lat="41.8443033" lon="12.7938967"><ele>247.66666666666666</ele><time>2026-05-02T08:00:17.498Z</time></trkpt><trkpt lat="41.8444967" lon="12.79377"><ele>248.33333333333331</ele><time>2026-05-02T08:00:18.498Z</time></trkpt><trkpt lat="41.8447017" lon="12.7936333"><ele>249.0</ele><time>2026-05-02T08:00:19.498Z</time></trkpt><trkpt lat="41.8449" lon="12.7935"><ele>245.66666666666669</ele><time>2026-05-02T08:00:20.498Z</time></trkpt><trkpt lat="41.8451" lon="12.79337"><ele>242.33333333333334</ele><time>2026-05-02T08:00:21.498Z</time></trkpt><trkpt lat="41.8452983" lon="12.79324"><ele>239.0</ele><time>2026-05-02T08:00:22.498Z</time></trkpt><trkpt lat="41.8454983" lon="12.7930917"><ele>239.0</ele><time>2026-05-02T08:00:23.498Z</time></trkpt><trkpt lat="41.8457" lon="12.7929483"><ele>239.0</ele><time>2026-05-02T08:00:24.498Z</time></trkpt><trkpt lat="41.8459" lon="12.7928033"><ele>238.33333333333334</ele><time>2026-05-02T08:00:25.499Z</time></trkpt><trkpt lat="41.846095" lon="12.79266"><ele>237.66666666666669</ele><time>2026-05-02T08:00:26.498Z</time></trkpt><trkpt lat="41.8462933" lon="12.7925133"><ele>237.0</ele><time>2026-05-02T08:00:27.498Z</time></trkpt><trkpt lat="41.8465017" lon="12.7923633"><ele>237.0</ele><time>2026-05-02T08:00:28.498Z</time></trkpt><trkpt lat="41.8467033" lon="12.7922083"><ele>237.0</ele><time>2026-05-02T08:00:29.498Z</time></trkpt><trkpt lat="41.846905" lon="12.7920467"><ele>237.5</ele><time>2026-05-02T08:00:30.499Z</time></trkpt><trkpt lat="41.8471083" lon="12.791895"><ele>238.0</ele><time>2026-05-02T08:00:31.498Z</time></trkpt><trkpt lat="41.8473067" lon="12.7917333"><ele>235.5</ele><time>2026-05-02T08:00:32.498Z</time></trkpt><trkpt lat="41.847505" lon="12.791565"><ele>233.0</ele><time>2026-05-02T08:00:33.498Z</time></trkpt><trkpt lat="41.8477017" lon="12.7913967"><ele>233.0</ele><time>2026-05-02T08:00:34.498Z</time></trkpt><trkpt lat="41.8478983" lon="12.79123"><ele>233.0</ele><time>2026-05-02T08:00:35.498Z</time></trkpt><trkpt lat="41.8480933" lon="12.7910583"><ele>233.5</ele><time>2026-05-02T08:00:36.498Z</time></trkpt><trkpt lat="41.8482833" lon="12.7908817"><ele>234.0</ele><time>2026-05-02T08:00:37.498Z</time></trkpt><trkpt lat="41.8484767" lon="12.790705"><ele>234.0</ele><time>2026-05-02T08:00:38.498Z</time></trkpt><trkpt lat="41.848665" lon="12.7905233"><ele>234.0</ele><time>2026-05-02T08:00:39.498Z</time></trkpt><trkpt lat="41.8488533" lon="12.7903383"><ele>230.0</ele><time>2026-05-02T08:00:40.498Z</time></trkpt><trkpt lat="41.8490417" lon="12.790155"><ele>226.0</ele><time>2026-05-02T08:00:41.498Z</time></trkpt><trkpt lat="41.8492283" lon="12.7899633"><ele>230.0</ele><time>2026-05-02T08:00:42.498Z</time></trkpt><trkpt lat="41.8494117" lon="12.7897733"><ele>234.0</ele><time>2026-05-02T08:00:43.498Z</time></trkpt><trkpt lat="41.8495983" lon="12.7895767"><ele>234.0</ele><time>2026-05-02T08:00:44.498Z</time></trkpt><trkpt lat="41.8497817" lon="12.7893783"><ele>234.0</ele><time>2026-05-02T08:00:45.498Z</time></trkpt><trkpt lat="41.8499683" lon="12.7891817"><ele>231.5</ele><time>2026-05-02T08:00:46.498Z</time></trkpt><trkpt lat="41.8501467" lon="12.7889867"><ele>229.0</ele><time>2026-05-02T08:00:47.499Z</time></trkpt><trkpt lat="41.850335" lon="12.7887867"><ele>229.0</ele><time>2026-05-02T08:00:48.499Z</time></trkpt><trkpt lat="41.85052" lon="12.78859"><ele>229.0</ele><time>2026-05-02T08:00:49.498Z</time></trkpt><trkpt lat="41.8507" lon="12.78839"><ele>227.0</ele><time>2026-05-02T08:00:50.498Z</time></trkpt><trkpt lat="41.850885" lon="12.7881917"><ele>225.0</ele><time>2026-05-02T08:00:51.498Z</time></trkpt><trkpt lat="41.85107" lon="12.7879867"><ele>225.0</ele><time>2026-05-02T08:00:52.498Z</time></trkpt><trkpt lat="41.851255" lon="12.7877833"><ele>225.0</ele><time>2026-05-02T08:00:53.498Z</time></trkpt><trkpt lat="41.8514367" lon="12.7875833"><ele>223.5</ele><time>2026-05-02T08:00:54.498Z</time></trkpt><trkpt lat="41.8516233" lon="12.7873867"><ele>222.0</ele><time>2026-05-02T08:00:55.498Z</time></trkpt><trkpt lat="41.85181" lon="12.7871833"><ele>221.0</ele><time>2026-05-02T08:00:56.498Z</time></trkpt><trkpt lat="41.8519917" lon="12.7869833"><ele>220.0</ele><time>2026-05-02T08:00:57.498Z</time></trkpt><trkpt lat="41.8521767" lon="12.7867917"><ele>220.0</ele><time>2026-05-02T08:00:58.498Z</time></trkpt><trkpt lat="41.8523667" lon="12.7865967"><ele>220.0</ele><time>2026-05-02T08:00:59.498Z</time></trkpt><trkpt lat="41.8525633" lon="12.786415"><ele>222.5</ele><time>2026-05-02T08:01:00.498Z</time></trkpt><trkpt lat="41.8527583" lon="12.7862283"><ele>225.0</ele><time>2026-05-02T08:01:01.498Z</time></trkpt><trkpt lat="41.8529583" lon="12.7860433"><ele>220.5</ele><time>2026-05-02T08:01:02.498Z</time></trkpt><trkpt lat="41.8531567" lon="12.7858633"><ele>216.0</ele><time>2026-05-02T08:01:03.498Z</time></trkpt><trkpt lat="41.8533567" lon="12.7856817"><ele>218.5</ele><time>2026-05-02T08:01:04.498Z</time></trkpt><trkpt lat="41.85356" lon="12.785495"><ele>221.0</ele><time>2026-05-02T08:01:05.498Z</time></trkpt><trkpt lat="41.8537567" lon="12.7853183"><ele>216.0</ele><time>2026-05-02T08:01:06.499Z</time></trkpt><trkpt lat="41.8539617" lon="12.7851533"><ele>211.0</ele><time>2026-05-02T08:01:07.498Z</time></trkpt><trkpt lat="41.854165" lon="12.78499"><ele>214.0</ele><time>2026-05-02T08:01:08.498Z</time></trkpt><trkpt lat="41.8543667" lon="12.7848267"><ele>217.0</ele><time>2026-05-02T08:01:09.498Z</time></trkpt><trkpt lat="41.8545717" lon="12.7846717"><ele>217.0</ele><time>2026-05-02T08:01:10.498Z</time></trkpt><trkpt lat="41.854775" lon="12.7845133"><ele>217.0</ele><time>2026-05-02T08:01:11.498Z</time></trkpt><trkpt lat="41.8549867" lon="12.7843517"><ele>214.5</ele><time>2026-05-02T08:01:12.498Z</time></trkpt><trkpt lat="41.85519" lon="12.7842033"><ele>212.0</ele><time>2026-05-02T08:01:13.498Z</time></trkpt><trkpt lat="41.855395" lon="12.7840517"><ele>212.0</ele><time>2026-05-02T08:01:14.498Z</time></trkpt><trkpt lat="41.855605" lon="12.783915"><ele>212.0</ele><time>2026-05-02T08:01:15.498Z</time></trkpt><trkpt lat="41.8558117" lon="12.7837683"><ele>212.0</ele><time>2026-05-02T08:01:16.499Z</time></trkpt><trkpt lat="41.8560183" lon="12.783625"><ele>212.0</ele><time>2026-05-02T08:01:17.498Z</time></trkpt><trkpt lat="41.8562233" lon="12.7834817"><ele>209.0</ele><time>2026-05-02T08:01:18.498Z</time></trkpt><trkpt lat="41.8564283" lon="12.7833433"><ele>206.0</ele><time>2026-05-02T08:01:19.498Z</time></trkpt><trkpt lat="41.8566417" lon="12.7832"><ele>206.5</ele><time>2026-05-02T08:01:20.499Z</time></trkpt><trkpt lat="41.85685" lon="12.7830583"><ele>207.0</ele><time>2026-05-02T08:01:21.498Z</time></trkpt><trkpt lat="41.8570617" lon="12.78292"><ele>207.0</ele><time>2026-05-02T08:01:22.498Z</time></trkpt><trkpt lat="41.8572683" lon="12.782785"><ele>207.0</ele><time>2026-05-02T08:01:23.498Z</time></trkpt><trkpt lat="41.8574717" lon="12.78264"><ele>205.5</ele><time>2026-05-02T08:01:24.498Z</time></trkpt><trkpt lat="41.8576783" lon="12.7824867"><ele>204.0</ele><time>2026-05-02T08:01:25.498Z</time></trkpt><trkpt lat="41.8578833" lon="12.782345"><ele>204.0</ele><time>2026-05-02T08:01:26.499Z</time></trkpt><trkpt lat="41.858095" lon="12.7821967"><ele>204.0</ele><time>2026-05-02T08:01:27.498Z</time></trkpt><trkpt lat="41.858315" lon="12.78205"><ele>203.0</ele><time>2026-05-02T08:01:28.499Z</time></trkpt><trkpt lat="41.8585267" lon="12.7819067"><ele>202.0</ele><time>2026-05-02T08:01:29.498Z</time></trkpt><trkpt lat="41.85874" lon="12.7817583"><ele>202.0</ele><time>2026-05-02T08:01:30.498Z</time></trkpt><trkpt lat="41.858945" lon="12.7816133"><ele>202.0</ele><time>2026-05-02T08:01:31.498Z</time></trkpt><trkpt lat="41.8591533" lon="12.781465"><ele>203.5</ele><time>2026-05-02T08:01:32.499Z</time></trkpt><trkpt lat="41.859355" lon="12.7813133"><ele>205.0</ele><time>2026-05-02T08:01:33.499Z</time></trkpt><trkpt lat="41.8595533" lon="12.7811633"><ele>201.0</ele><time>2026-05-02T08:01:34.498Z</time></trkpt><trkpt lat="41.8597583" lon="12.781015"><ele>197.0</ele><time>2026-05-02T08:01:35.498Z</time></trkpt><trkpt lat="41.8599633" lon="12.7808617"><ele>199.0</ele><time>2026-05-02T08:01:36.498Z</time></trkpt><trkpt lat="41.8601683" lon="12.7807017"><ele>201.0</ele><time>2026-05-02T08:01:37.498Z</time></trkpt><trkpt lat="41.860375" lon="12.78055"><ele>201.0</ele><time>2026-05-02T08:01:38.498Z</time></trkpt><trkpt lat="41.8605733" lon="12.78039"><ele>201.0</ele><time>2026-05-02T08:01:39.498Z</time></trkpt><trkpt lat="41.86077" lon="12.7802267"><ele>198.5</ele><time>2026-05-02T08:01:40.498Z</time></trkpt><trkpt lat="41.8609717" lon="12.78006"><ele>196.0</ele><time>2026-05-02T08:01:41.498Z</time></trkpt><trkpt lat="41.8611717" lon="12.7798967"><ele>196.0</ele><time>2026-05-02T08:01:42.498Z</time></trkpt><trkpt lat="41.8613717" lon="12.77972"><ele>196.0</ele><time>2026-05-02T08:01:43.498Z</time></trkpt><trkpt lat="41.8615667" lon="12.779545"><ele>196.0</ele><time>2026-05-02T08:01:44.498Z</time></trkpt><trkpt lat="41.8617583" lon="12.7793667"><ele>196.0</ele><time>2026-05-02T08:01:45.498Z</time></trkpt><trkpt lat="41.8619483" lon="12.77919"><ele>195.0</ele><time>2026-05-02T08:01:46.498Z</time></trkpt><trkpt lat="41.86214" lon="12.7790083"><ele>194.0</ele><time>2026-05-02T08:01:47.498Z</time></trkpt><trkpt lat="41.86233" lon="12.7788217"><ele>194.0</ele><time>2026-05-02T08:01:48.498Z</time></trkpt><trkpt lat="41.8625217" lon="12.7786333"><ele>194.0</ele><time>2026-05-02T08:01:49.498Z</time></trkpt><trkpt lat="41.8627133" lon="12.778445"><ele>192.0</ele><time>2026-05-02T08:01:50.498Z</time></trkpt><trkpt lat="41.8629017" lon="12.77825"><ele>190.0</ele><time>2026-05-02T08:01:51.498Z</time></trkpt><trkpt lat="41.8630883" lon="12.77805"><ele>190.0</ele><time>2026-05-02T08:01:52.498Z</time></trkpt><trkpt lat="41.863275" lon="12.7778567"><ele>190.0</ele><time>2026-05-02T08:01:53.498Z</time></trkpt><trkpt lat="41.863455" lon="12.777665"><ele>188.0</ele><time>2026-05-02T08:01:54.499Z</time></trkpt><trkpt lat="41.8636317" lon="12.7774683"><ele>186.0</ele><time>2026-05-02T08:01:55.498Z</time></trkpt><trkpt lat="41.8638083" lon="12.7772733"><ele>186.0</ele><time>2026-05-02T08:01:56.499Z</time></trkpt><trkpt lat="41.8639833" lon="12.777065"><ele>186.0</ele><time>2026-05-02T08:01:57.498Z</time></trkpt><trkpt lat="41.8641517" lon="12.776855"><ele>184.5</ele><time>2026-05-02T08:01:58.498Z</time></trkpt><trkpt lat="41.8643283" lon="12.7766517"><ele>183.0</ele><time>2026-05-02T08:01:59.498Z</time></trkpt><trkpt lat="41.8645033" lon="12.77645"><ele>183.0</ele><time>2026-05-02T08:02:00.498Z</time></trkpt><trkpt lat="41.864675" lon="12.7762433"><ele>183.0</ele><time>2026-05-02T08:02:01.498Z</time></trkpt><trkpt lat="41.864835" lon="12.7760283"><ele>181.5</ele><time>2026-05-02T08:02:02.498Z</time></trkpt><trkpt lat="41.8649983" lon="12.7758117"><ele>180.0</ele><time>2026-05-02T08:02:03.498Z</time></trkpt><trkpt lat="41.8651633" lon="12.7755867"><ele>180.0</ele><time>2026-05-02T08:02:04.498Z</time></trkpt><trkpt lat="41.8653317" lon="12.7753683"><ele>180.0</ele><time>2026-05-02T08:02:05.498Z</time></trkpt><trkpt lat="41.865495" lon="12.77515"><ele>178.0</ele><time>2026-05-02T08:02:06.498Z</time></trkpt><trkpt lat="41.8656533" lon="12.7749317"><ele>176.0</ele><time>2026-05-02T08:02:07.498Z</time></trkpt><trkpt lat="41.8658117" lon="12.774705"><ele>175.5</ele><time>2026-05-02T08:02:08.498Z</time></trkpt><trkpt lat="41.8659667" lon="12.7744817"><ele>175.0</ele><time>2026-05-02T08:02:09.498Z</time></trkpt><trkpt lat="41.866125" lon="12.7742633"><ele>175.0</ele><time>2026-05-02T08:02:10.498Z</time></trkpt><trkpt lat="41.866285" lon="12.7740517"><ele>175.0</ele><time>2026-05-02T08:02:11.498Z</time></trkpt><trkpt lat="41.8664417" lon="12.7738317"><ele>175.0</ele><time>2026-05-02T08:02:12.498Z</time></trkpt><trkpt lat="41.8665967" lon="12.7736067"><ele>175.0</ele><time>2026-05-02T08:02:13.498Z</time></trkpt><trkpt lat="41.8667517" lon="12.77338"><ele>174.5</ele><time>2026-05-02T08:02:14.498Z</time></trkpt><trkpt lat="41.86691" lon="12.7731583"><ele>174.0</ele><time>2026-05-02T08:02:15.498Z</time></trkpt><trkpt lat="41.8670667" lon="12.7729367"><ele>174.0</ele><time>2026-05-02T08:02:16.498Z</time></trkpt><trkpt lat="41.8672233" lon="12.7727167"><ele>174.0</ele><time>2026-05-02T08:02:17.498Z</time></trkpt><trkpt lat="41.8673733" lon="12.7724967"><ele>174.0</ele><time>2026-05-02T08:02:18.498Z</time></trkpt><trkpt lat="41.8675283" lon="12.772275"><ele>174.0</ele><time>2026-05-02T08:02:19.498Z</time></trkpt><trkpt lat="41.8676833" lon="12.7720517"><ele>174.0</ele><time>2026-05-02T08:02:20.498Z</time></trkpt><trkpt lat="41.8678417" lon="12.771835"><ele>173.33333333333334</ele><time>2026-05-02T08:02:21.498Z</time></trkpt><trkpt lat="41.8679917" lon="12.7716233"><ele>172.66666666666669</ele><time>2026-05-02T08:02:22.498Z</time></trkpt><trkpt lat="41.8681417" lon="12.77141"><ele>172.0</ele><time>2026-05-02T08:02:23.498Z</time></trkpt><trkpt lat="41.8682883" lon="12.7712"><ele>171.66666666666669</ele><time>2026-05-02T08:02:24.499Z</time></trkpt><trkpt lat="41.8684417" lon="12.7709983"><ele>171.33333333333334</ele><time>2026-05-02T08:02:25.498Z</time></trkpt><trkpt lat="41.868595" lon="12.7707833"><ele>171.0</ele><time>2026-05-02T08:02:26.498Z</time></trkpt><trkpt lat="41.8687533" lon="12.7705783"><ele>171.0</ele><time>2026-05-02T08:02:27.499Z</time></trkpt><trkpt lat="41.8689067" lon="12.7703733"><ele>171.0</ele><time>2026-05-02T08:02:28.498Z</time></trkpt><trkpt lat="41.8690683" lon="12.7701667"><ele>171.0</ele><time>2026-05-02T08:02:29.498Z</time></trkpt><trkpt lat="41.8692317" lon="12.7699633"><ele>171.0</ele><time>2026-05-02T08:02:30.498Z</time></trkpt><trkpt lat="41.869395" lon="12.769765"><ele>171.0</ele><time>2026-05-02T08:02:31.498Z</time></trkpt><trkpt lat="41.8695683" lon="12.7695617"><ele>171.0</ele><time>2026-05-02T08:02:32.498Z</time></trkpt><trkpt lat="41.8697417" lon="12.7693667"><ele>171.0</ele><time>2026-05-02T08:02:33.498Z</time></trkpt><trkpt lat="41.8699233" lon="12.769175"><ele>170.5</ele><time>2026-05-02T08:02:34.498Z</time></trkpt><trkpt lat="41.8701033" lon="12.7689867"><ele>170.0</ele><time>2026-05-02T08:02:35.498Z</time></trkpt><trkpt lat="41.870285" lon="12.7688133"><ele>170.0</ele><time>2026-05-02T08:02:36.498Z</time></trkpt><trkpt lat="41.8704667" lon="12.7686433"><ele>170.0</ele><time>2026-05-02T08:02:37.498Z</time></trkpt><trkpt lat="41.8706483" lon="12.7684767"><ele>170.0</ele><time>2026-05-02T08:02:38.499Z</time></trkpt><trkpt lat="41.8708267" lon="12.76831"><ele>167.66666666666666</ele><time>2026-05-02T08:02:39.498Z</time></trkpt><trkpt lat="41.87101" lon="12.7681517"><ele>165.33333333333334</ele><time>2026-05-02T08:02:40.498Z</time></trkpt><trkpt lat="41.8712" lon="12.767995"><ele>163.0</ele><time>2026-05-02T08:02:41.499Z</time></trkpt><trkpt lat="41.8713933" lon="12.7678433"><ele>160.0</ele><time>2026-05-02T08:02:42.498Z</time></trkpt><trkpt lat="41.8715867" lon="12.76769"><ele>157.0</ele><time>2026-05-02T08:02:43.498Z</time></trkpt><trkpt lat="41.8717867" lon="12.7675433"><ele>157.0</ele><time>2026-05-02T08:02:44.498Z</time></trkpt><trkpt lat="41.8719783" lon="12.7674033"><ele>157.0</ele><time>2026-05-02T08:02:45.498Z</time></trkpt><trkpt lat="41.8721733" lon="12.7672617"><ele>157.0</ele><time>2026-05-02T08:02:46.498Z</time></trkpt><trkpt lat="41.872375" lon="12.76712"><ele>157.0</ele><time>2026-05-02T08:02:47.498Z</time></trkpt><trkpt lat="41.872585" lon="12.766985"><ele>157.0</ele><time>2026-05-02T08:02:48.498Z</time></trkpt><trkpt lat="41.8727933" lon="12.766855"><ele>153.0</ele><time>2026-05-02T08:02:49.498Z</time></trkpt><trkpt lat="41.8730033" lon="12.76673"><ele>149.0</ele><time>2026-05-02T08:02:50.498Z</time></trkpt><trkpt lat="41.8732167" lon="12.766615"><ele>149.0</ele><time>2026-05-02T08:02:51.498Z</time></trkpt><trkpt lat="41.8734283" lon="12.7665067"><ele>149.0</ele><time>2026-05-02T08:02:52.498Z</time></trkpt><trkpt lat="41.8736533" lon="12.7664"><ele>149.0</ele><time>2026-05-02T08:02:53.499Z</time></trkpt><trkpt lat="41.873875" lon="12.7662983"><ele>149.0</ele><time>2026-05-02T08:02:54.498Z</time></trkpt><trkpt lat="41.8741033" lon="12.7662033"><ele>148.5</ele><time>2026-05-02T08:02:55.498Z</time></trkpt><trkpt lat="41.87432" lon="12.76611"><ele>148.0</ele><time>2026-05-02T08:02:56.498Z</time></trkpt><trkpt lat="41.87454" lon="12.76602"><ele>147.5</ele><time>2026-05-02T08:02:57.498Z</time></trkpt><trkpt lat="41.8747617" lon="12.76593"><ele>147.0</ele><time>2026-05-02T08:02:58.498Z</time></trkpt><trkpt lat="41.8749783" lon="12.7658533"><ele>145.5</ele><time>2026-05-02T08:02:59.498Z</time></trkpt><trkpt lat="41.8752017" lon="12.765785"><ele>144.0</ele><time>2026-05-02T08:03:00.498Z</time></trkpt><trkpt lat="41.8754233" lon="12.7657183"><ele>144.0</ele><time>2026-05-02T08:03:01.498Z</time></trkpt><trkpt lat="41.8756433" lon="12.7656517"><ele>144.0</ele><time>2026-05-02T08:03:02.498Z</time></trkpt><trkpt lat="41.8758683" lon="12.7655883"><ele>144.5</ele><time>2026-05-02T08:03:03.498Z</time></trkpt><trkpt lat="41.8760933" lon="12.7655333"><ele>145.0</ele><time>2026-05-02T08:03:04.498Z</time></trkpt><trkpt lat="41.8763217" lon="12.76548"><ele>145.0</ele><time>2026-05-02T08:03:05.498Z</time></trkpt><trkpt lat="41.8765483" lon="12.76543"><ele>145.0</ele><time>2026-05-02T08:03:06.498Z</time></trkpt><trkpt lat="41.8767717" lon="12.7653833"><ele>144.0</ele><time>2026-05-02T08:03:07.498Z</time></trkpt><trkpt lat="41.877005" lon="12.765345"><ele>143.0</ele><time>2026-05-02T08:03:08.498Z</time></trkpt><trkpt lat="41.877235" lon="12.7653017"><ele>143.0</ele><time>2026-05-02T08:03:09.499Z</time></trkpt><trkpt lat="41.8774667" lon="12.7652567"><ele>143.0</ele><time>2026-05-02T08:03:10.498Z</time></trkpt><trkpt lat="41.877705" lon="12.7652133"><ele>142.5</ele><time>2026-05-02T08:03:11.498Z</time></trkpt><trkpt lat="41.8779433" lon="12.76517"><ele>142.0</ele><time>2026-05-02T08:03:12.498Z</time></trkpt><trkpt lat="41.8781733" lon="12.7651317"><ele>142.0</ele><time>2026-05-02T08:03:13.498Z</time></trkpt><trkpt lat="41.8784" lon="12.7650883"><ele>142.0</ele><time>2026-05-02T08:03:14.498Z</time></trkpt><trkpt lat="41.8786317" lon="12.7650533"><ele>141.5</ele><time>2026-05-02T08:03:15.498Z</time></trkpt><trkpt lat="41.8788617" lon="12.765015"><ele>141.0</ele><time>2026-05-02T08:03:16.499Z</time></trkpt><trkpt lat="41.8790833" lon="12.7649767"><ele>141.5</ele><time>2026-05-02T08:03:17.498Z</time></trkpt><trkpt lat="41.879315" lon="12.76494"><ele>142.0</ele><time>2026-05-02T08:03:18.498Z</time></trkpt><trkpt lat="41.879545" lon="12.764905"><ele>142.0</ele><time>2026-05-02T08:03:19.499Z</time></trkpt><trkpt lat="41.87977" lon="12.764865"><ele>142.0</ele><time>2026-05-02T08:03:20.498Z</time></trkpt><trkpt lat="41.879995" lon="12.7648217"><ele>142.0</ele><time>2026-05-02T08:03:21.498Z</time></trkpt><trkpt lat="41.8802217" lon="12.7647783"><ele>142.0</ele><time>2026-05-02T08:03:22.498Z</time></trkpt><trkpt lat="41.8804467" lon="12.7647267"><ele>142.0</ele><time>2026-05-02T08:03:23.499Z</time></trkpt><trkpt lat="41.8806717" lon="12.7646767"><ele>142.0</ele><time>2026-05-02T08:03:24.498Z</time></trkpt><trkpt lat="41.8808967" lon="12.7646317"><ele>142.66666666666669</ele><time>2026-05-02T08:03:25.498Z</time></trkpt><trkpt lat="41.881115" lon="12.76459"><ele>143.33333333333334</ele><time>2026-05-02T08:03:26.498Z</time></trkpt><trkpt lat="41.88133" lon="12.764535"><ele>144.0</ele><time>2026-05-02T08:03:27.498Z</time></trkpt><trkpt lat="41.8815467" lon="12.7644767"><ele>144.0</ele><time>2026-05-02T08:03:28.498Z</time></trkpt><trkpt lat="41.8817617" lon="12.76442"><ele>144.0</ele><time>2026-05-02T08:03:29.498Z</time></trkpt><trkpt lat="41.881975" lon="12.76435"><ele>144.0</ele><time>2026-05-02T08:03:30.499Z</time></trkpt><trkpt lat="41.88219" lon="12.7642817"><ele>143.66666666666666</ele><time>2026-05-02T08:03:31.498Z</time></trkpt><trkpt lat="41.8824067" lon="12.7642133"><ele>143.33333333333331</ele><time>2026-05-02T08:03:32.498Z</time></trkpt><trkpt lat="41.8826117" lon="12.7641417"><ele>143.0</ele><time>2026-05-02T08:03:33.498Z</time></trkpt><trkpt lat="41.882825" lon="12.7640683"><ele>142.0</ele><time>2026-05-02T08:03:34.498Z</time></trkpt><trkpt lat="41.8830317" lon="12.7639933"><ele>141.0</ele><time>2026-05-02T08:03:35.498Z</time></trkpt><trkpt lat="41.8832383" lon="12.763915"><ele>140.0</ele><time>2026-05-02T08:03:36.498Z</time></trkpt><trkpt lat="41.8834467" lon="12.7638317"><ele>139.33333333333331</ele><time>2026-05-02T08:03:37.498Z</time></trkpt><trkpt lat="41.8836517" lon="12.7637483"><ele>138.66666666666666</ele><time>2026-05-02T08:03:38.498Z</time></trkpt><trkpt lat="41.8838617" lon="12.76366"><ele>138.0</ele><time>2026-05-02T08:03:39.498Z</time></trkpt><trkpt lat="41.884065" lon="12.7635617"><ele>138.33333333333334</ele><time>2026-05-02T08:03:40.498Z</time></trkpt><trkpt lat="41.88427" lon="12.7634617"><ele>138.66666666666669</ele><time>2026-05-02T08:03:41.498Z</time></trkpt><trkpt lat="41.8844717" lon="12.763355"><ele>139.0</ele><time>2026-05-02T08:03:42.498Z</time></trkpt><trkpt lat="41.8846783" lon="12.7632467"><ele>139.0</ele><time>2026-05-02T08:03:43.498Z</time></trkpt><trkpt lat="41.88488" lon="12.7631383"><ele>139.0</ele><time>2026-05-02T08:03:44.498Z</time></trkpt><trkpt lat="41.8850817" lon="12.763025"><ele>139.0</ele><time>2026-05-02T08:03:45.498Z</time></trkpt><trkpt lat="41.8852817" lon="12.7629117"><ele>139.33333333333334</ele><time>2026-05-02T08:03:46.498Z</time></trkpt><trkpt lat="41.885475" lon="12.7627967"><ele>139.66666666666666</ele><time>2026-05-02T08:03:47.498Z</time></trkpt><trkpt lat="41.8856617" lon="12.7626817"><ele>140.0</ele><time>2026-05-02T08:03:48.498Z</time></trkpt><trkpt lat="41.8858533" lon="12.7625683"><ele>140.33333333333331</ele><time>2026-05-02T08:03:49.498Z</time></trkpt><trkpt lat="41.886035" lon="12.7624567"><ele>140.66666666666666</ele><time>2026-05-02T08:03:50.498Z</time></trkpt><trkpt lat="41.8862167" lon="12.7623467"><ele>141.0</ele><time>2026-05-02T08:03:51.498Z</time></trkpt><trkpt lat="41.8863883" lon="12.7622367"><ele>141.0</ele><time>2026-05-02T08:03:52.498Z</time></trkpt><trkpt lat="41.8865483" lon="12.76213"><ele>141.0</ele><time>2026-05-02T08:03:53.498Z</time></trkpt><trkpt lat="41.8866983" lon="12.7620217"><ele>141.0</ele><time>2026-05-02T08:03:54.498Z</time></trkpt><trkpt lat="41.8868467" lon="12.7619083"><ele>140.66666666666666</ele><time>2026-05-02T08:03:55.498Z</time></trkpt><trkpt lat="41.8869933" lon="12.7618017"><ele>140.33333333333331</ele><time>2026-05-02T08:03:56.498Z</time></trkpt><trkpt lat="41.8871333" lon="12.7616967"><ele>140.0</ele><time>2026-05-02T08:03:57.498Z</time></trkpt><trkpt lat="41.8872783" lon="12.76159"><ele>140.0</ele><time>2026-05-02T08:03:58.498Z</time></trkpt><trkpt lat="41.8874217" lon="12.7614883"><ele>140.0</ele><time>2026-05-02T08:03:59.498Z</time></trkpt><trkpt lat="41.88757" lon="12.76139"><ele>140.0</ele><time>2026-05-02T08:04:00.499Z</time></trkpt><trkpt lat="41.8877233" lon="12.7612933"><ele>140.0</ele><time>2026-05-02T08:04:01.498Z</time></trkpt><trkpt lat="41.88788" lon="12.7612"><ele>140.0</ele><time>2026-05-02T08:04:02.498Z</time></trkpt><trkpt lat="41.8880333" lon="12.7611033"><ele>140.0</ele><time>2026-05-02T08:04:03.498Z</time></trkpt><trkpt lat="41.888195" lon="12.761015"><ele>139.33333333333331</ele><time>2026-05-02T08:04:04.498Z</time></trkpt><trkpt lat="41.8883533" lon="12.7609183"><ele>138.66666666666666</ele><time>2026-05-02T08:04:05.498Z</time></trkpt><trkpt lat="41.888515" lon="12.76081"><ele>138.0</ele><time>2026-05-02T08:04:06.498Z</time></trkpt><trkpt lat="41.8886717" lon="12.760695"><ele>139.66666666666666</ele><time>2026-05-02T08:04:07.498Z</time></trkpt><trkpt lat="41.8888333" lon="12.7605783"><ele>141.33333333333331</ele><time>2026-05-02T08:04:08.498Z</time></trkpt><trkpt lat="41.888985" lon="12.7604717"><ele>143.0</ele><time>2026-05-02T08:04:09.498Z</time></trkpt><trkpt lat="41.8891333" lon="12.76036"><ele>142.33333333333331</ele><time>2026-05-02T08:04:10.498Z</time></trkpt><trkpt lat="41.8892783" lon="12.760245"><ele>141.66666666666666</ele><time>2026-05-02T08:04:11.498Z</time></trkpt><trkpt lat="41.8894267" lon="12.7601233"><ele>141.0</ele><time>2026-05-02T08:04:12.498Z</time></trkpt><trkpt lat="41.889575" lon="12.76"><ele>141.0</ele><time>2026-05-02T08:04:13.498Z</time></trkpt><trkpt lat="41.88972" lon="12.7598783"><ele>141.0</ele><time>2026-05-02T08:04:14.498Z</time></trkpt><trkpt lat="41.8898617" lon="12.7597667"><ele>141.0</ele><time>2026-05-02T08:04:15.498Z</time></trkpt><trkpt lat="41.88999" lon="12.7596617"><ele>140.75</ele><time>2026-05-02T08:04:16.498Z</time></trkpt><trkpt lat="41.8901117" lon="12.75957"><ele>140.5</ele><time>2026-05-02T08:04:17.498Z</time></trkpt><trkpt lat="41.8902283" lon="12.75948"><ele>140.25</ele><time>2026-05-02T08:04:18.498Z</time></trkpt><trkpt lat="41.8903367" lon="12.7593983"><ele>140.0</ele><time>2026-05-02T08:04:19.498Z</time></trkpt><trkpt lat="41.8904383" lon="12.75932"><ele>140.0</ele><time>2026-05-02T08:04:20.499Z</time></trkpt><trkpt lat="41.8905283" lon="12.7592567"><ele>140.0</ele><time>2026-05-02T08:04:21.498Z</time></trkpt><trkpt lat="41.890615" lon="12.7592"><ele>140.0</ele><time>2026-05-02T08:04:22.499Z</time></trkpt><trkpt lat="41.8906967" lon="12.7591533"><ele>140.0</ele><time>2026-05-02T08:04:23.498Z</time></trkpt><trkpt lat="41.8907817" lon="12.759115"><ele>140.0</ele><time>2026-05-02T08:04:24.499Z</time></trkpt><trkpt lat="41.8908617" lon="12.7590967"><ele>139.83333333333331</ele><time>2026-05-02T08:04:25.498Z</time></trkpt><trkpt lat="41.890945" lon="12.7590867"><ele>139.66666666666666</ele><time>2026-05-02T08:04:26.498Z</time></trkpt><trkpt lat="41.89102" lon="12.759075"><ele>139.5</ele><time>2026-05-02T08:04:27.498Z</time></trkpt><trkpt lat="41.89109" lon="12.7590467"><ele>139.33333333333334</ele><time>2026-05-02T08:04:28.498Z</time></trkpt><trkpt lat="41.891155" lon="12.759005"><ele>139.16666666666669</ele><time>2026-05-02T08:04:29.498Z</time></trkpt><trkpt lat="41.8912267" lon="12.7589533"><ele>139.0</ele><time>2026-05-02T08:04:30.498Z</time></trkpt><trkpt lat="41.8913" lon="12.758895"><ele>139.0</ele><time>2026-05-02T08:04:31.499Z</time></trkpt><trkpt lat="41.8913717" lon="12.7588383"><ele>139.0</ele><time>2026-05-02T08:04:32.498Z</time></trkpt><trkpt lat="41.8914433" lon="12.75878"><ele>139.0</ele><time>2026-05-02T08:04:33.498Z</time></trkpt><trkpt lat="41.89151" lon="12.7587267"><ele>139.0</ele><time>2026-05-02T08:04:34.498Z</time></trkpt><trkpt lat="41.89158" lon="12.7586733"><ele>139.0</ele><time>2026-05-02T08:04:35.498Z</time></trkpt><trkpt lat="41.8916533" lon="12.7586233"><ele>139.0</ele><time>2026-05-02T08:04:36.498Z</time></trkpt><trkpt lat="41.891725" lon="12.7585733"><ele>138.5</ele><time>2026-05-02T08:04:37.498Z</time></trkpt><trkpt lat="41.8917983" lon="12.7585283"><ele>138.0</ele><time>2026-05-02T08:04:38.498Z</time></trkpt><trkpt lat="41.8918667" lon="12.7584917"><ele>137.5</ele><time>2026-05-02T08:04:39.498Z</time></trkpt><trkpt lat="41.89193" lon="12.7584583"><ele>137.0</ele><time>2026-05-02T08:04:40.498Z</time></trkpt><trkpt lat="41.8920367" lon="12.758425"><ele>136.5</ele><time>2026-05-02T08:04:42.498Z</time></trkpt><trkpt lat="41.89213" lon="12.7584067"><ele>136.0</ele><time>2026-05-02T08:04:44.498Z</time></trkpt><trkpt lat="41.8921967" lon="12.7583733"><ele>136.0</ele><time>2026-05-02T08:04:46.498Z</time></trkpt><trkpt lat="41.8922533" lon="12.758325"><ele>136.0</ele><time>2026-05-02T08:04:48.499Z</time></trkpt><trkpt lat="41.89232" lon="12.758225"><ele>136.0</ele><time>2026-05-02T08:29:50.499Z</time></trkpt><trkpt lat="41.892385" lon="12.7581717"><ele>136.0</ele><time>2026-05-02T08:29:52.498Z</time></trkpt><trkpt lat="41.89247" lon="12.7581083"><ele>136.0</ele><time>2026-05-02T08:29:54.498Z</time></trkpt><trkpt lat="41.8925567" lon="12.7580183"><ele>136.0</ele><time>2026-05-02T08:29:56.498Z</time></trkpt><trkpt lat="41.89265" lon="12.75795"><ele>136.0</ele><time>2026-05-02T08:29:58.498Z</time></trkpt><trkpt lat="41.8927267" lon="12.75787"><ele>136.0</ele><time>2026-05-02T08:30:00.498Z</time></trkpt><trkpt lat="41.8927717" lon="12.7577917"><ele>136.0</ele><time>2026-05-02T08:30:02.498Z</time></trkpt><trkpt lat="41.892815" lon="12.7576883"><ele>136.0</ele><time>2026-05-02T08:30:04.498Z</time></trkpt><trkpt lat="41.8928617" lon="12.757605"><ele>136.0</ele><time>2026-05-02T08:30:06.499Z</time></trkpt><trkpt lat="41.8929217" lon="12.757515"><ele>136.0</ele><time>2026-05-02T08:30:20.498Z</time></trkpt><trkpt lat="41.8929967" lon="12.757405"><ele>136.0</ele><time>2026-05-02T08:30:22.498Z</time></trkpt><trkpt lat="41.893045" lon="12.7573417"><ele>136.0</ele><time>2026-05-02T08:30:23.498Z</time></trkpt><trkpt lat="41.893095" lon="12.7572767"><ele>136.0</ele><time>2026-05-02T08:30:24.498Z</time></trkpt><trkpt lat="41.89316" lon="12.7572083"><ele>136.0</ele><time>2026-05-02T08:30:25.498Z</time></trkpt><trkpt lat="41.8932333" lon="12.7571333"><ele>136.0</ele><time>2026-05-02T08:30:26.498Z</time></trkpt><trkpt lat="41.8933117" lon="12.7570483"><ele>136.0</ele><time>2026-05-02T08:30:27.498Z</time></trkpt><trkpt lat="41.8933983" lon="12.756955"><ele>136.0</ele><time>2026-05-02T08:30:28.498Z</time></trkpt><trkpt lat="41.8934883" lon="12.7568583"><ele>136.0</ele><time>2026-05-02T08:30:29.498Z</time></trkpt><trkpt lat="41.89359" lon="12.7567667"><ele>136.0</ele><time>2026-05-02T08:30:30.498Z</time></trkpt><trkpt lat="41.893695" lon="12.7566767"><ele>135.0</ele><time>2026-05-02T08:30:31.498Z</time></trkpt><trkpt lat="41.8938117" lon="12.7565933"><ele>134.0</ele><time>2026-05-02T08:30:32.498Z</time></trkpt><trkpt lat="41.8939333" lon="12.7565133"><ele>133.0</ele><time>2026-05-02T08:30:33.498Z</time></trkpt><trkpt lat="41.8940617" lon="12.7564317"><ele>132.0</ele><time>2026-05-02T08:30:34.498Z</time></trkpt><trkpt lat="41.89419" lon="12.7563467"><ele>131.75</ele><time>2026-05-02T08:30:35.499Z</time></trkpt><trkpt lat="41.894325" lon="12.7562683"><ele>131.5</ele><time>2026-05-02T08:30:36.498Z</time></trkpt><trkpt lat="41.89446" lon="12.7561867"><ele>131.25</ele><time>2026-05-02T08:30:37.498Z</time></trkpt><trkpt lat="41.894595" lon="12.7560967"><ele>131.0</ele><time>2026-05-02T08:30:38.498Z</time></trkpt><trkpt lat="41.894745" lon="12.7560083"><ele>131.0</ele><time>2026-05-02T08:30:39.498Z</time></trkpt><trkpt lat="41.8948933" lon="12.75592"><ele>131.0</ele><time>2026-05-02T08:30:40.498Z</time></trkpt><trkpt lat="41.895045" lon="12.7558283"><ele>131.0</ele><time>2026-05-02T08:30:41.498Z</time></trkpt><trkpt lat="41.895195" lon="12.7557383"><ele>129.33333333333331</ele><time>2026-05-02T08:30:42.498Z</time></trkpt><trkpt lat="41.8953417" lon="12.7556483"><ele>127.66666666666666</ele><time>2026-05-02T08:30:43.498Z</time></trkpt><trkpt lat="41.89549" lon="12.7555683"><ele>126.0</ele><time>2026-05-02T08:30:44.498Z</time></trkpt><trkpt lat="41.895625" lon="12.7554967"><ele>126.0</ele><time>2026-05-02T08:30:45.498Z</time></trkpt><trkpt lat="41.89576" lon="12.7554333"><ele>126.0</ele><time>2026-05-02T08:30:46.498Z</time></trkpt><trkpt lat="41.8959017" lon="12.7553733"><ele>126.0</ele><time>2026-05-02T08:30:47.498Z</time></trkpt><trkpt lat="41.8960433" lon="12.7553033"><ele>126.0</ele><time>2026-05-02T08:30:48.498Z</time></trkpt><trkpt lat="41.8961833" lon="12.75523"><ele>125.75</ele><time>2026-05-02T08:30:49.498Z</time></trkpt><trkpt lat="41.8963233" lon="12.7551583"><ele>125.5</ele><time>2026-05-02T08:30:50.498Z</time></trkpt><trkpt lat="41.89646" lon="12.75509"><ele>125.25</ele><time>2026-05-02T08:30:51.498Z</time></trkpt><trkpt lat="41.8966017" lon="12.75502"><ele>125.0</ele><time>2026-05-02T08:30:52.498Z</time></trkpt><trkpt lat="41.89674" lon="12.75495"><ele>125.0</ele><time>2026-05-02T08:30:53.498Z</time></trkpt><trkpt lat="41.8968833" lon="12.7548883"><ele>125.0</ele><time>2026-05-02T08:30:54.498Z</time></trkpt><trkpt lat="41.897025" lon="12.7548267"><ele>125.0</ele><time>2026-05-02T08:30:55.498Z</time></trkpt><trkpt lat="41.8971683" lon="12.75477"><ele>125.0</ele><time>2026-05-02T08:30:56.498Z</time></trkpt><trkpt lat="41.8973167" lon="12.7547183"><ele>125.0</ele><time>2026-05-02T08:30:57.498Z</time></trkpt><trkpt lat="41.8974617" lon="12.75466"><ele>125.0</ele><time>2026-05-02T08:30:58.498Z</time></trkpt><trkpt lat="41.897605" lon="12.7545967"><ele>125.0</ele><time>2026-05-02T08:30:59.498Z</time></trkpt><trkpt lat="41.8977483" lon="12.75454"><ele>124.66666666666666</ele><time>2026-05-02T08:31:00.498Z</time></trkpt><trkpt lat="41.8978983" lon="12.7544783"><ele>124.33333333333334</ele><time>2026-05-02T08:31:01.498Z</time></trkpt><trkpt lat="41.8980483" lon="12.754415"><ele>124.0</ele><time>2026-05-02T08:31:02.498Z</time></trkpt><trkpt lat="41.8982017" lon="12.7543567"><ele>123.33333333333334</ele><time>2026-05-02T08:31:03.498Z</time></trkpt><trkpt lat="41.898365" lon="12.7542967"><ele>122.66666666666666</ele><time>2026-05-02T08:31:04.498Z</time></trkpt><trkpt lat="41.89852" lon="12.754235"><ele>122.0</ele><time>2026-05-02T08:31:05.498Z</time></trkpt><trkpt lat="41.8986867" lon="12.754175"><ele>121.33333333333333</ele><time>2026-05-02T08:31:06.498Z</time></trkpt><trkpt lat="41.89885" lon="12.7541133"><ele>120.66666666666666</ele><time>2026-05-02T08:31:07.498Z</time></trkpt><trkpt lat="41.89901" lon="12.7540517"><ele>120.0</ele><time>2026-05-02T08:31:08.499Z</time></trkpt><trkpt lat="41.8991733" lon="12.753995"><ele>119.66666666666666</ele><time>2026-05-02T08:31:09.499Z</time></trkpt><trkpt lat="41.8993367" lon="12.7539317"><ele>119.33333333333333</ele><time>2026-05-02T08:31:10.498Z</time></trkpt><trkpt lat="41.8995017" lon="12.7538717"><ele>119.0</ele><time>2026-05-02T08:31:11.498Z</time></trkpt><trkpt lat="41.899665" lon="12.75381"><ele>119.0</ele><time>2026-05-02T08:31:12.498Z</time></trkpt><trkpt lat="41.89983" lon="12.75375"><ele>119.0</ele><time>2026-05-02T08:31:13.498Z</time></trkpt><trkpt lat="41.8999967" lon="12.7536867"><ele>119.0</ele><time>2026-05-02T08:31:14.498Z</time></trkpt><trkpt lat="41.900165" lon="12.7536217"><ele>119.0</ele><time>2026-05-02T08:31:15.498Z</time></trkpt><trkpt lat="41.9003383" lon="12.7535633"><ele>119.0</ele><time>2026-05-02T08:31:16.498Z</time></trkpt><trkpt lat="41.9005133" lon="12.7534983"><ele>119.0</ele><time>2026-05-02T08:31:17.498Z</time></trkpt><trkpt lat="41.900695" lon="12.75343"><ele>118.33333333333333</ele><time>2026-05-02T08:31:18.498Z</time></trkpt><trkpt lat="41.9008767" lon="12.7533567"><ele>117.66666666666666</ele><time>2026-05-02T08:31:19.498Z</time></trkpt><trkpt lat="41.9010567" lon="12.7532883"><ele>117.0</ele><time>2026-05-02T08:31:20.498Z</time></trkpt><trkpt lat="41.901245" lon="12.753215"><ele>116.33333333333334</ele><time>2026-05-02T08:31:21.498Z</time></trkpt><trkpt lat="41.9014383" lon="12.75314"><ele>115.66666666666667</ele><time>2026-05-02T08:31:22.498Z</time></trkpt><trkpt lat="41.9016333" lon="12.753065"><ele>115.0</ele><time>2026-05-02T08:31:23.498Z</time></trkpt><trkpt lat="41.9018267" lon="12.7529933"><ele>114.0</ele><time>2026-05-02T08:31:24.498Z</time></trkpt><trkpt lat="41.9020167" lon="12.752925"><ele>113.0</ele><time>2026-05-02T08:31:25.498Z</time></trkpt><trkpt lat="41.9022033" lon="12.7528517"><ele>112.0</ele><time>2026-05-02T08:31:26.498Z</time></trkpt><trkpt lat="41.9023967" lon="12.7527717"><ele>111.66666666666667</ele><time>2026-05-02T08:31:27.498Z</time></trkpt><trkpt lat="41.9025833" lon="12.7527017"><ele>111.33333333333334</ele><time>2026-05-02T08:31:28.499Z</time></trkpt><trkpt lat="41.90277" lon="12.7526383"><ele>111.0</ele><time>2026-05-02T08:31:29.498Z</time></trkpt><trkpt lat="41.90295" lon="12.7525767"><ele>111.0</ele><time>2026-05-02T08:31:30.499Z</time></trkpt><trkpt lat="41.9031367" lon="12.7525067"><ele>111.0</ele><time>2026-05-02T08:31:31.498Z</time></trkpt><trkpt lat="41.90332" lon="12.75244"><ele>111.0</ele><time>2026-05-02T08:31:32.498Z</time></trkpt><trkpt lat="41.903505" lon="12.752365"><ele>110.66666666666666</ele><time>2026-05-02T08:31:33.498Z</time></trkpt><trkpt lat="41.9036933" lon="12.7522883"><ele>110.33333333333333</ele><time>2026-05-02T08:31:34.498Z</time></trkpt><trkpt lat="41.9038783" lon="12.752215"><ele>110.0</ele><time>2026-05-02T08:31:35.498Z</time></trkpt><trkpt lat="41.9040733" lon="12.7521383"><ele>109.0</ele><time>2026-05-02T08:31:36.498Z</time></trkpt><trkpt lat="41.90426" lon="12.752065"><ele>108.0</ele><time>2026-05-02T08:31:37.499Z</time></trkpt><trkpt lat="41.9044533" lon="12.7519933"><ele>107.0</ele><time>2026-05-02T08:31:38.498Z</time></trkpt><trkpt lat="41.90465" lon="12.7519233"><ele>107.66666666666666</ele><time>2026-05-02T08:31:39.498Z</time></trkpt><trkpt lat="41.9048417" lon="12.7518517"><ele>108.33333333333334</ele><time>2026-05-02T08:31:40.498Z</time></trkpt><trkpt lat="41.9050317" lon="12.751775"><ele>109.0</ele><time>2026-05-02T08:31:41.498Z</time></trkpt><trkpt lat="41.90522" lon="12.7517033"><ele>107.33333333333334</ele><time>2026-05-02T08:31:42.498Z</time></trkpt><trkpt lat="41.9054117" lon="12.7516317"><ele>105.66666666666666</ele><time>2026-05-02T08:31:43.498Z</time></trkpt><trkpt lat="41.9056033" lon="12.7515583"><ele>104.0</ele><time>2026-05-02T08:31:44.498Z</time></trkpt><trkpt lat="41.9057917" lon="12.7514883"><ele>104.33333333333333</ele><time>2026-05-02T08:31:45.498Z</time></trkpt><trkpt lat="41.9059833" lon="12.751415"><ele>104.66666666666666</ele><time>2026-05-02T08:31:46.498Z</time></trkpt><trkpt lat="41.906175" lon="12.7513467"><ele>105.0</ele><time>2026-05-02T08:31:47.498Z</time></trkpt><trkpt lat="41.9063667" lon="12.7512667"><ele>105.0</ele><time>2026-05-02T08:31:48.498Z</time></trkpt><trkpt lat="41.9065583" lon="12.7511917"><ele>105.0</ele><time>2026-05-02T08:31:49.498Z</time></trkpt><trkpt lat="41.9067467" lon="12.7511167"><ele>105.0</ele><time>2026-05-02T08:31:50.498Z</time></trkpt><trkpt lat="41.9069433" lon="12.7510433"><ele>105.33333333333334</ele><time>2026-05-02T08:31:51.498Z</time></trkpt><trkpt lat="41.907135" lon="12.7509683"><ele>105.66666666666667</ele><time>2026-05-02T08:31:52.498Z</time></trkpt><trkpt lat="41.907325" lon="12.7508933"><ele>106.0</ele><time>2026-05-02T08:31:53.498Z</time></trkpt><trkpt lat="41.9075183" lon="12.7508133"><ele>107.33333333333334</ele><time>2026-05-02T08:31:54.498Z</time></trkpt><trkpt lat="41.90771" lon="12.7507317"><ele>108.66666666666666</ele><time>2026-05-02T08:31:55.498Z</time></trkpt><trkpt lat="41.9078983" lon="12.7506483"><ele>110.0</ele><time>2026-05-02T08:31:56.498Z</time></trkpt><trkpt lat="41.908095" lon="12.7505717"><ele>110.0</ele><time>2026-05-02T08:31:57.499Z</time></trkpt><trkpt lat="41.90829" lon="12.75049"><ele>110.0</ele><time>2026-05-02T08:31:58.499Z</time></trkpt><trkpt lat="41.9084933" lon="12.750405"><ele>110.0</ele><time>2026-05-02T08:31:59.498Z</time></trkpt><trkpt lat="41.9086933" lon="12.7503183"><ele>110.33333333333333</ele><time>2026-05-02T08:32:00.498Z</time></trkpt><trkpt lat="41.908895" lon="12.7502283"><ele>110.66666666666666</ele><time>2026-05-02T08:32:01.498Z</time></trkpt><trkpt lat="41.9090917" lon="12.7501433"><ele>111.0</ele><time>2026-05-02T08:32:02.498Z</time></trkpt><trkpt lat="41.9092883" lon="12.7500567"><ele>110.0</ele><time>2026-05-02T08:32:03.498Z</time></trkpt><trkpt lat="41.9094867" lon="12.7499717"><ele>109.0</ele><time>2026-05-02T08:32:04.498Z</time></trkpt><trkpt lat="41.9096817" lon="12.7498783"><ele>108.0</ele><time>2026-05-02T08:32:05.498Z</time></trkpt><trkpt lat="41.9098783" lon="12.7497867"><ele>108.0</ele><time>2026-05-02T08:32:06.498Z</time></trkpt><trkpt lat="41.91007" lon="12.7497017"><ele>108.0</ele><time>2026-05-02T08:32:07.498Z</time></trkpt><trkpt lat="41.9102667" lon="12.7496133"><ele>108.0</ele><time>2026-05-02T08:32:08.499Z</time></trkpt><trkpt lat="41.9104633" lon="12.7495133"><ele>107.0</ele><time>2026-05-02T08:32:09.498Z</time></trkpt><trkpt lat="41.9106567" lon="12.7494217"><ele>106.0</ele><time>2026-05-02T08:32:10.499Z</time></trkpt><trkpt lat="41.9108533" lon="12.7493267"><ele>105.0</ele><time>2026-05-02T08:32:11.499Z</time></trkpt><trkpt lat="41.9110533" lon="12.749235"><ele>103.33333333333334</ele><time>2026-05-02T08:32:12.498Z</time></trkpt><trkpt lat="41.9112483" lon="12.749145"><ele>101.66666666666667</ele><time>2026-05-02T08:32:13.498Z</time></trkpt><trkpt lat="41.91144" lon="12.7490467"><ele>100.0</ele><time>2026-05-02T08:32:14.498Z</time></trkpt><trkpt lat="41.9116417" lon="12.748955"><ele>98.66666666666667</ele><time>2026-05-02T08:32:15.498Z</time></trkpt><trkpt lat="41.911845" lon="12.74885"><ele>97.33333333333334</ele><time>2026-05-02T08:32:16.498Z</time></trkpt><trkpt lat="41.9120417" lon="12.7487483"><ele>96.0</ele><time>2026-05-02T08:32:17.498Z</time></trkpt><trkpt lat="41.91224" lon="12.7486467"><ele>96.0</ele><time>2026-05-02T08:32:18.498Z</time></trkpt><trkpt lat="41.9124417" lon="12.7485483"><ele>96.0</ele><time>2026-05-02T08:32:19.498Z</time></trkpt><trkpt lat="41.9126467" lon="12.7484533"><ele>96.0</ele><time>2026-05-02T08:32:20.499Z</time></trkpt><trkpt lat="41.9128467" lon="12.7483517"><ele>95.66666666666667</ele><time>2026-05-02T08:32:21.498Z</time></trkpt><trkpt lat="41.9130467" lon="12.74825"><ele>95.33333333333334</ele><time>2026-05-02T08:32:22.498Z</time></trkpt><trkpt lat="41.9132567" lon="12.7481483"><ele>95.0</ele><time>2026-05-02T08:32:23.498Z</time></trkpt><trkpt lat="41.91346" lon="12.7480433"><ele>96.0</ele><time>2026-05-02T08:32:24.498Z</time></trkpt><trkpt lat="41.9136633" lon="12.7479433"><ele>97.0</ele><time>2026-05-02T08:32:25.498Z</time></trkpt><trkpt lat="41.9138683" lon="12.74784"><ele>98.0</ele><time>2026-05-02T08:32:26.498Z</time></trkpt><trkpt lat="41.9140783" lon="12.74774"><ele>97.33333333333333</ele><time>2026-05-02T08:32:27.498Z</time></trkpt><trkpt lat="41.9142817" lon="12.7476317"><ele>96.66666666666666</ele><time>2026-05-02T08:32:28.498Z</time></trkpt><trkpt lat="41.9144883" lon="12.7475333"><ele>96.0</ele><time>2026-05-02T08:32:29.499Z</time></trkpt><trkpt lat="41.914695" lon="12.7474283"><ele>96.0</ele><time>2026-05-02T08:32:30.498Z</time></trkpt><trkpt lat="41.9149017" lon="12.7473267"><ele>96.0</ele><time>2026-05-02T08:32:31.498Z</time></trkpt><trkpt lat="41.915105" lon="12.7472283"><ele>96.0</ele><time>2026-05-02T08:32:32.498Z</time></trkpt><trkpt lat="41.9153117" lon="12.7471233"><ele>95.66666666666667</ele><time>2026-05-02T08:32:33.498Z</time></trkpt><trkpt lat="41.915515" lon="12.74701"><ele>95.33333333333334</ele><time>2026-05-02T08:32:34.498Z</time></trkpt><trkpt lat="41.9157167" lon="12.7468983"><ele>95.0</ele><time>2026-05-02T08:32:35.498Z</time></trkpt><trkpt lat="41.91592" lon="12.7467917"><ele>92.0</ele><time>2026-05-02T08:32:36.498Z</time></trkpt><trkpt lat="41.916125" lon="12.7466917"><ele>89.0</ele><time>2026-05-02T08:32:37.498Z</time></trkpt><trkpt lat="41.91633" lon="12.7465933"><ele>86.0</ele><time>2026-05-02T08:32:38.498Z</time></trkpt><trkpt lat="41.9165333" lon="12.7464917"><ele>86.0</ele><time>2026-05-02T08:32:39.498Z</time></trkpt><trkpt lat="41.9167333" lon="12.7463883"><ele>86.0</ele><time>2026-05-02T08:32:40.498Z</time></trkpt><trkpt lat="41.9169367" lon="12.7462917"><ele>86.0</ele><time>2026-05-02T08:32:41.498Z</time></trkpt><trkpt lat="41.9171333" lon="12.7461983"><ele>83.66666666666667</ele><time>2026-05-02T08:32:42.498Z</time></trkpt><trkpt lat="41.9173367" lon="12.7461"><ele>81.33333333333333</ele><time>2026-05-02T08:32:43.498Z</time></trkpt><trkpt lat="41.91754" lon="12.745995"><ele>79.0</ele><time>2026-05-02T08:32:44.498Z</time></trkpt><trkpt lat="41.9177433" lon="12.7458917"><ele>77.0</ele><time>2026-05-02T08:32:45.498Z</time></trkpt><trkpt lat="41.9179467" lon="12.7457983"><ele>75.0</ele><time>2026-05-02T08:32:46.498Z</time></trkpt><trkpt lat="41.91815" lon="12.7456967"><ele>73.0</ele><time>2026-05-02T08:32:47.498Z</time></trkpt><trkpt lat="41.9183517" lon="12.7455883"><ele>71.66666666666666</ele><time>2026-05-02T08:32:48.498Z</time></trkpt><trkpt lat="41.9185483" lon="12.7454883"><ele>70.33333333333333</ele><time>2026-05-02T08:32:49.498Z</time></trkpt><trkpt lat="41.9187483" lon="12.7453833"><ele>69.0</ele><time>2026-05-02T08:32:50.498Z</time></trkpt><trkpt lat="41.9189533" lon="12.7452833"><ele>68.66666666666667</ele><time>2026-05-02T08:32:51.498Z</time></trkpt><trkpt lat="41.9191567" lon="12.7451817"><ele>68.33333333333334</ele><time>2026-05-02T08:32:52.498Z</time></trkpt><trkpt lat="41.9193633" lon="12.74508"><ele>68.0</ele><time>2026-05-02T08:32:53.498Z</time></trkpt><trkpt lat="41.9195717" lon="12.7449783"><ele>67.33333333333334</ele><time>2026-05-02T08:32:54.498Z</time></trkpt><trkpt lat="41.919775" lon="12.7448783"><ele>66.66666666666667</ele><time>2026-05-02T08:32:55.498Z</time></trkpt><trkpt lat="41.9199817" lon="12.74477"><ele>66.0</ele><time>2026-05-02T08:32:56.498Z</time></trkpt><trkpt lat="41.9201867" lon="12.7446683"><ele>65.66666666666667</ele><time>2026-05-02T08:32:57.498Z</time></trkpt><trkpt lat="41.9203883" lon="12.74456"><ele>65.33333333333334</ele><time>2026-05-02T08:32:58.498Z</time></trkpt><trkpt lat="41.9206" lon="12.74446"><ele>65.0</ele><time>2026-05-02T08:32:59.499Z</time></trkpt><trkpt lat="41.9208033" lon="12.744355"><ele>64.66666666666667</ele><time>2026-05-02T08:33:00.499Z</time></trkpt><trkpt lat="41.92101" lon="12.74425"><ele>64.33333333333333</ele><time>2026-05-02T08:33:01.498Z</time></trkpt><trkpt lat="41.9212167" lon="12.7441467"><ele>64.0</ele><time>2026-05-02T08:33:02.498Z</time></trkpt><trkpt lat="41.92142" lon="12.744045"><ele>64.0</ele><time>2026-05-02T08:33:03.498Z</time></trkpt><trkpt lat="41.9216283" lon="12.7439367"><ele>64.0</ele><time>2026-05-02T08:33:04.498Z</time></trkpt><trkpt lat="41.9218383" lon="12.7438333"><ele>64.0</ele><time>2026-05-02T08:33:05.498Z</time></trkpt><trkpt lat="41.9220483" lon="12.74373"><ele>64.0</ele><time>2026-05-02T08:33:06.499Z</time></trkpt><trkpt lat="41.9222617" lon="12.7436267"><ele>64.0</ele><time>2026-05-02T08:33:07.498Z</time></trkpt><trkpt lat="41.9224767" lon="12.7435267"><ele>63.5</ele><time>2026-05-02T08:33:08.498Z</time></trkpt><trkpt lat="41.922685" lon="12.7434217"><ele>63.0</ele><time>2026-05-02T08:33:09.498Z</time></trkpt><trkpt lat="41.9229" lon="12.74331"><ele>63.0</ele><time>2026-05-02T08:33:10.498Z</time></trkpt><trkpt lat="41.9231133" lon="12.7432017"><ele>63.0</ele><time>2026-05-02T08:33:11.498Z</time></trkpt><trkpt lat="41.9233333" lon="12.7430867"><ele>61.0</ele><time>2026-05-02T08:33:12.498Z</time></trkpt><trkpt lat="41.9235567" lon="12.7429733"><ele>59.0</ele><time>2026-05-02T08:33:13.498Z</time></trkpt><trkpt lat="41.923775" lon="12.74286"><ele>59.0</ele><time>2026-05-02T08:33:14.498Z</time></trkpt><trkpt lat="41.9239933" lon="12.7427533"><ele>59.0</ele><time>2026-05-02T08:33:15.498Z</time></trkpt><trkpt lat="41.92421" lon="12.7426467"><ele>58.5</ele><time>2026-05-02T08:33:16.498Z</time></trkpt><trkpt lat="41.924435" lon="12.7425317"><ele>58.0</ele><time>2026-05-02T08:33:17.498Z</time></trkpt><trkpt lat="41.924655" lon="12.7424217"><ele>58.0</ele><time>2026-05-02T08:33:18.498Z</time></trkpt><trkpt lat="41.9248733" lon="12.7423067"><ele>58.0</ele><time>2026-05-02T08:33:19.498Z</time></trkpt><trkpt lat="41.92509" lon="12.7421883"><ele>56.0</ele><time>2026-05-02T08:33:20.498Z</time></trkpt><trkpt lat="41.9253033" lon="12.7420767"><ele>54.0</ele><time>2026-05-02T08:33:21.498Z</time></trkpt><trkpt lat="41.92552" lon="12.74197"><ele>53.66666666666667</ele><time>2026-05-02T08:33:22.498Z</time></trkpt><trkpt lat="41.92573" lon="12.7418683"><ele>53.333333333333336</ele><time>2026-05-02T08:33:23.498Z</time></trkpt><trkpt lat="41.9259383" lon="12.7417617"><ele>53.0</ele><time>2026-05-02T08:33:24.498Z</time></trkpt><trkpt lat="41.9261433" lon="12.7416567"><ele>53.0</ele><time>2026-05-02T08:33:25.498Z</time></trkpt><trkpt lat="41.926355" lon="12.7415567"><ele>53.0</ele><time>2026-05-02T08:33:26.498Z</time></trkpt><trkpt lat="41.92656" lon="12.7414417"><ele>53.0</ele><time>2026-05-02T08:33:27.498Z</time></trkpt><trkpt lat="41.9267683" lon="12.7413317"><ele>52.0</ele><time>2026-05-02T08:33:28.498Z</time></trkpt><trkpt lat="41.926975" lon="12.74123"><ele>51.0</ele><time>2026-05-02T08:33:29.498Z</time></trkpt><trkpt lat="41.92719" lon="12.74113"><ele>50.0</ele><time>2026-05-02T08:33:30.498Z</time></trkpt><trkpt lat="41.9273983" lon="12.741025"><ele>47.5</ele><time>2026-05-02T08:33:31.498Z</time></trkpt><trkpt lat="41.927615" lon="12.7409167"><ele>45.0</ele><time>2026-05-02T08:33:32.498Z</time></trkpt><trkpt lat="41.9278317" lon="12.7408067"><ele>45.0</ele><time>2026-05-02T08:33:33.498Z</time></trkpt><trkpt lat="41.92805" lon="12.740695"><ele>45.0</ele><time>2026-05-02T08:33:34.498Z</time></trkpt><trkpt lat="41.9282683" lon="12.74058"><ele>44.5</ele><time>2026-05-02T08:33:35.498Z</time></trkpt><trkpt lat="41.9284783" lon="12.7404667"><ele>44.0</ele><time>2026-05-02T08:33:36.498Z</time></trkpt><trkpt lat="41.9286883" lon="12.740355"><ele>44.0</ele><time>2026-05-02T08:33:37.498Z</time></trkpt><trkpt lat="41.9289033" lon="12.7402467"><ele>44.0</ele><time>2026-05-02T08:33:38.498Z</time></trkpt><trkpt lat="41.9291117" lon="12.7401283"><ele>45.0</ele><time>2026-05-02T08:33:39.498Z</time></trkpt><trkpt lat="41.9293217" lon="12.7400083"><ele>46.0</ele><time>2026-05-02T08:33:40.498Z</time></trkpt><trkpt lat="41.9295317" lon="12.739885"><ele>46.0</ele><time>2026-05-02T08:33:41.498Z</time></trkpt><trkpt lat="41.929735" lon="12.7397583"><ele>46.0</ele><time>2026-05-02T08:33:42.498Z</time></trkpt><trkpt lat="41.9299433" lon="12.7396283"><ele>47.0</ele><time>2026-05-02T08:33:43.498Z</time></trkpt><trkpt lat="41.9301467" lon="12.7395033"><ele>48.0</ele><time>2026-05-02T08:33:44.498Z</time></trkpt><trkpt lat="41.9303583" lon="12.7393767"><ele>48.0</ele><time>2026-05-02T08:33:45.498Z</time></trkpt><trkpt lat="41.93056" lon="12.739245"><ele>48.0</ele><time>2026-05-02T08:33:46.498Z</time></trkpt><trkpt lat="41.9307617" lon="12.739105"><ele>52.5</ele><time>2026-05-02T08:33:47.498Z</time></trkpt><trkpt lat="41.9309617" lon="12.7389583"><ele>57.0</ele><time>2026-05-02T08:33:48.498Z</time></trkpt><trkpt lat="41.9311567" lon="12.738805"><ele>57.0</ele><time>2026-05-02T08:33:49.499Z</time></trkpt><trkpt lat="41.931355" lon="12.7386583"><ele>57.0</ele><time>2026-05-02T08:33:50.498Z</time></trkpt><trkpt lat="41.9315517" lon="12.7385017"><ele>57.5</ele><time>2026-05-02T08:33:51.499Z</time></trkpt><trkpt lat="41.93175" lon="12.7383383"><ele>58.0</ele><time>2026-05-02T08:33:52.498Z</time></trkpt><trkpt lat="41.9319483" lon="12.7381867"><ele>58.0</ele><time>2026-05-02T08:33:53.498Z</time></trkpt><trkpt lat="41.93214" lon="12.738015"><ele>58.0</ele><time>2026-05-02T08:33:54.498Z</time></trkpt><trkpt lat="41.93233" lon="12.7378467"><ele>57.0</ele><time>2026-05-02T08:33:55.498Z</time></trkpt><trkpt lat="41.9325167" lon="12.7376733"><ele>56.0</ele><time>2026-05-02T08:33:56.498Z</time></trkpt><trkpt lat="41.9327017" lon="12.7374983"><ele>56.0</ele><time>2026-05-02T08:33:57.498Z</time></trkpt><trkpt lat="41.9328883" lon="12.7373183"><ele>56.0</ele><time>2026-05-02T08:33:58.498Z</time></trkpt><trkpt lat="41.9330667" lon="12.7371333"><ele>56.0</ele><time>2026-05-02T08:33:59.499Z</time></trkpt><trkpt lat="41.9332433" lon="12.7369533"><ele>56.0</ele><time>2026-05-02T08:34:00.498Z</time></trkpt><trkpt lat="41.9334217" lon="12.7367683"><ele>56.0</ele><time>2026-05-02T08:34:01.498Z</time></trkpt><trkpt lat="41.9335967" lon="12.73658"><ele>53.5</ele><time>2026-05-02T08:34:02.498Z</time></trkpt><trkpt lat="41.9337717" lon="12.736385"><ele>51.0</ele><time>2026-05-02T08:34:03.498Z</time></trkpt><trkpt lat="41.9339433" lon="12.736185"><ele>53.0</ele><time>2026-05-02T08:34:04.498Z</time></trkpt><trkpt lat="41.93411" lon="12.7359817"><ele>55.0</ele><time>2026-05-02T08:34:05.498Z</time></trkpt><trkpt lat="41.9342767" lon="12.7357767"><ele>57.0</ele><time>2026-05-02T08:34:06.498Z</time></trkpt><trkpt lat="41.9344433" lon="12.735565"><ele>59.0</ele><time>2026-05-02T08:34:07.498Z</time></trkpt><trkpt lat="41.9346133" lon="12.73535"><ele>58.0</ele><time>2026-05-02T08:34:08.498Z</time></trkpt><trkpt lat="41.93478" lon="12.735135"><ele>57.0</ele><time>2026-05-02T08:34:09.498Z</time></trkpt><trkpt lat="41.93494" lon="12.7349167"><ele>58.0</ele><time>2026-05-02T08:34:10.498Z</time></trkpt><trkpt lat="41.935105" lon="12.7346833"><ele>59.0</ele><time>2026-05-02T08:34:11.498Z</time></trkpt><trkpt lat="41.9352683" lon="12.73445"><ele>59.5</ele><time>2026-05-02T08:34:12.498Z</time></trkpt><trkpt lat="41.9354167" lon="12.734215"><ele>60.0</ele><time>2026-05-02T08:34:13.498Z</time></trkpt><trkpt lat="41.9355683" lon="12.73398"><ele>60.0</ele><time>2026-05-02T08:34:14.498Z</time></trkpt><trkpt lat="41.935715" lon="12.7337483"><ele>60.0</ele><time>2026-05-02T08:34:15.498Z</time></trkpt><trkpt lat="41.9358667" lon="12.7335"><ele>60.5</ele><time>2026-05-02T08:34:16.498Z</time></trkpt><trkpt lat="41.93601" lon="12.733265"><ele>61.0</ele><time>2026-05-02T08:34:17.498Z</time></trkpt><trkpt lat="41.9361467" lon="12.7330183"><ele>61.0</ele><time>2026-05-02T08:34:18.499Z</time></trkpt><trkpt lat="41.93628" lon="12.732775"><ele>61.0</ele><time>2026-05-02T08:34:19.498Z</time></trkpt><trkpt lat="41.93642" lon="12.7325233"><ele>59.5</ele><time>2026-05-02T08:34:20.498Z</time></trkpt><trkpt lat="41.936555" lon="12.7322683"><ele>58.0</ele><time>2026-05-02T08:34:21.498Z</time></trkpt><trkpt lat="41.9366917" lon="12.7320067"><ele>49.5</ele><time>2026-05-02T08:34:22.498Z</time></trkpt><trkpt lat="41.9368267" lon="12.7317483"><ele>41.0</ele><time>2026-05-02T08:34:23.498Z</time></trkpt><trkpt lat="41.9369617" lon="12.7314817"><ele>41.0</ele><time>2026-05-02T08:34:24.499Z</time></trkpt><trkpt lat="41.9370883" lon="12.7312183"><ele>41.0</ele><time>2026-05-02T08:34:25.498Z</time></trkpt><trkpt lat="41.9372067" lon="12.7309583"><ele>40.5</ele><time>2026-05-02T08:34:26.498Z</time></trkpt><trkpt lat="41.9373267" lon="12.7306967"><ele>40.0</ele><time>2026-05-02T08:34:27.498Z</time></trkpt><trkpt lat="41.9374467" lon="12.730445"><ele>39.66666666666667</ele><time>2026-05-02T08:34:28.499Z</time></trkpt><trkpt lat="41.9375617" lon="12.7301917"><ele>39.333333333333336</ele><time>2026-05-02T08:34:29.498Z</time></trkpt><trkpt lat="41.9376717" lon="12.7299417"><ele>39.0</ele><time>2026-05-02T08:34:30.498Z</time></trkpt><trkpt lat="41.9377767" lon="12.7296933"><ele>39.0</ele><time>2026-05-02T08:34:31.498Z</time></trkpt><trkpt lat="41.937885" lon="12.7294483"><ele>39.0</ele><time>2026-05-02T08:34:32.498Z</time></trkpt><trkpt lat="41.937995" lon="12.7291933"><ele>39.0</ele><time>2026-05-02T08:34:33.498Z</time></trkpt><trkpt lat="41.9381017" lon="12.7289417"><ele>39.333333333333336</ele><time>2026-05-02T08:34:34.498Z</time></trkpt><trkpt lat="41.9382133" lon="12.7286883"><ele>39.66666666666667</ele><time>2026-05-02T08:34:35.498Z</time></trkpt><trkpt lat="41.9383217" lon="12.72843"><ele>40.0</ele><time>2026-05-02T08:34:36.498Z</time></trkpt><trkpt lat="41.9384317" lon="12.728175"><ele>40.0</ele><time>2026-05-02T08:34:37.498Z</time></trkpt><trkpt lat="41.9385367" lon="12.72792"><ele>40.0</ele><time>2026-05-02T08:34:38.498Z</time></trkpt><trkpt lat="41.9386383" lon="12.7276633"><ele>40.0</ele><time>2026-05-02T08:34:39.498Z</time></trkpt><trkpt lat="41.9387417" lon="12.727415"><ele>40.66666666666667</ele><time>2026-05-02T08:34:40.498Z</time></trkpt><trkpt lat="41.9388483" lon="12.7271717"><ele>41.333333333333336</ele><time>2026-05-02T08:34:41.498Z</time></trkpt><trkpt lat="41.9389517" lon="12.7269317"><ele>42.0</ele><time>2026-05-02T08:34:42.498Z</time></trkpt><trkpt lat="41.9390517" lon="12.7266917"><ele>42.333333333333336</ele><time>2026-05-02T08:34:43.498Z</time></trkpt><trkpt lat="41.9391533" lon="12.7264533"><ele>42.66666666666667</ele><time>2026-05-02T08:34:44.498Z</time></trkpt><trkpt lat="41.9392533" lon="12.7262133"><ele>43.0</ele><time>2026-05-02T08:34:45.498Z</time></trkpt><trkpt lat="41.939355" lon="12.7259733"><ele>43.66666666666667</ele><time>2026-05-02T08:34:46.498Z</time></trkpt><trkpt lat="41.939455" lon="12.725725"><ele>44.333333333333336</ele><time>2026-05-02T08:34:47.498Z</time></trkpt><trkpt lat="41.939555" lon="12.725485"><ele>45.0</ele><time>2026-05-02T08:34:48.498Z</time></trkpt><trkpt lat="41.93966" lon="12.7252367"><ele>45.333333333333336</ele><time>2026-05-02T08:34:49.498Z</time></trkpt><trkpt lat="41.9397633" lon="12.724995"><ele>45.66666666666667</ele><time>2026-05-02T08:34:50.498Z</time></trkpt><trkpt lat="41.9398667" lon="12.7247483"><ele>46.0</ele><time>2026-05-02T08:34:51.498Z</time></trkpt><trkpt lat="41.9399683" lon="12.7245017"><ele>46.0</ele><time>2026-05-02T08:34:52.498Z</time></trkpt><trkpt lat="41.94007" lon="12.724255"><ele>46.0</ele><time>2026-05-02T08:34:53.498Z</time></trkpt><trkpt lat="41.9401767" lon="12.7240067"><ele>46.0</ele><time>2026-05-02T08:34:54.498Z</time></trkpt><trkpt lat="41.9402833" lon="12.723755"><ele>46.5</ele><time>2026-05-02T08:34:55.498Z</time></trkpt><trkpt lat="41.94049" lon="12.723255"><ele>47.0</ele><time>2026-05-02T08:34:57.498Z</time></trkpt><trkpt lat="41.9405967" lon="12.7230033"><ele>47.0</ele><time>2026-05-02T08:34:58.498Z</time></trkpt><trkpt lat="41.9407033" lon="12.72275"><ele>47.0</ele><time>2026-05-02T08:34:59.499Z</time></trkpt><trkpt lat="41.94081" lon="12.7224933"><ele>47.0</ele><time>2026-05-02T08:35:00.498Z</time></trkpt><trkpt lat="41.9409167" lon="12.722235"><ele>47.666666666666664</ele><time>2026-05-02T08:35:01.498Z</time></trkpt><trkpt lat="41.9410267" lon="12.721975"><ele>48.33333333333333</ele><time>2026-05-02T08:35:02.498Z</time></trkpt><trkpt lat="41.941135" lon="12.7217183"><ele>49.0</ele><time>2026-05-02T08:35:03.498Z</time></trkpt><trkpt lat="41.9412433" lon="12.721465"><ele>49.0</ele><time>2026-05-02T08:35:04.499Z</time></trkpt><trkpt lat="41.9413533" lon="12.7212083"><ele>49.0</ele><time>2026-05-02T08:35:05.498Z</time></trkpt><trkpt lat="41.941455" lon="12.7209583"><ele>49.0</ele><time>2026-05-02T08:35:06.498Z</time></trkpt><trkpt lat="41.9415667" lon="12.7207"><ele>48.0</ele><time>2026-05-02T08:35:07.499Z</time></trkpt><trkpt lat="41.941675" lon="12.7204417"><ele>47.0</ele><time>2026-05-02T08:35:08.498Z</time></trkpt><trkpt lat="41.9417783" lon="12.7201783"><ele>46.0</ele><time>2026-05-02T08:35:09.498Z</time></trkpt><trkpt lat="41.941885" lon="12.7199217"><ele>45.66666666666667</ele><time>2026-05-02T08:35:10.498Z</time></trkpt><trkpt lat="41.9419933" lon="12.719665"><ele>45.333333333333336</ele><time>2026-05-02T08:35:11.498Z</time></trkpt><trkpt lat="41.9421017" lon="12.71941"><ele>45.0</ele><time>2026-05-02T08:35:12.498Z</time></trkpt><trkpt lat="41.94221" lon="12.71916"><ele>46.0</ele><time>2026-05-02T08:35:13.498Z</time></trkpt><trkpt lat="41.9423183" lon="12.7189067"><ele>47.0</ele><time>2026-05-02T08:35:14.498Z</time></trkpt><trkpt lat="41.9424233" lon="12.7186533"><ele>48.0</ele><time>2026-05-02T08:35:15.498Z</time></trkpt><trkpt lat="41.9425267" lon="12.718395"><ele>47.666666666666664</ele><time>2026-05-02T08:35:16.498Z</time></trkpt><trkpt lat="41.942635" lon="12.7181317"><ele>47.33333333333333</ele><time>2026-05-02T08:35:17.498Z</time></trkpt><trkpt lat="41.9427417" lon="12.7178783"><ele>47.0</ele><time>2026-05-02T08:35:18.499Z</time></trkpt><trkpt lat="41.9428417" lon="12.7176217"><ele>47.0</ele><time>2026-05-02T08:35:19.498Z</time></trkpt><trkpt lat="41.9429517" lon="12.7173733"><ele>47.0</ele><time>2026-05-02T08:35:20.498Z</time></trkpt><trkpt lat="41.9430583" lon="12.7171183"><ele>47.0</ele><time>2026-05-02T08:35:21.498Z</time></trkpt><trkpt lat="41.9431667" lon="12.71687"><ele>47.666666666666664</ele><time>2026-05-02T08:35:22.498Z</time></trkpt><trkpt lat="41.9432733" lon="12.7166217"><ele>48.33333333333333</ele><time>2026-05-02T08:35:23.498Z</time></trkpt><trkpt lat="41.9433717" lon="12.716375"><ele>49.0</ele><time>2026-05-02T08:35:24.498Z</time></trkpt><trkpt lat="41.943475" lon="12.7161233"><ele>49.666666666666664</ele><time>2026-05-02T08:35:25.498Z</time></trkpt><trkpt lat="41.9435817" lon="12.715865"><ele>50.33333333333333</ele><time>2026-05-02T08:35:26.498Z</time></trkpt><trkpt lat="41.9436867" lon="12.715605"><ele>51.0</ele><time>2026-05-02T08:35:27.498Z</time></trkpt><trkpt lat="41.9437933" lon="12.7153567"><ele>50.33333333333333</ele><time>2026-05-02T08:35:28.498Z</time></trkpt><trkpt lat="41.943895" lon="12.7150967"><ele>49.666666666666664</ele><time>2026-05-02T08:35:29.498Z</time></trkpt><trkpt lat="41.9440083" lon="12.71483"><ele>49.0</ele><time>2026-05-02T08:35:30.498Z</time></trkpt><trkpt lat="41.94412" lon="12.7145667"><ele>48.666666666666664</ele><time>2026-05-02T08:35:31.498Z</time></trkpt><trkpt lat="41.94423" lon="12.714305"><ele>48.33333333333333</ele><time>2026-05-02T08:35:32.498Z</time></trkpt><trkpt lat="41.94434" lon="12.7140467"><ele>48.0</ele><time>2026-05-02T08:35:33.498Z</time></trkpt><trkpt lat="41.9444483" lon="12.7137817"><ele>48.5</ele><time>2026-05-02T08:35:34.498Z</time></trkpt><trkpt lat="41.9445567" lon="12.713515"><ele>49.0</ele><time>2026-05-02T08:35:35.498Z</time></trkpt><trkpt lat="41.944665" lon="12.7132483"><ele>49.0</ele><time>2026-05-02T08:35:36.498Z</time></trkpt><trkpt lat="41.9447783" lon="12.7129883"><ele>49.0</ele><time>2026-05-02T08:35:37.498Z</time></trkpt><trkpt lat="41.9448917" lon="12.7127217"><ele>49.0</ele><time>2026-05-02T08:35:38.498Z</time></trkpt><trkpt lat="41.9450033" lon="12.712455"><ele>49.0</ele><time>2026-05-02T08:35:39.498Z</time></trkpt><trkpt lat="41.9451183" lon="12.7121883"><ele>49.0</ele><time>2026-05-02T08:35:40.498Z</time></trkpt><trkpt lat="41.9452317" lon="12.7119217"><ele>49.0</ele><time>2026-05-02T08:35:41.498Z</time></trkpt><trkpt lat="41.9453467" lon="12.7116483"><ele>49.5</ele><time>2026-05-02T08:35:42.499Z</time></trkpt><trkpt lat="41.9454583" lon="12.7113783"><ele>50.0</ele><time>2026-05-02T08:35:43.498Z</time></trkpt><trkpt lat="41.9455717" lon="12.7111067"><ele>51.0</ele><time>2026-05-02T08:35:44.498Z</time></trkpt><trkpt lat="41.9456833" lon="12.71084"><ele>52.0</ele><time>2026-05-02T08:35:45.498Z</time></trkpt><trkpt lat="41.9457967" lon="12.7105717"><ele>52.0</ele><time>2026-05-02T08:35:46.498Z</time></trkpt><trkpt lat="41.9459067" lon="12.7103083"><ele>52.0</ele><time>2026-05-02T08:35:47.498Z</time></trkpt><trkpt lat="41.9460233" lon="12.710045"><ele>52.5</ele><time>2026-05-02T08:35:48.498Z</time></trkpt><trkpt lat="41.9461383" lon="12.7097833"><ele>53.0</ele><time>2026-05-02T08:35:49.499Z</time></trkpt><trkpt lat="41.9462633" lon="12.7095167"><ele>54.5</ele><time>2026-05-02T08:35:50.498Z</time></trkpt><trkpt lat="41.9463817" lon="12.7092567"><ele>56.0</ele><time>2026-05-02T08:35:51.498Z</time></trkpt><trkpt lat="41.9465017" lon="12.7089983"><ele>56.0</ele><time>2026-05-02T08:35:52.498Z</time></trkpt><trkpt lat="41.9466283" lon="12.7087367"><ele>56.0</ele><time>2026-05-02T08:35:53.499Z</time></trkpt><trkpt lat="41.9467617" lon="12.7084783"><ele>55.0</ele><time>2026-05-02T08:35:54.498Z</time></trkpt><trkpt lat="41.9468917" lon="12.708225"><ele>54.0</ele><time>2026-05-02T08:35:55.498Z</time></trkpt><trkpt lat="41.947025" lon="12.70797"><ele>55.0</ele><time>2026-05-02T08:35:56.498Z</time></trkpt><trkpt lat="41.94716" lon="12.7077217"><ele>56.0</ele><time>2026-05-02T08:35:57.498Z</time></trkpt><trkpt lat="41.9472983" lon="12.7074783"><ele>56.0</ele><time>2026-05-02T08:35:58.498Z</time></trkpt><trkpt lat="41.9474367" lon="12.7072417"><ele>56.0</ele><time>2026-05-02T08:35:59.498Z</time></trkpt><trkpt lat="41.947575" lon="12.7070117"><ele>56.0</ele><time>2026-05-02T08:36:00.498Z</time></trkpt><trkpt lat="41.94771" lon="12.7067933"><ele>56.0</ele><time>2026-05-02T08:36:01.498Z</time></trkpt><trkpt lat="41.9478433" lon="12.7065867"><ele>56.0</ele><time>2026-05-02T08:36:02.498Z</time></trkpt><trkpt lat="41.9479783" lon="12.7063867"><ele>56.0</ele><time>2026-05-02T08:36:03.498Z</time></trkpt><trkpt lat="41.9481133" lon="12.7061933"><ele>56.0</ele><time>2026-05-02T08:36:04.498Z</time></trkpt><trkpt lat="41.9482567" lon="12.7059983"><ele>56.0</ele><time>2026-05-02T08:36:05.498Z</time></trkpt><trkpt lat="41.9484017" lon="12.7058017"><ele>56.0</ele><time>2026-05-02T08:36:06.498Z</time></trkpt><trkpt lat="41.9485483" lon="12.7055933"><ele>56.0</ele><time>2026-05-02T08:36:07.498Z</time></trkpt><trkpt lat="41.9487083" lon="12.7053933"><ele>56.0</ele><time>2026-05-02T08:36:08.498Z</time></trkpt><trkpt lat="41.9488733" lon="12.70519"><ele>56.0</ele><time>2026-05-02T08:36:09.499Z</time></trkpt><trkpt lat="41.94905" lon="12.7049933"><ele>57.0</ele><time>2026-05-02T08:36:10.498Z</time></trkpt><trkpt lat="41.94923" lon="12.70481"><ele>58.0</ele><time>2026-05-02T08:36:11.498Z</time></trkpt><trkpt lat="41.949415" lon="12.7046317"><ele>58.0</ele><time>2026-05-02T08:36:12.498Z</time></trkpt><trkpt lat="41.9496017" lon="12.7044583"><ele>58.0</ele><time>2026-05-02T08:36:13.499Z</time></trkpt><trkpt lat="41.9497917" lon="12.7042867"><ele>58.33333333333333</ele><time>2026-05-02T08:36:14.498Z</time></trkpt><trkpt lat="41.9499783" lon="12.7041183"><ele>58.66666666666667</ele><time>2026-05-02T08:36:15.498Z</time></trkpt><trkpt lat="41.9501633" lon="12.7039567"><ele>59.0</ele><time>2026-05-02T08:36:16.498Z</time></trkpt><trkpt lat="41.9503483" lon="12.7038"><ele>59.0</ele><time>2026-05-02T08:36:17.498Z</time></trkpt><trkpt lat="41.9505417" lon="12.703655"><ele>59.0</ele><time>2026-05-02T08:36:18.498Z</time></trkpt><trkpt lat="41.9507317" lon="12.7035117"><ele>59.0</ele><time>2026-05-02T08:36:19.498Z</time></trkpt><trkpt lat="41.950925" lon="12.7033733"><ele>59.333333333333336</ele><time>2026-05-02T08:36:20.498Z</time></trkpt><trkpt lat="41.9511167" lon="12.7032433"><ele>59.66666666666667</ele><time>2026-05-02T08:36:21.498Z</time></trkpt><trkpt lat="41.951315" lon="12.7031167"><ele>60.0</ele><time>2026-05-02T08:36:22.499Z</time></trkpt><trkpt lat="41.9515167" lon="12.7029933"><ele>60.0</ele><time>2026-05-02T08:36:23.499Z</time></trkpt><trkpt lat="41.9517183" lon="12.7028733"><ele>60.0</ele><time>2026-05-02T08:36:24.498Z</time></trkpt><trkpt lat="41.9519183" lon="12.7027483"><ele>60.0</ele><time>2026-05-02T08:36:25.499Z</time></trkpt><trkpt lat="41.9521267" lon="12.7026383"><ele>60.0</ele><time>2026-05-02T08:36:26.498Z</time></trkpt><trkpt lat="41.9523383" lon="12.7025283"><ele>60.0</ele><time>2026-05-02T08:36:27.498Z</time></trkpt><trkpt lat="41.9525483" lon="12.70242"><ele>60.33333333333333</ele><time>2026-05-02T08:36:28.498Z</time></trkpt><trkpt lat="41.952755" lon="12.7023167"><ele>60.666666666666664</ele><time>2026-05-02T08:36:29.498Z</time></trkpt><trkpt lat="41.9529683" lon="12.70221"><ele>61.0</ele><time>2026-05-02T08:36:30.498Z</time></trkpt><trkpt lat="41.9531833" lon="12.7021133"><ele>62.5</ele><time>2026-05-02T08:36:31.498Z</time></trkpt><trkpt lat="41.9533967" lon="12.7020117"><ele>64.0</ele><time>2026-05-02T08:36:32.498Z</time></trkpt><trkpt lat="41.9536133" lon="12.7019183"><ele>64.0</ele><time>2026-05-02T08:36:33.499Z</time></trkpt><trkpt lat="41.95383" lon="12.701825"><ele>64.0</ele><time>2026-05-02T08:36:34.498Z</time></trkpt><trkpt lat="41.9540483" lon="12.701735"><ele>65.0</ele><time>2026-05-02T08:36:35.498Z</time></trkpt><trkpt lat="41.9542667" lon="12.701645"><ele>66.0</ele><time>2026-05-02T08:36:36.498Z</time></trkpt><trkpt lat="41.9544833" lon="12.7015533"><ele>66.0</ele><time>2026-05-02T08:36:37.498Z</time></trkpt><trkpt lat="41.954695" lon="12.7014617"><ele>66.0</ele><time>2026-05-02T08:36:38.498Z</time></trkpt><trkpt lat="41.9549133" lon="12.7013783"><ele>66.0</ele><time>2026-05-02T08:36:39.498Z</time></trkpt><trkpt lat="41.9551267" lon="12.70129"><ele>67.0</ele><time>2026-05-02T08:36:40.498Z</time></trkpt><trkpt lat="41.95535" lon="12.7012133"><ele>68.0</ele><time>2026-05-02T08:36:41.498Z</time></trkpt><trkpt lat="41.9555717" lon="12.7011233"><ele>67.5</ele><time>2026-05-02T08:36:42.499Z</time></trkpt><trkpt lat="41.9557883" lon="12.7010333"><ele>67.0</ele><time>2026-05-02T08:36:43.498Z</time></trkpt><trkpt lat="41.9560133" lon="12.7009483"><ele>67.0</ele><time>2026-05-02T08:36:44.498Z</time></trkpt><trkpt lat="41.9562333" lon="12.70087"><ele>67.0</ele><time>2026-05-02T08:36:45.498Z</time></trkpt><trkpt lat="41.9564533" lon="12.7007917"><ele>67.0</ele><time>2026-05-02T08:36:46.498Z</time></trkpt><trkpt lat="41.9566667" lon="12.7007133"><ele>67.0</ele><time>2026-05-02T08:36:47.499Z</time></trkpt><trkpt lat="41.95688" lon="12.7006383"><ele>67.0</ele><time>2026-05-02T08:36:48.498Z</time></trkpt><trkpt lat="41.9571017" lon="12.7005583"><ele>66.66666666666666</ele><time>2026-05-02T08:36:49.498Z</time></trkpt><trkpt lat="41.957315" lon="12.7004867"><ele>66.33333333333333</ele><time>2026-05-02T08:36:50.498Z</time></trkpt><trkpt lat="41.957535" lon="12.700415"><ele>66.0</ele><time>2026-05-02T08:36:51.498Z</time></trkpt><trkpt lat="41.9577567" lon="12.7003467"><ele>66.0</ele><time>2026-05-02T08:36:52.498Z</time></trkpt><trkpt lat="41.957965" lon="12.700275"><ele>66.0</ele><time>2026-05-02T08:36:53.498Z</time></trkpt><trkpt lat="41.958185" lon="12.700205"><ele>66.0</ele><time>2026-05-02T08:36:54.498Z</time></trkpt><trkpt lat="41.9584067" lon="12.7001383"><ele>66.66666666666667</ele><time>2026-05-02T08:36:55.498Z</time></trkpt><trkpt lat="41.9586267" lon="12.700075"><ele>67.33333333333334</ele><time>2026-05-02T08:36:56.498Z</time></trkpt><trkpt lat="41.9588433" lon="12.7000167"><ele>68.0</ele><time>2026-05-02T08:36:57.498Z</time></trkpt><trkpt lat="41.95906" lon="12.6999517"><ele>68.0</ele><time>2026-05-02T08:36:58.498Z</time></trkpt><trkpt lat="41.9592817" lon="12.699895"><ele>68.0</ele><time>2026-05-02T08:36:59.498Z</time></trkpt><trkpt lat="41.9595" lon="12.6998267"><ele>68.0</ele><time>2026-05-02T08:37:00.498Z</time></trkpt><trkpt lat="41.9597117" lon="12.6997667"><ele>68.0</ele><time>2026-05-02T08:37:01.498Z</time></trkpt><trkpt lat="41.9599267" lon="12.699705"><ele>68.0</ele><time>2026-05-02T08:37:02.498Z</time></trkpt><trkpt lat="41.96014" lon="12.69964"><ele>67.66666666666667</ele><time>2026-05-02T08:37:03.498Z</time></trkpt><trkpt lat="41.960355" lon="12.6995783"><ele>67.33333333333333</ele><time>2026-05-02T08:37:04.498Z</time></trkpt><trkpt lat="41.960575" lon="12.6995283"><ele>67.0</ele><time>2026-05-02T08:37:05.498Z</time></trkpt><trkpt lat="41.9607983" lon="12.6994767"><ele>67.66666666666666</ele><time>2026-05-02T08:37:06.498Z</time></trkpt><trkpt lat="41.9610183" lon="12.699425"><ele>68.33333333333333</ele><time>2026-05-02T08:37:07.498Z</time></trkpt><trkpt lat="41.96124" lon="12.69937"><ele>69.0</ele><time>2026-05-02T08:37:08.498Z</time></trkpt><trkpt lat="41.9614617" lon="12.6993183"><ele>70.33333333333333</ele><time>2026-05-02T08:37:09.498Z</time></trkpt><trkpt lat="41.9616783" lon="12.69926"><ele>71.66666666666666</ele><time>2026-05-02T08:37:10.499Z</time></trkpt><trkpt lat="41.9618933" lon="12.6992117"><ele>73.0</ele><time>2026-05-02T08:37:11.498Z</time></trkpt><trkpt lat="41.96211" lon="12.699165"><ele>73.33333333333333</ele><time>2026-05-02T08:37:12.499Z</time></trkpt><trkpt lat="41.9623217" lon="12.699115"><ele>73.66666666666667</ele><time>2026-05-02T08:37:13.498Z</time></trkpt><trkpt lat="41.9625367" lon="12.6990633"><ele>74.0</ele><time>2026-05-02T08:37:14.498Z</time></trkpt><trkpt lat="41.9627583" lon="12.6990117"><ele>75.66666666666667</ele><time>2026-05-02T08:37:15.498Z</time></trkpt><trkpt lat="41.9629733" lon="12.69896"><ele>77.33333333333333</ele><time>2026-05-02T08:37:16.498Z</time></trkpt><trkpt lat="41.9631833" lon="12.698905"><ele>79.0</ele><time>2026-05-02T08:37:17.498Z</time></trkpt><trkpt lat="41.9634" lon="12.6988533"><ele>80.0</ele><time>2026-05-02T08:37:18.498Z</time></trkpt><trkpt lat="41.96361" lon="12.698795"><ele>81.0</ele><time>2026-05-02T08:37:19.499Z</time></trkpt><trkpt lat="41.9638233" lon="12.6987433"><ele>82.0</ele><time>2026-05-02T08:37:20.498Z</time></trkpt><trkpt lat="41.96403" lon="12.6986933"><ele>83.33333333333333</ele><time>2026-05-02T08:37:21.498Z</time></trkpt><trkpt lat="41.9642467" lon="12.69864"><ele>84.66666666666667</ele><time>2026-05-02T08:37:22.498Z</time></trkpt><trkpt lat="41.9644633" lon="12.6985883"><ele>86.0</ele><time>2026-05-02T08:37:23.498Z</time></trkpt><trkpt lat="41.9646833" lon="12.6985383"><ele>87.33333333333334</ele><time>2026-05-02T08:37:24.498Z</time></trkpt><trkpt lat="41.9649017" lon="12.6984867"><ele>88.66666666666667</ele><time>2026-05-02T08:37:25.498Z</time></trkpt><trkpt lat="41.9651267" lon="12.6984417"><ele>90.0</ele><time>2026-05-02T08:37:26.498Z</time></trkpt><trkpt lat="41.9653433" lon="12.6983867"><ele>92.33333333333334</ele><time>2026-05-02T08:37:27.498Z</time></trkpt><trkpt lat="41.9655583" lon="12.69833"><ele>94.66666666666667</ele><time>2026-05-02T08:37:28.498Z</time></trkpt><trkpt lat="41.9657767" lon="12.6982717"><ele>97.0</ele><time>2026-05-02T08:37:29.498Z</time></trkpt><trkpt lat="41.9659917" lon="12.698215"><ele>97.0</ele><time>2026-05-02T08:37:30.498Z</time></trkpt><trkpt lat="41.9662117" lon="12.698155"><ele>97.0</ele><time>2026-05-02T08:37:31.498Z</time></trkpt><trkpt lat="41.9664283" lon="12.6981067"><ele>97.0</ele><time>2026-05-02T08:37:32.499Z</time></trkpt><trkpt lat="41.9666367" lon="12.6980567"><ele>95.66666666666667</ele><time>2026-05-02T08:37:33.498Z</time></trkpt><trkpt lat="41.966845" lon="12.698005"><ele>94.33333333333334</ele><time>2026-05-02T08:37:34.498Z</time></trkpt><trkpt lat="41.9670533" lon="12.69796"><ele>93.0</ele><time>2026-05-02T08:37:35.498Z</time></trkpt><trkpt lat="41.96726" lon="12.6979067"><ele>93.0</ele><time>2026-05-02T08:37:36.498Z</time></trkpt><trkpt lat="41.9674683" lon="12.6978533"><ele>93.0</ele><time>2026-05-02T08:37:37.498Z</time></trkpt><trkpt lat="41.9676783" lon="12.6977933"><ele>93.0</ele><time>2026-05-02T08:37:38.498Z</time></trkpt><trkpt lat="41.967885" lon="12.69774"><ele>96.33333333333334</ele><time>2026-05-02T08:37:39.498Z</time></trkpt><trkpt lat="41.968095" lon="12.6976867"><ele>99.66666666666667</ele><time>2026-05-02T08:37:40.498Z</time></trkpt><trkpt lat="41.968305" lon="12.6976283"><ele>103.0</ele><time>2026-05-02T08:37:41.498Z</time></trkpt><trkpt lat="41.9685183" lon="12.6975767"><ele>103.33333333333334</ele><time>2026-05-02T08:37:42.498Z</time></trkpt><trkpt lat="41.9687417" lon="12.6975133"><ele>103.66666666666666</ele><time>2026-05-02T08:37:43.498Z</time></trkpt><trkpt lat="41.9689533" lon="12.6974483"><ele>104.0</ele><time>2026-05-02T08:37:44.498Z</time></trkpt><trkpt lat="41.969165" lon="12.69738"><ele>105.0</ele><time>2026-05-02T08:37:45.498Z</time></trkpt><trkpt lat="41.96938" lon="12.69731"><ele>106.0</ele><time>2026-05-02T08:37:46.498Z</time></trkpt><trkpt lat="41.9695933" lon="12.6972317"><ele>107.0</ele><time>2026-05-02T08:37:47.498Z</time></trkpt><trkpt lat="41.9698117" lon="12.6971567"><ele>108.5</ele><time>2026-05-02T08:37:48.498Z</time></trkpt><trkpt lat="41.9700333" lon="12.69708"><ele>110.0</ele><time>2026-05-02T08:37:49.498Z</time></trkpt><trkpt lat="41.9702483" lon="12.6969983"><ele>108.33333333333333</ele><time>2026-05-02T08:37:50.499Z</time></trkpt><trkpt lat="41.97046" lon="12.6969"><ele>106.66666666666666</ele><time>2026-05-02T08:37:51.498Z</time></trkpt><trkpt lat="41.9706733" lon="12.6968033"><ele>105.0</ele><time>2026-05-02T08:37:52.498Z</time></trkpt><trkpt lat="41.97089" lon="12.6967"><ele>104.5</ele><time>2026-05-02T08:37:53.498Z</time></trkpt><trkpt lat="41.9711017" lon="12.6965967"><ele>104.0</ele><time>2026-05-02T08:37:54.498Z</time></trkpt><trkpt lat="41.97131" lon="12.69648"><ele>104.0</ele><time>2026-05-02T08:37:55.498Z</time></trkpt><trkpt lat="41.97152" lon="12.6963667"><ele>104.0</ele><time>2026-05-02T08:37:56.498Z</time></trkpt><trkpt lat="41.97173" lon="12.696245"><ele>104.0</ele><time>2026-05-02T08:37:57.498Z</time></trkpt><trkpt lat="41.9719383" lon="12.69611"><ele>104.0</ele><time>2026-05-02T08:37:58.498Z</time></trkpt><trkpt lat="41.972145" lon="12.6959733"><ele>104.0</ele><time>2026-05-02T08:37:59.498Z</time></trkpt><trkpt lat="41.97235" lon="12.6958383"><ele>104.0</ele><time>2026-05-02T08:38:00.498Z</time></trkpt><trkpt lat="41.9725567" lon="12.6956933"><ele>102.0</ele><time>2026-05-02T08:38:01.498Z</time></trkpt><trkpt lat="41.97276" lon="12.6955433"><ele>100.0</ele><time>2026-05-02T08:38:02.498Z</time></trkpt><trkpt lat="41.9729617" lon="12.6953883"><ele>102.0</ele><time>2026-05-02T08:38:03.498Z</time></trkpt><trkpt lat="41.9731633" lon="12.6952283"><ele>104.0</ele><time>2026-05-02T08:38:04.498Z</time></trkpt><trkpt lat="41.9733667" lon="12.6950717"><ele>105.5</ele><time>2026-05-02T08:38:05.498Z</time></trkpt><trkpt lat="41.9735633" lon="12.6949017"><ele>107.0</ele><time>2026-05-02T08:38:06.498Z</time></trkpt><trkpt lat="41.9737667" lon="12.6947333"><ele>107.0</ele><time>2026-05-02T08:38:07.498Z</time></trkpt><trkpt lat="41.9739583" lon="12.6945583"><ele>107.0</ele><time>2026-05-02T08:38:08.498Z</time></trkpt><trkpt lat="41.9741483" lon="12.6943783"><ele>108.0</ele><time>2026-05-02T08:38:09.498Z</time></trkpt><trkpt lat="41.9743333" lon="12.6942"><ele>109.0</ele><time>2026-05-02T08:38:10.498Z</time></trkpt><trkpt lat="41.97451" lon="12.6940133"><ele>109.0</ele><time>2026-05-02T08:38:11.498Z</time></trkpt><trkpt lat="41.9746867" lon="12.6938233"><ele>109.0</ele><time>2026-05-02T08:38:12.498Z</time></trkpt><trkpt lat="41.9748583" lon="12.6936317"><ele>109.0</ele><time>2026-05-02T08:38:13.498Z</time></trkpt><trkpt lat="41.9750267" lon="12.69344"><ele>111.5</ele><time>2026-05-02T08:38:14.498Z</time></trkpt><trkpt lat="41.9751933" lon="12.69324"><ele>114.0</ele><time>2026-05-02T08:38:15.498Z</time></trkpt><trkpt lat="41.9753667" lon="12.6930367"><ele>114.0</ele><time>2026-05-02T08:38:16.498Z</time></trkpt><trkpt lat="41.975535" lon="12.6928333"><ele>114.0</ele><time>2026-05-02T08:38:17.498Z</time></trkpt><trkpt lat="41.9756983" lon="12.6926167"><ele>114.0</ele><time>2026-05-02T08:38:18.498Z</time></trkpt><trkpt lat="41.975865" lon="12.6924017"><ele>114.0</ele><time>2026-05-02T08:38:19.498Z</time></trkpt><trkpt lat="41.976025" lon="12.6921817"><ele>114.0</ele><time>2026-05-02T08:38:20.498Z</time></trkpt><trkpt lat="41.9761833" lon="12.6919717"><ele>114.0</ele><time>2026-05-02T08:38:21.498Z</time></trkpt><trkpt lat="41.9763367" lon="12.69176"><ele>114.0</ele><time>2026-05-02T08:38:22.498Z</time></trkpt><trkpt lat="41.9764933" lon="12.6915467"><ele>113.66666666666666</ele><time>2026-05-02T08:38:23.499Z</time></trkpt><trkpt lat="41.9766433" lon="12.6913233"><ele>113.33333333333333</ele><time>2026-05-02T08:38:24.498Z</time></trkpt><trkpt lat="41.9767983" lon="12.6911133"><ele>113.0</ele><time>2026-05-02T08:38:25.498Z</time></trkpt><trkpt lat="41.976945" lon="12.690895"><ele>112.0</ele><time>2026-05-02T08:38:26.498Z</time></trkpt><trkpt lat="41.9771" lon="12.69068"><ele>111.0</ele><time>2026-05-02T08:38:27.498Z</time></trkpt><trkpt lat="41.97726" lon="12.6904617"><ele>110.0</ele><time>2026-05-02T08:38:28.498Z</time></trkpt><trkpt lat="41.9774167" lon="12.6902433"><ele>109.0</ele><time>2026-05-02T08:38:29.498Z</time></trkpt><trkpt lat="41.9775633" lon="12.69003"><ele>108.0</ele><time>2026-05-02T08:38:30.498Z</time></trkpt><trkpt lat="41.97771" lon="12.68982"><ele>107.0</ele><time>2026-05-02T08:38:31.498Z</time></trkpt><trkpt lat="41.9778567" lon="12.6896083"><ele>106.0</ele><time>2026-05-02T08:38:32.498Z</time></trkpt><trkpt lat="41.978005" lon="12.6894017"><ele>105.0</ele><time>2026-05-02T08:38:33.498Z</time></trkpt><trkpt lat="41.9781533" lon="12.6891933"><ele>105.0</ele><time>2026-05-02T08:38:34.498Z</time></trkpt><trkpt lat="41.9783" lon="12.6889817"><ele>105.0</ele><time>2026-05-02T08:38:35.498Z</time></trkpt><trkpt lat="41.97845" lon="12.688775"><ele>105.0</ele><time>2026-05-02T08:38:36.498Z</time></trkpt><trkpt lat="41.978595" lon="12.688565"><ele>103.66666666666666</ele><time>2026-05-02T08:38:37.498Z</time></trkpt><trkpt lat="41.9787433" lon="12.68835"><ele>102.33333333333333</ele><time>2026-05-02T08:38:38.498Z</time></trkpt><trkpt lat="41.97889" lon="12.6881283"><ele>101.0</ele><time>2026-05-02T08:38:39.498Z</time></trkpt><trkpt lat="41.9790417" lon="12.6879083"><ele>99.0</ele><time>2026-05-02T08:38:40.498Z</time></trkpt><trkpt lat="41.97919" lon="12.6876867"><ele>97.0</ele><time>2026-05-02T08:38:41.498Z</time></trkpt><trkpt lat="41.97934" lon="12.6874633"><ele>95.0</ele><time>2026-05-02T08:38:42.498Z</time></trkpt><trkpt lat="41.979495" lon="12.687245"><ele>95.0</ele><time>2026-05-02T08:38:43.498Z</time></trkpt><trkpt lat="41.9796517" lon="12.68702"><ele>95.0</ele><time>2026-05-02T08:38:44.498Z</time></trkpt><trkpt lat="41.9798" lon="12.6867967"><ele>96.5</ele><time>2026-05-02T08:38:45.498Z</time></trkpt><trkpt lat="41.97995" lon="12.686575"><ele>98.0</ele><time>2026-05-02T08:38:46.498Z</time></trkpt><trkpt lat="41.9801067" lon="12.6863533"><ele>96.66666666666666</ele><time>2026-05-02T08:38:47.498Z</time></trkpt><trkpt lat="41.9802567" lon="12.68614"><ele>95.33333333333333</ele><time>2026-05-02T08:38:48.498Z</time></trkpt><trkpt lat="41.980405" lon="12.6859233"><ele>94.0</ele><time>2026-05-02T08:38:49.498Z</time></trkpt><trkpt lat="41.98056" lon="12.685705"><ele>94.0</ele><time>2026-05-02T08:38:50.498Z</time></trkpt><trkpt lat="41.9807117" lon="12.6854883"><ele>94.0</ele><time>2026-05-02T08:38:51.498Z</time></trkpt><trkpt lat="41.9808567" lon="12.6852717"><ele>94.0</ele><time>2026-05-02T08:38:52.498Z</time></trkpt><trkpt lat="41.9809983" lon="12.6850567"><ele>94.66666666666666</ele><time>2026-05-02T08:38:53.498Z</time></trkpt><trkpt lat="41.9811417" lon="12.68484"><ele>95.33333333333333</ele><time>2026-05-02T08:38:54.498Z</time></trkpt><trkpt lat="41.9812883" lon="12.684625"><ele>96.0</ele><time>2026-05-02T08:38:55.498Z</time></trkpt><trkpt lat="41.9814367" lon="12.6844217"><ele>96.0</ele><time>2026-05-02T08:38:56.498Z</time></trkpt><trkpt lat="41.9815817" lon="12.6842167"><ele>96.0</ele><time>2026-05-02T08:38:57.498Z</time></trkpt><trkpt lat="41.981725" lon="12.684005"><ele>96.0</ele><time>2026-05-02T08:38:58.498Z</time></trkpt><trkpt lat="41.9818633" lon="12.6838"><ele>96.66666666666666</ele><time>2026-05-02T08:38:59.498Z</time></trkpt><trkpt lat="41.982005" lon="12.6835933"><ele>97.33333333333333</ele><time>2026-05-02T08:39:00.498Z</time></trkpt><trkpt lat="41.9821517" lon="12.6833767"><ele>98.0</ele><time>2026-05-02T08:39:01.498Z</time></trkpt><trkpt lat="41.9822933" lon="12.6831733"><ele>98.0</ele><time>2026-05-02T08:39:02.498Z</time></trkpt><trkpt lat="41.9824367" lon="12.6829717"><ele>98.0</ele><time>2026-05-02T08:39:03.498Z</time></trkpt><trkpt lat="41.9825833" lon="12.6827633"><ele>98.0</ele><time>2026-05-02T08:39:04.498Z</time></trkpt><trkpt lat="41.9827267" lon="12.6825567"><ele>96.0</ele><time>2026-05-02T08:39:05.498Z</time></trkpt><trkpt lat="41.9828717" lon="12.6823433"><ele>94.0</ele><time>2026-05-02T08:39:06.498Z</time></trkpt><trkpt lat="41.9830217" lon="12.682135"><ele>92.0</ele><time>2026-05-02T08:39:07.498Z</time></trkpt><trkpt lat="41.9831683" lon="12.681925"><ele>90.66666666666667</ele><time>2026-05-02T08:39:08.498Z</time></trkpt><trkpt lat="41.98331" lon="12.68171"><ele>89.33333333333333</ele><time>2026-05-02T08:39:09.498Z</time></trkpt><trkpt lat="41.9834567" lon="12.6814967"><ele>88.0</ele><time>2026-05-02T08:39:10.498Z</time></trkpt><trkpt lat="41.9836033" lon="12.6812817"><ele>87.66666666666666</ele><time>2026-05-02T08:39:11.498Z</time></trkpt><trkpt lat="41.98375" lon="12.6810633"><ele>87.33333333333333</ele><time>2026-05-02T08:39:12.498Z</time></trkpt><trkpt lat="41.9839033" lon="12.6808467"><ele>87.0</ele><time>2026-05-02T08:39:13.498Z</time></trkpt><trkpt lat="41.9840517" lon="12.6806283"><ele>83.0</ele><time>2026-05-02T08:39:14.498Z</time></trkpt><trkpt lat="41.9842033" lon="12.6804167"><ele>79.0</ele><time>2026-05-02T08:39:15.498Z</time></trkpt><trkpt lat="41.9843517" lon="12.68019"><ele>75.0</ele><time>2026-05-02T08:39:16.498Z</time></trkpt><trkpt lat="41.9845083" lon="12.6799633"><ele>74.0</ele><time>2026-05-02T08:39:17.498Z</time></trkpt><trkpt lat="41.9846617" lon="12.6797367"><ele>73.0</ele><time>2026-05-02T08:39:18.498Z</time></trkpt><trkpt lat="41.9848167" lon="12.6795133"><ele>72.0</ele><time>2026-05-02T08:39:19.498Z</time></trkpt><trkpt lat="41.9849683" lon="12.6792867"><ele>71.0</ele><time>2026-05-02T08:39:20.498Z</time></trkpt><trkpt lat="41.985125" lon="12.6790583"><ele>70.0</ele><time>2026-05-02T08:39:21.498Z</time></trkpt><trkpt lat="41.9852817" lon="12.6788267"><ele>69.0</ele><time>2026-05-02T08:39:22.498Z</time></trkpt><trkpt lat="41.9854367" lon="12.6786"><ele>69.0</ele><time>2026-05-02T08:39:23.498Z</time></trkpt><trkpt lat="41.9855917" lon="12.6783717"><ele>69.0</ele><time>2026-05-02T08:39:24.498Z</time></trkpt><trkpt lat="41.9857533" lon="12.6781433"><ele>73.0</ele><time>2026-05-02T08:39:25.498Z</time></trkpt><trkpt lat="41.9859133" lon="12.6779133"><ele>77.0</ele><time>2026-05-02T08:39:26.498Z</time></trkpt><trkpt lat="41.9860717" lon="12.6776917"><ele>77.0</ele><time>2026-05-02T08:39:27.498Z</time></trkpt><trkpt lat="41.9862317" lon="12.6774667"><ele>77.0</ele><time>2026-05-02T08:39:28.498Z</time></trkpt><trkpt lat="41.9863883" lon="12.677245"><ele>77.0</ele><time>2026-05-02T08:39:29.498Z</time></trkpt><trkpt lat="41.9865517" lon="12.67702"><ele>77.0</ele><time>2026-05-02T08:39:30.498Z</time></trkpt><trkpt lat="41.98671" lon="12.6767917"><ele>82.0</ele><time>2026-05-02T08:39:31.498Z</time></trkpt><trkpt lat="41.9868717" lon="12.676565"><ele>87.0</ele><time>2026-05-02T08:39:32.498Z</time></trkpt><trkpt lat="41.9870333" lon="12.676345"><ele>87.0</ele><time>2026-05-02T08:39:33.498Z</time></trkpt><trkpt lat="41.9871967" lon="12.67612"><ele>87.0</ele><time>2026-05-02T08:39:34.498Z</time></trkpt><trkpt lat="41.9873617" lon="12.6759017"><ele>86.0</ele><time>2026-05-02T08:39:35.498Z</time></trkpt><trkpt lat="41.9875333" lon="12.675685"><ele>85.0</ele><time>2026-05-02T08:39:36.498Z</time></trkpt><trkpt lat="41.987705" lon="12.6754733"><ele>83.33333333333333</ele><time>2026-05-02T08:39:37.498Z</time></trkpt><trkpt lat="41.987875" lon="12.675265"><ele>81.66666666666667</ele><time>2026-05-02T08:39:38.498Z</time></trkpt><trkpt lat="41.9880367" lon="12.6750667"><ele>80.0</ele><time>2026-05-02T08:39:39.498Z</time></trkpt><trkpt lat="41.9882067" lon="12.6748717"><ele>79.66666666666667</ele><time>2026-05-02T08:39:40.498Z</time></trkpt><trkpt lat="41.9883767" lon="12.6746833"><ele>79.33333333333333</ele><time>2026-05-02T08:39:41.498Z</time></trkpt><trkpt lat="41.9885517" lon="12.6744983"><ele>79.0</ele><time>2026-05-02T08:39:42.498Z</time></trkpt><trkpt lat="41.98873" lon="12.6743133"><ele>81.5</ele><time>2026-05-02T08:39:43.498Z</time></trkpt><trkpt lat="41.9889117" lon="12.674135"><ele>84.0</ele><time>2026-05-02T08:39:44.498Z</time></trkpt><trkpt lat="41.9891033" lon="12.6739683"><ele>86.33333333333333</ele><time>2026-05-02T08:39:45.499Z</time></trkpt><trkpt lat="41.98929" lon="12.673805"><ele>88.66666666666666</ele><time>2026-05-02T08:39:46.498Z</time></trkpt><trkpt lat="41.98948" lon="12.67365"><ele>91.0</ele><time>2026-05-02T08:39:47.498Z</time></trkpt><trkpt lat="41.9896667" lon="12.67349"><ele>91.0</ele><time>2026-05-02T08:39:48.498Z</time></trkpt><trkpt lat="41.9898517" lon="12.6733417"><ele>91.0</ele><time>2026-05-02T08:39:49.499Z</time></trkpt><trkpt lat="41.9900367" lon="12.6732033"><ele>91.0</ele><time>2026-05-02T08:39:50.499Z</time></trkpt><trkpt lat="41.9902283" lon="12.6730683"><ele>91.33333333333333</ele><time>2026-05-02T08:39:51.498Z</time></trkpt><trkpt lat="41.9904217" lon="12.6729383"><ele>91.66666666666667</ele><time>2026-05-02T08:39:52.498Z</time></trkpt><trkpt lat="41.99062" lon="12.67281"><ele>92.0</ele><time>2026-05-02T08:39:53.498Z</time></trkpt><trkpt lat="41.990825" lon="12.672695"><ele>92.66666666666667</ele><time>2026-05-02T08:39:54.498Z</time></trkpt><trkpt lat="41.991025" lon="12.67258"><ele>93.33333333333333</ele><time>2026-05-02T08:39:55.498Z</time></trkpt><trkpt lat="41.9912233" lon="12.6724717"><ele>94.0</ele><time>2026-05-02T08:39:56.498Z</time></trkpt><trkpt lat="41.9914317" lon="12.67237"><ele>94.0</ele><time>2026-05-02T08:39:57.498Z</time></trkpt><trkpt lat="41.99164" lon="12.6722733"><ele>94.0</ele><time>2026-05-02T08:39:58.498Z</time></trkpt><trkpt lat="41.9918467" lon="12.67218"><ele>94.0</ele><time>2026-05-02T08:39:59.498Z</time></trkpt><trkpt lat="41.992055" lon="12.6720917"><ele>93.0</ele><time>2026-05-02T08:40:00.499Z</time></trkpt><trkpt lat="41.9922683" lon="12.6720167"><ele>92.0</ele><time>2026-05-02T08:40:01.498Z</time></trkpt><trkpt lat="41.9924833" lon="12.671945"><ele>91.0</ele><time>2026-05-02T08:40:02.498Z</time></trkpt><trkpt lat="41.9927" lon="12.671875"><ele>90.0</ele><time>2026-05-02T08:40:03.498Z</time></trkpt><trkpt lat="41.99292" lon="12.6718133"><ele>89.0</ele><time>2026-05-02T08:40:04.498Z</time></trkpt><trkpt lat="41.993145" lon="12.67176"><ele>89.0</ele><time>2026-05-02T08:40:05.498Z</time></trkpt><trkpt lat="41.99337" lon="12.6717"><ele>89.0</ele><time>2026-05-02T08:40:06.498Z</time></trkpt><trkpt lat="41.9935883" lon="12.6716433"><ele>89.0</ele><time>2026-05-02T08:40:07.498Z</time></trkpt><trkpt lat="41.993815" lon="12.6715983"><ele>89.0</ele><time>2026-05-02T08:40:08.498Z</time></trkpt><trkpt lat="41.9940433" lon="12.6715567"><ele>86.5</ele><time>2026-05-02T08:40:09.498Z</time></trkpt><trkpt lat="41.994265" lon="12.6715267"><ele>84.0</ele><time>2026-05-02T08:40:10.498Z</time></trkpt><trkpt lat="41.9944933" lon="12.6714983"><ele>84.0</ele><time>2026-05-02T08:40:11.498Z</time></trkpt><trkpt lat="41.9947233" lon="12.6714783"><ele>84.0</ele><time>2026-05-02T08:40:12.499Z</time></trkpt><trkpt lat="41.9949433" lon="12.6714517"><ele>80.0</ele><time>2026-05-02T08:40:13.498Z</time></trkpt><trkpt lat="41.9951633" lon="12.6714367"><ele>76.0</ele><time>2026-05-02T08:40:14.499Z</time></trkpt><trkpt lat="41.9953867" lon="12.67142"><ele>72.0</ele><time>2026-05-02T08:40:15.498Z</time></trkpt><trkpt lat="41.9956133" lon="12.6714"><ele>72.0</ele><time>2026-05-02T08:40:16.498Z</time></trkpt><trkpt lat="41.9958283" lon="12.6713867"><ele>72.0</ele><time>2026-05-02T08:40:17.498Z</time></trkpt><trkpt lat="41.9960333" lon="12.671375"><ele>72.0</ele><time>2026-05-02T08:40:18.498Z</time></trkpt><trkpt lat="41.9962417" lon="12.67136"><ele>72.0</ele><time>2026-05-02T08:40:19.499Z</time></trkpt><trkpt lat="41.996445" lon="12.6713483"><ele>72.0</ele><time>2026-05-02T08:40:20.498Z</time></trkpt><trkpt lat="41.9966433" lon="12.6713317"><ele>72.0</ele><time>2026-05-02T08:40:21.498Z</time></trkpt><trkpt lat="41.9968467" lon="12.6713217"><ele>74.33333333333333</ele><time>2026-05-02T08:40:22.498Z</time></trkpt><trkpt lat="41.9970483" lon="12.6713083"><ele>76.66666666666666</ele><time>2026-05-02T08:40:23.498Z</time></trkpt><trkpt lat="41.9972467" lon="12.6713033"><ele>79.0</ele><time>2026-05-02T08:40:24.498Z</time></trkpt><trkpt lat="41.9974483" lon="12.6712967"><ele>80.0</ele><time>2026-05-02T08:40:25.498Z</time></trkpt><trkpt lat="41.99765" lon="12.6712917"><ele>81.0</ele><time>2026-05-02T08:40:26.498Z</time></trkpt><trkpt lat="41.9978467" lon="12.6712717"><ele>82.0</ele><time>2026-05-02T08:40:27.498Z</time></trkpt><trkpt lat="41.9980467" lon="12.6712617"><ele>82.0</ele><time>2026-05-02T08:40:28.498Z</time></trkpt><trkpt lat="41.9982533" lon="12.67124"><ele>82.0</ele><time>2026-05-02T08:40:29.498Z</time></trkpt><trkpt lat="41.9984567" lon="12.6712267"><ele>82.0</ele><time>2026-05-02T08:40:30.499Z</time></trkpt><trkpt lat="41.9986517" lon="12.67122"><ele>81.33333333333333</ele><time>2026-05-02T08:40:31.498Z</time></trkpt><trkpt lat="41.9988517" lon="12.6712083"><ele>80.66666666666667</ele><time>2026-05-02T08:40:32.498Z</time></trkpt><trkpt lat="41.9990467" lon="12.671205"><ele>80.0</ele><time>2026-05-02T08:40:33.498Z</time></trkpt><trkpt lat="41.9992417" lon="12.6711933"><ele>78.33333333333334</ele><time>2026-05-02T08:40:34.498Z</time></trkpt><trkpt lat="41.99944" lon="12.671175"><ele>76.66666666666667</ele><time>2026-05-02T08:40:35.498Z</time></trkpt><trkpt lat="41.9996383" lon="12.671165"><ele>75.0</ele><time>2026-05-02T08:40:36.499Z</time></trkpt><trkpt lat="41.9998383" lon="12.67116"><ele>75.0</ele><time>2026-05-02T08:40:37.498Z</time></trkpt><trkpt lat="42.00004" lon="12.6711467"><ele>75.0</ele><time>2026-05-02T08:40:38.498Z</time></trkpt><trkpt lat="42.0002333" lon="12.671135"><ele>75.0</ele><time>2026-05-02T08:40:39.498Z</time></trkpt><trkpt lat="42.000425" lon="12.6711217"><ele>74.33333333333333</ele><time>2026-05-02T08:40:40.498Z</time></trkpt><trkpt lat="42.000615" lon="12.6711067"><ele>73.66666666666666</ele><time>2026-05-02T08:40:41.498Z</time></trkpt><trkpt lat="42.00081" lon="12.6711"><ele>73.0</ele><time>2026-05-02T08:40:42.498Z</time></trkpt><trkpt lat="42.001" lon="12.67109"><ele>73.0</ele><time>2026-05-02T08:40:43.498Z</time></trkpt><trkpt lat="42.001195" lon="12.67107"><ele>73.0</ele><time>2026-05-02T08:40:44.498Z</time></trkpt><trkpt lat="42.001385" lon="12.6710533"><ele>73.0</ele><time>2026-05-02T08:40:45.499Z</time></trkpt><trkpt lat="42.0015817" lon="12.6710417"><ele>72.0</ele><time>2026-05-02T08:40:46.498Z</time></trkpt><trkpt lat="42.0017767" lon="12.671025"><ele>71.0</ele><time>2026-05-02T08:40:47.498Z</time></trkpt><trkpt lat="42.0019733" lon="12.6710117"><ele>70.0</ele><time>2026-05-02T08:40:48.498Z</time></trkpt><trkpt lat="42.0021783" lon="12.671005"><ele>70.0</ele><time>2026-05-02T08:40:49.498Z</time></trkpt><trkpt lat="42.00238" lon="12.670995"><ele>70.0</ele><time>2026-05-02T08:40:50.498Z</time></trkpt><trkpt lat="42.002585" lon="12.67099"><ele>70.0</ele><time>2026-05-02T08:40:51.498Z</time></trkpt><trkpt lat="42.002785" lon="12.67098"><ele>69.66666666666666</ele><time>2026-05-02T08:40:52.498Z</time></trkpt><trkpt lat="42.0029833" lon="12.6709717"><ele>69.33333333333333</ele><time>2026-05-02T08:40:53.499Z</time></trkpt><trkpt lat="42.003185" lon="12.670965"><ele>69.0</ele><time>2026-05-02T08:40:54.498Z</time></trkpt><trkpt lat="42.0033917" lon="12.670955"><ele>69.0</ele><time>2026-05-02T08:40:55.498Z</time></trkpt><trkpt lat="42.0035933" lon="12.67094"><ele>69.0</ele><time>2026-05-02T08:40:56.498Z</time></trkpt><trkpt lat="42.0038017" lon="12.6709317"><ele>69.0</ele><time>2026-05-02T08:40:57.498Z</time></trkpt><trkpt lat="42.0040117" lon="12.67092"><ele>69.0</ele><time>2026-05-02T08:40:58.498Z</time></trkpt><trkpt lat="42.0042167" lon="12.6709067"><ele>69.0</ele><time>2026-05-02T08:40:59.498Z</time></trkpt><trkpt lat="42.00443" lon="12.6708933"><ele>69.0</ele><time>2026-05-02T08:41:00.498Z</time></trkpt><trkpt lat="42.004635" lon="12.6708817"><ele>69.0</ele><time>2026-05-02T08:41:01.499Z</time></trkpt><trkpt lat="42.004835" lon="12.6708717"><ele>69.0</ele><time>2026-05-02T08:41:02.498Z</time></trkpt><trkpt lat="42.00504" lon="12.6708617"><ele>69.0</ele><time>2026-05-02T08:41:03.498Z</time></trkpt><trkpt lat="42.0052467" lon="12.67085"><ele>68.66666666666667</ele><time>2026-05-02T08:41:04.499Z</time></trkpt><trkpt lat="42.0054483" lon="12.670835"><ele>68.33333333333334</ele><time>2026-05-02T08:41:05.498Z</time></trkpt><trkpt lat="42.0056583" lon="12.6708217"><ele>68.0</ele><time>2026-05-02T08:41:06.498Z</time></trkpt><trkpt lat="42.0058633" lon="12.67081"><ele>67.66666666666667</ele><time>2026-05-02T08:41:07.498Z</time></trkpt><trkpt lat="42.006065" lon="12.6708033"><ele>67.33333333333333</ele><time>2026-05-02T08:41:08.498Z</time></trkpt><trkpt lat="42.0062733" lon="12.6707917"><ele>67.0</ele><time>2026-05-02T08:41:09.498Z</time></trkpt><trkpt lat="42.00647" lon="12.6707867"><ele>66.33333333333333</ele><time>2026-05-02T08:41:10.498Z</time></trkpt><trkpt lat="42.0066667" lon="12.6707833"><ele>65.66666666666667</ele><time>2026-05-02T08:41:11.498Z</time></trkpt><trkpt lat="42.006865" lon="12.6707783"><ele>65.0</ele><time>2026-05-02T08:41:12.498Z</time></trkpt><trkpt lat="42.0070617" lon="12.6707817"><ele>65.0</ele><time>2026-05-02T08:41:13.498Z</time></trkpt><trkpt lat="42.0072533" lon="12.6707767"><ele>65.0</ele><time>2026-05-02T08:41:14.498Z</time></trkpt><trkpt lat="42.0074467" lon="12.67078"><ele>65.0</ele><time>2026-05-02T08:41:15.498Z</time></trkpt><trkpt lat="42.0076417" lon="12.6707967"><ele>65.66666666666667</ele><time>2026-05-02T08:41:16.498Z</time></trkpt><trkpt lat="42.00783" lon="12.6708083"><ele>66.33333333333333</ele><time>2026-05-02T08:41:17.498Z</time></trkpt><trkpt lat="42.0080217" lon="12.67083"><ele>67.0</ele><time>2026-05-02T08:41:18.498Z</time></trkpt><trkpt lat="42.0082117" lon="12.67085"><ele>67.66666666666666</ele><time>2026-05-02T08:41:19.498Z</time></trkpt><trkpt lat="42.0084067" lon="12.6708783"><ele>68.33333333333333</ele><time>2026-05-02T08:41:20.498Z</time></trkpt><trkpt lat="42.0085983" lon="12.67091"><ele>69.0</ele><time>2026-05-02T08:41:21.498Z</time></trkpt><trkpt lat="42.0087917" lon="12.670935"><ele>69.0</ele><time>2026-05-02T08:41:22.498Z</time></trkpt><trkpt lat="42.008985" lon="12.67098"><ele>69.0</ele><time>2026-05-02T08:41:23.498Z</time></trkpt><trkpt lat="42.0091817" lon="12.6710183"><ele>69.0</ele><time>2026-05-02T08:41:24.498Z</time></trkpt><trkpt lat="42.00938" lon="12.67107"><ele>69.33333333333333</ele><time>2026-05-02T08:41:25.498Z</time></trkpt><trkpt lat="42.0095817" lon="12.6711267"><ele>69.66666666666666</ele><time>2026-05-02T08:41:26.498Z</time></trkpt><trkpt lat="42.0097833" lon="12.6711867"><ele>70.0</ele><time>2026-05-02T08:41:27.498Z</time></trkpt><trkpt lat="42.00999" lon="12.6712617"><ele>70.0</ele><time>2026-05-02T08:41:28.498Z</time></trkpt><trkpt lat="42.0101967" lon="12.6713317"><ele>70.0</ele><time>2026-05-02T08:41:29.498Z</time></trkpt><trkpt lat="42.0103983" lon="12.6714117"><ele>70.0</ele><time>2026-05-02T08:41:30.498Z</time></trkpt><trkpt lat="42.0105983" lon="12.6714917"><ele>70.0</ele><time>2026-05-02T08:41:31.498Z</time></trkpt><trkpt lat="42.0107967" lon="12.6715767"><ele>70.0</ele><time>2026-05-02T08:41:32.498Z</time></trkpt><trkpt lat="42.010995" lon="12.6716683"><ele>70.0</ele><time>2026-05-02T08:41:33.498Z</time></trkpt><trkpt lat="42.0111883" lon="12.67176"><ele>69.66666666666666</ele><time>2026-05-02T08:41:34.498Z</time></trkpt><trkpt lat="42.0113817" lon="12.671865"><ele>69.33333333333333</ele><time>2026-05-02T08:41:35.498Z</time></trkpt><trkpt lat="42.011575" lon="12.671975"><ele>69.0</ele><time>2026-05-02T08:41:36.499Z</time></trkpt><trkpt lat="42.0117683" lon="12.672085"><ele>69.0</ele><time>2026-05-02T08:41:37.498Z</time></trkpt><trkpt lat="42.011955" lon="12.6722017"><ele>69.0</ele><time>2026-05-02T08:41:38.498Z</time></trkpt><trkpt lat="42.0121433" lon="12.67231"><ele>69.0</ele><time>2026-05-02T08:41:39.499Z</time></trkpt><trkpt lat="42.012335" lon="12.67243"><ele>69.66666666666667</ele><time>2026-05-02T08:41:40.498Z</time></trkpt><trkpt lat="42.0125283" lon="12.6725533"><ele>70.33333333333334</ele><time>2026-05-02T08:41:41.498Z</time></trkpt><trkpt lat="42.0127167" lon="12.6726833"><ele>71.0</ele><time>2026-05-02T08:41:42.498Z</time></trkpt><trkpt lat="42.01291" lon="12.6728217"><ele>71.33333333333334</ele><time>2026-05-02T08:41:43.498Z</time></trkpt><trkpt lat="42.0131" lon="12.6729617"><ele>71.66666666666667</ele><time>2026-05-02T08:41:44.498Z</time></trkpt><trkpt lat="42.0132967" lon="12.673105"><ele>72.0</ele><time>2026-05-02T08:41:45.498Z</time></trkpt><trkpt lat="42.0134833" lon="12.6732517"><ele>72.33333333333333</ele><time>2026-05-02T08:41:46.499Z</time></trkpt><trkpt lat="42.0136767" lon="12.673395"><ele>72.66666666666666</ele><time>2026-05-02T08:41:47.498Z</time></trkpt><trkpt lat="42.0138667" lon="12.6735433"><ele>73.0</ele><time>2026-05-02T08:41:48.498Z</time></trkpt><trkpt lat="42.0140583" lon="12.6736967"><ele>73.0</ele><time>2026-05-02T08:41:49.498Z</time></trkpt><trkpt lat="42.0142467" lon="12.67385"><ele>73.0</ele><time>2026-05-02T08:41:50.498Z</time></trkpt><trkpt lat="42.01443" lon="12.6740033"><ele>73.0</ele><time>2026-05-02T08:41:51.498Z</time></trkpt><trkpt lat="42.0146217" lon="12.6741583"><ele>73.0</ele><time>2026-05-02T08:41:52.498Z</time></trkpt><trkpt lat="42.0148083" lon="12.674315"><ele>73.0</ele><time>2026-05-02T08:41:53.498Z</time></trkpt><trkpt lat="42.0150033" lon="12.6744633"><ele>73.0</ele><time>2026-05-02T08:41:54.498Z</time></trkpt><trkpt lat="42.0152017" lon="12.6746167"><ele>73.33333333333333</ele><time>2026-05-02T08:41:55.498Z</time></trkpt><trkpt lat="42.0153917" lon="12.67477"><ele>73.66666666666667</ele><time>2026-05-02T08:41:56.498Z</time></trkpt><trkpt lat="42.0155833" lon="12.6749167"><ele>74.0</ele><time>2026-05-02T08:41:57.498Z</time></trkpt><trkpt lat="42.0157717" lon="12.675065"><ele>74.33333333333334</ele><time>2026-05-02T08:41:58.498Z</time></trkpt><trkpt lat="42.0159617" lon="12.67522"><ele>74.66666666666667</ele><time>2026-05-02T08:41:59.498Z</time></trkpt><trkpt lat="42.0161467" lon="12.675365"><ele>75.0</ele><time>2026-05-02T08:42:00.499Z</time></trkpt><trkpt lat="42.0163333" lon="12.6755083"><ele>75.0</ele><time>2026-05-02T08:42:01.498Z</time></trkpt><trkpt lat="42.0165167" lon="12.675655"><ele>75.0</ele><time>2026-05-02T08:42:02.498Z</time></trkpt><trkpt lat="42.0167033" lon="12.6758083"><ele>75.0</ele><time>2026-05-02T08:42:03.498Z</time></trkpt><trkpt lat="42.0168933" lon="12.6759583"><ele>75.0</ele><time>2026-05-02T08:42:04.498Z</time></trkpt><trkpt lat="42.01708" lon="12.67611"><ele>75.0</ele><time>2026-05-02T08:42:05.498Z</time></trkpt><trkpt lat="42.0172683" lon="12.676265"><ele>75.0</ele><time>2026-05-02T08:42:06.498Z</time></trkpt><trkpt lat="42.0174583" lon="12.67641"><ele>74.66666666666667</ele><time>2026-05-02T08:42:07.498Z</time></trkpt><trkpt lat="42.0176483" lon="12.6765533"><ele>74.33333333333334</ele><time>2026-05-02T08:42:08.498Z</time></trkpt><trkpt lat="42.0178383" lon="12.6766967"><ele>74.0</ele><time>2026-05-02T08:42:09.498Z</time></trkpt><trkpt lat="42.01803" lon="12.6768383"><ele>73.66666666666667</ele><time>2026-05-02T08:42:10.498Z</time></trkpt><trkpt lat="42.01822" lon="12.6769767"><ele>73.33333333333333</ele><time>2026-05-02T08:42:11.499Z</time></trkpt><trkpt lat="42.0184117" lon="12.677115"><ele>73.0</ele><time>2026-05-02T08:42:12.498Z</time></trkpt><trkpt lat="42.01861" lon="12.6772467"><ele>73.66666666666666</ele><time>2026-05-02T08:42:13.499Z</time></trkpt><trkpt lat="42.018805" lon="12.677385"><ele>74.33333333333333</ele><time>2026-05-02T08:42:14.499Z</time></trkpt><trkpt lat="42.0190017" lon="12.6775167"><ele>75.0</ele><time>2026-05-02T08:42:15.499Z</time></trkpt><trkpt lat="42.0192033" lon="12.6776467"><ele>75.33333333333333</ele><time>2026-05-02T08:42:16.499Z</time></trkpt><trkpt lat="42.019405" lon="12.6777683"><ele>75.66666666666666</ele><time>2026-05-02T08:42:17.498Z</time></trkpt><trkpt lat="42.01961" lon="12.67788"><ele>76.0</ele><time>2026-05-02T08:42:18.498Z</time></trkpt><trkpt lat="42.0198183" lon="12.67799"><ele>76.33333333333333</ele><time>2026-05-02T08:42:19.498Z</time></trkpt><trkpt lat="42.0200267" lon="12.6780983"><ele>76.66666666666667</ele><time>2026-05-02T08:42:20.498Z</time></trkpt><trkpt lat="42.0202367" lon="12.6782"><ele>77.0</ele><time>2026-05-02T08:42:21.498Z</time></trkpt><trkpt lat="42.02045" lon="12.6782967"><ele>77.0</ele><time>2026-05-02T08:42:22.499Z</time></trkpt><trkpt lat="42.0206683" lon="12.6783817"><ele>77.0</ele><time>2026-05-02T08:42:23.498Z</time></trkpt><trkpt lat="42.020885" lon="12.67847"><ele>77.0</ele><time>2026-05-02T08:42:24.498Z</time></trkpt><trkpt lat="42.021105" lon="12.6785533"><ele>77.0</ele><time>2026-05-02T08:42:25.498Z</time></trkpt><trkpt lat="42.0213283" lon="12.6786283"><ele>76.66666666666667</ele><time>2026-05-02T08:42:26.498Z</time></trkpt><trkpt lat="42.0215467" lon="12.678695"><ele>76.33333333333333</ele><time>2026-05-02T08:42:27.499Z</time></trkpt><trkpt lat="42.0217617" lon="12.6787533"><ele>76.0</ele><time>2026-05-02T08:42:28.498Z</time></trkpt><trkpt lat="42.0219817" lon="12.6788083"><ele>77.33333333333333</ele><time>2026-05-02T08:42:29.498Z</time></trkpt><trkpt lat="42.0222033" lon="12.6788567"><ele>78.66666666666667</ele><time>2026-05-02T08:42:30.498Z</time></trkpt><trkpt lat="42.022425" lon="12.6788983"><ele>80.0</ele><time>2026-05-02T08:42:31.499Z</time></trkpt><trkpt lat="42.0226417" lon="12.6789367"><ele>81.0</ele><time>2026-05-02T08:42:32.498Z</time></trkpt><trkpt lat="42.0228533" lon="12.6789717"><ele>82.0</ele><time>2026-05-02T08:42:33.498Z</time></trkpt><trkpt lat="42.0230767" lon="12.67899"><ele>83.0</ele><time>2026-05-02T08:42:34.498Z</time></trkpt><trkpt lat="42.0233017" lon="12.6790067"><ele>83.33333333333334</ele><time>2026-05-02T08:42:35.498Z</time></trkpt><trkpt lat="42.0235233" lon="12.679015"><ele>83.66666666666667</ele><time>2026-05-02T08:42:36.498Z</time></trkpt><trkpt lat="42.023745" lon="12.6790183"><ele>84.0</ele><time>2026-05-02T08:42:37.498Z</time></trkpt><trkpt lat="42.0239633" lon="12.6790133"><ele>84.0</ele><time>2026-05-02T08:42:38.498Z</time></trkpt><trkpt lat="42.0241883" lon="12.6790167"><ele>84.0</ele><time>2026-05-02T08:42:39.498Z</time></trkpt><trkpt lat="42.0244133" lon="12.679005"><ele>84.0</ele><time>2026-05-02T08:42:40.499Z</time></trkpt><trkpt lat="42.0246383" lon="12.6789883"><ele>84.0</ele><time>2026-05-02T08:42:41.498Z</time></trkpt><trkpt lat="42.0248567" lon="12.67896"><ele>84.0</ele><time>2026-05-02T08:42:42.498Z</time></trkpt><trkpt lat="42.02508" lon="12.6789317"><ele>84.33333333333333</ele><time>2026-05-02T08:42:43.498Z</time></trkpt><trkpt lat="42.0253" lon="12.6789"><ele>84.66666666666666</ele><time>2026-05-02T08:42:44.498Z</time></trkpt><trkpt lat="42.0255167" lon="12.6788667"><ele>85.0</ele><time>2026-05-02T08:42:45.498Z</time></trkpt><trkpt lat="42.0257367" lon="12.6788217"><ele>85.0</ele><time>2026-05-02T08:42:46.498Z</time></trkpt><trkpt lat="42.0259567" lon="12.678765"><ele>85.0</ele><time>2026-05-02T08:42:47.498Z</time></trkpt><trkpt lat="42.02618" lon="12.6787067"><ele>85.0</ele><time>2026-05-02T08:42:48.498Z</time></trkpt><trkpt lat="42.0263967" lon="12.6786333"><ele>85.0</ele><time>2026-05-02T08:42:49.498Z</time></trkpt><trkpt lat="42.0266183" lon="12.6785633"><ele>89.5</ele><time>2026-05-02T08:42:50.498Z</time></trkpt><trkpt lat="42.0268367" lon="12.67849"><ele>94.0</ele><time>2026-05-02T08:42:51.498Z</time></trkpt><trkpt lat="42.0270533" lon="12.6783967"><ele>94.0</ele><time>2026-05-02T08:42:52.499Z</time></trkpt><trkpt lat="42.0272683" lon="12.6783083"><ele>94.0</ele><time>2026-05-02T08:42:53.499Z</time></trkpt><trkpt lat="42.02748" lon="12.678215"><ele>94.0</ele><time>2026-05-02T08:42:54.498Z</time></trkpt><trkpt lat="42.02769" lon="12.678115"><ele>92.66666666666666</ele><time>2026-05-02T08:42:55.499Z</time></trkpt><trkpt lat="42.027895" lon="12.6780133"><ele>91.33333333333333</ele><time>2026-05-02T08:42:56.498Z</time></trkpt><trkpt lat="42.0281033" lon="12.6779117"><ele>90.0</ele><time>2026-05-02T08:42:57.498Z</time></trkpt><trkpt lat="42.0283" lon="12.6777983"><ele>94.66666666666666</ele><time>2026-05-02T08:42:58.499Z</time></trkpt><trkpt lat="42.0284967" lon="12.6776833"><ele>99.33333333333333</ele><time>2026-05-02T08:42:59.498Z</time></trkpt><trkpt lat="42.0286867" lon="12.677565"><ele>104.0</ele><time>2026-05-02T08:43:00.498Z</time></trkpt><trkpt lat="42.0288783" lon="12.6774467"><ele>104.0</ele><time>2026-05-02T08:43:01.498Z</time></trkpt><trkpt lat="42.0290683" lon="12.677325"><ele>104.0</ele><time>2026-05-02T08:43:02.498Z</time></trkpt><trkpt lat="42.02926" lon="12.6771967"><ele>104.0</ele><time>2026-05-02T08:43:03.498Z</time></trkpt><trkpt lat="42.02945" lon="12.6770633"><ele>104.66666666666666</ele><time>2026-05-02T08:43:04.498Z</time></trkpt><trkpt lat="42.029635" lon="12.6769267"><ele>105.33333333333334</ele><time>2026-05-02T08:43:05.498Z</time></trkpt><trkpt lat="42.029825" lon="12.6767933"><ele>106.0</ele><time>2026-05-02T08:43:06.498Z</time></trkpt><trkpt lat="42.0300083" lon="12.6766633"><ele>104.0</ele><time>2026-05-02T08:43:07.498Z</time></trkpt><trkpt lat="42.0301817" lon="12.676525"><ele>102.0</ele><time>2026-05-02T08:43:08.498Z</time></trkpt><trkpt lat="42.0303583" lon="12.6763833"><ele>100.0</ele><time>2026-05-02T08:43:09.498Z</time></trkpt><trkpt lat="42.0305317" lon="12.676235"><ele>101.33333333333334</ele><time>2026-05-02T08:43:10.498Z</time></trkpt><trkpt lat="42.0307133" lon="12.6760883"><ele>102.66666666666666</ele><time>2026-05-02T08:43:11.498Z</time></trkpt><trkpt lat="42.0308917" lon="12.6759467"><ele>104.0</ele><time>2026-05-02T08:43:12.498Z</time></trkpt><trkpt lat="42.0310683" lon="12.6758"><ele>104.0</ele><time>2026-05-02T08:43:13.498Z</time></trkpt><trkpt lat="42.0312467" lon="12.6756567"><ele>104.0</ele><time>2026-05-02T08:43:14.498Z</time></trkpt><trkpt lat="42.0314233" lon="12.67551"><ele>104.0</ele><time>2026-05-02T08:43:15.498Z</time></trkpt><trkpt lat="42.0316" lon="12.6753583"><ele>105.66666666666666</ele><time>2026-05-02T08:43:16.498Z</time></trkpt><trkpt lat="42.0317733" lon="12.675205"><ele>107.33333333333334</ele><time>2026-05-02T08:43:17.498Z</time></trkpt><trkpt lat="42.0319467" lon="12.6750467"><ele>109.0</ele><time>2026-05-02T08:43:18.498Z</time></trkpt><trkpt lat="42.0321167" lon="12.6748933"><ele>109.0</ele><time>2026-05-02T08:43:19.498Z</time></trkpt><trkpt lat="42.032285" lon="12.6747333"><ele>109.0</ele><time>2026-05-02T08:43:20.498Z</time></trkpt><trkpt lat="42.0324483" lon="12.67457"><ele>109.0</ele><time>2026-05-02T08:43:21.498Z</time></trkpt><trkpt lat="42.0326183" lon="12.67441"><ele>111.0</ele><time>2026-05-02T08:43:22.498Z</time></trkpt><trkpt lat="42.0327833" lon="12.6742483"><ele>113.0</ele><time>2026-05-02T08:43:23.498Z</time></trkpt><trkpt lat="42.0329517" lon="12.67409"><ele>115.0</ele><time>2026-05-02T08:43:24.498Z</time></trkpt><trkpt lat="42.03312" lon="12.6739267"><ele>115.0</ele><time>2026-05-02T08:43:25.498Z</time></trkpt><trkpt lat="42.0332883" lon="12.67376"><ele>115.0</ele><time>2026-05-02T08:43:26.498Z</time></trkpt><trkpt lat="42.0334567" lon="12.6735933"><ele>115.0</ele><time>2026-05-02T08:43:27.498Z</time></trkpt><trkpt lat="42.0336233" lon="12.673425"><ele>117.66666666666667</ele><time>2026-05-02T08:43:28.498Z</time></trkpt><trkpt lat="42.0337933" lon="12.673255"><ele>120.33333333333334</ele><time>2026-05-02T08:43:29.498Z</time></trkpt><trkpt lat="42.0339567" lon="12.6730767"><ele>123.0</ele><time>2026-05-02T08:43:30.498Z</time></trkpt><trkpt lat="42.0341183" lon="12.6729"><ele>122.66666666666666</ele><time>2026-05-02T08:43:31.498Z</time></trkpt><trkpt lat="42.0342783" lon="12.6727267"><ele>122.33333333333333</ele><time>2026-05-02T08:43:32.498Z</time></trkpt><trkpt lat="42.0344467" lon="12.6725517"><ele>122.0</ele><time>2026-05-02T08:43:33.498Z</time></trkpt><trkpt lat="42.03461" lon="12.6723717"><ele>122.0</ele><time>2026-05-02T08:43:34.498Z</time></trkpt><trkpt lat="42.0347717" lon="12.67219"><ele>122.0</ele><time>2026-05-02T08:43:35.498Z</time></trkpt><trkpt lat="42.034935" lon="12.6720117"><ele>122.0</ele><time>2026-05-02T08:43:36.498Z</time></trkpt><trkpt lat="42.0350967" lon="12.6718283"><ele>122.66666666666666</ele><time>2026-05-02T08:43:37.498Z</time></trkpt><trkpt lat="42.0352533" lon="12.6716467"><ele>123.33333333333334</ele><time>2026-05-02T08:43:38.498Z</time></trkpt><trkpt lat="42.0354017" lon="12.671455"><ele>124.0</ele><time>2026-05-02T08:43:39.498Z</time></trkpt><trkpt lat="42.0355483" lon="12.6712633"><ele>125.66666666666667</ele><time>2026-05-02T08:43:40.498Z</time></trkpt><trkpt lat="42.035695" lon="12.67107"><ele>127.33333333333334</ele><time>2026-05-02T08:43:41.498Z</time></trkpt><trkpt lat="42.0358417" lon="12.6708767"><ele>129.0</ele><time>2026-05-02T08:43:42.498Z</time></trkpt><trkpt lat="42.0359883" lon="12.6706833"><ele>129.0</ele><time>2026-05-02T08:43:43.498Z</time></trkpt><trkpt lat="42.0361367" lon="12.6704767"><ele>129.0</ele><time>2026-05-02T08:43:44.499Z</time></trkpt><trkpt lat="42.0362833" lon="12.6702783"><ele>129.0</ele><time>2026-05-02T08:43:45.498Z</time></trkpt><trkpt lat="42.0364267" lon="12.6700867"><ele>131.33333333333334</ele><time>2026-05-02T08:43:46.498Z</time></trkpt><trkpt lat="42.03657" lon="12.6698833"><ele>133.66666666666669</ele><time>2026-05-02T08:43:47.498Z</time></trkpt><trkpt lat="42.03671" lon="12.6696817"><ele>136.0</ele><time>2026-05-02T08:43:48.498Z</time></trkpt><trkpt lat="42.0368483" lon="12.6694767"><ele>137.0</ele><time>2026-05-02T08:43:49.498Z</time></trkpt><trkpt lat="42.0369833" lon="12.6692717"><ele>138.0</ele><time>2026-05-02T08:43:50.498Z</time></trkpt><trkpt lat="42.0371217" lon="12.6690633"><ele>139.0</ele><time>2026-05-02T08:43:51.498Z</time></trkpt><trkpt lat="42.0372567" lon="12.6688467"><ele>139.0</ele><time>2026-05-02T08:43:52.498Z</time></trkpt><trkpt lat="42.0373933" lon="12.668635"><ele>139.0</ele><time>2026-05-02T08:43:53.498Z</time></trkpt><trkpt lat="42.037525" lon="12.6684133"><ele>139.0</ele><time>2026-05-02T08:43:54.498Z</time></trkpt><trkpt lat="42.0376583" lon="12.6681867"><ele>137.66666666666669</ele><time>2026-05-02T08:43:55.498Z</time></trkpt><trkpt lat="42.0377883" lon="12.6679717"><ele>136.33333333333334</ele><time>2026-05-02T08:43:56.499Z</time></trkpt><trkpt lat="42.0379117" lon="12.6677483"><ele>135.0</ele><time>2026-05-02T08:43:57.498Z</time></trkpt><trkpt lat="42.0380367" lon="12.6675183"><ele>137.66666666666666</ele><time>2026-05-02T08:43:58.498Z</time></trkpt><trkpt lat="42.038155" lon="12.6672867"><ele>140.33333333333331</ele><time>2026-05-02T08:43:59.498Z</time></trkpt><trkpt lat="42.0382883" lon="12.6670567"><ele>143.0</ele><time>2026-05-02T08:44:00.498Z</time></trkpt><trkpt lat="42.0384217" lon="12.6668267"><ele>143.0</ele><time>2026-05-02T08:44:01.498Z</time></trkpt><trkpt lat="42.0385433" lon="12.6665917"><ele>143.0</ele><time>2026-05-02T08:44:02.498Z</time></trkpt><trkpt lat="42.0386667" lon="12.6663483"><ele>143.0</ele><time>2026-05-02T08:44:03.498Z</time></trkpt><trkpt lat="42.0387883" lon="12.6660983"><ele>143.0</ele><time>2026-05-02T08:44:04.498Z</time></trkpt><trkpt lat="42.0389083" lon="12.6658583"><ele>143.0</ele><time>2026-05-02T08:44:05.499Z</time></trkpt><trkpt lat="42.0390283" lon="12.665605"><ele>143.0</ele><time>2026-05-02T08:44:06.498Z</time></trkpt><trkpt lat="42.039145" lon="12.665345"><ele>140.66666666666666</ele><time>2026-05-02T08:44:07.498Z</time></trkpt><trkpt lat="42.0392617" lon="12.6650917"><ele>138.33333333333334</ele><time>2026-05-02T08:44:08.498Z</time></trkpt><trkpt lat="42.0393767" lon="12.66484"><ele>136.0</ele><time>2026-05-02T08:44:09.498Z</time></trkpt><trkpt lat="42.039495" lon="12.6645833"><ele>137.0</ele><time>2026-05-02T08:44:10.498Z</time></trkpt><trkpt lat="42.0396117" lon="12.6643283"><ele>138.0</ele><time>2026-05-02T08:44:11.498Z</time></trkpt><trkpt lat="42.039725" lon="12.6640717"><ele>139.0</ele><time>2026-05-02T08:44:12.498Z</time></trkpt><trkpt lat="42.0398367" lon="12.6638217"><ele>140.33333333333334</ele><time>2026-05-02T08:44:13.498Z</time></trkpt><trkpt lat="42.039945" lon="12.6635717"><ele>141.66666666666666</ele><time>2026-05-02T08:44:14.498Z</time></trkpt><trkpt lat="42.0400517" lon="12.663315"><ele>143.0</ele><time>2026-05-02T08:44:15.498Z</time></trkpt><trkpt lat="42.0401567" lon="12.6630567"><ele>140.66666666666666</ele><time>2026-05-02T08:44:16.498Z</time></trkpt><trkpt lat="42.0402617" lon="12.6628"><ele>138.33333333333334</ele><time>2026-05-02T08:44:17.498Z</time></trkpt><trkpt lat="42.0403717" lon="12.6625383"><ele>136.0</ele><time>2026-05-02T08:44:18.498Z</time></trkpt><trkpt lat="42.0404833" lon="12.66228"><ele>136.0</ele><time>2026-05-02T08:44:19.498Z</time></trkpt><trkpt lat="42.0405917" lon="12.662015"><ele>136.0</ele><time>2026-05-02T08:44:20.498Z</time></trkpt><trkpt lat="42.0407017" lon="12.661745"><ele>134.0</ele><time>2026-05-02T08:44:21.498Z</time></trkpt><trkpt lat="42.04081" lon="12.661475"><ele>132.0</ele><time>2026-05-02T08:44:22.499Z</time></trkpt><trkpt lat="42.040925" lon="12.661215"><ele>129.5</ele><time>2026-05-02T08:44:23.499Z</time></trkpt><trkpt lat="42.0410433" lon="12.66095"><ele>127.0</ele><time>2026-05-02T08:44:24.499Z</time></trkpt><trkpt lat="42.04116" lon="12.6606833"><ele>127.0</ele><time>2026-05-02T08:44:25.498Z</time></trkpt><trkpt lat="42.0412783" lon="12.660415"><ele>127.0</ele><time>2026-05-02T08:44:26.498Z</time></trkpt><trkpt lat="42.0413933" lon="12.66015"><ele>126.0</ele><time>2026-05-02T08:44:27.498Z</time></trkpt><trkpt lat="42.04151" lon="12.6598883"><ele>125.0</ele><time>2026-05-02T08:44:28.498Z</time></trkpt><trkpt lat="42.0416317" lon="12.6596267"><ele>125.0</ele><time>2026-05-02T08:44:29.498Z</time></trkpt><trkpt lat="42.0417533" lon="12.6593683"><ele>125.0</ele><time>2026-05-02T08:44:30.498Z</time></trkpt><trkpt lat="42.041885" lon="12.6591117"><ele>125.0</ele><time>2026-05-02T08:44:31.498Z</time></trkpt><trkpt lat="42.0420117" lon="12.65886"><ele>125.0</ele><time>2026-05-02T08:44:32.498Z</time></trkpt><trkpt lat="42.0421483" lon="12.6586133"><ele>124.5</ele><time>2026-05-02T08:44:33.498Z</time></trkpt><trkpt lat="42.0422833" lon="12.6583667"><ele>124.0</ele><time>2026-05-02T08:44:34.498Z</time></trkpt><trkpt lat="42.0424217" lon="12.65812"><ele>123.5</ele><time>2026-05-02T08:44:35.498Z</time></trkpt><trkpt lat="42.0425617" lon="12.6578867"><ele>123.0</ele><time>2026-05-02T08:44:36.498Z</time></trkpt><trkpt lat="42.042705" lon="12.65765"><ele>122.33333333333334</ele><time>2026-05-02T08:44:37.498Z</time></trkpt><trkpt lat="42.04285" lon="12.6574233"><ele>121.66666666666667</ele><time>2026-05-02T08:44:38.498Z</time></trkpt><trkpt lat="42.0430017" lon="12.6572067"><ele>121.0</ele><time>2026-05-02T08:44:39.498Z</time></trkpt><trkpt lat="42.0431533" lon="12.657"><ele>121.0</ele><time>2026-05-02T08:44:40.498Z</time></trkpt><trkpt lat="42.043305" lon="12.6567933"><ele>121.0</ele><time>2026-05-02T08:44:41.498Z</time></trkpt><trkpt lat="42.0434483" lon="12.6565933"><ele>121.0</ele><time>2026-05-02T08:44:42.498Z</time></trkpt><trkpt lat="42.0436067" lon="12.6563933"><ele>121.0</ele><time>2026-05-02T08:44:43.498Z</time></trkpt><trkpt lat="42.0437583" lon="12.6561967"><ele>121.0</ele><time>2026-05-02T08:44:44.498Z</time></trkpt><trkpt lat="42.0439167" lon="12.6560033"><ele>121.0</ele><time>2026-05-02T08:44:45.498Z</time></trkpt><trkpt lat="42.04408" lon="12.6558133"><ele>121.66666666666667</ele><time>2026-05-02T08:44:46.498Z</time></trkpt><trkpt lat="42.0442417" lon="12.6556267"><ele>122.33333333333334</ele><time>2026-05-02T08:44:47.498Z</time></trkpt><trkpt lat="42.0444117" lon="12.6554383"><ele>123.0</ele><time>2026-05-02T08:44:48.498Z</time></trkpt><trkpt lat="42.0445767" lon="12.6552583"><ele>121.66666666666666</ele><time>2026-05-02T08:44:49.498Z</time></trkpt><trkpt lat="42.0447483" lon="12.6550783"><ele>120.33333333333333</ele><time>2026-05-02T08:44:50.498Z</time></trkpt><trkpt lat="42.04493" lon="12.65491"><ele>119.0</ele><time>2026-05-02T08:44:51.498Z</time></trkpt><trkpt lat="42.0451117" lon="12.6547433"><ele>119.0</ele><time>2026-05-02T08:44:52.498Z</time></trkpt><trkpt lat="42.0452933" lon="12.6545883"><ele>119.0</ele><time>2026-05-02T08:44:53.498Z</time></trkpt><trkpt lat="42.0454783" lon="12.6544367"><ele>119.0</ele><time>2026-05-02T08:44:54.499Z</time></trkpt><trkpt lat="42.0456633" lon="12.6542833"><ele>117.33333333333333</ele><time>2026-05-02T08:44:55.498Z</time></trkpt><trkpt lat="42.0458467" lon="12.6541417"><ele>115.66666666666666</ele><time>2026-05-02T08:44:56.498Z</time></trkpt><trkpt lat="42.0460333" lon="12.6540083"><ele>114.0</ele><time>2026-05-02T08:44:57.498Z</time></trkpt><trkpt lat="42.0462117" lon="12.6538717"><ele>114.0</ele><time>2026-05-02T08:44:58.498Z</time></trkpt><trkpt lat="42.046385" lon="12.653745"><ele>114.0</ele><time>2026-05-02T08:44:59.498Z</time></trkpt><trkpt lat="42.0465567" lon="12.6536217"><ele>114.0</ele><time>2026-05-02T08:45:00.498Z</time></trkpt><trkpt lat="42.0467333" lon="12.6535083"><ele>113.66666666666666</ele><time>2026-05-02T08:45:01.498Z</time></trkpt><trkpt lat="42.0469067" lon="12.6534"><ele>113.33333333333333</ele><time>2026-05-02T08:45:02.498Z</time></trkpt><trkpt lat="42.0470933" lon="12.6532917"><ele>113.0</ele><time>2026-05-02T08:45:03.498Z</time></trkpt><trkpt lat="42.0472817" lon="12.6531917"><ele>113.33333333333333</ele><time>2026-05-02T08:45:04.498Z</time></trkpt><trkpt lat="42.0474717" lon="12.653095"><ele>113.66666666666666</ele><time>2026-05-02T08:45:05.498Z</time></trkpt><trkpt lat="42.0476617" lon="12.6529967"><ele>114.0</ele><time>2026-05-02T08:45:06.498Z</time></trkpt><trkpt lat="42.0478583" lon="12.6529017"><ele>114.0</ele><time>2026-05-02T08:45:07.498Z</time></trkpt><trkpt lat="42.0480567" lon="12.6528167"><ele>114.0</ele><time>2026-05-02T08:45:08.498Z</time></trkpt><trkpt lat="42.04825" lon="12.6527267"><ele>114.0</ele><time>2026-05-02T08:45:09.498Z</time></trkpt><trkpt lat="42.0484483" lon="12.6526367"><ele>114.0</ele><time>2026-05-02T08:45:10.498Z</time></trkpt><trkpt lat="42.0486433" lon="12.6525483"><ele>114.0</ele><time>2026-05-02T08:45:11.498Z</time></trkpt><trkpt lat="42.048835" lon="12.6524617"><ele>114.0</ele><time>2026-05-02T08:45:12.498Z</time></trkpt><trkpt lat="42.0490317" lon="12.6523817"><ele>113.33333333333334</ele><time>2026-05-02T08:45:13.498Z</time></trkpt><trkpt lat="42.049225" lon="12.6522967"><ele>112.66666666666667</ele><time>2026-05-02T08:45:14.498Z</time></trkpt><trkpt lat="42.0494233" lon="12.6522183"><ele>112.0</ele><time>2026-05-02T08:45:15.499Z</time></trkpt><trkpt lat="42.0496217" lon="12.652145"><ele>112.0</ele><time>2026-05-02T08:45:16.498Z</time></trkpt><trkpt lat="42.0498117" lon="12.6520717"><ele>112.0</ele><time>2026-05-02T08:45:17.498Z</time></trkpt><trkpt lat="42.050005" lon="12.6519883"><ele>112.0</ele><time>2026-05-02T08:45:18.498Z</time></trkpt><trkpt lat="42.0501983" lon="12.65191"><ele>111.33333333333334</ele><time>2026-05-02T08:45:19.498Z</time></trkpt><trkpt lat="42.050385" lon="12.651825"><ele>110.66666666666666</ele><time>2026-05-02T08:45:20.498Z</time></trkpt><trkpt lat="42.0505733" lon="12.65174"><ele>110.0</ele><time>2026-05-02T08:45:21.498Z</time></trkpt><trkpt lat="42.0507567" lon="12.6516533"><ele>110.33333333333333</ele><time>2026-05-02T08:45:22.498Z</time></trkpt><trkpt lat="42.0509417" lon="12.6515617"><ele>110.66666666666666</ele><time>2026-05-02T08:45:23.498Z</time></trkpt><trkpt lat="42.051125" lon="12.6514633"><ele>111.0</ele><time>2026-05-02T08:45:24.498Z</time></trkpt><trkpt lat="42.0513033" lon="12.651355"><ele>111.0</ele><time>2026-05-02T08:45:25.498Z</time></trkpt><trkpt lat="42.0514817" lon="12.6512417"><ele>111.0</ele><time>2026-05-02T08:45:26.498Z</time></trkpt><trkpt lat="42.0516533" lon="12.6511217"><ele>111.0</ele><time>2026-05-02T08:45:27.498Z</time></trkpt><trkpt lat="42.05183" lon="12.6509983"><ele>110.33333333333334</ele><time>2026-05-02T08:45:28.498Z</time></trkpt><trkpt lat="42.052" lon="12.650865"><ele>109.66666666666667</ele><time>2026-05-02T08:45:29.498Z</time></trkpt><trkpt lat="42.052165" lon="12.65073"><ele>109.0</ele><time>2026-05-02T08:45:30.498Z</time></trkpt><trkpt lat="42.0523267" lon="12.6505867"><ele>109.0</ele><time>2026-05-02T08:45:31.498Z</time></trkpt><trkpt lat="42.0524883" lon="12.65044"><ele>109.0</ele><time>2026-05-02T08:45:32.498Z</time></trkpt><trkpt lat="42.05265" lon="12.6502883"><ele>109.0</ele><time>2026-05-02T08:45:33.498Z</time></trkpt><trkpt lat="42.0528083" lon="12.6501283"><ele>108.66666666666667</ele><time>2026-05-02T08:45:34.498Z</time></trkpt><trkpt lat="42.0529667" lon="12.649965"><ele>108.33333333333334</ele><time>2026-05-02T08:45:35.498Z</time></trkpt><trkpt lat="42.053115" lon="12.6497933"><ele>108.0</ele><time>2026-05-02T08:45:36.498Z</time></trkpt><trkpt lat="42.0532667" lon="12.6496117"><ele>108.66666666666666</ele><time>2026-05-02T08:45:37.499Z</time></trkpt><trkpt lat="42.0534117" lon="12.64942"><ele>109.33333333333333</ele><time>2026-05-02T08:45:38.498Z</time></trkpt><trkpt lat="42.0535567" lon="12.6492283"><ele>110.0</ele><time>2026-05-02T08:45:39.498Z</time></trkpt><trkpt lat="42.0537" lon="12.649035"><ele>110.0</ele><time>2026-05-02T08:45:40.498Z</time></trkpt><trkpt lat="42.05383" lon="12.6488283"><ele>110.0</ele><time>2026-05-02T08:45:41.498Z</time></trkpt><trkpt lat="42.0539667" lon="12.6486133"><ele>110.0</ele><time>2026-05-02T08:45:42.498Z</time></trkpt><trkpt lat="42.0540933" lon="12.6483933"><ele>109.0</ele><time>2026-05-02T08:45:43.498Z</time></trkpt><trkpt lat="42.0542183" lon="12.6481733"><ele>108.0</ele><time>2026-05-02T08:45:44.498Z</time></trkpt><trkpt lat="42.054335" lon="12.6479483"><ele>107.0</ele><time>2026-05-02T08:45:45.498Z</time></trkpt><trkpt lat="42.05445" lon="12.647715"><ele>107.0</ele><time>2026-05-02T08:45:46.498Z</time></trkpt><trkpt lat="42.054565" lon="12.6474817"><ele>107.0</ele><time>2026-05-02T08:45:47.498Z</time></trkpt><trkpt lat="42.0546767" lon="12.64724"><ele>107.0</ele><time>2026-05-02T08:45:48.498Z</time></trkpt><trkpt lat="42.054785" lon="12.647"><ele>106.66666666666666</ele><time>2026-05-02T08:45:49.498Z</time></trkpt><trkpt lat="42.0548967" lon="12.6467583"><ele>106.33333333333334</ele><time>2026-05-02T08:45:50.498Z</time></trkpt><trkpt lat="42.055015" lon="12.6465133"><ele>106.0</ele><time>2026-05-02T08:45:51.498Z</time></trkpt><trkpt lat="42.0551283" lon="12.6462683"><ele>107.33333333333334</ele><time>2026-05-02T08:45:52.498Z</time></trkpt><trkpt lat="42.05524" lon="12.64602"><ele>108.66666666666666</ele><time>2026-05-02T08:45:53.498Z</time></trkpt><trkpt lat="42.05535" lon="12.6457733"><ele>110.0</ele><time>2026-05-02T08:45:54.498Z</time></trkpt><trkpt lat="42.05546" lon="12.645525"><ele>110.0</ele><time>2026-05-02T08:45:55.498Z</time></trkpt><trkpt lat="42.05557" lon="12.6452733"><ele>110.0</ele><time>2026-05-02T08:45:56.498Z</time></trkpt><trkpt lat="42.0556883" lon="12.6450267"><ele>110.0</ele><time>2026-05-02T08:45:57.498Z</time></trkpt><trkpt lat="42.0558017" lon="12.6447867"><ele>111.66666666666666</ele><time>2026-05-02T08:45:58.498Z</time></trkpt><trkpt lat="42.055925" lon="12.6445483"><ele>113.33333333333334</ele><time>2026-05-02T08:45:59.498Z</time></trkpt><trkpt lat="42.0560417" lon="12.644305"><ele>115.0</ele><time>2026-05-02T08:46:00.498Z</time></trkpt><trkpt lat="42.0561583" lon="12.6440667"><ele>115.0</ele><time>2026-05-02T08:46:01.498Z</time></trkpt><trkpt lat="42.0562767" lon="12.6438333"><ele>115.0</ele><time>2026-05-02T08:46:02.498Z</time></trkpt><trkpt lat="42.0563983" lon="12.6436"><ele>115.0</ele><time>2026-05-02T08:46:03.499Z</time></trkpt><trkpt lat="42.0565267" lon="12.64338"><ele>115.66666666666667</ele><time>2026-05-02T08:46:04.498Z</time></trkpt><trkpt lat="42.0566583" lon="12.64316"><ele>116.33333333333334</ele><time>2026-05-02T08:46:05.498Z</time></trkpt><trkpt lat="42.0567867" lon="12.6429417"><ele>117.0</ele><time>2026-05-02T08:46:06.498Z</time></trkpt><trkpt lat="42.0569267" lon="12.6427383"><ele>115.66666666666666</ele><time>2026-05-02T08:46:07.499Z</time></trkpt><trkpt lat="42.057065" lon="12.6425317"><ele>114.33333333333333</ele><time>2026-05-02T08:46:08.498Z</time></trkpt><trkpt lat="42.057205" lon="12.642335"><ele>113.0</ele><time>2026-05-02T08:46:09.498Z</time></trkpt><trkpt lat="42.0573533" lon="12.6421433"><ele>113.33333333333333</ele><time>2026-05-02T08:46:10.498Z</time></trkpt><trkpt lat="42.0575017" lon="12.6419533"><ele>113.66666666666666</ele><time>2026-05-02T08:46:11.498Z</time></trkpt><trkpt lat="42.057655" lon="12.6417633"><ele>114.0</ele><time>2026-05-02T08:46:12.498Z</time></trkpt><trkpt lat="42.0578133" lon="12.64158"><ele>114.0</ele><time>2026-05-02T08:46:13.498Z</time></trkpt><trkpt lat="42.0579767" lon="12.6414"><ele>114.0</ele><time>2026-05-02T08:46:14.498Z</time></trkpt><trkpt lat="42.058145" lon="12.6412167"><ele>114.0</ele><time>2026-05-02T08:46:15.498Z</time></trkpt><trkpt lat="42.0583183" lon="12.6410433"><ele>113.0</ele><time>2026-05-02T08:46:16.498Z</time></trkpt><trkpt lat="42.0584983" lon="12.6408667"><ele>112.0</ele><time>2026-05-02T08:46:17.499Z</time></trkpt><trkpt lat="42.0586833" lon="12.6407033"><ele>111.0</ele><time>2026-05-02T08:46:18.498Z</time></trkpt><trkpt lat="42.0588733" lon="12.64055"><ele>111.0</ele><time>2026-05-02T08:46:19.499Z</time></trkpt><trkpt lat="42.05906" lon="12.6403967"><ele>111.0</ele><time>2026-05-02T08:46:20.498Z</time></trkpt><trkpt lat="42.0592517" lon="12.6402483"><ele>111.0</ele><time>2026-05-02T08:46:21.498Z</time></trkpt><trkpt lat="42.0594467" lon="12.6401083"><ele>111.0</ele><time>2026-05-02T08:46:22.498Z</time></trkpt><trkpt lat="42.059645" lon="12.6399783"><ele>111.0</ele><time>2026-05-02T08:46:23.498Z</time></trkpt><trkpt lat="42.0598417" lon="12.63985"><ele>111.0</ele><time>2026-05-02T08:46:24.498Z</time></trkpt><trkpt lat="42.06004" lon="12.6397317"><ele>111.33333333333334</ele><time>2026-05-02T08:46:25.498Z</time></trkpt><trkpt lat="42.06024" lon="12.6396167"><ele>111.66666666666667</ele><time>2026-05-02T08:46:26.498Z</time></trkpt><trkpt lat="42.06044" lon="12.639515"><ele>112.0</ele><time>2026-05-02T08:46:27.499Z</time></trkpt><trkpt lat="42.0606417" lon="12.6394117"><ele>112.0</ele><time>2026-05-02T08:46:28.498Z</time></trkpt><trkpt lat="42.0608517" lon="12.6393133"><ele>112.0</ele><time>2026-05-02T08:46:29.498Z</time></trkpt><trkpt lat="42.0610533" lon="12.6392217"><ele>112.0</ele><time>2026-05-02T08:46:30.498Z</time></trkpt><trkpt lat="42.0612667" lon="12.6391367"><ele>112.0</ele><time>2026-05-02T08:46:31.498Z</time></trkpt><trkpt lat="42.061485" lon="12.639065"><ele>112.0</ele><time>2026-05-02T08:46:32.499Z</time></trkpt><trkpt lat="42.061705" lon="12.639"><ele>111.33333333333334</ele><time>2026-05-02T08:46:33.498Z</time></trkpt><trkpt lat="42.061925" lon="12.6389417"><ele>110.66666666666666</ele><time>2026-05-02T08:46:34.498Z</time></trkpt><trkpt lat="42.0621383" lon="12.638885"><ele>110.0</ele><time>2026-05-02T08:46:35.498Z</time></trkpt><trkpt lat="42.0623583" lon="12.638845"><ele>110.0</ele><time>2026-05-02T08:46:36.498Z</time></trkpt><trkpt lat="42.0625717" lon="12.6388033"><ele>110.0</ele><time>2026-05-02T08:46:37.498Z</time></trkpt><trkpt lat="42.0627917" lon="12.638775"><ele>110.0</ele><time>2026-05-02T08:46:38.498Z</time></trkpt><trkpt lat="42.063015" lon="12.6387533"><ele>110.0</ele><time>2026-05-02T08:46:39.498Z</time></trkpt><trkpt lat="42.0632333" lon="12.638735"><ele>110.0</ele><time>2026-05-02T08:46:40.498Z</time></trkpt><trkpt lat="42.063455" lon="12.638715"><ele>110.0</ele><time>2026-05-02T08:46:41.498Z</time></trkpt><trkpt lat="42.0636733" lon="12.6387033"><ele>110.0</ele><time>2026-05-02T08:46:42.498Z</time></trkpt><trkpt lat="42.0638917" lon="12.638685"><ele>110.0</ele><time>2026-05-02T08:46:43.498Z</time></trkpt><trkpt lat="42.0641133" lon="12.6386833"><ele>110.0</ele><time>2026-05-02T08:46:44.498Z</time></trkpt><trkpt lat="42.0643333" lon="12.6386867"><ele>107.5</ele><time>2026-05-02T08:46:45.498Z</time></trkpt><trkpt lat="42.0645583" lon="12.6386883"><ele>105.0</ele><time>2026-05-02T08:46:46.498Z</time></trkpt><trkpt lat="42.064785" lon="12.6386883"><ele>104.0</ele><time>2026-05-02T08:46:47.498Z</time></trkpt><trkpt lat="42.0650017" lon="12.6386817"><ele>103.0</ele><time>2026-05-02T08:46:48.498Z</time></trkpt><trkpt lat="42.0652183" lon="12.6386867"><ele>102.0</ele><time>2026-05-02T08:46:49.498Z</time></trkpt><trkpt lat="42.065435" lon="12.638685"><ele>102.0</ele><time>2026-05-02T08:46:50.498Z</time></trkpt><trkpt lat="42.06565" lon="12.638685"><ele>102.0</ele><time>2026-05-02T08:46:51.498Z</time></trkpt><trkpt lat="42.0658633" lon="12.6386833"><ele>102.0</ele><time>2026-05-02T08:46:52.498Z</time></trkpt><trkpt lat="42.0660817" lon="12.6386867"><ele>102.33333333333334</ele><time>2026-05-02T08:46:53.498Z</time></trkpt><trkpt lat="42.066305" lon="12.6386967"><ele>102.66666666666667</ele><time>2026-05-02T08:46:54.498Z</time></trkpt><trkpt lat="42.0665233" lon="12.6386967"><ele>103.0</ele><time>2026-05-02T08:46:55.499Z</time></trkpt><trkpt lat="42.0667417" lon="12.6387"><ele>103.0</ele><time>2026-05-02T08:46:56.498Z</time></trkpt><trkpt lat="42.0669567" lon="12.6386983"><ele>103.0</ele><time>2026-05-02T08:46:57.498Z</time></trkpt><trkpt lat="42.067175" lon="12.6387017"><ele>103.0</ele><time>2026-05-02T08:46:58.498Z</time></trkpt><trkpt lat="42.0673833" lon="12.6386967"><ele>101.33333333333334</ele><time>2026-05-02T08:46:59.498Z</time></trkpt><trkpt lat="42.0675983" lon="12.6386933"><ele>99.66666666666666</ele><time>2026-05-02T08:47:00.498Z</time></trkpt><trkpt lat="42.0678183" lon="12.6386933"><ele>98.0</ele><time>2026-05-02T08:47:01.498Z</time></trkpt><trkpt lat="42.0680383" lon="12.63869"><ele>98.0</ele><time>2026-05-02T08:47:02.498Z</time></trkpt><trkpt lat="42.0682533" lon="12.6386967"><ele>98.0</ele><time>2026-05-02T08:47:03.498Z</time></trkpt><trkpt lat="42.0684683" lon="12.6386917"><ele>98.0</ele><time>2026-05-02T08:47:04.498Z</time></trkpt><trkpt lat="42.0686817" lon="12.6386883"><ele>97.0</ele><time>2026-05-02T08:47:05.498Z</time></trkpt><trkpt lat="42.0688983" lon="12.63869"><ele>96.0</ele><time>2026-05-02T08:47:06.498Z</time></trkpt><trkpt lat="42.06911" lon="12.6386833"><ele>95.0</ele><time>2026-05-02T08:47:07.498Z</time></trkpt><trkpt lat="42.069325" lon="12.63868"><ele>93.66666666666667</ele><time>2026-05-02T08:47:08.498Z</time></trkpt><trkpt lat="42.069535" lon="12.638675"><ele>92.33333333333333</ele><time>2026-05-02T08:47:09.498Z</time></trkpt><trkpt lat="42.0697467" lon="12.63866"><ele>91.0</ele><time>2026-05-02T08:47:10.498Z</time></trkpt><trkpt lat="42.06996" lon="12.6386483"><ele>90.66666666666666</ele><time>2026-05-02T08:47:11.498Z</time></trkpt><trkpt lat="42.070175" lon="12.63864"><ele>90.33333333333333</ele><time>2026-05-02T08:47:12.498Z</time></trkpt><trkpt lat="42.07039" lon="12.6386283"><ele>90.0</ele><time>2026-05-02T08:47:13.498Z</time></trkpt><trkpt lat="42.070605" lon="12.6386117"><ele>86.33333333333333</ele><time>2026-05-02T08:47:14.499Z</time></trkpt><trkpt lat="42.0708183" lon="12.6386017"><ele>82.66666666666666</ele><time>2026-05-02T08:47:15.498Z</time></trkpt><trkpt lat="42.07103" lon="12.6385817"><ele>79.0</ele><time>2026-05-02T08:47:16.498Z</time></trkpt><trkpt lat="42.071245" lon="12.638565"><ele>79.0</ele><time>2026-05-02T08:47:17.498Z</time></trkpt><trkpt lat="42.0714583" lon="12.6385467"><ele>79.0</ele><time>2026-05-02T08:47:18.498Z</time></trkpt><trkpt lat="42.0716733" lon="12.6385217"><ele>79.0</ele><time>2026-05-02T08:47:19.498Z</time></trkpt><trkpt lat="42.07189" lon="12.6384933"><ele>78.66666666666666</ele><time>2026-05-02T08:47:20.498Z</time></trkpt><trkpt lat="42.0721083" lon="12.6384633"><ele>78.33333333333333</ele><time>2026-05-02T08:47:21.498Z</time></trkpt><trkpt lat="42.0723283" lon="12.638445"><ele>78.0</ele><time>2026-05-02T08:47:22.498Z</time></trkpt><trkpt lat="42.072555" lon="12.6384183"><ele>78.0</ele><time>2026-05-02T08:47:23.498Z</time></trkpt><trkpt lat="42.0727783" lon="12.63839"><ele>78.0</ele><time>2026-05-02T08:47:24.498Z</time></trkpt><trkpt lat="42.0729967" lon="12.638355"><ele>78.0</ele><time>2026-05-02T08:47:25.498Z</time></trkpt><trkpt lat="42.0732133" lon="12.63832"><ele>77.0</ele><time>2026-05-02T08:47:26.499Z</time></trkpt><trkpt lat="42.0734383" lon="12.6382817"><ele>76.0</ele><time>2026-05-02T08:47:27.498Z</time></trkpt><trkpt lat="42.0736583" lon="12.63824"><ele>75.0</ele><time>2026-05-02T08:47:28.499Z</time></trkpt><trkpt lat="42.0738833" lon="12.6381933"><ele>75.0</ele><time>2026-05-02T08:47:29.498Z</time></trkpt><trkpt lat="42.0741033" lon="12.638145"><ele>75.0</ele><time>2026-05-02T08:47:30.498Z</time></trkpt><trkpt lat="42.0743217" lon="12.6380933"><ele>75.0</ele><time>2026-05-02T08:47:31.498Z</time></trkpt><trkpt lat="42.0745483" lon="12.638045"><ele>73.5</ele><time>2026-05-02T08:47:32.498Z</time></trkpt><trkpt lat="42.0747767" lon="12.6379967"><ele>72.0</ele><time>2026-05-02T08:47:33.498Z</time></trkpt><trkpt lat="42.075" lon="12.6379467"><ele>69.5</ele><time>2026-05-02T08:47:34.498Z</time></trkpt><trkpt lat="42.075235" lon="12.6378967"><ele>67.0</ele><time>2026-05-02T08:47:35.498Z</time></trkpt><trkpt lat="42.0754617" lon="12.6378383"><ele>68.0</ele><time>2026-05-02T08:47:36.498Z</time></trkpt><trkpt lat="42.07569" lon="12.6377783"><ele>69.0</ele><time>2026-05-02T08:47:37.498Z</time></trkpt><trkpt lat="42.0759233" lon="12.6377133"><ele>69.0</ele><time>2026-05-02T08:47:38.498Z</time></trkpt><trkpt lat="42.0761567" lon="12.6376417"><ele>69.0</ele><time>2026-05-02T08:47:39.498Z</time></trkpt><trkpt lat="42.0763817" lon="12.6375833"><ele>68.5</ele><time>2026-05-02T08:47:40.498Z</time></trkpt><trkpt lat="42.076605" lon="12.6375233"><ele>68.0</ele><time>2026-05-02T08:47:41.498Z</time></trkpt><trkpt lat="42.0768317" lon="12.6374633"><ele>52.0</ele><time>2026-05-02T08:47:42.498Z</time></trkpt><trkpt lat="42.08082" lon="12.63553"><ele>52.0</ele><time>2026-05-02T08:48:00.49Z</time></trkpt><trkpt lat="42.0810417" lon="12.63543"><ele>52.0</ele><time>2026-05-02T08:48:01.49Z</time></trkpt><trkpt lat="42.0812667" lon="12.6353017"><ele>48.5</ele><time>2026-05-02T08:48:02.49Z</time></trkpt><trkpt lat="42.0814883" lon="12.6351733"><ele>45.0</ele><time>2026-05-02T08:48:03.49Z</time></trkpt><trkpt lat="42.081715" lon="12.6350367"><ele>44.0</ele><time>2026-05-02T08:48:04.49Z</time></trkpt><trkpt lat="42.0819317" lon="12.6348933"><ele>43.0</ele><time>2026-05-02T08:48:05.49Z</time></trkpt><trkpt lat="42.082145" lon="12.6347517"><ele>44.0</ele><time>2026-05-02T08:48:06.49Z</time></trkpt><trkpt lat="42.08258" lon="12.63448"><ele>39.0</ele><time>2026-05-02T08:48:08.49Z</time></trkpt><trkpt lat="42.0828033" lon="12.634355"><ele>34.0</ele><time>2026-05-02T08:48:09.49Z</time></trkpt><trkpt lat="42.0830167" lon="12.6342183"><ele>34.0</ele><time>2026-05-02T08:48:10.49Z</time></trkpt><trkpt lat="42.083225" lon="12.63408"><ele>34.0</ele><time>2026-05-02T08:48:11.49Z</time></trkpt><trkpt lat="42.08343" lon="12.633935"><ele>34.5</ele><time>2026-05-02T08:48:12.49Z</time></trkpt><trkpt lat="42.0836367" lon="12.6337917"><ele>35.0</ele><time>2026-05-02T08:48:13.49Z</time></trkpt><trkpt lat="42.083845" lon="12.6336483"><ele>35.0</ele><time>2026-05-02T08:48:14.491Z</time></trkpt><trkpt lat="42.0840517" lon="12.6335"><ele>35.0</ele><time>2026-05-02T08:48:15.49Z</time></trkpt><trkpt lat="42.0842567" lon="12.6333533"><ele>34.0</ele><time>2026-05-02T08:48:16.49Z</time></trkpt><trkpt lat="42.0844633" lon="12.633205"><ele>33.0</ele><time>2026-05-02T08:48:17.49Z</time></trkpt><trkpt lat="42.08466" lon="12.63306"><ele>33.0</ele><time>2026-05-02T08:48:18.49Z</time></trkpt><trkpt lat="42.08486" lon="12.6329117"><ele>33.0</ele><time>2026-05-02T08:48:19.49Z</time></trkpt><trkpt lat="42.0850617" lon="12.63276"><ele>37.0</ele><time>2026-05-02T08:48:20.49Z</time></trkpt><trkpt lat="42.0852633" lon="12.6326133"><ele>41.0</ele><time>2026-05-02T08:48:21.49Z</time></trkpt><trkpt lat="42.0854617" lon="12.6324583"><ele>41.0</ele><time>2026-05-02T08:48:22.49Z</time></trkpt><trkpt lat="42.085665" lon="12.6323067"><ele>41.0</ele><time>2026-05-02T08:48:23.49Z</time></trkpt><trkpt lat="42.0858683" lon="12.632155"><ele>39.5</ele><time>2026-05-02T08:48:24.49Z</time></trkpt><trkpt lat="42.0860667" lon="12.6319983"><ele>38.0</ele><time>2026-05-02T08:48:25.49Z</time></trkpt><trkpt lat="42.08627" lon="12.63184"><ele>38.5</ele><time>2026-05-02T08:48:26.49Z</time></trkpt><trkpt lat="42.086475" lon="12.6316883"><ele>39.0</ele><time>2026-05-02T08:48:27.49Z</time></trkpt><trkpt lat="42.0866767" lon="12.6315283"><ele>39.0</ele><time>2026-05-02T08:48:28.49Z</time></trkpt><trkpt lat="42.0868783" lon="12.6313733"><ele>39.0</ele><time>2026-05-02T08:48:29.49Z</time></trkpt><trkpt lat="42.0870817" lon="12.6312133"><ele>40.0</ele><time>2026-05-02T08:48:30.49Z</time></trkpt><trkpt lat="42.0872817" lon="12.6310483"><ele>41.0</ele><time>2026-05-02T08:48:31.49Z</time></trkpt><trkpt lat="42.0874767" lon="12.6308883"><ele>38.5</ele><time>2026-05-02T08:48:32.49Z</time></trkpt><trkpt lat="42.08768" lon="12.6307383"><ele>36.0</ele><time>2026-05-02T08:48:33.491Z</time></trkpt><trkpt lat="42.0878833" lon="12.630585"><ele>36.0</ele><time>2026-05-02T08:48:34.49Z</time></trkpt><trkpt lat="42.0880867" lon="12.6304283"><ele>36.0</ele><time>2026-05-02T08:48:35.49Z</time></trkpt><trkpt lat="42.0882883" lon="12.630275"><ele>37.0</ele><time>2026-05-02T08:48:36.49Z</time></trkpt><trkpt lat="42.0884933" lon="12.63012"><ele>38.0</ele><time>2026-05-02T08:48:37.49Z</time></trkpt><trkpt lat="42.0886983" lon="12.6299633"><ele>38.0</ele><time>2026-05-02T08:48:38.49Z</time></trkpt><trkpt lat="42.0889" lon="12.6298017"><ele>38.0</ele><time>2026-05-02T08:48:39.49Z</time></trkpt><trkpt lat="42.0890983" lon="12.6296333"><ele>38.0</ele><time>2026-05-02T08:48:40.49Z</time></trkpt><trkpt lat="42.089305" lon="12.6294717"><ele>38.0</ele><time>2026-05-02T08:48:41.49Z</time></trkpt><trkpt lat="42.0895133" lon="12.629315"><ele>38.0</ele><time>2026-05-02T08:48:42.49Z</time></trkpt><trkpt lat="42.0897183" lon="12.629155"><ele>38.0</ele><time>2026-05-02T08:48:43.49Z</time></trkpt><trkpt lat="42.0899267" lon="12.629"><ele>35.5</ele><time>2026-05-02T08:48:44.49Z</time></trkpt><trkpt lat="42.0901267" lon="12.628845"><ele>33.0</ele><time>2026-05-02T08:48:45.49Z</time></trkpt><trkpt lat="42.0903183" lon="12.6286867"><ele>32.333333333333336</ele><time>2026-05-02T08:48:46.491Z</time></trkpt><trkpt lat="42.0905133" lon="12.6285367"><ele>31.666666666666668</ele><time>2026-05-02T08:48:47.491Z</time></trkpt><trkpt lat="42.0907033" lon="12.6283917"><ele>31.0</ele><time>2026-05-02T08:48:48.49Z</time></trkpt><trkpt lat="42.0908967" lon="12.6282467"><ele>30.666666666666668</ele><time>2026-05-02T08:48:49.49Z</time></trkpt><trkpt lat="42.091085" lon="12.6281"><ele>30.333333333333336</ele><time>2026-05-02T08:48:50.49Z</time></trkpt><trkpt lat="42.0912767" lon="12.6279517"><ele>30.0</ele><time>2026-05-02T08:48:51.49Z</time></trkpt><trkpt lat="42.0914683" lon="12.6277983"><ele>30.0</ele><time>2026-05-02T08:48:52.49Z</time></trkpt><trkpt lat="42.091665" lon="12.6276517"><ele>30.0</ele><time>2026-05-02T08:48:53.49Z</time></trkpt><trkpt lat="42.0918583" lon="12.6274933"><ele>30.0</ele><time>2026-05-02T08:48:54.491Z</time></trkpt><trkpt lat="42.0920483" lon="12.6273383"><ele>30.0</ele><time>2026-05-02T08:48:55.49Z</time></trkpt><trkpt lat="42.09224" lon="12.6271817"><ele>30.0</ele><time>2026-05-02T08:48:56.49Z</time></trkpt><trkpt lat="42.0924433" lon="12.6270383"><ele>29.5</ele><time>2026-05-02T08:48:57.49Z</time></trkpt><trkpt lat="42.09264" lon="12.6268833"><ele>29.0</ele><time>2026-05-02T08:48:58.49Z</time></trkpt><trkpt lat="42.092835" lon="12.626725"><ele>29.0</ele><time>2026-05-02T08:48:59.49Z</time></trkpt><trkpt lat="42.0930333" lon="12.6265667"><ele>29.0</ele><time>2026-05-02T08:49:00.49Z</time></trkpt><trkpt lat="42.0932317" lon="12.6264117"><ele>29.0</ele><time>2026-05-02T08:49:01.49Z</time></trkpt><trkpt lat="42.0934317" lon="12.6262617"><ele>29.0</ele><time>2026-05-02T08:49:02.49Z</time></trkpt><trkpt lat="42.09363" lon="12.62611"><ele>28.5</ele><time>2026-05-02T08:49:03.49Z</time></trkpt><trkpt lat="42.0938317" lon="12.62596"><ele>28.0</ele><time>2026-05-02T08:49:04.49Z</time></trkpt><trkpt lat="42.09403" lon="12.6258017"><ele>29.5</ele><time>2026-05-02T08:49:05.49Z</time></trkpt><trkpt lat="42.0942283" lon="12.6256467"><ele>31.0</ele><time>2026-05-02T08:49:06.491Z</time></trkpt><trkpt lat="42.0944217" lon="12.6254917"><ele>31.0</ele><time>2026-05-02T08:49:07.49Z</time></trkpt><trkpt lat="42.09462" lon="12.6253417"><ele>31.0</ele><time>2026-05-02T08:49:08.49Z</time></trkpt><trkpt lat="42.09482" lon="12.62519"><ele>30.666666666666668</ele><time>2026-05-02T08:49:09.491Z</time></trkpt><trkpt lat="42.0950133" lon="12.6250383"><ele>30.333333333333336</ele><time>2026-05-02T08:49:10.49Z</time></trkpt><trkpt lat="42.09521" lon="12.62489"><ele>30.0</ele><time>2026-05-02T08:49:11.49Z</time></trkpt><trkpt lat="42.0954083" lon="12.6247367"><ele>30.0</ele><time>2026-05-02T08:49:12.49Z</time></trkpt><trkpt lat="42.0956067" lon="12.6245833"><ele>30.0</ele><time>2026-05-02T08:49:13.49Z</time></trkpt><trkpt lat="42.0958017" lon="12.6244317"><ele>28.5</ele><time>2026-05-02T08:49:14.491Z</time></trkpt><trkpt lat="42.096" lon="12.6242917"><ele>27.0</ele><time>2026-05-02T08:49:15.49Z</time></trkpt><trkpt lat="42.0962017" lon="12.6241533"><ele>27.0</ele><time>2026-05-02T08:49:16.49Z</time></trkpt><trkpt lat="42.0963967" lon="12.6240083"><ele>27.0</ele><time>2026-05-02T08:49:17.49Z</time></trkpt><trkpt lat="42.0965983" lon="12.623875"><ele>27.0</ele><time>2026-05-02T08:49:18.49Z</time></trkpt><trkpt lat="42.0967967" lon="12.6237367"><ele>27.0</ele><time>2026-05-02T08:49:19.49Z</time></trkpt><trkpt lat="42.096995" lon="12.6236033"><ele>27.0</ele><time>2026-05-02T08:49:20.49Z</time></trkpt><trkpt lat="42.0972033" lon="12.62347"><ele>27.0</ele><time>2026-05-02T08:49:21.49Z</time></trkpt><trkpt lat="42.0974117" lon="12.6233433"><ele>27.0</ele><time>2026-05-02T08:49:22.49Z</time></trkpt><trkpt lat="42.0976217" lon="12.6232217"><ele>27.5</ele><time>2026-05-02T08:49:23.49Z</time></trkpt><trkpt lat="42.09783" lon="12.6231017"><ele>28.0</ele><time>2026-05-02T08:49:24.49Z</time></trkpt><trkpt lat="42.098045" lon="12.6229883"><ele>28.0</ele><time>2026-05-02T08:49:25.49Z</time></trkpt><trkpt lat="42.098255" lon="12.6228733"><ele>28.0</ele><time>2026-05-02T08:49:26.49Z</time></trkpt><trkpt lat="42.0984683" lon="12.622765"><ele>28.0</ele><time>2026-05-02T08:49:27.49Z</time></trkpt><trkpt lat="42.0986767" lon="12.6226583"><ele>28.0</ele><time>2026-05-02T08:49:28.491Z</time></trkpt><trkpt lat="42.0988933" lon="12.6225567"><ele>28.0</ele><time>2026-05-02T08:49:29.49Z</time></trkpt><trkpt lat="42.0991117" lon="12.6224533"><ele>28.0</ele><time>2026-05-02T08:49:30.49Z</time></trkpt><trkpt lat="42.0993233" lon="12.622355"><ele>28.0</ele><time>2026-05-02T08:49:31.49Z</time></trkpt><trkpt lat="42.0995367" lon="12.6222567"><ele>28.0</ele><time>2026-05-02T08:49:32.49Z</time></trkpt><trkpt lat="42.0997567" lon="12.6221733"><ele>27.333333333333336</ele><time>2026-05-02T08:49:33.49Z</time></trkpt><trkpt lat="42.0999667" lon="12.6220833"><ele>26.666666666666664</ele><time>2026-05-02T08:49:34.49Z</time></trkpt><trkpt lat="42.10018" lon="12.6220083"><ele>26.0</ele><time>2026-05-02T08:49:35.49Z</time></trkpt><trkpt lat="42.1003867" lon="12.6219367"><ele>26.0</ele><time>2026-05-02T08:49:36.49Z</time></trkpt><trkpt lat="42.1005983" lon="12.6218717"><ele>26.0</ele><time>2026-05-02T08:49:37.49Z</time></trkpt><trkpt lat="42.1008117" lon="12.6218083"><ele>26.0</ele><time>2026-05-02T08:49:38.49Z</time></trkpt><trkpt lat="42.1010333" lon="12.621745"><ele>26.0</ele><time>2026-05-02T08:49:39.49Z</time></trkpt><trkpt lat="42.1012517" lon="12.6216883"><ele>26.0</ele><time>2026-05-02T08:49:40.49Z</time></trkpt><trkpt lat="42.101475" lon="12.6216267"><ele>27.0</ele><time>2026-05-02T08:49:41.49Z</time></trkpt><trkpt lat="42.1016967" lon="12.62157"><ele>28.0</ele><time>2026-05-02T08:49:42.49Z</time></trkpt><trkpt lat="42.1019183" lon="12.6215167"><ele>28.0</ele><time>2026-05-02T08:49:43.49Z</time></trkpt><trkpt lat="42.1021433" lon="12.6214617"><ele>28.0</ele><time>2026-05-02T08:49:44.49Z</time></trkpt><trkpt lat="42.1023683" lon="12.6214167"><ele>27.333333333333336</ele><time>2026-05-02T08:49:45.49Z</time></trkpt><trkpt lat="42.10259" lon="12.62138"><ele>26.666666666666664</ele><time>2026-05-02T08:49:46.49Z</time></trkpt><trkpt lat="42.1028133" lon="12.6213333"><ele>26.0</ele><time>2026-05-02T08:49:47.49Z</time></trkpt><trkpt lat="42.1030383" lon="12.6212867"><ele>26.0</ele><time>2026-05-02T08:49:48.49Z</time></trkpt><trkpt lat="42.1032633" lon="12.621245"><ele>26.0</ele><time>2026-05-02T08:49:49.49Z</time></trkpt><trkpt lat="42.1034883" lon="12.6212033"><ele>26.0</ele><time>2026-05-02T08:49:50.49Z</time></trkpt><trkpt lat="42.1037167" lon="12.62116"><ele>26.0</ele><time>2026-05-02T08:49:51.49Z</time></trkpt><trkpt lat="42.103945" lon="12.6211217"><ele>28.0</ele><time>2026-05-02T08:49:52.49Z</time></trkpt><trkpt lat="42.1041733" lon="12.6210833"><ele>30.0</ele><time>2026-05-02T08:49:53.49Z</time></trkpt><trkpt lat="42.104395" lon="12.62104"><ele>30.0</ele><time>2026-05-02T08:49:54.49Z</time></trkpt><trkpt lat="42.104625" lon="12.6209983"><ele>30.0</ele><time>2026-05-02T08:49:55.49Z</time></trkpt><trkpt lat="42.1048467" lon="12.6209517"><ele>28.5</ele><time>2026-05-02T08:49:56.49Z</time></trkpt><trkpt lat="42.1050717" lon="12.62091"><ele>27.0</ele><time>2026-05-02T08:49:57.49Z</time></trkpt><trkpt lat="42.1052967" lon="12.620875"><ele>27.0</ele><time>2026-05-02T08:49:58.491Z</time></trkpt><trkpt lat="42.1055167" lon="12.6208383"><ele>27.0</ele><time>2026-05-02T08:49:59.49Z</time></trkpt><trkpt lat="42.10573" lon="12.6208"><ele>27.0</ele><time>2026-05-02T08:50:00.49Z</time></trkpt><trkpt lat="42.1059367" lon="12.6207667"><ele>26.333333333333336</ele><time>2026-05-02T08:50:01.491Z</time></trkpt><trkpt lat="42.1061417" lon="12.62073"><ele>25.666666666666668</ele><time>2026-05-02T08:50:02.49Z</time></trkpt><trkpt lat="42.10635" lon="12.6206883"><ele>25.0</ele><time>2026-05-02T08:50:03.49Z</time></trkpt><trkpt lat="42.106565" lon="12.620655"><ele>24.333333333333336</ele><time>2026-05-02T08:50:04.491Z</time></trkpt><trkpt lat="42.1067767" lon="12.6206183"><ele>23.666666666666668</ele><time>2026-05-02T08:50:05.49Z</time></trkpt><trkpt lat="42.1069883" lon="12.620585"><ele>23.0</ele><time>2026-05-02T08:50:06.491Z</time></trkpt><trkpt lat="42.1071967" lon="12.620545"><ele>24.0</ele><time>2026-05-02T08:50:07.491Z</time></trkpt><trkpt lat="42.1074133" lon="12.6205067"><ele>25.0</ele><time>2026-05-02T08:50:08.491Z</time></trkpt><trkpt lat="42.107625" lon="12.6204717"><ele>26.0</ele><time>2026-05-02T08:50:09.49Z</time></trkpt><trkpt lat="42.1078533" lon="12.620435"><ele>26.0</ele><time>2026-05-02T08:50:10.49Z</time></trkpt><trkpt lat="42.1080783" lon="12.6203883"><ele>26.0</ele><time>2026-05-02T08:50:11.49Z</time></trkpt><trkpt lat="42.1083017" lon="12.6203483"><ele>26.0</ele><time>2026-05-02T08:50:12.49Z</time></trkpt><trkpt lat="42.108525" lon="12.6203133"><ele>26.0</ele><time>2026-05-02T08:50:13.49Z</time></trkpt><trkpt lat="42.1087533" lon="12.6202683"><ele>26.0</ele><time>2026-05-02T08:50:14.49Z</time></trkpt><trkpt lat="42.10898" lon="12.6202283"><ele>26.0</ele><time>2026-05-02T08:50:15.49Z</time></trkpt><trkpt lat="42.1092067" lon="12.6201867"><ele>26.5</ele><time>2026-05-02T08:50:16.491Z</time></trkpt><trkpt lat="42.109435" lon="12.62015"><ele>27.0</ele><time>2026-05-02T08:50:17.49Z</time></trkpt><trkpt lat="42.1096617" lon="12.6201167"><ele>27.0</ele><time>2026-05-02T08:50:18.49Z</time></trkpt><trkpt lat="42.1098833" lon="12.6200767"><ele>27.0</ele><time>2026-05-02T08:50:19.49Z</time></trkpt><trkpt lat="42.1101033" lon="12.620035"><ele>27.0</ele><time>2026-05-02T08:50:20.49Z</time></trkpt><trkpt lat="42.11033" lon="12.619995"><ele>26.5</ele><time>2026-05-02T08:50:21.49Z</time></trkpt><trkpt lat="42.1105533" lon="12.6199517"><ele>26.0</ele><time>2026-05-02T08:50:22.49Z</time></trkpt><trkpt lat="42.1107767" lon="12.6199133"><ele>26.0</ele><time>2026-05-02T08:50:23.49Z</time></trkpt><trkpt lat="42.110995" lon="12.6198733"><ele>26.0</ele><time>2026-05-02T08:50:24.49Z</time></trkpt><trkpt lat="42.1112117" lon="12.6198383"><ele>26.0</ele><time>2026-05-02T08:50:25.49Z</time></trkpt><trkpt lat="42.11143" lon="12.6198"><ele>26.333333333333332</ele><time>2026-05-02T08:50:26.49Z</time></trkpt><trkpt lat="42.111645" lon="12.6197617"><ele>26.666666666666664</ele><time>2026-05-02T08:50:27.49Z</time></trkpt><trkpt lat="42.1118533" lon="12.6197283"><ele>27.0</ele><time>2026-05-02T08:50:28.49Z</time></trkpt><trkpt lat="42.112055" lon="12.6196867"><ele>27.0</ele><time>2026-05-02T08:50:29.49Z</time></trkpt><trkpt lat="42.11226" lon="12.6196517"><ele>27.0</ele><time>2026-05-02T08:50:30.49Z</time></trkpt><trkpt lat="42.112465" lon="12.6196167"><ele>27.0</ele><time>2026-05-02T08:50:31.49Z</time></trkpt><trkpt lat="42.1126717" lon="12.6195783"><ele>26.666666666666664</ele><time>2026-05-02T08:50:32.49Z</time></trkpt><trkpt lat="42.1128817" lon="12.619545"><ele>26.333333333333332</ele><time>2026-05-02T08:50:33.49Z</time></trkpt><trkpt lat="42.1130917" lon="12.6195033"><ele>26.0</ele><time>2026-05-02T08:50:34.49Z</time></trkpt><trkpt lat="42.1132983" lon="12.61947"><ele>26.0</ele><time>2026-05-02T08:50:35.49Z</time></trkpt><trkpt lat="42.11351" lon="12.619435"><ele>26.0</ele><time>2026-05-02T08:50:36.49Z</time></trkpt><trkpt lat="42.1137217" lon="12.6193967"><ele>26.0</ele><time>2026-05-02T08:50:37.491Z</time></trkpt><trkpt lat="42.1139383" lon="12.6193533"><ele>26.333333333333332</ele><time>2026-05-02T08:50:38.49Z</time></trkpt><trkpt lat="42.11415" lon="12.61931"><ele>26.666666666666664</ele><time>2026-05-02T08:50:39.49Z</time></trkpt><trkpt lat="42.1143683" lon="12.6192683"><ele>27.0</ele><time>2026-05-02T08:50:40.49Z</time></trkpt><trkpt lat="42.1145833" lon="12.6192333"><ele>27.0</ele><time>2026-05-02T08:50:41.49Z</time></trkpt><trkpt lat="42.114805" lon="12.61919"><ele>27.0</ele><time>2026-05-02T08:50:42.49Z</time></trkpt><trkpt lat="42.1150267" lon="12.6191567"><ele>27.0</ele><time>2026-05-02T08:50:43.49Z</time></trkpt><trkpt lat="42.115255" lon="12.6191217"><ele>27.0</ele><time>2026-05-02T08:50:44.49Z</time></trkpt><trkpt lat="42.1154733" lon="12.619085"><ele>27.0</ele><time>2026-05-02T08:50:45.49Z</time></trkpt><trkpt lat="42.1156967" lon="12.6190467"><ele>27.0</ele><time>2026-05-02T08:50:46.49Z</time></trkpt><trkpt lat="42.1159183" lon="12.6190067"><ele>26.0</ele><time>2026-05-02T08:50:47.49Z</time></trkpt><trkpt lat="42.11614" lon="12.6189633"><ele>25.0</ele><time>2026-05-02T08:50:48.49Z</time></trkpt><trkpt lat="42.1163583" lon="12.6189217"><ele>24.0</ele><time>2026-05-02T08:50:49.49Z</time></trkpt><trkpt lat="42.116575" lon="12.6188833"><ele>24.0</ele><time>2026-05-02T08:50:50.49Z</time></trkpt><trkpt lat="42.1167983" lon="12.6188483"><ele>24.0</ele><time>2026-05-02T08:50:51.49Z</time></trkpt><trkpt lat="42.117015" lon="12.6188083"><ele>24.0</ele><time>2026-05-02T08:50:52.491Z</time></trkpt><trkpt lat="42.1172383" lon="12.6187683"><ele>24.333333333333336</ele><time>2026-05-02T08:50:53.49Z</time></trkpt><trkpt lat="42.1174567" lon="12.618725"><ele>24.666666666666668</ele><time>2026-05-02T08:50:54.49Z</time></trkpt><trkpt lat="42.117675" lon="12.6186867"><ele>25.0</ele><time>2026-05-02T08:50:55.491Z</time></trkpt><trkpt lat="42.1178967" lon="12.6186483"><ele>25.0</ele><time>2026-05-02T08:50:56.49Z</time></trkpt><trkpt lat="42.1181267" lon="12.6186167"><ele>25.0</ele><time>2026-05-02T08:50:57.49Z</time></trkpt><trkpt lat="42.1183467" lon="12.618575"><ele>25.5</ele><time>2026-05-02T08:50:58.491Z</time></trkpt><trkpt lat="42.1185683" lon="12.6185367"><ele>26.0</ele><time>2026-05-02T08:50:59.49Z</time></trkpt><trkpt lat="42.1187933" lon="12.618495"><ele>26.0</ele><time>2026-05-02T08:51:00.49Z</time></trkpt><trkpt lat="42.119015" lon="12.6184583"><ele>26.0</ele><time>2026-05-02T08:51:01.49Z</time></trkpt><trkpt lat="42.119235" lon="12.618415"><ele>26.0</ele><time>2026-05-02T08:51:02.49Z</time></trkpt><trkpt lat="42.11946" lon="12.6183733"><ele>26.0</ele><time>2026-05-02T08:51:03.49Z</time></trkpt><trkpt lat="42.1196867" lon="12.618335"><ele>26.0</ele><time>2026-05-02T08:51:04.49Z</time></trkpt><trkpt lat="42.119915" lon="12.6183"><ele>26.0</ele><time>2026-05-02T08:51:05.49Z</time></trkpt><trkpt lat="42.1201383" lon="12.6182617"><ele>26.0</ele><time>2026-05-02T08:51:06.49Z</time></trkpt><trkpt lat="42.1203617" lon="12.6182233"><ele>26.0</ele><time>2026-05-02T08:51:07.49Z</time></trkpt><trkpt lat="42.12059" lon="12.618175"><ele>26.0</ele><time>2026-05-02T08:51:08.49Z</time></trkpt><trkpt lat="42.1208167" lon="12.6181333"><ele>25.5</ele><time>2026-05-02T08:51:09.49Z</time></trkpt><trkpt lat="42.1210367" lon="12.618085"><ele>25.0</ele><time>2026-05-02T08:51:10.49Z</time></trkpt><trkpt lat="42.1212617" lon="12.6180417"><ele>25.0</ele><time>2026-05-02T08:51:11.49Z</time></trkpt><trkpt lat="42.121495" lon="12.618"><ele>25.0</ele><time>2026-05-02T08:51:12.491Z</time></trkpt><trkpt lat="42.121725" lon="12.6179617"><ele>26.0</ele><time>2026-05-02T08:51:13.49Z</time></trkpt><trkpt lat="42.1219567" lon="12.6179267"><ele>27.0</ele><time>2026-05-02T08:51:14.49Z</time></trkpt><trkpt lat="42.1221883" lon="12.6178833"><ele>27.5</ele><time>2026-05-02T08:51:15.49Z</time></trkpt><trkpt lat="42.1224167" lon="12.617835"><ele>28.0</ele><time>2026-05-02T08:51:16.49Z</time></trkpt><trkpt lat="42.12265" lon="12.6177933"><ele>28.5</ele><time>2026-05-02T08:51:17.49Z</time></trkpt><trkpt lat="42.12288" lon="12.61775"><ele>29.0</ele><time>2026-05-02T08:51:18.49Z</time></trkpt><trkpt lat="42.1231067" lon="12.6177133"><ele>29.333333333333332</ele><time>2026-05-02T08:51:19.49Z</time></trkpt><trkpt lat="42.12333" lon="12.6176733"><ele>29.666666666666664</ele><time>2026-05-02T08:51:20.49Z</time></trkpt><trkpt lat="42.1235483" lon="12.6176333"><ele>30.0</ele><time>2026-05-02T08:51:21.49Z</time></trkpt><trkpt lat="42.123765" lon="12.6175933"><ele>30.0</ele><time>2026-05-02T08:51:22.49Z</time></trkpt><trkpt lat="42.1239867" lon="12.6175567"><ele>30.0</ele><time>2026-05-02T08:51:23.49Z</time></trkpt><trkpt lat="42.12421" lon="12.6175167"><ele>30.0</ele><time>2026-05-02T08:51:24.49Z</time></trkpt><trkpt lat="42.1244333" lon="12.6174783"><ele>30.0</ele><time>2026-05-02T08:51:25.49Z</time></trkpt><trkpt lat="42.124655" lon="12.6174383"><ele>30.0</ele><time>2026-05-02T08:51:26.49Z</time></trkpt><trkpt lat="42.1248783" lon="12.6174017"><ele>30.0</ele><time>2026-05-02T08:51:27.49Z</time></trkpt><trkpt lat="42.1251033" lon="12.61737"><ele>30.0</ele><time>2026-05-02T08:51:28.49Z</time></trkpt><trkpt lat="42.1253283" lon="12.6173417"><ele>30.0</ele><time>2026-05-02T08:51:29.49Z</time></trkpt><trkpt lat="42.1255483" lon="12.6173117"><ele>30.0</ele><time>2026-05-02T08:51:30.49Z</time></trkpt><trkpt lat="42.1257683" lon="12.6172817"><ele>28.666666666666664</ele><time>2026-05-02T08:51:31.49Z</time></trkpt><trkpt lat="42.1259867" lon="12.6172567"><ele>27.333333333333332</ele><time>2026-05-02T08:51:32.49Z</time></trkpt><trkpt lat="42.12621" lon="12.6172333"><ele>26.0</ele><time>2026-05-02T08:51:33.49Z</time></trkpt><trkpt lat="42.1264367" lon="12.6172183"><ele>26.0</ele><time>2026-05-02T08:51:34.49Z</time></trkpt><trkpt lat="42.12666" lon="12.6172017"><ele>26.0</ele><time>2026-05-02T08:51:35.49Z</time></trkpt><trkpt lat="42.1268817" lon="12.6171833"><ele>26.0</ele><time>2026-05-02T08:51:36.49Z</time></trkpt><trkpt lat="42.1271083" lon="12.617175"><ele>26.0</ele><time>2026-05-02T08:51:37.49Z</time></trkpt><trkpt lat="42.1273233" lon="12.6171667"><ele>26.0</ele><time>2026-05-02T08:51:38.49Z</time></trkpt><trkpt lat="42.1275417" lon="12.6171633"><ele>26.0</ele><time>2026-05-02T08:51:39.49Z</time></trkpt><trkpt lat="42.12776" lon="12.61716"><ele>25.666666666666664</ele><time>2026-05-02T08:51:40.49Z</time></trkpt><trkpt lat="42.12797" lon="12.6171617"><ele>25.333333333333336</ele><time>2026-05-02T08:51:41.49Z</time></trkpt><trkpt lat="42.1281867" lon="12.6171633"><ele>25.0</ele><time>2026-05-02T08:51:42.49Z</time></trkpt><trkpt lat="42.1284017" lon="12.61716"><ele>25.0</ele><time>2026-05-02T08:51:43.49Z</time></trkpt><trkpt lat="42.128615" lon="12.6171683"><ele>25.0</ele><time>2026-05-02T08:51:44.49Z</time></trkpt><trkpt lat="42.1288283" lon="12.6171817"><ele>25.0</ele><time>2026-05-02T08:51:45.49Z</time></trkpt><trkpt lat="42.1290417" lon="12.61719"><ele>24.666666666666668</ele><time>2026-05-02T08:51:46.49Z</time></trkpt><trkpt lat="42.12926" lon="12.61721"><ele>24.333333333333336</ele><time>2026-05-02T08:51:47.491Z</time></trkpt><trkpt lat="42.129475" lon="12.6172267"><ele>24.0</ele><time>2026-05-02T08:51:48.49Z</time></trkpt><trkpt lat="42.1296883" lon="12.6172517"><ele>23.666666666666668</ele><time>2026-05-02T08:51:49.49Z</time></trkpt><trkpt lat="42.129905" lon="12.6172717"><ele>23.333333333333336</ele><time>2026-05-02T08:51:50.49Z</time></trkpt><trkpt lat="42.1301217" lon="12.6172983"><ele>23.0</ele><time>2026-05-02T08:51:51.49Z</time></trkpt><trkpt lat="42.130335" lon="12.6173267"><ele>23.0</ele><time>2026-05-02T08:51:52.49Z</time></trkpt><trkpt lat="42.13055" lon="12.617355"><ele>23.0</ele><time>2026-05-02T08:51:53.49Z</time></trkpt><trkpt lat="42.1307683" lon="12.6173933"><ele>23.0</ele><time>2026-05-02T08:51:54.49Z</time></trkpt><trkpt lat="42.1309833" lon="12.6174333"><ele>23.666666666666668</ele><time>2026-05-02T08:51:55.49Z</time></trkpt><trkpt lat="42.1311967" lon="12.6174733"><ele>24.333333333333336</ele><time>2026-05-02T08:51:56.49Z</time></trkpt><trkpt lat="42.1314033" lon="12.6175133"><ele>25.0</ele><time>2026-05-02T08:51:57.49Z</time></trkpt><trkpt lat="42.1316083" lon="12.6175533"><ele>25.0</ele><time>2026-05-02T08:51:58.49Z</time></trkpt><trkpt lat="42.1318183" lon="12.6175983"><ele>25.0</ele><time>2026-05-02T08:51:59.49Z</time></trkpt><trkpt lat="42.1320233" lon="12.6176467"><ele>25.0</ele><time>2026-05-02T08:52:00.49Z</time></trkpt><trkpt lat="42.1322333" lon="12.6177017"><ele>24.666666666666668</ele><time>2026-05-02T08:52:01.49Z</time></trkpt><trkpt lat="42.1324433" lon="12.6177583"><ele>24.333333333333336</ele><time>2026-05-02T08:52:02.49Z</time></trkpt><trkpt lat="42.1326483" lon="12.6178217"><ele>24.0</ele><time>2026-05-02T08:52:03.49Z</time></trkpt><trkpt lat="42.1328533" lon="12.61788"><ele>24.333333333333336</ele><time>2026-05-02T08:52:04.49Z</time></trkpt><trkpt lat="42.1330667" lon="12.617945"><ele>24.666666666666668</ele><time>2026-05-02T08:52:05.49Z</time></trkpt><trkpt lat="42.133275" lon="12.6180183"><ele>25.0</ele><time>2026-05-02T08:52:06.49Z</time></trkpt><trkpt lat="42.1334833" lon="12.6180867"><ele>25.0</ele><time>2026-05-02T08:52:07.49Z</time></trkpt><trkpt lat="42.1336917" lon="12.6181617"><ele>25.0</ele><time>2026-05-02T08:52:08.49Z</time></trkpt><trkpt lat="42.1338983" lon="12.6182367"><ele>25.0</ele><time>2026-05-02T08:52:09.49Z</time></trkpt><trkpt lat="42.1341083" lon="12.6183067"><ele>25.333333333333336</ele><time>2026-05-02T08:52:10.49Z</time></trkpt><trkpt lat="42.1343233" lon="12.6183867"><ele>25.666666666666664</ele><time>2026-05-02T08:52:11.49Z</time></trkpt><trkpt lat="42.13454" lon="12.61847"><ele>26.0</ele><time>2026-05-02T08:52:12.49Z</time></trkpt><trkpt lat="42.1347583" lon="12.6185517"><ele>25.5</ele><time>2026-05-02T08:52:13.49Z</time></trkpt><trkpt lat="42.1349767" lon="12.61864"><ele>25.0</ele><time>2026-05-02T08:52:14.49Z</time></trkpt><trkpt lat="42.1351933" lon="12.6187267"><ele>25.0</ele><time>2026-05-02T08:52:15.49Z</time></trkpt><trkpt lat="42.135405" lon="12.6188067"><ele>25.0</ele><time>2026-05-02T08:52:16.49Z</time></trkpt><trkpt lat="42.1356283" lon="12.618895"><ele>25.5</ele><time>2026-05-02T08:52:17.49Z</time></trkpt><trkpt lat="42.135845" lon="12.6189867"><ele>26.0</ele><time>2026-05-02T08:52:18.49Z</time></trkpt><trkpt lat="42.13606" lon="12.619075"><ele>26.0</ele><time>2026-05-02T08:52:19.49Z</time></trkpt><trkpt lat="42.1362817" lon="12.6191717"><ele>26.0</ele><time>2026-05-02T08:52:20.49Z</time></trkpt><trkpt lat="42.13649" lon="12.619265"><ele>26.0</ele><time>2026-05-02T08:52:21.49Z</time></trkpt><trkpt lat="42.1367017" lon="12.619355"><ele>26.0</ele><time>2026-05-02T08:52:22.49Z</time></trkpt><trkpt lat="42.1369183" lon="12.6194433"><ele>26.0</ele><time>2026-05-02T08:52:23.49Z</time></trkpt><trkpt lat="42.137135" lon="12.6195317"><ele>25.333333333333332</ele><time>2026-05-02T08:52:24.49Z</time></trkpt><trkpt lat="42.1373483" lon="12.6196217"><ele>24.666666666666664</ele><time>2026-05-02T08:52:25.49Z</time></trkpt><trkpt lat="42.137555" lon="12.619715"><ele>24.0</ele><time>2026-05-02T08:52:26.49Z</time></trkpt><trkpt lat="42.1377583" lon="12.6198033"><ele>24.0</ele><time>2026-05-02T08:52:27.49Z</time></trkpt><trkpt lat="42.1379633" lon="12.6198867"><ele>24.0</ele><time>2026-05-02T08:52:28.49Z</time></trkpt><trkpt lat="42.1381667" lon="12.6199667"><ele>24.0</ele><time>2026-05-02T08:52:29.49Z</time></trkpt><trkpt lat="42.1383617" lon="12.620045"><ele>24.0</ele><time>2026-05-02T08:52:30.49Z</time></trkpt><trkpt lat="42.1385567" lon="12.6201267"><ele>24.0</ele><time>2026-05-02T08:52:31.49Z</time></trkpt><trkpt lat="42.138745" lon="12.62021"><ele>24.0</ele><time>2026-05-02T08:52:32.49Z</time></trkpt><trkpt lat="42.1389333" lon="12.6202867"><ele>24.0</ele><time>2026-05-02T08:52:33.49Z</time></trkpt><trkpt lat="42.1391267" lon="12.6203633"><ele>24.0</ele><time>2026-05-02T08:52:34.49Z</time></trkpt><trkpt lat="42.13932" lon="12.620445"><ele>24.0</ele><time>2026-05-02T08:52:35.49Z</time></trkpt><trkpt lat="42.1395167" lon="12.6205283"><ele>24.0</ele><time>2026-05-02T08:52:36.49Z</time></trkpt><trkpt lat="42.139715" lon="12.6206133"><ele>24.0</ele><time>2026-05-02T08:52:37.49Z</time></trkpt><trkpt lat="42.1399117" lon="12.6207"><ele>24.0</ele><time>2026-05-02T08:52:38.49Z</time></trkpt><trkpt lat="42.1401017" lon="12.620785"><ele>24.333333333333336</ele><time>2026-05-02T08:52:39.49Z</time></trkpt><trkpt lat="42.1403083" lon="12.62087"><ele>24.666666666666668</ele><time>2026-05-02T08:52:40.49Z</time></trkpt><trkpt lat="42.1405117" lon="12.6209583"><ele>25.0</ele><time>2026-05-02T08:52:41.491Z</time></trkpt><trkpt lat="42.1407217" lon="12.621045"><ele>25.0</ele><time>2026-05-02T08:52:42.491Z</time></trkpt><trkpt lat="42.140925" lon="12.6211267"><ele>25.0</ele><time>2026-05-02T08:52:43.49Z</time></trkpt><trkpt lat="42.141135" lon="12.62122"><ele>25.0</ele><time>2026-05-02T08:52:44.49Z</time></trkpt><trkpt lat="42.14134" lon="12.6213083"><ele>25.0</ele><time>2026-05-02T08:52:45.49Z</time></trkpt><trkpt lat="42.14155" lon="12.6214017"><ele>25.0</ele><time>2026-05-02T08:52:46.49Z</time></trkpt><trkpt lat="42.1417583" lon="12.621485"><ele>25.0</ele><time>2026-05-02T08:52:47.49Z</time></trkpt><trkpt lat="42.1419717" lon="12.6215717"><ele>25.0</ele><time>2026-05-02T08:52:48.49Z</time></trkpt><trkpt lat="42.1421833" lon="12.6216567"><ele>25.0</ele><time>2026-05-02T08:52:49.49Z</time></trkpt><trkpt lat="42.1423967" lon="12.6217467"><ele>25.0</ele><time>2026-05-02T08:52:50.49Z</time></trkpt><trkpt lat="42.1426117" lon="12.6218367"><ele>25.0</ele><time>2026-05-02T08:52:51.49Z</time></trkpt><trkpt lat="42.1428217" lon="12.62193"><ele>25.0</ele><time>2026-05-02T08:52:52.49Z</time></trkpt><trkpt lat="42.1430367" lon="12.62202"><ele>25.0</ele><time>2026-05-02T08:52:53.49Z</time></trkpt><trkpt lat="42.143255" lon="12.622105"><ele>25.5</ele><time>2026-05-02T08:52:54.49Z</time></trkpt><trkpt lat="42.1434717" lon="12.622195"><ele>26.0</ele><time>2026-05-02T08:52:55.491Z</time></trkpt><trkpt lat="42.143685" lon="12.6222883"><ele>26.0</ele><time>2026-05-02T08:52:56.49Z</time></trkpt><trkpt lat="42.1439" lon="12.6223817"><ele>26.0</ele><time>2026-05-02T08:52:57.491Z</time></trkpt><trkpt lat="42.144115" lon="12.6224683"><ele>26.333333333333332</ele><time>2026-05-02T08:52:58.49Z</time></trkpt><trkpt lat="42.1443267" lon="12.6225583"><ele>26.666666666666664</ele><time>2026-05-02T08:52:59.49Z</time></trkpt><trkpt lat="42.144535" lon="12.6226467"><ele>27.0</ele><time>2026-05-02T08:53:00.491Z</time></trkpt><trkpt lat="42.1447467" lon="12.6227383"><ele>26.666666666666664</ele><time>2026-05-02T08:53:01.49Z</time></trkpt><trkpt lat="42.1449617" lon="12.6228267"><ele>26.333333333333332</ele><time>2026-05-02T08:53:02.49Z</time></trkpt><trkpt lat="42.1451717" lon="12.622915"><ele>26.0</ele><time>2026-05-02T08:53:03.49Z</time></trkpt><trkpt lat="42.1453867" lon="12.6230017"><ele>26.0</ele><time>2026-05-02T08:53:04.49Z</time></trkpt><trkpt lat="42.1455917" lon="12.62309"><ele>26.0</ele><time>2026-05-02T08:53:05.49Z</time></trkpt><trkpt lat="42.1458" lon="12.6231817"><ele>26.0</ele><time>2026-05-02T08:53:06.491Z</time></trkpt><trkpt lat="42.1460083" lon="12.6232733"><ele>26.333333333333332</ele><time>2026-05-02T08:53:07.49Z</time></trkpt><trkpt lat="42.1462183" lon="12.6233667"><ele>26.666666666666664</ele><time>2026-05-02T08:53:08.491Z</time></trkpt><trkpt lat="42.1464283" lon="12.6234517"><ele>27.0</ele><time>2026-05-02T08:53:09.49Z</time></trkpt><trkpt lat="42.146635" lon="12.623535"><ele>27.0</ele><time>2026-05-02T08:53:10.49Z</time></trkpt><trkpt lat="42.1468417" lon="12.6236183"><ele>27.0</ele><time>2026-05-02T08:53:11.49Z</time></trkpt><trkpt lat="42.1470483" lon="12.6237"><ele>27.0</ele><time>2026-05-02T08:53:12.49Z</time></trkpt><trkpt lat="42.147255" lon="12.6237783"><ele>26.666666666666664</ele><time>2026-05-02T08:53:13.49Z</time></trkpt><trkpt lat="42.1474617" lon="12.623855"><ele>26.333333333333332</ele><time>2026-05-02T08:53:14.49Z</time></trkpt><trkpt lat="42.147665" lon="12.623935"><ele>26.0</ele><time>2026-05-02T08:53:15.49Z</time></trkpt><trkpt lat="42.1478717" lon="12.6240133"><ele>26.0</ele><time>2026-05-02T08:53:16.49Z</time></trkpt><trkpt lat="42.1480817" lon="12.6240883"><ele>26.0</ele><time>2026-05-02T08:53:17.49Z</time></trkpt><trkpt lat="42.1482867" lon="12.62416"><ele>26.0</ele><time>2026-05-02T08:53:18.49Z</time></trkpt><trkpt lat="42.1484933" lon="12.624225"><ele>26.0</ele><time>2026-05-02T08:53:19.49Z</time></trkpt><trkpt lat="42.1487" lon="12.62429"><ele>26.0</ele><time>2026-05-02T08:53:20.49Z</time></trkpt><trkpt lat="42.148915" lon="12.62435"><ele>26.0</ele><time>2026-05-02T08:53:21.49Z</time></trkpt><trkpt lat="42.1491267" lon="12.6244083"><ele>26.0</ele><time>2026-05-02T08:53:22.49Z</time></trkpt><trkpt lat="42.1493383" lon="12.6244617"><ele>26.0</ele><time>2026-05-02T08:53:23.49Z</time></trkpt><trkpt lat="42.149555" lon="12.624515"><ele>26.0</ele><time>2026-05-02T08:53:24.49Z</time></trkpt><trkpt lat="42.1497733" lon="12.62457"><ele>26.333333333333332</ele><time>2026-05-02T08:53:25.49Z</time></trkpt><trkpt lat="42.1499883" lon="12.6246183"><ele>26.666666666666664</ele><time>2026-05-02T08:53:26.49Z</time></trkpt><trkpt lat="42.150205" lon="12.6246633"><ele>27.0</ele><time>2026-05-02T08:53:27.49Z</time></trkpt><trkpt lat="42.1504217" lon="12.6247033"><ele>27.0</ele><time>2026-05-02T08:53:28.49Z</time></trkpt><trkpt lat="42.1506417" lon="12.62474"><ele>27.0</ele><time>2026-05-02T08:53:29.49Z</time></trkpt><trkpt lat="42.1508633" lon="12.6247683"><ele>27.0</ele><time>2026-05-02T08:53:30.49Z</time></trkpt><trkpt lat="42.1510867" lon="12.6247867"><ele>27.5</ele><time>2026-05-02T08:53:31.49Z</time></trkpt><trkpt lat="42.1513133" lon="12.6248067"><ele>28.0</ele><time>2026-05-02T08:53:32.49Z</time></trkpt><trkpt lat="42.1515417" lon="12.624825"><ele>28.0</ele><time>2026-05-02T08:53:33.49Z</time></trkpt><trkpt lat="42.151765" lon="12.6248333"><ele>28.0</ele><time>2026-05-02T08:53:34.49Z</time></trkpt><trkpt lat="42.1519917" lon="12.6248367"><ele>28.0</ele><time>2026-05-02T08:53:35.49Z</time></trkpt><trkpt lat="42.1522183" lon="12.6248383"><ele>28.0</ele><time>2026-05-02T08:53:36.49Z</time></trkpt><trkpt lat="42.152445" lon="12.6248317"><ele>27.5</ele><time>2026-05-02T08:53:37.491Z</time></trkpt><trkpt lat="42.15267" lon="12.6248217"><ele>27.0</ele><time>2026-05-02T08:53:38.49Z</time></trkpt><trkpt lat="42.1528983" lon="12.624805"><ele>27.0</ele><time>2026-05-02T08:53:39.49Z</time></trkpt><trkpt lat="42.1531183" lon="12.6247817"><ele>27.0</ele><time>2026-05-02T08:53:40.49Z</time></trkpt><trkpt lat="42.1533433" lon="12.6247567"><ele>27.0</ele><time>2026-05-02T08:53:41.49Z</time></trkpt><trkpt lat="42.1535683" lon="12.62473"><ele>29.0</ele><time>2026-05-02T08:53:42.49Z</time></trkpt><trkpt lat="42.1538" lon="12.62469"><ele>31.0</ele><time>2026-05-02T08:53:43.49Z</time></trkpt><trkpt lat="42.15402" lon="12.6246467"><ele>32.0</ele><time>2026-05-02T08:53:44.49Z</time></trkpt><trkpt lat="42.1542467" lon="12.6246017"><ele>33.0</ele><time>2026-05-02T08:53:45.49Z</time></trkpt><trkpt lat="42.1544733" lon="12.6245567"><ele>33.0</ele><time>2026-05-02T08:53:46.49Z</time></trkpt><trkpt lat="42.1547" lon="12.6244967"><ele>33.0</ele><time>2026-05-02T08:53:47.49Z</time></trkpt><trkpt lat="42.1549233" lon="12.6244333"><ele>35.5</ele><time>2026-05-02T08:53:48.49Z</time></trkpt><trkpt lat="42.1551467" lon="12.6243683"><ele>38.0</ele><time>2026-05-02T08:53:49.49Z</time></trkpt><trkpt lat="42.1553683" lon="12.6242967"><ele>38.0</ele><time>2026-05-02T08:53:50.49Z</time></trkpt><trkpt lat="42.1555883" lon="12.624225"><ele>38.0</ele><time>2026-05-02T08:53:51.49Z</time></trkpt><trkpt lat="42.1558067" lon="12.6241367"><ele>38.5</ele><time>2026-05-02T08:53:52.49Z</time></trkpt><trkpt lat="42.1560217" lon="12.6240483"><ele>39.0</ele><time>2026-05-02T08:53:53.49Z</time></trkpt><trkpt lat="42.1562383" lon="12.6239633"><ele>39.0</ele><time>2026-05-02T08:53:54.49Z</time></trkpt><trkpt lat="42.15645" lon="12.623865"><ele>39.0</ele><time>2026-05-02T08:53:55.49Z</time></trkpt><trkpt lat="42.1566617" lon="12.6237667"><ele>39.0</ele><time>2026-05-02T08:53:56.49Z</time></trkpt><trkpt lat="42.1568783" lon="12.6236683"><ele>40.0</ele><time>2026-05-02T08:53:57.49Z</time></trkpt><trkpt lat="42.1570883" lon="12.6235567"><ele>41.0</ele><time>2026-05-02T08:53:58.49Z</time></trkpt><trkpt lat="42.1572917" lon="12.6234433"><ele>42.0</ele><time>2026-05-02T08:53:59.49Z</time></trkpt><trkpt lat="42.1574983" lon="12.623325"><ele>42.5</ele><time>2026-05-02T08:54:00.49Z</time></trkpt><trkpt lat="42.1577017" lon="12.6231983"><ele>43.0</ele><time>2026-05-02T08:54:01.49Z</time></trkpt><trkpt lat="42.157905" lon="12.6230617"><ele>43.0</ele><time>2026-05-02T08:54:02.49Z</time></trkpt><trkpt lat="42.1581" lon="12.622925"><ele>43.0</ele><time>2026-05-02T08:54:03.49Z</time></trkpt><trkpt lat="42.158295" lon="12.6227883"><ele>43.0</ele><time>2026-05-02T08:54:04.49Z</time></trkpt><trkpt lat="42.158485" lon="12.6226517"><ele>43.333333333333336</ele><time>2026-05-02T08:54:05.49Z</time></trkpt><trkpt lat="42.1586783" lon="12.622515"><ele>43.666666666666664</ele><time>2026-05-02T08:54:06.49Z</time></trkpt><trkpt lat="42.1588667" lon="12.622375"><ele>44.0</ele><time>2026-05-02T08:54:07.49Z</time></trkpt><trkpt lat="42.159055" lon="12.6222333"><ele>44.33333333333333</ele><time>2026-05-02T08:54:08.49Z</time></trkpt><trkpt lat="42.1592417" lon="12.6220917"><ele>44.666666666666664</ele><time>2026-05-02T08:54:09.49Z</time></trkpt><trkpt lat="42.1594267" lon="12.621945"><ele>45.0</ele><time>2026-05-02T08:54:10.49Z</time></trkpt><trkpt lat="42.159605" lon="12.6218"><ele>45.666666666666664</ele><time>2026-05-02T08:54:11.49Z</time></trkpt><trkpt lat="42.159785" lon="12.621645"><ele>46.33333333333333</ele><time>2026-05-02T08:54:12.49Z</time></trkpt><trkpt lat="42.1599617" lon="12.6214917"><ele>47.0</ele><time>2026-05-02T08:54:13.491Z</time></trkpt><trkpt lat="42.16013" lon="12.6213317"><ele>47.0</ele><time>2026-05-02T08:54:14.49Z</time></trkpt><trkpt lat="42.1602983" lon="12.6211667"><ele>47.0</ele><time>2026-05-02T08:54:15.49Z</time></trkpt><trkpt lat="42.1604733" lon="12.6210133"><ele>47.0</ele><time>2026-05-02T08:54:16.49Z</time></trkpt><trkpt lat="42.1606383" lon="12.620855"><ele>48.0</ele><time>2026-05-02T08:54:17.491Z</time></trkpt><trkpt lat="42.1608067" lon="12.6207017"><ele>49.0</ele><time>2026-05-02T08:54:18.49Z</time></trkpt><trkpt lat="42.160975" lon="12.6205467"><ele>50.0</ele><time>2026-05-02T08:54:19.49Z</time></trkpt><trkpt lat="42.1611383" lon="12.62039"><ele>50.66666666666667</ele><time>2026-05-02T08:54:20.491Z</time></trkpt><trkpt lat="42.1613017" lon="12.6202267"><ele>51.33333333333333</ele><time>2026-05-02T08:54:21.49Z</time></trkpt><trkpt lat="42.1614683" lon="12.6200667"><ele>52.0</ele><time>2026-05-02T08:54:22.49Z</time></trkpt><trkpt lat="42.161635" lon="12.6199033"><ele>52.0</ele><time>2026-05-02T08:54:23.491Z</time></trkpt><trkpt lat="42.1618017" lon="12.6197417"><ele>52.0</ele><time>2026-05-02T08:54:24.49Z</time></trkpt><trkpt lat="42.1619717" lon="12.6195817"><ele>52.0</ele><time>2026-05-02T08:54:25.49Z</time></trkpt><trkpt lat="42.162145" lon="12.6194183"><ele>52.666666666666664</ele><time>2026-05-02T08:54:26.49Z</time></trkpt><trkpt lat="42.162315" lon="12.6192417"><ele>53.33333333333333</ele><time>2026-05-02T08:54:27.49Z</time></trkpt><trkpt lat="42.16249" lon="12.6190733"><ele>54.0</ele><time>2026-05-02T08:54:28.49Z</time></trkpt><trkpt lat="42.162665" lon="12.6189"><ele>54.33333333333333</ele><time>2026-05-02T08:54:29.491Z</time></trkpt><trkpt lat="42.1628433" lon="12.618725"><ele>54.666666666666664</ele><time>2026-05-02T08:54:30.49Z</time></trkpt><trkpt lat="42.1630183" lon="12.6185433"><ele>55.0</ele><time>2026-05-02T08:54:31.49Z</time></trkpt><trkpt lat="42.1632017" lon="12.6183667"><ele>55.5</ele><time>2026-05-02T08:54:32.491Z</time></trkpt><trkpt lat="42.1633833" lon="12.6181833"><ele>56.0</ele><time>2026-05-02T08:54:33.49Z</time></trkpt><trkpt lat="42.1635717" lon="12.6180033"><ele>56.0</ele><time>2026-05-02T08:54:34.49Z</time></trkpt><trkpt lat="42.16376" lon="12.6178283"><ele>56.0</ele><time>2026-05-02T08:54:35.49Z</time></trkpt><trkpt lat="42.1639417" lon="12.6176483"><ele>56.66666666666667</ele><time>2026-05-02T08:54:36.49Z</time></trkpt><trkpt lat="42.1641267" lon="12.617475"><ele>57.33333333333333</ele><time>2026-05-02T08:54:37.49Z</time></trkpt><trkpt lat="42.1643083" lon="12.6173"><ele>58.0</ele><time>2026-05-02T08:54:38.49Z</time></trkpt><trkpt lat="42.16449" lon="12.6171233"><ele>58.33333333333333</ele><time>2026-05-02T08:54:39.49Z</time></trkpt><trkpt lat="42.1646633" lon="12.6169433"><ele>58.66666666666667</ele><time>2026-05-02T08:54:40.49Z</time></trkpt><trkpt lat="42.16484" lon="12.6167683"><ele>59.0</ele><time>2026-05-02T08:54:41.49Z</time></trkpt><trkpt lat="42.1650217" lon="12.6165933"><ele>59.0</ele><time>2026-05-02T08:54:42.49Z</time></trkpt><trkpt lat="42.1652033" lon="12.616415"><ele>59.0</ele><time>2026-05-02T08:54:43.49Z</time></trkpt><trkpt lat="42.1653817" lon="12.6162333"><ele>59.0</ele><time>2026-05-02T08:54:44.49Z</time></trkpt><trkpt lat="42.1655583" lon="12.6160583"><ele>59.0</ele><time>2026-05-02T08:54:45.49Z</time></trkpt><trkpt lat="42.1657333" lon="12.6158867"><ele>59.0</ele><time>2026-05-02T08:54:46.49Z</time></trkpt><trkpt lat="42.1659083" lon="12.615715"><ele>59.0</ele><time>2026-05-02T08:54:47.49Z</time></trkpt><trkpt lat="42.16608" lon="12.6155383"><ele>59.0</ele><time>2026-05-02T08:54:48.49Z</time></trkpt><trkpt lat="42.1662533" lon="12.6153633"><ele>59.0</ele><time>2026-05-02T08:54:49.49Z</time></trkpt><trkpt lat="42.1664283" lon="12.6152"><ele>59.0</ele><time>2026-05-02T08:54:50.49Z</time></trkpt><trkpt lat="42.1666033" lon="12.6150333"><ele>59.66666666666667</ele><time>2026-05-02T08:54:51.49Z</time></trkpt><trkpt lat="42.1667817" lon="12.6148633"><ele>60.33333333333333</ele><time>2026-05-02T08:54:52.49Z</time></trkpt><trkpt lat="42.1669617" lon="12.6146883"><ele>61.0</ele><time>2026-05-02T08:54:53.49Z</time></trkpt><trkpt lat="42.1671433" lon="12.61452"><ele>61.33333333333333</ele><time>2026-05-02T08:54:54.491Z</time></trkpt><trkpt lat="42.1673183" lon="12.614345"><ele>61.66666666666667</ele><time>2026-05-02T08:54:55.49Z</time></trkpt><trkpt lat="42.167495" lon="12.6141683"><ele>62.0</ele><time>2026-05-02T08:54:56.491Z</time></trkpt><trkpt lat="42.1676733" lon="12.613995"><ele>62.0</ele><time>2026-05-02T08:54:57.49Z</time></trkpt><trkpt lat="42.1678483" lon="12.6138233"><ele>62.0</ele><time>2026-05-02T08:54:58.49Z</time></trkpt><trkpt lat="42.1680167" lon="12.6136483"><ele>62.0</ele><time>2026-05-02T08:54:59.49Z</time></trkpt><trkpt lat="42.1681867" lon="12.6134717"><ele>62.333333333333336</ele><time>2026-05-02T08:55:00.49Z</time></trkpt><trkpt lat="42.1683667" lon="12.613305"><ele>62.66666666666667</ele><time>2026-05-02T08:55:01.49Z</time></trkpt><trkpt lat="42.1685417" lon="12.6131317"><ele>63.0</ele><time>2026-05-02T08:55:02.49Z</time></trkpt><trkpt lat="42.16872" lon="12.6129667"><ele>63.33333333333333</ele><time>2026-05-02T08:55:03.49Z</time></trkpt><trkpt lat="42.1688883" lon="12.61279"><ele>63.666666666666664</ele><time>2026-05-02T08:55:04.49Z</time></trkpt><trkpt lat="42.1690583" lon="12.6126217"><ele>64.0</ele><time>2026-05-02T08:55:05.49Z</time></trkpt><trkpt lat="42.16923" lon="12.612455"><ele>64.33333333333333</ele><time>2026-05-02T08:55:06.49Z</time></trkpt><trkpt lat="42.1694" lon="12.612285"><ele>64.66666666666667</ele><time>2026-05-02T08:55:07.49Z</time></trkpt><trkpt lat="42.1695733" lon="12.6121167"><ele>65.0</ele><time>2026-05-02T08:55:08.49Z</time></trkpt><trkpt lat="42.1697467" lon="12.6119483"><ele>65.0</ele><time>2026-05-02T08:55:09.49Z</time></trkpt><trkpt lat="42.1699183" lon="12.6117883"><ele>65.0</ele><time>2026-05-02T08:55:10.49Z</time></trkpt><trkpt lat="42.17009" lon="12.6116167"><ele>65.0</ele><time>2026-05-02T08:55:11.49Z</time></trkpt><trkpt lat="42.170265" lon="12.61145"><ele>65.0</ele><time>2026-05-02T08:55:12.49Z</time></trkpt><trkpt lat="42.1704367" lon="12.61128"><ele>65.0</ele><time>2026-05-02T08:55:13.49Z</time></trkpt><trkpt lat="42.1706117" lon="12.6111117"><ele>65.0</ele><time>2026-05-02T08:55:14.49Z</time></trkpt><trkpt lat="42.1707883" lon="12.6109417"><ele>65.0</ele><time>2026-05-02T08:55:15.49Z</time></trkpt><trkpt lat="42.17096" lon="12.610765"><ele>65.0</ele><time>2026-05-02T08:55:16.49Z</time></trkpt><trkpt lat="42.171135" lon="12.6105867"><ele>65.0</ele><time>2026-05-02T08:55:17.49Z</time></trkpt><trkpt lat="42.1713183" lon="12.6104133"><ele>65.66666666666667</ele><time>2026-05-02T08:55:18.49Z</time></trkpt><trkpt lat="42.1715033" lon="12.61024"><ele>66.33333333333333</ele><time>2026-05-02T08:55:19.49Z</time></trkpt><trkpt lat="42.1716783" lon="12.6100583"><ele>67.0</ele><time>2026-05-02T08:55:20.491Z</time></trkpt><trkpt lat="42.1718633" lon="12.6098783"><ele>67.0</ele><time>2026-05-02T08:55:21.49Z</time></trkpt><trkpt lat="42.1720383" lon="12.6097017"><ele>67.0</ele><time>2026-05-02T08:55:22.49Z</time></trkpt><trkpt lat="42.1722183" lon="12.609525"><ele>67.0</ele><time>2026-05-02T08:55:23.49Z</time></trkpt><trkpt lat="42.1723967" lon="12.6093467"><ele>67.0</ele><time>2026-05-02T08:55:24.49Z</time></trkpt><trkpt lat="42.1725767" lon="12.6091733"><ele>67.0</ele><time>2026-05-02T08:55:25.49Z</time></trkpt><trkpt lat="42.1727583" lon="12.6089933"><ele>67.0</ele><time>2026-05-02T08:55:26.491Z</time></trkpt><trkpt lat="42.1729383" lon="12.6088117"><ele>67.0</ele><time>2026-05-02T08:55:27.49Z</time></trkpt><trkpt lat="42.1731217" lon="12.6086283"><ele>67.0</ele><time>2026-05-02T08:55:28.49Z</time></trkpt><trkpt lat="42.1733067" lon="12.60845"><ele>66.0</ele><time>2026-05-02T08:55:29.491Z</time></trkpt><trkpt lat="42.1734883" lon="12.6082783"><ele>65.0</ele><time>2026-05-02T08:55:30.49Z</time></trkpt><trkpt lat="42.1736667" lon="12.6081017"><ele>64.0</ele><time>2026-05-02T08:55:31.49Z</time></trkpt><trkpt lat="42.1738367" lon="12.6079333"><ele>64.33333333333333</ele><time>2026-05-02T08:55:32.49Z</time></trkpt><trkpt lat="42.1740133" lon="12.6077667"><ele>64.66666666666667</ele><time>2026-05-02T08:55:33.49Z</time></trkpt><trkpt lat="42.1741917" lon="12.6075967"><ele>65.0</ele><time>2026-05-02T08:55:34.49Z</time></trkpt><trkpt lat="42.1743667" lon="12.6074183"><ele>65.0</ele><time>2026-05-02T08:55:35.49Z</time></trkpt><trkpt lat="42.17454" lon="12.6072383"><ele>65.0</ele><time>2026-05-02T08:55:36.49Z</time></trkpt><trkpt lat="42.1747183" lon="12.60706"><ele>65.0</ele><time>2026-05-02T08:55:37.49Z</time></trkpt><trkpt lat="42.1748983" lon="12.606885"><ele>63.5</ele><time>2026-05-02T08:55:38.49Z</time></trkpt><trkpt lat="42.17508" lon="12.60671"><ele>62.0</ele><time>2026-05-02T08:55:39.49Z</time></trkpt><trkpt lat="42.17526" lon="12.6065117"><ele>62.0</ele><time>2026-05-02T08:55:40.49Z</time></trkpt><trkpt lat="42.1754283" lon="12.6063383"><ele>62.0</ele><time>2026-05-02T08:55:41.49Z</time></trkpt><trkpt lat="42.175605" lon="12.6061583"><ele>62.0</ele><time>2026-05-02T08:55:42.49Z</time></trkpt><trkpt lat="42.1757833" lon="12.6059917"><ele>57.0</ele><time>2026-05-02T08:55:43.49Z</time></trkpt><trkpt lat="42.17596" lon="12.6058167"><ele>52.0</ele><time>2026-05-02T08:55:44.49Z</time></trkpt><trkpt lat="42.1761383" lon="12.6056483"><ele>47.0</ele><time>2026-05-02T08:55:45.49Z</time></trkpt><trkpt lat="42.1763117" lon="12.6054733"><ele>48.33333333333333</ele><time>2026-05-02T08:55:46.49Z</time></trkpt><trkpt lat="42.1764883" lon="12.60531"><ele>49.666666666666664</ele><time>2026-05-02T08:55:47.49Z</time></trkpt><trkpt lat="42.1766667" lon="12.6051417"><ele>51.0</ele><time>2026-05-02T08:55:48.49Z</time></trkpt><trkpt lat="42.1768433" lon="12.6049633"><ele>54.66666666666667</ele><time>2026-05-02T08:55:49.49Z</time></trkpt><trkpt lat="42.17702" lon="12.6047917"><ele>58.333333333333336</ele><time>2026-05-02T08:55:50.49Z</time></trkpt><trkpt lat="42.1771967" lon="12.604625"><ele>62.0</ele><time>2026-05-02T08:55:51.49Z</time></trkpt><trkpt lat="42.1773667" lon="12.6044567"><ele>62.66666666666667</ele><time>2026-05-02T08:55:52.49Z</time></trkpt><trkpt lat="42.1775467" lon="12.604285"><ele>63.33333333333333</ele><time>2026-05-02T08:55:53.49Z</time></trkpt><trkpt lat="42.1777233" lon="12.60411"><ele>64.0</ele><time>2026-05-02T08:55:54.49Z</time></trkpt><trkpt lat="42.1779" lon="12.6039417"><ele>64.0</ele><time>2026-05-02T08:55:55.49Z</time></trkpt><trkpt lat="42.17808" lon="12.6037717"><ele>64.0</ele><time>2026-05-02T08:55:56.49Z</time></trkpt><trkpt lat="42.1782617" lon="12.603615"><ele>64.0</ele><time>2026-05-02T08:55:57.49Z</time></trkpt><trkpt lat="42.1784517" lon="12.603475"><ele>63.0</ele><time>2026-05-02T08:55:58.49Z</time></trkpt><trkpt lat="42.1786433" lon="12.603335"><ele>62.0</ele><time>2026-05-02T08:55:59.491Z</time></trkpt><trkpt lat="42.178835" lon="12.6032033"><ele>61.0</ele><time>2026-05-02T08:56:00.49Z</time></trkpt><trkpt lat="42.179025" lon="12.6030733"><ele>62.0</ele><time>2026-05-02T08:56:01.49Z</time></trkpt><trkpt lat="42.1792233" lon="12.602955"><ele>63.0</ele><time>2026-05-02T08:56:02.49Z</time></trkpt><trkpt lat="42.179425" lon="12.6028433"><ele>64.0</ele><time>2026-05-02T08:56:03.49Z</time></trkpt><trkpt lat="42.1796283" lon="12.6027433"><ele>64.0</ele><time>2026-05-02T08:56:04.49Z</time></trkpt><trkpt lat="42.17983" lon="12.6026533"><ele>64.0</ele><time>2026-05-02T08:56:05.49Z</time></trkpt><trkpt lat="42.1800333" lon="12.6025767"><ele>64.0</ele><time>2026-05-02T08:56:06.49Z</time></trkpt><trkpt lat="42.180245" lon="12.60252"><ele>60.666666666666664</ele><time>2026-05-02T08:56:07.49Z</time></trkpt><trkpt lat="42.18046" lon="12.602475"><ele>57.33333333333333</ele><time>2026-05-02T08:56:08.49Z</time></trkpt><trkpt lat="42.1806767" lon="12.6024317"><ele>54.0</ele><time>2026-05-02T08:56:09.49Z</time></trkpt><trkpt lat="42.1808967" lon="12.6023883"><ele>50.666666666666664</ele><time>2026-05-02T08:56:10.49Z</time></trkpt><trkpt lat="42.1811167" lon="12.6023567"><ele>47.33333333333333</ele><time>2026-05-02T08:56:11.49Z</time></trkpt><trkpt lat="42.1813367" lon="12.6023383"><ele>44.0</ele><time>2026-05-02T08:56:12.491Z</time></trkpt><trkpt lat="42.1815583" lon="12.60233"><ele>42.666666666666664</ele><time>2026-05-02T08:56:13.49Z</time></trkpt><trkpt lat="42.1817817" lon="12.602335"><ele>41.333333333333336</ele><time>2026-05-02T08:56:14.49Z</time></trkpt><trkpt lat="42.1820017" lon="12.6023517"><ele>40.0</ele><time>2026-05-02T08:56:15.49Z</time></trkpt><trkpt lat="42.1822217" lon="12.6023717"><ele>40.66666666666667</ele><time>2026-05-02T08:56:16.49Z</time></trkpt><trkpt lat="42.1824483" lon="12.6024"><ele>41.333333333333336</ele><time>2026-05-02T08:56:17.49Z</time></trkpt><trkpt lat="42.1826683" lon="12.6024317"><ele>42.0</ele><time>2026-05-02T08:56:18.49Z</time></trkpt><trkpt lat="42.1828967" lon="12.602475"><ele>42.0</ele><time>2026-05-02T08:56:19.49Z</time></trkpt><trkpt lat="42.1831233" lon="12.6025117"><ele>42.0</ele><time>2026-05-02T08:56:20.49Z</time></trkpt><trkpt lat="42.1833483" lon="12.6025433"><ele>43.666666666666664</ele><time>2026-05-02T08:56:21.49Z</time></trkpt><trkpt lat="42.1835717" lon="12.60257"><ele>45.33333333333333</ele><time>2026-05-02T08:56:22.49Z</time></trkpt><trkpt lat="42.1837933" lon="12.6026"><ele>47.0</ele><time>2026-05-02T08:56:23.49Z</time></trkpt><trkpt lat="42.1840183" lon="12.6026367"><ele>48.5</ele><time>2026-05-02T08:56:24.49Z</time></trkpt><trkpt lat="42.18425" lon="12.60267"><ele>50.0</ele><time>2026-05-02T08:56:25.49Z</time></trkpt><trkpt lat="42.1844783" lon="12.6027"><ele>50.0</ele><time>2026-05-02T08:56:26.49Z</time></trkpt><trkpt lat="42.184705" lon="12.6027333"><ele>50.0</ele><time>2026-05-02T08:56:27.49Z</time></trkpt><trkpt lat="42.1849317" lon="12.6027633"><ele>45.5</ele><time>2026-05-02T08:56:28.49Z</time></trkpt><trkpt lat="42.1851567" lon="12.6027983"><ele>41.0</ele><time>2026-05-02T08:56:29.49Z</time></trkpt><trkpt lat="42.1853883" lon="12.6028317"><ele>39.0</ele><time>2026-05-02T08:56:30.49Z</time></trkpt><trkpt lat="42.185625" lon="12.602865"><ele>37.0</ele><time>2026-05-02T08:56:31.49Z</time></trkpt><trkpt lat="42.185855" lon="12.6029"><ele>37.0</ele><time>2026-05-02T08:56:32.49Z</time></trkpt><trkpt lat="42.1860883" lon="12.6029383"><ele>37.0</ele><time>2026-05-02T08:56:33.49Z</time></trkpt><trkpt lat="42.1863133" lon="12.6029717"><ele>42.0</ele><time>2026-05-02T08:56:34.49Z</time></trkpt><trkpt lat="42.1865417" lon="12.602995"><ele>47.0</ele><time>2026-05-02T08:56:35.49Z</time></trkpt><trkpt lat="42.1867683" lon="12.60303"><ele>47.0</ele><time>2026-05-02T08:56:36.49Z</time></trkpt><trkpt lat="42.186985" lon="12.6030617"><ele>47.0</ele><time>2026-05-02T08:56:37.49Z</time></trkpt><trkpt lat="42.1871933" lon="12.6030867"><ele>47.0</ele><time>2026-05-02T08:56:38.49Z</time></trkpt><trkpt lat="42.1874117" lon="12.6031217"><ele>47.33333333333333</ele><time>2026-05-02T08:56:39.49Z</time></trkpt><trkpt lat="42.1876283" lon="12.6031517"><ele>47.666666666666664</ele><time>2026-05-02T08:56:40.49Z</time></trkpt><trkpt lat="42.1878433" lon="12.6031917"><ele>48.0</ele><time>2026-05-02T08:56:41.49Z</time></trkpt><trkpt lat="42.1880617" lon="12.603225"><ele>47.0</ele><time>2026-05-02T08:56:42.491Z</time></trkpt><trkpt lat="42.18827" lon="12.60326"><ele>46.0</ele><time>2026-05-02T08:56:43.49Z</time></trkpt><trkpt lat="42.1884817" lon="12.6032967"><ele>45.0</ele><time>2026-05-02T08:56:44.49Z</time></trkpt><trkpt lat="42.1886933" lon="12.6033283"><ele>45.0</ele><time>2026-05-02T08:56:45.491Z</time></trkpt><trkpt lat="42.1888967" lon="12.6033583"><ele>45.0</ele><time>2026-05-02T08:56:46.49Z</time></trkpt><trkpt lat="42.1890933" lon="12.6033917"><ele>45.0</ele><time>2026-05-02T08:56:47.49Z</time></trkpt><trkpt lat="42.189285" lon="12.6034167"><ele>44.0</ele><time>2026-05-02T08:56:48.49Z</time></trkpt><trkpt lat="42.18947" lon="12.6034433"><ele>43.0</ele><time>2026-05-02T08:56:49.49Z</time></trkpt><trkpt lat="42.1896567" lon="12.6034717"><ele>42.0</ele><time>2026-05-02T08:56:50.49Z</time></trkpt><trkpt lat="42.1898417" lon="12.603495"><ele>41.0</ele><time>2026-05-02T08:56:51.49Z</time></trkpt><trkpt lat="42.190025" lon="12.6035233"><ele>40.0</ele><time>2026-05-02T08:56:52.49Z</time></trkpt><trkpt lat="42.190215" lon="12.6035517"><ele>39.0</ele><time>2026-05-02T08:56:53.49Z</time></trkpt><trkpt lat="42.1904033" lon="12.6035767"><ele>39.0</ele><time>2026-05-02T08:56:54.49Z</time></trkpt><trkpt lat="42.1905967" lon="12.6036067"><ele>39.0</ele><time>2026-05-02T08:56:55.49Z</time></trkpt><trkpt lat="42.1907933" lon="12.60364"><ele>39.0</ele><time>2026-05-02T08:56:56.49Z</time></trkpt><trkpt lat="42.1909867" lon="12.603665"><ele>36.333333333333336</ele><time>2026-05-02T08:56:57.49Z</time></trkpt><trkpt lat="42.1911783" lon="12.6036933"><ele>33.66666666666667</ele><time>2026-05-02T08:56:58.49Z</time></trkpt><trkpt lat="42.1913717" lon="12.603725"><ele>31.0</ele><time>2026-05-02T08:56:59.49Z</time></trkpt><trkpt lat="42.1915567" lon="12.603755"><ele>31.0</ele><time>2026-05-02T08:57:00.49Z</time></trkpt><trkpt lat="42.1917467" lon="12.6037833"><ele>31.0</ele><time>2026-05-02T08:57:01.49Z</time></trkpt><trkpt lat="42.1919383" lon="12.6038083"><ele>31.0</ele><time>2026-05-02T08:57:02.49Z</time></trkpt><trkpt lat="42.1921317" lon="12.6038383"><ele>31.0</ele><time>2026-05-02T08:57:03.49Z</time></trkpt><trkpt lat="42.1923283" lon="12.6038633"><ele>31.0</ele><time>2026-05-02T08:57:04.49Z</time></trkpt><trkpt lat="42.192525" lon="12.6038967"><ele>31.0</ele><time>2026-05-02T08:57:05.49Z</time></trkpt><trkpt lat="42.192715" lon="12.6039317"><ele>31.666666666666668</ele><time>2026-05-02T08:57:06.49Z</time></trkpt><trkpt lat="42.1929083" lon="12.60396"><ele>32.333333333333336</ele><time>2026-05-02T08:57:07.49Z</time></trkpt><trkpt lat="42.1931" lon="12.60399"><ele>33.0</ele><time>2026-05-02T08:57:08.49Z</time></trkpt><trkpt lat="42.1932883" lon="12.604015"><ele>33.0</ele><time>2026-05-02T08:57:09.49Z</time></trkpt><trkpt lat="42.1934833" lon="12.6040483"><ele>33.0</ele><time>2026-05-02T08:57:10.491Z</time></trkpt><trkpt lat="42.1936717" lon="12.6040717"><ele>33.0</ele><time>2026-05-02T08:57:11.49Z</time></trkpt><trkpt lat="42.1938667" lon="12.6040967"><ele>33.666666666666664</ele><time>2026-05-02T08:57:12.49Z</time></trkpt><trkpt lat="42.1940617" lon="12.6041233"><ele>34.33333333333333</ele><time>2026-05-02T08:57:13.49Z</time></trkpt><trkpt lat="42.194255" lon="12.6041533"><ele>35.0</ele><time>2026-05-02T08:57:14.49Z</time></trkpt><trkpt lat="42.194445" lon="12.6041783"><ele>35.0</ele><time>2026-05-02T08:57:15.49Z</time></trkpt><trkpt lat="42.1946317" lon="12.6042067"><ele>35.0</ele><time>2026-05-02T08:57:16.49Z</time></trkpt><trkpt lat="42.1948267" lon="12.60423"><ele>35.0</ele><time>2026-05-02T08:57:17.49Z</time></trkpt><trkpt lat="42.1950217" lon="12.6042433"><ele>37.33333333333333</ele><time>2026-05-02T08:57:18.49Z</time></trkpt><trkpt lat="42.1952133" lon="12.6042483"><ele>39.666666666666664</ele><time>2026-05-02T08:57:19.49Z</time></trkpt><trkpt lat="42.1954083" lon="12.604245"><ele>42.0</ele><time>2026-05-02T08:57:20.49Z</time></trkpt><trkpt lat="42.19561" lon="12.6042317"><ele>44.0</ele><time>2026-05-02T08:57:21.49Z</time></trkpt><trkpt lat="42.1958133" lon="12.6042183"><ele>46.0</ele><time>2026-05-02T08:57:22.49Z</time></trkpt><trkpt lat="42.19602" lon="12.6041983"><ele>48.0</ele><time>2026-05-02T08:57:23.49Z</time></trkpt><trkpt lat="42.1962167" lon="12.6041683"><ele>48.0</ele><time>2026-05-02T08:57:24.49Z</time></trkpt><trkpt lat="42.1964183" lon="12.60414"><ele>48.0</ele><time>2026-05-02T08:57:25.49Z</time></trkpt><trkpt lat="42.1966133" lon="12.6041017"><ele>48.0</ele><time>2026-05-02T08:57:26.49Z</time></trkpt><trkpt lat="42.1968117" lon="12.60406"><ele>48.33333333333333</ele><time>2026-05-02T08:57:27.49Z</time></trkpt><trkpt lat="42.1970117" lon="12.6040117"><ele>48.666666666666664</ele><time>2026-05-02T08:57:28.49Z</time></trkpt><trkpt lat="42.1972067" lon="12.6039533"><ele>49.0</ele><time>2026-05-02T08:57:29.49Z</time></trkpt><trkpt lat="42.1974067" lon="12.6038867"><ele>46.0</ele><time>2026-05-02T08:57:30.49Z</time></trkpt><trkpt lat="42.1976017" lon="12.6038183"><ele>43.0</ele><time>2026-05-02T08:57:31.49Z</time></trkpt><trkpt lat="42.197785" lon="12.6037533"><ele>40.0</ele><time>2026-05-02T08:57:32.49Z</time></trkpt><trkpt lat="42.1979617" lon="12.6036867"><ele>42.0</ele><time>2026-05-02T08:57:33.49Z</time></trkpt><trkpt lat="42.19813" lon="12.6036167"><ele>44.0</ele><time>2026-05-02T08:57:34.49Z</time></trkpt><trkpt lat="42.1982967" lon="12.6035617"><ele>46.0</ele><time>2026-05-02T08:57:35.49Z</time></trkpt><trkpt lat="42.19847" lon="12.6035083"><ele>46.0</ele><time>2026-05-02T08:57:36.49Z</time></trkpt><trkpt lat="42.198635" lon="12.6034483"><ele>46.0</ele><time>2026-05-02T08:57:37.49Z</time></trkpt><trkpt lat="42.1988" lon="12.6033933"><ele>46.0</ele><time>2026-05-02T08:57:38.49Z</time></trkpt><trkpt lat="42.1989583" lon="12.603335"><ele>45.333333333333336</ele><time>2026-05-02T08:57:39.49Z</time></trkpt><trkpt lat="42.199115" lon="12.6032717"><ele>44.666666666666664</ele><time>2026-05-02T08:57:40.49Z</time></trkpt><trkpt lat="42.19927" lon="12.6032117"><ele>44.0</ele><time>2026-05-02T08:57:41.49Z</time></trkpt><trkpt lat="42.199425" lon="12.6031533"><ele>44.0</ele><time>2026-05-02T08:57:42.49Z</time></trkpt><trkpt lat="42.1995783" lon="12.6031"><ele>44.0</ele><time>2026-05-02T08:57:43.49Z</time></trkpt><trkpt lat="42.1997333" lon="12.6030483"><ele>44.0</ele><time>2026-05-02T08:57:44.491Z</time></trkpt><trkpt lat="42.1998867" lon="12.6029867"><ele>44.33333333333333</ele><time>2026-05-02T08:57:45.49Z</time></trkpt><trkpt lat="42.2000433" lon="12.6029317"><ele>44.666666666666664</ele><time>2026-05-02T08:57:46.49Z</time></trkpt><trkpt lat="42.2002017" lon="12.6028717"><ele>45.0</ele><time>2026-05-02T08:57:47.49Z</time></trkpt><trkpt lat="42.200355" lon="12.6028133"><ele>48.33333333333333</ele><time>2026-05-02T08:57:48.49Z</time></trkpt><trkpt lat="42.20051" lon="12.6027567"><ele>51.666666666666664</ele><time>2026-05-02T08:57:49.49Z</time></trkpt><trkpt lat="42.200665" lon="12.602705"><ele>55.0</ele><time>2026-05-02T08:57:50.49Z</time></trkpt><trkpt lat="42.2008183" lon="12.6026533"><ele>56.0</ele><time>2026-05-02T08:57:51.49Z</time></trkpt><trkpt lat="42.2009817" lon="12.6026167"><ele>57.0</ele><time>2026-05-02T08:57:52.49Z</time></trkpt><trkpt lat="42.201145" lon="12.602585"><ele>58.0</ele><time>2026-05-02T08:57:53.49Z</time></trkpt><trkpt lat="42.201305" lon="12.602565"><ele>58.0</ele><time>2026-05-02T08:57:54.49Z</time></trkpt><trkpt lat="42.2014667" lon="12.6025583"><ele>58.0</ele><time>2026-05-02T08:57:55.49Z</time></trkpt><trkpt lat="42.2016283" lon="12.6025583"><ele>58.0</ele><time>2026-05-02T08:57:56.49Z</time></trkpt><trkpt lat="42.2017917" lon="12.6025583"><ele>60.0</ele><time>2026-05-02T08:57:57.49Z</time></trkpt><trkpt lat="42.2019617" lon="12.6025767"><ele>62.0</ele><time>2026-05-02T08:57:58.49Z</time></trkpt><trkpt lat="42.2021267" lon="12.6026017"><ele>64.0</ele><time>2026-05-02T08:57:59.49Z</time></trkpt><trkpt lat="42.202295" lon="12.6026433"><ele>64.66666666666666</ele><time>2026-05-02T08:58:00.49Z</time></trkpt><trkpt lat="42.2024633" lon="12.6026883"><ele>65.33333333333333</ele><time>2026-05-02T08:58:01.49Z</time></trkpt><trkpt lat="42.2026383" lon="12.6027417"><ele>66.0</ele><time>2026-05-02T08:58:02.49Z</time></trkpt><trkpt lat="42.2028133" lon="12.6028067"><ele>65.0</ele><time>2026-05-02T08:58:03.49Z</time></trkpt><trkpt lat="42.2029933" lon="12.60287"><ele>64.0</ele><time>2026-05-02T08:58:04.491Z</time></trkpt><trkpt lat="42.2031717" lon="12.60293"><ele>63.0</ele><time>2026-05-02T08:58:05.49Z</time></trkpt><trkpt lat="42.2033533" lon="12.6029883"><ele>63.0</ele><time>2026-05-02T08:58:06.49Z</time></trkpt><trkpt lat="42.20354" lon="12.6030467"><ele>63.0</ele><time>2026-05-02T08:58:07.49Z</time></trkpt><trkpt lat="42.203725" lon="12.6031"><ele>63.0</ele><time>2026-05-02T08:58:08.49Z</time></trkpt><trkpt lat="42.2039067" lon="12.6031583"><ele>65.66666666666667</ele><time>2026-05-02T08:58:09.49Z</time></trkpt><trkpt lat="42.2040933" lon="12.6032167"><ele>68.33333333333334</ele><time>2026-05-02T08:58:10.491Z</time></trkpt><trkpt lat="42.2042767" lon="12.60327"><ele>71.0</ele><time>2026-05-02T08:58:11.49Z</time></trkpt><trkpt lat="42.204465" lon="12.6033383"><ele>71.0</ele><time>2026-05-02T08:58:12.49Z</time></trkpt><trkpt lat="42.2046567" lon="12.603405"><ele>71.0</ele><time>2026-05-02T08:58:13.49Z</time></trkpt><trkpt lat="42.2048467" lon="12.603465"><ele>71.0</ele><time>2026-05-02T08:58:14.49Z</time></trkpt><trkpt lat="42.205035" lon="12.6035217"><ele>74.66666666666667</ele><time>2026-05-02T08:58:15.491Z</time></trkpt><trkpt lat="42.2052283" lon="12.6035783"><ele>78.33333333333333</ele><time>2026-05-02T08:58:16.49Z</time></trkpt><trkpt lat="42.2054133" lon="12.603615"><ele>82.0</ele><time>2026-05-02T08:58:17.49Z</time></trkpt><trkpt lat="42.2056067" lon="12.6036417"><ele>84.33333333333333</ele><time>2026-05-02T08:58:18.49Z</time></trkpt><trkpt lat="42.2057983" lon="12.6036517"><ele>86.66666666666667</ele><time>2026-05-02T08:58:19.49Z</time></trkpt><trkpt lat="42.2059933" lon="12.6036567"><ele>89.0</ele><time>2026-05-02T08:58:20.49Z</time></trkpt><trkpt lat="42.20619" lon="12.6036517"><ele>89.0</ele><time>2026-05-02T08:58:21.49Z</time></trkpt><trkpt lat="42.2063867" lon="12.60363"><ele>89.0</ele><time>2026-05-02T08:58:22.49Z</time></trkpt><trkpt lat="42.2065833" lon="12.6036067"><ele>89.0</ele><time>2026-05-02T08:58:23.491Z</time></trkpt><trkpt lat="42.2067867" lon="12.6035683"><ele>89.0</ele><time>2026-05-02T08:58:24.49Z</time></trkpt><trkpt lat="42.2069817" lon="12.6035233"><ele>89.0</ele><time>2026-05-02T08:58:25.49Z</time></trkpt><trkpt lat="42.2071767" lon="12.6034667"><ele>89.0</ele><time>2026-05-02T08:58:26.49Z</time></trkpt><trkpt lat="42.20737" lon="12.6034"><ele>93.0</ele><time>2026-05-02T08:58:27.49Z</time></trkpt><trkpt lat="42.2075633" lon="12.6033317"><ele>97.0</ele><time>2026-05-02T08:58:28.49Z</time></trkpt><trkpt lat="42.2077467" lon="12.6032533"><ele>101.0</ele><time>2026-05-02T08:58:29.49Z</time></trkpt><trkpt lat="42.20792" lon="12.6031617"><ele>101.0</ele><time>2026-05-02T08:58:30.49Z</time></trkpt><trkpt lat="42.20809" lon="12.603065"><ele>101.0</ele><time>2026-05-02T08:58:31.49Z</time></trkpt><trkpt lat="42.2082633" lon="12.6029567"><ele>101.0</ele><time>2026-05-02T08:58:32.49Z</time></trkpt><trkpt lat="42.2084267" lon="12.602835"><ele>102.0</ele><time>2026-05-02T08:58:33.49Z</time></trkpt><trkpt lat="42.2085917" lon="12.6027083"><ele>103.0</ele><time>2026-05-02T08:58:34.49Z</time></trkpt><trkpt lat="42.2087567" lon="12.6025783"><ele>104.0</ele><time>2026-05-02T08:58:35.49Z</time></trkpt><trkpt lat="42.2089283" lon="12.602455"><ele>101.0</ele><time>2026-05-02T08:58:36.49Z</time></trkpt><trkpt lat="42.209095" lon="12.60233"><ele>98.0</ele><time>2026-05-02T08:58:37.49Z</time></trkpt><trkpt lat="42.2092683" lon="12.6022117"><ele>95.0</ele><time>2026-05-02T08:58:38.491Z</time></trkpt><trkpt lat="42.209445" lon="12.6020967"><ele>95.0</ele><time>2026-05-02T08:58:39.49Z</time></trkpt><trkpt lat="42.209625" lon="12.6019933"><ele>95.0</ele><time>2026-05-02T08:58:40.49Z</time></trkpt><trkpt lat="42.20981" lon="12.6019"><ele>95.0</ele><time>2026-05-02T08:58:41.491Z</time></trkpt><trkpt lat="42.2099933" lon="12.6018033"><ele>95.0</ele><time>2026-05-02T08:58:42.49Z</time></trkpt><trkpt lat="42.2101783" lon="12.6017217"><ele>95.0</ele><time>2026-05-02T08:58:43.49Z</time></trkpt><trkpt lat="42.210355" lon="12.60165"><ele>95.0</ele><time>2026-05-02T08:58:44.49Z</time></trkpt><trkpt lat="42.210535" lon="12.6015733"><ele>90.0</ele><time>2026-05-02T08:58:45.49Z</time></trkpt><trkpt lat="42.210715" lon="12.6015033"><ele>85.0</ele><time>2026-05-02T08:58:46.49Z</time></trkpt><trkpt lat="42.2108967" lon="12.6014467"><ele>80.0</ele><time>2026-05-02T08:58:47.49Z</time></trkpt><trkpt lat="42.2110833" lon="12.6013967"><ele>80.0</ele><time>2026-05-02T08:58:48.49Z</time></trkpt><trkpt lat="42.21127" lon="12.6013533"><ele>80.0</ele><time>2026-05-02T08:58:49.49Z</time></trkpt><trkpt lat="42.211455" lon="12.6013083"><ele>80.0</ele><time>2026-05-02T08:58:50.491Z</time></trkpt><trkpt lat="42.2116467" lon="12.601265"><ele>77.33333333333334</ele><time>2026-05-02T08:58:51.49Z</time></trkpt><trkpt lat="42.2118433" lon="12.601225"><ele>74.66666666666667</ele><time>2026-05-02T08:58:52.49Z</time></trkpt><trkpt lat="42.2120383" lon="12.6011783"><ele>72.0</ele><time>2026-05-02T08:58:53.49Z</time></trkpt><trkpt lat="42.2122317" lon="12.601135"><ele>76.0</ele><time>2026-05-02T08:58:54.49Z</time></trkpt><trkpt lat="42.2124217" lon="12.6010983"><ele>80.0</ele><time>2026-05-02T08:58:55.49Z</time></trkpt><trkpt lat="42.2126" lon="12.6010567"><ele>84.0</ele><time>2026-05-02T08:58:56.49Z</time></trkpt><trkpt lat="42.2127683" lon="12.6010083"><ele>84.0</ele><time>2026-05-02T08:58:57.49Z</time></trkpt><trkpt lat="42.2129317" lon="12.60095"><ele>84.0</ele><time>2026-05-02T08:58:58.49Z</time></trkpt><trkpt lat="42.213095" lon="12.6008817"><ele>84.0</ele><time>2026-05-02T08:58:59.49Z</time></trkpt><trkpt lat="42.2132633" lon="12.6008033"><ele>92.0</ele><time>2026-05-02T08:59:00.49Z</time></trkpt><trkpt lat="42.2134233" lon="12.6007167"><ele>100.0</ele><time>2026-05-02T08:59:01.49Z</time></trkpt><trkpt lat="42.2135783" lon="12.6006233"><ele>108.0</ele><time>2026-05-02T08:59:02.49Z</time></trkpt><trkpt lat="42.213725" lon="12.6005267"><ele>108.0</ele><time>2026-05-02T08:59:03.49Z</time></trkpt><trkpt lat="42.2138617" lon="12.6004183"><ele>108.0</ele><time>2026-05-02T08:59:04.49Z</time></trkpt><trkpt lat="42.2139967" lon="12.6003117"><ele>108.0</ele><time>2026-05-02T08:59:05.49Z</time></trkpt><trkpt lat="42.2141267" lon="12.6002017"><ele>113.66666666666666</ele><time>2026-05-02T08:59:06.49Z</time></trkpt><trkpt lat="42.2142517" lon="12.6000733"><ele>119.33333333333333</ele><time>2026-05-02T08:59:07.49Z</time></trkpt><trkpt lat="42.214375" lon="12.5999417"><ele>125.0</ele><time>2026-05-02T08:59:08.49Z</time></trkpt><trkpt lat="42.2144933" lon="12.5998033"><ele>125.0</ele><time>2026-05-02T08:59:09.49Z</time></trkpt><trkpt lat="42.2146183" lon="12.599655"><ele>125.0</ele><time>2026-05-02T08:59:10.49Z</time></trkpt><trkpt lat="42.2147433" lon="12.599505"><ele>125.0</ele><time>2026-05-02T08:59:11.49Z</time></trkpt><trkpt lat="42.214875" lon="12.5993533"><ele>125.0</ele><time>2026-05-02T08:59:12.49Z</time></trkpt><trkpt lat="42.2150083" lon="12.5991983"><ele>125.0</ele><time>2026-05-02T08:59:13.49Z</time></trkpt><trkpt lat="42.21514" lon="12.5990367"><ele>125.0</ele><time>2026-05-02T08:59:14.49Z</time></trkpt><trkpt lat="42.21528" lon="12.59888"><ele>125.0</ele><time>2026-05-02T08:59:15.49Z</time></trkpt><trkpt lat="42.2154167" lon="12.5987217"><ele>125.0</ele><time>2026-05-02T08:59:16.49Z</time></trkpt><trkpt lat="42.2155583" lon="12.5985667"><ele>125.0</ele><time>2026-05-02T08:59:17.49Z</time></trkpt><trkpt lat="42.2156967" lon="12.598405"><ele>124.33333333333333</ele><time>2026-05-02T08:59:18.49Z</time></trkpt><trkpt lat="42.2158367" lon="12.5982467"><ele>123.66666666666666</ele><time>2026-05-02T08:59:19.49Z</time></trkpt><trkpt lat="42.2159783" lon="12.5980783"><ele>123.0</ele><time>2026-05-02T08:59:20.49Z</time></trkpt><trkpt lat="42.21613" lon="12.597935"><ele>122.0</ele><time>2026-05-02T08:59:21.49Z</time></trkpt><trkpt lat="42.2162933" lon="12.5978033"><ele>121.0</ele><time>2026-05-02T08:59:22.49Z</time></trkpt><trkpt lat="42.2164583" lon="12.597675"><ele>120.0</ele><time>2026-05-02T08:59:23.49Z</time></trkpt><trkpt lat="42.2166267" lon="12.5975583"><ele>120.0</ele><time>2026-05-02T08:59:24.49Z</time></trkpt><trkpt lat="42.2168033" lon="12.5974467"><ele>120.0</ele><time>2026-05-02T08:59:25.49Z</time></trkpt><trkpt lat="42.2169917" lon="12.59735"><ele>120.0</ele><time>2026-05-02T08:59:26.49Z</time></trkpt><trkpt lat="42.217185" lon="12.5972633"><ele>120.33333333333334</ele><time>2026-05-02T08:59:27.49Z</time></trkpt><trkpt lat="42.2173767" lon="12.597185"><ele>120.66666666666667</ele><time>2026-05-02T08:59:28.49Z</time></trkpt><trkpt lat="42.2175717" lon="12.5971117"><ele>121.0</ele><time>2026-05-02T08:59:29.49Z</time></trkpt><trkpt lat="42.217765" lon="12.5970383"><ele>125.66666666666667</ele><time>2026-05-02T08:59:30.49Z</time></trkpt><trkpt lat="42.2179633" lon="12.596975"><ele>130.33333333333334</ele><time>2026-05-02T08:59:31.49Z</time></trkpt><trkpt lat="42.21816" lon="12.596905"><ele>135.0</ele><time>2026-05-02T08:59:32.49Z</time></trkpt><trkpt lat="42.2183633" lon="12.59683"><ele>135.66666666666666</ele><time>2026-05-02T08:59:33.49Z</time></trkpt><trkpt lat="42.2185667" lon="12.5967517"><ele>136.33333333333331</ele><time>2026-05-02T08:59:34.49Z</time></trkpt><trkpt lat="42.21875" lon="12.5966817"><ele>137.0</ele><time>2026-05-02T08:59:35.49Z</time></trkpt><trkpt lat="42.2189467" lon="12.59662"><ele>139.0</ele><time>2026-05-02T08:59:36.49Z</time></trkpt><trkpt lat="42.2191333" lon="12.5965333"><ele>141.0</ele><time>2026-05-02T08:59:37.49Z</time></trkpt><trkpt lat="42.2193317" lon="12.5964533"><ele>143.0</ele><time>2026-05-02T08:59:38.49Z</time></trkpt><trkpt lat="42.2195333" lon="12.5963683"><ele>143.0</ele><time>2026-05-02T08:59:39.49Z</time></trkpt><trkpt lat="42.2197317" lon="12.5962833"><ele>143.0</ele><time>2026-05-02T08:59:40.49Z</time></trkpt><trkpt lat="42.2199283" lon="12.5961983"><ele>143.0</ele><time>2026-05-02T08:59:41.49Z</time></trkpt><trkpt lat="42.2210267" lon="12.5955467"><ele>151.5</ele><time>2026-05-02T08:59:47.491Z</time></trkpt><trkpt lat="42.22111" lon="12.59521"><ele>160.0</ele><time>2026-05-02T08:59:48.49Z</time></trkpt><trkpt lat="42.2212467" lon="12.5949717"><ele>160.0</ele><time>2026-05-02T08:59:49.49Z</time></trkpt><trkpt lat="42.2213833" lon="12.594755"><ele>160.0</ele><time>2026-05-02T08:59:50.49Z</time></trkpt><trkpt lat="42.2215233" lon="12.5945567"><ele>160.0</ele><time>2026-05-02T08:59:51.49Z</time></trkpt><trkpt lat="42.2216683" lon="12.594365"><ele>156.0</ele><time>2026-05-02T08:59:52.49Z</time></trkpt><trkpt lat="42.22181" lon="12.594165"><ele>152.0</ele><time>2026-05-02T08:59:53.49Z</time></trkpt><trkpt lat="42.221955" lon="12.5939733"><ele>148.0</ele><time>2026-05-02T08:59:54.49Z</time></trkpt><trkpt lat="42.2221017" lon="12.5937833"><ele>147.33333333333334</ele><time>2026-05-02T08:59:55.49Z</time></trkpt><trkpt lat="42.2222517" lon="12.5936"><ele>146.66666666666666</ele><time>2026-05-02T08:59:56.49Z</time></trkpt><trkpt lat="42.2224033" lon="12.5934167"><ele>146.0</ele><time>2026-05-02T08:59:57.49Z</time></trkpt><trkpt lat="42.22256" lon="12.59324"><ele>146.0</ele><time>2026-05-02T08:59:58.49Z</time></trkpt><trkpt lat="42.2227217" lon="12.5930667"><ele>146.0</ele><time>2026-05-02T08:59:59.49Z</time></trkpt><trkpt lat="42.2228867" lon="12.5929033"><ele>146.0</ele><time>2026-05-02T09:00:00.49Z</time></trkpt><trkpt lat="42.2230583" lon="12.59275"><ele>147.66666666666666</ele><time>2026-05-02T09:00:01.49Z</time></trkpt><trkpt lat="42.223235" lon="12.59261"><ele>149.33333333333334</ele><time>2026-05-02T09:00:02.49Z</time></trkpt><trkpt lat="42.223415" lon="12.5924817"><ele>151.0</ele><time>2026-05-02T09:00:03.49Z</time></trkpt><trkpt lat="42.2236" lon="12.592365"><ele>151.0</ele><time>2026-05-02T09:00:04.49Z</time></trkpt><trkpt lat="42.22379" lon="12.5922617"><ele>151.0</ele><time>2026-05-02T09:00:05.49Z</time></trkpt><trkpt lat="42.2239833" lon="12.5921717"><ele>151.0</ele><time>2026-05-02T09:00:06.49Z</time></trkpt><trkpt lat="42.22418" lon="12.5920933"><ele>149.66666666666669</ele><time>2026-05-02T09:00:07.49Z</time></trkpt><trkpt lat="42.2243717" lon="12.5920167"><ele>148.33333333333334</ele><time>2026-05-02T09:00:08.49Z</time></trkpt><trkpt lat="42.2245733" lon="12.5919583"><ele>147.0</ele><time>2026-05-02T09:00:09.49Z</time></trkpt><trkpt lat="42.2247717" lon="12.5919183"><ele>153.66666666666666</ele><time>2026-05-02T09:00:10.49Z</time></trkpt><trkpt lat="42.2249783" lon="12.59189"><ele>160.33333333333331</ele><time>2026-05-02T09:00:11.49Z</time></trkpt><trkpt lat="42.22518" lon="12.5918733"><ele>167.0</ele><time>2026-05-02T09:00:12.49Z</time></trkpt><trkpt lat="42.22538" lon="12.5918667"><ele>167.0</ele><time>2026-05-02T09:00:13.49Z</time></trkpt><trkpt lat="42.2255717" lon="12.591875"><ele>167.0</ele><time>2026-05-02T09:00:14.49Z</time></trkpt><trkpt lat="42.2257667" lon="12.5918683"><ele>167.0</ele><time>2026-05-02T09:00:15.49Z</time></trkpt><trkpt lat="42.225965" lon="12.59187"><ele>163.33333333333331</ele><time>2026-05-02T09:00:16.49Z</time></trkpt><trkpt lat="42.2261683" lon="12.5918633"><ele>159.66666666666666</ele><time>2026-05-02T09:00:17.49Z</time></trkpt><trkpt lat="42.2263767" lon="12.591865"><ele>156.0</ele><time>2026-05-02T09:00:18.49Z</time></trkpt><trkpt lat="42.2265867" lon="12.591865"><ele>156.0</ele><time>2026-05-02T09:00:19.49Z</time></trkpt><trkpt lat="42.226795" lon="12.5918583"><ele>156.0</ele><time>2026-05-02T09:00:20.49Z</time></trkpt><trkpt lat="42.226995" lon="12.5918517"><ele>156.0</ele><time>2026-05-02T09:00:21.49Z</time></trkpt><trkpt lat="42.2271933" lon="12.5918533"><ele>159.0</ele><time>2026-05-02T09:00:22.49Z</time></trkpt><trkpt lat="42.2273867" lon="12.59184"><ele>162.0</ele><time>2026-05-02T09:00:23.49Z</time></trkpt><trkpt lat="42.2275833" lon="12.5918367"><ele>165.0</ele><time>2026-05-02T09:00:24.49Z</time></trkpt><trkpt lat="42.2277833" lon="12.5918367"><ele>165.0</ele><time>2026-05-02T09:00:25.49Z</time></trkpt><trkpt lat="42.2279883" lon="12.5918467"><ele>165.0</ele><time>2026-05-02T09:00:26.49Z</time></trkpt><trkpt lat="42.2281983" lon="12.5918567"><ele>165.0</ele><time>2026-05-02T09:00:27.49Z</time></trkpt><trkpt lat="42.2284017" lon="12.591855"><ele>164.0</ele><time>2026-05-02T09:00:28.49Z</time></trkpt><trkpt lat="42.2286067" lon="12.5918533"><ele>163.0</ele><time>2026-05-02T09:00:29.49Z</time></trkpt><trkpt lat="42.2288067" lon="12.59186"><ele>162.0</ele><time>2026-05-02T09:00:30.49Z</time></trkpt><trkpt lat="42.2290183" lon="12.59188"><ele>162.0</ele><time>2026-05-02T09:00:31.49Z</time></trkpt><trkpt lat="42.2292183" lon="12.5918917"><ele>162.0</ele><time>2026-05-02T09:00:32.49Z</time></trkpt><trkpt lat="42.22941" lon="12.5919067"><ele>162.0</ele><time>2026-05-02T09:00:33.49Z</time></trkpt><trkpt lat="42.229595" lon="12.5919167"><ele>162.0</ele><time>2026-05-02T09:00:34.49Z</time></trkpt><trkpt lat="42.22978" lon="12.5919233"><ele>162.0</ele><time>2026-05-02T09:00:35.49Z</time></trkpt><trkpt lat="42.2299667" lon="12.5919283"><ele>162.0</ele><time>2026-05-02T09:00:36.49Z</time></trkpt><trkpt lat="42.230155" lon="12.591935"><ele>164.33333333333334</ele><time>2026-05-02T09:00:37.49Z</time></trkpt><trkpt lat="42.2303433" lon="12.5919317"><ele>166.66666666666669</ele><time>2026-05-02T09:00:38.49Z</time></trkpt><trkpt lat="42.2305317" lon="12.5919367"><ele>169.0</ele><time>2026-05-02T09:00:39.49Z</time></trkpt><trkpt lat="42.23073" lon="12.591935"><ele>176.33333333333334</ele><time>2026-05-02T09:00:40.49Z</time></trkpt><trkpt lat="42.2309233" lon="12.59192"><ele>183.66666666666666</ele><time>2026-05-02T09:00:41.49Z</time></trkpt><trkpt lat="42.231115" lon="12.5918967"><ele>191.0</ele><time>2026-05-02T09:00:42.49Z</time></trkpt><trkpt lat="42.2313133" lon="12.5918833"><ele>186.66666666666666</ele><time>2026-05-02T09:00:43.49Z</time></trkpt><trkpt lat="42.231515" lon="12.591875"><ele>182.33333333333334</ele><time>2026-05-02T09:00:44.49Z</time></trkpt><trkpt lat="42.2317167" lon="12.59186"><ele>178.0</ele><time>2026-05-02T09:00:45.49Z</time></trkpt><trkpt lat="42.23405" lon="12.59183"><ele>178.0</ele><time>2026-05-02T09:00:58.489Z</time></trkpt><trkpt lat="42.23426" lon="12.5917883"><ele>178.0</ele><time>2026-05-02T09:00:59.489Z</time></trkpt><trkpt lat="42.2344367" lon="12.59177"><ele>178.0</ele><time>2026-05-02T09:01:00.489Z</time></trkpt><trkpt lat="42.2346133" lon="12.59173"><ele>178.0</ele><time>2026-05-02T09:01:01.489Z</time></trkpt><trkpt lat="42.2347883" lon="12.5916683"><ele>178.0</ele><time>2026-05-02T09:01:02.489Z</time></trkpt><trkpt lat="42.23497" lon="12.5915933"><ele>178.0</ele><time>2026-05-02T09:01:03.489Z</time></trkpt><trkpt lat="42.2351517" lon="12.5915117"><ele>175.66666666666669</ele><time>2026-05-02T09:01:04.49Z</time></trkpt><trkpt lat="42.2353267" lon="12.5914117"><ele>173.33333333333334</ele><time>2026-05-02T09:01:05.489Z</time></trkpt><trkpt lat="42.2354933" lon="12.591295"><ele>171.0</ele><time>2026-05-02T09:01:06.489Z</time></trkpt><trkpt lat="42.23566" lon="12.591175"><ele>171.0</ele><time>2026-05-02T09:01:07.489Z</time></trkpt><trkpt lat="42.2358183" lon="12.5910333"><ele>171.0</ele><time>2026-05-02T09:01:08.489Z</time></trkpt><trkpt lat="42.2359767" lon="12.5908933"><ele>171.0</ele><time>2026-05-02T09:01:09.49Z</time></trkpt><trkpt lat="42.2361283" lon="12.5907417"><ele>171.0</ele><time>2026-05-02T09:01:10.489Z</time></trkpt><trkpt lat="42.2362833" lon="12.5905867"><ele>171.0</ele><time>2026-05-02T09:01:11.489Z</time></trkpt><trkpt lat="42.2364267" lon="12.5904167"><ele>171.0</ele><time>2026-05-02T09:01:12.489Z</time></trkpt><trkpt lat="42.2365767" lon="12.5902517"><ele>168.33333333333334</ele><time>2026-05-02T09:01:13.489Z</time></trkpt><trkpt lat="42.2367183" lon="12.5900817"><ele>165.66666666666669</ele><time>2026-05-02T09:01:14.489Z</time></trkpt><trkpt lat="42.2368583" lon="12.5899183"><ele>163.0</ele><time>2026-05-02T09:01:15.489Z</time></trkpt><trkpt lat="42.2369883" lon="12.5897517"><ele>163.0</ele><time>2026-05-02T09:01:16.489Z</time></trkpt><trkpt lat="42.237115" lon="12.5895867"><ele>163.0</ele><time>2026-05-02T09:01:17.489Z</time></trkpt><trkpt lat="42.2372517" lon="12.589425"><ele>163.0</ele><time>2026-05-02T09:01:18.489Z</time></trkpt><trkpt lat="42.237385" lon="12.5892533"><ele>161.33333333333334</ele><time>2026-05-02T09:01:19.489Z</time></trkpt><trkpt lat="42.2375233" lon="12.5890783"><ele>159.66666666666666</ele><time>2026-05-02T09:01:20.489Z</time></trkpt><trkpt lat="42.2376583" lon="12.5889"><ele>158.0</ele><time>2026-05-02T09:01:21.489Z</time></trkpt><trkpt lat="42.2377983" lon="12.588725"><ele>157.0</ele><time>2026-05-02T09:01:22.489Z</time></trkpt><trkpt lat="42.2379417" lon="12.5885583"><ele>156.0</ele><time>2026-05-02T09:01:23.489Z</time></trkpt><trkpt lat="42.2380767" lon="12.5883933"><ele>155.0</ele><time>2026-05-02T09:01:24.489Z</time></trkpt><trkpt lat="42.238205" lon="12.588225"><ele>155.0</ele><time>2026-05-02T09:01:25.489Z</time></trkpt><trkpt lat="42.2383333" lon="12.588055"><ele>155.0</ele><time>2026-05-02T09:01:26.489Z</time></trkpt><trkpt lat="42.238465" lon="12.5878767"><ele>155.0</ele><time>2026-05-02T09:01:27.489Z</time></trkpt><trkpt lat="42.2386" lon="12.5877117"><ele>154.33333333333331</ele><time>2026-05-02T09:01:28.489Z</time></trkpt><trkpt lat="42.23874" lon="12.58754"><ele>153.66666666666666</ele><time>2026-05-02T09:01:29.489Z</time></trkpt><trkpt lat="42.2388817" lon="12.587365"><ele>153.0</ele><time>2026-05-02T09:01:30.49Z</time></trkpt><trkpt lat="42.2390217" lon="12.5871917"><ele>153.0</ele><time>2026-05-02T09:01:31.489Z</time></trkpt><trkpt lat="42.2391617" lon="12.58702"><ele>153.0</ele><time>2026-05-02T09:01:32.489Z</time></trkpt><trkpt lat="42.2393067" lon="12.58684"><ele>153.0</ele><time>2026-05-02T09:01:33.489Z</time></trkpt><trkpt lat="42.239455" lon="12.5866617"><ele>154.66666666666666</ele><time>2026-05-02T09:01:34.489Z</time></trkpt><trkpt lat="42.239605" lon="12.586485"><ele>156.33333333333331</ele><time>2026-05-02T09:01:35.489Z</time></trkpt><trkpt lat="42.239765" lon="12.5863183"><ele>158.0</ele><time>2026-05-02T09:01:36.489Z</time></trkpt><trkpt lat="42.2399233" lon="12.5861583"><ele>153.66666666666666</ele><time>2026-05-02T09:01:37.489Z</time></trkpt><trkpt lat="42.2400817" lon="12.5859967"><ele>149.33333333333334</ele><time>2026-05-02T09:01:38.489Z</time></trkpt><trkpt lat="42.240235" lon="12.5858467"><ele>145.0</ele><time>2026-05-02T09:01:39.489Z</time></trkpt><trkpt lat="42.24039" lon="12.5856967"><ele>145.0</ele><time>2026-05-02T09:01:40.489Z</time></trkpt><trkpt lat="42.2405383" lon="12.5855433"><ele>145.0</ele><time>2026-05-02T09:01:41.489Z</time></trkpt><trkpt lat="42.2406917" lon="12.5854033"><ele>145.0</ele><time>2026-05-02T09:01:42.489Z</time></trkpt><trkpt lat="42.2408467" lon="12.5852717"><ele>140.0</ele><time>2026-05-02T09:01:43.489Z</time></trkpt><trkpt lat="42.2410017" lon="12.5851433"><ele>135.0</ele><time>2026-05-02T09:01:44.489Z</time></trkpt><trkpt lat="42.241155" lon="12.585015"><ele>130.0</ele><time>2026-05-02T09:01:45.489Z</time></trkpt><trkpt lat="42.2413033" lon="12.5848917"><ele>130.0</ele><time>2026-05-02T09:01:46.489Z</time></trkpt><trkpt lat="42.2414533" lon="12.5847633"><ele>130.0</ele><time>2026-05-02T09:01:47.489Z</time></trkpt><trkpt lat="42.2416067" lon="12.584645"><ele>130.0</ele><time>2026-05-02T09:01:48.489Z</time></trkpt><trkpt lat="42.2417683" lon="12.5845317"><ele>129.66666666666669</ele><time>2026-05-02T09:01:49.489Z</time></trkpt><trkpt lat="42.2419267" lon="12.5844117"><ele>129.33333333333334</ele><time>2026-05-02T09:01:50.489Z</time></trkpt><trkpt lat="42.242085" lon="12.5842933"><ele>129.0</ele><time>2026-05-02T09:01:51.489Z</time></trkpt><trkpt lat="42.2422333" lon="12.5841717"><ele>135.66666666666666</ele><time>2026-05-02T09:01:52.489Z</time></trkpt><trkpt lat="42.24238" lon="12.5840533"><ele>142.33333333333331</ele><time>2026-05-02T09:01:53.49Z</time></trkpt><trkpt lat="42.2425217" lon="12.5839317"><ele>149.0</ele><time>2026-05-02T09:01:54.49Z</time></trkpt><trkpt lat="42.242675" lon="12.5838133"><ele>149.0</ele><time>2026-05-02T09:01:55.489Z</time></trkpt><trkpt lat="42.2428167" lon="12.5836883"><ele>149.0</ele><time>2026-05-02T09:01:56.489Z</time></trkpt><trkpt lat="42.24296" lon="12.5835733"><ele>149.0</ele><time>2026-05-02T09:01:57.49Z</time></trkpt><trkpt lat="42.243105" lon="12.5834567"><ele>146.0</ele><time>2026-05-02T09:01:58.489Z</time></trkpt><trkpt lat="42.243245" lon="12.58334"><ele>143.0</ele><time>2026-05-02T09:01:59.489Z</time></trkpt><trkpt lat="42.2433883" lon="12.5832233"><ele>140.0</ele><time>2026-05-02T09:02:00.489Z</time></trkpt><trkpt lat="42.24353" lon="12.5831"><ele>140.0</ele><time>2026-05-02T09:02:01.489Z</time></trkpt><trkpt lat="42.2436767" lon="12.5829767"><ele>140.0</ele><time>2026-05-02T09:02:02.489Z</time></trkpt><trkpt lat="42.2438267" lon="12.5828533"><ele>140.0</ele><time>2026-05-02T09:02:03.489Z</time></trkpt><trkpt lat="42.243975" lon="12.582725"><ele>134.66666666666666</ele><time>2026-05-02T09:02:04.489Z</time></trkpt><trkpt lat="42.2441267" lon="12.5825917"><ele>129.33333333333334</ele><time>2026-05-02T09:02:05.49Z</time></trkpt><trkpt lat="42.2442767" lon="12.582455"><ele>124.0</ele><time>2026-05-02T09:02:06.489Z</time></trkpt><trkpt lat="42.2444317" lon="12.582325"><ele>124.0</ele><time>2026-05-02T09:02:07.489Z</time></trkpt><trkpt lat="42.2445833" lon="12.582185"><ele>124.0</ele><time>2026-05-02T09:02:08.489Z</time></trkpt><trkpt lat="42.244735" lon="12.5820467"><ele>124.0</ele><time>2026-05-02T09:02:09.49Z</time></trkpt><trkpt lat="42.2448833" lon="12.58191"><ele>123.33333333333334</ele><time>2026-05-02T09:02:10.489Z</time></trkpt><trkpt lat="42.2450267" lon="12.58178"><ele>122.66666666666666</ele><time>2026-05-02T09:02:11.489Z</time></trkpt><trkpt lat="42.2451667" lon="12.5816533"><ele>122.0</ele><time>2026-05-02T09:02:12.489Z</time></trkpt><trkpt lat="42.2453117" lon="12.58152"><ele>122.0</ele><time>2026-05-02T09:02:13.49Z</time></trkpt><trkpt lat="42.2454567" lon="12.5813917"><ele>122.0</ele><time>2026-05-02T09:02:14.489Z</time></trkpt><trkpt lat="42.2455983" lon="12.58126"><ele>122.0</ele><time>2026-05-02T09:02:15.489Z</time></trkpt><trkpt lat="42.2457417" lon="12.5811333"><ele>122.0</ele><time>2026-05-02T09:02:16.489Z</time></trkpt><trkpt lat="42.2458767" lon="12.5809983"><ele>122.0</ele><time>2026-05-02T09:02:17.489Z</time></trkpt><trkpt lat="42.246015" lon="12.5808683"><ele>122.0</ele><time>2026-05-02T09:02:18.489Z</time></trkpt><trkpt lat="42.2461583" lon="12.5807317"><ele>122.0</ele><time>2026-05-02T09:02:19.489Z</time></trkpt><trkpt lat="42.24631" lon="12.580605"><ele>122.0</ele><time>2026-05-02T09:02:20.49Z</time></trkpt><trkpt lat="42.2464633" lon="12.5804683"><ele>122.0</ele><time>2026-05-02T09:02:21.489Z</time></trkpt><trkpt lat="42.24662" lon="12.5803233"><ele>119.66666666666666</ele><time>2026-05-02T09:02:22.489Z</time></trkpt><trkpt lat="42.2467767" lon="12.5801633"><ele>117.33333333333334</ele><time>2026-05-02T09:02:23.489Z</time></trkpt><trkpt lat="42.2469433" lon="12.5799967"><ele>115.0</ele><time>2026-05-02T09:02:24.489Z</time></trkpt><trkpt lat="42.2471117" lon="12.57982"><ele>115.0</ele><time>2026-05-02T09:02:25.489Z</time></trkpt><trkpt lat="42.2472767" lon="12.5796383"><ele>115.0</ele><time>2026-05-02T09:02:26.489Z</time></trkpt><trkpt lat="42.24745" lon="12.5794483"><ele>115.0</ele><time>2026-05-02T09:02:27.489Z</time></trkpt><trkpt lat="42.2476317" lon="12.5792717"><ele>114.33333333333334</ele><time>2026-05-02T09:02:28.489Z</time></trkpt><trkpt lat="42.24781" lon="12.57908"><ele>113.66666666666666</ele><time>2026-05-02T09:02:29.49Z</time></trkpt><trkpt lat="42.2479733" lon="12.578885"><ele>113.0</ele><time>2026-05-02T09:02:30.49Z</time></trkpt><trkpt lat="42.2481333" lon="12.578685"><ele>114.0</ele><time>2026-05-02T09:02:31.489Z</time></trkpt><trkpt lat="42.2482867" lon="12.57848"><ele>115.0</ele><time>2026-05-02T09:02:32.489Z</time></trkpt><trkpt lat="42.2484317" lon="12.5782733"><ele>116.0</ele><time>2026-05-02T09:02:33.489Z</time></trkpt><trkpt lat="42.248565" lon="12.57807"><ele>111.33333333333333</ele><time>2026-05-02T09:02:34.489Z</time></trkpt><trkpt lat="42.248695" lon="12.5778483"><ele>106.66666666666666</ele><time>2026-05-02T09:02:35.489Z</time></trkpt><trkpt lat="42.2488167" lon="12.577625"><ele>102.0</ele><time>2026-05-02T09:02:36.489Z</time></trkpt><trkpt lat="42.2489283" lon="12.5773883"><ele>102.66666666666666</ele><time>2026-05-02T09:02:37.489Z</time></trkpt><trkpt lat="42.24904" lon="12.57716"><ele>103.33333333333333</ele><time>2026-05-02T09:02:38.489Z</time></trkpt><trkpt lat="42.2491467" lon="12.5769167"><ele>104.0</ele><time>2026-05-02T09:02:39.489Z</time></trkpt><trkpt lat="42.2492483" lon="12.5766817"><ele>104.0</ele><time>2026-05-02T09:02:40.489Z</time></trkpt><trkpt lat="42.2493367" lon="12.57645"><ele>104.0</ele><time>2026-05-02T09:02:41.489Z</time></trkpt><trkpt lat="42.2494283" lon="12.576215"><ele>104.0</ele><time>2026-05-02T09:02:42.489Z</time></trkpt><trkpt lat="42.249525" lon="12.5759817"><ele>101.33333333333333</ele><time>2026-05-02T09:02:43.489Z</time></trkpt><trkpt lat="42.2496" lon="12.5757283"><ele>98.66666666666666</ele><time>2026-05-02T09:02:44.489Z</time></trkpt><trkpt lat="42.24967" lon="12.575485"><ele>96.0</ele><time>2026-05-02T09:02:45.489Z</time></trkpt><trkpt lat="42.2497383" lon="12.5752317"><ele>99.0</ele><time>2026-05-02T09:02:46.49Z</time></trkpt><trkpt lat="42.2498067" lon="12.5749817"><ele>102.0</ele><time>2026-05-02T09:02:47.489Z</time></trkpt><trkpt lat="42.2498683" lon="12.57472"><ele>105.0</ele><time>2026-05-02T09:02:48.489Z</time></trkpt><trkpt lat="42.2499917" lon="12.5742033"><ele>105.0</ele><time>2026-05-02T09:02:50.489Z</time></trkpt><trkpt lat="42.2500467" lon="12.5739467"><ele>105.0</ele><time>2026-05-02T09:02:51.489Z</time></trkpt><trkpt lat="42.2501017" lon="12.5736917"><ele>105.0</ele><time>2026-05-02T09:02:52.489Z</time></trkpt><trkpt lat="42.2501633" lon="12.5734367"><ele>103.66666666666666</ele><time>2026-05-02T09:02:53.489Z</time></trkpt><trkpt lat="42.2502283" lon="12.5731833"><ele>102.33333333333333</ele><time>2026-05-02T09:02:54.489Z</time></trkpt><trkpt lat="42.25029" lon="12.572925"><ele>101.0</ele><time>2026-05-02T09:02:55.489Z</time></trkpt><trkpt lat="42.2503483" lon="12.57267"><ele>99.0</ele><time>2026-05-02T09:02:56.489Z</time></trkpt><trkpt lat="42.2504133" lon="12.57242"><ele>97.0</ele><time>2026-05-02T09:02:57.489Z</time></trkpt><trkpt lat="42.2504867" lon="12.5721667"><ele>95.0</ele><time>2026-05-02T09:02:58.489Z</time></trkpt><trkpt lat="42.2505483" lon="12.571915"><ele>94.33333333333334</ele><time>2026-05-02T09:02:59.489Z</time></trkpt><trkpt lat="42.2506067" lon="12.5716667"><ele>93.66666666666667</ele><time>2026-05-02T09:03:00.489Z</time></trkpt><trkpt lat="42.250675" lon="12.5714167"><ele>93.0</ele><time>2026-05-02T09:03:01.489Z</time></trkpt><trkpt lat="42.2507433" lon="12.57117"><ele>96.66666666666666</ele><time>2026-05-02T09:03:02.489Z</time></trkpt><trkpt lat="42.2508167" lon="12.5709267"><ele>100.33333333333333</ele><time>2026-05-02T09:03:03.489Z</time></trkpt><trkpt lat="42.25089" lon="12.57069"><ele>104.0</ele><time>2026-05-02T09:03:04.489Z</time></trkpt><trkpt lat="42.250965" lon="12.5704417"><ele>99.33333333333333</ele><time>2026-05-02T09:03:05.489Z</time></trkpt><trkpt lat="42.25104" lon="12.5702"><ele>94.66666666666666</ele><time>2026-05-02T09:03:06.489Z</time></trkpt><trkpt lat="42.251115" lon="12.56995"><ele>90.0</ele><time>2026-05-02T09:03:07.489Z</time></trkpt><trkpt lat="42.2512017" lon="12.5697117"><ele>89.0</ele><time>2026-05-02T09:03:08.489Z</time></trkpt><trkpt lat="42.2512883" lon="12.569485"><ele>88.0</ele><time>2026-05-02T09:03:09.49Z</time></trkpt><trkpt lat="42.25138" lon="12.569245"><ele>87.0</ele><time>2026-05-02T09:03:10.489Z</time></trkpt><trkpt lat="42.2514667" lon="12.5689983"><ele>87.0</ele><time>2026-05-02T09:03:11.489Z</time></trkpt><trkpt lat="42.2515483" lon="12.5687483"><ele>87.0</ele><time>2026-05-02T09:03:12.489Z</time></trkpt><trkpt lat="42.2516283" lon="12.5684983"><ele>87.0</ele><time>2026-05-02T09:03:13.489Z</time></trkpt><trkpt lat="42.25171" lon="12.5682467"><ele>86.33333333333333</ele><time>2026-05-02T09:03:14.489Z</time></trkpt><trkpt lat="42.2517967" lon="12.5680017"><ele>85.66666666666666</ele><time>2026-05-02T09:03:15.489Z</time></trkpt><trkpt lat="42.2518817" lon="12.567755"><ele>85.0</ele><time>2026-05-02T09:03:16.489Z</time></trkpt><trkpt lat="42.2519667" lon="12.5675167"><ele>84.0</ele><time>2026-05-02T09:03:17.489Z</time></trkpt><trkpt lat="42.25205" lon="12.5672717"><ele>83.0</ele><time>2026-05-02T09:03:18.489Z</time></trkpt><trkpt lat="42.2521417" lon="12.5670217"><ele>82.0</ele><time>2026-05-02T09:03:19.489Z</time></trkpt><trkpt lat="42.2522233" lon="12.566775"><ele>84.0</ele><time>2026-05-02T09:03:20.489Z</time></trkpt><trkpt lat="42.2523083" lon="12.5665233"><ele>86.0</ele><time>2026-05-02T09:03:21.489Z</time></trkpt><trkpt lat="42.2523933" lon="12.56627"><ele>88.0</ele><time>2026-05-02T09:03:22.489Z</time></trkpt><trkpt lat="42.25248" lon="12.5660117"><ele>88.0</ele><time>2026-05-02T09:03:23.489Z</time></trkpt><trkpt lat="42.2525617" lon="12.5657617"><ele>88.0</ele><time>2026-05-02T09:03:24.489Z</time></trkpt><trkpt lat="42.2526433" lon="12.56551"><ele>88.0</ele><time>2026-05-02T09:03:25.489Z</time></trkpt><trkpt lat="42.2527233" lon="12.565255"><ele>85.33333333333333</ele><time>2026-05-02T09:03:26.489Z</time></trkpt><trkpt lat="42.2528067" lon="12.5650033"><ele>82.66666666666667</ele><time>2026-05-02T09:03:27.489Z</time></trkpt><trkpt lat="42.2528933" lon="12.5647517"><ele>80.0</ele><time>2026-05-02T09:03:28.489Z</time></trkpt><trkpt lat="42.25298" lon="12.5645067"><ele>80.0</ele><time>2026-05-02T09:03:29.489Z</time></trkpt><trkpt lat="42.2530617" lon="12.56426"><ele>80.0</ele><time>2026-05-02T09:03:30.489Z</time></trkpt><trkpt lat="42.25314" lon="12.56401"><ele>80.0</ele><time>2026-05-02T09:03:31.489Z</time></trkpt><trkpt lat="42.2532233" lon="12.5637567"><ele>83.33333333333334</ele><time>2026-05-02T09:03:32.489Z</time></trkpt><trkpt lat="42.2533083" lon="12.5635067"><ele>86.66666666666667</ele><time>2026-05-02T09:03:33.489Z</time></trkpt><trkpt lat="42.253395" lon="12.563255"><ele>90.0</ele><time>2026-05-02T09:03:34.49Z</time></trkpt><trkpt lat="42.2534817" lon="12.5629983"><ele>88.0</ele><time>2026-05-02T09:03:35.489Z</time></trkpt><trkpt lat="42.2535717" lon="12.5627417"><ele>86.0</ele><time>2026-05-02T09:03:36.489Z</time></trkpt><trkpt lat="42.253655" lon="12.5624833"><ele>84.0</ele><time>2026-05-02T09:03:37.489Z</time></trkpt><trkpt lat="42.2537417" lon="12.56223"><ele>81.0</ele><time>2026-05-02T09:03:38.489Z</time></trkpt><trkpt lat="42.253825" lon="12.5619733"><ele>78.0</ele><time>2026-05-02T09:03:39.489Z</time></trkpt><trkpt lat="42.25391" lon="12.5617217"><ele>75.0</ele><time>2026-05-02T09:03:40.489Z</time></trkpt><trkpt lat="42.253995" lon="12.561475"><ele>77.33333333333333</ele><time>2026-05-02T09:03:41.489Z</time></trkpt><trkpt lat="42.2540817" lon="12.5612267"><ele>79.66666666666666</ele><time>2026-05-02T09:03:42.489Z</time></trkpt><trkpt lat="42.2541633" lon="12.560975"><ele>82.0</ele><time>2026-05-02T09:03:43.489Z</time></trkpt><trkpt lat="42.2542433" lon="12.5607233"><ele>82.0</ele><time>2026-05-02T09:03:44.489Z</time></trkpt><trkpt lat="42.2543183" lon="12.560485"><ele>82.0</ele><time>2026-05-02T09:03:45.489Z</time></trkpt><trkpt lat="42.2544017" lon="12.56025"><ele>82.0</ele><time>2026-05-02T09:03:46.489Z</time></trkpt><trkpt lat="42.2544867" lon="12.56002"><ele>79.33333333333333</ele><time>2026-05-02T09:03:47.489Z</time></trkpt><trkpt lat="42.2545683" lon="12.55979"><ele>76.66666666666667</ele><time>2026-05-02T09:03:48.489Z</time></trkpt><trkpt lat="42.254655" lon="12.5595583"><ele>74.0</ele><time>2026-05-02T09:03:49.489Z</time></trkpt><trkpt lat="42.2547283" lon="12.5593283"><ele>72.66666666666667</ele><time>2026-05-02T09:03:50.489Z</time></trkpt><trkpt lat="42.2548" lon="12.559095"><ele>71.33333333333333</ele><time>2026-05-02T09:03:51.489Z</time></trkpt><trkpt lat="42.254875" lon="12.5588633"><ele>70.0</ele><time>2026-05-02T09:03:52.489Z</time></trkpt><trkpt lat="42.254955" lon="12.5586283"><ele>70.0</ele><time>2026-05-02T09:03:53.489Z</time></trkpt><trkpt lat="42.2550317" lon="12.5583933"><ele>70.0</ele><time>2026-05-02T09:03:54.489Z</time></trkpt><trkpt lat="42.2551167" lon="12.5581617"><ele>70.0</ele><time>2026-05-02T09:03:55.489Z</time></trkpt><trkpt lat="42.2552033" lon="12.5579217"><ele>69.0</ele><time>2026-05-02T09:03:56.489Z</time></trkpt><trkpt lat="42.2553017" lon="12.5576817"><ele>68.0</ele><time>2026-05-02T09:03:57.489Z</time></trkpt><trkpt lat="42.2553983" lon="12.5574333"><ele>67.0</ele><time>2026-05-02T09:03:58.489Z</time></trkpt><trkpt lat="42.2555133" lon="12.5571967"><ele>67.0</ele><time>2026-05-02T09:03:59.489Z</time></trkpt><trkpt lat="42.255635" lon="12.55697"><ele>67.0</ele><time>2026-05-02T09:04:00.489Z</time></trkpt><trkpt lat="42.2557683" lon="12.5567483"><ele>67.0</ele><time>2026-05-02T09:04:01.489Z</time></trkpt><trkpt lat="42.25591" lon="12.556535"><ele>67.0</ele><time>2026-05-02T09:04:02.489Z</time></trkpt><trkpt lat="42.2560633" lon="12.5563317"><ele>67.0</ele><time>2026-05-02T09:04:03.489Z</time></trkpt><trkpt lat="42.2562217" lon="12.5561467"><ele>67.0</ele><time>2026-05-02T09:04:04.489Z</time></trkpt><trkpt lat="42.2563883" lon="12.55597"><ele>67.0</ele><time>2026-05-02T09:04:05.489Z</time></trkpt><trkpt lat="42.2565667" lon="12.555805"><ele>67.0</ele><time>2026-05-02T09:04:06.489Z</time></trkpt><trkpt lat="42.2567417" lon="12.5556433"><ele>67.0</ele><time>2026-05-02T09:04:07.489Z</time></trkpt><trkpt lat="42.256925" lon="12.5555067"><ele>67.0</ele><time>2026-05-02T09:04:08.489Z</time></trkpt><trkpt lat="42.2571133" lon="12.5553817"><ele>67.0</ele><time>2026-05-02T09:04:09.489Z</time></trkpt><trkpt lat="42.2573033" lon="12.555265"><ele>67.0</ele><time>2026-05-02T09:04:10.489Z</time></trkpt><trkpt lat="42.2575033" lon="12.555165"><ele>65.66666666666666</ele><time>2026-05-02T09:04:11.489Z</time></trkpt><trkpt lat="42.2577017" lon="12.5550733"><ele>64.33333333333333</ele><time>2026-05-02T09:04:12.489Z</time></trkpt><trkpt lat="42.2578967" lon="12.5549917"><ele>63.0</ele><time>2026-05-02T09:04:13.489Z</time></trkpt><trkpt lat="42.2580933" lon="12.55491"><ele>63.0</ele><time>2026-05-02T09:04:14.489Z</time></trkpt><trkpt lat="42.25829" lon="12.5548217"><ele>63.0</ele><time>2026-05-02T09:04:15.489Z</time></trkpt><trkpt lat="42.2584917" lon="12.55473"><ele>63.0</ele><time>2026-05-02T09:04:16.489Z</time></trkpt><trkpt lat="42.2586967" lon="12.554635"><ele>63.0</ele><time>2026-05-02T09:04:17.489Z</time></trkpt><trkpt lat="42.2589017" lon="12.55454"><ele>63.0</ele><time>2026-05-02T09:04:18.489Z</time></trkpt><trkpt lat="42.2591067" lon="12.5544467"><ele>63.0</ele><time>2026-05-02T09:04:19.489Z</time></trkpt><trkpt lat="42.2593133" lon="12.5543517"><ele>61.66666666666667</ele><time>2026-05-02T09:04:20.49Z</time></trkpt><trkpt lat="42.25952" lon="12.5542567"><ele>60.333333333333336</ele><time>2026-05-02T09:04:21.489Z</time></trkpt><trkpt lat="42.25973" lon="12.554165"><ele>59.0</ele><time>2026-05-02T09:04:22.49Z</time></trkpt><trkpt lat="42.259935" lon="12.554075"><ele>59.0</ele><time>2026-05-02T09:04:23.489Z</time></trkpt><trkpt lat="42.26014" lon="12.5539883"><ele>59.0</ele><time>2026-05-02T09:04:24.489Z</time></trkpt><trkpt lat="42.2603433" lon="12.5539033"><ele>59.0</ele><time>2026-05-02T09:04:25.489Z</time></trkpt><trkpt lat="42.2605417" lon="12.553815"><ele>59.66666666666667</ele><time>2026-05-02T09:04:26.489Z</time></trkpt><trkpt lat="42.26074" lon="12.553725"><ele>60.33333333333333</ele><time>2026-05-02T09:04:27.489Z</time></trkpt><trkpt lat="42.2609367" lon="12.5536367"><ele>61.0</ele><time>2026-05-02T09:04:28.489Z</time></trkpt><trkpt lat="42.2611283" lon="12.5535433"><ele>59.0</ele><time>2026-05-02T09:04:29.489Z</time></trkpt><trkpt lat="42.2613283" lon="12.553455"><ele>57.0</ele><time>2026-05-02T09:04:30.489Z</time></trkpt><trkpt lat="42.2615283" lon="12.5533733"><ele>55.0</ele><time>2026-05-02T09:04:31.489Z</time></trkpt><trkpt lat="42.2617267" lon="12.5532817"><ele>55.0</ele><time>2026-05-02T09:04:32.489Z</time></trkpt><trkpt lat="42.2619217" lon="12.553185"><ele>55.0</ele><time>2026-05-02T09:04:33.489Z</time></trkpt><trkpt lat="42.2621217" lon="12.5530933"><ele>55.0</ele><time>2026-05-02T09:04:34.489Z</time></trkpt><trkpt lat="42.2623217" lon="12.5530017"><ele>56.0</ele><time>2026-05-02T09:04:35.489Z</time></trkpt><trkpt lat="42.2625217" lon="12.5529083"><ele>57.0</ele><time>2026-05-02T09:04:36.489Z</time></trkpt><trkpt lat="42.2627267" lon="12.5528167"><ele>58.0</ele><time>2026-05-02T09:04:37.489Z</time></trkpt><trkpt lat="42.26293" lon="12.5527217"><ele>54.33333333333333</ele><time>2026-05-02T09:04:38.489Z</time></trkpt><trkpt lat="42.26313" lon="12.5526267"><ele>50.666666666666664</ele><time>2026-05-02T09:04:39.489Z</time></trkpt><trkpt lat="42.2633317" lon="12.552545"><ele>47.0</ele><time>2026-05-02T09:04:40.489Z</time></trkpt><trkpt lat="42.26353" lon="12.5524583"><ele>47.0</ele><time>2026-05-02T09:04:41.489Z</time></trkpt><trkpt lat="42.26373" lon="12.5523767"><ele>47.0</ele><time>2026-05-02T09:04:42.489Z</time></trkpt><trkpt lat="42.263925" lon="12.55229"><ele>47.0</ele><time>2026-05-02T09:04:43.489Z</time></trkpt><trkpt lat="42.2641217" lon="12.5522067"><ele>46.666666666666664</ele><time>2026-05-02T09:04:44.489Z</time></trkpt><trkpt lat="42.264315" lon="12.5521233"><ele>46.333333333333336</ele><time>2026-05-02T09:04:45.489Z</time></trkpt><trkpt lat="42.2645083" lon="12.5520333"><ele>46.0</ele><time>2026-05-02T09:04:46.489Z</time></trkpt><trkpt lat="42.2646983" lon="12.5519417"><ele>46.333333333333336</ele><time>2026-05-02T09:04:47.489Z</time></trkpt><trkpt lat="42.2648883" lon="12.551855"><ele>46.666666666666664</ele><time>2026-05-02T09:04:48.489Z</time></trkpt><trkpt lat="42.2650767" lon="12.5517667"><ele>47.0</ele><time>2026-05-02T09:04:49.49Z</time></trkpt><trkpt lat="42.26527" lon="12.5516717"><ele>47.0</ele><time>2026-05-02T09:04:50.489Z</time></trkpt><trkpt lat="42.2654633" lon="12.5515883"><ele>47.0</ele><time>2026-05-02T09:04:51.49Z</time></trkpt><trkpt lat="42.2656517" lon="12.5515033"><ele>47.0</ele><time>2026-05-02T09:04:52.489Z</time></trkpt><trkpt lat="42.265845" lon="12.5514083"><ele>46.666666666666664</ele><time>2026-05-02T09:04:53.49Z</time></trkpt><trkpt lat="42.266045" lon="12.5513217"><ele>46.333333333333336</ele><time>2026-05-02T09:04:54.489Z</time></trkpt><trkpt lat="42.2662417" lon="12.5512333"><ele>46.0</ele><time>2026-05-02T09:04:55.489Z</time></trkpt><trkpt lat="42.2664367" lon="12.5511433"><ele>46.0</ele><time>2026-05-02T09:04:56.49Z</time></trkpt><trkpt lat="42.266635" lon="12.5510617"><ele>46.0</ele><time>2026-05-02T09:04:57.489Z</time></trkpt><trkpt lat="42.2668333" lon="12.5509817"><ele>46.0</ele><time>2026-05-02T09:04:58.489Z</time></trkpt><trkpt lat="42.2670267" lon="12.5508933"><ele>46.0</ele><time>2026-05-02T09:04:59.489Z</time></trkpt><trkpt lat="42.2672167" lon="12.5508067"><ele>46.0</ele><time>2026-05-02T09:05:00.489Z</time></trkpt><trkpt lat="42.2674083" lon="12.550715"><ele>46.0</ele><time>2026-05-02T09:05:01.489Z</time></trkpt><trkpt lat="42.2676" lon="12.5506167"><ele>45.333333333333336</ele><time>2026-05-02T09:05:02.489Z</time></trkpt><trkpt lat="42.267795" lon="12.550525"><ele>44.666666666666664</ele><time>2026-05-02T09:05:03.489Z</time></trkpt><trkpt lat="42.26799" lon="12.55042"><ele>44.0</ele><time>2026-05-02T09:05:04.489Z</time></trkpt><trkpt lat="42.2681833" lon="12.5503083"><ele>43.666666666666664</ele><time>2026-05-02T09:05:05.489Z</time></trkpt><trkpt lat="42.2683767" lon="12.5501867"><ele>43.333333333333336</ele><time>2026-05-02T09:05:06.49Z</time></trkpt><trkpt lat="42.2685583" lon="12.550055"><ele>43.0</ele><time>2026-05-02T09:05:07.489Z</time></trkpt><trkpt lat="42.2687383" lon="12.5499067"><ele>43.0</ele><time>2026-05-02T09:05:08.489Z</time></trkpt><trkpt lat="42.26891" lon="12.5497517"><ele>43.0</ele><time>2026-05-02T09:05:09.489Z</time></trkpt><trkpt lat="42.2690783" lon="12.5495883"><ele>43.0</ele><time>2026-05-02T09:05:10.489Z</time></trkpt><trkpt lat="42.2692433" lon="12.5494133"><ele>43.66666666666667</ele><time>2026-05-02T09:05:11.489Z</time></trkpt><trkpt lat="42.2694033" lon="12.5492283"><ele>44.333333333333336</ele><time>2026-05-02T09:05:12.489Z</time></trkpt><trkpt lat="42.2695533" lon="12.54903"><ele>45.0</ele><time>2026-05-02T09:05:13.489Z</time></trkpt><trkpt lat="42.2696967" lon="12.54882"><ele>46.0</ele><time>2026-05-02T09:05:14.489Z</time></trkpt><trkpt lat="42.2698367" lon="12.5486067"><ele>47.0</ele><time>2026-05-02T09:05:15.489Z</time></trkpt><trkpt lat="42.2699683" lon="12.5483783"><ele>48.0</ele><time>2026-05-02T09:05:16.489Z</time></trkpt><trkpt lat="42.2701" lon="12.54815"><ele>48.0</ele><time>2026-05-02T09:05:17.489Z</time></trkpt><trkpt lat="42.2702117" lon="12.5479067"><ele>48.0</ele><time>2026-05-02T09:05:18.489Z</time></trkpt><trkpt lat="42.2703267" lon="12.5476567"><ele>48.0</ele><time>2026-05-02T09:05:19.489Z</time></trkpt><trkpt lat="42.2704433" lon="12.5474117"><ele>49.0</ele><time>2026-05-02T09:05:20.489Z</time></trkpt><trkpt lat="42.27056" lon="12.547165"><ele>50.0</ele><time>2026-05-02T09:05:21.489Z</time></trkpt><trkpt lat="42.2706817" lon="12.5469117"><ele>51.0</ele><time>2026-05-02T09:05:22.489Z</time></trkpt><trkpt lat="42.2707933" lon="12.5466683"><ele>51.0</ele><time>2026-05-02T09:05:23.489Z</time></trkpt><trkpt lat="42.2709083" lon="12.5464167"><ele>51.0</ele><time>2026-05-02T09:05:24.489Z</time></trkpt><trkpt lat="42.27102" lon="12.5461667"><ele>51.0</ele><time>2026-05-02T09:05:25.489Z</time></trkpt><trkpt lat="42.2711333" lon="12.5459183"><ele>51.66666666666667</ele><time>2026-05-02T09:05:26.489Z</time></trkpt><trkpt lat="42.2712483" lon="12.54567"><ele>52.333333333333336</ele><time>2026-05-02T09:05:27.489Z</time></trkpt><trkpt lat="42.271365" lon="12.5454283"><ele>53.0</ele><time>2026-05-02T09:05:28.489Z</time></trkpt><trkpt lat="42.2714833" lon="12.5451867"><ele>50.0</ele><time>2026-05-02T09:05:29.489Z</time></trkpt><trkpt lat="42.2715933" lon="12.54495"><ele>47.0</ele><time>2026-05-02T09:05:30.489Z</time></trkpt><trkpt lat="42.271705" lon="12.5447133"><ele>44.0</ele><time>2026-05-02T09:05:31.489Z</time></trkpt><trkpt lat="42.2718183" lon="12.5444933"><ele>43.33333333333333</ele><time>2026-05-02T09:05:32.489Z</time></trkpt><trkpt lat="42.2719283" lon="12.54427"><ele>42.666666666666664</ele><time>2026-05-02T09:05:33.489Z</time></trkpt><trkpt lat="42.2720333" lon="12.5440483"><ele>42.0</ele><time>2026-05-02T09:05:34.489Z</time></trkpt><trkpt lat="42.272135" lon="12.5438317"><ele>43.0</ele><time>2026-05-02T09:05:35.489Z</time></trkpt><trkpt lat="42.2722367" lon="12.54361"><ele>44.0</ele><time>2026-05-02T09:05:36.489Z</time></trkpt><trkpt lat="42.2723333" lon="12.5433883"><ele>45.0</ele><time>2026-05-02T09:05:37.489Z</time></trkpt><trkpt lat="42.2724333" lon="12.5431717"><ele>45.0</ele><time>2026-05-02T09:05:38.489Z</time></trkpt><trkpt lat="42.27254" lon="12.5429567"><ele>45.0</ele><time>2026-05-02T09:05:39.489Z</time></trkpt><trkpt lat="42.2726483" lon="12.5427267"><ele>45.0</ele><time>2026-05-02T09:05:40.489Z</time></trkpt><trkpt lat="42.27276" lon="12.5424967"><ele>46.0</ele><time>2026-05-02T09:05:41.489Z</time></trkpt><trkpt lat="42.2728683" lon="12.54226"><ele>47.0</ele><time>2026-05-02T09:05:42.489Z</time></trkpt><trkpt lat="42.2729783" lon="12.542025"><ele>48.0</ele><time>2026-05-02T09:05:43.489Z</time></trkpt><trkpt lat="42.2730883" lon="12.54179"><ele>47.666666666666664</ele><time>2026-05-02T09:05:44.489Z</time></trkpt><trkpt lat="42.2732033" lon="12.5415567"><ele>47.33333333333333</ele><time>2026-05-02T09:05:45.489Z</time></trkpt><trkpt lat="42.2733117" lon="12.5413267"><ele>47.0</ele><time>2026-05-02T09:05:46.49Z</time></trkpt><trkpt lat="42.27342" lon="12.5410933"><ele>47.0</ele><time>2026-05-02T09:05:47.489Z</time></trkpt><trkpt lat="42.2735283" lon="12.5408717"><ele>47.0</ele><time>2026-05-02T09:05:48.489Z</time></trkpt><trkpt lat="42.2736317" lon="12.540635"><ele>47.0</ele><time>2026-05-02T09:05:49.49Z</time></trkpt><trkpt lat="42.273745" lon="12.5404117"><ele>46.666666666666664</ele><time>2026-05-02T09:05:50.489Z</time></trkpt><trkpt lat="42.2738483" lon="12.5401767"><ele>46.333333333333336</ele><time>2026-05-02T09:05:51.489Z</time></trkpt><trkpt lat="42.2739533" lon="12.5399533"><ele>46.0</ele><time>2026-05-02T09:05:52.49Z</time></trkpt><trkpt lat="42.27406" lon="12.5397283"><ele>44.66666666666667</ele><time>2026-05-02T09:05:53.489Z</time></trkpt><trkpt lat="42.2741683" lon="12.5395067"><ele>43.333333333333336</ele><time>2026-05-02T09:05:54.489Z</time></trkpt><trkpt lat="42.27427" lon="12.5392867"><ele>42.0</ele><time>2026-05-02T09:05:55.489Z</time></trkpt><trkpt lat="42.274375" lon="12.5390633"><ele>42.0</ele><time>2026-05-02T09:05:56.489Z</time></trkpt><trkpt lat="42.2744817" lon="12.538845"><ele>42.0</ele><time>2026-05-02T09:05:57.489Z</time></trkpt><trkpt lat="42.27458" lon="12.5386217"><ele>42.0</ele><time>2026-05-02T09:05:58.489Z</time></trkpt><trkpt lat="42.2746817" lon="12.5384067"><ele>42.0</ele><time>2026-05-02T09:05:59.489Z</time></trkpt><trkpt lat="42.2747867" lon="12.53818"><ele>42.0</ele><time>2026-05-02T09:06:00.489Z</time></trkpt><trkpt lat="42.2748933" lon="12.53795"><ele>42.0</ele><time>2026-05-02T09:06:01.489Z</time></trkpt><trkpt lat="42.275" lon="12.5377233"><ele>42.0</ele><time>2026-05-02T09:06:02.489Z</time></trkpt><trkpt lat="42.2751083" lon="12.5374983"><ele>42.0</ele><time>2026-05-02T09:06:03.489Z</time></trkpt><trkpt lat="42.2752133" lon="12.53727"><ele>42.0</ele><time>2026-05-02T09:06:04.489Z</time></trkpt><trkpt lat="42.2753217" lon="12.5370517"><ele>42.333333333333336</ele><time>2026-05-02T09:06:05.489Z</time></trkpt><trkpt lat="42.2754267" lon="12.5368233"><ele>42.66666666666667</ele><time>2026-05-02T09:06:06.49Z</time></trkpt><trkpt lat="42.2755317" lon="12.5365933"><ele>43.0</ele><time>2026-05-02T09:06:07.489Z</time></trkpt><trkpt lat="42.2756417" lon="12.5363683"><ele>43.66666666666667</ele><time>2026-05-02T09:06:08.489Z</time></trkpt><trkpt lat="42.27575" lon="12.53614"><ele>44.333333333333336</ele><time>2026-05-02T09:06:09.489Z</time></trkpt><trkpt lat="42.2758583" lon="12.53591"><ele>45.0</ele><time>2026-05-02T09:06:10.489Z</time></trkpt><trkpt lat="42.2759683" lon="12.5356783"><ele>45.0</ele><time>2026-05-02T09:06:11.49Z</time></trkpt><trkpt lat="42.2760783" lon="12.5354467"><ele>45.0</ele><time>2026-05-02T09:06:12.489Z</time></trkpt><trkpt lat="42.2761883" lon="12.535215"><ele>45.0</ele><time>2026-05-02T09:06:13.489Z</time></trkpt><trkpt lat="42.2762917" lon="12.534975"><ele>45.0</ele><time>2026-05-02T09:06:14.489Z</time></trkpt><trkpt lat="42.2763967" lon="12.534745"><ele>45.0</ele><time>2026-05-02T09:06:15.489Z</time></trkpt><trkpt lat="42.276505" lon="12.5345033"><ele>45.0</ele><time>2026-05-02T09:06:16.489Z</time></trkpt><trkpt lat="42.27662" lon="12.5342717"><ele>44.666666666666664</ele><time>2026-05-02T09:06:17.489Z</time></trkpt><trkpt lat="42.2767333" lon="12.5340333"><ele>44.33333333333333</ele><time>2026-05-02T09:06:18.489Z</time></trkpt><trkpt lat="42.276845" lon="12.533795"><ele>44.0</ele><time>2026-05-02T09:06:19.489Z</time></trkpt><trkpt lat="42.2769583" lon="12.5335483"><ele>44.0</ele><time>2026-05-02T09:06:20.489Z</time></trkpt><trkpt lat="42.2770717" lon="12.5333067"><ele>44.0</ele><time>2026-05-02T09:06:21.489Z</time></trkpt><trkpt lat="42.277185" lon="12.5330617"><ele>44.0</ele><time>2026-05-02T09:06:22.489Z</time></trkpt><trkpt lat="42.277295" lon="12.532815"><ele>43.33333333333333</ele><time>2026-05-02T09:06:23.489Z</time></trkpt><trkpt lat="42.2774117" lon="12.5325733"><ele>42.666666666666664</ele><time>2026-05-02T09:06:24.489Z</time></trkpt><trkpt lat="42.2775283" lon="12.5323333"><ele>42.0</ele><time>2026-05-02T09:06:25.489Z</time></trkpt><trkpt lat="42.277635" lon="12.5320967"><ele>42.666666666666664</ele><time>2026-05-02T09:06:26.489Z</time></trkpt><trkpt lat="42.27774" lon="12.5318633"><ele>43.33333333333333</ele><time>2026-05-02T09:06:27.489Z</time></trkpt><trkpt lat="42.2778467" lon="12.5316383"><ele>44.0</ele><time>2026-05-02T09:06:28.489Z</time></trkpt><trkpt lat="42.27795" lon="12.53142"><ele>43.666666666666664</ele><time>2026-05-02T09:06:29.489Z</time></trkpt><trkpt lat="42.2780417" lon="12.5312133"><ele>43.333333333333336</ele><time>2026-05-02T09:06:30.489Z</time></trkpt><trkpt lat="42.278135" lon="12.5310117"><ele>43.0</ele><time>2026-05-02T09:06:31.489Z</time></trkpt><trkpt lat="42.278235" lon="12.5308133"><ele>43.0</ele><time>2026-05-02T09:06:32.489Z</time></trkpt><trkpt lat="42.27833" lon="12.5305983"><ele>43.0</ele><time>2026-05-02T09:06:33.489Z</time></trkpt><trkpt lat="42.2784283" lon="12.5303867"><ele>43.0</ele><time>2026-05-02T09:06:34.489Z</time></trkpt><trkpt lat="42.2785317" lon="12.530175"><ele>44.66666666666667</ele><time>2026-05-02T09:06:35.489Z</time></trkpt><trkpt lat="42.2786383" lon="12.52996"><ele>46.333333333333336</ele><time>2026-05-02T09:06:36.489Z</time></trkpt><trkpt lat="42.2787417" lon="12.52974"><ele>48.0</ele><time>2026-05-02T09:06:37.489Z</time></trkpt><trkpt lat="42.278845" lon="12.5295267"><ele>48.33333333333333</ele><time>2026-05-02T09:06:38.489Z</time></trkpt><trkpt lat="42.2789483" lon="12.5293083"><ele>48.666666666666664</ele><time>2026-05-02T09:06:39.489Z</time></trkpt><trkpt lat="42.2790517" lon="12.5290883"><ele>49.0</ele><time>2026-05-02T09:06:40.489Z</time></trkpt><trkpt lat="42.279155" lon="12.5288667"><ele>49.666666666666664</ele><time>2026-05-02T09:06:41.489Z</time></trkpt><trkpt lat="42.2792533" lon="12.5286433"><ele>50.33333333333333</ele><time>2026-05-02T09:06:42.49Z</time></trkpt><trkpt lat="42.2793583" lon="12.5284233"><ele>51.0</ele><time>2026-05-02T09:06:43.489Z</time></trkpt><trkpt lat="42.279465" lon="12.5282"><ele>51.0</ele><time>2026-05-02T09:06:44.489Z</time></trkpt><trkpt lat="42.2795667" lon="12.5279767"><ele>51.0</ele><time>2026-05-02T09:06:45.489Z</time></trkpt><trkpt lat="42.2796717" lon="12.5277583"><ele>51.0</ele><time>2026-05-02T09:06:46.489Z</time></trkpt><trkpt lat="42.2797733" lon="12.527535"><ele>51.33333333333333</ele><time>2026-05-02T09:06:47.489Z</time></trkpt><trkpt lat="42.2798783" lon="12.5273067"><ele>51.666666666666664</ele><time>2026-05-02T09:06:48.489Z</time></trkpt><trkpt lat="42.27999" lon="12.5270833"><ele>52.0</ele><time>2026-05-02T09:06:49.489Z</time></trkpt><trkpt lat="42.280095" lon="12.526855"><ele>52.0</ele><time>2026-05-02T09:06:50.489Z</time></trkpt><trkpt lat="42.2801967" lon="12.52662"><ele>52.0</ele><time>2026-05-02T09:06:51.489Z</time></trkpt><trkpt lat="42.280305" lon="12.5263867"><ele>52.0</ele><time>2026-05-02T09:06:52.489Z</time></trkpt><trkpt lat="42.280415" lon="12.526155"><ele>52.33333333333333</ele><time>2026-05-02T09:06:53.49Z</time></trkpt><trkpt lat="42.2805233" lon="12.52592"><ele>52.66666666666667</ele><time>2026-05-02T09:06:54.489Z</time></trkpt><trkpt lat="42.2806367" lon="12.525685"><ele>53.0</ele><time>2026-05-02T09:06:55.489Z</time></trkpt><trkpt lat="42.28075" lon="12.5254517"><ele>54.333333333333336</ele><time>2026-05-02T09:06:56.489Z</time></trkpt><trkpt lat="42.28086" lon="12.5252083"><ele>55.66666666666667</ele><time>2026-05-02T09:06:57.489Z</time></trkpt><trkpt lat="42.280965" lon="12.524965"><ele>57.0</ele><time>2026-05-02T09:06:58.489Z</time></trkpt><trkpt lat="42.2810683" lon="12.5247367"><ele>57.33333333333333</ele><time>2026-05-02T09:06:59.489Z</time></trkpt><trkpt lat="42.2811683" lon="12.524515"><ele>57.666666666666664</ele><time>2026-05-02T09:07:00.489Z</time></trkpt><trkpt lat="42.2812733" lon="12.5242983"><ele>58.0</ele><time>2026-05-02T09:07:01.489Z</time></trkpt><trkpt lat="42.2813783" lon="12.5240783"><ele>56.666666666666664</ele><time>2026-05-02T09:07:02.489Z</time></trkpt><trkpt lat="42.281485" lon="12.52385"><ele>55.33333333333333</ele><time>2026-05-02T09:07:03.49Z</time></trkpt><trkpt lat="42.2815967" lon="12.523615"><ele>54.0</ele><time>2026-05-02T09:07:04.489Z</time></trkpt><trkpt lat="42.281715" lon="12.52338"><ele>54.0</ele><time>2026-05-02T09:07:05.489Z</time></trkpt><trkpt lat="42.2818317" lon="12.5231417"><ele>54.0</ele><time>2026-05-02T09:07:06.489Z</time></trkpt><trkpt lat="42.281945" lon="12.5228967"><ele>54.0</ele><time>2026-05-02T09:07:07.489Z</time></trkpt><trkpt lat="42.2820533" lon="12.5226517"><ele>54.0</ele><time>2026-05-02T09:07:08.489Z</time></trkpt><trkpt lat="42.2821583" lon="12.52241"><ele>54.0</ele><time>2026-05-02T09:07:09.489Z</time></trkpt><trkpt lat="42.2822617" lon="12.5221683"><ele>54.0</ele><time>2026-05-02T09:07:10.489Z</time></trkpt><trkpt lat="42.2823633" lon="12.521925"><ele>54.0</ele><time>2026-05-02T09:07:11.49Z</time></trkpt><trkpt lat="42.2824667" lon="12.5216817"><ele>54.0</ele><time>2026-05-02T09:07:12.489Z</time></trkpt><trkpt lat="42.282565" lon="12.52144"><ele>54.0</ele><time>2026-05-02T09:07:13.489Z</time></trkpt><trkpt lat="42.28266" lon="12.5211983"><ele>55.0</ele><time>2026-05-02T09:07:14.489Z</time></trkpt><trkpt lat="42.2827533" lon="12.5209567"><ele>56.0</ele><time>2026-05-02T09:07:15.489Z</time></trkpt><trkpt lat="42.2828483" lon="12.5207133"><ele>57.0</ele><time>2026-05-02T09:07:16.489Z</time></trkpt><trkpt lat="42.2829417" lon="12.520465"><ele>57.66666666666667</ele><time>2026-05-02T09:07:17.489Z</time></trkpt><trkpt lat="42.2830283" lon="12.520215"><ele>58.333333333333336</ele><time>2026-05-02T09:07:18.489Z</time></trkpt><trkpt lat="42.2831167" lon="12.51996"><ele>59.0</ele><time>2026-05-02T09:07:19.489Z</time></trkpt><trkpt lat="42.2832" lon="12.5197033"><ele>56.333333333333336</ele><time>2026-05-02T09:07:20.489Z</time></trkpt><trkpt lat="42.2832883" lon="12.5194417"><ele>53.66666666666667</ele><time>2026-05-02T09:07:21.489Z</time></trkpt><trkpt lat="42.2833717" lon="12.5191867"><ele>51.0</ele><time>2026-05-02T09:07:22.489Z</time></trkpt><trkpt lat="42.28345" lon="12.5189267"><ele>51.33333333333333</ele><time>2026-05-02T09:07:23.489Z</time></trkpt><trkpt lat="42.2835267" lon="12.5186533"><ele>51.666666666666664</ele><time>2026-05-02T09:07:24.489Z</time></trkpt><trkpt lat="42.2836083" lon="12.5183817"><ele>52.0</ele><time>2026-05-02T09:07:25.489Z</time></trkpt><trkpt lat="42.2836917" lon="12.5181083"><ele>52.33333333333333</ele><time>2026-05-02T09:07:26.489Z</time></trkpt><trkpt lat="42.2837783" lon="12.51783"><ele>52.66666666666667</ele><time>2026-05-02T09:07:27.489Z</time></trkpt><trkpt lat="42.2838617" lon="12.517555"><ele>53.0</ele><time>2026-05-02T09:07:28.489Z</time></trkpt><trkpt lat="42.2839467" lon="12.517285"><ele>48.333333333333336</ele><time>2026-05-02T09:07:29.489Z</time></trkpt><trkpt lat="42.28403" lon="12.51702"><ele>43.66666666666667</ele><time>2026-05-02T09:07:30.489Z</time></trkpt><trkpt lat="42.2841117" lon="12.5167583"><ele>39.0</ele><time>2026-05-02T09:07:31.489Z</time></trkpt><trkpt lat="42.28419" lon="12.5164983"><ele>39.0</ele><time>2026-05-02T09:07:32.489Z</time></trkpt><trkpt lat="42.2842717" lon="12.5162417"><ele>39.0</ele><time>2026-05-02T09:07:33.489Z</time></trkpt><trkpt lat="42.2843483" lon="12.51598"><ele>39.0</ele><time>2026-05-02T09:07:34.489Z</time></trkpt><trkpt lat="42.284425" lon="12.515725"><ele>39.333333333333336</ele><time>2026-05-02T09:07:35.489Z</time></trkpt><trkpt lat="42.2845017" lon="12.515465"><ele>39.66666666666667</ele><time>2026-05-02T09:07:36.489Z</time></trkpt><trkpt lat="42.2845783" lon="12.5152167"><ele>40.0</ele><time>2026-05-02T09:07:37.49Z</time></trkpt><trkpt lat="42.2846567" lon="12.5149617"><ele>40.0</ele><time>2026-05-02T09:07:38.489Z</time></trkpt><trkpt lat="42.28473" lon="12.5147083"><ele>40.0</ele><time>2026-05-02T09:07:39.489Z</time></trkpt><trkpt lat="42.2848067" lon="12.5144467"><ele>40.0</ele><time>2026-05-02T09:07:40.489Z</time></trkpt><trkpt lat="42.2848867" lon="12.5141833"><ele>40.0</ele><time>2026-05-02T09:07:41.489Z</time></trkpt><trkpt lat="42.284965" lon="12.513925"><ele>40.0</ele><time>2026-05-02T09:07:42.49Z</time></trkpt><trkpt lat="42.285045" lon="12.513665"><ele>40.0</ele><time>2026-05-02T09:07:43.489Z</time></trkpt><trkpt lat="42.28513" lon="12.5134017"><ele>40.0</ele><time>2026-05-02T09:07:44.49Z</time></trkpt><trkpt lat="42.2852133" lon="12.5131283"><ele>40.0</ele><time>2026-05-02T09:07:45.489Z</time></trkpt><trkpt lat="42.285295" lon="12.5128583"><ele>40.0</ele><time>2026-05-02T09:07:46.489Z</time></trkpt><trkpt lat="42.28538" lon="12.512585"><ele>40.66666666666667</ele><time>2026-05-02T09:07:47.489Z</time></trkpt><trkpt lat="42.285465" lon="12.5123133"><ele>41.333333333333336</ele><time>2026-05-02T09:07:48.489Z</time></trkpt><trkpt lat="42.2855467" lon="12.5120383"><ele>42.0</ele><time>2026-05-02T09:07:49.489Z</time></trkpt><trkpt lat="42.285635" lon="12.5117633"><ele>40.666666666666664</ele><time>2026-05-02T09:07:50.489Z</time></trkpt><trkpt lat="42.2857167" lon="12.5114833"><ele>39.33333333333333</ele><time>2026-05-02T09:07:51.489Z</time></trkpt><trkpt lat="42.2857933" lon="12.511205"><ele>38.0</ele><time>2026-05-02T09:07:52.489Z</time></trkpt><trkpt lat="42.285875" lon="12.51093"><ele>38.0</ele><time>2026-05-02T09:07:53.489Z</time></trkpt><trkpt lat="42.2859567" lon="12.5106583"><ele>38.0</ele><time>2026-05-02T09:07:54.489Z</time></trkpt><trkpt lat="42.2860383" lon="12.5103783"><ele>38.0</ele><time>2026-05-02T09:07:55.489Z</time></trkpt><trkpt lat="42.2861217" lon="12.5101033"><ele>38.0</ele><time>2026-05-02T09:07:56.489Z</time></trkpt><trkpt lat="42.2862" lon="12.5098383"><ele>38.0</ele><time>2026-05-02T09:07:57.489Z</time></trkpt><trkpt lat="42.2862817" lon="12.509575"><ele>38.0</ele><time>2026-05-02T09:07:58.489Z</time></trkpt><trkpt lat="42.2863633" lon="12.509315"><ele>38.0</ele><time>2026-05-02T09:07:59.489Z</time></trkpt><trkpt lat="42.2864433" lon="12.5090533"><ele>38.0</ele><time>2026-05-02T09:08:00.489Z</time></trkpt><trkpt lat="42.2865267" lon="12.50879"><ele>38.0</ele><time>2026-05-02T09:08:01.489Z</time></trkpt><trkpt lat="42.286605" lon="12.5085267"><ele>38.0</ele><time>2026-05-02T09:08:02.489Z</time></trkpt><trkpt lat="42.2866817" lon="12.5082583"><ele>38.0</ele><time>2026-05-02T09:08:03.489Z</time></trkpt><trkpt lat="42.286765" lon="12.507995"><ele>38.0</ele><time>2026-05-02T09:08:04.489Z</time></trkpt><trkpt lat="42.2868483" lon="12.5077283"><ele>37.666666666666664</ele><time>2026-05-02T09:08:05.489Z</time></trkpt><trkpt lat="42.2869283" lon="12.5074717"><ele>37.333333333333336</ele><time>2026-05-02T09:08:06.489Z</time></trkpt><trkpt lat="42.2870067" lon="12.5072117"><ele>37.0</ele><time>2026-05-02T09:08:07.489Z</time></trkpt><trkpt lat="42.2870867" lon="12.5069583"><ele>37.0</ele><time>2026-05-02T09:08:08.489Z</time></trkpt><trkpt lat="42.28716" lon="12.5067033"><ele>37.0</ele><time>2026-05-02T09:08:09.489Z</time></trkpt><trkpt lat="42.2872383" lon="12.50645"><ele>37.0</ele><time>2026-05-02T09:08:10.489Z</time></trkpt><trkpt lat="42.2873183" lon="12.506195"><ele>37.0</ele><time>2026-05-02T09:08:11.489Z</time></trkpt><trkpt lat="42.2873967" lon="12.5059317"><ele>37.0</ele><time>2026-05-02T09:08:12.489Z</time></trkpt><trkpt lat="42.2874767" lon="12.505665"><ele>37.0</ele><time>2026-05-02T09:08:13.489Z</time></trkpt><trkpt lat="42.2875567" lon="12.5053983"><ele>37.0</ele><time>2026-05-02T09:08:14.489Z</time></trkpt><trkpt lat="42.28764" lon="12.50513"><ele>37.0</ele><time>2026-05-02T09:08:15.489Z</time></trkpt><trkpt lat="42.28773" lon="12.5048667"><ele>37.0</ele><time>2026-05-02T09:08:16.489Z</time></trkpt><trkpt lat="42.28782" lon="12.5046017"><ele>37.333333333333336</ele><time>2026-05-02T09:08:17.489Z</time></trkpt><trkpt lat="42.2879117" lon="12.5043383"><ele>37.666666666666664</ele><time>2026-05-02T09:08:18.489Z</time></trkpt><trkpt lat="42.2880133" lon="12.5040883"><ele>38.0</ele><time>2026-05-02T09:08:19.489Z</time></trkpt><trkpt lat="42.2881217" lon="12.5038417"><ele>38.0</ele><time>2026-05-02T09:08:20.49Z</time></trkpt><trkpt lat="42.2882267" lon="12.503595"><ele>38.0</ele><time>2026-05-02T09:08:21.489Z</time></trkpt><trkpt lat="42.288335" lon="12.5033567"><ele>38.0</ele><time>2026-05-02T09:08:22.489Z</time></trkpt><trkpt lat="42.2884517" lon="12.50312"><ele>38.666666666666664</ele><time>2026-05-02T09:08:23.489Z</time></trkpt><trkpt lat="42.2885683" lon="12.5028783"><ele>39.333333333333336</ele><time>2026-05-02T09:08:24.489Z</time></trkpt><trkpt lat="42.2886933" lon="12.5026433"><ele>40.0</ele><time>2026-05-02T09:08:25.489Z</time></trkpt><trkpt lat="42.288825" lon="12.5024117"><ele>40.333333333333336</ele><time>2026-05-02T09:08:26.489Z</time></trkpt><trkpt lat="42.2889617" lon="12.50218"><ele>40.666666666666664</ele><time>2026-05-02T09:08:27.49Z</time></trkpt><trkpt lat="42.2891017" lon="12.501955"><ele>41.0</ele><time>2026-05-02T09:08:28.489Z</time></trkpt><trkpt lat="42.289245" lon="12.50174"><ele>41.0</ele><time>2026-05-02T09:08:29.489Z</time></trkpt><trkpt lat="42.28939" lon="12.5015283"><ele>41.0</ele><time>2026-05-02T09:08:30.489Z</time></trkpt><trkpt lat="42.2895417" lon="12.5013233"><ele>41.0</ele><time>2026-05-02T09:08:31.489Z</time></trkpt><trkpt lat="42.2897" lon="12.501125"><ele>40.0</ele><time>2026-05-02T09:08:32.489Z</time></trkpt><trkpt lat="42.2898633" lon="12.5009317"><ele>39.0</ele><time>2026-05-02T09:08:33.489Z</time></trkpt><trkpt lat="42.29002" lon="12.5007367"><ele>38.0</ele><time>2026-05-02T09:08:34.489Z</time></trkpt><trkpt lat="42.2901733" lon="12.5005533"><ele>37.666666666666664</ele><time>2026-05-02T09:08:35.489Z</time></trkpt><trkpt lat="42.2903333" lon="12.5003767"><ele>37.333333333333336</ele><time>2026-05-02T09:08:36.489Z</time></trkpt><trkpt lat="42.2904983" lon="12.500205"><ele>37.0</ele><time>2026-05-02T09:08:37.489Z</time></trkpt><trkpt lat="42.2906683" lon="12.5000367"><ele>37.0</ele><time>2026-05-02T09:08:38.489Z</time></trkpt><trkpt lat="42.2908367" lon="12.4998833"><ele>37.0</ele><time>2026-05-02T09:08:39.489Z</time></trkpt><trkpt lat="42.2910033" lon="12.499735"><ele>37.0</ele><time>2026-05-02T09:08:40.489Z</time></trkpt><trkpt lat="42.2911733" lon="12.4995917"><ele>37.0</ele><time>2026-05-02T09:08:41.489Z</time></trkpt><trkpt lat="42.2913467" lon="12.49945"><ele>37.0</ele><time>2026-05-02T09:08:42.489Z</time></trkpt><trkpt lat="42.291525" lon="12.4993133"><ele>37.0</ele><time>2026-05-02T09:08:43.489Z</time></trkpt><trkpt lat="42.29171" lon="12.4991817"><ele>36.66666666666667</ele><time>2026-05-02T09:08:44.489Z</time></trkpt><trkpt lat="42.291895" lon="12.4990567"><ele>36.333333333333336</ele><time>2026-05-02T09:08:45.489Z</time></trkpt><trkpt lat="42.2920867" lon="12.4989283"><ele>36.0</ele><time>2026-05-02T09:08:46.489Z</time></trkpt><trkpt lat="42.2922817" lon="12.498815"><ele>37.0</ele><time>2026-05-02T09:08:47.49Z</time></trkpt><trkpt lat="42.2924783" lon="12.4987"><ele>38.0</ele><time>2026-05-02T09:08:48.49Z</time></trkpt><trkpt lat="42.2926867" lon="12.4985917"><ele>39.0</ele><time>2026-05-02T09:08:49.489Z</time></trkpt><trkpt lat="42.2928917" lon="12.4984867"><ele>38.333333333333336</ele><time>2026-05-02T09:08:50.489Z</time></trkpt><trkpt lat="42.2930983" lon="12.4983917"><ele>37.66666666666667</ele><time>2026-05-02T09:08:51.489Z</time></trkpt><trkpt lat="42.293305" lon="12.498295"><ele>37.0</ele><time>2026-05-02T09:08:52.489Z</time></trkpt><trkpt lat="42.293515" lon="12.498195"><ele>37.0</ele><time>2026-05-02T09:08:53.489Z</time></trkpt><trkpt lat="42.2937183" lon="12.4980933"><ele>37.0</ele><time>2026-05-02T09:08:54.489Z</time></trkpt><trkpt lat="42.2939183" lon="12.4979983"><ele>37.0</ele><time>2026-05-02T09:08:55.489Z</time></trkpt><trkpt lat="42.2941183" lon="12.497905"><ele>37.0</ele><time>2026-05-02T09:08:56.489Z</time></trkpt><trkpt lat="42.2943117" lon="12.497815"><ele>37.0</ele><time>2026-05-02T09:08:57.489Z</time></trkpt><trkpt lat="42.2945017" lon="12.49772"><ele>37.0</ele><time>2026-05-02T09:08:58.489Z</time></trkpt><trkpt lat="42.2946867" lon="12.4976317"><ele>36.333333333333336</ele><time>2026-05-02T09:08:59.489Z</time></trkpt><trkpt lat="42.294865" lon="12.4975433"><ele>35.666666666666664</ele><time>2026-05-02T09:09:00.489Z</time></trkpt><trkpt lat="42.2950433" lon="12.4974533"><ele>35.0</ele><time>2026-05-02T09:09:01.489Z</time></trkpt><trkpt lat="42.2952267" lon="12.4973633"><ele>35.0</ele><time>2026-05-02T09:09:02.489Z</time></trkpt><trkpt lat="42.2954133" lon="12.4972767"><ele>35.0</ele><time>2026-05-02T09:09:03.489Z</time></trkpt><trkpt lat="42.2956" lon="12.497195"><ele>35.0</ele><time>2026-05-02T09:09:04.489Z</time></trkpt><trkpt lat="42.2957883" lon="12.4971117"><ele>34.0</ele><time>2026-05-02T09:09:05.489Z</time></trkpt><trkpt lat="42.2959717" lon="12.497025"><ele>33.0</ele><time>2026-05-02T09:09:06.489Z</time></trkpt><trkpt lat="42.2961567" lon="12.4969317"><ele>32.0</ele><time>2026-05-02T09:09:07.489Z</time></trkpt><trkpt lat="42.2963433" lon="12.4968283"><ele>32.666666666666664</ele><time>2026-05-02T09:09:08.49Z</time></trkpt><trkpt lat="42.2965383" lon="12.4967317"><ele>33.333333333333336</ele><time>2026-05-02T09:09:09.489Z</time></trkpt><trkpt lat="42.2967367" lon="12.4966283"><ele>34.0</ele><time>2026-05-02T09:09:10.49Z</time></trkpt><trkpt lat="42.29694" lon="12.4965283"><ele>34.0</ele><time>2026-05-02T09:09:11.489Z</time></trkpt><trkpt lat="42.2971433" lon="12.4964217"><ele>34.0</ele><time>2026-05-02T09:09:12.49Z</time></trkpt><trkpt lat="42.2973567" lon="12.4963283"><ele>34.0</ele><time>2026-05-02T09:09:13.489Z</time></trkpt><trkpt lat="42.2975733" lon="12.496235"><ele>35.5</ele><time>2026-05-02T09:09:14.489Z</time></trkpt><trkpt lat="42.2977917" lon="12.4961483"><ele>37.0</ele><time>2026-05-02T09:09:15.489Z</time></trkpt><trkpt lat="42.2980133" lon="12.496065"><ele>37.333333333333336</ele><time>2026-05-02T09:09:16.489Z</time></trkpt><trkpt lat="42.298225" lon="12.49597"><ele>37.666666666666664</ele><time>2026-05-02T09:09:17.489Z</time></trkpt><trkpt lat="42.29844" lon="12.49588"><ele>38.0</ele><time>2026-05-02T09:09:18.489Z</time></trkpt><trkpt lat="42.2986533" lon="12.4957867"><ele>38.0</ele><time>2026-05-02T09:09:19.489Z</time></trkpt><trkpt lat="42.2988683" lon="12.4956933"><ele>38.0</ele><time>2026-05-02T09:09:20.489Z</time></trkpt><trkpt lat="42.2990783" lon="12.4955933"><ele>38.0</ele><time>2026-05-02T09:09:21.489Z</time></trkpt><trkpt lat="42.2992933" lon="12.49549"><ele>38.33333333333333</ele><time>2026-05-02T09:09:22.489Z</time></trkpt><trkpt lat="42.2995017" lon="12.4953883"><ele>38.666666666666664</ele><time>2026-05-02T09:09:23.489Z</time></trkpt><trkpt lat="42.2997067" lon="12.4952817"><ele>39.0</ele><time>2026-05-02T09:09:24.489Z</time></trkpt><trkpt lat="42.2999117" lon="12.4951867"><ele>43.66666666666667</ele><time>2026-05-02T09:09:25.49Z</time></trkpt><trkpt lat="42.3001183" lon="12.4950917"><ele>48.333333333333336</ele><time>2026-05-02T09:09:26.489Z</time></trkpt><trkpt lat="42.3003183" lon="12.494995"><ele>53.0</ele><time>2026-05-02T09:09:27.489Z</time></trkpt><trkpt lat="42.3005183" lon="12.4948967"><ele>54.333333333333336</ele><time>2026-05-02T09:09:28.489Z</time></trkpt><trkpt lat="42.300715" lon="12.4947983"><ele>55.66666666666667</ele><time>2026-05-02T09:09:29.489Z</time></trkpt><trkpt lat="42.300915" lon="12.494705"><ele>57.0</ele><time>2026-05-02T09:09:30.489Z</time></trkpt><trkpt lat="42.30111" lon="12.4946033"><ele>56.66666666666667</ele><time>2026-05-02T09:09:31.489Z</time></trkpt><trkpt lat="42.3013083" lon="12.4945067"><ele>56.333333333333336</ele><time>2026-05-02T09:09:32.489Z</time></trkpt><trkpt lat="42.3015117" lon="12.494415"><ele>56.0</ele><time>2026-05-02T09:09:33.489Z</time></trkpt><trkpt lat="42.3017133" lon="12.49432"><ele>56.0</ele><time>2026-05-02T09:09:34.489Z</time></trkpt><trkpt lat="42.3019117" lon="12.4942267"><ele>56.0</ele><time>2026-05-02T09:09:35.49Z</time></trkpt><trkpt lat="42.30212" lon="12.4941383"><ele>56.0</ele><time>2026-05-02T09:09:36.489Z</time></trkpt><trkpt lat="42.3023167" lon="12.49404"><ele>57.333333333333336</ele><time>2026-05-02T09:09:37.489Z</time></trkpt><trkpt lat="42.302515" lon="12.493945"><ele>58.66666666666667</ele><time>2026-05-02T09:09:38.489Z</time></trkpt><trkpt lat="42.3027133" lon="12.49385"><ele>60.0</ele><time>2026-05-02T09:09:39.489Z</time></trkpt><trkpt lat="42.3029133" lon="12.4937583"><ele>56.33333333333333</ele><time>2026-05-02T09:09:40.49Z</time></trkpt><trkpt lat="42.3031133" lon="12.493665"><ele>52.666666666666664</ele><time>2026-05-02T09:09:41.489Z</time></trkpt><trkpt lat="42.3033167" lon="12.49358"><ele>49.0</ele><time>2026-05-02T09:09:42.489Z</time></trkpt><trkpt lat="42.303515" lon="12.4935"><ele>49.0</ele><time>2026-05-02T09:09:43.489Z</time></trkpt><trkpt lat="42.3037017" lon="12.4934033"><ele>49.0</ele><time>2026-05-02T09:09:44.489Z</time></trkpt><trkpt lat="42.3038883" lon="12.493335"><ele>49.0</ele><time>2026-05-02T09:09:45.489Z</time></trkpt><trkpt lat="42.3040833" lon="12.4932783"><ele>47.666666666666664</ele><time>2026-05-02T09:09:46.489Z</time></trkpt><trkpt lat="42.30428" lon="12.4932317"><ele>46.33333333333333</ele><time>2026-05-02T09:09:47.489Z</time></trkpt><trkpt lat="42.3044783" lon="12.4931933"><ele>45.0</ele><time>2026-05-02T09:09:48.489Z</time></trkpt><trkpt lat="42.30468" lon="12.4931733"><ele>45.0</ele><time>2026-05-02T09:09:49.489Z</time></trkpt><trkpt lat="42.3048867" lon="12.493155"><ele>45.0</ele><time>2026-05-02T09:09:50.489Z</time></trkpt><trkpt lat="42.3050933" lon="12.4931533"><ele>45.0</ele><time>2026-05-02T09:09:51.489Z</time></trkpt><trkpt lat="42.3052983" lon="12.4931667"><ele>45.0</ele><time>2026-05-02T09:09:52.489Z</time></trkpt><trkpt lat="42.305505" lon="12.49319"><ele>45.0</ele><time>2026-05-02T09:09:53.489Z</time></trkpt><trkpt lat="42.3057167" lon="12.4932233"><ele>45.0</ele><time>2026-05-02T09:09:54.49Z</time></trkpt><trkpt lat="42.305925" lon="12.493265"><ele>49.33333333333333</ele><time>2026-05-02T09:09:55.489Z</time></trkpt><trkpt lat="42.3061333" lon="12.4933167"><ele>53.666666666666664</ele><time>2026-05-02T09:09:56.489Z</time></trkpt><trkpt lat="42.3063467" lon="12.4933883"><ele>58.0</ele><time>2026-05-02T09:09:57.489Z</time></trkpt><trkpt lat="42.30656" lon="12.4934567"><ele>60.33333333333333</ele><time>2026-05-02T09:09:58.489Z</time></trkpt><trkpt lat="42.3067783" lon="12.4935417"><ele>62.66666666666667</ele><time>2026-05-02T09:09:59.489Z</time></trkpt><trkpt lat="42.3069883" lon="12.49364"><ele>65.0</ele><time>2026-05-02T09:10:00.489Z</time></trkpt><trkpt lat="42.3072" lon="12.493755"><ele>61.333333333333336</ele><time>2026-05-02T09:10:01.489Z</time></trkpt><trkpt lat="42.30741" lon="12.4938667"><ele>57.66666666666667</ele><time>2026-05-02T09:10:02.489Z</time></trkpt><trkpt lat="42.3076167" lon="12.4939733"><ele>54.0</ele><time>2026-05-02T09:10:03.489Z</time></trkpt><trkpt lat="42.3078183" lon="12.4940783"><ele>54.0</ele><time>2026-05-02T09:10:04.489Z</time></trkpt><trkpt lat="42.308015" lon="12.49419"><ele>54.0</ele><time>2026-05-02T09:10:05.489Z</time></trkpt><trkpt lat="42.3082133" lon="12.4942933"><ele>54.0</ele><time>2026-05-02T09:10:06.489Z</time></trkpt><trkpt lat="42.30842" lon="12.4943917"><ele>56.66666666666667</ele><time>2026-05-02T09:10:07.489Z</time></trkpt><trkpt lat="42.3086217" lon="12.4944817"><ele>59.333333333333336</ele><time>2026-05-02T09:10:08.489Z</time></trkpt><trkpt lat="42.3088283" lon="12.4945583"><ele>62.0</ele><time>2026-05-02T09:10:09.49Z</time></trkpt><trkpt lat="42.3090367" lon="12.49464"><ele>62.0</ele><time>2026-05-02T09:10:10.489Z</time></trkpt><trkpt lat="42.309245" lon="12.4947017"><ele>62.0</ele><time>2026-05-02T09:10:11.489Z</time></trkpt><trkpt lat="42.3094567" lon="12.4947633"><ele>62.0</ele><time>2026-05-02T09:10:12.489Z</time></trkpt><trkpt lat="42.3096683" lon="12.49481"><ele>67.0</ele><time>2026-05-02T09:10:13.489Z</time></trkpt><trkpt lat="42.3098883" lon="12.494845"><ele>72.0</ele><time>2026-05-02T09:10:14.489Z</time></trkpt><trkpt lat="42.3101033" lon="12.4948617"><ele>77.0</ele><time>2026-05-02T09:10:15.489Z</time></trkpt><trkpt lat="42.3103217" lon="12.4948817"><ele>77.0</ele><time>2026-05-02T09:10:16.489Z</time></trkpt><trkpt lat="42.3105367" lon="12.4948867"><ele>77.0</ele><time>2026-05-02T09:10:17.489Z</time></trkpt><trkpt lat="42.3107533" lon="12.49488"><ele>77.0</ele><time>2026-05-02T09:10:18.489Z</time></trkpt><trkpt lat="42.3109683" lon="12.494865"><ele>79.0</ele><time>2026-05-02T09:10:19.489Z</time></trkpt><trkpt lat="42.311185" lon="12.4948433"><ele>81.0</ele><time>2026-05-02T09:10:20.489Z</time></trkpt><trkpt lat="42.311395" lon="12.4948167"><ele>83.0</ele><time>2026-05-02T09:10:21.489Z</time></trkpt><trkpt lat="42.3116" lon="12.494765"><ele>83.0</ele><time>2026-05-02T09:10:22.489Z</time></trkpt><trkpt lat="42.311805" lon="12.4947117"><ele>83.0</ele><time>2026-05-02T09:10:23.489Z</time></trkpt><trkpt lat="42.31201" lon="12.4946483"><ele>83.0</ele><time>2026-05-02T09:10:24.489Z</time></trkpt><trkpt lat="42.3122167" lon="12.494575"><ele>81.33333333333334</ele><time>2026-05-02T09:10:25.489Z</time></trkpt><trkpt lat="42.3124233" lon="12.4944917"><ele>79.66666666666667</ele><time>2026-05-02T09:10:26.489Z</time></trkpt><trkpt lat="42.3126367" lon="12.4944017"><ele>78.0</ele><time>2026-05-02T09:10:27.489Z</time></trkpt><trkpt lat="42.31284" lon="12.4943"><ele>78.0</ele><time>2026-05-02T09:10:28.489Z</time></trkpt><trkpt lat="42.31304" lon="12.4941967"><ele>78.0</ele><time>2026-05-02T09:10:29.489Z</time></trkpt><trkpt lat="42.31324" lon="12.494095"><ele>78.0</ele><time>2026-05-02T09:10:30.489Z</time></trkpt><trkpt lat="42.3134383" lon="12.4939933"><ele>76.0</ele><time>2026-05-02T09:10:31.489Z</time></trkpt><trkpt lat="42.3136383" lon="12.49389"><ele>74.0</ele><time>2026-05-02T09:10:32.489Z</time></trkpt><trkpt lat="42.3138367" lon="12.4937817"><ele>72.0</ele><time>2026-05-02T09:10:33.489Z</time></trkpt><trkpt lat="42.31403" lon="12.4936767"><ele>72.0</ele><time>2026-05-02T09:10:34.489Z</time></trkpt><trkpt lat="42.3142267" lon="12.4935717"><ele>72.0</ele><time>2026-05-02T09:10:35.489Z</time></trkpt><trkpt lat="42.3144217" lon="12.493465"><ele>72.0</ele><time>2026-05-02T09:10:36.489Z</time></trkpt><trkpt lat="42.3146217" lon="12.4933683"><ele>75.0</ele><time>2026-05-02T09:10:37.49Z</time></trkpt><trkpt lat="42.31482" lon="12.49326"><ele>78.0</ele><time>2026-05-02T09:10:38.49Z</time></trkpt><trkpt lat="42.3150217" lon="12.4931567"><ele>81.0</ele><time>2026-05-02T09:10:39.49Z</time></trkpt><trkpt lat="42.31522" lon="12.4930533"><ele>81.0</ele><time>2026-05-02T09:10:40.489Z</time></trkpt><trkpt lat="42.3154233" lon="12.49295"><ele>81.0</ele><time>2026-05-02T09:10:41.489Z</time></trkpt><trkpt lat="42.3156217" lon="12.4928383"><ele>81.0</ele><time>2026-05-02T09:10:42.49Z</time></trkpt><trkpt lat="42.31583" lon="12.4927383"><ele>80.0</ele><time>2026-05-02T09:10:43.489Z</time></trkpt><trkpt lat="42.316035" lon="12.4926317"><ele>79.0</ele><time>2026-05-02T09:10:44.49Z</time></trkpt><trkpt lat="42.316245" lon="12.492525"><ele>78.0</ele><time>2026-05-02T09:10:45.489Z</time></trkpt><trkpt lat="42.3164583" lon="12.492415"><ele>78.0</ele><time>2026-05-02T09:10:46.489Z</time></trkpt><trkpt lat="42.3166717" lon="12.492305"><ele>78.0</ele><time>2026-05-02T09:10:47.489Z</time></trkpt><trkpt lat="42.3168817" lon="12.4921933"><ele>77.5</ele><time>2026-05-02T09:10:48.489Z</time></trkpt><trkpt lat="42.317095" lon="12.4920867"><ele>77.0</ele><time>2026-05-02T09:10:49.489Z</time></trkpt><trkpt lat="42.3173067" lon="12.49198"><ele>77.0</ele><time>2026-05-02T09:10:50.489Z</time></trkpt><trkpt lat="42.3175083" lon="12.4918683"><ele>77.0</ele><time>2026-05-02T09:10:51.489Z</time></trkpt><trkpt lat="42.3177067" lon="12.49176"><ele>77.0</ele><time>2026-05-02T09:10:52.489Z</time></trkpt><trkpt lat="42.3179067" lon="12.4916517"><ele>77.0</ele><time>2026-05-02T09:10:53.489Z</time></trkpt><trkpt lat="42.3181017" lon="12.4915467"><ele>77.0</ele><time>2026-05-02T09:10:54.489Z</time></trkpt><trkpt lat="42.31829" lon="12.4914533"><ele>77.0</ele><time>2026-05-02T09:10:55.489Z</time></trkpt><trkpt lat="42.3184833" lon="12.4913617"><ele>77.0</ele><time>2026-05-02T09:10:56.489Z</time></trkpt><trkpt lat="42.31867" lon="12.491265"><ele>77.0</ele><time>2026-05-02T09:10:57.489Z</time></trkpt><trkpt lat="42.3188533" lon="12.49117"><ele>77.0</ele><time>2026-05-02T09:10:58.489Z</time></trkpt><trkpt lat="42.3190367" lon="12.4910667"><ele>73.66666666666667</ele><time>2026-05-02T09:10:59.489Z</time></trkpt><trkpt lat="42.3192217" lon="12.4909617"><ele>70.33333333333333</ele><time>2026-05-02T09:11:00.49Z</time></trkpt><trkpt lat="42.3194133" lon="12.49086"><ele>67.0</ele><time>2026-05-02T09:11:01.489Z</time></trkpt><trkpt lat="42.3196" lon="12.4907467"><ele>62.0</ele><time>2026-05-02T09:11:02.489Z</time></trkpt><trkpt lat="42.31979" lon="12.49064"><ele>57.0</ele><time>2026-05-02T09:11:03.489Z</time></trkpt><trkpt lat="42.3199833" lon="12.49054"><ele>52.0</ele><time>2026-05-02T09:11:04.489Z</time></trkpt><trkpt lat="42.320185" lon="12.4904367"><ele>53.0</ele><time>2026-05-02T09:11:05.489Z</time></trkpt><trkpt lat="42.32038" lon="12.4903233"><ele>54.0</ele><time>2026-05-02T09:11:06.489Z</time></trkpt><trkpt lat="42.3205717" lon="12.4902083"><ele>55.0</ele><time>2026-05-02T09:11:07.489Z</time></trkpt><trkpt lat="42.3207583" lon="12.490085"><ele>55.0</ele><time>2026-05-02T09:11:08.489Z</time></trkpt><trkpt lat="42.3209467" lon="12.4899483"><ele>55.0</ele><time>2026-05-02T09:11:09.489Z</time></trkpt><trkpt lat="42.3211317" lon="12.4898083"><ele>55.0</ele><time>2026-05-02T09:11:10.489Z</time></trkpt><trkpt lat="42.3213167" lon="12.4896667"><ele>58.0</ele><time>2026-05-02T09:11:11.489Z</time></trkpt><trkpt lat="42.3215" lon="12.4895133"><ele>61.0</ele><time>2026-05-02T09:11:12.489Z</time></trkpt><trkpt lat="42.3216817" lon="12.48935"><ele>64.0</ele><time>2026-05-02T09:11:13.489Z</time></trkpt><trkpt lat="42.321855" lon="12.489175"><ele>64.0</ele><time>2026-05-02T09:11:14.489Z</time></trkpt><trkpt lat="42.3220267" lon="12.488995"><ele>64.0</ele><time>2026-05-02T09:11:15.489Z</time></trkpt><trkpt lat="42.3221917" lon="12.4888033"><ele>64.0</ele><time>2026-05-02T09:11:16.489Z</time></trkpt><trkpt lat="42.3223483" lon="12.4886033"><ele>66.0</ele><time>2026-05-02T09:11:17.489Z</time></trkpt><trkpt lat="42.3225083" lon="12.4883933"><ele>68.0</ele><time>2026-05-02T09:11:18.489Z</time></trkpt><trkpt lat="42.3226717" lon="12.4881817"><ele>70.0</ele><time>2026-05-02T09:11:19.489Z</time></trkpt><trkpt lat="42.3228267" lon="12.4879733"><ele>66.33333333333333</ele><time>2026-05-02T09:11:20.489Z</time></trkpt><trkpt lat="42.322985" lon="12.48776"><ele>62.66666666666667</ele><time>2026-05-02T09:11:21.489Z</time></trkpt><trkpt lat="42.323135" lon="12.487545"><ele>59.0</ele><time>2026-05-02T09:11:22.489Z</time></trkpt><trkpt lat="42.323285" lon="12.4873233"><ele>59.0</ele><time>2026-05-02T09:11:23.489Z</time></trkpt><trkpt lat="42.3234417" lon="12.4871133"><ele>59.0</ele><time>2026-05-02T09:11:24.489Z</time></trkpt><trkpt lat="42.3236017" lon="12.4869"><ele>59.0</ele><time>2026-05-02T09:11:25.489Z</time></trkpt><trkpt lat="42.3237583" lon="12.4866867"><ele>65.0</ele><time>2026-05-02T09:11:26.489Z</time></trkpt><trkpt lat="42.3239167" lon="12.4864733"><ele>71.0</ele><time>2026-05-02T09:11:27.489Z</time></trkpt><trkpt lat="42.324075" lon="12.4862517"><ele>71.66666666666667</ele><time>2026-05-02T09:11:28.489Z</time></trkpt><trkpt lat="42.3242267" lon="12.48604"><ele>72.33333333333333</ele><time>2026-05-02T09:11:29.489Z</time></trkpt><trkpt lat="42.32438" lon="12.485825"><ele>73.0</ele><time>2026-05-02T09:11:30.489Z</time></trkpt><trkpt lat="42.3245367" lon="12.4856133"><ele>74.33333333333333</ele><time>2026-05-02T09:11:31.489Z</time></trkpt><trkpt lat="42.3246917" lon="12.4854033"><ele>75.66666666666667</ele><time>2026-05-02T09:11:32.489Z</time></trkpt><trkpt lat="42.3248417" lon="12.4851933"><ele>77.0</ele><time>2026-05-02T09:11:33.489Z</time></trkpt><trkpt lat="42.3249917" lon="12.4849817"><ele>77.0</ele><time>2026-05-02T09:11:34.489Z</time></trkpt><trkpt lat="42.3251433" lon="12.4847733"><ele>77.0</ele><time>2026-05-02T09:11:35.489Z</time></trkpt><trkpt lat="42.3252933" lon="12.4845683"><ele>77.0</ele><time>2026-05-02T09:11:36.489Z</time></trkpt><trkpt lat="42.32544" lon="12.484365"><ele>78.66666666666667</ele><time>2026-05-02T09:11:37.489Z</time></trkpt><trkpt lat="42.3255883" lon="12.4841617"><ele>80.33333333333333</ele><time>2026-05-02T09:11:38.489Z</time></trkpt><trkpt lat="42.3257317" lon="12.483955"><ele>82.0</ele><time>2026-05-02T09:11:39.49Z</time></trkpt><trkpt lat="42.32587" lon="12.48375"><ele>78.0</ele><time>2026-05-02T09:11:40.489Z</time></trkpt><trkpt lat="42.3260017" lon="12.4835317"><ele>74.0</ele><time>2026-05-02T09:11:41.489Z</time></trkpt><trkpt lat="42.326135" lon="12.48331"><ele>70.0</ele><time>2026-05-02T09:11:42.489Z</time></trkpt><trkpt lat="42.32626" lon="12.48309"><ele>72.66666666666666</ele><time>2026-05-02T09:11:43.489Z</time></trkpt><trkpt lat="42.32638" lon="12.4828667"><ele>75.33333333333333</ele><time>2026-05-02T09:11:44.489Z</time></trkpt><trkpt lat="42.3264933" lon="12.48263"><ele>78.0</ele><time>2026-05-02T09:11:45.489Z</time></trkpt><trkpt lat="42.3265983" lon="12.4823817"><ele>78.0</ele><time>2026-05-02T09:11:46.489Z</time></trkpt><trkpt lat="42.3267017" lon="12.48214"><ele>78.0</ele><time>2026-05-02T09:11:47.489Z</time></trkpt><trkpt lat="42.3267933" lon="12.481885"><ele>78.0</ele><time>2026-05-02T09:11:48.489Z</time></trkpt><trkpt lat="42.3268883" lon="12.4816317"><ele>76.33333333333333</ele><time>2026-05-02T09:11:49.489Z</time></trkpt><trkpt lat="42.3269833" lon="12.4813733"><ele>74.66666666666666</ele><time>2026-05-02T09:11:50.489Z</time></trkpt><trkpt lat="42.3270733" lon="12.48112"><ele>73.0</ele><time>2026-05-02T09:11:51.489Z</time></trkpt><trkpt lat="42.327165" lon="12.4808617"><ele>74.0</ele><time>2026-05-02T09:11:52.49Z</time></trkpt><trkpt lat="42.327255" lon="12.4806033"><ele>75.0</ele><time>2026-05-02T09:11:53.489Z</time></trkpt><trkpt lat="42.3273467" lon="12.4803433"><ele>76.0</ele><time>2026-05-02T09:11:54.489Z</time></trkpt><trkpt lat="42.327435" lon="12.4800817"><ele>76.0</ele><time>2026-05-02T09:11:55.489Z</time></trkpt><trkpt lat="42.3275183" lon="12.4798217"><ele>76.0</ele><time>2026-05-02T09:11:56.489Z</time></trkpt><trkpt lat="42.3276033" lon="12.479565"><ele>76.0</ele><time>2026-05-02T09:11:57.489Z</time></trkpt><trkpt lat="42.327695" lon="12.4793017"><ele>73.33333333333333</ele><time>2026-05-02T09:11:58.489Z</time></trkpt><trkpt lat="42.3277833" lon="12.4790383"><ele>70.66666666666667</ele><time>2026-05-02T09:11:59.489Z</time></trkpt><trkpt lat="42.3278717" lon="12.478775"><ele>68.0</ele><time>2026-05-02T09:12:00.489Z</time></trkpt><trkpt lat="42.327965" lon="12.4785133"><ele>69.0</ele><time>2026-05-02T09:12:01.489Z</time></trkpt><trkpt lat="42.3280533" lon="12.478245"><ele>70.0</ele><time>2026-05-02T09:12:02.489Z</time></trkpt><trkpt lat="42.3281417" lon="12.4779783"><ele>71.0</ele><time>2026-05-02T09:12:03.489Z</time></trkpt><trkpt lat="42.3282283" lon="12.4777083"><ele>71.0</ele><time>2026-05-02T09:12:04.489Z</time></trkpt><trkpt lat="42.3283183" lon="12.4774417"><ele>71.0</ele><time>2026-05-02T09:12:05.489Z</time></trkpt><trkpt lat="42.3284083" lon="12.4771667"><ele>71.0</ele><time>2026-05-02T09:12:06.489Z</time></trkpt><trkpt lat="42.3285" lon="12.476895"><ele>66.66666666666667</ele><time>2026-05-02T09:12:07.489Z</time></trkpt><trkpt lat="42.328595" lon="12.476625"><ele>62.33333333333333</ele><time>2026-05-02T09:12:08.489Z</time></trkpt><trkpt lat="42.32869" lon="12.4763583"><ele>58.0</ele><time>2026-05-02T09:12:09.489Z</time></trkpt><trkpt lat="42.3287867" lon="12.4761017"><ele>56.0</ele><time>2026-05-02T09:12:10.489Z</time></trkpt><trkpt lat="42.32888" lon="12.475835"><ele>54.0</ele><time>2026-05-02T09:12:11.489Z</time></trkpt><trkpt lat="42.3289783" lon="12.4755667"><ele>52.0</ele><time>2026-05-02T09:12:12.489Z</time></trkpt><trkpt lat="42.3290733" lon="12.4753033"><ele>52.0</ele><time>2026-05-02T09:12:13.489Z</time></trkpt><trkpt lat="42.329175" lon="12.475045"><ele>52.0</ele><time>2026-05-02T09:12:14.489Z</time></trkpt><trkpt lat="42.3292767" lon="12.474785"><ele>52.0</ele><time>2026-05-02T09:12:15.489Z</time></trkpt><trkpt lat="42.32938" lon="12.474525"><ele>52.0</ele><time>2026-05-02T09:12:16.489Z</time></trkpt><trkpt lat="42.329475" lon="12.474265"><ele>52.0</ele><time>2026-05-02T09:12:17.489Z</time></trkpt><trkpt lat="42.3295783" lon="12.474005"><ele>52.0</ele><time>2026-05-02T09:12:18.489Z</time></trkpt><trkpt lat="42.3296867" lon="12.4737433"><ele>58.33333333333333</ele><time>2026-05-02T09:12:19.489Z</time></trkpt><trkpt lat="42.3297933" lon="12.473485"><ele>64.66666666666667</ele><time>2026-05-02T09:12:20.489Z</time></trkpt><trkpt lat="42.3298967" lon="12.4732167"><ele>71.0</ele><time>2026-05-02T09:12:21.489Z</time></trkpt><trkpt lat="42.3299967" lon="12.4729517"><ele>66.0</ele><time>2026-05-02T09:12:22.489Z</time></trkpt><trkpt lat="42.3301" lon="12.4726833"><ele>61.0</ele><time>2026-05-02T09:12:23.489Z</time></trkpt><trkpt lat="42.3302067" lon="12.47242"><ele>56.0</ele><time>2026-05-02T09:12:24.489Z</time></trkpt><trkpt lat="42.330305" lon="12.4721583"><ele>52.333333333333336</ele><time>2026-05-02T09:12:25.489Z</time></trkpt><trkpt lat="42.3303967" lon="12.471895"><ele>48.66666666666667</ele><time>2026-05-02T09:12:26.489Z</time></trkpt><trkpt lat="42.3304983" lon="12.4716417"><ele>45.0</ele><time>2026-05-02T09:12:27.489Z</time></trkpt><trkpt lat="42.3305967" lon="12.4713833"><ele>49.66666666666667</ele><time>2026-05-02T09:12:28.489Z</time></trkpt><trkpt lat="42.330705" lon="12.471135"><ele>54.333333333333336</ele><time>2026-05-02T09:12:29.489Z</time></trkpt><trkpt lat="42.330815" lon="12.4708933"><ele>59.0</ele><time>2026-05-02T09:12:30.489Z</time></trkpt><trkpt lat="42.33093" lon="12.4706467"><ele>54.66666666666667</ele><time>2026-05-02T09:12:31.489Z</time></trkpt><trkpt lat="42.3310517" lon="12.4704"><ele>50.333333333333336</ele><time>2026-05-02T09:12:32.489Z</time></trkpt><trkpt lat="42.3311733" lon="12.470165"><ele>46.0</ele><time>2026-05-02T09:12:33.489Z</time></trkpt><trkpt lat="42.331305" lon="12.4699283"><ele>46.66666666666667</ele><time>2026-05-02T09:12:34.489Z</time></trkpt><trkpt lat="42.3314467" lon="12.4696917"><ele>47.333333333333336</ele><time>2026-05-02T09:12:35.489Z</time></trkpt><trkpt lat="42.3315933" lon="12.4694667"><ele>48.0</ele><time>2026-05-02T09:12:36.489Z</time></trkpt><trkpt lat="42.331745" lon="12.4692533"><ele>48.0</ele><time>2026-05-02T09:12:37.489Z</time></trkpt><trkpt lat="42.3319017" lon="12.4690483"><ele>48.0</ele><time>2026-05-02T09:12:38.489Z</time></trkpt><trkpt lat="42.33206" lon="12.468845"><ele>48.0</ele><time>2026-05-02T09:12:39.489Z</time></trkpt><trkpt lat="42.33222" lon="12.4686483"><ele>48.66666666666667</ele><time>2026-05-02T09:12:40.489Z</time></trkpt><trkpt lat="42.3323867" lon="12.4684567"><ele>49.333333333333336</ele><time>2026-05-02T09:12:41.489Z</time></trkpt><trkpt lat="42.33255" lon="12.468285"><ele>50.0</ele><time>2026-05-02T09:12:42.49Z</time></trkpt><trkpt lat="42.3327233" lon="12.4681217"><ele>50.0</ele><time>2026-05-02T09:12:43.489Z</time></trkpt><trkpt lat="42.3329067" lon="12.467965"><ele>50.0</ele><time>2026-05-02T09:12:44.49Z</time></trkpt><trkpt lat="42.3330917" lon="12.467815"><ele>50.0</ele><time>2026-05-02T09:12:45.489Z</time></trkpt><trkpt lat="42.3332817" lon="12.467665"><ele>49.333333333333336</ele><time>2026-05-02T09:12:46.489Z</time></trkpt><trkpt lat="42.3334767" lon="12.4675283"><ele>48.66666666666667</ele><time>2026-05-02T09:12:47.489Z</time></trkpt><trkpt lat="42.33368" lon="12.4674067"><ele>48.0</ele><time>2026-05-02T09:12:48.489Z</time></trkpt><trkpt lat="42.333885" lon="12.46729"><ele>49.66666666666667</ele><time>2026-05-02T09:12:49.489Z</time></trkpt><trkpt lat="42.3340817" lon="12.4671767"><ele>51.333333333333336</ele><time>2026-05-02T09:12:50.489Z</time></trkpt><trkpt lat="42.334285" lon="12.4670783"><ele>53.0</ele><time>2026-05-02T09:12:51.489Z</time></trkpt><trkpt lat="42.3344967" lon="12.4670017"><ele>49.0</ele><time>2026-05-02T09:12:52.489Z</time></trkpt><trkpt lat="42.3347183" lon="12.4669317"><ele>45.0</ele><time>2026-05-02T09:12:53.489Z</time></trkpt><trkpt lat="42.33493" lon="12.4668633"><ele>41.0</ele><time>2026-05-02T09:12:54.489Z</time></trkpt><trkpt lat="42.335145" lon="12.46681"><ele>41.0</ele><time>2026-05-02T09:12:55.489Z</time></trkpt><trkpt lat="42.3353633" lon="12.4667583"><ele>41.0</ele><time>2026-05-02T09:12:56.489Z</time></trkpt><trkpt lat="42.33579" lon="12.466685"><ele>41.0</ele><time>2026-05-02T09:12:58.489Z</time></trkpt><trkpt lat="42.336" lon="12.4666717"><ele>41.0</ele><time>2026-05-02T09:12:59.489Z</time></trkpt><trkpt lat="42.3362133" lon="12.466665"><ele>41.0</ele><time>2026-05-02T09:13:00.489Z</time></trkpt><trkpt lat="42.3364283" lon="12.4666683"><ele>41.0</ele><time>2026-05-02T09:13:01.489Z</time></trkpt><trkpt lat="42.3366467" lon="12.46668"><ele>41.0</ele><time>2026-05-02T09:13:02.489Z</time></trkpt><trkpt lat="42.3368683" lon="12.466705"><ele>41.0</ele><time>2026-05-02T09:13:03.489Z</time></trkpt><trkpt lat="42.3370817" lon="12.466735"><ele>41.33333333333333</ele><time>2026-05-02T09:13:04.489Z</time></trkpt><trkpt lat="42.3372933" lon="12.46678"><ele>41.666666666666664</ele><time>2026-05-02T09:13:05.489Z</time></trkpt><trkpt lat="42.3375" lon="12.4668317"><ele>42.0</ele><time>2026-05-02T09:13:06.489Z</time></trkpt><trkpt lat="42.3377033" lon="12.4668983"><ele>42.0</ele><time>2026-05-02T09:13:07.489Z</time></trkpt><trkpt lat="42.3379033" lon="12.46697"><ele>42.0</ele><time>2026-05-02T09:13:08.489Z</time></trkpt><trkpt lat="42.3381067" lon="12.4670517"><ele>42.0</ele><time>2026-05-02T09:13:09.489Z</time></trkpt><trkpt lat="42.33831" lon="12.467145"><ele>45.0</ele><time>2026-05-02T09:13:10.489Z</time></trkpt><trkpt lat="42.3385033" lon="12.4672533"><ele>48.0</ele><time>2026-05-02T09:13:11.489Z</time></trkpt><trkpt lat="42.3387" lon="12.4673667"><ele>51.0</ele><time>2026-05-02T09:13:12.489Z</time></trkpt><trkpt lat="42.338895" lon="12.4674883"><ele>51.0</ele><time>2026-05-02T09:13:13.489Z</time></trkpt><trkpt lat="42.339085" lon="12.4676183"><ele>51.0</ele><time>2026-05-02T09:13:14.489Z</time></trkpt><trkpt lat="42.3392767" lon="12.467755"><ele>51.0</ele><time>2026-05-02T09:13:15.489Z</time></trkpt><trkpt lat="42.339465" lon="12.4678967"><ele>49.666666666666664</ele><time>2026-05-02T09:13:16.489Z</time></trkpt><trkpt lat="42.33965" lon="12.4680333"><ele>48.33333333333333</ele><time>2026-05-02T09:13:17.489Z</time></trkpt><trkpt lat="42.33984" lon="12.46817"><ele>47.0</ele><time>2026-05-02T09:13:18.489Z</time></trkpt><trkpt lat="42.340035" lon="12.4683033"><ele>47.0</ele><time>2026-05-02T09:13:19.49Z</time></trkpt><trkpt lat="42.3402317" lon="12.468445"><ele>47.0</ele><time>2026-05-02T09:13:20.489Z</time></trkpt><trkpt lat="42.340425" lon="12.46858"><ele>47.0</ele><time>2026-05-02T09:13:21.489Z</time></trkpt><trkpt lat="42.3406217" lon="12.4687267"><ele>44.33333333333333</ele><time>2026-05-02T09:13:22.489Z</time></trkpt><trkpt lat="42.34082" lon="12.4688633"><ele>41.666666666666664</ele><time>2026-05-02T09:13:23.489Z</time></trkpt><trkpt lat="42.341015" lon="12.4690033"><ele>39.0</ele><time>2026-05-02T09:13:24.489Z</time></trkpt><trkpt lat="42.3412133" lon="12.46914"><ele>38.0</ele><time>2026-05-02T09:13:25.489Z</time></trkpt><trkpt lat="42.34142" lon="12.4692817"><ele>37.0</ele><time>2026-05-02T09:13:26.489Z</time></trkpt><trkpt lat="42.341625" lon="12.469425"><ele>37.0</ele><time>2026-05-02T09:13:27.489Z</time></trkpt><trkpt lat="42.341825" lon="12.4695617"><ele>37.0</ele><time>2026-05-02T09:13:28.489Z</time></trkpt><trkpt lat="42.3420217" lon="12.4697"><ele>37.0</ele><time>2026-05-02T09:13:29.489Z</time></trkpt><trkpt lat="42.34222" lon="12.469835"><ele>37.66666666666667</ele><time>2026-05-02T09:13:30.489Z</time></trkpt><trkpt lat="42.342415" lon="12.4699717"><ele>38.333333333333336</ele><time>2026-05-02T09:13:31.489Z</time></trkpt><trkpt lat="42.3426117" lon="12.470095"><ele>39.0</ele><time>2026-05-02T09:13:32.489Z</time></trkpt><trkpt lat="42.3428083" lon="12.4702083"><ele>39.0</ele><time>2026-05-02T09:13:33.489Z</time></trkpt><trkpt lat="42.3430133" lon="12.4703017"><ele>39.0</ele><time>2026-05-02T09:13:34.489Z</time></trkpt><trkpt lat="42.3432217" lon="12.4703833"><ele>39.0</ele><time>2026-05-02T09:13:35.489Z</time></trkpt><trkpt lat="42.3434233" lon="12.4704583"><ele>38.666666666666664</ele><time>2026-05-02T09:13:36.489Z</time></trkpt><trkpt lat="42.343635" lon="12.47053"><ele>38.33333333333333</ele><time>2026-05-02T09:13:37.489Z</time></trkpt><trkpt lat="42.343845" lon="12.470575"><ele>38.0</ele><time>2026-05-02T09:13:38.489Z</time></trkpt><trkpt lat="42.3440517" lon="12.4706167"><ele>38.666666666666664</ele><time>2026-05-02T09:13:39.489Z</time></trkpt><trkpt lat="42.3442583" lon="12.4706433"><ele>39.333333333333336</ele><time>2026-05-02T09:13:40.489Z</time></trkpt><trkpt lat="42.3444667" lon="12.47067"><ele>40.0</ele><time>2026-05-02T09:13:41.489Z</time></trkpt><trkpt lat="42.3446833" lon="12.4706983"><ele>41.0</ele><time>2026-05-02T09:13:42.49Z</time></trkpt><trkpt lat="42.3449" lon="12.4707267"><ele>42.0</ele><time>2026-05-02T09:13:43.489Z</time></trkpt><trkpt lat="42.3451183" lon="12.4707583"><ele>43.0</ele><time>2026-05-02T09:13:44.489Z</time></trkpt><trkpt lat="42.345325" lon="12.470785"><ele>43.0</ele><time>2026-05-02T09:13:45.489Z</time></trkpt><trkpt lat="42.34554" lon="12.470815"><ele>43.0</ele><time>2026-05-02T09:13:46.489Z</time></trkpt><trkpt lat="42.3457567" lon="12.4708433"><ele>43.0</ele><time>2026-05-02T09:13:47.489Z</time></trkpt><trkpt lat="42.3459667" lon="12.470875"><ele>43.0</ele><time>2026-05-02T09:13:48.49Z</time></trkpt><trkpt lat="42.3461767" lon="12.4708983"><ele>43.0</ele><time>2026-05-02T09:13:49.49Z</time></trkpt><trkpt lat="42.34639" lon="12.4709233"><ele>43.0</ele><time>2026-05-02T09:13:50.489Z</time></trkpt><trkpt lat="42.346595" lon="12.4709533"><ele>43.0</ele><time>2026-05-02T09:13:51.489Z</time></trkpt><trkpt lat="42.346805" lon="12.4709817"><ele>43.0</ele><time>2026-05-02T09:13:52.489Z</time></trkpt><trkpt lat="42.3470117" lon="12.4710133"><ele>43.0</ele><time>2026-05-02T09:13:53.489Z</time></trkpt><trkpt lat="42.34722" lon="12.4710433"><ele>43.0</ele><time>2026-05-02T09:13:54.489Z</time></trkpt><trkpt lat="42.3474317" lon="12.47107"><ele>43.0</ele><time>2026-05-02T09:13:55.489Z</time></trkpt><trkpt lat="42.347645" lon="12.4710983"><ele>43.0</ele><time>2026-05-02T09:13:56.489Z</time></trkpt><trkpt lat="42.3478533" lon="12.4711217"><ele>42.0</ele><time>2026-05-02T09:13:57.489Z</time></trkpt><trkpt lat="42.3480567" lon="12.4711467"><ele>41.0</ele><time>2026-05-02T09:13:58.489Z</time></trkpt><trkpt lat="42.3482633" lon="12.471175"><ele>40.0</ele><time>2026-05-02T09:13:59.489Z</time></trkpt><trkpt lat="42.3484717" lon="12.4712033"><ele>40.0</ele><time>2026-05-02T09:14:00.489Z</time></trkpt><trkpt lat="42.3486817" lon="12.4712233"><ele>40.0</ele><time>2026-05-02T09:14:01.489Z</time></trkpt><trkpt lat="42.3488883" lon="12.4712567"><ele>40.0</ele><time>2026-05-02T09:14:02.489Z</time></trkpt><trkpt lat="42.349105" lon="12.4712883"><ele>39.0</ele><time>2026-05-02T09:14:03.489Z</time></trkpt><trkpt lat="42.3493183" lon="12.471315"><ele>38.0</ele><time>2026-05-02T09:14:04.489Z</time></trkpt><trkpt lat="42.3495317" lon="12.471345"><ele>37.0</ele><time>2026-05-02T09:14:05.489Z</time></trkpt><trkpt lat="42.349745" lon="12.4713783"><ele>37.0</ele><time>2026-05-02T09:14:06.489Z</time></trkpt><trkpt lat="42.3499533" lon="12.4713983"><ele>37.0</ele><time>2026-05-02T09:14:07.489Z</time></trkpt><trkpt lat="42.3501617" lon="12.4714283"><ele>37.0</ele><time>2026-05-02T09:14:08.489Z</time></trkpt><trkpt lat="42.35037" lon="12.4714483"><ele>37.333333333333336</ele><time>2026-05-02T09:14:09.489Z</time></trkpt><trkpt lat="42.3505883" lon="12.471465"><ele>37.666666666666664</ele><time>2026-05-02T09:14:10.489Z</time></trkpt><trkpt lat="42.3508067" lon="12.471475"><ele>38.0</ele><time>2026-05-02T09:14:11.489Z</time></trkpt><trkpt lat="42.3510267" lon="12.4714783"><ele>38.0</ele><time>2026-05-02T09:14:12.489Z</time></trkpt><trkpt lat="42.3512483" lon="12.471475"><ele>38.0</ele><time>2026-05-02T09:14:13.489Z</time></trkpt><trkpt lat="42.3514683" lon="12.4714667"><ele>38.0</ele><time>2026-05-02T09:14:14.489Z</time></trkpt><trkpt lat="42.3516867" lon="12.4714517"><ele>38.33333333333333</ele><time>2026-05-02T09:14:15.489Z</time></trkpt><trkpt lat="42.35191" lon="12.4714383"><ele>38.666666666666664</ele><time>2026-05-02T09:14:16.489Z</time></trkpt><trkpt lat="42.3521333" lon="12.471425"><ele>39.0</ele><time>2026-05-02T09:14:17.489Z</time></trkpt><trkpt lat="42.3523567" lon="12.4714083"><ele>39.0</ele><time>2026-05-02T09:14:18.489Z</time></trkpt><trkpt lat="42.3525783" lon="12.4713967"><ele>39.0</ele><time>2026-05-02T09:14:19.489Z</time></trkpt><trkpt lat="42.3528017" lon="12.4713867"><ele>39.0</ele><time>2026-05-02T09:14:20.489Z</time></trkpt><trkpt lat="42.353025" lon="12.471375"><ele>39.0</ele><time>2026-05-02T09:14:21.489Z</time></trkpt><trkpt lat="42.3532533" lon="12.47136"><ele>39.0</ele><time>2026-05-02T09:14:22.489Z</time></trkpt><trkpt lat="42.3534833" lon="12.4713467"><ele>39.0</ele><time>2026-05-02T09:14:23.489Z</time></trkpt><trkpt lat="42.3537083" lon="12.471335"><ele>39.0</ele><time>2026-05-02T09:14:24.489Z</time></trkpt><trkpt lat="42.3539367" lon="12.4713233"><ele>39.0</ele><time>2026-05-02T09:14:25.489Z</time></trkpt><trkpt lat="42.3541667" lon="12.4713117"><ele>39.0</ele><time>2026-05-02T09:14:26.49Z</time></trkpt><trkpt lat="42.3544" lon="12.4713017"><ele>39.0</ele><time>2026-05-02T09:14:27.489Z</time></trkpt><trkpt lat="42.3546267" lon="12.4712917"><ele>39.0</ele><time>2026-05-02T09:14:28.489Z</time></trkpt><trkpt lat="42.3548483" lon="12.4712817"><ele>39.0</ele><time>2026-05-02T09:14:29.489Z</time></trkpt><trkpt lat="42.3550683" lon="12.4712733"><ele>39.0</ele><time>2026-05-02T09:14:30.489Z</time></trkpt><trkpt lat="42.3552833" lon="12.471265"><ele>39.0</ele><time>2026-05-02T09:14:31.489Z</time></trkpt><trkpt lat="42.355505" lon="12.4712567"><ele>39.0</ele><time>2026-05-02T09:14:32.489Z</time></trkpt><trkpt lat="42.3557283" lon="12.47124"><ele>39.0</ele><time>2026-05-02T09:14:33.489Z</time></trkpt><trkpt lat="42.3559533" lon="12.471225"><ele>39.0</ele><time>2026-05-02T09:14:34.489Z</time></trkpt><trkpt lat="42.3561767" lon="12.4712117"><ele>39.0</ele><time>2026-05-02T09:14:35.489Z</time></trkpt><trkpt lat="42.3564017" lon="12.4711967"><ele>39.0</ele><time>2026-05-02T09:14:36.489Z</time></trkpt><trkpt lat="42.356625" lon="12.4711867"><ele>39.0</ele><time>2026-05-02T09:14:37.489Z</time></trkpt><trkpt lat="42.3568433" lon="12.4711783"><ele>39.0</ele><time>2026-05-02T09:14:38.489Z</time></trkpt><trkpt lat="42.357065" lon="12.4711667"><ele>38.666666666666664</ele><time>2026-05-02T09:14:39.489Z</time></trkpt><trkpt lat="42.3572867" lon="12.4711533"><ele>38.33333333333333</ele><time>2026-05-02T09:14:40.489Z</time></trkpt><trkpt lat="42.3574983" lon="12.47114"><ele>38.0</ele><time>2026-05-02T09:14:41.489Z</time></trkpt><trkpt lat="42.3577133" lon="12.471135"><ele>38.0</ele><time>2026-05-02T09:14:42.489Z</time></trkpt><trkpt lat="42.3579233" lon="12.4711267"><ele>38.0</ele><time>2026-05-02T09:14:43.489Z</time></trkpt><trkpt lat="42.3581317" lon="12.4711117"><ele>38.0</ele><time>2026-05-02T09:14:44.489Z</time></trkpt><trkpt lat="42.35834" lon="12.4711033"><ele>38.666666666666664</ele><time>2026-05-02T09:14:45.489Z</time></trkpt><trkpt lat="42.3585483" lon="12.4710883"><ele>39.333333333333336</ele><time>2026-05-02T09:14:46.489Z</time></trkpt><trkpt lat="42.3587633" lon="12.47108"><ele>40.0</ele><time>2026-05-02T09:14:47.489Z</time></trkpt><trkpt lat="42.358975" lon="12.47107"><ele>40.0</ele><time>2026-05-02T09:14:48.489Z</time></trkpt><trkpt lat="42.359185" lon="12.471055"><ele>40.0</ele><time>2026-05-02T09:14:49.489Z</time></trkpt><trkpt lat="42.3593983" lon="12.4710433"><ele>40.0</ele><time>2026-05-02T09:14:50.489Z</time></trkpt><trkpt lat="42.3596117" lon="12.47103"><ele>41.0</ele><time>2026-05-02T09:14:51.489Z</time></trkpt><trkpt lat="42.3598233" lon="12.47102"><ele>42.0</ele><time>2026-05-02T09:14:52.49Z</time></trkpt><trkpt lat="42.3600367" lon="12.4710133"><ele>43.0</ele><time>2026-05-02T09:14:53.489Z</time></trkpt><trkpt lat="42.360245" lon="12.4709983"><ele>43.0</ele><time>2026-05-02T09:14:54.49Z</time></trkpt><trkpt lat="42.3604567" lon="12.47099"><ele>43.0</ele><time>2026-05-02T09:14:55.489Z</time></trkpt><trkpt lat="42.3606633" lon="12.47098"><ele>43.0</ele><time>2026-05-02T09:14:56.489Z</time></trkpt><trkpt lat="42.3608717" lon="12.4709633"><ele>44.0</ele><time>2026-05-02T09:14:57.489Z</time></trkpt><trkpt lat="42.3610817" lon="12.47095"><ele>45.0</ele><time>2026-05-02T09:14:58.489Z</time></trkpt><trkpt lat="42.3612867" lon="12.47093"><ele>46.0</ele><time>2026-05-02T09:14:59.489Z</time></trkpt><trkpt lat="42.3614967" lon="12.470915"><ele>49.0</ele><time>2026-05-02T09:15:00.489Z</time></trkpt><trkpt lat="42.36171" lon="12.4708967"><ele>52.0</ele><time>2026-05-02T09:15:01.489Z</time></trkpt><trkpt lat="42.3619233" lon="12.4708817"><ele>55.0</ele><time>2026-05-02T09:15:02.489Z</time></trkpt><trkpt lat="42.3621333" lon="12.4708667"><ele>57.33333333333333</ele><time>2026-05-02T09:15:03.489Z</time></trkpt><trkpt lat="42.3623417" lon="12.47086"><ele>59.66666666666667</ele><time>2026-05-02T09:15:04.489Z</time></trkpt><trkpt lat="42.362565" lon="12.47086"><ele>62.0</ele><time>2026-05-02T09:15:05.489Z</time></trkpt><trkpt lat="42.36278" lon="12.4708533"><ele>62.0</ele><time>2026-05-02T09:15:06.489Z</time></trkpt><trkpt lat="42.3629967" lon="12.47085"><ele>62.0</ele><time>2026-05-02T09:15:07.489Z</time></trkpt><trkpt lat="42.36321" lon="12.4708483"><ele>62.0</ele><time>2026-05-02T09:15:08.489Z</time></trkpt><trkpt lat="42.3634267" lon="12.4708467"><ele>61.66666666666667</ele><time>2026-05-02T09:15:09.489Z</time></trkpt><trkpt lat="42.3636417" lon="12.4708483"><ele>61.33333333333333</ele><time>2026-05-02T09:15:10.49Z</time></trkpt><trkpt lat="42.3638567" lon="12.47085"><ele>61.0</ele><time>2026-05-02T09:15:11.489Z</time></trkpt><trkpt lat="42.3640733" lon="12.4708667"><ele>59.0</ele><time>2026-05-02T09:15:12.489Z</time></trkpt><trkpt lat="42.3642917" lon="12.4708767"><ele>57.0</ele><time>2026-05-02T09:15:13.489Z</time></trkpt><trkpt lat="42.364505" lon="12.4708783"><ele>55.0</ele><time>2026-05-02T09:15:14.489Z</time></trkpt><trkpt lat="42.36472" lon="12.4708717"><ele>54.0</ele><time>2026-05-02T09:15:15.489Z</time></trkpt><trkpt lat="42.3649283" lon="12.4708733"><ele>53.0</ele><time>2026-05-02T09:15:16.489Z</time></trkpt><trkpt lat="42.3651367" lon="12.4708767"><ele>52.0</ele><time>2026-05-02T09:15:17.49Z</time></trkpt><trkpt lat="42.3653517" lon="12.4708867"><ele>51.0</ele><time>2026-05-02T09:15:18.489Z</time></trkpt><trkpt lat="42.3655617" lon="12.470895"><ele>50.0</ele><time>2026-05-02T09:15:19.489Z</time></trkpt><trkpt lat="42.3657717" lon="12.4709033"><ele>49.0</ele><time>2026-05-02T09:15:20.489Z</time></trkpt><trkpt lat="42.3659833" lon="12.4709067"><ele>49.0</ele><time>2026-05-02T09:15:21.489Z</time></trkpt><trkpt lat="42.3661917" lon="12.4709067"><ele>49.0</ele><time>2026-05-02T09:15:22.489Z</time></trkpt><trkpt lat="42.3663917" lon="12.4709117"><ele>49.0</ele><time>2026-05-02T09:15:23.489Z</time></trkpt><trkpt lat="42.3665917" lon="12.4709167"><ele>48.0</ele><time>2026-05-02T09:15:24.489Z</time></trkpt><trkpt lat="42.3667883" lon="12.4709133"><ele>47.0</ele><time>2026-05-02T09:15:25.489Z</time></trkpt><trkpt lat="42.3669883" lon="12.4709267"><ele>46.0</ele><time>2026-05-02T09:15:26.489Z</time></trkpt><trkpt lat="42.3671867" lon="12.4709283"><ele>46.0</ele><time>2026-05-02T09:15:27.489Z</time></trkpt><trkpt lat="42.3673833" lon="12.470925"><ele>46.0</ele><time>2026-05-02T09:15:28.489Z</time></trkpt><trkpt lat="42.36758" lon="12.4709233"><ele>46.0</ele><time>2026-05-02T09:15:29.489Z</time></trkpt><trkpt lat="42.3677817" lon="12.470925"><ele>46.0</ele><time>2026-05-02T09:15:30.489Z</time></trkpt><trkpt lat="42.3679867" lon="12.4709233"><ele>46.0</ele><time>2026-05-02T09:15:31.489Z</time></trkpt><trkpt lat="42.368185" lon="12.4709233"><ele>46.0</ele><time>2026-05-02T09:15:32.49Z</time></trkpt><trkpt lat="42.3683783" lon="12.470925"><ele>46.66666666666667</ele><time>2026-05-02T09:15:33.49Z</time></trkpt><trkpt lat="42.3685583" lon="12.4709183"><ele>47.333333333333336</ele><time>2026-05-02T09:15:34.489Z</time></trkpt><trkpt lat="42.3687433" lon="12.47092"><ele>48.0</ele><time>2026-05-02T09:15:35.489Z</time></trkpt><trkpt lat="42.3689217" lon="12.47093"><ele>48.33333333333333</ele><time>2026-05-02T09:15:36.489Z</time></trkpt><trkpt lat="42.3690867" lon="12.470945"><ele>48.666666666666664</ele><time>2026-05-02T09:15:37.489Z</time></trkpt><trkpt lat="42.3692583" lon="12.47095"><ele>49.0</ele><time>2026-05-02T09:15:38.489Z</time></trkpt><trkpt lat="42.3694233" lon="12.470955"><ele>49.0</ele><time>2026-05-02T09:15:39.489Z</time></trkpt><trkpt lat="42.3695917" lon="12.4709433"><ele>49.0</ele><time>2026-05-02T09:15:40.489Z</time></trkpt><trkpt lat="42.3697667" lon="12.4709433"><ele>49.0</ele><time>2026-05-02T09:15:41.489Z</time></trkpt><trkpt lat="42.3699517" lon="12.47094"><ele>49.33333333333333</ele><time>2026-05-02T09:15:42.489Z</time></trkpt><trkpt lat="42.37014" lon="12.4709367"><ele>49.66666666666667</ele><time>2026-05-02T09:15:43.489Z</time></trkpt><trkpt lat="42.37034" lon="12.470945"><ele>50.0</ele><time>2026-05-02T09:15:44.489Z</time></trkpt><trkpt lat="42.3705483" lon="12.47096"><ele>49.333333333333336</ele><time>2026-05-02T09:15:45.489Z</time></trkpt><trkpt lat="42.3707633" lon="12.4709633"><ele>48.66666666666667</ele><time>2026-05-02T09:15:46.489Z</time></trkpt><trkpt lat="42.370975" lon="12.4709633"><ele>48.0</ele><time>2026-05-02T09:15:47.489Z</time></trkpt><trkpt lat="42.3711917" lon="12.4709633"><ele>48.0</ele><time>2026-05-02T09:15:48.489Z</time></trkpt><trkpt lat="42.37141" lon="12.4709683"><ele>48.0</ele><time>2026-05-02T09:15:49.489Z</time></trkpt><trkpt lat="42.3716217" lon="12.4709717"><ele>48.0</ele><time>2026-05-02T09:15:50.489Z</time></trkpt><trkpt lat="42.3718367" lon="12.470975"><ele>48.0</ele><time>2026-05-02T09:15:51.489Z</time></trkpt><trkpt lat="42.37205" lon="12.4709767"><ele>48.0</ele><time>2026-05-02T09:15:52.49Z</time></trkpt><trkpt lat="42.3722683" lon="12.4709867"><ele>48.0</ele><time>2026-05-02T09:15:53.489Z</time></trkpt><trkpt lat="42.3724817" lon="12.4709833"><ele>47.333333333333336</ele><time>2026-05-02T09:15:54.489Z</time></trkpt><trkpt lat="42.3727017" lon="12.47099"><ele>46.66666666666667</ele><time>2026-05-02T09:15:55.489Z</time></trkpt><trkpt lat="42.37292" lon="12.471"><ele>46.0</ele><time>2026-05-02T09:15:56.489Z</time></trkpt><trkpt lat="42.37314" lon="12.4710117"><ele>47.333333333333336</ele><time>2026-05-02T09:15:57.489Z</time></trkpt><trkpt lat="42.3733617" lon="12.471025"><ele>48.66666666666667</ele><time>2026-05-02T09:15:58.489Z</time></trkpt><trkpt lat="42.3735867" lon="12.4710483"><ele>50.0</ele><time>2026-05-02T09:15:59.489Z</time></trkpt><trkpt lat="42.373805" lon="12.4710817"><ele>50.333333333333336</ele><time>2026-05-02T09:16:00.489Z</time></trkpt><trkpt lat="42.3740183" lon="12.4711117"><ele>50.66666666666667</ele><time>2026-05-02T09:16:01.489Z</time></trkpt><trkpt lat="42.37423" lon="12.4711433"><ele>51.0</ele><time>2026-05-02T09:16:02.489Z</time></trkpt><trkpt lat="42.3744417" lon="12.471185"><ele>51.0</ele><time>2026-05-02T09:16:03.489Z</time></trkpt><trkpt lat="42.3746617" lon="12.4712467"><ele>51.0</ele><time>2026-05-02T09:16:04.489Z</time></trkpt><trkpt lat="42.3748783" lon="12.4713017"><ele>51.0</ele><time>2026-05-02T09:16:05.489Z</time></trkpt><trkpt lat="42.3750883" lon="12.471355"><ele>52.0</ele><time>2026-05-02T09:16:06.489Z</time></trkpt><trkpt lat="42.3753067" lon="12.4714083"><ele>53.0</ele><time>2026-05-02T09:16:07.489Z</time></trkpt><trkpt lat="42.3755117" lon="12.4714583"><ele>54.0</ele><time>2026-05-02T09:16:08.49Z</time></trkpt><trkpt lat="42.3757283" lon="12.4715117"><ele>54.0</ele><time>2026-05-02T09:16:09.489Z</time></trkpt><trkpt lat="42.3759467" lon="12.47157"><ele>54.0</ele><time>2026-05-02T09:16:10.489Z</time></trkpt><trkpt lat="42.376165" lon="12.4716317"><ele>54.0</ele><time>2026-05-02T09:16:11.489Z</time></trkpt><trkpt lat="42.37638" lon="12.47169"><ele>53.33333333333333</ele><time>2026-05-02T09:16:12.49Z</time></trkpt><trkpt lat="42.376595" lon="12.4717467"><ele>52.666666666666664</ele><time>2026-05-02T09:16:13.489Z</time></trkpt><trkpt lat="42.376805" lon="12.471795"><ele>52.0</ele><time>2026-05-02T09:16:14.489Z</time></trkpt><trkpt lat="42.377015" lon="12.4718417"><ele>52.33333333333333</ele><time>2026-05-02T09:16:15.489Z</time></trkpt><trkpt lat="42.3772233" lon="12.4718783"><ele>52.66666666666667</ele><time>2026-05-02T09:16:16.489Z</time></trkpt><trkpt lat="42.3774367" lon="12.47191"><ele>53.0</ele><time>2026-05-02T09:16:17.489Z</time></trkpt><trkpt lat="42.3776467" lon="12.4719267"><ele>53.0</ele><time>2026-05-02T09:16:18.489Z</time></trkpt><trkpt lat="42.37786" lon="12.4719417"><ele>53.0</ele><time>2026-05-02T09:16:19.489Z</time></trkpt><trkpt lat="42.378075" lon="12.4719467"><ele>53.0</ele><time>2026-05-02T09:16:20.489Z</time></trkpt><trkpt lat="42.37829" lon="12.4719467"><ele>52.66666666666667</ele><time>2026-05-02T09:16:21.489Z</time></trkpt><trkpt lat="42.3785083" lon="12.4719317"><ele>52.33333333333333</ele><time>2026-05-02T09:16:22.489Z</time></trkpt><trkpt lat="42.3787267" lon="12.4719167"><ele>52.0</ele><time>2026-05-02T09:16:23.489Z</time></trkpt><trkpt lat="42.378935" lon="12.4718917"><ele>52.0</ele><time>2026-05-02T09:16:24.489Z</time></trkpt><trkpt lat="42.3791467" lon="12.47186"><ele>52.0</ele><time>2026-05-02T09:16:25.489Z</time></trkpt><trkpt lat="42.3793583" lon="12.4718183"><ele>52.0</ele><time>2026-05-02T09:16:26.489Z</time></trkpt><trkpt lat="42.3795717" lon="12.4717833"><ele>54.0</ele><time>2026-05-02T09:16:27.49Z</time></trkpt><trkpt lat="42.37979" lon="12.4717417"><ele>56.0</ele><time>2026-05-02T09:16:28.489Z</time></trkpt><trkpt lat="42.3800017" lon="12.4716983"><ele>58.0</ele><time>2026-05-02T09:16:29.489Z</time></trkpt><trkpt lat="42.38022" lon="12.4716583"><ele>58.0</ele><time>2026-05-02T09:16:30.489Z</time></trkpt><trkpt lat="42.3804383" lon="12.4716217"><ele>58.0</ele><time>2026-05-02T09:16:31.49Z</time></trkpt><trkpt lat="42.3806583" lon="12.4715783"><ele>58.0</ele><time>2026-05-02T09:16:32.49Z</time></trkpt><trkpt lat="42.38088" lon="12.4715367"><ele>58.33333333333333</ele><time>2026-05-02T09:16:33.489Z</time></trkpt><trkpt lat="42.3811" lon="12.4714917"><ele>58.66666666666667</ele><time>2026-05-02T09:16:34.489Z</time></trkpt><trkpt lat="42.3813133" lon="12.4714417"><ele>59.0</ele><time>2026-05-02T09:16:35.489Z</time></trkpt><trkpt lat="42.3815333" lon="12.4714033"><ele>56.5</ele><time>2026-05-02T09:16:36.489Z</time></trkpt><trkpt lat="42.3817567" lon="12.471365"><ele>54.0</ele><time>2026-05-02T09:16:37.489Z</time></trkpt><trkpt lat="42.38198" lon="12.47133"><ele>54.66666666666667</ele><time>2026-05-02T09:16:38.489Z</time></trkpt><trkpt lat="42.3821967" lon="12.4712883"><ele>55.333333333333336</ele><time>2026-05-02T09:16:39.489Z</time></trkpt><trkpt lat="42.3824133" lon="12.471245"><ele>56.0</ele><time>2026-05-02T09:16:40.489Z</time></trkpt><trkpt lat="42.3826267" lon="12.4711983"><ele>54.66666666666667</ele><time>2026-05-02T09:16:41.489Z</time></trkpt><trkpt lat="42.382835" lon="12.471155"><ele>53.33333333333333</ele><time>2026-05-02T09:16:42.489Z</time></trkpt><trkpt lat="42.3830467" lon="12.4711117"><ele>52.0</ele><time>2026-05-02T09:16:43.489Z</time></trkpt><trkpt lat="42.383255" lon="12.4710667"><ele>52.0</ele><time>2026-05-02T09:16:44.489Z</time></trkpt><trkpt lat="42.3834633" lon="12.47103"><ele>52.0</ele><time>2026-05-02T09:16:45.49Z</time></trkpt><trkpt lat="42.3836667" lon="12.4709917"><ele>52.0</ele><time>2026-05-02T09:16:46.489Z</time></trkpt><trkpt lat="42.3838733" lon="12.4709533"><ele>52.33333333333333</ele><time>2026-05-02T09:16:47.489Z</time></trkpt><trkpt lat="42.3840767" lon="12.4709217"><ele>52.66666666666667</ele><time>2026-05-02T09:16:48.489Z</time></trkpt><trkpt lat="42.3842817" lon="12.4708867"><ele>53.0</ele><time>2026-05-02T09:16:49.489Z</time></trkpt><trkpt lat="42.38448" lon="12.4708467"><ele>53.0</ele><time>2026-05-02T09:16:50.489Z</time></trkpt><trkpt lat="42.384675" lon="12.470805"><ele>53.0</ele><time>2026-05-02T09:16:51.489Z</time></trkpt><trkpt lat="42.3848733" lon="12.470765"><ele>53.0</ele><time>2026-05-02T09:16:52.489Z</time></trkpt><trkpt lat="42.38507" lon="12.4707333"><ele>55.0</ele><time>2026-05-02T09:16:53.489Z</time></trkpt><trkpt lat="42.3852617" lon="12.4706983"><ele>57.0</ele><time>2026-05-02T09:16:54.489Z</time></trkpt><trkpt lat="42.385455" lon="12.47066"><ele>59.0</ele><time>2026-05-02T09:16:55.489Z</time></trkpt><trkpt lat="42.3856467" lon="12.470625"><ele>60.0</ele><time>2026-05-02T09:16:56.489Z</time></trkpt><trkpt lat="42.38584" lon="12.47059"><ele>61.0</ele><time>2026-05-02T09:16:57.489Z</time></trkpt><trkpt lat="42.3860367" lon="12.4705483"><ele>62.0</ele><time>2026-05-02T09:16:58.489Z</time></trkpt><trkpt lat="42.3862317" lon="12.4705067"><ele>56.0</ele><time>2026-05-02T09:16:59.489Z</time></trkpt><trkpt lat="42.3866233" lon="12.4704217"><ele>50.0</ele><time>2026-05-02T09:17:01.489Z</time></trkpt><trkpt lat="42.386815" lon="12.4703833"><ele>50.0</ele><time>2026-05-02T09:17:02.489Z</time></trkpt><trkpt lat="42.3870083" lon="12.47033"><ele>50.0</ele><time>2026-05-02T09:17:03.489Z</time></trkpt><trkpt lat="42.3872" lon="12.470265"><ele>50.0</ele><time>2026-05-02T09:17:04.489Z</time></trkpt><trkpt lat="42.3873883" lon="12.47019"><ele>51.66666666666667</ele><time>2026-05-02T09:17:05.489Z</time></trkpt><trkpt lat="42.387575" lon="12.4701117"><ele>53.33333333333333</ele><time>2026-05-02T09:17:06.489Z</time></trkpt><trkpt lat="42.3877617" lon="12.4700183"><ele>55.0</ele><time>2026-05-02T09:17:07.489Z</time></trkpt><trkpt lat="42.3879433" lon="12.46992"><ele>57.33333333333333</ele><time>2026-05-02T09:17:08.489Z</time></trkpt><trkpt lat="42.38813" lon="12.4698167"><ele>59.66666666666667</ele><time>2026-05-02T09:17:09.49Z</time></trkpt><trkpt lat="42.3883183" lon="12.4697067"><ele>62.0</ele><time>2026-05-02T09:17:10.489Z</time></trkpt><trkpt lat="42.3885" lon="12.4695817"><ele>58.333333333333336</ele><time>2026-05-02T09:17:11.489Z</time></trkpt><trkpt lat="42.3886767" lon="12.4694483"><ele>54.66666666666667</ele><time>2026-05-02T09:17:12.489Z</time></trkpt><trkpt lat="42.3888467" lon="12.4693067"><ele>51.0</ele><time>2026-05-02T09:17:13.489Z</time></trkpt><trkpt lat="42.389015" lon="12.4691433"><ele>51.0</ele><time>2026-05-02T09:17:14.489Z</time></trkpt><trkpt lat="42.3891867" lon="12.468975"><ele>51.0</ele><time>2026-05-02T09:17:15.489Z</time></trkpt><trkpt lat="42.3893567" lon="12.4688083"><ele>51.0</ele><time>2026-05-02T09:17:16.489Z</time></trkpt><trkpt lat="42.38953" lon="12.4686367"><ele>50.0</ele><time>2026-05-02T09:17:17.489Z</time></trkpt><trkpt lat="42.389705" lon="12.46846"><ele>49.0</ele><time>2026-05-02T09:17:18.489Z</time></trkpt><trkpt lat="42.3898867" lon="12.4682867"><ele>48.0</ele><time>2026-05-02T09:17:19.489Z</time></trkpt><trkpt lat="42.3900617" lon="12.4681133"><ele>47.333333333333336</ele><time>2026-05-02T09:17:20.489Z</time></trkpt><trkpt lat="42.3902383" lon="12.4679383"><ele>46.66666666666667</ele><time>2026-05-02T09:17:21.489Z</time></trkpt><trkpt lat="42.3904233" lon="12.4677717"><ele>46.0</ele><time>2026-05-02T09:17:22.489Z</time></trkpt><trkpt lat="42.3906033" lon="12.4675933"><ele>45.66666666666667</ele><time>2026-05-02T09:17:23.489Z</time></trkpt><trkpt lat="42.390785" lon="12.46742"><ele>45.333333333333336</ele><time>2026-05-02T09:17:24.489Z</time></trkpt><trkpt lat="42.390965" lon="12.467245"><ele>45.0</ele><time>2026-05-02T09:17:25.489Z</time></trkpt><trkpt lat="42.3911467" lon="12.4670767"><ele>44.666666666666664</ele><time>2026-05-02T09:17:26.489Z</time></trkpt><trkpt lat="42.3913317" lon="12.4669067"><ele>44.33333333333333</ele><time>2026-05-02T09:17:27.489Z</time></trkpt><trkpt lat="42.3915117" lon="12.4667317"><ele>44.0</ele><time>2026-05-02T09:17:28.489Z</time></trkpt><trkpt lat="42.3916933" lon="12.4665567"><ele>44.0</ele><time>2026-05-02T09:17:29.489Z</time></trkpt><trkpt lat="42.391875" lon="12.46638"><ele>44.0</ele><time>2026-05-02T09:17:30.489Z</time></trkpt><trkpt lat="42.3920517" lon="12.4662067"><ele>44.0</ele><time>2026-05-02T09:17:31.489Z</time></trkpt><trkpt lat="42.392225" lon="12.4660267"><ele>46.33333333333333</ele><time>2026-05-02T09:17:32.489Z</time></trkpt><trkpt lat="42.3924083" lon="12.4658583"><ele>48.666666666666664</ele><time>2026-05-02T09:17:33.489Z</time></trkpt><trkpt lat="42.39259" lon="12.4656817"><ele>51.0</ele><time>2026-05-02T09:17:34.489Z</time></trkpt><trkpt lat="42.3927733" lon="12.4655133"><ele>51.0</ele><time>2026-05-02T09:17:35.489Z</time></trkpt><trkpt lat="42.39295" lon="12.4653367"><ele>51.0</ele><time>2026-05-02T09:17:36.489Z</time></trkpt><trkpt lat="42.3931283" lon="12.4651633"><ele>51.0</ele><time>2026-05-02T09:17:37.489Z</time></trkpt><trkpt lat="42.3933083" lon="12.46499"><ele>51.0</ele><time>2026-05-02T09:17:38.489Z</time></trkpt><trkpt lat="42.3934917" lon="12.46482"><ele>51.0</ele><time>2026-05-02T09:17:39.49Z</time></trkpt><trkpt lat="42.3936717" lon="12.4646467"><ele>51.0</ele><time>2026-05-02T09:17:40.489Z</time></trkpt><trkpt lat="42.3938517" lon="12.4644733"><ele>51.66666666666667</ele><time>2026-05-02T09:17:41.489Z</time></trkpt><trkpt lat="42.3940317" lon="12.4643033"><ele>52.333333333333336</ele><time>2026-05-02T09:17:42.489Z</time></trkpt><trkpt lat="42.3942067" lon="12.4641317"><ele>53.0</ele><time>2026-05-02T09:17:43.489Z</time></trkpt><trkpt lat="42.3943783" lon="12.4639533"><ele>53.0</ele><time>2026-05-02T09:17:44.49Z</time></trkpt><trkpt lat="42.3945517" lon="12.46378"><ele>53.0</ele><time>2026-05-02T09:17:45.489Z</time></trkpt><trkpt lat="42.39473" lon="12.46361"><ele>53.0</ele><time>2026-05-02T09:17:46.489Z</time></trkpt><trkpt lat="42.3949083" lon="12.4634433"><ele>53.0</ele><time>2026-05-02T09:17:47.489Z</time></trkpt><trkpt lat="42.3950867" lon="12.4632733"><ele>53.0</ele><time>2026-05-02T09:17:48.489Z</time></trkpt><trkpt lat="42.3952633" lon="12.4631067"><ele>53.0</ele><time>2026-05-02T09:17:49.489Z</time></trkpt><trkpt lat="42.3954383" lon="12.4629317"><ele>53.333333333333336</ele><time>2026-05-02T09:17:50.489Z</time></trkpt><trkpt lat="42.3956183" lon="12.4627533"><ele>53.66666666666667</ele><time>2026-05-02T09:17:51.489Z</time></trkpt><trkpt lat="42.3957967" lon="12.4625833"><ele>54.0</ele><time>2026-05-02T09:17:52.489Z</time></trkpt><trkpt lat="42.3959783" lon="12.46241"><ele>54.0</ele><time>2026-05-02T09:17:53.489Z</time></trkpt><trkpt lat="42.3961567" lon="12.462235"><ele>54.0</ele><time>2026-05-02T09:17:54.489Z</time></trkpt><trkpt lat="42.3963367" lon="12.46206"><ele>54.0</ele><time>2026-05-02T09:17:55.489Z</time></trkpt><trkpt lat="42.39652" lon="12.4618833"><ele>54.0</ele><time>2026-05-02T09:17:56.489Z</time></trkpt><trkpt lat="42.3966983" lon="12.4617133"><ele>54.0</ele><time>2026-05-02T09:17:57.489Z</time></trkpt><trkpt lat="42.3968717" lon="12.4615383"><ele>54.0</ele><time>2026-05-02T09:17:58.489Z</time></trkpt><trkpt lat="42.397045" lon="12.4613667"><ele>53.66666666666667</ele><time>2026-05-02T09:17:59.49Z</time></trkpt><trkpt lat="42.39722" lon="12.461195"><ele>53.333333333333336</ele><time>2026-05-02T09:18:00.489Z</time></trkpt><trkpt lat="42.3973967" lon="12.4610267"><ele>53.0</ele><time>2026-05-02T09:18:01.489Z</time></trkpt><trkpt lat="42.3975717" lon="12.4608517"><ele>53.0</ele><time>2026-05-02T09:18:02.489Z</time></trkpt><trkpt lat="42.3977433" lon="12.46068"><ele>53.0</ele><time>2026-05-02T09:18:03.489Z</time></trkpt><trkpt lat="42.3979217" lon="12.4605083"><ele>53.0</ele><time>2026-05-02T09:18:04.489Z</time></trkpt><trkpt lat="42.3980983" lon="12.4603317"><ele>51.66666666666667</ele><time>2026-05-02T09:18:05.49Z</time></trkpt><trkpt lat="42.39828" lon="12.4601567"><ele>50.33333333333333</ele><time>2026-05-02T09:18:06.489Z</time></trkpt><trkpt lat="42.3984567" lon="12.45998"><ele>49.0</ele><time>2026-05-02T09:18:07.489Z</time></trkpt><trkpt lat="42.3986367" lon="12.4598017"><ele>49.0</ele><time>2026-05-02T09:18:08.489Z</time></trkpt><trkpt lat="42.3988183" lon="12.4596133"><ele>49.0</ele><time>2026-05-02T09:18:09.489Z</time></trkpt><trkpt lat="42.399005" lon="12.4594333"><ele>49.5</ele><time>2026-05-02T09:18:10.49Z</time></trkpt><trkpt lat="42.3991883" lon="12.4592467"><ele>50.0</ele><time>2026-05-02T09:18:11.489Z</time></trkpt><trkpt lat="42.3993717" lon="12.4590583"><ele>50.0</ele><time>2026-05-02T09:18:12.489Z</time></trkpt><trkpt lat="42.3995617" lon="12.458875"><ele>50.0</ele><time>2026-05-02T09:18:13.489Z</time></trkpt><trkpt lat="42.39975" lon="12.4586917"><ele>49.5</ele><time>2026-05-02T09:18:14.489Z</time></trkpt><trkpt lat="42.3999333" lon="12.4585033"><ele>49.0</ele><time>2026-05-02T09:18:15.489Z</time></trkpt><trkpt lat="42.4001183" lon="12.4583133"><ele>49.0</ele><time>2026-05-02T09:18:16.489Z</time></trkpt><trkpt lat="42.4003017" lon="12.4581267"><ele>49.0</ele><time>2026-05-02T09:18:17.489Z</time></trkpt><trkpt lat="42.4004817" lon="12.4579383"><ele>47.0</ele><time>2026-05-02T09:18:18.489Z</time></trkpt><trkpt lat="42.4006517" lon="12.4577417"><ele>45.0</ele><time>2026-05-02T09:18:19.489Z</time></trkpt><trkpt lat="42.4008283" lon="12.4575383"><ele>45.0</ele><time>2026-05-02T09:18:20.489Z</time></trkpt><trkpt lat="42.4010117" lon="12.4573467"><ele>45.0</ele><time>2026-05-02T09:18:21.489Z</time></trkpt><trkpt lat="42.401195" lon="12.45716"><ele>44.5</ele><time>2026-05-02T09:18:22.489Z</time></trkpt><trkpt lat="42.4013733" lon="12.456965"><ele>44.0</ele><time>2026-05-02T09:18:23.49Z</time></trkpt><trkpt lat="42.4015567" lon="12.45677"><ele>44.0</ele><time>2026-05-02T09:18:24.489Z</time></trkpt><trkpt lat="42.4017333" lon="12.4565683"><ele>44.0</ele><time>2026-05-02T09:18:25.489Z</time></trkpt><trkpt lat="42.4019133" lon="12.4563733"><ele>44.0</ele><time>2026-05-02T09:18:26.489Z</time></trkpt><trkpt lat="42.4020933" lon="12.4561817"><ele>44.0</ele><time>2026-05-02T09:18:27.49Z</time></trkpt><trkpt lat="42.4022767" lon="12.4559917"><ele>43.5</ele><time>2026-05-02T09:18:28.489Z</time></trkpt><trkpt lat="42.4024583" lon="12.4558"><ele>43.0</ele><time>2026-05-02T09:18:29.489Z</time></trkpt><trkpt lat="42.40264" lon="12.4556017"><ele>43.0</ele><time>2026-05-02T09:18:30.489Z</time></trkpt><trkpt lat="42.4028233" lon="12.4554033"><ele>43.0</ele><time>2026-05-02T09:18:31.49Z</time></trkpt><trkpt lat="42.40301" lon="12.45521"><ele>43.0</ele><time>2026-05-02T09:18:32.489Z</time></trkpt><trkpt lat="42.403195" lon="12.4550133"><ele>43.0</ele><time>2026-05-02T09:18:33.489Z</time></trkpt><trkpt lat="42.4033767" lon="12.454815"><ele>42.5</ele><time>2026-05-02T09:18:34.489Z</time></trkpt><trkpt lat="42.40356" lon="12.4546133"><ele>42.0</ele><time>2026-05-02T09:18:35.489Z</time></trkpt><trkpt lat="42.4039367" lon="12.4542217"><ele>42.0</ele><time>2026-05-02T09:18:37.489Z</time></trkpt><trkpt lat="42.40412" lon="12.4540267"><ele>42.0</ele><time>2026-05-02T09:18:38.489Z</time></trkpt><trkpt lat="42.404295" lon="12.4538317"><ele>42.0</ele><time>2026-05-02T09:18:39.489Z</time></trkpt><trkpt lat="42.4044733" lon="12.4536333"><ele>42.0</ele><time>2026-05-02T09:18:40.49Z</time></trkpt><trkpt lat="42.40465" lon="12.453445"><ele>42.0</ele><time>2026-05-02T09:18:41.489Z</time></trkpt><trkpt lat="42.4048267" lon="12.4532467"><ele>42.0</ele><time>2026-05-02T09:18:42.489Z</time></trkpt><trkpt lat="42.405005" lon="12.4530517"><ele>42.0</ele><time>2026-05-02T09:18:43.489Z</time></trkpt><trkpt lat="42.4051933" lon="12.4528617"><ele>42.0</ele><time>2026-05-02T09:18:44.489Z</time></trkpt><trkpt lat="42.40538" lon="12.45267"><ele>42.5</ele><time>2026-05-02T09:18:45.489Z</time></trkpt><trkpt lat="42.4055617" lon="12.4524717"><ele>43.0</ele><time>2026-05-02T09:18:46.489Z</time></trkpt><trkpt lat="42.405745" lon="12.4522767"><ele>44.0</ele><time>2026-05-02T09:18:47.489Z</time></trkpt><trkpt lat="42.4059233" lon="12.4520867"><ele>45.0</ele><time>2026-05-02T09:18:48.49Z</time></trkpt><trkpt lat="42.4061067" lon="12.451895"><ele>45.0</ele><time>2026-05-02T09:18:49.489Z</time></trkpt><trkpt lat="42.4062783" lon="12.4517"><ele>45.0</ele><time>2026-05-02T09:18:50.489Z</time></trkpt><trkpt lat="42.40646" lon="12.451505"><ele>45.0</ele><time>2026-05-02T09:18:51.489Z</time></trkpt><trkpt lat="42.4066383" lon="12.4513167"><ele>45.0</ele><time>2026-05-02T09:18:52.489Z</time></trkpt><trkpt lat="42.4068217" lon="12.4511317"><ele>45.0</ele><time>2026-05-02T09:18:53.489Z</time></trkpt><trkpt lat="42.406995" lon="12.450935"><ele>45.0</ele><time>2026-05-02T09:18:54.489Z</time></trkpt><trkpt lat="42.4071767" lon="12.4507383"><ele>44.0</ele><time>2026-05-02T09:18:55.489Z</time></trkpt><trkpt lat="42.407355" lon="12.45054"><ele>43.0</ele><time>2026-05-02T09:18:56.489Z</time></trkpt><trkpt lat="42.4075333" lon="12.4503383"><ele>43.0</ele><time>2026-05-02T09:18:57.489Z</time></trkpt><trkpt lat="42.4077117" lon="12.4501533"><ele>43.0</ele><time>2026-05-02T09:18:58.489Z</time></trkpt><trkpt lat="42.407885" lon="12.449965"><ele>43.0</ele><time>2026-05-02T09:18:59.489Z</time></trkpt><trkpt lat="42.4080567" lon="12.4497733"><ele>43.333333333333336</ele><time>2026-05-02T09:19:00.49Z</time></trkpt><trkpt lat="42.408225" lon="12.4495867"><ele>43.666666666666664</ele><time>2026-05-02T09:19:01.49Z</time></trkpt><trkpt lat="42.4083983" lon="12.4494"><ele>44.0</ele><time>2026-05-02T09:19:02.489Z</time></trkpt><trkpt lat="42.40857" lon="12.4492117"><ele>44.0</ele><time>2026-05-02T09:19:03.489Z</time></trkpt><trkpt lat="42.4087383" lon="12.4490183"><ele>44.0</ele><time>2026-05-02T09:19:04.49Z</time></trkpt><trkpt lat="42.40891" lon="12.4488317"><ele>44.0</ele><time>2026-05-02T09:19:05.489Z</time></trkpt><trkpt lat="42.4090867" lon="12.4486417"><ele>44.0</ele><time>2026-05-02T09:19:06.489Z</time></trkpt><trkpt lat="42.4092617" lon="12.4484533"><ele>44.0</ele><time>2026-05-02T09:19:07.489Z</time></trkpt><trkpt lat="42.409435" lon="12.4482633"><ele>44.0</ele><time>2026-05-02T09:19:08.489Z</time></trkpt><trkpt lat="42.4096033" lon="12.44807"><ele>45.33333333333333</ele><time>2026-05-02T09:19:09.489Z</time></trkpt><trkpt lat="42.4097783" lon="12.447885"><ele>46.666666666666664</ele><time>2026-05-02T09:19:10.489Z</time></trkpt><trkpt lat="42.409955" lon="12.447695"><ele>48.0</ele><time>2026-05-02T09:19:11.489Z</time></trkpt><trkpt lat="42.4101233" lon="12.447495"><ele>48.0</ele><time>2026-05-02T09:19:12.489Z</time></trkpt><trkpt lat="42.410295" lon="12.44731"><ele>48.0</ele><time>2026-05-02T09:19:13.489Z</time></trkpt><trkpt lat="42.4104617" lon="12.4471183"><ele>48.0</ele><time>2026-05-02T09:19:14.489Z</time></trkpt><trkpt lat="42.4106367" lon="12.4469333"><ele>47.0</ele><time>2026-05-02T09:19:15.489Z</time></trkpt><trkpt lat="42.41082" lon="12.4467517"><ele>46.0</ele><time>2026-05-02T09:19:16.489Z</time></trkpt><trkpt lat="42.4109917" lon="12.4465667"><ele>45.0</ele><time>2026-05-02T09:19:17.489Z</time></trkpt><trkpt lat="42.411175" lon="12.44638"><ele>44.666666666666664</ele><time>2026-05-02T09:19:18.489Z</time></trkpt><trkpt lat="42.411345" lon="12.44619"><ele>44.33333333333333</ele><time>2026-05-02T09:19:19.489Z</time></trkpt><trkpt lat="42.4115233" lon="12.446"><ele>44.0</ele><time>2026-05-02T09:19:20.489Z</time></trkpt><trkpt lat="42.4117017" lon="12.4458083"><ele>44.0</ele><time>2026-05-02T09:19:21.489Z</time></trkpt><trkpt lat="42.4118817" lon="12.4456183"><ele>44.0</ele><time>2026-05-02T09:19:22.489Z</time></trkpt><trkpt lat="42.4120633" lon="12.4454367"><ele>44.33333333333333</ele><time>2026-05-02T09:19:23.489Z</time></trkpt><trkpt lat="42.4122367" lon="12.4452533"><ele>44.666666666666664</ele><time>2026-05-02T09:19:24.489Z</time></trkpt><trkpt lat="42.4124017" lon="12.4450733"><ele>45.0</ele><time>2026-05-02T09:19:25.489Z</time></trkpt><trkpt lat="42.412565" lon="12.4448967"><ele>45.0</ele><time>2026-05-02T09:19:26.49Z</time></trkpt><trkpt lat="42.41273" lon="12.4447133"><ele>45.0</ele><time>2026-05-02T09:19:27.489Z</time></trkpt><trkpt lat="42.4129017" lon="12.4445317"><ele>45.0</ele><time>2026-05-02T09:19:28.489Z</time></trkpt><trkpt lat="42.4130733" lon="12.444345"><ele>44.666666666666664</ele><time>2026-05-02T09:19:29.489Z</time></trkpt><trkpt lat="42.4132383" lon="12.4441633"><ele>44.33333333333333</ele><time>2026-05-02T09:19:30.489Z</time></trkpt><trkpt lat="42.41341" lon="12.443985"><ele>44.0</ele><time>2026-05-02T09:19:31.489Z</time></trkpt><trkpt lat="42.4135817" lon="12.4437983"><ele>44.0</ele><time>2026-05-02T09:19:32.489Z</time></trkpt><trkpt lat="42.413755" lon="12.44361"><ele>44.0</ele><time>2026-05-02T09:19:33.49Z</time></trkpt><trkpt lat="42.4139267" lon="12.44342"><ele>44.0</ele><time>2026-05-02T09:19:34.489Z</time></trkpt><trkpt lat="42.4141083" lon="12.4432383"><ele>44.0</ele><time>2026-05-02T09:19:35.489Z</time></trkpt><trkpt lat="42.414285" lon="12.4430517"><ele>44.0</ele><time>2026-05-02T09:19:36.489Z</time></trkpt><trkpt lat="42.4144633" lon="12.4428683"><ele>44.0</ele><time>2026-05-02T09:19:37.489Z</time></trkpt><trkpt lat="42.4146383" lon="12.442685"><ele>44.0</ele><time>2026-05-02T09:19:38.489Z</time></trkpt><trkpt lat="42.414815" lon="12.4425083"><ele>44.0</ele><time>2026-05-02T09:19:39.489Z</time></trkpt><trkpt lat="42.414995" lon="12.4423333"><ele>44.0</ele><time>2026-05-02T09:19:40.489Z</time></trkpt><trkpt lat="42.4151767" lon="12.4421567"><ele>44.0</ele><time>2026-05-02T09:19:41.489Z</time></trkpt><trkpt lat="42.4153533" lon="12.441985"><ele>44.0</ele><time>2026-05-02T09:19:42.489Z</time></trkpt><trkpt lat="42.4155383" lon="12.4418217"><ele>44.0</ele><time>2026-05-02T09:19:43.489Z</time></trkpt><trkpt lat="42.4157217" lon="12.4416617"><ele>44.0</ele><time>2026-05-02T09:19:44.489Z</time></trkpt><trkpt lat="42.4159067" lon="12.4415"><ele>44.0</ele><time>2026-05-02T09:19:45.489Z</time></trkpt><trkpt lat="42.41609" lon="12.44134"><ele>44.0</ele><time>2026-05-02T09:19:46.489Z</time></trkpt><trkpt lat="42.4162733" lon="12.4411817"><ele>44.33333333333333</ele><time>2026-05-02T09:19:47.489Z</time></trkpt><trkpt lat="42.4164583" lon="12.4410283"><ele>44.666666666666664</ele><time>2026-05-02T09:19:48.489Z</time></trkpt><trkpt lat="42.4166533" lon="12.4408867"><ele>45.0</ele><time>2026-05-02T09:19:49.489Z</time></trkpt><trkpt lat="42.416845" lon="12.4407433"><ele>45.0</ele><time>2026-05-02T09:19:50.489Z</time></trkpt><trkpt lat="42.4170367" lon="12.4406"><ele>45.0</ele><time>2026-05-02T09:19:51.489Z</time></trkpt><trkpt lat="42.4172317" lon="12.4404583"><ele>45.0</ele><time>2026-05-02T09:19:52.489Z</time></trkpt><trkpt lat="42.4174267" lon="12.4403133"><ele>47.0</ele><time>2026-05-02T09:19:53.489Z</time></trkpt><trkpt lat="42.4176217" lon="12.4401633"><ele>49.0</ele><time>2026-05-02T09:19:54.489Z</time></trkpt><trkpt lat="42.4178183" lon="12.4400083"><ele>48.0</ele><time>2026-05-02T09:19:55.489Z</time></trkpt><trkpt lat="42.4180167" lon="12.4398533"><ele>47.0</ele><time>2026-05-02T09:19:56.489Z</time></trkpt><trkpt lat="42.418215" lon="12.4397017"><ele>47.0</ele><time>2026-05-02T09:19:57.489Z</time></trkpt><trkpt lat="42.41841" lon="12.4395517"><ele>47.0</ele><time>2026-05-02T09:19:58.489Z</time></trkpt><trkpt lat="42.418605" lon="12.4394033"><ele>47.0</ele><time>2026-05-02T09:19:59.489Z</time></trkpt><trkpt lat="42.4188033" lon="12.43925"><ele>46.33333333333333</ele><time>2026-05-02T09:20:00.489Z</time></trkpt><trkpt lat="42.4189983" lon="12.4391083"><ele>45.666666666666664</ele><time>2026-05-02T09:20:01.489Z</time></trkpt><trkpt lat="42.4191917" lon="12.4389633"><ele>45.0</ele><time>2026-05-02T09:20:02.489Z</time></trkpt><trkpt lat="42.4193817" lon="12.4388117"><ele>45.0</ele><time>2026-05-02T09:20:03.49Z</time></trkpt><trkpt lat="42.419575" lon="12.4386683"><ele>45.0</ele><time>2026-05-02T09:20:04.489Z</time></trkpt><trkpt lat="42.4197633" lon="12.4385183"><ele>45.0</ele><time>2026-05-02T09:20:05.489Z</time></trkpt><trkpt lat="42.4199567" lon="12.4383683"><ele>45.333333333333336</ele><time>2026-05-02T09:20:06.489Z</time></trkpt><trkpt lat="42.420155" lon="12.4382267"><ele>45.66666666666667</ele><time>2026-05-02T09:20:07.489Z</time></trkpt><trkpt lat="42.4203433" lon="12.4380833"><ele>46.0</ele><time>2026-05-02T09:20:08.489Z</time></trkpt><trkpt lat="42.420525" lon="12.437935"><ele>45.333333333333336</ele><time>2026-05-02T09:20:09.489Z</time></trkpt><trkpt lat="42.4207117" lon="12.4377867"><ele>44.666666666666664</ele><time>2026-05-02T09:20:10.489Z</time></trkpt><trkpt lat="42.4209017" lon="12.4376383"><ele>44.0</ele><time>2026-05-02T09:20:11.489Z</time></trkpt><trkpt lat="42.42109" lon="12.4374983"><ele>44.0</ele><time>2026-05-02T09:20:12.489Z</time></trkpt><trkpt lat="42.4212817" lon="12.4373533"><ele>44.0</ele><time>2026-05-02T09:20:13.489Z</time></trkpt><trkpt lat="42.4214683" lon="12.437215"><ele>44.0</ele><time>2026-05-02T09:20:14.489Z</time></trkpt><trkpt lat="42.4216533" lon="12.4370633"><ele>44.33333333333333</ele><time>2026-05-02T09:20:15.489Z</time></trkpt><trkpt lat="42.4218417" lon="12.4369233"><ele>44.666666666666664</ele><time>2026-05-02T09:20:16.489Z</time></trkpt><trkpt lat="42.42203" lon="12.4367783"><ele>45.0</ele><time>2026-05-02T09:20:17.489Z</time></trkpt><trkpt lat="42.4222183" lon="12.4366333"><ele>45.0</ele><time>2026-05-02T09:20:18.489Z</time></trkpt><trkpt lat="42.4224033" lon="12.4364883"><ele>45.0</ele><time>2026-05-02T09:20:19.489Z</time></trkpt><trkpt lat="42.4225933" lon="12.436345"><ele>45.0</ele><time>2026-05-02T09:20:20.489Z</time></trkpt><trkpt lat="42.4227767" lon="12.436195"><ele>45.0</ele><time>2026-05-02T09:20:21.49Z</time></trkpt><trkpt lat="42.4229683" lon="12.43605"><ele>45.0</ele><time>2026-05-02T09:20:22.489Z</time></trkpt><trkpt lat="42.4231567" lon="12.4359"><ele>45.0</ele><time>2026-05-02T09:20:23.489Z</time></trkpt><trkpt lat="42.4233483" lon="12.435755"><ele>45.0</ele><time>2026-05-02T09:20:24.489Z</time></trkpt><trkpt lat="42.4235383" lon="12.435615"><ele>45.0</ele><time>2026-05-02T09:20:25.489Z</time></trkpt><trkpt lat="42.4237267" lon="12.4354667"><ele>45.0</ele><time>2026-05-02T09:20:26.489Z</time></trkpt><trkpt lat="42.423915" lon="12.4353183"><ele>46.0</ele><time>2026-05-02T09:20:27.489Z</time></trkpt><trkpt lat="42.4240983" lon="12.43517"><ele>47.0</ele><time>2026-05-02T09:20:28.489Z</time></trkpt><trkpt lat="42.42429" lon="12.4350283"><ele>48.0</ele><time>2026-05-02T09:20:29.489Z</time></trkpt><trkpt lat="42.424485" lon="12.4348833"><ele>48.0</ele><time>2026-05-02T09:20:30.489Z</time></trkpt><trkpt lat="42.4246733" lon="12.4347267"><ele>48.0</ele><time>2026-05-02T09:20:31.489Z</time></trkpt><trkpt lat="42.4248633" lon="12.43459"><ele>48.0</ele><time>2026-05-02T09:20:32.489Z</time></trkpt><trkpt lat="42.4250567" lon="12.4344533"><ele>48.33333333333333</ele><time>2026-05-02T09:20:33.489Z</time></trkpt><trkpt lat="42.4252517" lon="12.4343133"><ele>48.666666666666664</ele><time>2026-05-02T09:20:34.49Z</time></trkpt><trkpt lat="42.4254367" lon="12.434165"><ele>49.0</ele><time>2026-05-02T09:20:35.489Z</time></trkpt><trkpt lat="42.425635" lon="12.4340283"><ele>49.0</ele><time>2026-05-02T09:20:36.49Z</time></trkpt><trkpt lat="42.425825" lon="12.4338883"><ele>49.0</ele><time>2026-05-02T09:20:37.489Z</time></trkpt><trkpt lat="42.4260133" lon="12.4337467"><ele>49.0</ele><time>2026-05-02T09:20:38.489Z</time></trkpt><trkpt lat="42.4262017" lon="12.4335983"><ele>48.666666666666664</ele><time>2026-05-02T09:20:39.489Z</time></trkpt><trkpt lat="42.4263933" lon="12.4334517"><ele>48.33333333333333</ele><time>2026-05-02T09:20:40.489Z</time></trkpt><trkpt lat="42.4265783" lon="12.433295"><ele>48.0</ele><time>2026-05-02T09:20:41.489Z</time></trkpt><trkpt lat="42.426765" lon="12.4331417"><ele>48.0</ele><time>2026-05-02T09:20:42.489Z</time></trkpt><trkpt lat="42.42695" lon="12.4329817"><ele>48.0</ele><time>2026-05-02T09:20:43.489Z</time></trkpt><trkpt lat="42.4271333" lon="12.432825"><ele>48.0</ele><time>2026-05-02T09:20:44.489Z</time></trkpt><trkpt lat="42.427315" lon="12.4326583"><ele>49.33333333333333</ele><time>2026-05-02T09:20:45.489Z</time></trkpt><trkpt lat="42.4275033" lon="12.432495"><ele>50.666666666666664</ele><time>2026-05-02T09:20:46.489Z</time></trkpt><trkpt lat="42.427685" lon="12.4323233"><ele>52.0</ele><time>2026-05-02T09:20:47.489Z</time></trkpt><trkpt lat="42.42786" lon="12.432145"><ele>52.666666666666664</ele><time>2026-05-02T09:20:48.489Z</time></trkpt><trkpt lat="42.4280383" lon="12.4319617"><ele>53.33333333333333</ele><time>2026-05-02T09:20:49.489Z</time></trkpt><trkpt lat="42.42821" lon="12.4317733"><ele>54.0</ele><time>2026-05-02T09:20:50.489Z</time></trkpt><trkpt lat="42.428385" lon="12.43159"><ele>54.0</ele><time>2026-05-02T09:20:51.489Z</time></trkpt><trkpt lat="42.4285567" lon="12.431395"><ele>54.0</ele><time>2026-05-02T09:20:52.49Z</time></trkpt><trkpt lat="42.428725" lon="12.4311967"><ele>54.0</ele><time>2026-05-02T09:20:53.489Z</time></trkpt><trkpt lat="42.428885" lon="12.4309967"><ele>54.33333333333333</ele><time>2026-05-02T09:20:54.489Z</time></trkpt><trkpt lat="42.4290467" lon="12.4307917"><ele>54.666666666666664</ele><time>2026-05-02T09:20:55.489Z</time></trkpt><trkpt lat="42.4292083" lon="12.430585"><ele>55.0</ele><time>2026-05-02T09:20:56.489Z</time></trkpt><trkpt lat="42.4293683" lon="12.4303767"><ele>55.0</ele><time>2026-05-02T09:20:57.489Z</time></trkpt><trkpt lat="42.4295217" lon="12.4301667"><ele>55.0</ele><time>2026-05-02T09:20:58.489Z</time></trkpt><trkpt lat="42.429675" lon="12.4299517"><ele>55.0</ele><time>2026-05-02T09:20:59.489Z</time></trkpt><trkpt lat="42.4298233" lon="12.429735"><ele>54.666666666666664</ele><time>2026-05-02T09:21:00.489Z</time></trkpt><trkpt lat="42.42997" lon="12.4295167"><ele>54.33333333333333</ele><time>2026-05-02T09:21:01.489Z</time></trkpt><trkpt lat="42.4301133" lon="12.4292883"><ele>54.0</ele><time>2026-05-02T09:21:02.489Z</time></trkpt><trkpt lat="42.430265" lon="12.4290617"><ele>54.0</ele><time>2026-05-02T09:21:03.489Z</time></trkpt><trkpt lat="42.4304183" lon="12.4288417"><ele>54.0</ele><time>2026-05-02T09:21:04.489Z</time></trkpt><trkpt lat="42.430575" lon="12.4286217"><ele>54.0</ele><time>2026-05-02T09:21:05.489Z</time></trkpt><trkpt lat="42.4307317" lon="12.4284"><ele>54.0</ele><time>2026-05-02T09:21:06.489Z</time></trkpt><trkpt lat="42.4308867" lon="12.4281733"><ele>54.0</ele><time>2026-05-02T09:21:07.489Z</time></trkpt><trkpt lat="42.4310383" lon="12.4279517"><ele>53.66666666666667</ele><time>2026-05-02T09:21:08.489Z</time></trkpt><trkpt lat="42.43119" lon="12.4277367"><ele>53.333333333333336</ele><time>2026-05-02T09:21:09.489Z</time></trkpt><trkpt lat="42.4313383" lon="12.427525"><ele>53.0</ele><time>2026-05-02T09:21:10.489Z</time></trkpt><trkpt lat="42.4314833" lon="12.42731"><ele>53.0</ele><time>2026-05-02T09:21:11.489Z</time></trkpt><trkpt lat="42.4316283" lon="12.4270967"><ele>53.0</ele><time>2026-05-02T09:21:12.489Z</time></trkpt><trkpt lat="42.431775" lon="12.4268783"><ele>53.0</ele><time>2026-05-02T09:21:13.489Z</time></trkpt><trkpt lat="42.4319167" lon="12.4266583"><ele>53.0</ele><time>2026-05-02T09:21:14.489Z</time></trkpt><trkpt lat="42.4320617" lon="12.4264433"><ele>53.0</ele><time>2026-05-02T09:21:15.489Z</time></trkpt><trkpt lat="42.4322083" lon="12.4262283"><ele>53.0</ele><time>2026-05-02T09:21:16.489Z</time></trkpt><trkpt lat="42.4323583" lon="12.426015"><ele>54.66666666666667</ele><time>2026-05-02T09:21:17.489Z</time></trkpt><trkpt lat="42.4325067" lon="12.425805"><ele>56.33333333333333</ele><time>2026-05-02T09:21:18.489Z</time></trkpt><trkpt lat="42.43265" lon="12.425585"><ele>58.0</ele><time>2026-05-02T09:21:19.489Z</time></trkpt><trkpt lat="42.432795" lon="12.4253717"><ele>58.33333333333333</ele><time>2026-05-02T09:21:20.489Z</time></trkpt><trkpt lat="42.432935" lon="12.4251517"><ele>58.66666666666667</ele><time>2026-05-02T09:21:21.489Z</time></trkpt><trkpt lat="42.4330767" lon="12.424935"><ele>59.0</ele><time>2026-05-02T09:21:22.489Z</time></trkpt><trkpt lat="42.4332233" lon="12.4247167"><ele>59.0</ele><time>2026-05-02T09:21:23.489Z</time></trkpt><trkpt lat="42.4333683" lon="12.4244983"><ele>59.0</ele><time>2026-05-02T09:21:24.489Z</time></trkpt><trkpt lat="42.43352" lon="12.42428"><ele>59.0</ele><time>2026-05-02T09:21:25.489Z</time></trkpt><trkpt lat="42.433665" lon="12.4240633"><ele>60.0</ele><time>2026-05-02T09:21:26.489Z</time></trkpt><trkpt lat="42.4338183" lon="12.423845"><ele>61.0</ele><time>2026-05-02T09:21:27.489Z</time></trkpt><trkpt lat="42.4339717" lon="12.42362"><ele>62.0</ele><time>2026-05-02T09:21:28.489Z</time></trkpt><trkpt lat="42.4341217" lon="12.4233983"><ele>62.0</ele><time>2026-05-02T09:21:29.489Z</time></trkpt><trkpt lat="42.43427" lon="12.4231783"><ele>62.0</ele><time>2026-05-02T09:21:30.489Z</time></trkpt><trkpt lat="42.4344117" lon="12.4229567"><ele>62.0</ele><time>2026-05-02T09:21:31.49Z</time></trkpt><trkpt lat="42.4345583" lon="12.42274"><ele>61.0</ele><time>2026-05-02T09:21:32.489Z</time></trkpt><trkpt lat="42.4347033" lon="12.4225233"><ele>60.0</ele><time>2026-05-02T09:21:33.489Z</time></trkpt><trkpt lat="42.434845" lon="12.4223067"><ele>59.0</ele><time>2026-05-02T09:21:34.489Z</time></trkpt><trkpt lat="42.4349867" lon="12.4220933"><ele>59.0</ele><time>2026-05-02T09:21:35.489Z</time></trkpt><trkpt lat="42.43513" lon="12.4218833"><ele>59.0</ele><time>2026-05-02T09:21:36.489Z</time></trkpt><trkpt lat="42.4352817" lon="12.4216867"><ele>59.0</ele><time>2026-05-02T09:21:37.489Z</time></trkpt><trkpt lat="42.4354383" lon="12.421495"><ele>59.0</ele><time>2026-05-02T09:21:38.489Z</time></trkpt><trkpt lat="42.4355983" lon="12.421315"><ele>59.0</ele><time>2026-05-02T09:21:39.489Z</time></trkpt><trkpt lat="42.43577" lon="12.4211417"><ele>59.0</ele><time>2026-05-02T09:21:40.489Z</time></trkpt><trkpt lat="42.435945" lon="12.4209817"><ele>59.0</ele><time>2026-05-02T09:21:41.489Z</time></trkpt><trkpt lat="42.43612" lon="12.4208267"><ele>59.0</ele><time>2026-05-02T09:21:42.489Z</time></trkpt><trkpt lat="42.4362983" lon="12.4206783"><ele>59.0</ele><time>2026-05-02T09:21:43.489Z</time></trkpt><trkpt lat="42.4364833" lon="12.4205417"><ele>56.333333333333336</ele><time>2026-05-02T09:21:44.489Z</time></trkpt><trkpt lat="42.4366733" lon="12.4204167"><ele>53.66666666666667</ele><time>2026-05-02T09:21:45.49Z</time></trkpt><trkpt lat="42.4368683" lon="12.4203033"><ele>51.0</ele><time>2026-05-02T09:21:46.489Z</time></trkpt><trkpt lat="42.4370717" lon="12.4201983"><ele>52.66666666666667</ele><time>2026-05-02T09:21:47.489Z</time></trkpt><trkpt lat="42.4372817" lon="12.4201"><ele>54.333333333333336</ele><time>2026-05-02T09:21:48.489Z</time></trkpt><trkpt lat="42.43749" lon="12.4200117"><ele>56.0</ele><time>2026-05-02T09:21:49.489Z</time></trkpt><trkpt lat="42.43771" lon="12.4199467"><ele>56.0</ele><time>2026-05-02T09:21:50.489Z</time></trkpt><trkpt lat="42.43793" lon="12.4198817"><ele>56.0</ele><time>2026-05-02T09:21:51.489Z</time></trkpt><trkpt lat="42.43815" lon="12.4198133"><ele>54.5</ele><time>2026-05-02T09:21:52.489Z</time></trkpt><trkpt lat="42.43837" lon="12.4197367"><ele>53.0</ele><time>2026-05-02T09:21:53.489Z</time></trkpt><trkpt lat="42.4385867" lon="12.41966"><ele>51.0</ele><time>2026-05-02T09:21:54.489Z</time></trkpt><trkpt lat="42.438805" lon="12.41958"><ele>49.0</ele><time>2026-05-02T09:21:55.489Z</time></trkpt><trkpt lat="42.4390283" lon="12.4195033"><ele>49.0</ele><time>2026-05-02T09:21:56.489Z</time></trkpt><trkpt lat="42.4392467" lon="12.4194217"><ele>49.0</ele><time>2026-05-02T09:21:57.49Z</time></trkpt><trkpt lat="42.43947" lon="12.4193467"><ele>50.33333333333333</ele><time>2026-05-02T09:21:58.489Z</time></trkpt><trkpt lat="42.43969" lon="12.4192767"><ele>51.66666666666667</ele><time>2026-05-02T09:21:59.489Z</time></trkpt><trkpt lat="42.4399033" lon="12.419205"><ele>53.0</ele><time>2026-05-02T09:22:00.489Z</time></trkpt><trkpt lat="42.4401083" lon="12.4191283"><ele>53.0</ele><time>2026-05-02T09:22:01.489Z</time></trkpt><trkpt lat="42.4403133" lon="12.41905"><ele>53.0</ele><time>2026-05-02T09:22:02.489Z</time></trkpt><trkpt lat="42.4405183" lon="12.4189767"><ele>53.0</ele><time>2026-05-02T09:22:03.489Z</time></trkpt><trkpt lat="42.440725" lon="12.418905"><ele>51.66666666666667</ele><time>2026-05-02T09:22:04.489Z</time></trkpt><trkpt lat="42.4409317" lon="12.4188383"><ele>50.33333333333333</ele><time>2026-05-02T09:22:05.489Z</time></trkpt><trkpt lat="42.44114" lon="12.4187667"><ele>49.0</ele><time>2026-05-02T09:22:06.489Z</time></trkpt><trkpt lat="42.441355" lon="12.4186917"><ele>49.0</ele><time>2026-05-02T09:22:07.489Z</time></trkpt><trkpt lat="42.4415717" lon="12.4186283"><ele>49.0</ele><time>2026-05-02T09:22:08.489Z</time></trkpt><trkpt lat="42.441785" lon="12.4185583"><ele>49.0</ele><time>2026-05-02T09:22:09.489Z</time></trkpt><trkpt lat="42.4420017" lon="12.41849"><ele>51.33333333333333</ele><time>2026-05-02T09:22:10.489Z</time></trkpt><trkpt lat="42.4422167" lon="12.418425"><ele>53.66666666666667</ele><time>2026-05-02T09:22:11.489Z</time></trkpt><trkpt lat="42.4424333" lon="12.4183617"><ele>56.0</ele><time>2026-05-02T09:22:12.49Z</time></trkpt><trkpt lat="42.442645" lon="12.4183"><ele>56.0</ele><time>2026-05-02T09:22:13.489Z</time></trkpt><trkpt lat="42.442855" lon="12.41824"><ele>56.0</ele><time>2026-05-02T09:22:14.489Z</time></trkpt><trkpt lat="42.4430633" lon="12.4181867"><ele>56.0</ele><time>2026-05-02T09:22:15.489Z</time></trkpt><trkpt lat="42.4432717" lon="12.41813"><ele>57.0</ele><time>2026-05-02T09:22:16.489Z</time></trkpt><trkpt lat="42.4434833" lon="12.418075"><ele>58.0</ele><time>2026-05-02T09:22:17.489Z</time></trkpt><trkpt lat="42.443695" lon="12.4180133"><ele>59.0</ele><time>2026-05-02T09:22:18.489Z</time></trkpt><trkpt lat="42.443905" lon="12.4179533"><ele>57.0</ele><time>2026-05-02T09:22:19.489Z</time></trkpt><trkpt lat="42.4441117" lon="12.417895"><ele>55.0</ele><time>2026-05-02T09:22:20.489Z</time></trkpt><trkpt lat="42.4443217" lon="12.4178333"><ele>53.0</ele><time>2026-05-02T09:22:21.49Z</time></trkpt><trkpt lat="42.4445283" lon="12.417775"><ele>54.66666666666667</ele><time>2026-05-02T09:22:22.489Z</time></trkpt><trkpt lat="42.4447367" lon="12.4177233"><ele>56.33333333333333</ele><time>2026-05-02T09:22:23.489Z</time></trkpt><trkpt lat="42.4449317" lon="12.4176633"><ele>58.0</ele><time>2026-05-02T09:22:24.489Z</time></trkpt><trkpt lat="42.4451167" lon="12.4176"><ele>58.0</ele><time>2026-05-02T09:22:25.489Z</time></trkpt><trkpt lat="42.4453033" lon="12.41754"><ele>58.0</ele><time>2026-05-02T09:22:26.489Z</time></trkpt><trkpt lat="42.44548" lon="12.4174567"><ele>58.0</ele><time>2026-05-02T09:22:27.489Z</time></trkpt><trkpt lat="42.4456567" lon="12.4173633"><ele>58.33333333333333</ele><time>2026-05-02T09:22:28.489Z</time></trkpt><trkpt lat="42.44583" lon="12.4172617"><ele>58.66666666666667</ele><time>2026-05-02T09:22:29.489Z</time></trkpt><trkpt lat="42.446" lon="12.4171533"><ele>59.0</ele><time>2026-05-02T09:22:30.489Z</time></trkpt><trkpt lat="42.4461717" lon="12.417045"><ele>58.66666666666667</ele><time>2026-05-02T09:22:31.489Z</time></trkpt><trkpt lat="42.4463467" lon="12.41693"><ele>58.33333333333333</ele><time>2026-05-02T09:22:32.489Z</time></trkpt><trkpt lat="42.4465183" lon="12.4168017"><ele>58.0</ele><time>2026-05-02T09:22:33.489Z</time></trkpt><trkpt lat="42.44668" lon="12.41666"><ele>58.0</ele><time>2026-05-02T09:22:34.489Z</time></trkpt><trkpt lat="42.4468317" lon="12.4165083"><ele>58.0</ele><time>2026-05-02T09:22:35.489Z</time></trkpt><trkpt lat="42.4469817" lon="12.4163417"><ele>58.0</ele><time>2026-05-02T09:22:36.489Z</time></trkpt><trkpt lat="42.4471283" lon="12.4161717"><ele>55.666666666666664</ele><time>2026-05-02T09:22:37.489Z</time></trkpt><trkpt lat="42.4472667" lon="12.4159917"><ele>53.33333333333333</ele><time>2026-05-02T09:22:38.489Z</time></trkpt><trkpt lat="42.4474183" lon="12.4158117"><ele>51.0</ele><time>2026-05-02T09:22:39.489Z</time></trkpt><trkpt lat="42.447565" lon="12.415625"><ele>50.0</ele><time>2026-05-02T09:22:40.489Z</time></trkpt><trkpt lat="42.4477083" lon="12.4154267"><ele>49.0</ele><time>2026-05-02T09:22:41.489Z</time></trkpt><trkpt lat="42.447845" lon="12.415225"><ele>48.0</ele><time>2026-05-02T09:22:42.489Z</time></trkpt><trkpt lat="42.4479717" lon="12.4150283"><ele>48.33333333333333</ele><time>2026-05-02T09:22:43.489Z</time></trkpt><trkpt lat="42.448085" lon="12.4148117"><ele>48.666666666666664</ele><time>2026-05-02T09:22:44.489Z</time></trkpt><trkpt lat="42.4482" lon="12.4145933"><ele>49.0</ele><time>2026-05-02T09:22:45.489Z</time></trkpt><trkpt lat="42.448305" lon="12.414365"><ele>49.0</ele><time>2026-05-02T09:22:46.489Z</time></trkpt><trkpt lat="42.44841" lon="12.4141333"><ele>49.0</ele><time>2026-05-02T09:22:47.489Z</time></trkpt><trkpt lat="42.4485067" lon="12.4138933"><ele>49.0</ele><time>2026-05-02T09:22:48.489Z</time></trkpt><trkpt lat="42.4486017" lon="12.4136417"><ele>49.0</ele><time>2026-05-02T09:22:49.489Z</time></trkpt><trkpt lat="42.448685" lon="12.41338"><ele>49.0</ele><time>2026-05-02T09:22:50.49Z</time></trkpt><trkpt lat="42.4487767" lon="12.4131167"><ele>49.0</ele><time>2026-05-02T09:22:51.489Z</time></trkpt><trkpt lat="42.448865" lon="12.4128567"><ele>49.33333333333333</ele><time>2026-05-02T09:22:52.489Z</time></trkpt><trkpt lat="42.4489533" lon="12.4125883"><ele>49.66666666666667</ele><time>2026-05-02T09:22:53.489Z</time></trkpt><trkpt lat="42.4490333" lon="12.4123217"><ele>50.0</ele><time>2026-05-02T09:22:54.49Z</time></trkpt><trkpt lat="42.449115" lon="12.41206"><ele>50.333333333333336</ele><time>2026-05-02T09:22:55.489Z</time></trkpt><trkpt lat="42.4492067" lon="12.4117883"><ele>50.66666666666667</ele><time>2026-05-02T09:22:56.49Z</time></trkpt><trkpt lat="42.4492967" lon="12.411515"><ele>51.0</ele><time>2026-05-02T09:22:57.489Z</time></trkpt><trkpt lat="42.4493833" lon="12.41124"><ele>51.0</ele><time>2026-05-02T09:22:58.489Z</time></trkpt><trkpt lat="42.44947" lon="12.4109667"><ele>51.0</ele><time>2026-05-02T09:22:59.489Z</time></trkpt><trkpt lat="42.4495517" lon="12.41069"><ele>51.0</ele><time>2026-05-02T09:23:00.489Z</time></trkpt><trkpt lat="42.4496433" lon="12.410415"><ele>51.33333333333333</ele><time>2026-05-02T09:23:01.489Z</time></trkpt><trkpt lat="42.4497317" lon="12.4101367"><ele>51.666666666666664</ele><time>2026-05-02T09:23:02.49Z</time></trkpt><trkpt lat="42.44981" lon="12.4098567"><ele>52.0</ele><time>2026-05-02T09:23:03.489Z</time></trkpt><trkpt lat="42.4498933" lon="12.4095883"><ele>52.33333333333333</ele><time>2026-05-02T09:23:04.489Z</time></trkpt><trkpt lat="42.44998" lon="12.4093167"><ele>52.66666666666667</ele><time>2026-05-02T09:23:05.49Z</time></trkpt><trkpt lat="42.4500717" lon="12.4090517"><ele>53.0</ele><time>2026-05-02T09:23:06.489Z</time></trkpt><trkpt lat="42.4501533" lon="12.4087833"><ele>53.0</ele><time>2026-05-02T09:23:07.489Z</time></trkpt><trkpt lat="42.45024" lon="12.4085117"><ele>53.0</ele><time>2026-05-02T09:23:08.489Z</time></trkpt><trkpt lat="42.4503267" lon="12.4082367"><ele>53.0</ele><time>2026-05-02T09:23:09.489Z</time></trkpt><trkpt lat="42.4504133" lon="12.40797"><ele>53.333333333333336</ele><time>2026-05-02T09:23:10.489Z</time></trkpt><trkpt lat="42.4505017" lon="12.4076967"><ele>53.66666666666667</ele><time>2026-05-02T09:23:11.489Z</time></trkpt><trkpt lat="42.4505883" lon="12.4074283"><ele>54.0</ele><time>2026-05-02T09:23:12.49Z</time></trkpt><trkpt lat="42.4506783" lon="12.4071533"><ele>53.33333333333333</ele><time>2026-05-02T09:23:13.489Z</time></trkpt><trkpt lat="42.45076" lon="12.406885"><ele>52.666666666666664</ele><time>2026-05-02T09:23:14.489Z</time></trkpt><trkpt lat="42.450845" lon="12.4066283"><ele>52.0</ele><time>2026-05-02T09:23:15.489Z</time></trkpt><trkpt lat="42.4509283" lon="12.4063683"><ele>51.666666666666664</ele><time>2026-05-02T09:23:16.489Z</time></trkpt><trkpt lat="42.4510133" lon="12.40611"><ele>51.33333333333333</ele><time>2026-05-02T09:23:17.489Z</time></trkpt><trkpt lat="42.4510983" lon="12.4058517"><ele>51.0</ele><time>2026-05-02T09:23:18.489Z</time></trkpt><trkpt lat="42.4511783" lon="12.4055933"><ele>51.0</ele><time>2026-05-02T09:23:19.489Z</time></trkpt><trkpt lat="42.4512583" lon="12.4053383"><ele>51.0</ele><time>2026-05-02T09:23:20.489Z</time></trkpt><trkpt lat="42.4513383" lon="12.4050767"><ele>51.0</ele><time>2026-05-02T09:23:21.489Z</time></trkpt><trkpt lat="42.4514217" lon="12.4048217"><ele>52.66666666666667</ele><time>2026-05-02T09:23:22.489Z</time></trkpt><trkpt lat="42.451505" lon="12.4045583"><ele>54.333333333333336</ele><time>2026-05-02T09:23:23.489Z</time></trkpt><trkpt lat="42.4515883" lon="12.4042983"><ele>56.0</ele><time>2026-05-02T09:23:24.489Z</time></trkpt><trkpt lat="42.4516733" lon="12.4040333"><ele>55.66666666666667</ele><time>2026-05-02T09:23:25.489Z</time></trkpt><trkpt lat="42.45176" lon="12.4037633"><ele>55.33333333333333</ele><time>2026-05-02T09:23:26.489Z</time></trkpt><trkpt lat="42.4518483" lon="12.4034933"><ele>55.0</ele><time>2026-05-02T09:23:27.489Z</time></trkpt><trkpt lat="42.4519433" lon="12.40323"><ele>55.0</ele><time>2026-05-02T09:23:28.489Z</time></trkpt><trkpt lat="42.4520517" lon="12.4029667"><ele>55.0</ele><time>2026-05-02T09:23:29.489Z</time></trkpt><trkpt lat="42.45217" lon="12.4027067"><ele>55.0</ele><time>2026-05-02T09:23:30.489Z</time></trkpt><trkpt lat="42.45229" lon="12.4024517"><ele>56.33333333333333</ele><time>2026-05-02T09:23:31.489Z</time></trkpt><trkpt lat="42.4524133" lon="12.4021967"><ele>57.66666666666667</ele><time>2026-05-02T09:23:32.489Z</time></trkpt><trkpt lat="42.45254" lon="12.4019467"><ele>59.0</ele><time>2026-05-02T09:23:33.489Z</time></trkpt><trkpt lat="42.4526767" lon="12.4017033"><ele>59.0</ele><time>2026-05-02T09:23:34.489Z</time></trkpt><trkpt lat="42.452815" lon="12.4014617"><ele>59.0</ele><time>2026-05-02T09:23:35.489Z</time></trkpt><trkpt lat="42.452955" lon="12.4012267"><ele>59.0</ele><time>2026-05-02T09:23:36.49Z</time></trkpt><trkpt lat="42.4531033" lon="12.4010017"><ele>60.66666666666667</ele><time>2026-05-02T09:23:37.489Z</time></trkpt><trkpt lat="42.4532567" lon="12.40078"><ele>62.33333333333333</ele><time>2026-05-02T09:23:38.489Z</time></trkpt><trkpt lat="42.45341" lon="12.400565"><ele>64.0</ele><time>2026-05-02T09:23:39.489Z</time></trkpt><trkpt lat="42.453565" lon="12.4003617"><ele>64.0</ele><time>2026-05-02T09:23:40.489Z</time></trkpt><trkpt lat="42.4537233" lon="12.40016"><ele>64.0</ele><time>2026-05-02T09:23:41.489Z</time></trkpt><trkpt lat="42.4538817" lon="12.3999633"><ele>64.0</ele><time>2026-05-02T09:23:42.489Z</time></trkpt><trkpt lat="42.454045" lon="12.3997767"><ele>65.66666666666666</ele><time>2026-05-02T09:23:43.489Z</time></trkpt><trkpt lat="42.4542117" lon="12.3996067"><ele>67.33333333333333</ele><time>2026-05-02T09:23:44.489Z</time></trkpt><trkpt lat="42.4543883" lon="12.3994467"><ele>69.0</ele><time>2026-05-02T09:23:45.489Z</time></trkpt><trkpt lat="42.4545633" lon="12.3992817"><ele>72.0</ele><time>2026-05-02T09:23:46.489Z</time></trkpt><trkpt lat="42.45474" lon="12.3991283"><ele>75.0</ele><time>2026-05-02T09:23:47.489Z</time></trkpt><trkpt lat="42.4549217" lon="12.398985"><ele>78.0</ele><time>2026-05-02T09:23:48.489Z</time></trkpt><trkpt lat="42.4551083" lon="12.398845"><ele>76.0</ele><time>2026-05-02T09:23:49.489Z</time></trkpt><trkpt lat="42.4552967" lon="12.3987033"><ele>74.0</ele><time>2026-05-02T09:23:50.489Z</time></trkpt><trkpt lat="42.4554833" lon="12.3985717"><ele>72.0</ele><time>2026-05-02T09:23:51.489Z</time></trkpt><trkpt lat="42.4556683" lon="12.3984433"><ele>72.0</ele><time>2026-05-02T09:23:52.489Z</time></trkpt><trkpt lat="42.455855" lon="12.398315"><ele>72.0</ele><time>2026-05-02T09:23:53.489Z</time></trkpt><trkpt lat="42.45605" lon="12.3982083"><ele>72.0</ele><time>2026-05-02T09:23:54.489Z</time></trkpt><trkpt lat="42.456245" lon="12.3980883"><ele>68.0</ele><time>2026-05-02T09:23:55.489Z</time></trkpt><trkpt lat="42.45644" lon="12.397975"><ele>64.0</ele><time>2026-05-02T09:23:56.489Z</time></trkpt><trkpt lat="42.4566433" lon="12.397865"><ele>60.0</ele><time>2026-05-02T09:23:57.489Z</time></trkpt><trkpt lat="42.45684" lon="12.39775"><ele>60.0</ele><time>2026-05-02T09:23:58.489Z</time></trkpt><trkpt lat="42.45704" lon="12.3976383"><ele>60.0</ele><time>2026-05-02T09:23:59.489Z</time></trkpt><trkpt lat="42.4572383" lon="12.3975133"><ele>60.0</ele><time>2026-05-02T09:24:00.489Z</time></trkpt><trkpt lat="42.4574383" lon="12.3973983"><ele>60.0</ele><time>2026-05-02T09:24:01.489Z</time></trkpt><trkpt lat="42.4576383" lon="12.3972783"><ele>60.0</ele><time>2026-05-02T09:24:02.489Z</time></trkpt><trkpt lat="42.457845" lon="12.3971567"><ele>60.0</ele><time>2026-05-02T09:24:03.489Z</time></trkpt><trkpt lat="42.458045" lon="12.3970417"><ele>60.0</ele><time>2026-05-02T09:24:04.489Z</time></trkpt><trkpt lat="42.4582433" lon="12.3969267"><ele>60.0</ele><time>2026-05-02T09:24:05.489Z</time></trkpt><trkpt lat="42.4584417" lon="12.39681"><ele>60.0</ele><time>2026-05-02T09:24:06.489Z</time></trkpt><trkpt lat="42.45864" lon="12.396685"><ele>60.0</ele><time>2026-05-02T09:24:07.489Z</time></trkpt><trkpt lat="42.45884" lon="12.3965633"><ele>60.0</ele><time>2026-05-02T09:24:08.489Z</time></trkpt><trkpt lat="42.4590383" lon="12.3964417"><ele>60.0</ele><time>2026-05-02T09:24:09.489Z</time></trkpt><trkpt lat="42.459235" lon="12.3963217"><ele>60.0</ele><time>2026-05-02T09:24:10.489Z</time></trkpt><trkpt lat="42.4594317" lon="12.3962017"><ele>60.0</ele><time>2026-05-02T09:24:11.489Z</time></trkpt><trkpt lat="42.45963" lon="12.3960917"><ele>60.0</ele><time>2026-05-02T09:24:12.49Z</time></trkpt><trkpt lat="42.4598233" lon="12.3959733"><ele>60.33333333333333</ele><time>2026-05-02T09:24:13.489Z</time></trkpt><trkpt lat="42.46002" lon="12.3958567"><ele>60.666666666666664</ele><time>2026-05-02T09:24:14.489Z</time></trkpt><trkpt lat="42.4602133" lon="12.3957417"><ele>61.0</ele><time>2026-05-02T09:24:15.49Z</time></trkpt><trkpt lat="42.4604117" lon="12.395625"><ele>59.33333333333333</ele><time>2026-05-02T09:24:16.489Z</time></trkpt><trkpt lat="42.4606083" lon="12.3955133"><ele>57.66666666666667</ele><time>2026-05-02T09:24:17.489Z</time></trkpt><trkpt lat="42.460805" lon="12.3953983"><ele>56.0</ele><time>2026-05-02T09:24:18.489Z</time></trkpt><trkpt lat="42.460995" lon="12.395285"><ele>56.0</ele><time>2026-05-02T09:24:19.489Z</time></trkpt><trkpt lat="42.46119" lon="12.3951767"><ele>56.0</ele><time>2026-05-02T09:24:20.489Z</time></trkpt><trkpt lat="42.4613833" lon="12.3950783"><ele>56.0</ele><time>2026-05-02T09:24:21.489Z</time></trkpt><trkpt lat="42.461575" lon="12.3949667"><ele>56.0</ele><time>2026-05-02T09:24:22.49Z</time></trkpt><trkpt lat="42.4617583" lon="12.3948533"><ele>56.0</ele><time>2026-05-02T09:24:23.489Z</time></trkpt><trkpt lat="42.4619417" lon="12.3947367"><ele>56.0</ele><time>2026-05-02T09:24:24.489Z</time></trkpt><trkpt lat="42.4621167" lon="12.3946067"><ele>57.333333333333336</ele><time>2026-05-02T09:24:25.489Z</time></trkpt><trkpt lat="42.4623017" lon="12.3944867"><ele>58.66666666666667</ele><time>2026-05-02T09:24:26.489Z</time></trkpt><trkpt lat="42.46249" lon="12.3943467"><ele>60.0</ele><time>2026-05-02T09:24:27.489Z</time></trkpt><trkpt lat="42.4626817" lon="12.3942083"><ele>60.0</ele><time>2026-05-02T09:24:28.489Z</time></trkpt><trkpt lat="42.4628633" lon="12.3940417"><ele>60.0</ele><time>2026-05-02T09:24:29.489Z</time></trkpt><trkpt lat="42.46304" lon="12.3938667"><ele>60.0</ele><time>2026-05-02T09:24:30.489Z</time></trkpt><trkpt lat="42.4632033" lon="12.393675"><ele>58.66666666666667</ele><time>2026-05-02T09:24:31.49Z</time></trkpt><trkpt lat="42.4633683" lon="12.3934783"><ele>57.333333333333336</ele><time>2026-05-02T09:24:32.489Z</time></trkpt><trkpt lat="42.46353" lon="12.3932667"><ele>56.0</ele><time>2026-05-02T09:24:33.489Z</time></trkpt><trkpt lat="42.4636783" lon="12.3930483"><ele>57.0</ele><time>2026-05-02T09:24:34.489Z</time></trkpt><trkpt lat="42.4638217" lon="12.3928067"><ele>58.0</ele><time>2026-05-02T09:24:35.489Z</time></trkpt><trkpt lat="42.4639633" lon="12.3925783"><ele>59.0</ele><time>2026-05-02T09:24:36.489Z</time></trkpt><trkpt lat="42.4640967" lon="12.3923317"><ele>59.0</ele><time>2026-05-02T09:24:37.489Z</time></trkpt><trkpt lat="42.4642267" lon="12.3920783"><ele>59.0</ele><time>2026-05-02T09:24:38.489Z</time></trkpt><trkpt lat="42.464345" lon="12.3918183"><ele>59.0</ele><time>2026-05-02T09:24:39.489Z</time></trkpt><trkpt lat="42.4644583" lon="12.39155"><ele>59.0</ele><time>2026-05-02T09:24:40.489Z</time></trkpt><trkpt lat="42.4645583" lon="12.39127"><ele>59.5</ele><time>2026-05-02T09:24:41.489Z</time></trkpt><trkpt lat="42.464655" lon="12.3909917"><ele>60.0</ele><time>2026-05-02T09:24:42.489Z</time></trkpt><trkpt lat="42.4647433" lon="12.39071"><ele>59.0</ele><time>2026-05-02T09:24:43.489Z</time></trkpt><trkpt lat="42.4648233" lon="12.390425"><ele>58.0</ele><time>2026-05-02T09:24:44.489Z</time></trkpt><trkpt lat="42.46489" lon="12.3901317"><ele>58.0</ele><time>2026-05-02T09:24:45.489Z</time></trkpt><trkpt lat="42.464945" lon="12.389825"><ele>58.0</ele><time>2026-05-02T09:24:46.49Z</time></trkpt><trkpt lat="42.4649917" lon="12.3895233"><ele>58.5</ele><time>2026-05-02T09:24:47.49Z</time></trkpt><trkpt lat="42.465035" lon="12.38922"><ele>59.0</ele><time>2026-05-02T09:24:48.489Z</time></trkpt><trkpt lat="42.4650767" lon="12.3889183"><ele>58.5</ele><time>2026-05-02T09:24:49.489Z</time></trkpt><trkpt lat="42.4651083" lon="12.3886117"><ele>58.0</ele><time>2026-05-02T09:24:50.489Z</time></trkpt><trkpt lat="42.4651317" lon="12.38831"><ele>55.0</ele><time>2026-05-02T09:24:51.489Z</time></trkpt><trkpt lat="42.4651567" lon="12.3880083"><ele>52.0</ele><time>2026-05-02T09:24:52.489Z</time></trkpt><trkpt lat="42.4651817" lon="12.3877"><ele>52.0</ele><time>2026-05-02T09:24:53.489Z</time></trkpt><trkpt lat="42.465205" lon="12.387395"><ele>52.0</ele><time>2026-05-02T09:24:54.489Z</time></trkpt><trkpt lat="42.46523" lon="12.3870933"><ele>52.0</ele><time>2026-05-02T09:24:55.489Z</time></trkpt><trkpt lat="42.46526" lon="12.3867867"><ele>52.0</ele><time>2026-05-02T09:24:56.489Z</time></trkpt><trkpt lat="42.4652833" lon="12.3864783"><ele>52.33333333333333</ele><time>2026-05-02T09:24:57.489Z</time></trkpt><trkpt lat="42.4653117" lon="12.386175"><ele>52.66666666666667</ele><time>2026-05-02T09:24:58.489Z</time></trkpt><trkpt lat="42.4653367" lon="12.3858767"><ele>53.0</ele><time>2026-05-02T09:24:59.489Z</time></trkpt><trkpt lat="42.465365" lon="12.38558"><ele>53.66666666666667</ele><time>2026-05-02T09:25:00.489Z</time></trkpt><trkpt lat="42.4653933" lon="12.3852833"><ele>54.33333333333333</ele><time>2026-05-02T09:25:01.489Z</time></trkpt><trkpt lat="42.465415" lon="12.3849917"><ele>55.0</ele><time>2026-05-02T09:25:02.489Z</time></trkpt><trkpt lat="42.46544" lon="12.3846933"><ele>55.0</ele><time>2026-05-02T09:25:03.489Z</time></trkpt><trkpt lat="42.4654633" lon="12.3844"><ele>55.0</ele><time>2026-05-02T09:25:04.489Z</time></trkpt><trkpt lat="42.46549" lon="12.3841"><ele>55.0</ele><time>2026-05-02T09:25:05.489Z</time></trkpt><trkpt lat="42.46551" lon="12.3838083"><ele>55.0</ele><time>2026-05-02T09:25:06.49Z</time></trkpt><trkpt lat="42.4655317" lon="12.3835133"><ele>55.0</ele><time>2026-05-02T09:25:07.489Z</time></trkpt><trkpt lat="42.46556" lon="12.3832217"><ele>55.0</ele><time>2026-05-02T09:25:08.489Z</time></trkpt><trkpt lat="42.465585" lon="12.3829233"><ele>55.666666666666664</ele><time>2026-05-02T09:25:09.489Z</time></trkpt><trkpt lat="42.4656167" lon="12.3826283"><ele>56.33333333333333</ele><time>2026-05-02T09:25:10.49Z</time></trkpt><trkpt lat="42.4656483" lon="12.3823383"><ele>57.0</ele><time>2026-05-02T09:25:11.49Z</time></trkpt><trkpt lat="42.4656783" lon="12.38205"><ele>57.0</ele><time>2026-05-02T09:25:12.49Z</time></trkpt><trkpt lat="42.4657033" lon="12.3817583"><ele>57.0</ele><time>2026-05-02T09:25:13.489Z</time></trkpt><trkpt lat="42.46573" lon="12.3814717"><ele>57.0</ele><time>2026-05-02T09:25:14.489Z</time></trkpt><trkpt lat="42.4657583" lon="12.3811883"><ele>57.33333333333333</ele><time>2026-05-02T09:25:15.489Z</time></trkpt><trkpt lat="42.46578" lon="12.3809"><ele>57.666666666666664</ele><time>2026-05-02T09:25:16.489Z</time></trkpt><trkpt lat="42.4658017" lon="12.3806133"><ele>58.0</ele><time>2026-05-02T09:25:17.489Z</time></trkpt><trkpt lat="42.4658283" lon="12.38032"><ele>58.666666666666664</ele><time>2026-05-02T09:25:18.489Z</time></trkpt><trkpt lat="42.4658517" lon="12.3800233"><ele>59.33333333333333</ele><time>2026-05-02T09:25:19.489Z</time></trkpt><trkpt lat="42.4658733" lon="12.3797267"><ele>60.0</ele><time>2026-05-02T09:25:20.49Z</time></trkpt><trkpt lat="42.4659" lon="12.3794267"><ele>60.66666666666667</ele><time>2026-05-02T09:25:21.489Z</time></trkpt><trkpt lat="42.4659267" lon="12.3791333"><ele>61.333333333333336</ele><time>2026-05-02T09:25:22.489Z</time></trkpt><trkpt lat="42.465955" lon="12.3788333"><ele>62.0</ele><time>2026-05-02T09:25:23.489Z</time></trkpt><trkpt lat="42.4659783" lon="12.37854"><ele>62.333333333333336</ele><time>2026-05-02T09:25:24.489Z</time></trkpt><trkpt lat="42.466005" lon="12.3782433"><ele>62.66666666666667</ele><time>2026-05-02T09:25:25.489Z</time></trkpt><trkpt lat="42.4660333" lon="12.3779517"><ele>63.0</ele><time>2026-05-02T09:25:26.489Z</time></trkpt><trkpt lat="42.4660567" lon="12.37767"><ele>63.33333333333333</ele><time>2026-05-02T09:25:27.489Z</time></trkpt><trkpt lat="42.4660767" lon="12.3773933"><ele>63.666666666666664</ele><time>2026-05-02T09:25:28.489Z</time></trkpt><trkpt lat="42.466095" lon="12.37712"><ele>64.0</ele><time>2026-05-02T09:25:29.489Z</time></trkpt><trkpt lat="42.466115" lon="12.376845"><ele>64.33333333333333</ele><time>2026-05-02T09:25:30.489Z</time></trkpt><trkpt lat="42.4661383" lon="12.37658"><ele>64.66666666666667</ele><time>2026-05-02T09:25:31.489Z</time></trkpt><trkpt lat="42.4661667" lon="12.37631"><ele>65.0</ele><time>2026-05-02T09:25:32.489Z</time></trkpt><trkpt lat="42.4661967" lon="12.3760483"><ele>65.0</ele><time>2026-05-02T09:25:33.489Z</time></trkpt><trkpt lat="42.4662233" lon="12.3757867"><ele>65.0</ele><time>2026-05-02T09:25:34.489Z</time></trkpt><trkpt lat="42.4662417" lon="12.3755217"><ele>65.0</ele><time>2026-05-02T09:25:35.489Z</time></trkpt><trkpt lat="42.4662633" lon="12.3752567"><ele>66.33333333333334</ele><time>2026-05-02T09:25:36.489Z</time></trkpt><trkpt lat="42.4662867" lon="12.37499"><ele>67.66666666666667</ele><time>2026-05-02T09:25:37.489Z</time></trkpt><trkpt lat="42.4663117" lon="12.3747233"><ele>69.0</ele><time>2026-05-02T09:25:38.489Z</time></trkpt><trkpt lat="42.4663367" lon="12.37446"><ele>69.0</ele><time>2026-05-02T09:25:39.489Z</time></trkpt><trkpt lat="42.46636" lon="12.37418"><ele>69.0</ele><time>2026-05-02T09:25:40.489Z</time></trkpt><trkpt lat="42.4663783" lon="12.3739033"><ele>69.0</ele><time>2026-05-02T09:25:41.489Z</time></trkpt><trkpt lat="42.4664033" lon="12.3736217"><ele>68.66666666666667</ele><time>2026-05-02T09:25:42.49Z</time></trkpt><trkpt lat="42.46643" lon="12.3733383"><ele>68.33333333333334</ele><time>2026-05-02T09:25:43.489Z</time></trkpt><trkpt lat="42.46645" lon="12.3730633"><ele>68.0</ele><time>2026-05-02T09:25:44.489Z</time></trkpt><trkpt lat="42.4664733" lon="12.372785"><ele>67.66666666666667</ele><time>2026-05-02T09:25:45.489Z</time></trkpt><trkpt lat="42.466495" lon="12.3725067"><ele>67.33333333333333</ele><time>2026-05-02T09:25:46.489Z</time></trkpt><trkpt lat="42.46652" lon="12.37222"><ele>67.0</ele><time>2026-05-02T09:25:47.489Z</time></trkpt><trkpt lat="42.4665483" lon="12.3719317"><ele>67.0</ele><time>2026-05-02T09:25:48.489Z</time></trkpt><trkpt lat="42.4665733" lon="12.3716433"><ele>67.0</ele><time>2026-05-02T09:25:49.489Z</time></trkpt><trkpt lat="42.4665967" lon="12.3713533"><ele>67.0</ele><time>2026-05-02T09:25:50.489Z</time></trkpt><trkpt lat="42.4666233" lon="12.3710633"><ele>67.0</ele><time>2026-05-02T09:25:51.489Z</time></trkpt><trkpt lat="42.4666483" lon="12.37077"><ele>67.0</ele><time>2026-05-02T09:25:52.489Z</time></trkpt><trkpt lat="42.4666733" lon="12.3704767"><ele>67.0</ele><time>2026-05-02T09:25:53.489Z</time></trkpt><trkpt lat="42.4667" lon="12.3701833"><ele>67.0</ele><time>2026-05-02T09:25:54.489Z</time></trkpt><trkpt lat="42.466725" lon="12.369895"><ele>67.0</ele><time>2026-05-02T09:25:55.489Z</time></trkpt><trkpt lat="42.4667467" lon="12.3695983"><ele>67.0</ele><time>2026-05-02T09:25:56.49Z</time></trkpt><trkpt lat="42.46677" lon="12.3693033"><ele>67.0</ele><time>2026-05-02T09:25:57.489Z</time></trkpt><trkpt lat="42.466795" lon="12.36901"><ele>67.0</ele><time>2026-05-02T09:25:58.489Z</time></trkpt><trkpt lat="42.466825" lon="12.3687183"><ele>67.0</ele><time>2026-05-02T09:25:59.489Z</time></trkpt><trkpt lat="42.46685" lon="12.36843"><ele>66.66666666666666</ele><time>2026-05-02T09:26:00.489Z</time></trkpt><trkpt lat="42.4668733" lon="12.3681433"><ele>66.33333333333333</ele><time>2026-05-02T09:26:01.489Z</time></trkpt><trkpt lat="42.4668967" lon="12.36786"><ele>66.0</ele><time>2026-05-02T09:26:02.489Z</time></trkpt><trkpt lat="42.4669217" lon="12.3675683"><ele>65.66666666666667</ele><time>2026-05-02T09:26:03.489Z</time></trkpt><trkpt lat="42.4669417" lon="12.3672817"><ele>65.33333333333334</ele><time>2026-05-02T09:26:04.489Z</time></trkpt><trkpt lat="42.4669717" lon="12.3669967"><ele>65.0</ele><time>2026-05-02T09:26:05.489Z</time></trkpt><trkpt lat="42.4670017" lon="12.3667067"><ele>63.66666666666667</ele><time>2026-05-02T09:26:06.49Z</time></trkpt><trkpt lat="42.4670317" lon="12.366415"><ele>62.33333333333333</ele><time>2026-05-02T09:26:07.489Z</time></trkpt><trkpt lat="42.4670517" lon="12.366125"><ele>61.0</ele><time>2026-05-02T09:26:08.489Z</time></trkpt><trkpt lat="42.4670767" lon="12.365835"><ele>60.33333333333333</ele><time>2026-05-02T09:26:09.49Z</time></trkpt><trkpt lat="42.4671067" lon="12.3655417"><ele>59.66666666666667</ele><time>2026-05-02T09:26:10.489Z</time></trkpt><trkpt lat="42.4671317" lon="12.3652517"><ele>59.0</ele><time>2026-05-02T09:26:11.489Z</time></trkpt><trkpt lat="42.4671583" lon="12.3649567"><ele>67.66666666666667</ele><time>2026-05-02T09:26:12.489Z</time></trkpt><trkpt lat="42.4671833" lon="12.364665"><ele>76.33333333333333</ele><time>2026-05-02T09:26:13.489Z</time></trkpt><trkpt lat="42.4672083" lon="12.3643717"><ele>85.0</ele><time>2026-05-02T09:26:14.489Z</time></trkpt><trkpt lat="42.4672333" lon="12.3640833"><ele>84.0</ele><time>2026-05-02T09:26:15.49Z</time></trkpt><trkpt lat="42.467255" lon="12.3637983"><ele>83.0</ele><time>2026-05-02T09:26:16.489Z</time></trkpt><trkpt lat="42.4672783" lon="12.3635133"><ele>82.0</ele><time>2026-05-02T09:26:17.489Z</time></trkpt><trkpt lat="42.4673083" lon="12.3632367"><ele>81.66666666666666</ele><time>2026-05-02T09:26:18.489Z</time></trkpt><trkpt lat="42.46733" lon="12.3629633"><ele>81.33333333333333</ele><time>2026-05-02T09:26:19.489Z</time></trkpt><trkpt lat="42.4673483" lon="12.3626967"><ele>81.0</ele><time>2026-05-02T09:26:20.489Z</time></trkpt><trkpt lat="42.4673733" lon="12.3624317"><ele>79.66666666666667</ele><time>2026-05-02T09:26:21.489Z</time></trkpt><trkpt lat="42.4673967" lon="12.362165"><ele>78.33333333333334</ele><time>2026-05-02T09:26:22.489Z</time></trkpt><trkpt lat="42.4674233" lon="12.3619017"><ele>77.0</ele><time>2026-05-02T09:26:23.489Z</time></trkpt><trkpt lat="42.4674417" lon="12.36164"><ele>77.0</ele><time>2026-05-02T09:26:24.489Z</time></trkpt><trkpt lat="42.46747" lon="12.36138"><ele>77.0</ele><time>2026-05-02T09:26:25.489Z</time></trkpt><trkpt lat="42.4674933" lon="12.3611183"><ele>77.0</ele><time>2026-05-02T09:26:26.489Z</time></trkpt><trkpt lat="42.4675167" lon="12.3608567"><ele>76.66666666666667</ele><time>2026-05-02T09:26:27.489Z</time></trkpt><trkpt lat="42.46753" lon="12.3605933"><ele>76.33333333333333</ele><time>2026-05-02T09:26:28.489Z</time></trkpt><trkpt lat="42.4675517" lon="12.3603317"><ele>76.0</ele><time>2026-05-02T09:26:29.489Z</time></trkpt><trkpt lat="42.4675767" lon="12.360065"><ele>76.0</ele><time>2026-05-02T09:26:30.489Z</time></trkpt><trkpt lat="42.4675983" lon="12.3597983"><ele>76.0</ele><time>2026-05-02T09:26:31.489Z</time></trkpt><trkpt lat="42.4676183" lon="12.3595367"><ele>76.0</ele><time>2026-05-02T09:26:32.489Z</time></trkpt><trkpt lat="42.4676467" lon="12.35928"><ele>74.66666666666666</ele><time>2026-05-02T09:26:33.489Z</time></trkpt><trkpt lat="42.467675" lon="12.3590183"><ele>73.33333333333333</ele><time>2026-05-02T09:26:34.489Z</time></trkpt><trkpt lat="42.467705" lon="12.358765"><ele>72.0</ele><time>2026-05-02T09:26:35.489Z</time></trkpt><trkpt lat="42.467745" lon="12.35851"><ele>70.33333333333333</ele><time>2026-05-02T09:26:36.49Z</time></trkpt><trkpt lat="42.4677967" lon="12.35826"><ele>68.66666666666666</ele><time>2026-05-02T09:26:37.49Z</time></trkpt><trkpt lat="42.4678517" lon="12.3580033"><ele>67.0</ele><time>2026-05-02T09:26:38.489Z</time></trkpt><trkpt lat="42.46792" lon="12.35775"><ele>68.0</ele><time>2026-05-02T09:26:39.489Z</time></trkpt><trkpt lat="42.468" lon="12.3575017"><ele>69.0</ele><time>2026-05-02T09:26:40.489Z</time></trkpt><trkpt lat="42.46809" lon="12.3572533"><ele>70.0</ele><time>2026-05-02T09:26:41.489Z</time></trkpt><trkpt lat="42.4681883" lon="12.3570067"><ele>70.0</ele><time>2026-05-02T09:26:42.489Z</time></trkpt><trkpt lat="42.4682883" lon="12.3567583"><ele>70.0</ele><time>2026-05-02T09:26:43.489Z</time></trkpt><trkpt lat="42.4683867" lon="12.3565133"><ele>70.0</ele><time>2026-05-02T09:26:44.489Z</time></trkpt><trkpt lat="42.4684917" lon="12.3562717"><ele>70.33333333333333</ele><time>2026-05-02T09:26:45.489Z</time></trkpt><trkpt lat="42.4686" lon="12.3560317"><ele>70.66666666666667</ele><time>2026-05-02T09:26:46.489Z</time></trkpt><trkpt lat="42.468705" lon="12.3557783"><ele>71.0</ele><time>2026-05-02T09:26:47.489Z</time></trkpt><trkpt lat="42.46881" lon="12.3555267"><ele>71.0</ele><time>2026-05-02T09:26:48.489Z</time></trkpt><trkpt lat="42.4689133" lon="12.35528"><ele>71.0</ele><time>2026-05-02T09:26:49.489Z</time></trkpt><trkpt lat="42.46902" lon="12.35503"><ele>71.0</ele><time>2026-05-02T09:26:50.49Z</time></trkpt><trkpt lat="42.4691283" lon="12.35478"><ele>67.33333333333334</ele><time>2026-05-02T09:26:51.489Z</time></trkpt><trkpt lat="42.4692367" lon="12.35453"><ele>63.66666666666667</ele><time>2026-05-02T09:26:52.489Z</time></trkpt><trkpt lat="42.469345" lon="12.3542817"><ele>60.0</ele><time>2026-05-02T09:26:53.489Z</time></trkpt><trkpt lat="42.4694533" lon="12.3540217"><ele>58.66666666666667</ele><time>2026-05-02T09:26:54.489Z</time></trkpt><trkpt lat="42.4695583" lon="12.3537667"><ele>57.333333333333336</ele><time>2026-05-02T09:26:55.489Z</time></trkpt><trkpt lat="42.4696767" lon="12.3535283"><ele>56.0</ele><time>2026-05-02T09:26:56.489Z</time></trkpt><trkpt lat="42.4697833" lon="12.3532717"><ele>56.333333333333336</ele><time>2026-05-02T09:26:57.489Z</time></trkpt><trkpt lat="42.4698883" lon="12.353015"><ele>56.66666666666667</ele><time>2026-05-02T09:26:58.489Z</time></trkpt><trkpt lat="42.469995" lon="12.352755"><ele>57.0</ele><time>2026-05-02T09:26:59.489Z</time></trkpt><trkpt lat="42.4700983" lon="12.352495"><ele>57.0</ele><time>2026-05-02T09:27:00.489Z</time></trkpt><trkpt lat="42.4702133" lon="12.3522383"><ele>57.0</ele><time>2026-05-02T09:27:01.489Z</time></trkpt><trkpt lat="42.47033" lon="12.351975"><ele>57.0</ele><time>2026-05-02T09:27:02.489Z</time></trkpt><trkpt lat="42.4704433" lon="12.3517167"><ele>57.0</ele><time>2026-05-02T09:27:03.489Z</time></trkpt><trkpt lat="42.4705633" lon="12.3514567"><ele>57.0</ele><time>2026-05-02T09:27:04.489Z</time></trkpt><trkpt lat="42.470675" lon="12.3511917"><ele>57.0</ele><time>2026-05-02T09:27:05.489Z</time></trkpt><trkpt lat="42.47079" lon="12.3509367"><ele>57.0</ele><time>2026-05-02T09:27:06.489Z</time></trkpt><trkpt lat="42.4709067" lon="12.350685"><ele>57.0</ele><time>2026-05-02T09:27:07.489Z</time></trkpt><trkpt lat="42.47102" lon="12.3504283"><ele>57.0</ele><time>2026-05-02T09:27:08.489Z</time></trkpt><trkpt lat="42.4711417" lon="12.3501833"><ele>57.0</ele><time>2026-05-02T09:27:09.489Z</time></trkpt><trkpt lat="42.47127" lon="12.3499417"><ele>57.0</ele><time>2026-05-02T09:27:10.489Z</time></trkpt><trkpt lat="42.4714033" lon="12.3497017"><ele>57.0</ele><time>2026-05-02T09:27:11.489Z</time></trkpt><trkpt lat="42.4715417" lon="12.3494633"><ele>57.0</ele><time>2026-05-02T09:27:12.489Z</time></trkpt><trkpt lat="42.4716867" lon="12.3492333"><ele>57.0</ele><time>2026-05-02T09:27:13.49Z</time></trkpt><trkpt lat="42.47183" lon="12.3490117"><ele>57.66666666666667</ele><time>2026-05-02T09:27:14.489Z</time></trkpt><trkpt lat="42.471975" lon="12.3487883"><ele>58.333333333333336</ele><time>2026-05-02T09:27:15.489Z</time></trkpt><trkpt lat="42.4721283" lon="12.3485683"><ele>59.0</ele><time>2026-05-02T09:27:16.489Z</time></trkpt><trkpt lat="42.4722867" lon="12.34835"><ele>58.5</ele><time>2026-05-02T09:27:17.49Z</time></trkpt><trkpt lat="42.47245" lon="12.3481417"><ele>58.0</ele><time>2026-05-02T09:27:18.489Z</time></trkpt><trkpt lat="42.472625" lon="12.3479467"><ele>58.0</ele><time>2026-05-02T09:27:19.489Z</time></trkpt><trkpt lat="42.4727967" lon="12.347755"><ele>58.0</ele><time>2026-05-02T09:27:20.489Z</time></trkpt><trkpt lat="42.472975" lon="12.3475617"><ele>58.0</ele><time>2026-05-02T09:27:21.489Z</time></trkpt><trkpt lat="42.4731567" lon="12.3473767"><ele>58.0</ele><time>2026-05-02T09:27:22.489Z</time></trkpt><trkpt lat="42.4733467" lon="12.3471917"><ele>58.0</ele><time>2026-05-02T09:27:23.489Z</time></trkpt><trkpt lat="42.4735367" lon="12.34701"><ele>58.0</ele><time>2026-05-02T09:27:24.49Z</time></trkpt><trkpt lat="42.473725" lon="12.3468283"><ele>57.5</ele><time>2026-05-02T09:27:25.489Z</time></trkpt><trkpt lat="42.4739117" lon="12.3466483"><ele>57.0</ele><time>2026-05-02T09:27:26.489Z</time></trkpt><trkpt lat="42.4740983" lon="12.3464733"><ele>58.0</ele><time>2026-05-02T09:27:27.489Z</time></trkpt><trkpt lat="42.4742833" lon="12.3462933"><ele>59.0</ele><time>2026-05-02T09:27:28.489Z</time></trkpt><trkpt lat="42.4744717" lon="12.34612"><ele>58.5</ele><time>2026-05-02T09:27:29.489Z</time></trkpt><trkpt lat="42.4746583" lon="12.34594"><ele>58.0</ele><time>2026-05-02T09:27:30.489Z</time></trkpt><trkpt lat="42.4748433" lon="12.345755"><ele>58.0</ele><time>2026-05-02T09:27:31.489Z</time></trkpt><trkpt lat="42.475025" lon="12.3455783"><ele>58.0</ele><time>2026-05-02T09:27:32.489Z</time></trkpt><trkpt lat="42.475205" lon="12.3454017"><ele>58.0</ele><time>2026-05-02T09:27:33.489Z</time></trkpt><trkpt lat="42.475385" lon="12.34523"><ele>58.5</ele><time>2026-05-02T09:27:34.489Z</time></trkpt><trkpt lat="42.4755683" lon="12.3450533"><ele>59.0</ele><time>2026-05-02T09:27:35.489Z</time></trkpt><trkpt lat="42.47575" lon="12.34487"><ele>59.0</ele><time>2026-05-02T09:27:36.489Z</time></trkpt><trkpt lat="42.4759333" lon="12.3446983"><ele>59.0</ele><time>2026-05-02T09:27:37.489Z</time></trkpt><trkpt lat="42.47612" lon="12.3445317"><ele>59.0</ele><time>2026-05-02T09:27:38.489Z</time></trkpt><trkpt lat="42.4763033" lon="12.34436"><ele>59.0</ele><time>2026-05-02T09:27:39.489Z</time></trkpt><trkpt lat="42.4764867" lon="12.344185"><ele>59.0</ele><time>2026-05-02T09:27:40.489Z</time></trkpt><trkpt lat="42.4766633" lon="12.3440167"><ele>59.0</ele><time>2026-05-02T09:27:41.489Z</time></trkpt><trkpt lat="42.4768417" lon="12.3438417"><ele>59.333333333333336</ele><time>2026-05-02T09:27:42.489Z</time></trkpt><trkpt lat="42.4770133" lon="12.3436683"><ele>59.66666666666667</ele><time>2026-05-02T09:27:43.49Z</time></trkpt><trkpt lat="42.477185" lon="12.343485"><ele>60.0</ele><time>2026-05-02T09:27:44.489Z</time></trkpt><trkpt lat="42.477355" lon="12.343305"><ele>60.66666666666667</ele><time>2026-05-02T09:27:45.49Z</time></trkpt><trkpt lat="42.477525" lon="12.3431167"><ele>61.333333333333336</ele><time>2026-05-02T09:27:46.489Z</time></trkpt><trkpt lat="42.4776883" lon="12.3429317"><ele>62.0</ele><time>2026-05-02T09:27:47.489Z</time></trkpt><trkpt lat="42.4778533" lon="12.3427417"><ele>62.333333333333336</ele><time>2026-05-02T09:27:48.489Z</time></trkpt><trkpt lat="42.4780183" lon="12.3425517"><ele>62.66666666666667</ele><time>2026-05-02T09:27:49.489Z</time></trkpt><trkpt lat="42.47818" lon="12.3423617"><ele>63.0</ele><time>2026-05-02T09:27:50.489Z</time></trkpt><trkpt lat="42.4783383" lon="12.3421683"><ele>63.0</ele><time>2026-05-02T09:27:51.489Z</time></trkpt><trkpt lat="42.478495" lon="12.341975"><ele>63.0</ele><time>2026-05-02T09:27:52.489Z</time></trkpt><trkpt lat="42.478645" lon="12.3417733"><ele>63.0</ele><time>2026-05-02T09:27:53.489Z</time></trkpt><trkpt lat="42.4787967" lon="12.3415733"><ele>63.33333333333333</ele><time>2026-05-02T09:27:54.489Z</time></trkpt><trkpt lat="42.4789433" lon="12.3413717"><ele>63.666666666666664</ele><time>2026-05-02T09:27:55.49Z</time></trkpt><trkpt lat="42.4790933" lon="12.3411683"><ele>64.0</ele><time>2026-05-02T09:27:56.489Z</time></trkpt><trkpt lat="42.4792517" lon="12.340965"><ele>64.0</ele><time>2026-05-02T09:27:57.489Z</time></trkpt><trkpt lat="42.4794083" lon="12.340765"><ele>64.0</ele><time>2026-05-02T09:27:58.489Z</time></trkpt><trkpt lat="42.4795583" lon="12.3405567"><ele>64.0</ele><time>2026-05-02T09:27:59.49Z</time></trkpt><trkpt lat="42.479715" lon="12.3403533"><ele>63.33333333333333</ele><time>2026-05-02T09:28:00.489Z</time></trkpt><trkpt lat="42.4798717" lon="12.3401417"><ele>62.66666666666667</ele><time>2026-05-02T09:28:01.489Z</time></trkpt><trkpt lat="42.4800317" lon="12.339935"><ele>62.0</ele><time>2026-05-02T09:28:02.489Z</time></trkpt><trkpt lat="42.480195" lon="12.3397333"><ele>62.66666666666667</ele><time>2026-05-02T09:28:03.489Z</time></trkpt><trkpt lat="42.480355" lon="12.3395283"><ele>63.33333333333333</ele><time>2026-05-02T09:28:04.489Z</time></trkpt><trkpt lat="42.4805183" lon="12.33932"><ele>64.0</ele><time>2026-05-02T09:28:05.489Z</time></trkpt><trkpt lat="42.4806767" lon="12.3391017"><ele>64.0</ele><time>2026-05-02T09:28:06.49Z</time></trkpt><trkpt lat="42.480835" lon="12.3388883"><ele>64.0</ele><time>2026-05-02T09:28:07.489Z</time></trkpt><trkpt lat="42.4809983" lon="12.338675"><ele>64.0</ele><time>2026-05-02T09:28:08.489Z</time></trkpt><trkpt lat="42.481155" lon="12.3384617"><ele>64.0</ele><time>2026-05-02T09:28:09.489Z</time></trkpt><trkpt lat="42.4813167" lon="12.3382467"><ele>64.0</ele><time>2026-05-02T09:28:10.489Z</time></trkpt><trkpt lat="42.4814783" lon="12.3380333"><ele>64.5</ele><time>2026-05-02T09:28:11.489Z</time></trkpt><trkpt lat="42.4816433" lon="12.3378217"><ele>65.0</ele><time>2026-05-02T09:28:12.489Z</time></trkpt><trkpt lat="42.4818067" lon="12.3376067"><ele>65.0</ele><time>2026-05-02T09:28:13.489Z</time></trkpt><trkpt lat="42.4819717" lon="12.3373883"><ele>65.0</ele><time>2026-05-02T09:28:14.489Z</time></trkpt><trkpt lat="42.4821333" lon="12.3371733"><ele>65.5</ele><time>2026-05-02T09:28:15.489Z</time></trkpt><trkpt lat="42.482295" lon="12.336955"><ele>66.0</ele><time>2026-05-02T09:28:16.489Z</time></trkpt><trkpt lat="42.482465" lon="12.33674"><ele>66.0</ele><time>2026-05-02T09:28:17.489Z</time></trkpt><trkpt lat="42.48263" lon="12.33652"><ele>66.0</ele><time>2026-05-02T09:28:18.489Z</time></trkpt><trkpt lat="42.482795" lon="12.3363117"><ele>66.5</ele><time>2026-05-02T09:28:19.489Z</time></trkpt><trkpt lat="42.4829567" lon="12.3360933"><ele>67.0</ele><time>2026-05-02T09:28:20.489Z</time></trkpt><trkpt lat="42.4831167" lon="12.3358733"><ele>67.0</ele><time>2026-05-02T09:28:21.489Z</time></trkpt><trkpt lat="42.4832833" lon="12.3356633"><ele>67.0</ele><time>2026-05-02T09:28:22.489Z</time></trkpt><trkpt lat="42.4834533" lon="12.33544"><ele>67.0</ele><time>2026-05-02T09:28:23.489Z</time></trkpt><trkpt lat="42.4836183" lon="12.3352217"><ele>67.0</ele><time>2026-05-02T09:28:24.489Z</time></trkpt><trkpt lat="42.4837783" lon="12.335"><ele>67.5</ele><time>2026-05-02T09:28:25.489Z</time></trkpt><trkpt lat="42.483945" lon="12.3347817"><ele>68.0</ele><time>2026-05-02T09:28:26.489Z</time></trkpt><trkpt lat="42.4841183" lon="12.3345667"><ele>68.0</ele><time>2026-05-02T09:28:27.489Z</time></trkpt><trkpt lat="42.4842817" lon="12.33435"><ele>68.0</ele><time>2026-05-02T09:28:28.489Z</time></trkpt><trkpt lat="42.48444" lon="12.3341283"><ele>67.5</ele><time>2026-05-02T09:28:29.489Z</time></trkpt><trkpt lat="42.484605" lon="12.33391"><ele>67.0</ele><time>2026-05-02T09:28:30.489Z</time></trkpt><trkpt lat="42.4847683" lon="12.3336867"><ele>67.0</ele><time>2026-05-02T09:28:31.489Z</time></trkpt><trkpt lat="42.4849317" lon="12.333485"><ele>67.0</ele><time>2026-05-02T09:28:32.489Z</time></trkpt><trkpt lat="42.48509" lon="12.3332817"><ele>67.0</ele><time>2026-05-02T09:28:33.489Z</time></trkpt><trkpt lat="42.485245" lon="12.3330717"><ele>67.0</ele><time>2026-05-02T09:28:34.489Z</time></trkpt><trkpt lat="42.4854033" lon="12.3328633"><ele>67.0</ele><time>2026-05-02T09:28:35.489Z</time></trkpt><trkpt lat="42.4855633" lon="12.3326567"><ele>67.0</ele><time>2026-05-02T09:28:36.489Z</time></trkpt><trkpt lat="42.4857217" lon="12.3324483"><ele>67.0</ele><time>2026-05-02T09:28:37.489Z</time></trkpt><trkpt lat="42.4858817" lon="12.3322317"><ele>67.0</ele><time>2026-05-02T09:28:38.489Z</time></trkpt><trkpt lat="42.4860417" lon="12.3320133"><ele>67.0</ele><time>2026-05-02T09:28:39.49Z</time></trkpt><trkpt lat="42.4862067" lon="12.3317917"><ele>67.0</ele><time>2026-05-02T09:28:40.49Z</time></trkpt><trkpt lat="42.4863667" lon="12.3315683"><ele>67.0</ele><time>2026-05-02T09:28:41.489Z</time></trkpt><trkpt lat="42.4865317" lon="12.33135"><ele>67.0</ele><time>2026-05-02T09:28:42.489Z</time></trkpt><trkpt lat="42.4866967" lon="12.3311317"><ele>67.0</ele><time>2026-05-02T09:28:43.489Z</time></trkpt><trkpt lat="42.4868667" lon="12.33092"><ele>67.0</ele><time>2026-05-02T09:28:44.489Z</time></trkpt><trkpt lat="42.487035" lon="12.3307067"><ele>68.5</ele><time>2026-05-02T09:28:45.489Z</time></trkpt><trkpt lat="42.4872" lon="12.330485"><ele>70.0</ele><time>2026-05-02T09:28:46.489Z</time></trkpt><trkpt lat="42.4873667" lon="12.3302767"><ele>70.0</ele><time>2026-05-02T09:28:47.49Z</time></trkpt><trkpt lat="42.4875233" lon="12.33006"><ele>70.0</ele><time>2026-05-02T09:28:48.489Z</time></trkpt><trkpt lat="42.4876883" lon="12.3298483"><ele>69.0</ele><time>2026-05-02T09:28:49.489Z</time></trkpt><trkpt lat="42.4878533" lon="12.3296367"><ele>68.0</ele><time>2026-05-02T09:28:50.489Z</time></trkpt><trkpt lat="42.4880133" lon="12.3294267"><ele>67.66666666666667</ele><time>2026-05-02T09:28:51.489Z</time></trkpt><trkpt lat="42.4881717" lon="12.32921"><ele>67.33333333333333</ele><time>2026-05-02T09:28:52.489Z</time></trkpt><trkpt lat="42.4883267" lon="12.32899"><ele>67.0</ele><time>2026-05-02T09:28:53.489Z</time></trkpt><trkpt lat="42.4884883" lon="12.3287783"><ele>67.0</ele><time>2026-05-02T09:28:54.489Z</time></trkpt><trkpt lat="42.4886533" lon="12.32856"><ele>67.0</ele><time>2026-05-02T09:28:55.489Z</time></trkpt><trkpt lat="42.48882" lon="12.3283467"><ele>66.66666666666666</ele><time>2026-05-02T09:28:56.489Z</time></trkpt><trkpt lat="42.4889817" lon="12.3281383"><ele>66.33333333333333</ele><time>2026-05-02T09:28:57.49Z</time></trkpt><trkpt lat="42.4891467" lon="12.3279367"><ele>66.0</ele><time>2026-05-02T09:28:58.489Z</time></trkpt><trkpt lat="42.4893017" lon="12.327735"><ele>66.0</ele><time>2026-05-02T09:28:59.489Z</time></trkpt><trkpt lat="42.4894533" lon="12.3275333"><ele>66.0</ele><time>2026-05-02T09:29:00.489Z</time></trkpt><trkpt lat="42.4896" lon="12.3273217"><ele>66.0</ele><time>2026-05-02T09:29:01.489Z</time></trkpt><trkpt lat="42.4897517" lon="12.3271083"><ele>65.33333333333333</ele><time>2026-05-02T09:29:02.489Z</time></trkpt><trkpt lat="42.4899033" lon="12.3268983"><ele>64.66666666666666</ele><time>2026-05-02T09:29:03.489Z</time></trkpt><trkpt lat="42.4900533" lon="12.3266933"><ele>64.0</ele><time>2026-05-02T09:29:04.49Z</time></trkpt><trkpt lat="42.4902033" lon="12.3264833"><ele>63.0</ele><time>2026-05-02T09:29:05.489Z</time></trkpt><trkpt lat="42.49035" lon="12.32627"><ele>62.0</ele><time>2026-05-02T09:29:06.489Z</time></trkpt><trkpt lat="42.4904967" lon="12.3260583"><ele>61.0</ele><time>2026-05-02T09:29:07.489Z</time></trkpt><trkpt lat="42.4906417" lon="12.3258433"><ele>60.666666666666664</ele><time>2026-05-02T09:29:08.489Z</time></trkpt><trkpt lat="42.49079" lon="12.3256267"><ele>60.33333333333333</ele><time>2026-05-02T09:29:09.489Z</time></trkpt><trkpt lat="42.4909333" lon="12.3253933"><ele>60.0</ele><time>2026-05-02T09:29:10.489Z</time></trkpt><trkpt lat="42.49108" lon="12.3251683"><ele>60.66666666666667</ele><time>2026-05-02T09:29:11.489Z</time></trkpt><trkpt lat="42.491225" lon="12.32494"><ele>61.333333333333336</ele><time>2026-05-02T09:29:12.489Z</time></trkpt><trkpt lat="42.4913717" lon="12.3247117"><ele>62.0</ele><time>2026-05-02T09:29:13.489Z</time></trkpt><trkpt lat="42.4915167" lon="12.3244833"><ele>62.5</ele><time>2026-05-02T09:29:14.489Z</time></trkpt><trkpt lat="42.49167" lon="12.324255"><ele>63.0</ele><time>2026-05-02T09:29:15.489Z</time></trkpt><trkpt lat="42.4918217" lon="12.324025"><ele>62.5</ele><time>2026-05-02T09:29:16.489Z</time></trkpt><trkpt lat="42.491975" lon="12.3238"><ele>62.0</ele><time>2026-05-02T09:29:17.489Z</time></trkpt><trkpt lat="42.4921217" lon="12.3235683"><ele>61.5</ele><time>2026-05-02T09:29:18.489Z</time></trkpt><trkpt lat="42.4922783" lon="12.3233333"><ele>61.0</ele><time>2026-05-02T09:29:19.489Z</time></trkpt><trkpt lat="42.49243" lon="12.3231017"><ele>60.5</ele><time>2026-05-02T09:29:20.489Z</time></trkpt><trkpt lat="42.4925783" lon="12.322865"><ele>60.0</ele><time>2026-05-02T09:29:21.489Z</time></trkpt><trkpt lat="42.4927317" lon="12.3226283"><ele>60.0</ele><time>2026-05-02T09:29:22.489Z</time></trkpt><trkpt lat="42.4928817" lon="12.3223933"><ele>60.0</ele><time>2026-05-02T09:29:23.489Z</time></trkpt><trkpt lat="42.4930333" lon="12.3221633"><ele>57.0</ele><time>2026-05-02T09:29:24.489Z</time></trkpt><trkpt lat="42.49319" lon="12.32193"><ele>54.0</ele><time>2026-05-02T09:29:25.489Z</time></trkpt><trkpt lat="42.4933417" lon="12.3217"><ele>54.0</ele><time>2026-05-02T09:29:26.489Z</time></trkpt><trkpt lat="42.4934967" lon="12.3214717"><ele>54.0</ele><time>2026-05-02T09:29:27.49Z</time></trkpt><trkpt lat="42.4936433" lon="12.3212383"><ele>58.0</ele><time>2026-05-02T09:29:28.489Z</time></trkpt><trkpt lat="42.4937917" lon="12.3210133"><ele>62.0</ele><time>2026-05-02T09:29:29.489Z</time></trkpt><trkpt lat="42.493935" lon="12.320795"><ele>66.0</ele><time>2026-05-02T09:29:30.489Z</time></trkpt><trkpt lat="42.4940717" lon="12.32058"><ele>66.0</ele><time>2026-05-02T09:29:31.489Z</time></trkpt><trkpt lat="42.4942083" lon="12.3203717"><ele>66.0</ele><time>2026-05-02T09:29:32.489Z</time></trkpt><trkpt lat="42.494345" lon="12.320165"><ele>66.0</ele><time>2026-05-02T09:29:33.489Z</time></trkpt><trkpt lat="42.4944767" lon="12.3199583"><ele>68.0</ele><time>2026-05-02T09:29:34.489Z</time></trkpt><trkpt lat="42.4946117" lon="12.3197567"><ele>70.0</ele><time>2026-05-02T09:29:35.489Z</time></trkpt><trkpt lat="42.49474" lon="12.3195533"><ele>72.0</ele><time>2026-05-02T09:29:36.489Z</time></trkpt><trkpt lat="42.4948717" lon="12.319355"><ele>72.0</ele><time>2026-05-02T09:29:37.489Z</time></trkpt><trkpt lat="42.4950017" lon="12.3191583"><ele>72.0</ele><time>2026-05-02T09:29:38.489Z</time></trkpt><trkpt lat="42.495135" lon="12.3189683"><ele>72.0</ele><time>2026-05-02T09:29:39.489Z</time></trkpt><trkpt lat="42.4952667" lon="12.3187717"><ele>71.33333333333333</ele><time>2026-05-02T09:29:40.489Z</time></trkpt><trkpt lat="42.4953983" lon="12.3185717"><ele>70.66666666666666</ele><time>2026-05-02T09:29:41.489Z</time></trkpt><trkpt lat="42.495525" lon="12.3183683"><ele>70.0</ele><time>2026-05-02T09:29:42.489Z</time></trkpt><trkpt lat="42.4956567" lon="12.3181667"><ele>72.66666666666666</ele><time>2026-05-02T09:29:43.489Z</time></trkpt><trkpt lat="42.4957917" lon="12.31796"><ele>75.33333333333333</ele><time>2026-05-02T09:29:44.49Z</time></trkpt><trkpt lat="42.49592" lon="12.3177533"><ele>78.0</ele><time>2026-05-02T09:29:45.489Z</time></trkpt><trkpt lat="42.496055" lon="12.317555"><ele>78.0</ele><time>2026-05-02T09:29:46.489Z</time></trkpt><trkpt lat="42.4961833" lon="12.3173583"><ele>78.0</ele><time>2026-05-02T09:29:47.489Z</time></trkpt><trkpt lat="42.4963067" lon="12.31717"><ele>78.0</ele><time>2026-05-02T09:29:48.489Z</time></trkpt><trkpt lat="42.4964217" lon="12.31699"><ele>79.33333333333333</ele><time>2026-05-02T09:29:49.489Z</time></trkpt><trkpt lat="42.49654" lon="12.3168133"><ele>80.66666666666666</ele><time>2026-05-02T09:29:50.489Z</time></trkpt><trkpt lat="42.49666" lon="12.3166367"><ele>82.0</ele><time>2026-05-02T09:29:51.489Z</time></trkpt><trkpt lat="42.4967783" lon="12.316455"><ele>81.33333333333333</ele><time>2026-05-02T09:29:52.489Z</time></trkpt><trkpt lat="42.4968983" lon="12.3162667"><ele>80.66666666666667</ele><time>2026-05-02T09:29:53.489Z</time></trkpt><trkpt lat="42.4970183" lon="12.316085"><ele>80.0</ele><time>2026-05-02T09:29:54.489Z</time></trkpt><trkpt lat="42.49714" lon="12.3159"><ele>80.0</ele><time>2026-05-02T09:29:55.489Z</time></trkpt><trkpt lat="42.4972617" lon="12.3157167"><ele>80.0</ele><time>2026-05-02T09:29:56.489Z</time></trkpt><trkpt lat="42.497385" lon="12.3155333"><ele>80.0</ele><time>2026-05-02T09:29:57.489Z</time></trkpt><trkpt lat="42.49751" lon="12.315335"><ele>79.0</ele><time>2026-05-02T09:29:58.49Z</time></trkpt><trkpt lat="42.4976267" lon="12.3151367"><ele>78.0</ele><time>2026-05-02T09:29:59.489Z</time></trkpt><trkpt lat="42.4977533" lon="12.3149367"><ele>77.0</ele><time>2026-05-02T09:30:00.489Z</time></trkpt><trkpt lat="42.4978817" lon="12.31474"><ele>77.33333333333334</ele><time>2026-05-02T09:30:01.489Z</time></trkpt><trkpt lat="42.4980083" lon="12.3145533"><ele>77.66666666666667</ele><time>2026-05-02T09:30:02.489Z</time></trkpt><trkpt lat="42.4981417" lon="12.3143567"><ele>78.0</ele><time>2026-05-02T09:30:03.489Z</time></trkpt><trkpt lat="42.498265" lon="12.3141517"><ele>78.0</ele><time>2026-05-02T09:30:04.489Z</time></trkpt><trkpt lat="42.498395" lon="12.3139533"><ele>78.0</ele><time>2026-05-02T09:30:05.489Z</time></trkpt><trkpt lat="42.498525" lon="12.3137483"><ele>78.0</ele><time>2026-05-02T09:30:06.489Z</time></trkpt><trkpt lat="42.49866" lon="12.3135417"><ele>78.0</ele><time>2026-05-02T09:30:07.489Z</time></trkpt><trkpt lat="42.4987983" lon="12.3133367"><ele>78.0</ele><time>2026-05-02T09:30:08.489Z</time></trkpt><trkpt lat="42.4989333" lon="12.313125"><ele>78.0</ele><time>2026-05-02T09:30:09.489Z</time></trkpt><trkpt lat="42.4990667" lon="12.312915"><ele>77.66666666666667</ele><time>2026-05-02T09:30:10.489Z</time></trkpt><trkpt lat="42.4992017" lon="12.312705"><ele>77.33333333333334</ele><time>2026-05-02T09:30:11.489Z</time></trkpt><trkpt lat="42.4993367" lon="12.31251"><ele>77.0</ele><time>2026-05-02T09:30:12.489Z</time></trkpt><trkpt lat="42.4994733" lon="12.3123133"><ele>76.33333333333334</ele><time>2026-05-02T09:30:13.489Z</time></trkpt><trkpt lat="42.4996033" lon="12.3121233"><ele>75.66666666666667</ele><time>2026-05-02T09:30:14.489Z</time></trkpt><trkpt lat="42.499725" lon="12.31193"><ele>75.0</ele><time>2026-05-02T09:30:15.489Z</time></trkpt><trkpt lat="42.499845" lon="12.311735"><ele>75.0</ele><time>2026-05-02T09:30:16.489Z</time></trkpt><trkpt lat="42.49996" lon="12.3115533"><ele>75.0</ele><time>2026-05-02T09:30:17.489Z</time></trkpt><trkpt lat="42.5000783" lon="12.311375"><ele>75.0</ele><time>2026-05-02T09:30:18.489Z</time></trkpt><trkpt lat="42.5001917" lon="12.3111917"><ele>75.0</ele><time>2026-05-02T09:30:19.49Z</time></trkpt><trkpt lat="42.5003117" lon="12.3110133"><ele>75.0</ele><time>2026-05-02T09:30:20.489Z</time></trkpt><trkpt lat="42.5004317" lon="12.310835"><ele>75.0</ele><time>2026-05-02T09:30:21.489Z</time></trkpt><trkpt lat="42.5005533" lon="12.31065"><ele>75.0</ele><time>2026-05-02T09:30:22.49Z</time></trkpt><trkpt lat="42.500675" lon="12.3104633"><ele>75.0</ele><time>2026-05-02T09:30:23.489Z</time></trkpt><trkpt lat="42.5008033" lon="12.310275"><ele>75.0</ele><time>2026-05-02T09:30:24.489Z</time></trkpt><trkpt lat="42.500925" lon="12.31008"><ele>75.0</ele><time>2026-05-02T09:30:25.489Z</time></trkpt><trkpt lat="42.5010483" lon="12.3098817"><ele>75.0</ele><time>2026-05-02T09:30:26.49Z</time></trkpt><trkpt lat="42.5011767" lon="12.309685"><ele>75.0</ele><time>2026-05-02T09:30:27.489Z</time></trkpt><trkpt lat="42.501305" lon="12.309495"><ele>76.0</ele><time>2026-05-02T09:30:28.489Z</time></trkpt><trkpt lat="42.5014317" lon="12.3093117"><ele>77.0</ele><time>2026-05-02T09:30:29.49Z</time></trkpt><trkpt lat="42.50155" lon="12.309135"><ele>78.0</ele><time>2026-05-02T09:30:30.489Z</time></trkpt><trkpt lat="42.5016617" lon="12.308955"><ele>78.0</ele><time>2026-05-02T09:30:31.489Z</time></trkpt><trkpt lat="42.5017767" lon="12.3087767"><ele>78.0</ele><time>2026-05-02T09:30:32.489Z</time></trkpt><trkpt lat="42.5018883" lon="12.3085983"><ele>78.0</ele><time>2026-05-02T09:30:33.489Z</time></trkpt><trkpt lat="42.5019967" lon="12.3084067"><ele>78.33333333333333</ele><time>2026-05-02T09:30:34.489Z</time></trkpt><trkpt lat="42.5021117" lon="12.3082183"><ele>78.66666666666666</ele><time>2026-05-02T09:30:35.49Z</time></trkpt><trkpt lat="42.5022217" lon="12.308025"><ele>79.0</ele><time>2026-05-02T09:30:36.489Z</time></trkpt><trkpt lat="42.50233" lon="12.3078333"><ele>79.0</ele><time>2026-05-02T09:30:37.489Z</time></trkpt><trkpt lat="42.502435" lon="12.3076317"><ele>79.0</ele><time>2026-05-02T09:30:38.49Z</time></trkpt><trkpt lat="42.50254" lon="12.3074317"><ele>79.0</ele><time>2026-05-02T09:30:39.489Z</time></trkpt><trkpt lat="42.502645" lon="12.3072233"><ele>78.66666666666666</ele><time>2026-05-02T09:30:40.489Z</time></trkpt><trkpt lat="42.5027517" lon="12.307015"><ele>78.33333333333333</ele><time>2026-05-02T09:30:41.489Z</time></trkpt><trkpt lat="42.502855" lon="12.3068033"><ele>78.0</ele><time>2026-05-02T09:30:42.489Z</time></trkpt><trkpt lat="42.5029567" lon="12.306585"><ele>78.0</ele><time>2026-05-02T09:30:43.489Z</time></trkpt><trkpt lat="42.5030617" lon="12.3063667"><ele>78.0</ele><time>2026-05-02T09:30:44.489Z</time></trkpt><trkpt lat="42.5031583" lon="12.30615"><ele>78.0</ele><time>2026-05-02T09:30:45.489Z</time></trkpt><trkpt lat="42.5032633" lon="12.305935"><ele>78.0</ele><time>2026-05-02T09:30:46.489Z</time></trkpt><trkpt lat="42.5033733" lon="12.3057183"><ele>78.0</ele><time>2026-05-02T09:30:47.489Z</time></trkpt><trkpt lat="42.5034767" lon="12.3055017"><ele>78.0</ele><time>2026-05-02T09:30:48.489Z</time></trkpt><trkpt lat="42.5035817" lon="12.3052883"><ele>77.33333333333333</ele><time>2026-05-02T09:30:49.489Z</time></trkpt><trkpt lat="42.5036917" lon="12.305075"><ele>76.66666666666666</ele><time>2026-05-02T09:30:50.489Z</time></trkpt><trkpt lat="42.5038" lon="12.304855"><ele>76.0</ele><time>2026-05-02T09:30:51.489Z</time></trkpt><trkpt lat="42.5039117" lon="12.3046583"><ele>74.66666666666666</ele><time>2026-05-02T09:30:52.489Z</time></trkpt><trkpt lat="42.5040133" lon="12.3044317"><ele>73.33333333333333</ele><time>2026-05-02T09:30:53.489Z</time></trkpt><trkpt lat="42.504115" lon="12.3042083"><ele>72.0</ele><time>2026-05-02T09:30:54.489Z</time></trkpt><trkpt lat="42.5042183" lon="12.3039833"><ele>71.33333333333333</ele><time>2026-05-02T09:30:55.489Z</time></trkpt><trkpt lat="42.504325" lon="12.3037633"><ele>70.66666666666666</ele><time>2026-05-02T09:30:56.489Z</time></trkpt><trkpt lat="42.50443" lon="12.30355"><ele>70.0</ele><time>2026-05-02T09:30:57.489Z</time></trkpt><trkpt lat="42.5045367" lon="12.3033317"><ele>70.0</ele><time>2026-05-02T09:30:58.489Z</time></trkpt><trkpt lat="42.504645" lon="12.303105"><ele>70.0</ele><time>2026-05-02T09:30:59.489Z</time></trkpt><trkpt lat="42.504745" lon="12.302885"><ele>70.0</ele><time>2026-05-02T09:31:00.489Z</time></trkpt><trkpt lat="42.5048483" lon="12.30267"><ele>69.0</ele><time>2026-05-02T09:31:01.489Z</time></trkpt><trkpt lat="42.5049533" lon="12.302445"><ele>68.0</ele><time>2026-05-02T09:31:02.489Z</time></trkpt><trkpt lat="42.5050617" lon="12.3022217"><ele>67.0</ele><time>2026-05-02T09:31:03.489Z</time></trkpt><trkpt lat="42.5051717" lon="12.3020017"><ele>66.33333333333333</ele><time>2026-05-02T09:31:04.489Z</time></trkpt><trkpt lat="42.50528" lon="12.3017833"><ele>65.66666666666667</ele><time>2026-05-02T09:31:05.489Z</time></trkpt><trkpt lat="42.5053883" lon="12.301555"><ele>65.0</ele><time>2026-05-02T09:31:06.489Z</time></trkpt><trkpt lat="42.5055017" lon="12.3013317"><ele>64.0</ele><time>2026-05-02T09:31:07.489Z</time></trkpt><trkpt lat="42.5056117" lon="12.3011083"><ele>63.0</ele><time>2026-05-02T09:31:08.489Z</time></trkpt><trkpt lat="42.50572" lon="12.3008867"><ele>62.0</ele><time>2026-05-02T09:31:09.489Z</time></trkpt><trkpt lat="42.50583" lon="12.30067"><ele>61.333333333333336</ele><time>2026-05-02T09:31:10.489Z</time></trkpt><trkpt lat="42.5059333" lon="12.3004617"><ele>60.66666666666667</ele><time>2026-05-02T09:31:11.489Z</time></trkpt><trkpt lat="42.506035" lon="12.300245"><ele>60.0</ele><time>2026-05-02T09:31:12.489Z</time></trkpt><trkpt lat="42.506135" lon="12.300035"><ele>60.0</ele><time>2026-05-02T09:31:13.49Z</time></trkpt><trkpt lat="42.50623" lon="12.2998267"><ele>60.0</ele><time>2026-05-02T09:31:14.489Z</time></trkpt><trkpt lat="42.5063333" lon="12.2996267"><ele>60.0</ele><time>2026-05-02T09:31:15.489Z</time></trkpt><trkpt lat="42.50643" lon="12.29943"><ele>60.0</ele><time>2026-05-02T09:31:16.489Z</time></trkpt><trkpt lat="42.5065267" lon="12.2992267"><ele>60.0</ele><time>2026-05-02T09:31:17.489Z</time></trkpt><trkpt lat="42.506625" lon="12.2990233"><ele>60.0</ele><time>2026-05-02T09:31:18.489Z</time></trkpt><trkpt lat="42.5067267" lon="12.298815"><ele>60.0</ele><time>2026-05-02T09:31:19.489Z</time></trkpt><trkpt lat="42.50683" lon="12.2986017"><ele>60.0</ele><time>2026-05-02T09:31:20.489Z</time></trkpt><trkpt lat="42.5069317" lon="12.2983817"><ele>60.0</ele><time>2026-05-02T09:31:21.489Z</time></trkpt><trkpt lat="42.50704" lon="12.29817"><ele>60.33333333333333</ele><time>2026-05-02T09:31:22.489Z</time></trkpt><trkpt lat="42.5071483" lon="12.2979617"><ele>60.666666666666664</ele><time>2026-05-02T09:31:23.49Z</time></trkpt><trkpt lat="42.5072567" lon="12.29775"><ele>61.0</ele><time>2026-05-02T09:31:24.489Z</time></trkpt><trkpt lat="42.5073583" lon="12.2975383"><ele>61.0</ele><time>2026-05-02T09:31:25.489Z</time></trkpt><trkpt lat="42.50746" lon="12.297325"><ele>61.0</ele><time>2026-05-02T09:31:26.489Z</time></trkpt><trkpt lat="42.5075633" lon="12.2971217"><ele>61.0</ele><time>2026-05-02T09:31:27.489Z</time></trkpt><trkpt lat="42.5076633" lon="12.2969117"><ele>60.33333333333333</ele><time>2026-05-02T09:31:28.489Z</time></trkpt><trkpt lat="42.5077583" lon="12.2966967"><ele>59.66666666666667</ele><time>2026-05-02T09:31:29.489Z</time></trkpt><trkpt lat="42.507855" lon="12.2964817"><ele>59.0</ele><time>2026-05-02T09:31:30.489Z</time></trkpt><trkpt lat="42.5079517" lon="12.2962633"><ele>60.333333333333336</ele><time>2026-05-02T09:31:31.489Z</time></trkpt><trkpt lat="42.5080533" lon="12.2960533"><ele>61.66666666666667</ele><time>2026-05-02T09:31:32.489Z</time></trkpt><trkpt lat="42.5081583" lon="12.29584"><ele>63.0</ele><time>2026-05-02T09:31:33.489Z</time></trkpt><trkpt lat="42.5082767" lon="12.2956217"><ele>63.33333333333333</ele><time>2026-05-02T09:31:34.489Z</time></trkpt><trkpt lat="42.5083867" lon="12.2954017"><ele>63.666666666666664</ele><time>2026-05-02T09:31:35.489Z</time></trkpt><trkpt lat="42.5084883" lon="12.2951817"><ele>64.0</ele><time>2026-05-02T09:31:36.489Z</time></trkpt><trkpt lat="42.5085967" lon="12.294965"><ele>64.0</ele><time>2026-05-02T09:31:37.49Z</time></trkpt><trkpt lat="42.5087" lon="12.2947467"><ele>64.0</ele><time>2026-05-02T09:31:38.489Z</time></trkpt><trkpt lat="42.5088017" lon="12.2945367"><ele>64.0</ele><time>2026-05-02T09:31:39.489Z</time></trkpt><trkpt lat="42.508905" lon="12.2943233"><ele>64.0</ele><time>2026-05-02T09:31:40.489Z</time></trkpt><trkpt lat="42.5090083" lon="12.29411"><ele>64.0</ele><time>2026-05-02T09:31:41.489Z</time></trkpt><trkpt lat="42.5091167" lon="12.293895"><ele>64.0</ele><time>2026-05-02T09:31:42.489Z</time></trkpt><trkpt lat="42.5092267" lon="12.2936933"><ele>63.666666666666664</ele><time>2026-05-02T09:31:43.489Z</time></trkpt><trkpt lat="42.5093367" lon="12.29349"><ele>63.33333333333333</ele><time>2026-05-02T09:31:44.489Z</time></trkpt><trkpt lat="42.509455" lon="12.2932717"><ele>63.0</ele><time>2026-05-02T09:31:45.489Z</time></trkpt><trkpt lat="42.509575" lon="12.2930567"><ele>64.33333333333333</ele><time>2026-05-02T09:31:46.489Z</time></trkpt><trkpt lat="42.509695" lon="12.2928517"><ele>65.66666666666666</ele><time>2026-05-02T09:31:47.489Z</time></trkpt><trkpt lat="42.5098133" lon="12.2926517"><ele>67.0</ele><time>2026-05-02T09:31:48.489Z</time></trkpt><trkpt lat="42.509935" lon="12.2924483"><ele>65.66666666666666</ele><time>2026-05-02T09:31:49.489Z</time></trkpt><trkpt lat="42.5100583" lon="12.2922517"><ele>64.33333333333333</ele><time>2026-05-02T09:31:50.489Z</time></trkpt><trkpt lat="42.510185" lon="12.29207"><ele>63.0</ele><time>2026-05-02T09:31:51.489Z</time></trkpt><trkpt lat="42.510305" lon="12.2918867"><ele>63.33333333333333</ele><time>2026-05-02T09:31:52.489Z</time></trkpt><trkpt lat="42.5104317" lon="12.29171"><ele>63.666666666666664</ele><time>2026-05-02T09:31:53.489Z</time></trkpt><trkpt lat="42.5105567" lon="12.2915317"><ele>64.0</ele><time>2026-05-02T09:31:54.489Z</time></trkpt><trkpt lat="42.5106833" lon="12.29135"><ele>64.0</ele><time>2026-05-02T09:31:55.489Z</time></trkpt><trkpt lat="42.5108167" lon="12.2911583"><ele>64.0</ele><time>2026-05-02T09:31:56.489Z</time></trkpt><trkpt lat="42.51095" lon="12.290985"><ele>64.0</ele><time>2026-05-02T09:31:57.489Z</time></trkpt><trkpt lat="42.5110967" lon="12.2908167"><ele>64.0</ele><time>2026-05-02T09:31:58.489Z</time></trkpt><trkpt lat="42.511235" lon="12.29064"><ele>64.0</ele><time>2026-05-02T09:31:59.489Z</time></trkpt><trkpt lat="42.51138" lon="12.2904617"><ele>64.0</ele><time>2026-05-02T09:32:00.489Z</time></trkpt><trkpt lat="42.5115283" lon="12.2902933"><ele>65.0</ele><time>2026-05-02T09:32:01.489Z</time></trkpt><trkpt lat="42.51167" lon="12.2901133"><ele>66.0</ele><time>2026-05-02T09:32:02.489Z</time></trkpt><trkpt lat="42.5118117" lon="12.2899417"><ele>67.0</ele><time>2026-05-02T09:32:03.489Z</time></trkpt><trkpt lat="42.5119483" lon="12.2897683"><ele>67.66666666666666</ele><time>2026-05-02T09:32:04.489Z</time></trkpt><trkpt lat="42.5120917" lon="12.2895933"><ele>68.33333333333333</ele><time>2026-05-02T09:32:05.489Z</time></trkpt><trkpt lat="42.5122317" lon="12.28942"><ele>69.0</ele><time>2026-05-02T09:32:06.489Z</time></trkpt><trkpt lat="42.5123683" lon="12.289255"><ele>69.0</ele><time>2026-05-02T09:32:07.489Z</time></trkpt><trkpt lat="42.5125083" lon="12.2890933"><ele>69.0</ele><time>2026-05-02T09:32:08.489Z</time></trkpt><trkpt lat="42.5126483" lon="12.2889217"><ele>69.0</ele><time>2026-05-02T09:32:09.489Z</time></trkpt><trkpt lat="42.512785" lon="12.2887483"><ele>69.66666666666667</ele><time>2026-05-02T09:32:10.489Z</time></trkpt><trkpt lat="42.5129267" lon="12.28859"><ele>70.33333333333334</ele><time>2026-05-02T09:32:11.489Z</time></trkpt><trkpt lat="42.5130667" lon="12.288425"><ele>71.0</ele><time>2026-05-02T09:32:12.489Z</time></trkpt><trkpt lat="42.5132033" lon="12.2882533"><ele>67.66666666666667</ele><time>2026-05-02T09:32:13.489Z</time></trkpt><trkpt lat="42.51334" lon="12.288085"><ele>64.33333333333333</ele><time>2026-05-02T09:32:14.489Z</time></trkpt><trkpt lat="42.5134767" lon="12.287915"><ele>61.0</ele><time>2026-05-02T09:32:15.489Z</time></trkpt><trkpt lat="42.513615" lon="12.2877433"><ele>61.0</ele><time>2026-05-02T09:32:16.489Z</time></trkpt><trkpt lat="42.5137533" lon="12.2875767"><ele>61.0</ele><time>2026-05-02T09:32:17.489Z</time></trkpt><trkpt lat="42.513895" lon="12.2874117"><ele>61.0</ele><time>2026-05-02T09:32:18.489Z</time></trkpt><trkpt lat="42.5140367" lon="12.287245"><ele>61.0</ele><time>2026-05-02T09:32:19.489Z</time></trkpt><trkpt lat="42.514175" lon="12.287085"><ele>61.0</ele><time>2026-05-02T09:32:20.489Z</time></trkpt><trkpt lat="42.5143183" lon="12.28691"><ele>61.0</ele><time>2026-05-02T09:32:21.489Z</time></trkpt><trkpt lat="42.514455" lon="12.2867417"><ele>61.0</ele><time>2026-05-02T09:32:22.489Z</time></trkpt><trkpt lat="42.5146033" lon="12.286575"><ele>61.0</ele><time>2026-05-02T09:32:23.489Z</time></trkpt><trkpt lat="42.5147483" lon="12.2864083"><ele>61.0</ele><time>2026-05-02T09:32:24.489Z</time></trkpt><trkpt lat="42.5148883" lon="12.2862383"><ele>61.0</ele><time>2026-05-02T09:32:25.49Z</time></trkpt><trkpt lat="42.5150233" lon="12.2860583"><ele>61.0</ele><time>2026-05-02T09:32:26.489Z</time></trkpt><trkpt lat="42.5151633" lon="12.285885"><ele>61.0</ele><time>2026-05-02T09:32:27.489Z</time></trkpt><trkpt lat="42.5153" lon="12.2857117"><ele>61.0</ele><time>2026-05-02T09:32:28.489Z</time></trkpt><trkpt lat="42.51544" lon="12.2855367"><ele>61.0</ele><time>2026-05-02T09:32:29.489Z</time></trkpt><trkpt lat="42.5155817" lon="12.285365"><ele>61.0</ele><time>2026-05-02T09:32:30.489Z</time></trkpt><trkpt lat="42.5157233" lon="12.2851967"><ele>61.0</ele><time>2026-05-02T09:32:31.489Z</time></trkpt><trkpt lat="42.5158617" lon="12.2850267"><ele>61.0</ele><time>2026-05-02T09:32:32.489Z</time></trkpt><trkpt lat="42.5160017" lon="12.2848617"><ele>61.0</ele><time>2026-05-02T09:32:33.489Z</time></trkpt><trkpt lat="42.5161433" lon="12.28469"><ele>61.0</ele><time>2026-05-02T09:32:34.489Z</time></trkpt><trkpt lat="42.51628" lon="12.2845167"><ele>61.0</ele><time>2026-05-02T09:32:35.489Z</time></trkpt><trkpt lat="42.51642" lon="12.28434"><ele>61.0</ele><time>2026-05-02T09:32:36.489Z</time></trkpt><trkpt lat="42.5165667" lon="12.28417"><ele>61.0</ele><time>2026-05-02T09:32:37.49Z</time></trkpt><trkpt lat="42.5167083" lon="12.284"><ele>61.0</ele><time>2026-05-02T09:32:38.489Z</time></trkpt><trkpt lat="42.51685" lon="12.2838233"><ele>61.0</ele><time>2026-05-02T09:32:39.489Z</time></trkpt><trkpt lat="42.5169917" lon="12.28365"><ele>61.0</ele><time>2026-05-02T09:32:40.489Z</time></trkpt><trkpt lat="42.517125" lon="12.2834717"><ele>61.0</ele><time>2026-05-02T09:32:41.489Z</time></trkpt><trkpt lat="42.5172533" lon="12.28328"><ele>61.0</ele><time>2026-05-02T09:32:42.49Z</time></trkpt><trkpt lat="42.5173767" lon="12.2830867"><ele>61.0</ele><time>2026-05-02T09:32:43.489Z</time></trkpt><trkpt lat="42.517495" lon="12.2828933"><ele>61.0</ele><time>2026-05-02T09:32:44.489Z</time></trkpt><trkpt lat="42.517615" lon="12.2826933"><ele>61.0</ele><time>2026-05-02T09:32:45.489Z</time></trkpt><trkpt lat="42.51773" lon="12.2824917"><ele>61.0</ele><time>2026-05-02T09:32:46.489Z</time></trkpt><trkpt lat="42.517835" lon="12.2822867"><ele>61.0</ele><time>2026-05-02T09:32:47.489Z</time></trkpt><trkpt lat="42.5179417" lon="12.2820767"><ele>61.0</ele><time>2026-05-02T09:32:48.489Z</time></trkpt><trkpt lat="42.5180417" lon="12.2818567"><ele>60.666666666666664</ele><time>2026-05-02T09:32:49.489Z</time></trkpt><trkpt lat="42.5181383" lon="12.281635"><ele>60.33333333333333</ele><time>2026-05-02T09:32:50.489Z</time></trkpt><trkpt lat="42.5182283" lon="12.281405"><ele>60.0</ele><time>2026-05-02T09:32:51.489Z</time></trkpt><trkpt lat="42.5183167" lon="12.2811833"><ele>60.0</ele><time>2026-05-02T09:32:52.489Z</time></trkpt><trkpt lat="42.5184033" lon="12.2809483"><ele>60.0</ele><time>2026-05-02T09:32:53.489Z</time></trkpt><trkpt lat="42.51849" lon="12.2807133"><ele>60.0</ele><time>2026-05-02T09:32:54.49Z</time></trkpt><trkpt lat="42.518565" lon="12.28048"><ele>60.0</ele><time>2026-05-02T09:32:55.489Z</time></trkpt><trkpt lat="42.5186317" lon="12.2802333"><ele>60.0</ele><time>2026-05-02T09:32:56.49Z</time></trkpt><trkpt lat="42.518695" lon="12.2799817"><ele>60.0</ele><time>2026-05-02T09:32:57.49Z</time></trkpt><trkpt lat="42.5187583" lon="12.2797283"><ele>60.33333333333333</ele><time>2026-05-02T09:32:58.489Z</time></trkpt><trkpt lat="42.5188183" lon="12.2794817"><ele>60.666666666666664</ele><time>2026-05-02T09:32:59.489Z</time></trkpt><trkpt lat="42.518875" lon="12.279245"><ele>61.0</ele><time>2026-05-02T09:33:00.489Z</time></trkpt><trkpt lat="42.51894" lon="12.2790067"><ele>61.666666666666664</ele><time>2026-05-02T09:33:01.489Z</time></trkpt><trkpt lat="42.5190017" lon="12.2787717"><ele>62.33333333333333</ele><time>2026-05-02T09:33:02.49Z</time></trkpt><trkpt lat="42.5190633" lon="12.2785333"><ele>63.0</ele><time>2026-05-02T09:33:03.489Z</time></trkpt><trkpt lat="42.519125" lon="12.278295"><ele>61.33333333333333</ele><time>2026-05-02T09:33:04.489Z</time></trkpt><trkpt lat="42.5191833" lon="12.2780617"><ele>59.666666666666664</ele><time>2026-05-02T09:33:05.489Z</time></trkpt><trkpt lat="42.5192383" lon="12.277825"><ele>58.0</ele><time>2026-05-02T09:33:06.489Z</time></trkpt><trkpt lat="42.519295" lon="12.277585"><ele>58.0</ele><time>2026-05-02T09:33:07.489Z</time></trkpt><trkpt lat="42.5193517" lon="12.2773433"><ele>58.0</ele><time>2026-05-02T09:33:08.49Z</time></trkpt><trkpt lat="42.519405" lon="12.2771"><ele>58.0</ele><time>2026-05-02T09:33:09.49Z</time></trkpt><trkpt lat="42.5194633" lon="12.2768567"><ele>58.33333333333333</ele><time>2026-05-02T09:33:10.489Z</time></trkpt><trkpt lat="42.5195217" lon="12.2766267"><ele>58.66666666666667</ele><time>2026-05-02T09:33:11.489Z</time></trkpt><trkpt lat="42.5195883" lon="12.276385"><ele>59.0</ele><time>2026-05-02T09:33:12.489Z</time></trkpt><trkpt lat="42.5196417" lon="12.276145"><ele>59.66666666666667</ele><time>2026-05-02T09:33:13.489Z</time></trkpt><trkpt lat="42.5196967" lon="12.275905"><ele>60.33333333333333</ele><time>2026-05-02T09:33:14.489Z</time></trkpt><trkpt lat="42.5197517" lon="12.2756683"><ele>61.0</ele><time>2026-05-02T09:33:15.489Z</time></trkpt><trkpt lat="42.5198067" lon="12.2754333"><ele>61.0</ele><time>2026-05-02T09:33:16.49Z</time></trkpt><trkpt lat="42.5198617" lon="12.2752033"><ele>61.0</ele><time>2026-05-02T09:33:17.489Z</time></trkpt><trkpt lat="42.5199167" lon="12.2749733"><ele>61.0</ele><time>2026-05-02T09:33:18.489Z</time></trkpt><trkpt lat="42.519975" lon="12.2747517"><ele>61.0</ele><time>2026-05-02T09:33:19.489Z</time></trkpt><trkpt lat="42.5200333" lon="12.2745283"><ele>61.0</ele><time>2026-05-02T09:33:20.489Z</time></trkpt><trkpt lat="42.5200883" lon="12.2743083"><ele>61.0</ele><time>2026-05-02T09:33:21.489Z</time></trkpt><trkpt lat="42.5201433" lon="12.27408"><ele>60.666666666666664</ele><time>2026-05-02T09:33:22.489Z</time></trkpt><trkpt lat="42.5201967" lon="12.2738583"><ele>60.33333333333333</ele><time>2026-05-02T09:33:23.489Z</time></trkpt><trkpt lat="42.52025" lon="12.2736317"><ele>60.0</ele><time>2026-05-02T09:33:24.489Z</time></trkpt><trkpt lat="42.5203083" lon="12.27341"><ele>60.0</ele><time>2026-05-02T09:33:25.489Z</time></trkpt><trkpt lat="42.5203683" lon="12.27318"><ele>60.0</ele><time>2026-05-02T09:33:26.489Z</time></trkpt><trkpt lat="42.5204233" lon="12.2729533"><ele>60.0</ele><time>2026-05-02T09:33:27.489Z</time></trkpt><trkpt lat="42.5204767" lon="12.272715"><ele>60.0</ele><time>2026-05-02T09:33:28.489Z</time></trkpt><trkpt lat="42.5205333" lon="12.2724733"><ele>60.0</ele><time>2026-05-02T09:33:29.489Z</time></trkpt><trkpt lat="42.5205917" lon="12.2722367"><ele>60.0</ele><time>2026-05-02T09:33:30.489Z</time></trkpt><trkpt lat="42.5206567" lon="12.272"><ele>60.33333333333333</ele><time>2026-05-02T09:33:31.489Z</time></trkpt><trkpt lat="42.5207217" lon="12.2717633"><ele>60.666666666666664</ele><time>2026-05-02T09:33:32.489Z</time></trkpt><trkpt lat="42.5207817" lon="12.27153"><ele>61.0</ele><time>2026-05-02T09:33:33.489Z</time></trkpt><trkpt lat="42.520845" lon="12.2713067"><ele>62.0</ele><time>2026-05-02T09:33:34.489Z</time></trkpt><trkpt lat="42.5209067" lon="12.271095"><ele>63.0</ele><time>2026-05-02T09:33:35.489Z</time></trkpt><trkpt lat="42.52097" lon="12.2708967"><ele>64.0</ele><time>2026-05-02T09:33:36.489Z</time></trkpt><trkpt lat="42.5210367" lon="12.270695"><ele>64.33333333333333</ele><time>2026-05-02T09:33:37.49Z</time></trkpt><trkpt lat="42.5211017" lon="12.2704933"><ele>64.66666666666667</ele><time>2026-05-02T09:33:38.489Z</time></trkpt><trkpt lat="42.52117" lon="12.270285"><ele>65.0</ele><time>2026-05-02T09:33:39.489Z</time></trkpt><trkpt lat="42.521245" lon="12.2700683"><ele>65.0</ele><time>2026-05-02T09:33:40.489Z</time></trkpt><trkpt lat="42.5213233" lon="12.26985"><ele>65.0</ele><time>2026-05-02T09:33:41.489Z</time></trkpt><trkpt lat="42.5214067" lon="12.2696217"><ele>65.0</ele><time>2026-05-02T09:33:42.489Z</time></trkpt><trkpt lat="42.5215033" lon="12.2693883"><ele>65.0</ele><time>2026-05-02T09:33:43.489Z</time></trkpt><trkpt lat="42.521605" lon="12.26915"><ele>65.0</ele><time>2026-05-02T09:33:44.489Z</time></trkpt><trkpt lat="42.52171" lon="12.26892"><ele>65.0</ele><time>2026-05-02T09:33:45.489Z</time></trkpt><trkpt lat="42.521815" lon="12.2687017"><ele>65.0</ele><time>2026-05-02T09:33:46.489Z</time></trkpt><trkpt lat="42.5219167" lon="12.2684833"><ele>65.0</ele><time>2026-05-02T09:33:47.49Z</time></trkpt><trkpt lat="42.5220133" lon="12.2682733"><ele>65.0</ele><time>2026-05-02T09:33:48.489Z</time></trkpt><trkpt lat="42.5221183" lon="12.2680667"><ele>64.66666666666667</ele><time>2026-05-02T09:33:49.489Z</time></trkpt><trkpt lat="42.5222233" lon="12.2678633"><ele>64.33333333333333</ele><time>2026-05-02T09:33:50.49Z</time></trkpt><trkpt lat="42.5223333" lon="12.2676767"><ele>64.0</ele><time>2026-05-02T09:33:51.489Z</time></trkpt><trkpt lat="42.52244" lon="12.2674833"><ele>64.0</ele><time>2026-05-02T09:33:52.489Z</time></trkpt><trkpt lat="42.522555" lon="12.2672967"><ele>64.0</ele><time>2026-05-02T09:33:53.489Z</time></trkpt><trkpt lat="42.52267" lon="12.2671017"><ele>64.0</ele><time>2026-05-02T09:33:54.489Z</time></trkpt><trkpt lat="42.5227833" lon="12.2669133"><ele>64.0</ele><time>2026-05-02T09:33:55.489Z</time></trkpt><trkpt lat="42.5229017" lon="12.2667233"><ele>64.0</ele><time>2026-05-02T09:33:56.489Z</time></trkpt><trkpt lat="42.52303" lon="12.2665367"><ele>64.0</ele><time>2026-05-02T09:33:57.489Z</time></trkpt><trkpt lat="42.523165" lon="12.2663517"><ele>64.33333333333333</ele><time>2026-05-02T09:33:58.489Z</time></trkpt><trkpt lat="42.5232933" lon="12.2661783"><ele>64.66666666666667</ele><time>2026-05-02T09:33:59.49Z</time></trkpt><trkpt lat="42.5234117" lon="12.266005"><ele>65.0</ele><time>2026-05-02T09:34:00.49Z</time></trkpt><trkpt lat="42.523535" lon="12.2658433"><ele>65.0</ele><time>2026-05-02T09:34:01.489Z</time></trkpt><trkpt lat="42.5236617" lon="12.2656867"><ele>65.0</ele><time>2026-05-02T09:34:02.49Z</time></trkpt><trkpt lat="42.5237883" lon="12.2655317"><ele>65.0</ele><time>2026-05-02T09:34:03.489Z</time></trkpt><trkpt lat="42.523915" lon="12.2653683"><ele>64.33333333333334</ele><time>2026-05-02T09:34:04.489Z</time></trkpt><trkpt lat="42.5240517" lon="12.2652183"><ele>63.66666666666667</ele><time>2026-05-02T09:34:05.489Z</time></trkpt><trkpt lat="42.5241883" lon="12.265075"><ele>63.0</ele><time>2026-05-02T09:34:06.489Z</time></trkpt><trkpt lat="42.524325" lon="12.2649233"><ele>63.33333333333333</ele><time>2026-05-02T09:34:07.489Z</time></trkpt><trkpt lat="42.5244617" lon="12.2647717"><ele>63.666666666666664</ele><time>2026-05-02T09:34:08.489Z</time></trkpt><trkpt lat="42.5245983" lon="12.2646217"><ele>64.0</ele><time>2026-05-02T09:34:09.489Z</time></trkpt><trkpt lat="42.5247367" lon="12.2644717"><ele>64.0</ele><time>2026-05-02T09:34:10.489Z</time></trkpt><trkpt lat="42.5248867" lon="12.2643317"><ele>64.0</ele><time>2026-05-02T09:34:11.489Z</time></trkpt><trkpt lat="42.5250333" lon="12.26419"><ele>64.0</ele><time>2026-05-02T09:34:12.489Z</time></trkpt><trkpt lat="42.525185" lon="12.2640533"><ele>64.33333333333333</ele><time>2026-05-02T09:34:13.489Z</time></trkpt><trkpt lat="42.5253417" lon="12.2639233"><ele>64.66666666666667</ele><time>2026-05-02T09:34:14.489Z</time></trkpt><trkpt lat="42.5254983" lon="12.263785"><ele>65.0</ele><time>2026-05-02T09:34:15.489Z</time></trkpt><trkpt lat="42.5256583" lon="12.2636517"><ele>64.33333333333334</ele><time>2026-05-02T09:34:16.489Z</time></trkpt><trkpt lat="42.5258117" lon="12.263525"><ele>63.66666666666667</ele><time>2026-05-02T09:34:17.489Z</time></trkpt><trkpt lat="42.5259717" lon="12.2633967"><ele>63.0</ele><time>2026-05-02T09:34:18.489Z</time></trkpt><trkpt lat="42.526135" lon="12.2632717"><ele>63.0</ele><time>2026-05-02T09:34:19.489Z</time></trkpt><trkpt lat="42.526295" lon="12.2631517"><ele>63.0</ele><time>2026-05-02T09:34:20.489Z</time></trkpt><trkpt lat="42.5264567" lon="12.2630383"><ele>63.0</ele><time>2026-05-02T09:34:21.489Z</time></trkpt><trkpt lat="42.52662" lon="12.2629267"><ele>63.0</ele><time>2026-05-02T09:34:22.489Z</time></trkpt><trkpt lat="42.52679" lon="12.2628217"><ele>63.0</ele><time>2026-05-02T09:34:23.489Z</time></trkpt><trkpt lat="42.5269583" lon="12.2627133"><ele>63.0</ele><time>2026-05-02T09:34:24.489Z</time></trkpt><trkpt lat="42.527125" lon="12.262615"><ele>63.0</ele><time>2026-05-02T09:34:25.489Z</time></trkpt><trkpt lat="42.5272883" lon="12.2625233"><ele>63.0</ele><time>2026-05-02T09:34:26.49Z</time></trkpt><trkpt lat="42.5274517" lon="12.26243"><ele>63.0</ele><time>2026-05-02T09:34:27.489Z</time></trkpt><trkpt lat="42.5276217" lon="12.26235"><ele>63.0</ele><time>2026-05-02T09:34:28.489Z</time></trkpt><trkpt lat="42.52779" lon="12.26227"><ele>63.0</ele><time>2026-05-02T09:34:29.49Z</time></trkpt><trkpt lat="42.52796" lon="12.2621917"><ele>63.0</ele><time>2026-05-02T09:34:30.489Z</time></trkpt><trkpt lat="42.528135" lon="12.26212"><ele>63.0</ele><time>2026-05-02T09:34:31.489Z</time></trkpt><trkpt lat="42.5283133" lon="12.26204"><ele>63.0</ele><time>2026-05-02T09:34:32.489Z</time></trkpt><trkpt lat="42.5284967" lon="12.2619667"><ele>63.0</ele><time>2026-05-02T09:34:33.489Z</time></trkpt><trkpt lat="42.5286767" lon="12.2619083"><ele>63.0</ele><time>2026-05-02T09:34:34.489Z</time></trkpt><trkpt lat="42.52886" lon="12.2618417"><ele>63.0</ele><time>2026-05-02T09:34:35.489Z</time></trkpt><trkpt lat="42.5290433" lon="12.26178"><ele>63.0</ele><time>2026-05-02T09:34:36.489Z</time></trkpt><trkpt lat="42.5292333" lon="12.2617233"><ele>63.0</ele><time>2026-05-02T09:34:37.489Z</time></trkpt><trkpt lat="42.5294217" lon="12.2616817"><ele>63.0</ele><time>2026-05-02T09:34:38.489Z</time></trkpt><trkpt lat="42.5296117" lon="12.261635"><ele>63.0</ele><time>2026-05-02T09:34:39.489Z</time></trkpt><trkpt lat="42.529795" lon="12.261585"><ele>62.66666666666667</ele><time>2026-05-02T09:34:40.489Z</time></trkpt><trkpt lat="42.5299733" lon="12.2615467"><ele>62.333333333333336</ele><time>2026-05-02T09:34:41.489Z</time></trkpt><trkpt lat="42.5301367" lon="12.2615067"><ele>62.0</ele><time>2026-05-02T09:34:42.489Z</time></trkpt><trkpt lat="42.5303017" lon="12.26146"><ele>61.66666666666667</ele><time>2026-05-02T09:34:43.489Z</time></trkpt><trkpt lat="42.5304667" lon="12.2614167"><ele>61.33333333333333</ele><time>2026-05-02T09:34:44.49Z</time></trkpt><trkpt lat="42.5306333" lon="12.2613717"><ele>61.0</ele><time>2026-05-02T09:34:45.489Z</time></trkpt><trkpt lat="42.5308017" lon="12.26133"><ele>61.0</ele><time>2026-05-02T09:34:46.489Z</time></trkpt><trkpt lat="42.5309683" lon="12.2612883"><ele>61.0</ele><time>2026-05-02T09:34:47.489Z</time></trkpt><trkpt lat="42.5311383" lon="12.261245"><ele>61.0</ele><time>2026-05-02T09:34:48.489Z</time></trkpt><trkpt lat="42.53131" lon="12.2612017"><ele>61.666666666666664</ele><time>2026-05-02T09:34:49.489Z</time></trkpt><trkpt lat="42.53148" lon="12.2611567"><ele>62.33333333333333</ele><time>2026-05-02T09:34:50.489Z</time></trkpt><trkpt lat="42.5316533" lon="12.2611067"><ele>63.0</ele><time>2026-05-02T09:34:51.489Z</time></trkpt><trkpt lat="42.53183" lon="12.2610583"><ele>63.0</ele><time>2026-05-02T09:34:52.489Z</time></trkpt><trkpt lat="42.532" lon="12.2610117"><ele>63.0</ele><time>2026-05-02T09:34:53.489Z</time></trkpt><trkpt lat="42.5321733" lon="12.2609683"><ele>63.0</ele><time>2026-05-02T09:34:54.489Z</time></trkpt><trkpt lat="42.5323467" lon="12.2609267"><ele>62.66666666666667</ele><time>2026-05-02T09:34:55.489Z</time></trkpt><trkpt lat="42.53252" lon="12.26088"><ele>62.333333333333336</ele><time>2026-05-02T09:34:56.489Z</time></trkpt><trkpt lat="42.5326933" lon="12.2608367"><ele>62.0</ele><time>2026-05-02T09:34:57.489Z</time></trkpt><trkpt lat="42.532865" lon="12.2607917"><ele>62.333333333333336</ele><time>2026-05-02T09:34:58.489Z</time></trkpt><trkpt lat="42.5330383" lon="12.2607467"><ele>62.66666666666667</ele><time>2026-05-02T09:34:59.49Z</time></trkpt><trkpt lat="42.533215" lon="12.2607"><ele>63.0</ele><time>2026-05-02T09:35:00.489Z</time></trkpt><trkpt lat="42.5333867" lon="12.2606517"><ele>63.33333333333333</ele><time>2026-05-02T09:35:01.489Z</time></trkpt><trkpt lat="42.5335633" lon="12.2606033"><ele>63.666666666666664</ele><time>2026-05-02T09:35:02.489Z</time></trkpt><trkpt lat="42.5337367" lon="12.2605583"><ele>64.0</ele><time>2026-05-02T09:35:03.489Z</time></trkpt><trkpt lat="42.5339133" lon="12.260515"><ele>64.0</ele><time>2026-05-02T09:35:04.489Z</time></trkpt><trkpt lat="42.5340867" lon="12.2604683"><ele>64.0</ele><time>2026-05-02T09:35:05.489Z</time></trkpt><trkpt lat="42.5342633" lon="12.260425"><ele>64.0</ele><time>2026-05-02T09:35:06.489Z</time></trkpt><trkpt lat="42.5344367" lon="12.26038"><ele>63.666666666666664</ele><time>2026-05-02T09:35:07.489Z</time></trkpt><trkpt lat="42.5346117" lon="12.2603383"><ele>63.33333333333333</ele><time>2026-05-02T09:35:08.489Z</time></trkpt><trkpt lat="42.5347833" lon="12.26029"><ele>63.0</ele><time>2026-05-02T09:35:09.489Z</time></trkpt><trkpt lat="42.5349583" lon="12.260245"><ele>63.0</ele><time>2026-05-02T09:35:10.489Z</time></trkpt><trkpt lat="42.53513" lon="12.2602017"><ele>63.0</ele><time>2026-05-02T09:35:11.489Z</time></trkpt><trkpt lat="42.535305" lon="12.2601567"><ele>63.0</ele><time>2026-05-02T09:35:12.489Z</time></trkpt><trkpt lat="42.535475" lon="12.2601133"><ele>63.0</ele><time>2026-05-02T09:35:13.489Z</time></trkpt><trkpt lat="42.5356567" lon="12.260065"><ele>63.0</ele><time>2026-05-02T09:35:14.489Z</time></trkpt><trkpt lat="42.5358333" lon="12.26002"><ele>63.0</ele><time>2026-05-02T09:35:15.489Z</time></trkpt><trkpt lat="42.5360117" lon="12.2599733"><ele>63.0</ele><time>2026-05-02T09:35:16.489Z</time></trkpt><trkpt lat="42.5361867" lon="12.2599183"><ele>63.0</ele><time>2026-05-02T09:35:17.489Z</time></trkpt><trkpt lat="42.5363583" lon="12.25986"><ele>63.0</ele><time>2026-05-02T09:35:18.489Z</time></trkpt><trkpt lat="42.53654" lon="12.2598167"><ele>63.33333333333333</ele><time>2026-05-02T09:35:19.489Z</time></trkpt><trkpt lat="42.5367233" lon="12.259775"><ele>63.666666666666664</ele><time>2026-05-02T09:35:20.489Z</time></trkpt><trkpt lat="42.53691" lon="12.25973"><ele>64.0</ele><time>2026-05-02T09:35:21.489Z</time></trkpt><trkpt lat="42.5370933" lon="12.2596833"><ele>64.0</ele><time>2026-05-02T09:35:22.489Z</time></trkpt><trkpt lat="42.5372767" lon="12.2596367"><ele>64.0</ele><time>2026-05-02T09:35:23.489Z</time></trkpt><trkpt lat="42.53745" lon="12.2595883"><ele>64.0</ele><time>2026-05-02T09:35:24.489Z</time></trkpt><trkpt lat="42.5376167" lon="12.2595417"><ele>64.0</ele><time>2026-05-02T09:35:25.489Z</time></trkpt><trkpt lat="42.5377817" lon="12.2594967"><ele>64.0</ele><time>2026-05-02T09:35:26.489Z</time></trkpt><trkpt lat="42.5379467" lon="12.25945"><ele>64.0</ele><time>2026-05-02T09:35:27.49Z</time></trkpt><trkpt lat="42.53811" lon="12.25941"><ele>64.0</ele><time>2026-05-02T09:35:28.489Z</time></trkpt><trkpt lat="42.538265" lon="12.2593717"><ele>64.0</ele><time>2026-05-02T09:35:29.489Z</time></trkpt><trkpt lat="42.5384283" lon="12.2593267"><ele>64.0</ele><time>2026-05-02T09:35:30.489Z</time></trkpt><trkpt lat="42.5385967" lon="12.25929"><ele>64.33333333333333</ele><time>2026-05-02T09:35:31.489Z</time></trkpt><trkpt lat="42.53877" lon="12.2592467"><ele>64.66666666666667</ele><time>2026-05-02T09:35:32.489Z</time></trkpt><trkpt lat="42.53894" lon="12.2591983"><ele>65.0</ele><time>2026-05-02T09:35:33.489Z</time></trkpt><trkpt lat="42.5391083" lon="12.25915"><ele>65.0</ele><time>2026-05-02T09:35:34.489Z</time></trkpt><trkpt lat="42.539275" lon="12.2591117"><ele>65.0</ele><time>2026-05-02T09:35:35.489Z</time></trkpt><trkpt lat="42.5394467" lon="12.2590633"><ele>65.0</ele><time>2026-05-02T09:35:36.489Z</time></trkpt><trkpt lat="42.5396133" lon="12.259015"><ele>65.33333333333334</ele><time>2026-05-02T09:35:37.489Z</time></trkpt><trkpt lat="42.539785" lon="12.2589717"><ele>65.66666666666667</ele><time>2026-05-02T09:35:38.489Z</time></trkpt><trkpt lat="42.539955" lon="12.25893"><ele>66.0</ele><time>2026-05-02T09:35:39.489Z</time></trkpt><trkpt lat="42.54013" lon="12.2588867"><ele>66.33333333333333</ele><time>2026-05-02T09:35:40.489Z</time></trkpt><trkpt lat="42.540305" lon="12.25884"><ele>66.66666666666666</ele><time>2026-05-02T09:35:41.489Z</time></trkpt><trkpt lat="42.5404867" lon="12.258795"><ele>67.0</ele><time>2026-05-02T09:35:42.489Z</time></trkpt><trkpt lat="42.5406717" lon="12.2587467"><ele>68.33333333333333</ele><time>2026-05-02T09:35:43.489Z</time></trkpt><trkpt lat="42.5408583" lon="12.2586967"><ele>69.66666666666667</ele><time>2026-05-02T09:35:44.489Z</time></trkpt><trkpt lat="42.5410517" lon="12.2586433"><ele>71.0</ele><time>2026-05-02T09:35:45.489Z</time></trkpt><trkpt lat="42.5412417" lon="12.2585967"><ele>71.66666666666667</ele><time>2026-05-02T09:35:46.489Z</time></trkpt><trkpt lat="42.5414333" lon="12.2585517"><ele>72.33333333333333</ele><time>2026-05-02T09:35:47.489Z</time></trkpt><trkpt lat="42.5416233" lon="12.2585"><ele>73.0</ele><time>2026-05-02T09:35:48.489Z</time></trkpt><trkpt lat="42.5418133" lon="12.2584533"><ele>73.0</ele><time>2026-05-02T09:35:49.49Z</time></trkpt><trkpt lat="42.5420017" lon="12.2584017"><ele>73.0</ele><time>2026-05-02T09:35:50.489Z</time></trkpt><trkpt lat="42.5421867" lon="12.258355"><ele>73.0</ele><time>2026-05-02T09:35:51.489Z</time></trkpt><trkpt lat="42.5423733" lon="12.2583033"><ele>73.33333333333333</ele><time>2026-05-02T09:35:52.489Z</time></trkpt><trkpt lat="42.5425567" lon="12.25826"><ele>73.66666666666667</ele><time>2026-05-02T09:35:53.489Z</time></trkpt><trkpt lat="42.5427467" lon="12.25821"><ele>74.0</ele><time>2026-05-02T09:35:54.489Z</time></trkpt><trkpt lat="42.5429333" lon="12.258155"><ele>73.33333333333334</ele><time>2026-05-02T09:35:55.489Z</time></trkpt><trkpt lat="42.543125" lon="12.258105"><ele>72.66666666666667</ele><time>2026-05-02T09:35:56.489Z</time></trkpt><trkpt lat="42.5433117" lon="12.2580517"><ele>72.0</ele><time>2026-05-02T09:35:57.489Z</time></trkpt><trkpt lat="42.5434983" lon="12.258"><ele>72.0</ele><time>2026-05-02T09:35:58.489Z</time></trkpt><trkpt lat="42.5436883" lon="12.2579517"><ele>72.0</ele><time>2026-05-02T09:35:59.489Z</time></trkpt><trkpt lat="42.54388" lon="12.2579017"><ele>72.0</ele><time>2026-05-02T09:36:00.489Z</time></trkpt><trkpt lat="42.5440733" lon="12.2578533"><ele>72.66666666666667</ele><time>2026-05-02T09:36:01.489Z</time></trkpt><trkpt lat="42.5442633" lon="12.2578"><ele>73.33333333333334</ele><time>2026-05-02T09:36:02.489Z</time></trkpt><trkpt lat="42.54445" lon="12.2577533"><ele>74.0</ele><time>2026-05-02T09:36:03.489Z</time></trkpt><trkpt lat="42.5446317" lon="12.2577017"><ele>74.0</ele><time>2026-05-02T09:36:04.489Z</time></trkpt><trkpt lat="42.5448183" lon="12.25765"><ele>74.0</ele><time>2026-05-02T09:36:05.489Z</time></trkpt><trkpt lat="42.54501" lon="12.2576083"><ele>74.0</ele><time>2026-05-02T09:36:06.489Z</time></trkpt><trkpt lat="42.5452" lon="12.2575583"><ele>74.0</ele><time>2026-05-02T09:36:07.489Z</time></trkpt><trkpt lat="42.5453867" lon="12.2575117"><ele>74.0</ele><time>2026-05-02T09:36:08.49Z</time></trkpt><trkpt lat="42.5455783" lon="12.2574633"><ele>74.0</ele><time>2026-05-02T09:36:09.489Z</time></trkpt><trkpt lat="42.5457667" lon="12.2574133"><ele>74.0</ele><time>2026-05-02T09:36:10.489Z</time></trkpt><trkpt lat="42.54595" lon="12.25736"><ele>74.0</ele><time>2026-05-02T09:36:11.489Z</time></trkpt><trkpt lat="42.5461283" lon="12.2573083"><ele>74.0</ele><time>2026-05-02T09:36:12.489Z</time></trkpt><trkpt lat="42.5463333" lon="12.2572733"><ele>72.0</ele><time>2026-05-02T09:36:13.489Z</time></trkpt><trkpt lat="42.5465217" lon="12.2572167"><ele>70.0</ele><time>2026-05-02T09:36:14.489Z</time></trkpt><trkpt lat="42.5467117" lon="12.2571717"><ele>68.0</ele><time>2026-05-02T09:36:15.49Z</time></trkpt><trkpt lat="42.546905" lon="12.257125"><ele>67.33333333333334</ele><time>2026-05-02T09:36:16.489Z</time></trkpt><trkpt lat="42.5471033" lon="12.2570783"><ele>66.66666666666667</ele><time>2026-05-02T09:36:17.489Z</time></trkpt><trkpt lat="42.5473" lon="12.2570233"><ele>66.0</ele><time>2026-05-02T09:36:18.489Z</time></trkpt><trkpt lat="42.547495" lon="12.2569683"><ele>66.0</ele><time>2026-05-02T09:36:19.489Z</time></trkpt><trkpt lat="42.547695" lon="12.2569117"><ele>66.0</ele><time>2026-05-02T09:36:20.489Z</time></trkpt><trkpt lat="42.5478967" lon="12.25686"><ele>66.0</ele><time>2026-05-02T09:36:21.489Z</time></trkpt><trkpt lat="42.5481" lon="12.2568083"><ele>67.33333333333333</ele><time>2026-05-02T09:36:22.489Z</time></trkpt><trkpt lat="42.5482983" lon="12.2567483"><ele>68.66666666666666</ele><time>2026-05-02T09:36:23.489Z</time></trkpt><trkpt lat="42.5485" lon="12.2566967"><ele>70.0</ele><time>2026-05-02T09:36:24.489Z</time></trkpt><trkpt lat="42.5487" lon="12.256645"><ele>69.33333333333333</ele><time>2026-05-02T09:36:25.489Z</time></trkpt><trkpt lat="42.5489017" lon="12.25659"><ele>68.66666666666667</ele><time>2026-05-02T09:36:26.489Z</time></trkpt><trkpt lat="42.5491" lon="12.2565367"><ele>68.0</ele><time>2026-05-02T09:36:27.489Z</time></trkpt><trkpt lat="42.5493033" lon="12.256485"><ele>67.66666666666667</ele><time>2026-05-02T09:36:28.489Z</time></trkpt><trkpt lat="42.5495033" lon="12.2564383"><ele>67.33333333333333</ele><time>2026-05-02T09:36:29.489Z</time></trkpt><trkpt lat="42.5497067" lon="12.256385"><ele>67.0</ele><time>2026-05-02T09:36:30.489Z</time></trkpt><trkpt lat="42.5499083" lon="12.2563267"><ele>67.0</ele><time>2026-05-02T09:36:31.489Z</time></trkpt><trkpt lat="42.5501067" lon="12.2562667"><ele>67.0</ele><time>2026-05-02T09:36:32.489Z</time></trkpt><trkpt lat="42.5503083" lon="12.25621"><ele>67.0</ele><time>2026-05-02T09:36:33.49Z</time></trkpt><trkpt lat="42.55051" lon="12.256155"><ele>67.0</ele><time>2026-05-02T09:36:34.489Z</time></trkpt><trkpt lat="42.5507033" lon="12.2560967"><ele>67.0</ele><time>2026-05-02T09:36:35.489Z</time></trkpt><trkpt lat="42.5509033" lon="12.2560333"><ele>67.0</ele><time>2026-05-02T09:36:36.489Z</time></trkpt><trkpt lat="42.5511017" lon="12.25597"><ele>67.33333333333333</ele><time>2026-05-02T09:36:37.489Z</time></trkpt><trkpt lat="42.5513033" lon="12.255905"><ele>67.66666666666667</ele><time>2026-05-02T09:36:38.489Z</time></trkpt><trkpt lat="42.5515" lon="12.2558433"><ele>68.0</ele><time>2026-05-02T09:36:39.489Z</time></trkpt><trkpt lat="42.551695" lon="12.2557817"><ele>68.0</ele><time>2026-05-02T09:36:40.49Z</time></trkpt><trkpt lat="42.5518883" lon="12.2557167"><ele>68.0</ele><time>2026-05-02T09:36:41.489Z</time></trkpt><trkpt lat="42.5520817" lon="12.255645"><ele>68.0</ele><time>2026-05-02T09:36:42.489Z</time></trkpt><trkpt lat="42.552275" lon="12.25558"><ele>67.66666666666667</ele><time>2026-05-02T09:36:43.49Z</time></trkpt><trkpt lat="42.55247" lon="12.2555083"><ele>67.33333333333333</ele><time>2026-05-02T09:36:44.489Z</time></trkpt><trkpt lat="42.5526583" lon="12.2554333"><ele>67.0</ele><time>2026-05-02T09:36:45.489Z</time></trkpt><trkpt lat="42.5528383" lon="12.25536"><ele>67.0</ele><time>2026-05-02T09:36:46.489Z</time></trkpt><trkpt lat="42.55302" lon="12.2552817"><ele>67.0</ele><time>2026-05-02T09:36:47.489Z</time></trkpt><trkpt lat="42.5532017" lon="12.255205"><ele>67.0</ele><time>2026-05-02T09:36:48.49Z</time></trkpt><trkpt lat="42.5533817" lon="12.2551317"><ele>67.0</ele><time>2026-05-02T09:36:49.489Z</time></trkpt><trkpt lat="42.5535667" lon="12.2550533"><ele>67.0</ele><time>2026-05-02T09:36:50.489Z</time></trkpt><trkpt lat="42.5537467" lon="12.25497"><ele>67.0</ele><time>2026-05-02T09:36:51.49Z</time></trkpt><trkpt lat="42.5539333" lon="12.2548867"><ele>66.66666666666666</ele><time>2026-05-02T09:36:52.489Z</time></trkpt><trkpt lat="42.5541217" lon="12.25481"><ele>66.33333333333333</ele><time>2026-05-02T09:36:53.489Z</time></trkpt><trkpt lat="42.5543067" lon="12.2547283"><ele>66.0</ele><time>2026-05-02T09:36:54.489Z</time></trkpt><trkpt lat="42.554485" lon="12.2546433"><ele>67.0</ele><time>2026-05-02T09:36:55.489Z</time></trkpt><trkpt lat="42.554665" lon="12.2545583"><ele>68.0</ele><time>2026-05-02T09:36:56.489Z</time></trkpt><trkpt lat="42.5548433" lon="12.254475"><ele>69.0</ele><time>2026-05-02T09:36:57.489Z</time></trkpt><trkpt lat="42.5550267" lon="12.254395"><ele>69.0</ele><time>2026-05-02T09:36:58.49Z</time></trkpt><trkpt lat="42.5552067" lon="12.2543117"><ele>69.0</ele><time>2026-05-02T09:36:59.489Z</time></trkpt><trkpt lat="42.5553917" lon="12.2542283"><ele>69.0</ele><time>2026-05-02T09:37:00.49Z</time></trkpt><trkpt lat="42.5555733" lon="12.2541433"><ele>69.0</ele><time>2026-05-02T09:37:01.489Z</time></trkpt><trkpt lat="42.5557583" lon="12.2540683"><ele>69.0</ele><time>2026-05-02T09:37:02.489Z</time></trkpt><trkpt lat="42.555945" lon="12.2539833"><ele>69.0</ele><time>2026-05-02T09:37:03.489Z</time></trkpt><trkpt lat="42.556135" lon="12.2538933"><ele>68.66666666666667</ele><time>2026-05-02T09:37:04.489Z</time></trkpt><trkpt lat="42.556325" lon="12.2538067"><ele>68.33333333333334</ele><time>2026-05-02T09:37:05.489Z</time></trkpt><trkpt lat="42.5565133" lon="12.2537117"><ele>68.0</ele><time>2026-05-02T09:37:06.489Z</time></trkpt><trkpt lat="42.5566983" lon="12.2536217"><ele>68.0</ele><time>2026-05-02T09:37:07.49Z</time></trkpt><trkpt lat="42.5568867" lon="12.253525"><ele>68.0</ele><time>2026-05-02T09:37:08.489Z</time></trkpt><trkpt lat="42.5570783" lon="12.2534417"><ele>68.0</ele><time>2026-05-02T09:37:09.489Z</time></trkpt><trkpt lat="42.5572683" lon="12.25336"><ele>68.0</ele><time>2026-05-02T09:37:10.489Z</time></trkpt><trkpt lat="42.5574583" lon="12.2532683"><ele>68.0</ele><time>2026-05-02T09:37:11.489Z</time></trkpt><trkpt lat="42.5576433" lon="12.2531767"><ele>68.0</ele><time>2026-05-02T09:37:12.489Z</time></trkpt><trkpt lat="42.5578317" lon="12.25309"><ele>67.33333333333334</ele><time>2026-05-02T09:37:13.489Z</time></trkpt><trkpt lat="42.558015" lon="12.2530033"><ele>66.66666666666667</ele><time>2026-05-02T09:37:14.489Z</time></trkpt><trkpt lat="42.5581983" lon="12.2529183"><ele>66.0</ele><time>2026-05-02T09:37:15.49Z</time></trkpt><trkpt lat="42.5583767" lon="12.2528333"><ele>66.0</ele><time>2026-05-02T09:37:16.489Z</time></trkpt><trkpt lat="42.5585533" lon="12.252755"><ele>66.0</ele><time>2026-05-02T09:37:17.489Z</time></trkpt><trkpt lat="42.5587283" lon="12.252675"><ele>66.0</ele><time>2026-05-02T09:37:18.489Z</time></trkpt><trkpt lat="42.5589033" lon="12.2525983"><ele>66.66666666666667</ele><time>2026-05-02T09:37:19.489Z</time></trkpt><trkpt lat="42.5590733" lon="12.25252"><ele>67.33333333333334</ele><time>2026-05-02T09:37:20.489Z</time></trkpt><trkpt lat="42.5592533" lon="12.2524433"><ele>68.0</ele><time>2026-05-02T09:37:21.489Z</time></trkpt><trkpt lat="42.559425" lon="12.2523633"><ele>68.33333333333334</ele><time>2026-05-02T09:37:22.489Z</time></trkpt><trkpt lat="42.5596017" lon="12.2522767"><ele>68.66666666666667</ele><time>2026-05-02T09:37:23.49Z</time></trkpt><trkpt lat="42.5597767" lon="12.25219"><ele>69.0</ele><time>2026-05-02T09:37:24.49Z</time></trkpt><trkpt lat="42.5599483" lon="12.2521017"><ele>69.0</ele><time>2026-05-02T09:37:25.489Z</time></trkpt><trkpt lat="42.5601267" lon="12.2520217"><ele>69.0</ele><time>2026-05-02T09:37:26.489Z</time></trkpt><trkpt lat="42.5603067" lon="12.251935"><ele>69.0</ele><time>2026-05-02T09:37:27.489Z</time></trkpt><trkpt lat="42.5604967" lon="12.251855"><ele>69.33333333333333</ele><time>2026-05-02T09:37:28.489Z</time></trkpt><trkpt lat="42.5606883" lon="12.2517767"><ele>69.66666666666666</ele><time>2026-05-02T09:37:29.489Z</time></trkpt><trkpt lat="42.5608783" lon="12.2516883"><ele>70.0</ele><time>2026-05-02T09:37:30.489Z</time></trkpt><trkpt lat="42.5610633" lon="12.251595"><ele>69.66666666666666</ele><time>2026-05-02T09:37:31.489Z</time></trkpt><trkpt lat="42.5612533" lon="12.2515"><ele>69.33333333333333</ele><time>2026-05-02T09:37:32.489Z</time></trkpt><trkpt lat="42.56145" lon="12.2514083"><ele>69.0</ele><time>2026-05-02T09:37:33.489Z</time></trkpt><trkpt lat="42.5616483" lon="12.2513183"><ele>69.0</ele><time>2026-05-02T09:37:34.489Z</time></trkpt><trkpt lat="42.561845" lon="12.2512283"><ele>69.0</ele><time>2026-05-02T09:37:35.489Z</time></trkpt><trkpt lat="42.5620383" lon="12.2511383"><ele>69.0</ele><time>2026-05-02T09:37:36.489Z</time></trkpt><trkpt lat="42.562225" lon="12.2510567"><ele>69.0</ele><time>2026-05-02T09:37:37.489Z</time></trkpt><trkpt lat="42.5624083" lon="12.25097"><ele>69.0</ele><time>2026-05-02T09:37:38.489Z</time></trkpt><trkpt lat="42.5625917" lon="12.2508833"><ele>69.0</ele><time>2026-05-02T09:37:39.489Z</time></trkpt><trkpt lat="42.5627733" lon="12.2507917"><ele>69.66666666666667</ele><time>2026-05-02T09:37:40.489Z</time></trkpt><trkpt lat="42.562955" lon="12.2507117"><ele>70.33333333333334</ele><time>2026-05-02T09:37:41.489Z</time></trkpt><trkpt lat="42.5631367" lon="12.2506283"><ele>71.0</ele><time>2026-05-02T09:37:42.489Z</time></trkpt><trkpt lat="42.5633167" lon="12.2505433"><ele>71.0</ele><time>2026-05-02T09:37:43.489Z</time></trkpt><trkpt lat="42.5634983" lon="12.2504567"><ele>71.0</ele><time>2026-05-02T09:37:44.489Z</time></trkpt><trkpt lat="42.563675" lon="12.2503717"><ele>71.0</ele><time>2026-05-02T09:37:45.489Z</time></trkpt><trkpt lat="42.56386" lon="12.25029"><ele>70.66666666666667</ele><time>2026-05-02T09:37:46.489Z</time></trkpt><trkpt lat="42.5640433" lon="12.2502033"><ele>70.33333333333333</ele><time>2026-05-02T09:37:47.489Z</time></trkpt><trkpt lat="42.564225" lon="12.2501167"><ele>70.0</ele><time>2026-05-02T09:37:48.489Z</time></trkpt><trkpt lat="42.5644117" lon="12.250035"><ele>69.66666666666666</ele><time>2026-05-02T09:37:49.489Z</time></trkpt><trkpt lat="42.564595" lon="12.2499483"><ele>69.33333333333333</ele><time>2026-05-02T09:37:50.489Z</time></trkpt><trkpt lat="42.5647783" lon="12.2498633"><ele>69.0</ele><time>2026-05-02T09:37:51.489Z</time></trkpt><trkpt lat="42.56496" lon="12.24978"><ele>69.0</ele><time>2026-05-02T09:37:52.489Z</time></trkpt><trkpt lat="42.5651433" lon="12.2497033"><ele>69.0</ele><time>2026-05-02T09:37:53.489Z</time></trkpt><trkpt lat="42.5653217" lon="12.2496217"><ele>69.0</ele><time>2026-05-02T09:37:54.489Z</time></trkpt><trkpt lat="42.5654983" lon="12.2495367"><ele>69.66666666666667</ele><time>2026-05-02T09:37:55.489Z</time></trkpt><trkpt lat="42.5656767" lon="12.249455"><ele>70.33333333333334</ele><time>2026-05-02T09:37:56.489Z</time></trkpt><trkpt lat="42.565855" lon="12.24937"><ele>71.0</ele><time>2026-05-02T09:37:57.489Z</time></trkpt><trkpt lat="42.5660267" lon="12.2492883"><ele>70.66666666666667</ele><time>2026-05-02T09:37:58.489Z</time></trkpt><trkpt lat="42.5662" lon="12.249205"><ele>70.33333333333333</ele><time>2026-05-02T09:37:59.489Z</time></trkpt><trkpt lat="42.566375" lon="12.2491217"><ele>70.0</ele><time>2026-05-02T09:38:00.489Z</time></trkpt><trkpt lat="42.5665483" lon="12.2490417"><ele>70.0</ele><time>2026-05-02T09:38:01.489Z</time></trkpt><trkpt lat="42.5667233" lon="12.24896"><ele>70.0</ele><time>2026-05-02T09:38:02.489Z</time></trkpt><trkpt lat="42.5669017" lon="12.2488833"><ele>70.0</ele><time>2026-05-02T09:38:03.489Z</time></trkpt><trkpt lat="42.56708" lon="12.2488017"><ele>70.66666666666666</ele><time>2026-05-02T09:38:04.49Z</time></trkpt><trkpt lat="42.5672617" lon="12.2487167"><ele>71.33333333333333</ele><time>2026-05-02T09:38:05.489Z</time></trkpt><trkpt lat="42.56744" lon="12.248635"><ele>72.0</ele><time>2026-05-02T09:38:06.489Z</time></trkpt><trkpt lat="42.56762" lon="12.2485467"><ele>72.0</ele><time>2026-05-02T09:38:07.49Z</time></trkpt><trkpt lat="42.5678" lon="12.248455"><ele>72.0</ele><time>2026-05-02T09:38:08.489Z</time></trkpt><trkpt lat="42.5679883" lon="12.2483717"><ele>72.0</ele><time>2026-05-02T09:38:09.489Z</time></trkpt><trkpt lat="42.5681783" lon="12.2482867"><ele>71.66666666666667</ele><time>2026-05-02T09:38:10.489Z</time></trkpt><trkpt lat="42.56837" lon="12.2481967"><ele>71.33333333333334</ele><time>2026-05-02T09:38:11.489Z</time></trkpt><trkpt lat="42.5685617" lon="12.2481083"><ele>71.0</ele><time>2026-05-02T09:38:12.489Z</time></trkpt><trkpt lat="42.5687567" lon="12.2480183"><ele>71.0</ele><time>2026-05-02T09:38:13.489Z</time></trkpt><trkpt lat="42.56895" lon="12.2479333"><ele>71.0</ele><time>2026-05-02T09:38:14.489Z</time></trkpt><trkpt lat="42.56914" lon="12.247845"><ele>71.0</ele><time>2026-05-02T09:38:15.489Z</time></trkpt><trkpt lat="42.56932" lon="12.24777"><ele>71.0</ele><time>2026-05-02T09:38:16.489Z</time></trkpt><trkpt lat="42.5694967" lon="12.2476917"><ele>71.0</ele><time>2026-05-02T09:38:17.489Z</time></trkpt><trkpt lat="42.569675" lon="12.2476117"><ele>71.0</ele><time>2026-05-02T09:38:18.489Z</time></trkpt><trkpt lat="42.56985" lon="12.2475367"><ele>70.66666666666667</ele><time>2026-05-02T09:38:19.49Z</time></trkpt><trkpt lat="42.5700183" lon="12.24746"><ele>70.33333333333333</ele><time>2026-05-02T09:38:20.489Z</time></trkpt><trkpt lat="42.570195" lon="12.24738"><ele>70.0</ele><time>2026-05-02T09:38:21.489Z</time></trkpt><trkpt lat="42.5703717" lon="12.2473017"><ele>70.0</ele><time>2026-05-02T09:38:22.489Z</time></trkpt><trkpt lat="42.570545" lon="12.247215"><ele>70.0</ele><time>2026-05-02T09:38:23.489Z</time></trkpt><trkpt lat="42.570725" lon="12.2471283"><ele>70.0</ele><time>2026-05-02T09:38:24.489Z</time></trkpt><trkpt lat="42.5709067" lon="12.2470433"><ele>70.0</ele><time>2026-05-02T09:38:25.489Z</time></trkpt><trkpt lat="42.5710867" lon="12.24696"><ele>70.0</ele><time>2026-05-02T09:38:26.489Z</time></trkpt><trkpt lat="42.5712733" lon="12.2468717"><ele>70.0</ele><time>2026-05-02T09:38:27.489Z</time></trkpt><trkpt lat="42.5714567" lon="12.2467867"><ele>70.0</ele><time>2026-05-02T09:38:28.489Z</time></trkpt><trkpt lat="42.5716417" lon="12.2467033"><ele>70.0</ele><time>2026-05-02T09:38:29.489Z</time></trkpt><trkpt lat="42.57182" lon="12.2466117"><ele>70.0</ele><time>2026-05-02T09:38:30.489Z</time></trkpt><trkpt lat="42.5719983" lon="12.2465217"><ele>69.0</ele><time>2026-05-02T09:38:31.489Z</time></trkpt><trkpt lat="42.5721733" lon="12.24644"><ele>68.0</ele><time>2026-05-02T09:38:32.489Z</time></trkpt><trkpt lat="42.5723533" lon="12.2463617"><ele>67.0</ele><time>2026-05-02T09:38:33.489Z</time></trkpt><trkpt lat="42.57253" lon="12.24628"><ele>67.0</ele><time>2026-05-02T09:38:34.489Z</time></trkpt><trkpt lat="42.57271" lon="12.2462"><ele>67.0</ele><time>2026-05-02T09:38:35.489Z</time></trkpt><trkpt lat="42.5728867" lon="12.2461233"><ele>67.0</ele><time>2026-05-02T09:38:36.489Z</time></trkpt><trkpt lat="42.5730617" lon="12.2460467"><ele>68.0</ele><time>2026-05-02T09:38:37.489Z</time></trkpt><trkpt lat="42.5732367" lon="12.24597"><ele>69.0</ele><time>2026-05-02T09:38:38.489Z</time></trkpt><trkpt lat="42.5734083" lon="12.2458867"><ele>70.0</ele><time>2026-05-02T09:38:39.489Z</time></trkpt><trkpt lat="42.57358" lon="12.245805"><ele>69.66666666666666</ele><time>2026-05-02T09:38:40.489Z</time></trkpt><trkpt lat="42.5737567" lon="12.2457267"><ele>69.33333333333333</ele><time>2026-05-02T09:38:41.489Z</time></trkpt><trkpt lat="42.5739233" lon="12.2456383"><ele>69.0</ele><time>2026-05-02T09:38:42.489Z</time></trkpt><trkpt lat="42.5740867" lon="12.245555"><ele>69.0</ele><time>2026-05-02T09:38:43.489Z</time></trkpt><trkpt lat="42.5742567" lon="12.245475"><ele>69.0</ele><time>2026-05-02T09:38:44.489Z</time></trkpt><trkpt lat="42.5744233" lon="12.2454"><ele>69.0</ele><time>2026-05-02T09:38:45.489Z</time></trkpt><trkpt lat="42.5745933" lon="12.245325"><ele>69.66666666666667</ele><time>2026-05-02T09:38:46.489Z</time></trkpt><trkpt lat="42.5747617" lon="12.2452483"><ele>70.33333333333334</ele><time>2026-05-02T09:38:47.489Z</time></trkpt><trkpt lat="42.5749267" lon="12.2451783"><ele>71.0</ele><time>2026-05-02T09:38:48.489Z</time></trkpt><trkpt lat="42.5750917" lon="12.2451083"><ele>71.0</ele><time>2026-05-02T09:38:49.489Z</time></trkpt><trkpt lat="42.5752583" lon="12.24503"><ele>71.0</ele><time>2026-05-02T09:38:50.489Z</time></trkpt><trkpt lat="42.57542" lon="12.24495"><ele>71.0</ele><time>2026-05-02T09:38:51.489Z</time></trkpt><trkpt lat="42.5755883" lon="12.24487"><ele>70.66666666666667</ele><time>2026-05-02T09:38:52.489Z</time></trkpt><trkpt lat="42.57576" lon="12.2447917"><ele>70.33333333333333</ele><time>2026-05-02T09:38:53.489Z</time></trkpt><trkpt lat="42.5759283" lon="12.2447167"><ele>70.0</ele><time>2026-05-02T09:38:54.489Z</time></trkpt><trkpt lat="42.5761017" lon="12.244635"><ele>70.66666666666666</ele><time>2026-05-02T09:38:55.489Z</time></trkpt><trkpt lat="42.5762767" lon="12.2445567"><ele>71.33333333333333</ele><time>2026-05-02T09:38:56.489Z</time></trkpt><trkpt lat="42.5764567" lon="12.2444783"><ele>72.0</ele><time>2026-05-02T09:38:57.489Z</time></trkpt><trkpt lat="42.5766367" lon="12.244395"><ele>72.0</ele><time>2026-05-02T09:38:58.489Z</time></trkpt><trkpt lat="42.5768233" lon="12.244305"><ele>72.0</ele><time>2026-05-02T09:38:59.49Z</time></trkpt><trkpt lat="42.577005" lon="12.2442217"><ele>72.0</ele><time>2026-05-02T09:39:00.49Z</time></trkpt><trkpt lat="42.5771883" lon="12.2441383"><ele>72.0</ele><time>2026-05-02T09:39:01.489Z</time></trkpt><trkpt lat="42.5773667" lon="12.24405"><ele>72.0</ele><time>2026-05-02T09:39:02.489Z</time></trkpt><trkpt lat="42.5775483" lon="12.2439717"><ele>72.0</ele><time>2026-05-02T09:39:03.489Z</time></trkpt><trkpt lat="42.5777283" lon="12.243895"><ele>72.66666666666667</ele><time>2026-05-02T09:39:04.489Z</time></trkpt><trkpt lat="42.5779083" lon="12.243805"><ele>73.33333333333334</ele><time>2026-05-02T09:39:05.489Z</time></trkpt><trkpt lat="42.57808" lon="12.2437133"><ele>74.0</ele><time>2026-05-02T09:39:06.489Z</time></trkpt><trkpt lat="42.57826" lon="12.2436333"><ele>74.0</ele><time>2026-05-02T09:39:07.489Z</time></trkpt><trkpt lat="42.5784417" lon="12.24355"><ele>74.0</ele><time>2026-05-02T09:39:08.489Z</time></trkpt><trkpt lat="42.578625" lon="12.2434683"><ele>74.0</ele><time>2026-05-02T09:39:09.489Z</time></trkpt><trkpt lat="42.578805" lon="12.2433817"><ele>73.33333333333334</ele><time>2026-05-02T09:39:10.489Z</time></trkpt><trkpt lat="42.5789833" lon="12.2432983"><ele>72.66666666666667</ele><time>2026-05-02T09:39:11.489Z</time></trkpt><trkpt lat="42.5791583" lon="12.243215"><ele>72.0</ele><time>2026-05-02T09:39:12.489Z</time></trkpt><trkpt lat="42.57933" lon="12.24314"><ele>72.0</ele><time>2026-05-02T09:39:13.489Z</time></trkpt><trkpt lat="42.5794967" lon="12.24306"><ele>72.0</ele><time>2026-05-02T09:39:14.49Z</time></trkpt><trkpt lat="42.57966" lon="12.24299"><ele>72.0</ele><time>2026-05-02T09:39:15.489Z</time></trkpt><trkpt lat="42.5798217" lon="12.2429183"><ele>72.0</ele><time>2026-05-02T09:39:16.489Z</time></trkpt><trkpt lat="42.579985" lon="12.242845"><ele>72.0</ele><time>2026-05-02T09:39:17.489Z</time></trkpt><trkpt lat="42.5801467" lon="12.2427733"><ele>72.0</ele><time>2026-05-02T09:39:18.489Z</time></trkpt><trkpt lat="42.580305" lon="12.2427"><ele>72.0</ele><time>2026-05-02T09:39:19.489Z</time></trkpt><trkpt lat="42.5804683" lon="12.2426233"><ele>72.0</ele><time>2026-05-02T09:39:20.489Z</time></trkpt><trkpt lat="42.580635" lon="12.2425517"><ele>72.0</ele><time>2026-05-02T09:39:21.489Z</time></trkpt><trkpt lat="42.580795" lon="12.242475"><ele>72.0</ele><time>2026-05-02T09:39:22.489Z</time></trkpt><trkpt lat="42.580955" lon="12.2423983"><ele>72.0</ele><time>2026-05-02T09:39:23.49Z</time></trkpt><trkpt lat="42.5811233" lon="12.24232"><ele>72.0</ele><time>2026-05-02T09:39:24.489Z</time></trkpt><trkpt lat="42.58129" lon="12.242235"><ele>72.33333333333333</ele><time>2026-05-02T09:39:25.489Z</time></trkpt><trkpt lat="42.5814583" lon="12.2421567"><ele>72.66666666666666</ele><time>2026-05-02T09:39:26.489Z</time></trkpt><trkpt lat="42.58163" lon="12.2420767"><ele>73.0</ele><time>2026-05-02T09:39:27.489Z</time></trkpt><trkpt lat="42.581805" lon="12.2419983"><ele>73.0</ele><time>2026-05-02T09:39:28.489Z</time></trkpt><trkpt lat="42.5819783" lon="12.2419183"><ele>73.0</ele><time>2026-05-02T09:39:29.489Z</time></trkpt><trkpt lat="42.5821533" lon="12.2418367"><ele>73.0</ele><time>2026-05-02T09:39:30.49Z</time></trkpt><trkpt lat="42.5823317" lon="12.2417533"><ele>73.66666666666666</ele><time>2026-05-02T09:39:31.489Z</time></trkpt><trkpt lat="42.5825067" lon="12.2416683"><ele>74.33333333333333</ele><time>2026-05-02T09:39:32.489Z</time></trkpt><trkpt lat="42.5826833" lon="12.241585"><ele>75.0</ele><time>2026-05-02T09:39:33.489Z</time></trkpt><trkpt lat="42.5828667" lon="12.2414967"><ele>75.0</ele><time>2026-05-02T09:39:34.489Z</time></trkpt><trkpt lat="42.583045" lon="12.2414167"><ele>75.0</ele><time>2026-05-02T09:39:35.489Z</time></trkpt><trkpt lat="42.5832267" lon="12.24134"><ele>75.0</ele><time>2026-05-02T09:39:36.489Z</time></trkpt><trkpt lat="42.5834083" lon="12.2412517"><ele>75.0</ele><time>2026-05-02T09:39:37.489Z</time></trkpt><trkpt lat="42.5835883" lon="12.241165"><ele>75.0</ele><time>2026-05-02T09:39:38.489Z</time></trkpt><trkpt lat="42.5837683" lon="12.2410817"><ele>75.0</ele><time>2026-05-02T09:39:39.489Z</time></trkpt><trkpt lat="42.5839483" lon="12.2410033"><ele>74.66666666666667</ele><time>2026-05-02T09:39:40.489Z</time></trkpt><trkpt lat="42.5841267" lon="12.2409183"><ele>74.33333333333334</ele><time>2026-05-02T09:39:41.489Z</time></trkpt><trkpt lat="42.5843" lon="12.2408367"><ele>74.0</ele><time>2026-05-02T09:39:42.489Z</time></trkpt><trkpt lat="42.58448" lon="12.2407467"><ele>74.33333333333334</ele><time>2026-05-02T09:39:43.489Z</time></trkpt><trkpt lat="42.5846617" lon="12.24066"><ele>74.66666666666667</ele><time>2026-05-02T09:39:44.489Z</time></trkpt><trkpt lat="42.584845" lon="12.2405817"><ele>75.0</ele><time>2026-05-02T09:39:45.49Z</time></trkpt><trkpt lat="42.5850267" lon="12.2405"><ele>75.0</ele><time>2026-05-02T09:39:46.489Z</time></trkpt><trkpt lat="42.585205" lon="12.2404133"><ele>75.0</ele><time>2026-05-02T09:39:47.489Z</time></trkpt><trkpt lat="42.5853883" lon="12.240335"><ele>75.0</ele><time>2026-05-02T09:39:48.489Z</time></trkpt><trkpt lat="42.58557" lon="12.2402517"><ele>75.0</ele><time>2026-05-02T09:39:49.49Z</time></trkpt><trkpt lat="42.58575" lon="12.2401667"><ele>75.0</ele><time>2026-05-02T09:39:50.489Z</time></trkpt><trkpt lat="42.5859317" lon="12.2400867"><ele>75.0</ele><time>2026-05-02T09:39:51.489Z</time></trkpt><trkpt lat="42.5861117" lon="12.2400017"><ele>75.0</ele><time>2026-05-02T09:39:52.489Z</time></trkpt><trkpt lat="42.5862933" lon="12.2399183"><ele>75.0</ele><time>2026-05-02T09:39:53.489Z</time></trkpt><trkpt lat="42.58648" lon="12.2398367"><ele>75.0</ele><time>2026-05-02T09:39:54.489Z</time></trkpt><trkpt lat="42.5866683" lon="12.2397517"><ele>75.33333333333333</ele><time>2026-05-02T09:39:55.489Z</time></trkpt><trkpt lat="42.5868517" lon="12.2396633"><ele>75.66666666666666</ele><time>2026-05-02T09:39:56.489Z</time></trkpt><trkpt lat="42.5870383" lon="12.2395833"><ele>76.0</ele><time>2026-05-02T09:39:57.489Z</time></trkpt><trkpt lat="42.587225" lon="12.239495"><ele>76.33333333333333</ele><time>2026-05-02T09:39:58.489Z</time></trkpt><trkpt lat="42.5874067" lon="12.2394067"><ele>76.66666666666667</ele><time>2026-05-02T09:39:59.489Z</time></trkpt><trkpt lat="42.5875867" lon="12.2393233"><ele>77.0</ele><time>2026-05-02T09:40:00.489Z</time></trkpt><trkpt lat="42.587765" lon="12.23923"><ele>77.0</ele><time>2026-05-02T09:40:01.489Z</time></trkpt><trkpt lat="42.587945" lon="12.2391517"><ele>77.0</ele><time>2026-05-02T09:40:02.489Z</time></trkpt><trkpt lat="42.588125" lon="12.2390733"><ele>77.0</ele><time>2026-05-02T09:40:03.489Z</time></trkpt><trkpt lat="42.5883067" lon="12.2389867"><ele>77.66666666666667</ele><time>2026-05-02T09:40:04.489Z</time></trkpt><trkpt lat="42.5884883" lon="12.2389017"><ele>78.33333333333333</ele><time>2026-05-02T09:40:05.489Z</time></trkpt><trkpt lat="42.5886717" lon="12.2388217"><ele>79.0</ele><time>2026-05-02T09:40:06.489Z</time></trkpt><trkpt lat="42.5888533" lon="12.2387367"><ele>79.0</ele><time>2026-05-02T09:40:07.489Z</time></trkpt><trkpt lat="42.5890367" lon="12.2386567"><ele>79.0</ele><time>2026-05-02T09:40:08.49Z</time></trkpt><trkpt lat="42.58922" lon="12.2385733"><ele>79.0</ele><time>2026-05-02T09:40:09.489Z</time></trkpt><trkpt lat="42.5894017" lon="12.23849"><ele>78.66666666666666</ele><time>2026-05-02T09:40:10.489Z</time></trkpt><trkpt lat="42.5895767" lon="12.238405"><ele>78.33333333333333</ele><time>2026-05-02T09:40:11.489Z</time></trkpt><trkpt lat="42.5897567" lon="12.23832"><ele>78.0</ele><time>2026-05-02T09:40:12.489Z</time></trkpt><trkpt lat="42.5899367" lon="12.23824"><ele>78.0</ele><time>2026-05-02T09:40:13.489Z</time></trkpt><trkpt lat="42.590115" lon="12.238155"><ele>78.0</ele><time>2026-05-02T09:40:14.489Z</time></trkpt><trkpt lat="42.5903017" lon="12.2380883"><ele>78.0</ele><time>2026-05-02T09:40:15.489Z</time></trkpt><trkpt lat="42.59048" lon="12.2380183"><ele>78.33333333333333</ele><time>2026-05-02T09:40:16.489Z</time></trkpt><trkpt lat="42.59066" lon="12.237945"><ele>78.66666666666666</ele><time>2026-05-02T09:40:17.489Z</time></trkpt><trkpt lat="42.590845" lon="12.237875"><ele>79.0</ele><time>2026-05-02T09:40:18.49Z</time></trkpt><trkpt lat="42.5910317" lon="12.2378217"><ele>78.66666666666666</ele><time>2026-05-02T09:40:19.489Z</time></trkpt><trkpt lat="42.5912217" lon="12.2377517"><ele>78.33333333333333</ele><time>2026-05-02T09:40:20.489Z</time></trkpt><trkpt lat="42.59141" lon="12.2376967"><ele>78.0</ele><time>2026-05-02T09:40:21.489Z</time></trkpt><trkpt lat="42.5916" lon="12.2376483"><ele>78.0</ele><time>2026-05-02T09:40:22.489Z</time></trkpt><trkpt lat="42.59179" lon="12.2375967"><ele>78.0</ele><time>2026-05-02T09:40:23.489Z</time></trkpt><trkpt lat="42.5919817" lon="12.2375533"><ele>78.0</ele><time>2026-05-02T09:40:24.489Z</time></trkpt><trkpt lat="42.5921667" lon="12.2375117"><ele>78.33333333333333</ele><time>2026-05-02T09:40:25.489Z</time></trkpt><trkpt lat="42.59236" lon="12.23747"><ele>78.66666666666666</ele><time>2026-05-02T09:40:26.489Z</time></trkpt><trkpt lat="42.592545" lon="12.2374267"><ele>79.0</ele><time>2026-05-02T09:40:27.49Z</time></trkpt><trkpt lat="42.592735" lon="12.23739"><ele>78.33333333333333</ele><time>2026-05-02T09:40:28.49Z</time></trkpt><trkpt lat="42.5929183" lon="12.237355"><ele>77.66666666666667</ele><time>2026-05-02T09:40:29.489Z</time></trkpt><trkpt lat="42.59311" lon="12.2373183"><ele>77.0</ele><time>2026-05-02T09:40:30.489Z</time></trkpt><trkpt lat="42.5932967" lon="12.237285"><ele>77.0</ele><time>2026-05-02T09:40:31.489Z</time></trkpt><trkpt lat="42.5934833" lon="12.237245"><ele>77.0</ele><time>2026-05-02T09:40:32.489Z</time></trkpt><trkpt lat="42.593665" lon="12.2372067"><ele>77.0</ele><time>2026-05-02T09:40:33.489Z</time></trkpt><trkpt lat="42.5938533" lon="12.2371733"><ele>76.66666666666667</ele><time>2026-05-02T09:40:34.489Z</time></trkpt><trkpt lat="42.5940467" lon="12.2371333"><ele>76.33333333333333</ele><time>2026-05-02T09:40:35.489Z</time></trkpt><trkpt lat="42.5942433" lon="12.2371017"><ele>76.0</ele><time>2026-05-02T09:40:36.489Z</time></trkpt><trkpt lat="42.59444" lon="12.2370583"><ele>76.0</ele><time>2026-05-02T09:40:37.489Z</time></trkpt><trkpt lat="42.59464" lon="12.2370167"><ele>76.0</ele><time>2026-05-02T09:40:38.489Z</time></trkpt><trkpt lat="42.594835" lon="12.23698"><ele>76.0</ele><time>2026-05-02T09:40:39.489Z</time></trkpt><trkpt lat="42.595035" lon="12.2369417"><ele>76.0</ele><time>2026-05-02T09:40:40.489Z</time></trkpt><trkpt lat="42.5952333" lon="12.2369017"><ele>76.0</ele><time>2026-05-02T09:40:41.489Z</time></trkpt><trkpt lat="42.5954333" lon="12.2368617"><ele>76.0</ele><time>2026-05-02T09:40:42.489Z</time></trkpt><trkpt lat="42.5956283" lon="12.2368183"><ele>76.0</ele><time>2026-05-02T09:40:43.489Z</time></trkpt><trkpt lat="42.5958317" lon="12.2367767"><ele>76.0</ele><time>2026-05-02T09:40:44.489Z</time></trkpt><trkpt lat="42.59603" lon="12.2367367"><ele>76.0</ele><time>2026-05-02T09:40:45.49Z</time></trkpt><trkpt lat="42.59623" lon="12.2367"><ele>76.33333333333333</ele><time>2026-05-02T09:40:46.489Z</time></trkpt><trkpt lat="42.59643" lon="12.2366617"><ele>76.66666666666667</ele><time>2026-05-02T09:40:47.489Z</time></trkpt><trkpt lat="42.5966233" lon="12.2366233"><ele>77.0</ele><time>2026-05-02T09:40:48.489Z</time></trkpt><trkpt lat="42.5968167" lon="12.236585"><ele>77.33333333333334</ele><time>2026-05-02T09:40:49.489Z</time></trkpt><trkpt lat="42.5970067" lon="12.2365467"><ele>77.66666666666667</ele><time>2026-05-02T09:40:50.489Z</time></trkpt><trkpt lat="42.597195" lon="12.2365067"><ele>78.0</ele><time>2026-05-02T09:40:51.489Z</time></trkpt><trkpt lat="42.5973883" lon="12.2364683"><ele>78.33333333333333</ele><time>2026-05-02T09:40:52.489Z</time></trkpt><trkpt lat="42.5975833" lon="12.2364317"><ele>78.66666666666666</ele><time>2026-05-02T09:40:53.49Z</time></trkpt><trkpt lat="42.5977833" lon="12.2363883"><ele>79.0</ele><time>2026-05-02T09:40:54.489Z</time></trkpt><trkpt lat="42.59798" lon="12.2363567"><ele>79.0</ele><time>2026-05-02T09:40:55.489Z</time></trkpt><trkpt lat="42.59817" lon="12.23631"><ele>79.0</ele><time>2026-05-02T09:40:56.489Z</time></trkpt><trkpt lat="42.5983667" lon="12.2362683"><ele>79.0</ele><time>2026-05-02T09:40:57.489Z</time></trkpt><trkpt lat="42.59856" lon="12.2362267"><ele>78.33333333333333</ele><time>2026-05-02T09:40:58.489Z</time></trkpt><trkpt lat="42.5987583" lon="12.23619"><ele>77.66666666666667</ele><time>2026-05-02T09:40:59.489Z</time></trkpt><trkpt lat="42.5989617" lon="12.2361517"><ele>77.0</ele><time>2026-05-02T09:41:00.49Z</time></trkpt><trkpt lat="42.59916" lon="12.2361133"><ele>77.0</ele><time>2026-05-02T09:41:01.489Z</time></trkpt><trkpt lat="42.5993567" lon="12.2360717"><ele>77.0</ele><time>2026-05-02T09:41:02.489Z</time></trkpt><trkpt lat="42.599555" lon="12.2360333"><ele>77.0</ele><time>2026-05-02T09:41:03.489Z</time></trkpt><trkpt lat="42.5997533" lon="12.235995"><ele>77.33333333333334</ele><time>2026-05-02T09:41:04.489Z</time></trkpt><trkpt lat="42.59995" lon="12.2359533"><ele>77.66666666666667</ele><time>2026-05-02T09:41:05.489Z</time></trkpt><trkpt lat="42.6001467" lon="12.2359117"><ele>78.0</ele><time>2026-05-02T09:41:06.489Z</time></trkpt><trkpt lat="42.600345" lon="12.23587"><ele>78.33333333333333</ele><time>2026-05-02T09:41:07.489Z</time></trkpt><trkpt lat="42.600545" lon="12.2358367"><ele>78.66666666666666</ele><time>2026-05-02T09:41:08.489Z</time></trkpt><trkpt lat="42.6007483" lon="12.2357983"><ele>79.0</ele><time>2026-05-02T09:41:09.49Z</time></trkpt><trkpt lat="42.6009483" lon="12.2357567"><ele>79.0</ele><time>2026-05-02T09:41:10.489Z</time></trkpt><trkpt lat="42.6011433" lon="12.235715"><ele>79.0</ele><time>2026-05-02T09:41:11.489Z</time></trkpt><trkpt lat="42.6013483" lon="12.2356817"><ele>79.0</ele><time>2026-05-02T09:41:12.489Z</time></trkpt><trkpt lat="42.6015433" lon="12.23564"><ele>78.66666666666666</ele><time>2026-05-02T09:41:13.489Z</time></trkpt><trkpt lat="42.6017367" lon="12.2356"><ele>78.33333333333333</ele><time>2026-05-02T09:41:14.489Z</time></trkpt><trkpt lat="42.60193" lon="12.2355617"><ele>78.0</ele><time>2026-05-02T09:41:15.489Z</time></trkpt><trkpt lat="42.6021217" lon="12.2355233"><ele>77.33333333333333</ele><time>2026-05-02T09:41:16.489Z</time></trkpt><trkpt lat="42.60231" lon="12.2354883"><ele>76.66666666666666</ele><time>2026-05-02T09:41:17.489Z</time></trkpt><trkpt lat="42.6024933" lon="12.2354517"><ele>76.0</ele><time>2026-05-02T09:41:18.489Z</time></trkpt><trkpt lat="42.6026783" lon="12.23542"><ele>76.66666666666666</ele><time>2026-05-02T09:41:19.489Z</time></trkpt><trkpt lat="42.60286" lon="12.23538"><ele>77.33333333333333</ele><time>2026-05-02T09:41:20.489Z</time></trkpt><trkpt lat="42.6030467" lon="12.2353433"><ele>78.0</ele><time>2026-05-02T09:41:21.489Z</time></trkpt><trkpt lat="42.6032283" lon="12.2353083"><ele>78.0</ele><time>2026-05-02T09:41:22.489Z</time></trkpt><trkpt lat="42.60341" lon="12.23527"><ele>78.0</ele><time>2026-05-02T09:41:23.489Z</time></trkpt><trkpt lat="42.6035933" lon="12.2352267"><ele>78.0</ele><time>2026-05-02T09:41:24.489Z</time></trkpt><trkpt lat="42.6037833" lon="12.2351883"><ele>78.66666666666667</ele><time>2026-05-02T09:41:25.489Z</time></trkpt><trkpt lat="42.6039733" lon="12.2351517"><ele>79.33333333333334</ele><time>2026-05-02T09:41:26.489Z</time></trkpt><trkpt lat="42.6041617" lon="12.2351167"><ele>80.0</ele><time>2026-05-02T09:41:27.489Z</time></trkpt><trkpt lat="42.6043533" lon="12.2350817"><ele>80.0</ele><time>2026-05-02T09:41:28.489Z</time></trkpt><trkpt lat="42.60454" lon="12.23504"><ele>80.0</ele><time>2026-05-02T09:41:29.489Z</time></trkpt><trkpt lat="42.6047317" lon="12.2350017"><ele>80.0</ele><time>2026-05-02T09:41:30.489Z</time></trkpt><trkpt lat="42.6049267" lon="12.2349617"><ele>80.0</ele><time>2026-05-02T09:41:31.489Z</time></trkpt><trkpt lat="42.6051283" lon="12.2349233"><ele>80.0</ele><time>2026-05-02T09:41:32.489Z</time></trkpt><trkpt lat="42.60533" lon="12.2348817"><ele>80.0</ele><time>2026-05-02T09:41:33.489Z</time></trkpt><trkpt lat="42.6055333" lon="12.23484"><ele>80.33333333333334</ele><time>2026-05-02T09:41:34.489Z</time></trkpt><trkpt lat="42.6057317" lon="12.2348033"><ele>80.66666666666667</ele><time>2026-05-02T09:41:35.489Z</time></trkpt><trkpt lat="42.60593" lon="12.2347683"><ele>81.0</ele><time>2026-05-02T09:41:36.489Z</time></trkpt><trkpt lat="42.6061367" lon="12.23473"><ele>80.66666666666667</ele><time>2026-05-02T09:41:37.489Z</time></trkpt><trkpt lat="42.60634" lon="12.2346917"><ele>80.33333333333334</ele><time>2026-05-02T09:41:38.489Z</time></trkpt><trkpt lat="42.6065433" lon="12.2346533"><ele>80.0</ele><time>2026-05-02T09:41:39.49Z</time></trkpt><trkpt lat="42.60674" lon="12.2346167"><ele>80.0</ele><time>2026-05-02T09:41:40.489Z</time></trkpt><trkpt lat="42.6069333" lon="12.2345733"><ele>80.0</ele><time>2026-05-02T09:41:41.489Z</time></trkpt><trkpt lat="42.6071217" lon="12.2345317"><ele>80.0</ele><time>2026-05-02T09:41:42.489Z</time></trkpt><trkpt lat="42.6073067" lon="12.2344917"><ele>80.66666666666667</ele><time>2026-05-02T09:41:43.489Z</time></trkpt><trkpt lat="42.6074967" lon="12.2344483"><ele>81.33333333333333</ele><time>2026-05-02T09:41:44.489Z</time></trkpt><trkpt lat="42.6076833" lon="12.23441"><ele>82.0</ele><time>2026-05-02T09:41:45.489Z</time></trkpt><trkpt lat="42.60787" lon="12.234375"><ele>80.66666666666666</ele><time>2026-05-02T09:41:46.489Z</time></trkpt><trkpt lat="42.6080617" lon="12.23434"><ele>79.33333333333333</ele><time>2026-05-02T09:41:47.489Z</time></trkpt><trkpt lat="42.6082517" lon="12.2343067"><ele>78.0</ele><time>2026-05-02T09:41:48.489Z</time></trkpt><trkpt lat="42.60844" lon="12.2342683"><ele>78.0</ele><time>2026-05-02T09:41:49.489Z</time></trkpt><trkpt lat="42.60863" lon="12.2342333"><ele>78.0</ele><time>2026-05-02T09:41:50.489Z</time></trkpt><trkpt lat="42.6088183" lon="12.2341967"><ele>78.0</ele><time>2026-05-02T09:41:51.489Z</time></trkpt><trkpt lat="42.6090117" lon="12.2341567"><ele>78.33333333333333</ele><time>2026-05-02T09:41:52.49Z</time></trkpt><trkpt lat="42.6092" lon="12.234125"><ele>78.66666666666666</ele><time>2026-05-02T09:41:53.489Z</time></trkpt><trkpt lat="42.6093883" lon="12.234085"><ele>79.0</ele><time>2026-05-02T09:41:54.489Z</time></trkpt><trkpt lat="42.609575" lon="12.2340433"><ele>79.33333333333333</ele><time>2026-05-02T09:41:55.489Z</time></trkpt><trkpt lat="42.6097667" lon="12.2340017"><ele>79.66666666666667</ele><time>2026-05-02T09:41:56.49Z</time></trkpt><trkpt lat="42.6099517" lon="12.2339633"><ele>80.0</ele><time>2026-05-02T09:41:57.489Z</time></trkpt><trkpt lat="42.6101383" lon="12.23393"><ele>79.0</ele><time>2026-05-02T09:41:58.489Z</time></trkpt><trkpt lat="42.6103333" lon="12.233895"><ele>78.0</ele><time>2026-05-02T09:41:59.489Z</time></trkpt><trkpt lat="42.61052" lon="12.2338567"><ele>77.0</ele><time>2026-05-02T09:42:00.489Z</time></trkpt><trkpt lat="42.610705" lon="12.2338183"><ele>77.0</ele><time>2026-05-02T09:42:01.489Z</time></trkpt><trkpt lat="42.6108917" lon="12.2337767"><ele>77.0</ele><time>2026-05-02T09:42:02.489Z</time></trkpt><trkpt lat="42.6110817" lon="12.2337367"><ele>77.0</ele><time>2026-05-02T09:42:03.489Z</time></trkpt><trkpt lat="42.6112717" lon="12.2337017"><ele>77.66666666666667</ele><time>2026-05-02T09:42:04.489Z</time></trkpt><trkpt lat="42.6114633" lon="12.2336583"><ele>78.33333333333333</ele><time>2026-05-02T09:42:05.489Z</time></trkpt><trkpt lat="42.6116567" lon="12.2336217"><ele>79.0</ele><time>2026-05-02T09:42:06.489Z</time></trkpt><trkpt lat="42.61185" lon="12.2335833"><ele>79.0</ele><time>2026-05-02T09:42:07.489Z</time></trkpt><trkpt lat="42.6120483" lon="12.2335483"><ele>79.0</ele><time>2026-05-02T09:42:08.489Z</time></trkpt><trkpt lat="42.61225" lon="12.233515"><ele>79.0</ele><time>2026-05-02T09:42:09.489Z</time></trkpt><trkpt lat="42.6124483" lon="12.2334767"><ele>79.0</ele><time>2026-05-02T09:42:10.489Z</time></trkpt><trkpt lat="42.612645" lon="12.2334367"><ele>79.0</ele><time>2026-05-02T09:42:11.49Z</time></trkpt><trkpt lat="42.61284" lon="12.2334033"><ele>79.0</ele><time>2026-05-02T09:42:12.489Z</time></trkpt><trkpt lat="42.613045" lon="12.2333617"><ele>78.33333333333333</ele><time>2026-05-02T09:42:13.489Z</time></trkpt><trkpt lat="42.613245" lon="12.233315"><ele>77.66666666666667</ele><time>2026-05-02T09:42:14.489Z</time></trkpt><trkpt lat="42.613445" lon="12.2332733"><ele>77.0</ele><time>2026-05-02T09:42:15.489Z</time></trkpt><trkpt lat="42.6136483" lon="12.2332333"><ele>77.0</ele><time>2026-05-02T09:42:16.49Z</time></trkpt><trkpt lat="42.613845" lon="12.2331933"><ele>77.0</ele><time>2026-05-02T09:42:17.489Z</time></trkpt><trkpt lat="42.61404" lon="12.2331533"><ele>77.0</ele><time>2026-05-02T09:42:18.489Z</time></trkpt><trkpt lat="42.6142317" lon="12.2331167"><ele>77.66666666666667</ele><time>2026-05-02T09:42:19.49Z</time></trkpt><trkpt lat="42.6144167" lon="12.2330767"><ele>78.33333333333333</ele><time>2026-05-02T09:42:20.489Z</time></trkpt><trkpt lat="42.6145967" lon="12.23304"><ele>79.0</ele><time>2026-05-02T09:42:21.489Z</time></trkpt><trkpt lat="42.61478" lon="12.2330067"><ele>79.66666666666666</ele><time>2026-05-02T09:42:22.489Z</time></trkpt><trkpt lat="42.6149583" lon="12.232975"><ele>80.33333333333333</ele><time>2026-05-02T09:42:23.489Z</time></trkpt><trkpt lat="42.6151417" lon="12.2329433"><ele>81.0</ele><time>2026-05-02T09:42:24.489Z</time></trkpt><trkpt lat="42.6153217" lon="12.2329083"><ele>82.0</ele><time>2026-05-02T09:42:25.49Z</time></trkpt><trkpt lat="42.6155033" lon="12.2328733"><ele>83.0</ele><time>2026-05-02T09:42:26.489Z</time></trkpt><trkpt lat="42.615685" lon="12.2328433"><ele>84.0</ele><time>2026-05-02T09:42:27.489Z</time></trkpt><trkpt lat="42.6158633" lon="12.23281"><ele>84.0</ele><time>2026-05-02T09:42:28.489Z</time></trkpt><trkpt lat="42.6160383" lon="12.2327733"><ele>84.0</ele><time>2026-05-02T09:42:29.489Z</time></trkpt><trkpt lat="42.616205" lon="12.2327383"><ele>84.0</ele><time>2026-05-02T09:42:30.49Z</time></trkpt><trkpt lat="42.6163567" lon="12.2327117"><ele>85.25</ele><time>2026-05-02T09:42:31.489Z</time></trkpt><trkpt lat="42.6164933" lon="12.2326817"><ele>86.5</ele><time>2026-05-02T09:42:32.489Z</time></trkpt><trkpt lat="42.616625" lon="12.2326567"><ele>87.75</ele><time>2026-05-02T09:42:33.49Z</time></trkpt><trkpt lat="42.616745" lon="12.23263"><ele>89.0</ele><time>2026-05-02T09:42:34.489Z</time></trkpt><trkpt lat="42.61686" lon="12.2325983"><ele>89.0</ele><time>2026-05-02T09:42:35.489Z</time></trkpt><trkpt lat="42.616985" lon="12.2325717"><ele>89.0</ele><time>2026-05-02T09:42:36.489Z</time></trkpt><trkpt lat="42.6171117" lon="12.2325483"><ele>89.0</ele><time>2026-05-02T09:42:37.489Z</time></trkpt><trkpt lat="42.6172383" lon="12.2325167"><ele>89.0</ele><time>2026-05-02T09:42:38.489Z</time></trkpt><trkpt lat="42.61738" lon="12.2324883"><ele>90.0</ele><time>2026-05-02T09:42:39.489Z</time></trkpt><trkpt lat="42.617525" lon="12.2324617"><ele>91.0</ele><time>2026-05-02T09:42:40.489Z</time></trkpt><trkpt lat="42.61768" lon="12.2324367"><ele>92.0</ele><time>2026-05-02T09:42:41.489Z</time></trkpt><trkpt lat="42.6178383" lon="12.2324067"><ele>92.33333333333334</ele><time>2026-05-02T09:42:42.489Z</time></trkpt><trkpt lat="42.618" lon="12.2323733"><ele>92.66666666666667</ele><time>2026-05-02T09:42:43.489Z</time></trkpt><trkpt lat="42.618165" lon="12.2323383"><ele>93.0</ele><time>2026-05-02T09:42:44.49Z</time></trkpt><trkpt lat="42.61834" lon="12.2322967"><ele>93.66666666666667</ele><time>2026-05-02T09:42:45.489Z</time></trkpt><trkpt lat="42.6185067" lon="12.2322633"><ele>94.33333333333334</ele><time>2026-05-02T09:42:46.489Z</time></trkpt><trkpt lat="42.6186767" lon="12.2322267"><ele>95.0</ele><time>2026-05-02T09:42:47.49Z</time></trkpt><trkpt lat="42.6188433" lon="12.2321967"><ele>95.0</ele><time>2026-05-02T09:42:48.489Z</time></trkpt><trkpt lat="42.6190117" lon="12.2321667"><ele>95.0</ele><time>2026-05-02T09:42:49.489Z</time></trkpt><trkpt lat="42.6191767" lon="12.232135"><ele>95.0</ele><time>2026-05-02T09:42:50.489Z</time></trkpt><trkpt lat="42.6193383" lon="12.2320917"><ele>94.66666666666667</ele><time>2026-05-02T09:42:51.489Z</time></trkpt><trkpt lat="42.6194933" lon="12.2320717"><ele>94.33333333333333</ele><time>2026-05-02T09:42:52.489Z</time></trkpt><trkpt lat="42.6196517" lon="12.2320533"><ele>94.0</ele><time>2026-05-02T09:42:53.489Z</time></trkpt><trkpt lat="42.6198033" lon="12.2320183"><ele>94.0</ele><time>2026-05-02T09:42:54.489Z</time></trkpt><trkpt lat="42.619955" lon="12.2319933"><ele>94.0</ele><time>2026-05-02T09:42:55.49Z</time></trkpt><trkpt lat="42.6201033" lon="12.231965"><ele>94.0</ele><time>2026-05-02T09:42:56.49Z</time></trkpt><trkpt lat="42.6202483" lon="12.2319333"><ele>94.0</ele><time>2026-05-02T09:42:57.489Z</time></trkpt><trkpt lat="42.62039" lon="12.23191"><ele>94.0</ele><time>2026-05-02T09:42:58.489Z</time></trkpt><trkpt lat="42.6205333" lon="12.231885"><ele>94.0</ele><time>2026-05-02T09:42:59.489Z</time></trkpt><trkpt lat="42.6206783" lon="12.2318583"><ele>94.0</ele><time>2026-05-02T09:43:00.489Z</time></trkpt><trkpt lat="42.62082" lon="12.2318333"><ele>94.0</ele><time>2026-05-02T09:43:01.489Z</time></trkpt><trkpt lat="42.620955" lon="12.2318083"><ele>94.0</ele><time>2026-05-02T09:43:02.489Z</time></trkpt><trkpt lat="42.62109" lon="12.2317833"><ele>94.0</ele><time>2026-05-02T09:43:03.489Z</time></trkpt><trkpt lat="42.621225" lon="12.2317633"><ele>94.0</ele><time>2026-05-02T09:43:04.489Z</time></trkpt><trkpt lat="42.621355" lon="12.231755"><ele>94.0</ele><time>2026-05-02T09:43:05.489Z</time></trkpt><trkpt lat="42.621485" lon="12.2317583"><ele>93.75</ele><time>2026-05-02T09:43:06.489Z</time></trkpt><trkpt lat="42.6216133" lon="12.2317733"><ele>93.5</ele><time>2026-05-02T09:43:07.489Z</time></trkpt><trkpt lat="42.62174" lon="12.2318017"><ele>93.25</ele><time>2026-05-02T09:43:08.489Z</time></trkpt><trkpt lat="42.6218583" lon="12.2318333"><ele>93.0</ele><time>2026-05-02T09:43:09.489Z</time></trkpt><trkpt lat="42.6219767" lon="12.2318583"><ele>92.75</ele><time>2026-05-02T09:43:10.489Z</time></trkpt><trkpt lat="42.6220917" lon="12.231865"><ele>92.5</ele><time>2026-05-02T09:43:11.489Z</time></trkpt><trkpt lat="42.6222033" lon="12.2318567"><ele>92.25</ele><time>2026-05-02T09:43:12.489Z</time></trkpt><trkpt lat="42.622315" lon="12.2318267"><ele>92.0</ele><time>2026-05-02T09:43:13.489Z</time></trkpt><trkpt lat="42.6224267" lon="12.23179"><ele>92.0</ele><time>2026-05-02T09:43:14.489Z</time></trkpt><trkpt lat="42.6225367" lon="12.2317433"><ele>92.0</ele><time>2026-05-02T09:43:15.489Z</time></trkpt><trkpt lat="42.622645" lon="12.2316983"><ele>92.0</ele><time>2026-05-02T09:43:16.489Z</time></trkpt><trkpt lat="42.6227567" lon="12.2316583"><ele>92.0</ele><time>2026-05-02T09:43:17.489Z</time></trkpt><trkpt lat="42.622875" lon="12.2316267"><ele>92.5</ele><time>2026-05-02T09:43:18.489Z</time></trkpt><trkpt lat="42.6229967" lon="12.2315933"><ele>93.0</ele><time>2026-05-02T09:43:19.49Z</time></trkpt><trkpt lat="42.6231233" lon="12.2315767"><ele>93.5</ele><time>2026-05-02T09:43:20.489Z</time></trkpt><trkpt lat="42.6232517" lon="12.2315583"><ele>94.0</ele><time>2026-05-02T09:43:21.489Z</time></trkpt><trkpt lat="42.6233767" lon="12.2315333"><ele>94.0</ele><time>2026-05-02T09:43:22.489Z</time></trkpt><trkpt lat="42.6235067" lon="12.2315067"><ele>94.0</ele><time>2026-05-02T09:43:23.489Z</time></trkpt><trkpt lat="42.6236233" lon="12.2314767"><ele>94.0</ele><time>2026-05-02T09:43:24.489Z</time></trkpt><trkpt lat="42.6237367" lon="12.2314483"><ele>94.0</ele><time>2026-05-02T09:43:25.489Z</time></trkpt><trkpt lat="42.623845" lon="12.2314267"><ele>94.2</ele><time>2026-05-02T09:43:26.489Z</time></trkpt><trkpt lat="42.62395" lon="12.2314033"><ele>94.4</ele><time>2026-05-02T09:43:27.489Z</time></trkpt><trkpt lat="42.624055" lon="12.231385"><ele>94.6</ele><time>2026-05-02T09:43:28.489Z</time></trkpt><trkpt lat="42.6241583" lon="12.23138"><ele>94.8</ele><time>2026-05-02T09:43:29.489Z</time></trkpt><trkpt lat="42.624255" lon="12.2313817"><ele>95.0</ele><time>2026-05-02T09:43:30.489Z</time></trkpt><trkpt lat="42.62434" lon="12.231385"><ele>95.0</ele><time>2026-05-02T09:43:31.49Z</time></trkpt><trkpt lat="42.6244233" lon="12.2313967"><ele>95.0</ele><time>2026-05-02T09:43:32.489Z</time></trkpt><trkpt lat="42.6245133" lon="12.231415"><ele>95.0</ele><time>2026-05-02T09:43:33.489Z</time></trkpt><trkpt lat="42.6245967" lon="12.2314383"><ele>95.0</ele><time>2026-05-02T09:43:34.489Z</time></trkpt><trkpt lat="42.6246767" lon="12.2314733"><ele>95.0</ele><time>2026-05-02T09:43:35.489Z</time></trkpt><trkpt lat="42.624745" lon="12.2315033"><ele>95.0</ele><time>2026-05-02T09:43:36.489Z</time></trkpt><trkpt lat="42.6248067" lon="12.23153"><ele>95.5</ele><time>2026-05-02T09:43:37.489Z</time></trkpt><trkpt lat="42.624915" lon="12.2315633"><ele>96.0</ele><time>2026-05-02T09:43:39.489Z</time></trkpt><trkpt lat="42.624985" lon="12.2315833"><ele>96.5</ele><time>2026-05-02T09:43:41.489Z</time></trkpt><trkpt lat="42.6250483" lon="12.2316017"><ele>97.0</ele><time>2026-05-02T09:43:45.489Z</time></trkpt><trkpt lat="42.625125" lon="12.2315633"><ele>97.49999999999999</ele><time>2026-05-02T09:43:48.489Z</time></trkpt><trkpt lat="42.6251682" lon="12.231663"><ele>98.0</ele><time>2026-05-02T09:46:37.553Z</time></trkpt><trkpt lat="42.6252184" lon="12.2317235"><ele>97.99999999999999</ele><time>2026-05-02T09:46:57.513Z</time></trkpt><trkpt lat="42.6252222" lon="12.2318251"><ele>98.0</ele><time>2026-05-02T09:47:25.49Z</time></trkpt><trkpt lat="42.6252861" lon="12.2318121"><ele>98.0</ele><time>2026-05-02T09:47:53.552Z</time></trkpt><trkpt lat="42.6252429" lon="12.2318886"><ele>98.0</ele><time>2026-05-02T09:48:12.524Z</time></trkpt><trkpt lat="42.625263" lon="12.23175"><ele>97.99999999999999</ele><time>2026-05-02T09:48:29.523Z</time></trkpt><trkpt lat="42.6252676" lon="12.2316538"><ele>98.0</ele><time>2026-05-02T09:48:35.554Z</time></trkpt><trkpt lat="42.6253171" lon="12.2317196"><ele>97.0</ele><time>2026-05-02T09:50:50.152Z</time></trkpt><trkpt lat="42.6252529" lon="12.2317305"><ele>98.0</ele><time>2026-05-02T09:50:56.593Z</time></trkpt><trkpt lat="42.6252203" lon="12.2316445"><ele>98.0</ele><time>2026-05-02T09:51:00.529Z</time></trkpt></trkseg><trkseg><trkpt lat="43.192615" lon="11.4677633"><ele>156.0</ele><time>2026-05-02T15:32:56.488Z</time></trkpt><trkpt lat="43.1927017" lon="11.46767"><ele>156.0</ele><time>2026-05-02T15:32:58.489Z</time></trkpt><trkpt lat="43.1927583" lon="11.4676117"><ele>156.0</ele><time>2026-05-02T15:32:59.488Z</time></trkpt><trkpt lat="43.1928183" lon="11.467545"><ele>156.0</ele><time>2026-05-02T15:33:00.488Z</time></trkpt><trkpt lat="43.1928833" lon="11.4674783"><ele>156.0</ele><time>2026-05-02T15:33:01.488Z</time></trkpt><trkpt lat="43.1929483" lon="11.4674117"><ele>156.0</ele><time>2026-05-02T15:33:02.488Z</time></trkpt><trkpt lat="43.1930217" lon="11.4673467"><ele>156.0</ele><time>2026-05-02T15:33:03.488Z</time></trkpt><trkpt lat="43.193095" lon="11.467275"><ele>156.0</ele><time>2026-05-02T15:33:04.488Z</time></trkpt><trkpt lat="43.19317" lon="11.4672067"><ele>156.0</ele><time>2026-05-02T15:33:05.488Z</time></trkpt><trkpt lat="43.1932467" lon="11.46714"><ele>156.0</ele><time>2026-05-02T15:33:06.488Z</time></trkpt><trkpt lat="43.1933283" lon="11.467075"><ele>156.0</ele><time>2026-05-02T15:33:07.488Z</time></trkpt><trkpt lat="43.1934067" lon="11.467005"><ele>156.0</ele><time>2026-05-02T15:33:08.488Z</time></trkpt><trkpt lat="43.1934883" lon="11.4669333"><ele>156.0</ele><time>2026-05-02T15:33:09.488Z</time></trkpt><trkpt lat="43.193565" lon="11.46686"><ele>156.0</ele><time>2026-05-02T15:33:10.488Z</time></trkpt><trkpt lat="43.1936433" lon="11.46679"><ele>156.0</ele><time>2026-05-02T15:33:11.488Z</time></trkpt><trkpt lat="43.193725" lon="11.4667217"><ele>156.0</ele><time>2026-05-02T15:33:12.488Z</time></trkpt><trkpt lat="43.19381" lon="11.4666483"><ele>156.0</ele><time>2026-05-02T15:33:13.488Z</time></trkpt><trkpt lat="43.1938983" lon="11.46657"><ele>156.0</ele><time>2026-05-02T15:33:14.488Z</time></trkpt><trkpt lat="43.193985" lon="11.4664933"><ele>156.0</ele><time>2026-05-02T15:33:15.488Z</time></trkpt><trkpt lat="43.1940767" lon="11.466415"><ele>156.0</ele><time>2026-05-02T15:33:16.488Z</time></trkpt><trkpt lat="43.1941617" lon="11.4663333"><ele>156.0</ele><time>2026-05-02T15:33:17.489Z</time></trkpt><trkpt lat="43.1942433" lon="11.46625"><ele>155.8</ele><time>2026-05-02T15:33:18.488Z</time></trkpt><trkpt lat="43.1943183" lon="11.4661683"><ele>155.6</ele><time>2026-05-02T15:33:19.488Z</time></trkpt><trkpt lat="43.1943933" lon="11.46609"><ele>155.4</ele><time>2026-05-02T15:33:20.488Z</time></trkpt><trkpt lat="43.1944717" lon="11.46601"><ele>155.2</ele><time>2026-05-02T15:33:21.488Z</time></trkpt><trkpt lat="43.194545" lon="11.465945"><ele>155.0</ele><time>2026-05-02T15:33:22.488Z</time></trkpt><trkpt lat="43.1946133" lon="11.4658833"><ele>155.0</ele><time>2026-05-02T15:33:23.489Z</time></trkpt><trkpt lat="43.194675" lon="11.4658267"><ele>155.0</ele><time>2026-05-02T15:33:24.487Z</time></trkpt><trkpt lat="43.19477" lon="11.4657417"><ele>155.0</ele><time>2026-05-02T15:33:26.488Z</time></trkpt></trkseg></trk></gpx>